<?xml version="1.0" encoding="UTF-8" standalone="no" ?>
<gpx xmlns="http://www.topografix.com/GPX/1/1" xmlns:xsi="http://www.w3.org/2001/XMLSchema-instance" xsi:schemaLocation="http://www.topografix.com/GPX/1/1 http://www.topografix.com/GPX/1/1/gpx.xsd" version="1.1" creator="VisuGPX - https://www.visugpx.com">
  <metadata>
    <name>ALOS</name>
  </metadata>
  <trk>
    <name><![CDATA[ALOS_1]]></name>
    <trkseg>
      <trkpt lat="44.02389" lon="1.87824">
        <ele>266</ele>
        <time>2020-10-04T11:12:22.868Z</time>
      </trkpt>
      <trkpt lat="44.0239" lon="1.87822">
        <ele>267</ele>
        <time>2020-10-04T11:12:23.868Z</time>
      </trkpt>
      <trkpt lat="44.0239" lon="1.8782">
        <ele>267</ele>
        <time>2020-10-04T11:12:24.868Z</time>
      </trkpt>
      <trkpt lat="44.02391" lon="1.87819">
        <ele>267</ele>
        <time>2020-10-04T11:12:25.868Z</time>
      </trkpt>
      <trkpt lat="44.02391" lon="1.87817">
        <ele>267</ele>
        <time>2020-10-04T11:12:26.868Z</time>
      </trkpt>
      <trkpt lat="44.02392" lon="1.87816">
        <ele>267</ele>
        <time>2020-10-04T11:12:27.868Z</time>
      </trkpt>
      <trkpt lat="44.02393" lon="1.87814">
        <ele>267</ele>
        <time>2020-10-04T11:12:28.868Z</time>
      </trkpt>
      <trkpt lat="44.02394" lon="1.87812">
        <ele>267</ele>
        <time>2020-10-04T11:12:29.868Z</time>
      </trkpt>
      <trkpt lat="44.02395" lon="1.87811">
        <ele>267</ele>
        <time>2020-10-04T11:12:30.868Z</time>
      </trkpt>
      <trkpt lat="44.02395" lon="1.87809">
        <ele>267</ele>
        <time>2020-10-04T11:12:31.868Z</time>
      </trkpt>
      <trkpt lat="44.02396" lon="1.87808">
        <ele>267</ele>
        <time>2020-10-04T11:12:32.868Z</time>
      </trkpt>
      <trkpt lat="44.02397" lon="1.87806">
        <ele>267</ele>
        <time>2020-10-04T11:12:33.868Z</time>
      </trkpt>
      <trkpt lat="44.02398" lon="1.87805">
        <ele>267</ele>
        <time>2020-10-04T11:12:34.868Z</time>
      </trkpt>
      <trkpt lat="44.02398" lon="1.87803">
        <ele>266</ele>
        <time>2020-10-04T11:12:35.868Z</time>
      </trkpt>
      <trkpt lat="44.02399" lon="1.87801">
        <ele>266</ele>
        <time>2020-10-04T11:12:36.868Z</time>
      </trkpt>
      <trkpt lat="44.02399" lon="1.87799">
        <ele>267</ele>
        <time>2020-10-04T11:12:37.868Z</time>
      </trkpt>
      <trkpt lat="44.02399" lon="1.87797">
        <ele>267</ele>
        <time>2020-10-04T11:12:38.868Z</time>
      </trkpt>
      <trkpt lat="44.02399" lon="1.87795">
        <ele>266</ele>
        <time>2020-10-04T11:12:39.868Z</time>
      </trkpt>
      <trkpt lat="44.02399" lon="1.87793">
        <ele>266</ele>
        <time>2020-10-04T11:12:40.868Z</time>
      </trkpt>
      <trkpt lat="44.02399" lon="1.87792">
        <ele>267</ele>
        <time>2020-10-04T11:12:41.868Z</time>
      </trkpt>
      <trkpt lat="44.02398" lon="1.8779">
        <ele>267</ele>
        <time>2020-10-04T11:12:42.868Z</time>
      </trkpt>
      <trkpt lat="44.02398" lon="1.87789">
        <ele>267</ele>
        <time>2020-10-04T11:12:43.868Z</time>
      </trkpt>
      <trkpt lat="44.02397" lon="1.87788">
        <ele>267</ele>
        <time>2020-10-04T11:12:44.868Z</time>
      </trkpt>
      <trkpt lat="44.02396" lon="1.87786">
        <ele>267</ele>
        <time>2020-10-04T11:12:45.868Z</time>
      </trkpt>
      <trkpt lat="44.02396" lon="1.87785">
        <ele>267</ele>
        <time>2020-10-04T11:12:46.868Z</time>
      </trkpt>
      <trkpt lat="44.02395" lon="1.87784">
        <ele>268</ele>
        <time>2020-10-04T11:12:47.868Z</time>
      </trkpt>
      <trkpt lat="44.02394" lon="1.87782">
        <ele>268</ele>
        <time>2020-10-04T11:12:48.868Z</time>
      </trkpt>
      <trkpt lat="44.02393" lon="1.87781">
        <ele>268</ele>
        <time>2020-10-04T11:12:49.868Z</time>
      </trkpt>
      <trkpt lat="44.02393" lon="1.87779">
        <ele>268</ele>
        <time>2020-10-04T11:12:50.868Z</time>
      </trkpt>
      <trkpt lat="44.02392" lon="1.87777">
        <ele>269</ele>
        <time>2020-10-04T11:12:51.868Z</time>
      </trkpt>
      <trkpt lat="44.02392" lon="1.87775">
        <ele>269</ele>
        <time>2020-10-04T11:12:52.868Z</time>
      </trkpt>
      <trkpt lat="44.02392" lon="1.87773">
        <ele>269</ele>
        <time>2020-10-04T11:12:53.868Z</time>
      </trkpt>
      <trkpt lat="44.02392" lon="1.87771">
        <ele>270</ele>
        <time>2020-10-04T11:12:54.868Z</time>
      </trkpt>
      <trkpt lat="44.02392" lon="1.8777">
        <ele>270</ele>
        <time>2020-10-04T11:12:55.868Z</time>
      </trkpt>
      <trkpt lat="44.02392" lon="1.87768">
        <ele>270</ele>
        <time>2020-10-04T11:12:56.868Z</time>
      </trkpt>
      <trkpt lat="44.02393" lon="1.87766">
        <ele>270</ele>
        <time>2020-10-04T11:12:57.868Z</time>
      </trkpt>
      <trkpt lat="44.02393" lon="1.87765">
        <ele>270</ele>
        <time>2020-10-04T11:12:58.868Z</time>
      </trkpt>
      <trkpt lat="44.02393" lon="1.87763">
        <ele>270</ele>
        <time>2020-10-04T11:12:59.868Z</time>
      </trkpt>
      <trkpt lat="44.02393" lon="1.87761">
        <ele>270</ele>
        <time>2020-10-04T11:13:00.868Z</time>
      </trkpt>
      <trkpt lat="44.02394" lon="1.8776">
        <ele>271</ele>
        <time>2020-10-04T11:13:01.868Z</time>
      </trkpt>
      <trkpt lat="44.02394" lon="1.87758">
        <ele>271</ele>
        <time>2020-10-04T11:13:02.868Z</time>
      </trkpt>
      <trkpt lat="44.02394" lon="1.87757">
        <ele>271</ele>
        <time>2020-10-04T11:13:03.868Z</time>
      </trkpt>
      <trkpt lat="44.02394" lon="1.87755">
        <ele>271</ele>
        <time>2020-10-04T11:13:04.868Z</time>
      </trkpt>
      <trkpt lat="44.02394" lon="1.87753">
        <ele>271</ele>
        <time>2020-10-04T11:13:05.868Z</time>
      </trkpt>
      <trkpt lat="44.02394" lon="1.87752">
        <ele>271</ele>
        <time>2020-10-04T11:13:06.868Z</time>
      </trkpt>
      <trkpt lat="44.02394" lon="1.8775">
        <ele>271</ele>
        <time>2020-10-04T11:13:07.868Z</time>
      </trkpt>
      <trkpt lat="44.02395" lon="1.87749">
        <ele>271</ele>
        <time>2020-10-04T11:13:08.868Z</time>
      </trkpt>
      <trkpt lat="44.02395" lon="1.87748">
        <ele>271</ele>
        <time>2020-10-04T11:13:09.868Z</time>
      </trkpt>
      <trkpt lat="44.02395" lon="1.87747">
        <ele>271</ele>
        <time>2020-10-04T11:13:10.868Z</time>
      </trkpt>
      <trkpt lat="44.02395" lon="1.87745">
        <ele>272</ele>
        <time>2020-10-04T11:13:11.868Z</time>
      </trkpt>
      <trkpt lat="44.02395" lon="1.87745">
        <ele>272</ele>
        <time>2020-10-04T11:13:12.868Z</time>
      </trkpt>
      <trkpt lat="44.02395" lon="1.87744">
        <ele>272</ele>
        <time>2020-10-04T11:13:13.868Z</time>
      </trkpt>
      <trkpt lat="44.02395" lon="1.87743">
        <ele>272</ele>
        <time>2020-10-04T11:13:14.868Z</time>
      </trkpt>
      <trkpt lat="44.02395" lon="1.87742">
        <ele>273</ele>
        <time>2020-10-04T11:13:15.868Z</time>
      </trkpt>
      <trkpt lat="44.02395" lon="1.87741">
        <ele>273</ele>
        <time>2020-10-04T11:13:16.868Z</time>
      </trkpt>
      <trkpt lat="44.02395" lon="1.87739">
        <ele>273</ele>
        <time>2020-10-04T11:13:17.868Z</time>
      </trkpt>
      <trkpt lat="44.02396" lon="1.87738">
        <ele>273</ele>
        <time>2020-10-04T11:13:18.868Z</time>
      </trkpt>
      <trkpt lat="44.02396" lon="1.87736">
        <ele>273</ele>
        <time>2020-10-04T11:13:19.868Z</time>
      </trkpt>
      <trkpt lat="44.02396" lon="1.87735">
        <ele>273</ele>
        <time>2020-10-04T11:13:20.868Z</time>
      </trkpt>
      <trkpt lat="44.02397" lon="1.87733">
        <ele>273</ele>
        <time>2020-10-04T11:13:21.868Z</time>
      </trkpt>
      <trkpt lat="44.02397" lon="1.87731">
        <ele>274</ele>
        <time>2020-10-04T11:13:22.868Z</time>
      </trkpt>
      <trkpt lat="44.02398" lon="1.8773">
        <ele>274</ele>
        <time>2020-10-04T11:13:23.868Z</time>
      </trkpt>
      <trkpt lat="44.02398" lon="1.87728">
        <ele>274</ele>
        <time>2020-10-04T11:13:24.868Z</time>
      </trkpt>
      <trkpt lat="44.02399" lon="1.87727">
        <ele>274</ele>
        <time>2020-10-04T11:13:25.868Z</time>
      </trkpt>
      <trkpt lat="44.02399" lon="1.87725">
        <ele>274</ele>
        <time>2020-10-04T11:13:26.868Z</time>
      </trkpt>
      <trkpt lat="44.02399" lon="1.87723">
        <ele>274</ele>
        <time>2020-10-04T11:13:27.868Z</time>
      </trkpt>
      <trkpt lat="44.02399" lon="1.87721">
        <ele>274</ele>
        <time>2020-10-04T11:13:28.868Z</time>
      </trkpt>
      <trkpt lat="44.02399" lon="1.8772">
        <ele>274</ele>
        <time>2020-10-04T11:13:29.868Z</time>
      </trkpt>
      <trkpt lat="44.024" lon="1.87718">
        <ele>274</ele>
        <time>2020-10-04T11:13:30.868Z</time>
      </trkpt>
      <trkpt lat="44.024" lon="1.87716">
        <ele>274</ele>
        <time>2020-10-04T11:13:31.868Z</time>
      </trkpt>
      <trkpt lat="44.02401" lon="1.87715">
        <ele>273</ele>
        <time>2020-10-04T11:13:32.868Z</time>
      </trkpt>
      <trkpt lat="44.02401" lon="1.87713">
        <ele>273</ele>
        <time>2020-10-04T11:13:33.868Z</time>
      </trkpt>
      <trkpt lat="44.02402" lon="1.87711">
        <ele>273</ele>
        <time>2020-10-04T11:13:34.868Z</time>
      </trkpt>
      <trkpt lat="44.02402" lon="1.8771">
        <ele>273</ele>
        <time>2020-10-04T11:13:35.868Z</time>
      </trkpt>
      <trkpt lat="44.02402" lon="1.87708">
        <ele>273</ele>
        <time>2020-10-04T11:13:36.868Z</time>
      </trkpt>
      <trkpt lat="44.02401" lon="1.87707">
        <ele>273</ele>
        <time>2020-10-04T11:13:37.868Z</time>
      </trkpt>
      <trkpt lat="44.02401" lon="1.87705">
        <ele>273</ele>
        <time>2020-10-04T11:13:38.868Z</time>
      </trkpt>
      <trkpt lat="44.02401" lon="1.87704">
        <ele>273</ele>
        <time>2020-10-04T11:13:39.868Z</time>
      </trkpt>
      <trkpt lat="44.02401" lon="1.87703">
        <ele>273</ele>
        <time>2020-10-04T11:13:40.868Z</time>
      </trkpt>
      <trkpt lat="44.02402" lon="1.87702">
        <ele>273</ele>
        <time>2020-10-04T11:13:41.868Z</time>
      </trkpt>
      <trkpt lat="44.02402" lon="1.87701">
        <ele>273</ele>
        <time>2020-10-04T11:13:42.868Z</time>
      </trkpt>
      <trkpt lat="44.02401" lon="1.877">
        <ele>273</ele>
        <time>2020-10-04T11:13:43.868Z</time>
      </trkpt>
      <trkpt lat="44.02401" lon="1.877">
        <ele>273</ele>
        <time>2020-10-04T11:13:44.868Z</time>
      </trkpt>
      <trkpt lat="44.02401" lon="1.877">
        <ele>273</ele>
        <time>2020-10-04T11:13:45.868Z</time>
      </trkpt>
      <trkpt lat="44.02401" lon="1.877">
        <ele>273</ele>
        <time>2020-10-04T11:13:46.868Z</time>
      </trkpt>
      <trkpt lat="44.02401" lon="1.87699">
        <ele>273</ele>
        <time>2020-10-04T11:13:47.868Z</time>
      </trkpt>
      <trkpt lat="44.02401" lon="1.87698">
        <ele>273</ele>
        <time>2020-10-04T11:13:48.868Z</time>
      </trkpt>
      <trkpt lat="44.02402" lon="1.87696">
        <ele>273</ele>
        <time>2020-10-04T11:13:49.868Z</time>
      </trkpt>
      <trkpt lat="44.02402" lon="1.87694">
        <ele>273</ele>
        <time>2020-10-04T11:13:50.868Z</time>
      </trkpt>
      <trkpt lat="44.02403" lon="1.87693">
        <ele>273</ele>
        <time>2020-10-04T11:13:51.868Z</time>
      </trkpt>
      <trkpt lat="44.02404" lon="1.87692">
        <ele>273</ele>
        <time>2020-10-04T11:13:52.868Z</time>
      </trkpt>
      <trkpt lat="44.02404" lon="1.8769">
        <ele>273</ele>
        <time>2020-10-04T11:13:53.868Z</time>
      </trkpt>
      <trkpt lat="44.02405" lon="1.87689">
        <ele>273</ele>
        <time>2020-10-04T11:13:54.868Z</time>
      </trkpt>
      <trkpt lat="44.02406" lon="1.87688">
        <ele>273</ele>
        <time>2020-10-04T11:13:55.868Z</time>
      </trkpt>
      <trkpt lat="44.02406" lon="1.87687">
        <ele>273</ele>
        <time>2020-10-04T11:13:56.868Z</time>
      </trkpt>
      <trkpt lat="44.02407" lon="1.87685">
        <ele>273</ele>
        <time>2020-10-04T11:13:57.868Z</time>
      </trkpt>
      <trkpt lat="44.02408" lon="1.87684">
        <ele>273</ele>
        <time>2020-10-04T11:13:58.868Z</time>
      </trkpt>
      <trkpt lat="44.02408" lon="1.87682">
        <ele>273</ele>
        <time>2020-10-04T11:13:59.868Z</time>
      </trkpt>
      <trkpt lat="44.02409" lon="1.87681">
        <ele>273</ele>
        <time>2020-10-04T11:14:00.868Z</time>
      </trkpt>
      <trkpt lat="44.0241" lon="1.8768">
        <ele>273</ele>
        <time>2020-10-04T11:14:01.868Z</time>
      </trkpt>
      <trkpt lat="44.0241" lon="1.87678">
        <ele>272</ele>
        <time>2020-10-04T11:14:02.868Z</time>
      </trkpt>
      <trkpt lat="44.02411" lon="1.87677">
        <ele>272</ele>
        <time>2020-10-04T11:14:03.868Z</time>
      </trkpt>
      <trkpt lat="44.02411" lon="1.87675">
        <ele>271</ele>
        <time>2020-10-04T11:14:04.868Z</time>
      </trkpt>
      <trkpt lat="44.02412" lon="1.87674">
        <ele>271</ele>
        <time>2020-10-04T11:14:05.868Z</time>
      </trkpt>
      <trkpt lat="44.02413" lon="1.87672">
        <ele>271</ele>
        <time>2020-10-04T11:14:06.868Z</time>
      </trkpt>
      <trkpt lat="44.02413" lon="1.8767">
        <ele>270</ele>
        <time>2020-10-04T11:14:07.868Z</time>
      </trkpt>
      <trkpt lat="44.02414" lon="1.87669">
        <ele>269</ele>
        <time>2020-10-04T11:14:08.868Z</time>
      </trkpt>
      <trkpt lat="44.02415" lon="1.87667">
        <ele>269</ele>
        <time>2020-10-04T11:14:09.868Z</time>
      </trkpt>
      <trkpt lat="44.02416" lon="1.87665">
        <ele>268</ele>
        <time>2020-10-04T11:14:10.868Z</time>
      </trkpt>
      <trkpt lat="44.02417" lon="1.87664">
        <ele>268</ele>
        <time>2020-10-04T11:14:11.868Z</time>
      </trkpt>
      <trkpt lat="44.02418" lon="1.87662">
        <ele>267</ele>
        <time>2020-10-04T11:14:12.868Z</time>
      </trkpt>
      <trkpt lat="44.02419" lon="1.87661">
        <ele>267</ele>
        <time>2020-10-04T11:14:13.868Z</time>
      </trkpt>
      <trkpt lat="44.0242" lon="1.87659">
        <ele>266</ele>
        <time>2020-10-04T11:14:14.868Z</time>
      </trkpt>
      <trkpt lat="44.0242" lon="1.87658">
        <ele>266</ele>
        <time>2020-10-04T11:14:15.868Z</time>
      </trkpt>
      <trkpt lat="44.02421" lon="1.87656">
        <ele>265</ele>
        <time>2020-10-04T11:14:16.868Z</time>
      </trkpt>
      <trkpt lat="44.02421" lon="1.87655">
        <ele>265</ele>
        <time>2020-10-04T11:14:17.868Z</time>
      </trkpt>
      <trkpt lat="44.02422" lon="1.87653">
        <ele>264</ele>
        <time>2020-10-04T11:14:18.868Z</time>
      </trkpt>
      <trkpt lat="44.02422" lon="1.87652">
        <ele>264</ele>
        <time>2020-10-04T11:14:19.868Z</time>
      </trkpt>
      <trkpt lat="44.02423" lon="1.8765">
        <ele>263</ele>
        <time>2020-10-04T11:14:20.868Z</time>
      </trkpt>
      <trkpt lat="44.02423" lon="1.87648">
        <ele>263</ele>
        <time>2020-10-04T11:14:21.868Z</time>
      </trkpt>
      <trkpt lat="44.02423" lon="1.87647">
        <ele>262</ele>
        <time>2020-10-04T11:14:22.868Z</time>
      </trkpt>
      <trkpt lat="44.02423" lon="1.87646">
        <ele>262</ele>
        <time>2020-10-04T11:14:23.868Z</time>
      </trkpt>
      <trkpt lat="44.02424" lon="1.87646">
        <ele>261</ele>
        <time>2020-10-04T11:14:24.868Z</time>
      </trkpt>
      <trkpt lat="44.02424" lon="1.87646">
        <ele>261</ele>
        <time>2020-10-04T11:14:25.868Z</time>
      </trkpt>
      <trkpt lat="44.02424" lon="1.87646">
        <ele>261</ele>
        <time>2020-10-04T11:14:26.868Z</time>
      </trkpt>
      <trkpt lat="44.02424" lon="1.87645">
        <ele>261</ele>
        <time>2020-10-04T11:14:27.868Z</time>
      </trkpt>
      <trkpt lat="44.02424" lon="1.87643">
        <ele>260</ele>
        <time>2020-10-04T11:14:28.868Z</time>
      </trkpt>
      <trkpt lat="44.02424" lon="1.87641">
        <ele>260</ele>
        <time>2020-10-04T11:14:29.868Z</time>
      </trkpt>
      <trkpt lat="44.02424" lon="1.8764">
        <ele>260</ele>
        <time>2020-10-04T11:14:30.868Z</time>
      </trkpt>
      <trkpt lat="44.02424" lon="1.87638">
        <ele>259</ele>
        <time>2020-10-04T11:14:31.868Z</time>
      </trkpt>
      <trkpt lat="44.02424" lon="1.87637">
        <ele>259</ele>
        <time>2020-10-04T11:14:32.868Z</time>
      </trkpt>
      <trkpt lat="44.02424" lon="1.87637">
        <ele>259</ele>
        <time>2020-10-04T11:14:33.868Z</time>
      </trkpt>
      <trkpt lat="44.02424" lon="1.87636">
        <ele>259</ele>
        <time>2020-10-04T11:14:34.868Z</time>
      </trkpt>
      <trkpt lat="44.02424" lon="1.87636">
        <ele>259</ele>
        <time>2020-10-04T11:14:35.868Z</time>
      </trkpt>
      <trkpt lat="44.02424" lon="1.87636">
        <ele>259</ele>
        <time>2020-10-04T11:14:36.868Z</time>
      </trkpt>
      <trkpt lat="44.02423" lon="1.87635">
        <ele>258</ele>
        <time>2020-10-04T11:14:37.868Z</time>
      </trkpt>
      <trkpt lat="44.02423" lon="1.87634">
        <ele>258</ele>
        <time>2020-10-04T11:14:38.868Z</time>
      </trkpt>
      <trkpt lat="44.02423" lon="1.87634">
        <ele>258</ele>
        <time>2020-10-04T11:14:39.868Z</time>
      </trkpt>
      <trkpt lat="44.02423" lon="1.87633">
        <ele>258</ele>
        <time>2020-10-04T11:14:40.868Z</time>
      </trkpt>
      <trkpt lat="44.02423" lon="1.87632">
        <ele>258</ele>
        <time>2020-10-04T11:14:41.868Z</time>
      </trkpt>
      <trkpt lat="44.02423" lon="1.87632">
        <ele>258</ele>
        <time>2020-10-04T11:14:42.868Z</time>
      </trkpt>
      <trkpt lat="44.02424" lon="1.87631">
        <ele>258</ele>
        <time>2020-10-04T11:14:43.868Z</time>
      </trkpt>
      <trkpt lat="44.02424" lon="1.8763">
        <ele>258</ele>
        <time>2020-10-04T11:14:44.868Z</time>
      </trkpt>
      <trkpt lat="44.02424" lon="1.87629">
        <ele>258</ele>
        <time>2020-10-04T11:14:45.868Z</time>
      </trkpt>
      <trkpt lat="44.02424" lon="1.87627">
        <ele>258</ele>
        <time>2020-10-04T11:14:46.868Z</time>
      </trkpt>
      <trkpt lat="44.02424" lon="1.87625">
        <ele>258</ele>
        <time>2020-10-04T11:14:47.868Z</time>
      </trkpt>
      <trkpt lat="44.02424" lon="1.87624">
        <ele>258</ele>
        <time>2020-10-04T11:14:48.868Z</time>
      </trkpt>
      <trkpt lat="44.02424" lon="1.87622">
        <ele>258</ele>
        <time>2020-10-04T11:14:49.868Z</time>
      </trkpt>
      <trkpt lat="44.02424" lon="1.8762">
        <ele>257</ele>
        <time>2020-10-04T11:14:50.868Z</time>
      </trkpt>
      <trkpt lat="44.02425" lon="1.87618">
        <ele>257</ele>
        <time>2020-10-04T11:14:51.868Z</time>
      </trkpt>
      <trkpt lat="44.02425" lon="1.87616">
        <ele>257</ele>
        <time>2020-10-04T11:14:52.868Z</time>
      </trkpt>
      <trkpt lat="44.02425" lon="1.87615">
        <ele>257</ele>
        <time>2020-10-04T11:14:53.868Z</time>
      </trkpt>
      <trkpt lat="44.02425" lon="1.87613">
        <ele>256</ele>
        <time>2020-10-04T11:14:54.868Z</time>
      </trkpt>
      <trkpt lat="44.02426" lon="1.87612">
        <ele>256</ele>
        <time>2020-10-04T11:14:55.868Z</time>
      </trkpt>
      <trkpt lat="44.02426" lon="1.8761">
        <ele>256</ele>
        <time>2020-10-04T11:14:56.868Z</time>
      </trkpt>
      <trkpt lat="44.02426" lon="1.87609">
        <ele>255</ele>
        <time>2020-10-04T11:14:57.868Z</time>
      </trkpt>
      <trkpt lat="44.02426" lon="1.87607">
        <ele>255</ele>
        <time>2020-10-04T11:14:58.868Z</time>
      </trkpt>
      <trkpt lat="44.02426" lon="1.87606">
        <ele>255</ele>
        <time>2020-10-04T11:14:59.868Z</time>
      </trkpt>
      <trkpt lat="44.02426" lon="1.87604">
        <ele>254</ele>
        <time>2020-10-04T11:15:00.868Z</time>
      </trkpt>
      <trkpt lat="44.02427" lon="1.87603">
        <ele>254</ele>
        <time>2020-10-04T11:15:01.868Z</time>
      </trkpt>
      <trkpt lat="44.02427" lon="1.87601">
        <ele>254</ele>
        <time>2020-10-04T11:15:02.868Z</time>
      </trkpt>
      <trkpt lat="44.02427" lon="1.876">
        <ele>253</ele>
        <time>2020-10-04T11:15:03.868Z</time>
      </trkpt>
      <trkpt lat="44.02427" lon="1.87599">
        <ele>253</ele>
        <time>2020-10-04T11:15:04.868Z</time>
      </trkpt>
      <trkpt lat="44.02427" lon="1.87597">
        <ele>253</ele>
        <time>2020-10-04T11:15:05.868Z</time>
      </trkpt>
      <trkpt lat="44.02428" lon="1.87595">
        <ele>253</ele>
        <time>2020-10-04T11:15:06.868Z</time>
      </trkpt>
      <trkpt lat="44.02428" lon="1.87594">
        <ele>252</ele>
        <time>2020-10-04T11:15:07.868Z</time>
      </trkpt>
      <trkpt lat="44.02428" lon="1.87592">
        <ele>252</ele>
        <time>2020-10-04T11:15:08.868Z</time>
      </trkpt>
      <trkpt lat="44.02428" lon="1.87591">
        <ele>252</ele>
        <time>2020-10-04T11:15:09.868Z</time>
      </trkpt>
      <trkpt lat="44.02428" lon="1.87589">
        <ele>252</ele>
        <time>2020-10-04T11:15:10.868Z</time>
      </trkpt>
      <trkpt lat="44.02428" lon="1.87588">
        <ele>252</ele>
        <time>2020-10-04T11:15:11.868Z</time>
      </trkpt>
      <trkpt lat="44.02428" lon="1.87586">
        <ele>252</ele>
        <time>2020-10-04T11:15:12.868Z</time>
      </trkpt>
      <trkpt lat="44.02427" lon="1.87585">
        <ele>251</ele>
        <time>2020-10-04T11:15:13.868Z</time>
      </trkpt>
      <trkpt lat="44.02427" lon="1.87583">
        <ele>251</ele>
        <time>2020-10-04T11:15:14.868Z</time>
      </trkpt>
      <trkpt lat="44.02427" lon="1.87581">
        <ele>251</ele>
        <time>2020-10-04T11:15:15.868Z</time>
      </trkpt>
      <trkpt lat="44.02427" lon="1.8758">
        <ele>251</ele>
        <time>2020-10-04T11:15:16.868Z</time>
      </trkpt>
      <trkpt lat="44.02427" lon="1.87578">
        <ele>251</ele>
        <time>2020-10-04T11:15:17.868Z</time>
      </trkpt>
      <trkpt lat="44.02426" lon="1.87577">
        <ele>251</ele>
        <time>2020-10-04T11:15:18.868Z</time>
      </trkpt>
      <trkpt lat="44.02426" lon="1.87575">
        <ele>250</ele>
        <time>2020-10-04T11:15:19.868Z</time>
      </trkpt>
      <trkpt lat="44.02426" lon="1.87574">
        <ele>250</ele>
        <time>2020-10-04T11:15:20.868Z</time>
      </trkpt>
      <trkpt lat="44.02425" lon="1.87572">
        <ele>250</ele>
        <time>2020-10-04T11:15:21.868Z</time>
      </trkpt>
      <trkpt lat="44.02425" lon="1.8757">
        <ele>250</ele>
        <time>2020-10-04T11:15:22.868Z</time>
      </trkpt>
      <trkpt lat="44.02424" lon="1.87569">
        <ele>250</ele>
        <time>2020-10-04T11:15:23.868Z</time>
      </trkpt>
      <trkpt lat="44.02424" lon="1.87567">
        <ele>250</ele>
        <time>2020-10-04T11:15:24.868Z</time>
      </trkpt>
      <trkpt lat="44.02423" lon="1.87566">
        <ele>250</ele>
        <time>2020-10-04T11:15:25.868Z</time>
      </trkpt>
      <trkpt lat="44.02423" lon="1.87564">
        <ele>250</ele>
        <time>2020-10-04T11:15:26.868Z</time>
      </trkpt>
      <trkpt lat="44.02422" lon="1.87563">
        <ele>250</ele>
        <time>2020-10-04T11:15:27.868Z</time>
      </trkpt>
      <trkpt lat="44.02421" lon="1.87561">
        <ele>250</ele>
        <time>2020-10-04T11:15:28.868Z</time>
      </trkpt>
      <trkpt lat="44.0242" lon="1.8756">
        <ele>250</ele>
        <time>2020-10-04T11:15:29.868Z</time>
      </trkpt>
      <trkpt lat="44.0242" lon="1.87558">
        <ele>250</ele>
        <time>2020-10-04T11:15:30.868Z</time>
      </trkpt>
      <trkpt lat="44.02419" lon="1.87556">
        <ele>251</ele>
        <time>2020-10-04T11:15:31.868Z</time>
      </trkpt>
      <trkpt lat="44.02418" lon="1.87554">
        <ele>251</ele>
        <time>2020-10-04T11:15:32.868Z</time>
      </trkpt>
      <trkpt lat="44.02417" lon="1.87553">
        <ele>251</ele>
        <time>2020-10-04T11:15:33.868Z</time>
      </trkpt>
      <trkpt lat="44.02417" lon="1.87551">
        <ele>251</ele>
        <time>2020-10-04T11:15:34.868Z</time>
      </trkpt>
      <trkpt lat="44.02416" lon="1.87549">
        <ele>251</ele>
        <time>2020-10-04T11:15:35.868Z</time>
      </trkpt>
      <trkpt lat="44.02415" lon="1.87548">
        <ele>252</ele>
        <time>2020-10-04T11:15:36.868Z</time>
      </trkpt>
      <trkpt lat="44.02415" lon="1.87546">
        <ele>252</ele>
        <time>2020-10-04T11:15:37.868Z</time>
      </trkpt>
      <trkpt lat="44.02414" lon="1.87544">
        <ele>252</ele>
        <time>2020-10-04T11:15:38.868Z</time>
      </trkpt>
      <trkpt lat="44.02414" lon="1.87542">
        <ele>252</ele>
        <time>2020-10-04T11:15:39.868Z</time>
      </trkpt>
      <trkpt lat="44.02413" lon="1.87541">
        <ele>253</ele>
        <time>2020-10-04T11:15:40.868Z</time>
      </trkpt>
      <trkpt lat="44.02412" lon="1.87539">
        <ele>253</ele>
        <time>2020-10-04T11:15:41.868Z</time>
      </trkpt>
      <trkpt lat="44.02411" lon="1.87538">
        <ele>253</ele>
        <time>2020-10-04T11:15:42.868Z</time>
      </trkpt>
      <trkpt lat="44.0241" lon="1.87536">
        <ele>253</ele>
        <time>2020-10-04T11:15:43.868Z</time>
      </trkpt>
      <trkpt lat="44.02409" lon="1.87535">
        <ele>253</ele>
        <time>2020-10-04T11:15:44.868Z</time>
      </trkpt>
      <trkpt lat="44.02408" lon="1.87533">
        <ele>253</ele>
        <time>2020-10-04T11:15:45.868Z</time>
      </trkpt>
      <trkpt lat="44.02407" lon="1.87532">
        <ele>254</ele>
        <time>2020-10-04T11:15:46.868Z</time>
      </trkpt>
      <trkpt lat="44.02407" lon="1.8753">
        <ele>254</ele>
        <time>2020-10-04T11:15:47.868Z</time>
      </trkpt>
      <trkpt lat="44.02406" lon="1.87529">
        <ele>254</ele>
        <time>2020-10-04T11:15:48.868Z</time>
      </trkpt>
      <trkpt lat="44.02405" lon="1.87527">
        <ele>254</ele>
        <time>2020-10-04T11:15:49.868Z</time>
      </trkpt>
      <trkpt lat="44.02404" lon="1.87526">
        <ele>254</ele>
        <time>2020-10-04T11:15:50.868Z</time>
      </trkpt>
      <trkpt lat="44.02403" lon="1.87524">
        <ele>254</ele>
        <time>2020-10-04T11:15:51.868Z</time>
      </trkpt>
      <trkpt lat="44.02403" lon="1.87523">
        <ele>254</ele>
        <time>2020-10-04T11:15:52.868Z</time>
      </trkpt>
      <trkpt lat="44.02402" lon="1.87521">
        <ele>254</ele>
        <time>2020-10-04T11:15:53.868Z</time>
      </trkpt>
      <trkpt lat="44.02401" lon="1.8752">
        <ele>254</ele>
        <time>2020-10-04T11:15:54.868Z</time>
      </trkpt>
      <trkpt lat="44.024" lon="1.87519">
        <ele>254</ele>
        <time>2020-10-04T11:15:55.868Z</time>
      </trkpt>
      <trkpt lat="44.02399" lon="1.87517">
        <ele>254</ele>
        <time>2020-10-04T11:15:56.868Z</time>
      </trkpt>
      <trkpt lat="44.02398" lon="1.87516">
        <ele>254</ele>
        <time>2020-10-04T11:15:57.868Z</time>
      </trkpt>
      <trkpt lat="44.02397" lon="1.87515">
        <ele>254</ele>
        <time>2020-10-04T11:15:58.868Z</time>
      </trkpt>
      <trkpt lat="44.02396" lon="1.87513">
        <ele>254</ele>
        <time>2020-10-04T11:15:59.868Z</time>
      </trkpt>
      <trkpt lat="44.02394" lon="1.87512">
        <ele>254</ele>
        <time>2020-10-04T11:16:00.868Z</time>
      </trkpt>
      <trkpt lat="44.02393" lon="1.87511">
        <ele>254</ele>
        <time>2020-10-04T11:16:01.868Z</time>
      </trkpt>
      <trkpt lat="44.02392" lon="1.8751">
        <ele>254</ele>
        <time>2020-10-04T11:16:02.868Z</time>
      </trkpt>
      <trkpt lat="44.02391" lon="1.87509">
        <ele>254</ele>
        <time>2020-10-04T11:16:03.868Z</time>
      </trkpt>
      <trkpt lat="44.0239" lon="1.87508">
        <ele>254</ele>
        <time>2020-10-04T11:16:04.868Z</time>
      </trkpt>
      <trkpt lat="44.02389" lon="1.87506">
        <ele>254</ele>
        <time>2020-10-04T11:16:05.868Z</time>
      </trkpt>
      <trkpt lat="44.02388" lon="1.87505">
        <ele>254</ele>
        <time>2020-10-04T11:16:06.868Z</time>
      </trkpt>
      <trkpt lat="44.02387" lon="1.87504">
        <ele>254</ele>
        <time>2020-10-04T11:16:07.868Z</time>
      </trkpt>
      <trkpt lat="44.02387" lon="1.87503">
        <ele>254</ele>
        <time>2020-10-04T11:16:08.868Z</time>
      </trkpt>
      <trkpt lat="44.02386" lon="1.87501">
        <ele>254</ele>
        <time>2020-10-04T11:16:09.868Z</time>
      </trkpt>
      <trkpt lat="44.02385" lon="1.875">
        <ele>254</ele>
        <time>2020-10-04T11:16:10.868Z</time>
      </trkpt>
      <trkpt lat="44.02384" lon="1.87499">
        <ele>254</ele>
        <time>2020-10-04T11:16:11.868Z</time>
      </trkpt>
      <trkpt lat="44.02383" lon="1.87498">
        <ele>254</ele>
        <time>2020-10-04T11:16:12.868Z</time>
      </trkpt>
      <trkpt lat="44.02382" lon="1.87497">
        <ele>254</ele>
        <time>2020-10-04T11:16:13.868Z</time>
      </trkpt>
      <trkpt lat="44.02381" lon="1.87497">
        <ele>254</ele>
        <time>2020-10-04T11:16:14.868Z</time>
      </trkpt>
      <trkpt lat="44.0238" lon="1.87496">
        <ele>254</ele>
        <time>2020-10-04T11:16:15.868Z</time>
      </trkpt>
      <trkpt lat="44.02379" lon="1.87495">
        <ele>253</ele>
        <time>2020-10-04T11:16:16.868Z</time>
      </trkpt>
      <trkpt lat="44.02378" lon="1.87494">
        <ele>253</ele>
        <time>2020-10-04T11:16:17.868Z</time>
      </trkpt>
      <trkpt lat="44.02377" lon="1.87493">
        <ele>253</ele>
        <time>2020-10-04T11:16:18.868Z</time>
      </trkpt>
      <trkpt lat="44.02376" lon="1.87492">
        <ele>253</ele>
        <time>2020-10-04T11:16:19.868Z</time>
      </trkpt>
      <trkpt lat="44.02375" lon="1.87491">
        <ele>253</ele>
        <time>2020-10-04T11:16:20.868Z</time>
      </trkpt>
      <trkpt lat="44.02374" lon="1.8749">
        <ele>253</ele>
        <time>2020-10-04T11:16:21.868Z</time>
      </trkpt>
      <trkpt lat="44.02373" lon="1.8749">
        <ele>253</ele>
        <time>2020-10-04T11:16:22.868Z</time>
      </trkpt>
      <trkpt lat="44.02372" lon="1.87489">
        <ele>253</ele>
        <time>2020-10-04T11:16:23.868Z</time>
      </trkpt>
      <trkpt lat="44.02371" lon="1.87488">
        <ele>252</ele>
        <time>2020-10-04T11:16:24.868Z</time>
      </trkpt>
      <trkpt lat="44.0237" lon="1.87488">
        <ele>252</ele>
        <time>2020-10-04T11:16:25.868Z</time>
      </trkpt>
      <trkpt lat="44.02369" lon="1.87487">
        <ele>252</ele>
        <time>2020-10-04T11:16:26.868Z</time>
      </trkpt>
      <trkpt lat="44.02368" lon="1.87487">
        <ele>252</ele>
        <time>2020-10-04T11:16:27.868Z</time>
      </trkpt>
      <trkpt lat="44.02367" lon="1.87486">
        <ele>252</ele>
        <time>2020-10-04T11:16:28.868Z</time>
      </trkpt>
      <trkpt lat="44.02366" lon="1.87485">
        <ele>252</ele>
        <time>2020-10-04T11:16:29.868Z</time>
      </trkpt>
      <trkpt lat="44.02365" lon="1.87485">
        <ele>252</ele>
        <time>2020-10-04T11:16:30.868Z</time>
      </trkpt>
      <trkpt lat="44.02364" lon="1.87484">
        <ele>252</ele>
        <time>2020-10-04T11:16:31.868Z</time>
      </trkpt>
      <trkpt lat="44.02364" lon="1.87483">
        <ele>251</ele>
        <time>2020-10-04T11:16:32.868Z</time>
      </trkpt>
      <trkpt lat="44.02363" lon="1.87482">
        <ele>251</ele>
        <time>2020-10-04T11:16:33.868Z</time>
      </trkpt>
      <trkpt lat="44.02363" lon="1.87481">
        <ele>251</ele>
        <time>2020-10-04T11:16:34.868Z</time>
      </trkpt>
      <trkpt lat="44.02362" lon="1.8748">
        <ele>251</ele>
        <time>2020-10-04T11:16:35.868Z</time>
      </trkpt>
      <trkpt lat="44.02362" lon="1.87479">
        <ele>250</ele>
        <time>2020-10-04T11:16:36.868Z</time>
      </trkpt>
      <trkpt lat="44.02361" lon="1.87478">
        <ele>250</ele>
        <time>2020-10-04T11:16:37.868Z</time>
      </trkpt>
      <trkpt lat="44.02361" lon="1.87476">
        <ele>250</ele>
        <time>2020-10-04T11:16:38.868Z</time>
      </trkpt>
      <trkpt lat="44.02361" lon="1.87475">
        <ele>250</ele>
        <time>2020-10-04T11:16:39.868Z</time>
      </trkpt>
      <trkpt lat="44.02361" lon="1.87473">
        <ele>249</ele>
        <time>2020-10-04T11:16:40.868Z</time>
      </trkpt>
      <trkpt lat="44.0236" lon="1.87472">
        <ele>249</ele>
        <time>2020-10-04T11:16:41.868Z</time>
      </trkpt>
      <trkpt lat="44.0236" lon="1.8747">
        <ele>249</ele>
        <time>2020-10-04T11:16:42.868Z</time>
      </trkpt>
      <trkpt lat="44.0236" lon="1.87469">
        <ele>248</ele>
        <time>2020-10-04T11:16:43.868Z</time>
      </trkpt>
      <trkpt lat="44.0236" lon="1.87467">
        <ele>248</ele>
        <time>2020-10-04T11:16:44.868Z</time>
      </trkpt>
      <trkpt lat="44.0236" lon="1.87466">
        <ele>247</ele>
        <time>2020-10-04T11:16:45.868Z</time>
      </trkpt>
      <trkpt lat="44.0236" lon="1.87464">
        <ele>247</ele>
        <time>2020-10-04T11:16:46.868Z</time>
      </trkpt>
      <trkpt lat="44.0236" lon="1.87463">
        <ele>247</ele>
        <time>2020-10-04T11:16:47.868Z</time>
      </trkpt>
      <trkpt lat="44.0236" lon="1.87461">
        <ele>246</ele>
        <time>2020-10-04T11:16:48.868Z</time>
      </trkpt>
      <trkpt lat="44.0236" lon="1.8746">
        <ele>246</ele>
        <time>2020-10-04T11:16:49.868Z</time>
      </trkpt>
      <trkpt lat="44.0236" lon="1.87458">
        <ele>245</ele>
        <time>2020-10-04T11:16:50.868Z</time>
      </trkpt>
      <trkpt lat="44.0236" lon="1.87457">
        <ele>245</ele>
        <time>2020-10-04T11:16:51.868Z</time>
      </trkpt>
      <trkpt lat="44.0236" lon="1.87455">
        <ele>245</ele>
        <time>2020-10-04T11:16:52.868Z</time>
      </trkpt>
      <trkpt lat="44.0236" lon="1.87454">
        <ele>244</ele>
        <time>2020-10-04T11:16:53.868Z</time>
      </trkpt>
      <trkpt lat="44.0236" lon="1.87453">
        <ele>244</ele>
        <time>2020-10-04T11:16:54.868Z</time>
      </trkpt>
      <trkpt lat="44.02361" lon="1.87451">
        <ele>243</ele>
        <time>2020-10-04T11:16:55.868Z</time>
      </trkpt>
      <trkpt lat="44.02361" lon="1.8745">
        <ele>243</ele>
        <time>2020-10-04T11:16:56.868Z</time>
      </trkpt>
      <trkpt lat="44.02361" lon="1.87448">
        <ele>243</ele>
        <time>2020-10-04T11:16:57.868Z</time>
      </trkpt>
      <trkpt lat="44.02361" lon="1.87447">
        <ele>242</ele>
        <time>2020-10-04T11:16:58.868Z</time>
      </trkpt>
      <trkpt lat="44.02361" lon="1.87445">
        <ele>242</ele>
        <time>2020-10-04T11:16:59.868Z</time>
      </trkpt>
      <trkpt lat="44.02361" lon="1.87444">
        <ele>242</ele>
        <time>2020-10-04T11:17:00.868Z</time>
      </trkpt>
      <trkpt lat="44.02361" lon="1.87442">
        <ele>242</ele>
        <time>2020-10-04T11:17:01.868Z</time>
      </trkpt>
      <trkpt lat="44.02361" lon="1.87441">
        <ele>241</ele>
        <time>2020-10-04T11:17:02.868Z</time>
      </trkpt>
      <trkpt lat="44.02361" lon="1.87439">
        <ele>241</ele>
        <time>2020-10-04T11:17:03.868Z</time>
      </trkpt>
      <trkpt lat="44.02361" lon="1.87438">
        <ele>241</ele>
        <time>2020-10-04T11:17:04.868Z</time>
      </trkpt>
      <trkpt lat="44.02361" lon="1.87437">
        <ele>240</ele>
        <time>2020-10-04T11:17:05.868Z</time>
      </trkpt>
      <trkpt lat="44.02361" lon="1.87435">
        <ele>240</ele>
        <time>2020-10-04T11:17:06.868Z</time>
      </trkpt>
      <trkpt lat="44.02361" lon="1.87433">
        <ele>240</ele>
        <time>2020-10-04T11:17:07.868Z</time>
      </trkpt>
      <trkpt lat="44.02361" lon="1.87432">
        <ele>240</ele>
        <time>2020-10-04T11:17:08.868Z</time>
      </trkpt>
      <trkpt lat="44.02361" lon="1.8743">
        <ele>240</ele>
        <time>2020-10-04T11:17:09.868Z</time>
      </trkpt>
      <trkpt lat="44.02361" lon="1.87429">
        <ele>240</ele>
        <time>2020-10-04T11:17:10.868Z</time>
      </trkpt>
      <trkpt lat="44.02361" lon="1.87427">
        <ele>239</ele>
        <time>2020-10-04T11:17:11.868Z</time>
      </trkpt>
      <trkpt lat="44.02361" lon="1.87426">
        <ele>239</ele>
        <time>2020-10-04T11:17:12.868Z</time>
      </trkpt>
      <trkpt lat="44.02361" lon="1.87424">
        <ele>239</ele>
        <time>2020-10-04T11:17:13.868Z</time>
      </trkpt>
      <trkpt lat="44.02362" lon="1.87423">
        <ele>239</ele>
        <time>2020-10-04T11:17:14.868Z</time>
      </trkpt>
      <trkpt lat="44.02362" lon="1.87421">
        <ele>239</ele>
        <time>2020-10-04T11:17:15.868Z</time>
      </trkpt>
      <trkpt lat="44.02362" lon="1.8742">
        <ele>238</ele>
        <time>2020-10-04T11:17:16.868Z</time>
      </trkpt>
      <trkpt lat="44.02362" lon="1.87419">
        <ele>238</ele>
        <time>2020-10-04T11:17:17.868Z</time>
      </trkpt>
      <trkpt lat="44.02362" lon="1.87417">
        <ele>238</ele>
        <time>2020-10-04T11:17:18.868Z</time>
      </trkpt>
      <trkpt lat="44.02362" lon="1.87416">
        <ele>238</ele>
        <time>2020-10-04T11:17:19.868Z</time>
      </trkpt>
      <trkpt lat="44.02362" lon="1.87415">
        <ele>238</ele>
        <time>2020-10-04T11:17:20.868Z</time>
      </trkpt>
      <trkpt lat="44.02362" lon="1.87413">
        <ele>238</ele>
        <time>2020-10-04T11:17:21.868Z</time>
      </trkpt>
      <trkpt lat="44.02362" lon="1.87412">
        <ele>238</ele>
        <time>2020-10-04T11:17:22.868Z</time>
      </trkpt>
      <trkpt lat="44.02362" lon="1.87411">
        <ele>238</ele>
        <time>2020-10-04T11:17:23.868Z</time>
      </trkpt>
      <trkpt lat="44.02362" lon="1.87411">
        <ele>238</ele>
        <time>2020-10-04T11:17:24.868Z</time>
      </trkpt>
      <trkpt lat="44.02362" lon="1.8741">
        <ele>238</ele>
        <time>2020-10-04T11:17:25.868Z</time>
      </trkpt>
      <trkpt lat="44.02362" lon="1.8741">
        <ele>238</ele>
        <time>2020-10-04T11:17:26.868Z</time>
      </trkpt>
      <trkpt lat="44.02362" lon="1.8741">
        <ele>238</ele>
        <time>2020-10-04T11:17:27.868Z</time>
      </trkpt>
      <trkpt lat="44.02362" lon="1.87407">
        <ele>237</ele>
        <time>2020-10-04T11:17:28.868Z</time>
      </trkpt>
      <trkpt lat="44.02363" lon="1.87405">
        <ele>237</ele>
        <time>2020-10-04T11:17:29.868Z</time>
      </trkpt>
      <trkpt lat="44.02363" lon="1.87404">
        <ele>237</ele>
        <time>2020-10-04T11:17:30.868Z</time>
      </trkpt>
      <trkpt lat="44.02363" lon="1.87403">
        <ele>237</ele>
        <time>2020-10-04T11:17:31.868Z</time>
      </trkpt>
      <trkpt lat="44.02363" lon="1.87402">
        <ele>237</ele>
        <time>2020-10-04T11:17:32.868Z</time>
      </trkpt>
      <trkpt lat="44.02363" lon="1.87401">
        <ele>237</ele>
        <time>2020-10-04T11:17:33.868Z</time>
      </trkpt>
      <trkpt lat="44.02363" lon="1.87399">
        <ele>237</ele>
        <time>2020-10-04T11:17:34.868Z</time>
      </trkpt>
      <trkpt lat="44.02364" lon="1.87398">
        <ele>237</ele>
        <time>2020-10-04T11:17:35.868Z</time>
      </trkpt>
      <trkpt lat="44.02364" lon="1.87397">
        <ele>237</ele>
        <time>2020-10-04T11:17:36.868Z</time>
      </trkpt>
      <trkpt lat="44.02364" lon="1.87395">
        <ele>237</ele>
        <time>2020-10-04T11:17:37.868Z</time>
      </trkpt>
      <trkpt lat="44.02365" lon="1.87394">
        <ele>237</ele>
        <time>2020-10-04T11:17:38.868Z</time>
      </trkpt>
      <trkpt lat="44.02366" lon="1.87393">
        <ele>237</ele>
        <time>2020-10-04T11:17:39.868Z</time>
      </trkpt>
      <trkpt lat="44.02366" lon="1.87391">
        <ele>237</ele>
        <time>2020-10-04T11:17:40.868Z</time>
      </trkpt>
      <trkpt lat="44.02367" lon="1.8739">
        <ele>237</ele>
        <time>2020-10-04T11:17:41.868Z</time>
      </trkpt>
      <trkpt lat="44.02367" lon="1.87389">
        <ele>237</ele>
        <time>2020-10-04T11:17:42.868Z</time>
      </trkpt>
      <trkpt lat="44.02368" lon="1.87388">
        <ele>237</ele>
        <time>2020-10-04T11:17:43.868Z</time>
      </trkpt>
      <trkpt lat="44.02369" lon="1.87387">
        <ele>237</ele>
        <time>2020-10-04T11:17:44.868Z</time>
      </trkpt>
      <trkpt lat="44.02369" lon="1.87385">
        <ele>236</ele>
        <time>2020-10-04T11:17:45.868Z</time>
      </trkpt>
      <trkpt lat="44.0237" lon="1.87385">
        <ele>236</ele>
        <time>2020-10-04T11:17:46.868Z</time>
      </trkpt>
      <trkpt lat="44.0237" lon="1.87384">
        <ele>236</ele>
        <time>2020-10-04T11:17:47.868Z</time>
      </trkpt>
      <trkpt lat="44.0237" lon="1.87383">
        <ele>236</ele>
        <time>2020-10-04T11:17:48.868Z</time>
      </trkpt>
      <trkpt lat="44.0237" lon="1.87383">
        <ele>236</ele>
        <time>2020-10-04T11:17:49.868Z</time>
      </trkpt>
      <trkpt lat="44.02371" lon="1.87382">
        <ele>236</ele>
        <time>2020-10-04T11:17:50.868Z</time>
      </trkpt>
      <trkpt lat="44.02371" lon="1.87381">
        <ele>236</ele>
        <time>2020-10-04T11:17:51.868Z</time>
      </trkpt>
      <trkpt lat="44.02371" lon="1.8738">
        <ele>236</ele>
        <time>2020-10-04T11:17:52.868Z</time>
      </trkpt>
      <trkpt lat="44.02371" lon="1.8738">
        <ele>236</ele>
        <time>2020-10-04T11:17:53.868Z</time>
      </trkpt>
      <trkpt lat="44.02372" lon="1.8738">
        <ele>236</ele>
        <time>2020-10-04T11:17:54.868Z</time>
      </trkpt>
      <trkpt lat="44.02372" lon="1.8738">
        <ele>236</ele>
        <time>2020-10-04T11:17:55.868Z</time>
      </trkpt>
      <trkpt lat="44.02372" lon="1.87378">
        <ele>237</ele>
        <time>2020-10-04T11:17:56.868Z</time>
      </trkpt>
      <trkpt lat="44.02373" lon="1.87377">
        <ele>237</ele>
        <time>2020-10-04T11:17:57.868Z</time>
      </trkpt>
      <trkpt lat="44.02374" lon="1.87376">
        <ele>237</ele>
        <time>2020-10-04T11:17:58.868Z</time>
      </trkpt>
      <trkpt lat="44.02374" lon="1.87376">
        <ele>237</ele>
        <time>2020-10-04T11:17:59.868Z</time>
      </trkpt>
      <trkpt lat="44.02375" lon="1.87375">
        <ele>237</ele>
        <time>2020-10-04T11:18:00.868Z</time>
      </trkpt>
      <trkpt lat="44.02375" lon="1.87374">
        <ele>237</ele>
        <time>2020-10-04T11:18:01.868Z</time>
      </trkpt>
      <trkpt lat="44.02376" lon="1.87373">
        <ele>237</ele>
        <time>2020-10-04T11:18:02.868Z</time>
      </trkpt>
      <trkpt lat="44.02376" lon="1.87372">
        <ele>236</ele>
        <time>2020-10-04T11:18:03.868Z</time>
      </trkpt>
      <trkpt lat="44.02377" lon="1.87371">
        <ele>236</ele>
        <time>2020-10-04T11:18:04.868Z</time>
      </trkpt>
      <trkpt lat="44.02378" lon="1.87371">
        <ele>236</ele>
        <time>2020-10-04T11:18:05.868Z</time>
      </trkpt>
      <trkpt lat="44.02378" lon="1.8737">
        <ele>236</ele>
        <time>2020-10-04T11:18:06.868Z</time>
      </trkpt>
      <trkpt lat="44.02379" lon="1.87369">
        <ele>236</ele>
        <time>2020-10-04T11:18:07.868Z</time>
      </trkpt>
      <trkpt lat="44.02379" lon="1.87368">
        <ele>236</ele>
        <time>2020-10-04T11:18:08.868Z</time>
      </trkpt>
      <trkpt lat="44.0238" lon="1.87367">
        <ele>236</ele>
        <time>2020-10-04T11:18:09.868Z</time>
      </trkpt>
      <trkpt lat="44.02381" lon="1.87366">
        <ele>236</ele>
        <time>2020-10-04T11:18:10.868Z</time>
      </trkpt>
      <trkpt lat="44.02381" lon="1.87365">
        <ele>236</ele>
        <time>2020-10-04T11:18:11.868Z</time>
      </trkpt>
      <trkpt lat="44.02382" lon="1.87364">
        <ele>236</ele>
        <time>2020-10-04T11:18:12.868Z</time>
      </trkpt>
      <trkpt lat="44.02382" lon="1.87363">
        <ele>236</ele>
        <time>2020-10-04T11:18:13.868Z</time>
      </trkpt>
      <trkpt lat="44.02382" lon="1.87362">
        <ele>236</ele>
        <time>2020-10-04T11:18:14.868Z</time>
      </trkpt>
      <trkpt lat="44.02382" lon="1.87361">
        <ele>236</ele>
        <time>2020-10-04T11:18:15.868Z</time>
      </trkpt>
      <trkpt lat="44.02383" lon="1.8736">
        <ele>236</ele>
        <time>2020-10-04T11:18:16.868Z</time>
      </trkpt>
      <trkpt lat="44.02383" lon="1.87358">
        <ele>236</ele>
        <time>2020-10-04T11:18:17.868Z</time>
      </trkpt>
      <trkpt lat="44.02383" lon="1.87357">
        <ele>236</ele>
        <time>2020-10-04T11:18:18.868Z</time>
      </trkpt>
      <trkpt lat="44.02383" lon="1.87356">
        <ele>236</ele>
        <time>2020-10-04T11:18:19.868Z</time>
      </trkpt>
      <trkpt lat="44.02384" lon="1.87354">
        <ele>236</ele>
        <time>2020-10-04T11:18:20.868Z</time>
      </trkpt>
      <trkpt lat="44.02384" lon="1.87353">
        <ele>236</ele>
        <time>2020-10-04T11:18:21.868Z</time>
      </trkpt>
      <trkpt lat="44.02384" lon="1.87352">
        <ele>236</ele>
        <time>2020-10-04T11:18:22.868Z</time>
      </trkpt>
      <trkpt lat="44.02385" lon="1.8735">
        <ele>236</ele>
        <time>2020-10-04T11:18:23.868Z</time>
      </trkpt>
      <trkpt lat="44.02385" lon="1.87349">
        <ele>236</ele>
        <time>2020-10-04T11:18:24.868Z</time>
      </trkpt>
      <trkpt lat="44.02385" lon="1.87347">
        <ele>236</ele>
        <time>2020-10-04T11:18:25.868Z</time>
      </trkpt>
      <trkpt lat="44.02385" lon="1.87346">
        <ele>236</ele>
        <time>2020-10-04T11:18:26.868Z</time>
      </trkpt>
      <trkpt lat="44.02385" lon="1.87344">
        <ele>236</ele>
        <time>2020-10-04T11:18:27.868Z</time>
      </trkpt>
      <trkpt lat="44.02385" lon="1.87343">
        <ele>236</ele>
        <time>2020-10-04T11:18:28.868Z</time>
      </trkpt>
      <trkpt lat="44.02385" lon="1.87342">
        <ele>236</ele>
        <time>2020-10-04T11:18:29.868Z</time>
      </trkpt>
      <trkpt lat="44.02385" lon="1.87341">
        <ele>236</ele>
        <time>2020-10-04T11:18:30.868Z</time>
      </trkpt>
      <trkpt lat="44.02385" lon="1.87339">
        <ele>236</ele>
        <time>2020-10-04T11:18:31.868Z</time>
      </trkpt>
      <trkpt lat="44.02384" lon="1.87338">
        <ele>236</ele>
        <time>2020-10-04T11:18:32.868Z</time>
      </trkpt>
      <trkpt lat="44.02384" lon="1.87337">
        <ele>236</ele>
        <time>2020-10-04T11:18:33.868Z</time>
      </trkpt>
      <trkpt lat="44.02384" lon="1.87336">
        <ele>236</ele>
        <time>2020-10-04T11:18:34.868Z</time>
      </trkpt>
      <trkpt lat="44.02384" lon="1.87335">
        <ele>236</ele>
        <time>2020-10-04T11:18:35.868Z</time>
      </trkpt>
      <trkpt lat="44.02385" lon="1.87333">
        <ele>236</ele>
        <time>2020-10-04T11:18:36.868Z</time>
      </trkpt>
      <trkpt lat="44.02385" lon="1.87332">
        <ele>237</ele>
        <time>2020-10-04T11:18:37.868Z</time>
      </trkpt>
      <trkpt lat="44.02385" lon="1.87331">
        <ele>237</ele>
        <time>2020-10-04T11:18:38.868Z</time>
      </trkpt>
      <trkpt lat="44.02385" lon="1.8733">
        <ele>237</ele>
        <time>2020-10-04T11:18:39.868Z</time>
      </trkpt>
      <trkpt lat="44.02385" lon="1.87329">
        <ele>237</ele>
        <time>2020-10-04T11:18:40.868Z</time>
      </trkpt>
      <trkpt lat="44.02386" lon="1.87327">
        <ele>237</ele>
        <time>2020-10-04T11:18:41.868Z</time>
      </trkpt>
      <trkpt lat="44.02386" lon="1.87326">
        <ele>237</ele>
        <time>2020-10-04T11:18:42.868Z</time>
      </trkpt>
      <trkpt lat="44.02387" lon="1.87325">
        <ele>237</ele>
        <time>2020-10-04T11:18:43.868Z</time>
      </trkpt>
      <trkpt lat="44.02388" lon="1.87324">
        <ele>237</ele>
        <time>2020-10-04T11:18:44.868Z</time>
      </trkpt>
      <trkpt lat="44.02389" lon="1.87323">
        <ele>236</ele>
        <time>2020-10-04T11:18:45.868Z</time>
      </trkpt>
      <trkpt lat="44.0239" lon="1.87322">
        <ele>236</ele>
        <time>2020-10-04T11:18:46.868Z</time>
      </trkpt>
      <trkpt lat="44.02391" lon="1.87322">
        <ele>236</ele>
        <time>2020-10-04T11:18:47.868Z</time>
      </trkpt>
      <trkpt lat="44.02392" lon="1.87321">
        <ele>236</ele>
        <time>2020-10-04T11:18:48.868Z</time>
      </trkpt>
      <trkpt lat="44.02393" lon="1.8732">
        <ele>236</ele>
        <time>2020-10-04T11:18:49.868Z</time>
      </trkpt>
      <trkpt lat="44.02394" lon="1.8732">
        <ele>236</ele>
        <time>2020-10-04T11:18:50.868Z</time>
      </trkpt>
      <trkpt lat="44.02395" lon="1.87319">
        <ele>236</ele>
        <time>2020-10-04T11:18:51.868Z</time>
      </trkpt>
      <trkpt lat="44.02395" lon="1.87318">
        <ele>236</ele>
        <time>2020-10-04T11:18:52.868Z</time>
      </trkpt>
      <trkpt lat="44.02396" lon="1.87317">
        <ele>236</ele>
        <time>2020-10-04T11:18:53.868Z</time>
      </trkpt>
      <trkpt lat="44.02397" lon="1.87317">
        <ele>236</ele>
        <time>2020-10-04T11:18:54.868Z</time>
      </trkpt>
      <trkpt lat="44.02398" lon="1.87317">
        <ele>236</ele>
        <time>2020-10-04T11:18:55.868Z</time>
      </trkpt>
      <trkpt lat="44.02399" lon="1.87316">
        <ele>236</ele>
        <time>2020-10-04T11:18:56.868Z</time>
      </trkpt>
      <trkpt lat="44.024" lon="1.87315">
        <ele>236</ele>
        <time>2020-10-04T11:19:00.113Z</time>
      </trkpt>
      <trkpt lat="44.024" lon="1.87314">
        <ele>236</ele>
        <time>2020-10-04T11:19:01.113Z</time>
      </trkpt>
      <trkpt lat="44.02401" lon="1.87314">
        <ele>236</ele>
        <time>2020-10-04T11:19:02.113Z</time>
      </trkpt>
      <trkpt lat="44.02402" lon="1.87313">
        <ele>236</ele>
        <time>2020-10-04T11:19:03.113Z</time>
      </trkpt>
      <trkpt lat="44.02403" lon="1.87313">
        <ele>236</ele>
        <time>2020-10-04T11:19:04.113Z</time>
      </trkpt>
      <trkpt lat="44.02404" lon="1.87312">
        <ele>236</ele>
        <time>2020-10-04T11:19:05.113Z</time>
      </trkpt>
      <trkpt lat="44.02404" lon="1.87312">
        <ele>236</ele>
        <time>2020-10-04T11:19:06.113Z</time>
      </trkpt>
      <trkpt lat="44.02405" lon="1.87311">
        <ele>236</ele>
        <time>2020-10-04T11:19:07.113Z</time>
      </trkpt>
      <trkpt lat="44.02405" lon="1.87311">
        <ele>236</ele>
        <time>2020-10-04T11:19:08.113Z</time>
      </trkpt>
      <trkpt lat="44.02406" lon="1.87311">
        <ele>236</ele>
        <time>2020-10-04T11:19:09.113Z</time>
      </trkpt>
      <trkpt lat="44.02406" lon="1.8731">
        <ele>236</ele>
        <time>2020-10-04T11:19:10.113Z</time>
      </trkpt>
      <trkpt lat="44.02407" lon="1.8731">
        <ele>236</ele>
        <time>2020-10-04T11:19:11.113Z</time>
      </trkpt>
      <trkpt lat="44.02408" lon="1.87309">
        <ele>236</ele>
        <time>2020-10-04T11:19:12.113Z</time>
      </trkpt>
      <trkpt lat="44.02409" lon="1.87308">
        <ele>236</ele>
        <time>2020-10-04T11:19:13.113Z</time>
      </trkpt>
      <trkpt lat="44.0241" lon="1.87307">
        <ele>236</ele>
        <time>2020-10-04T11:19:14.113Z</time>
      </trkpt>
      <trkpt lat="44.0241" lon="1.87307">
        <ele>236</ele>
        <time>2020-10-04T11:19:15.113Z</time>
      </trkpt>
      <trkpt lat="44.02411" lon="1.87306">
        <ele>236</ele>
        <time>2020-10-04T11:19:16.113Z</time>
      </trkpt>
      <trkpt lat="44.02412" lon="1.87305">
        <ele>236</ele>
        <time>2020-10-04T11:19:17.113Z</time>
      </trkpt>
      <trkpt lat="44.02413" lon="1.87305">
        <ele>237</ele>
        <time>2020-10-04T11:19:18.113Z</time>
      </trkpt>
      <trkpt lat="44.02414" lon="1.87304">
        <ele>236</ele>
        <time>2020-10-04T11:19:19.113Z</time>
      </trkpt>
      <trkpt lat="44.02414" lon="1.87304">
        <ele>237</ele>
        <time>2020-10-04T11:19:20.113Z</time>
      </trkpt>
      <trkpt lat="44.02415" lon="1.87303">
        <ele>237</ele>
        <time>2020-10-04T11:19:21.113Z</time>
      </trkpt>
      <trkpt lat="44.02415" lon="1.87303">
        <ele>237</ele>
        <time>2020-10-04T11:19:22.113Z</time>
      </trkpt>
      <trkpt lat="44.02416" lon="1.87303">
        <ele>237</ele>
        <time>2020-10-04T11:19:23.113Z</time>
      </trkpt>
      <trkpt lat="44.02418" lon="1.87301">
        <ele>236</ele>
        <time>2020-10-04T11:19:24.113Z</time>
      </trkpt>
      <trkpt lat="44.02419" lon="1.87301">
        <ele>236</ele>
        <time>2020-10-04T11:19:25.113Z</time>
      </trkpt>
      <trkpt lat="44.0242" lon="1.873">
        <ele>236</ele>
        <time>2020-10-04T11:19:26.113Z</time>
      </trkpt>
      <trkpt lat="44.0242" lon="1.873">
        <ele>236</ele>
        <time>2020-10-04T11:19:27.113Z</time>
      </trkpt>
      <trkpt lat="44.02421" lon="1.87299">
        <ele>236</ele>
        <time>2020-10-04T11:19:28.113Z</time>
      </trkpt>
      <trkpt lat="44.02422" lon="1.87298">
        <ele>236</ele>
        <time>2020-10-04T11:19:29.113Z</time>
      </trkpt>
      <trkpt lat="44.02423" lon="1.87296">
        <ele>236</ele>
        <time>2020-10-04T11:19:30.113Z</time>
      </trkpt>
      <trkpt lat="44.02424" lon="1.87296">
        <ele>236</ele>
        <time>2020-10-04T11:19:31.113Z</time>
      </trkpt>
      <trkpt lat="44.02424" lon="1.87294">
        <ele>236</ele>
        <time>2020-10-04T11:19:32.113Z</time>
      </trkpt>
      <trkpt lat="44.02425" lon="1.87294">
        <ele>236</ele>
        <time>2020-10-04T11:19:33.113Z</time>
      </trkpt>
      <trkpt lat="44.02426" lon="1.87293">
        <ele>236</ele>
        <time>2020-10-04T11:19:34.113Z</time>
      </trkpt>
      <trkpt lat="44.02427" lon="1.87292">
        <ele>236</ele>
        <time>2020-10-04T11:19:35.113Z</time>
      </trkpt>
      <trkpt lat="44.02428" lon="1.87291">
        <ele>236</ele>
        <time>2020-10-04T11:19:36.113Z</time>
      </trkpt>
      <trkpt lat="44.02428" lon="1.8729">
        <ele>236</ele>
        <time>2020-10-04T11:19:37.113Z</time>
      </trkpt>
      <trkpt lat="44.02429" lon="1.87289">
        <ele>237</ele>
        <time>2020-10-04T11:19:38.113Z</time>
      </trkpt>
      <trkpt lat="44.0243" lon="1.87288">
        <ele>236</ele>
        <time>2020-10-04T11:19:39.113Z</time>
      </trkpt>
      <trkpt lat="44.0243" lon="1.87287">
        <ele>236</ele>
        <time>2020-10-04T11:19:40.113Z</time>
      </trkpt>
      <trkpt lat="44.02431" lon="1.87286">
        <ele>237</ele>
        <time>2020-10-04T11:19:41.113Z</time>
      </trkpt>
      <trkpt lat="44.02432" lon="1.87284">
        <ele>237</ele>
        <time>2020-10-04T11:19:42.113Z</time>
      </trkpt>
      <trkpt lat="44.02433" lon="1.87283">
        <ele>237</ele>
        <time>2020-10-04T11:19:43.113Z</time>
      </trkpt>
      <trkpt lat="44.02434" lon="1.87282">
        <ele>237</ele>
        <time>2020-10-04T11:19:44.113Z</time>
      </trkpt>
      <trkpt lat="44.02434" lon="1.87281">
        <ele>237</ele>
        <time>2020-10-04T11:19:45.113Z</time>
      </trkpt>
      <trkpt lat="44.02435" lon="1.87281">
        <ele>237</ele>
        <time>2020-10-04T11:19:46.113Z</time>
      </trkpt>
      <trkpt lat="44.02435" lon="1.87279">
        <ele>237</ele>
        <time>2020-10-04T11:19:47.113Z</time>
      </trkpt>
      <trkpt lat="44.02435" lon="1.87278">
        <ele>237</ele>
        <time>2020-10-04T11:19:48.113Z</time>
      </trkpt>
      <trkpt lat="44.02436" lon="1.87277">
        <ele>237</ele>
        <time>2020-10-04T11:19:49.113Z</time>
      </trkpt>
      <trkpt lat="44.02436" lon="1.87277">
        <ele>237</ele>
        <time>2020-10-04T11:19:50.113Z</time>
      </trkpt>
      <trkpt lat="44.02436" lon="1.87276">
        <ele>236</ele>
        <time>2020-10-04T11:19:51.113Z</time>
      </trkpt>
      <trkpt lat="44.02437" lon="1.87275">
        <ele>236</ele>
        <time>2020-10-04T11:19:52.113Z</time>
      </trkpt>
      <trkpt lat="44.02437" lon="1.87273">
        <ele>236</ele>
        <time>2020-10-04T11:21:03.126Z</time>
      </trkpt>
      <trkpt lat="44.02438" lon="1.87272">
        <ele>236</ele>
        <time>2020-10-04T11:21:04.126Z</time>
      </trkpt>
      <trkpt lat="44.02438" lon="1.87272">
        <ele>236</ele>
        <time>2020-10-04T11:21:05.126Z</time>
      </trkpt>
      <trkpt lat="44.02439" lon="1.87271">
        <ele>236</ele>
        <time>2020-10-04T11:21:06.126Z</time>
      </trkpt>
      <trkpt lat="44.0244" lon="1.87269">
        <ele>236</ele>
        <time>2020-10-04T11:21:07.126Z</time>
      </trkpt>
      <trkpt lat="44.0244" lon="1.87268">
        <ele>236</ele>
        <time>2020-10-04T11:21:08.126Z</time>
      </trkpt>
      <trkpt lat="44.02441" lon="1.87267">
        <ele>236</ele>
        <time>2020-10-04T11:21:09.126Z</time>
      </trkpt>
      <trkpt lat="44.02441" lon="1.87265">
        <ele>236</ele>
        <time>2020-10-04T11:21:10.126Z</time>
      </trkpt>
      <trkpt lat="44.02442" lon="1.87264">
        <ele>236</ele>
        <time>2020-10-04T11:21:11.126Z</time>
      </trkpt>
      <trkpt lat="44.02443" lon="1.87263">
        <ele>237</ele>
        <time>2020-10-04T11:21:12.126Z</time>
      </trkpt>
      <trkpt lat="44.02444" lon="1.87262">
        <ele>237</ele>
        <time>2020-10-04T11:21:13.126Z</time>
      </trkpt>
      <trkpt lat="44.02445" lon="1.87261">
        <ele>237</ele>
        <time>2020-10-04T11:21:14.126Z</time>
      </trkpt>
      <trkpt lat="44.02446" lon="1.8726">
        <ele>237</ele>
        <time>2020-10-04T11:21:15.126Z</time>
      </trkpt>
      <trkpt lat="44.02447" lon="1.87259">
        <ele>237</ele>
        <time>2020-10-04T11:21:16.126Z</time>
      </trkpt>
      <trkpt lat="44.02448" lon="1.87257">
        <ele>237</ele>
        <time>2020-10-04T11:21:17.126Z</time>
      </trkpt>
      <trkpt lat="44.02449" lon="1.87256">
        <ele>237</ele>
        <time>2020-10-04T11:21:18.126Z</time>
      </trkpt>
      <trkpt lat="44.0245" lon="1.87255">
        <ele>237</ele>
        <time>2020-10-04T11:21:19.126Z</time>
      </trkpt>
      <trkpt lat="44.02451" lon="1.87254">
        <ele>237</ele>
        <time>2020-10-04T11:21:20.126Z</time>
      </trkpt>
      <trkpt lat="44.02452" lon="1.87253">
        <ele>237</ele>
        <time>2020-10-04T11:21:23.368Z</time>
      </trkpt>
      <trkpt lat="44.02453" lon="1.87252">
        <ele>237</ele>
        <time>2020-10-04T11:21:24.368Z</time>
      </trkpt>
      <trkpt lat="44.02454" lon="1.87251">
        <ele>237</ele>
        <time>2020-10-04T11:21:25.368Z</time>
      </trkpt>
      <trkpt lat="44.02455" lon="1.8725">
        <ele>237</ele>
        <time>2020-10-04T11:21:26.368Z</time>
      </trkpt>
      <trkpt lat="44.02456" lon="1.87249">
        <ele>237</ele>
        <time>2020-10-04T11:21:27.368Z</time>
      </trkpt>
      <trkpt lat="44.02457" lon="1.87249">
        <ele>237</ele>
        <time>2020-10-04T11:21:28.368Z</time>
      </trkpt>
      <trkpt lat="44.02458" lon="1.87249">
        <ele>237</ele>
        <time>2020-10-04T11:21:29.368Z</time>
      </trkpt>
      <trkpt lat="44.02459" lon="1.87248">
        <ele>237</ele>
        <time>2020-10-04T11:21:30.368Z</time>
      </trkpt>
      <trkpt lat="44.02461" lon="1.87248">
        <ele>237</ele>
        <time>2020-10-04T11:21:31.368Z</time>
      </trkpt>
      <trkpt lat="44.02462" lon="1.87247">
        <ele>237</ele>
        <time>2020-10-04T11:21:32.368Z</time>
      </trkpt>
      <trkpt lat="44.02463" lon="1.87247">
        <ele>237</ele>
        <time>2020-10-04T11:21:33.368Z</time>
      </trkpt>
      <trkpt lat="44.02464" lon="1.87247">
        <ele>237</ele>
        <time>2020-10-04T11:21:34.368Z</time>
      </trkpt>
      <trkpt lat="44.02466" lon="1.87246">
        <ele>237</ele>
        <time>2020-10-04T11:21:43.368Z</time>
      </trkpt>
      <trkpt lat="44.02467" lon="1.87245">
        <ele>237</ele>
        <time>2020-10-04T11:21:44.368Z</time>
      </trkpt>
      <trkpt lat="44.02468" lon="1.87245">
        <ele>237</ele>
        <time>2020-10-04T11:21:45.368Z</time>
      </trkpt>
      <trkpt lat="44.02469" lon="1.87244">
        <ele>237</ele>
        <time>2020-10-04T11:21:46.368Z</time>
      </trkpt>
      <trkpt lat="44.02471" lon="1.87243">
        <ele>237</ele>
        <time>2020-10-04T11:21:47.368Z</time>
      </trkpt>
      <trkpt lat="44.02472" lon="1.87243">
        <ele>237</ele>
        <time>2020-10-04T11:21:48.368Z</time>
      </trkpt>
      <trkpt lat="44.02473" lon="1.87242">
        <ele>237</ele>
        <time>2020-10-04T11:21:49.368Z</time>
      </trkpt>
      <trkpt lat="44.02474" lon="1.87242">
        <ele>237</ele>
        <time>2020-10-04T11:21:50.368Z</time>
      </trkpt>
      <trkpt lat="44.02475" lon="1.87241">
        <ele>237</ele>
        <time>2020-10-04T11:21:51.368Z</time>
      </trkpt>
      <trkpt lat="44.02477" lon="1.87241">
        <ele>237</ele>
        <time>2020-10-04T11:21:52.368Z</time>
      </trkpt>
      <trkpt lat="44.02478" lon="1.87241">
        <ele>237</ele>
        <time>2020-10-04T11:21:53.368Z</time>
      </trkpt>
      <trkpt lat="44.02479" lon="1.87241">
        <ele>237</ele>
        <time>2020-10-04T11:21:54.368Z</time>
      </trkpt>
      <trkpt lat="44.0248" lon="1.87241">
        <ele>237</ele>
        <time>2020-10-04T11:21:55.368Z</time>
      </trkpt>
      <trkpt lat="44.02481" lon="1.8724">
        <ele>237</ele>
        <time>2020-10-04T11:21:56.368Z</time>
      </trkpt>
      <trkpt lat="44.02482" lon="1.8724">
        <ele>237</ele>
        <time>2020-10-04T11:21:57.368Z</time>
      </trkpt>
      <trkpt lat="44.02483" lon="1.87239">
        <ele>237</ele>
        <time>2020-10-04T11:21:58.368Z</time>
      </trkpt>
      <trkpt lat="44.02483" lon="1.87239">
        <ele>237</ele>
        <time>2020-10-04T11:21:59.368Z</time>
      </trkpt>
      <trkpt lat="44.02484" lon="1.87239">
        <ele>237</ele>
        <time>2020-10-04T11:22:00.368Z</time>
      </trkpt>
      <trkpt lat="44.02485" lon="1.87239">
        <ele>237</ele>
        <time>2020-10-04T11:22:01.368Z</time>
      </trkpt>
      <trkpt lat="44.02487" lon="1.87239">
        <ele>237</ele>
        <time>2020-10-04T11:22:02.368Z</time>
      </trkpt>
      <trkpt lat="44.02488" lon="1.87239">
        <ele>237</ele>
        <time>2020-10-04T11:22:03.368Z</time>
      </trkpt>
      <trkpt lat="44.02489" lon="1.87239">
        <ele>237</ele>
        <time>2020-10-04T11:22:04.368Z</time>
      </trkpt>
      <trkpt lat="44.0249" lon="1.87239">
        <ele>237</ele>
        <time>2020-10-04T11:22:05.368Z</time>
      </trkpt>
      <trkpt lat="44.02491" lon="1.87239">
        <ele>237</ele>
        <time>2020-10-04T11:22:06.368Z</time>
      </trkpt>
      <trkpt lat="44.02492" lon="1.87239">
        <ele>237</ele>
        <time>2020-10-04T11:22:07.368Z</time>
      </trkpt>
      <trkpt lat="44.02494" lon="1.87239">
        <ele>237</ele>
        <time>2020-10-04T11:22:08.368Z</time>
      </trkpt>
      <trkpt lat="44.02495" lon="1.87239">
        <ele>236</ele>
        <time>2020-10-04T11:22:09.368Z</time>
      </trkpt>
      <trkpt lat="44.02496" lon="1.87239">
        <ele>236</ele>
        <time>2020-10-04T11:22:10.368Z</time>
      </trkpt>
      <trkpt lat="44.02497" lon="1.87238">
        <ele>236</ele>
        <time>2020-10-04T11:22:11.368Z</time>
      </trkpt>
      <trkpt lat="44.02498" lon="1.87238">
        <ele>236</ele>
        <time>2020-10-04T11:22:12.368Z</time>
      </trkpt>
      <trkpt lat="44.02499" lon="1.87237">
        <ele>237</ele>
        <time>2020-10-04T11:22:13.368Z</time>
      </trkpt>
      <trkpt lat="44.025" lon="1.87237">
        <ele>237</ele>
        <time>2020-10-04T11:22:14.368Z</time>
      </trkpt>
      <trkpt lat="44.02501" lon="1.87237">
        <ele>237</ele>
        <time>2020-10-04T11:22:15.368Z</time>
      </trkpt>
      <trkpt lat="44.02502" lon="1.87237">
        <ele>237</ele>
        <time>2020-10-04T11:22:16.368Z</time>
      </trkpt>
      <trkpt lat="44.02503" lon="1.87236">
        <ele>237</ele>
        <time>2020-10-04T11:22:17.368Z</time>
      </trkpt>
      <trkpt lat="44.02504" lon="1.87236">
        <ele>237</ele>
        <time>2020-10-04T11:22:18.368Z</time>
      </trkpt>
      <trkpt lat="44.02505" lon="1.87237">
        <ele>237</ele>
        <time>2020-10-04T11:22:19.368Z</time>
      </trkpt>
      <trkpt lat="44.02506" lon="1.87237">
        <ele>237</ele>
        <time>2020-10-04T11:22:20.368Z</time>
      </trkpt>
      <trkpt lat="44.02507" lon="1.87236">
        <ele>237</ele>
        <time>2020-10-04T11:22:21.368Z</time>
      </trkpt>
      <trkpt lat="44.02508" lon="1.87236">
        <ele>237</ele>
        <time>2020-10-04T11:22:24.611Z</time>
      </trkpt>
      <trkpt lat="44.02509" lon="1.87236">
        <ele>237</ele>
        <time>2020-10-04T11:22:25.611Z</time>
      </trkpt>
      <trkpt lat="44.0251" lon="1.87236">
        <ele>237</ele>
        <time>2020-10-04T11:22:26.611Z</time>
      </trkpt>
      <trkpt lat="44.02511" lon="1.87235">
        <ele>237</ele>
        <time>2020-10-04T11:22:27.611Z</time>
      </trkpt>
      <trkpt lat="44.02512" lon="1.87235">
        <ele>237</ele>
        <time>2020-10-04T11:22:28.611Z</time>
      </trkpt>
      <trkpt lat="44.02513" lon="1.87235">
        <ele>238</ele>
        <time>2020-10-04T11:22:29.611Z</time>
      </trkpt>
      <trkpt lat="44.02513" lon="1.87235">
        <ele>238</ele>
        <time>2020-10-04T11:22:30.611Z</time>
      </trkpt>
      <trkpt lat="44.02514" lon="1.87235">
        <ele>238</ele>
        <time>2020-10-04T11:22:31.611Z</time>
      </trkpt>
      <trkpt lat="44.02515" lon="1.87234">
        <ele>238</ele>
        <time>2020-10-04T11:22:32.611Z</time>
      </trkpt>
      <trkpt lat="44.02516" lon="1.87234">
        <ele>238</ele>
        <time>2020-10-04T11:22:33.611Z</time>
      </trkpt>
      <trkpt lat="44.02517" lon="1.87234">
        <ele>238</ele>
        <time>2020-10-04T11:22:34.611Z</time>
      </trkpt>
      <trkpt lat="44.02518" lon="1.87234">
        <ele>238</ele>
        <time>2020-10-04T11:22:35.611Z</time>
      </trkpt>
      <trkpt lat="44.02518" lon="1.87234">
        <ele>238</ele>
        <time>2020-10-04T11:22:36.611Z</time>
      </trkpt>
      <trkpt lat="44.02519" lon="1.87234">
        <ele>238</ele>
        <time>2020-10-04T11:22:37.611Z</time>
      </trkpt>
      <trkpt lat="44.0252" lon="1.87234">
        <ele>238</ele>
        <time>2020-10-04T11:22:38.611Z</time>
      </trkpt>
      <trkpt lat="44.02521" lon="1.87234">
        <ele>238</ele>
        <time>2020-10-04T11:22:39.611Z</time>
      </trkpt>
      <trkpt lat="44.02521" lon="1.87234">
        <ele>238</ele>
        <time>2020-10-04T11:22:40.611Z</time>
      </trkpt>
      <trkpt lat="44.02522" lon="1.87233">
        <ele>238</ele>
        <time>2020-10-04T11:22:41.611Z</time>
      </trkpt>
      <trkpt lat="44.02523" lon="1.87233">
        <ele>238</ele>
        <time>2020-10-04T11:22:42.611Z</time>
      </trkpt>
      <trkpt lat="44.02524" lon="1.87233">
        <ele>238</ele>
        <time>2020-10-04T11:22:43.611Z</time>
      </trkpt>
      <trkpt lat="44.02525" lon="1.87232">
        <ele>239</ele>
        <time>2020-10-04T11:22:44.611Z</time>
      </trkpt>
      <trkpt lat="44.02526" lon="1.87232">
        <ele>239</ele>
        <time>2020-10-04T11:22:45.611Z</time>
      </trkpt>
      <trkpt lat="44.02527" lon="1.87232">
        <ele>239</ele>
        <time>2020-10-04T11:22:46.611Z</time>
      </trkpt>
      <trkpt lat="44.02528" lon="1.87232">
        <ele>239</ele>
        <time>2020-10-04T11:22:47.611Z</time>
      </trkpt>
      <trkpt lat="44.02528" lon="1.87233">
        <ele>239</ele>
        <time>2020-10-04T11:22:48.611Z</time>
      </trkpt>
      <trkpt lat="44.02529" lon="1.87232">
        <ele>239</ele>
        <time>2020-10-04T11:22:49.611Z</time>
      </trkpt>
      <trkpt lat="44.0253" lon="1.87232">
        <ele>239</ele>
        <time>2020-10-04T11:22:50.611Z</time>
      </trkpt>
      <trkpt lat="44.0253" lon="1.87232">
        <ele>239</ele>
        <time>2020-10-04T11:22:51.611Z</time>
      </trkpt>
      <trkpt lat="44.02531" lon="1.87232">
        <ele>239</ele>
        <time>2020-10-04T11:22:52.611Z</time>
      </trkpt>
      <trkpt lat="44.02532" lon="1.87231">
        <ele>239</ele>
        <time>2020-10-04T11:22:53.611Z</time>
      </trkpt>
      <trkpt lat="44.02533" lon="1.87231">
        <ele>240</ele>
        <time>2020-10-04T11:22:54.611Z</time>
      </trkpt>
      <trkpt lat="44.02533" lon="1.87231">
        <ele>240</ele>
        <time>2020-10-04T11:22:55.611Z</time>
      </trkpt>
      <trkpt lat="44.02534" lon="1.8723">
        <ele>240</ele>
        <time>2020-10-04T11:22:56.611Z</time>
      </trkpt>
      <trkpt lat="44.02535" lon="1.8723">
        <ele>240</ele>
        <time>2020-10-04T11:22:57.611Z</time>
      </trkpt>
      <trkpt lat="44.02535" lon="1.8723">
        <ele>241</ele>
        <time>2020-10-04T11:22:58.611Z</time>
      </trkpt>
      <trkpt lat="44.02536" lon="1.87229">
        <ele>241</ele>
        <time>2020-10-04T11:22:59.611Z</time>
      </trkpt>
      <trkpt lat="44.02537" lon="1.87229">
        <ele>241</ele>
        <time>2020-10-04T11:23:00.611Z</time>
      </trkpt>
      <trkpt lat="44.02538" lon="1.87229">
        <ele>241</ele>
        <time>2020-10-04T11:23:01.611Z</time>
      </trkpt>
      <trkpt lat="44.02539" lon="1.87229">
        <ele>241</ele>
        <time>2020-10-04T11:23:02.611Z</time>
      </trkpt>
      <trkpt lat="44.02539" lon="1.87228">
        <ele>242</ele>
        <time>2020-10-04T11:23:03.611Z</time>
      </trkpt>
      <trkpt lat="44.0254" lon="1.87228">
        <ele>242</ele>
        <time>2020-10-04T11:23:04.611Z</time>
      </trkpt>
      <trkpt lat="44.02541" lon="1.87228">
        <ele>242</ele>
        <time>2020-10-04T11:23:05.611Z</time>
      </trkpt>
      <trkpt lat="44.02542" lon="1.87228">
        <ele>242</ele>
        <time>2020-10-04T11:23:06.611Z</time>
      </trkpt>
      <trkpt lat="44.02542" lon="1.87228">
        <ele>242</ele>
        <time>2020-10-04T11:23:07.611Z</time>
      </trkpt>
      <trkpt lat="44.02543" lon="1.87228">
        <ele>243</ele>
        <time>2020-10-04T11:23:08.611Z</time>
      </trkpt>
      <trkpt lat="44.02544" lon="1.87228">
        <ele>243</ele>
        <time>2020-10-04T11:23:09.611Z</time>
      </trkpt>
      <trkpt lat="44.02545" lon="1.87228">
        <ele>243</ele>
        <time>2020-10-04T11:23:10.611Z</time>
      </trkpt>
      <trkpt lat="44.02545" lon="1.87228">
        <ele>243</ele>
        <time>2020-10-04T11:23:11.611Z</time>
      </trkpt>
      <trkpt lat="44.02546" lon="1.87227">
        <ele>243</ele>
        <time>2020-10-04T11:23:12.611Z</time>
      </trkpt>
      <trkpt lat="44.02547" lon="1.87227">
        <ele>243</ele>
        <time>2020-10-04T11:23:13.611Z</time>
      </trkpt>
      <trkpt lat="44.02547" lon="1.87227">
        <ele>243</ele>
        <time>2020-10-04T11:23:14.611Z</time>
      </trkpt>
      <trkpt lat="44.02548" lon="1.87227">
        <ele>243</ele>
        <time>2020-10-04T11:23:15.611Z</time>
      </trkpt>
      <trkpt lat="44.02549" lon="1.87227">
        <ele>243</ele>
        <time>2020-10-04T11:23:16.611Z</time>
      </trkpt>
      <trkpt lat="44.0255" lon="1.87226">
        <ele>243</ele>
        <time>2020-10-04T11:23:17.611Z</time>
      </trkpt>
      <trkpt lat="44.02551" lon="1.87226">
        <ele>243</ele>
        <time>2020-10-04T11:23:18.611Z</time>
      </trkpt>
      <trkpt lat="44.02552" lon="1.87226">
        <ele>243</ele>
        <time>2020-10-04T11:23:19.611Z</time>
      </trkpt>
      <trkpt lat="44.02553" lon="1.87226">
        <ele>243</ele>
        <time>2020-10-04T11:23:20.611Z</time>
      </trkpt>
      <trkpt lat="44.02554" lon="1.87225">
        <ele>243</ele>
        <time>2020-10-04T11:23:21.611Z</time>
      </trkpt>
      <trkpt lat="44.02555" lon="1.87225">
        <ele>244</ele>
        <time>2020-10-04T11:23:22.611Z</time>
      </trkpt>
      <trkpt lat="44.02555" lon="1.87225">
        <ele>244</ele>
        <time>2020-10-04T11:23:23.611Z</time>
      </trkpt>
      <trkpt lat="44.02555" lon="1.87225">
        <ele>244</ele>
        <time>2020-10-04T11:23:24.611Z</time>
      </trkpt>
      <trkpt lat="44.02556" lon="1.87225">
        <ele>244</ele>
        <time>2020-10-04T11:23:25.611Z</time>
      </trkpt>
      <trkpt lat="44.02556" lon="1.87225">
        <ele>244</ele>
        <time>2020-10-04T11:23:26.611Z</time>
      </trkpt>
      <trkpt lat="44.02557" lon="1.87225">
        <ele>244</ele>
        <time>2020-10-04T11:23:27.611Z</time>
      </trkpt>
      <trkpt lat="44.02558" lon="1.87225">
        <ele>244</ele>
        <time>2020-10-04T11:23:28.611Z</time>
      </trkpt>
      <trkpt lat="44.02559" lon="1.87224">
        <ele>245</ele>
        <time>2020-10-04T11:23:29.611Z</time>
      </trkpt>
      <trkpt lat="44.02559" lon="1.87224">
        <ele>245</ele>
        <time>2020-10-04T11:23:30.611Z</time>
      </trkpt>
      <trkpt lat="44.0256" lon="1.87225">
        <ele>245</ele>
        <time>2020-10-04T11:23:31.611Z</time>
      </trkpt>
      <trkpt lat="44.02561" lon="1.87225">
        <ele>245</ele>
        <time>2020-10-04T11:23:32.611Z</time>
      </trkpt>
      <trkpt lat="44.02562" lon="1.87225">
        <ele>245</ele>
        <time>2020-10-04T11:23:33.611Z</time>
      </trkpt>
      <trkpt lat="44.02563" lon="1.87225">
        <ele>245</ele>
        <time>2020-10-04T11:23:34.611Z</time>
      </trkpt>
      <trkpt lat="44.02563" lon="1.87225">
        <ele>245</ele>
        <time>2020-10-04T11:23:35.611Z</time>
      </trkpt>
      <trkpt lat="44.02564" lon="1.87225">
        <ele>245</ele>
        <time>2020-10-04T11:23:36.611Z</time>
      </trkpt>
      <trkpt lat="44.02564" lon="1.87225">
        <ele>246</ele>
        <time>2020-10-04T11:23:37.611Z</time>
      </trkpt>
      <trkpt lat="44.02564" lon="1.87225">
        <ele>246</ele>
        <time>2020-10-04T11:23:38.611Z</time>
      </trkpt>
      <trkpt lat="44.02567" lon="1.87224">
        <ele>246</ele>
        <time>2020-10-04T11:23:39.611Z</time>
      </trkpt>
      <trkpt lat="44.02568" lon="1.87224">
        <ele>246</ele>
        <time>2020-10-04T11:23:40.611Z</time>
      </trkpt>
      <trkpt lat="44.02569" lon="1.87225">
        <ele>246</ele>
        <time>2020-10-04T11:23:41.611Z</time>
      </trkpt>
      <trkpt lat="44.02569" lon="1.87225">
        <ele>247</ele>
        <time>2020-10-04T11:23:42.611Z</time>
      </trkpt>
      <trkpt lat="44.0257" lon="1.87225">
        <ele>247</ele>
        <time>2020-10-04T11:23:43.611Z</time>
      </trkpt>
      <trkpt lat="44.02571" lon="1.87225">
        <ele>247</ele>
        <time>2020-10-04T11:23:54.634Z</time>
      </trkpt>
      <trkpt lat="44.02572" lon="1.87225">
        <ele>247</ele>
        <time>2020-10-04T11:23:55.634Z</time>
      </trkpt>
      <trkpt lat="44.02573" lon="1.87226">
        <ele>247</ele>
        <time>2020-10-04T11:23:56.634Z</time>
      </trkpt>
      <trkpt lat="44.02573" lon="1.87226">
        <ele>248</ele>
        <time>2020-10-04T11:23:57.634Z</time>
      </trkpt>
      <trkpt lat="44.02574" lon="1.87226">
        <ele>248</ele>
        <time>2020-10-04T11:23:58.634Z</time>
      </trkpt>
      <trkpt lat="44.02575" lon="1.87226">
        <ele>248</ele>
        <time>2020-10-04T11:23:59.634Z</time>
      </trkpt>
      <trkpt lat="44.02576" lon="1.87226">
        <ele>248</ele>
        <time>2020-10-04T11:24:08.633Z</time>
      </trkpt>
      <trkpt lat="44.02577" lon="1.87226">
        <ele>249</ele>
        <time>2020-10-04T11:24:09.633Z</time>
      </trkpt>
      <trkpt lat="44.02578" lon="1.87225">
        <ele>249</ele>
        <time>2020-10-04T11:24:10.633Z</time>
      </trkpt>
      <trkpt lat="44.02579" lon="1.87225">
        <ele>249</ele>
        <time>2020-10-04T11:24:11.633Z</time>
      </trkpt>
      <trkpt lat="44.0258" lon="1.87225">
        <ele>249</ele>
        <time>2020-10-04T11:24:12.633Z</time>
      </trkpt>
      <trkpt lat="44.02581" lon="1.87225">
        <ele>249</ele>
        <time>2020-10-04T11:24:13.633Z</time>
      </trkpt>
      <trkpt lat="44.02581" lon="1.87225">
        <ele>250</ele>
        <time>2020-10-04T11:24:14.633Z</time>
      </trkpt>
      <trkpt lat="44.02582" lon="1.87225">
        <ele>250</ele>
        <time>2020-10-04T11:24:15.633Z</time>
      </trkpt>
      <trkpt lat="44.02583" lon="1.87225">
        <ele>250</ele>
        <time>2020-10-04T11:24:25.641Z</time>
      </trkpt>
      <trkpt lat="44.02584" lon="1.87225">
        <ele>250</ele>
        <time>2020-10-04T11:24:26.641Z</time>
      </trkpt>
      <trkpt lat="44.02585" lon="1.87225">
        <ele>250</ele>
        <time>2020-10-04T11:24:27.641Z</time>
      </trkpt>
      <trkpt lat="44.02586" lon="1.87225">
        <ele>250</ele>
        <time>2020-10-04T11:24:28.641Z</time>
      </trkpt>
      <trkpt lat="44.02587" lon="1.87225">
        <ele>250</ele>
        <time>2020-10-04T11:24:29.641Z</time>
      </trkpt>
      <trkpt lat="44.02588" lon="1.87225">
        <ele>250</ele>
        <time>2020-10-04T11:24:30.641Z</time>
      </trkpt>
      <trkpt lat="44.02589" lon="1.87225">
        <ele>250</ele>
        <time>2020-10-04T11:24:31.641Z</time>
      </trkpt>
      <trkpt lat="44.0259" lon="1.87225">
        <ele>251</ele>
        <time>2020-10-04T11:24:32.641Z</time>
      </trkpt>
      <trkpt lat="44.02591" lon="1.87225">
        <ele>251</ele>
        <time>2020-10-04T11:24:33.641Z</time>
      </trkpt>
      <trkpt lat="44.02592" lon="1.87225">
        <ele>251</ele>
        <time>2020-10-04T11:24:34.641Z</time>
      </trkpt>
      <trkpt lat="44.02593" lon="1.87225">
        <ele>251</ele>
        <time>2020-10-04T11:24:35.641Z</time>
      </trkpt>
      <trkpt lat="44.02594" lon="1.87225">
        <ele>251</ele>
        <time>2020-10-04T11:24:36.641Z</time>
      </trkpt>
      <trkpt lat="44.02595" lon="1.87225">
        <ele>251</ele>
        <time>2020-10-04T11:24:37.641Z</time>
      </trkpt>
      <trkpt lat="44.02596" lon="1.87225">
        <ele>251</ele>
        <time>2020-10-04T11:24:38.641Z</time>
      </trkpt>
      <trkpt lat="44.02597" lon="1.87224">
        <ele>251</ele>
        <time>2020-10-04T11:24:39.641Z</time>
      </trkpt>
      <trkpt lat="44.02598" lon="1.87224">
        <ele>252</ele>
        <time>2020-10-04T11:24:40.641Z</time>
      </trkpt>
      <trkpt lat="44.02599" lon="1.87223">
        <ele>252</ele>
        <time>2020-10-04T11:24:41.641Z</time>
      </trkpt>
      <trkpt lat="44.02599" lon="1.87223">
        <ele>252</ele>
        <time>2020-10-04T11:24:42.641Z</time>
      </trkpt>
      <trkpt lat="44.026" lon="1.87222">
        <ele>252</ele>
        <time>2020-10-04T11:24:43.641Z</time>
      </trkpt>
      <trkpt lat="44.02601" lon="1.87222">
        <ele>252</ele>
        <time>2020-10-04T11:24:44.641Z</time>
      </trkpt>
      <trkpt lat="44.02602" lon="1.87222">
        <ele>252</ele>
        <time>2020-10-04T11:24:45.641Z</time>
      </trkpt>
      <trkpt lat="44.02603" lon="1.87222">
        <ele>253</ele>
        <time>2020-10-04T11:24:46.641Z</time>
      </trkpt>
      <trkpt lat="44.02604" lon="1.87221">
        <ele>253</ele>
        <time>2020-10-04T11:24:47.641Z</time>
      </trkpt>
      <trkpt lat="44.02605" lon="1.87221">
        <ele>253</ele>
        <time>2020-10-04T11:24:48.641Z</time>
      </trkpt>
      <trkpt lat="44.02605" lon="1.8722">
        <ele>253</ele>
        <time>2020-10-04T11:24:49.641Z</time>
      </trkpt>
      <trkpt lat="44.02606" lon="1.8722">
        <ele>253</ele>
        <time>2020-10-04T11:24:50.641Z</time>
      </trkpt>
      <trkpt lat="44.02607" lon="1.87219">
        <ele>253</ele>
        <time>2020-10-04T11:24:51.641Z</time>
      </trkpt>
      <trkpt lat="44.02608" lon="1.87219">
        <ele>253</ele>
        <time>2020-10-04T11:24:52.641Z</time>
      </trkpt>
      <trkpt lat="44.02609" lon="1.87218">
        <ele>253</ele>
        <time>2020-10-04T11:24:53.641Z</time>
      </trkpt>
      <trkpt lat="44.0261" lon="1.87218">
        <ele>254</ele>
        <time>2020-10-04T11:24:54.641Z</time>
      </trkpt>
      <trkpt lat="44.0261" lon="1.87217">
        <ele>254</ele>
        <time>2020-10-04T11:24:55.641Z</time>
      </trkpt>
      <trkpt lat="44.02611" lon="1.87217">
        <ele>254</ele>
        <time>2020-10-04T11:24:56.641Z</time>
      </trkpt>
      <trkpt lat="44.02612" lon="1.87216">
        <ele>255</ele>
        <time>2020-10-04T11:24:57.641Z</time>
      </trkpt>
      <trkpt lat="44.02612" lon="1.87216">
        <ele>255</ele>
        <time>2020-10-04T11:24:58.641Z</time>
      </trkpt>
      <trkpt lat="44.02613" lon="1.87215">
        <ele>255</ele>
        <time>2020-10-04T11:24:59.641Z</time>
      </trkpt>
      <trkpt lat="44.02614" lon="1.87214">
        <ele>256</ele>
        <time>2020-10-04T11:25:00.641Z</time>
      </trkpt>
      <trkpt lat="44.02614" lon="1.87214">
        <ele>256</ele>
        <time>2020-10-04T11:25:01.641Z</time>
      </trkpt>
      <trkpt lat="44.02615" lon="1.87213">
        <ele>256</ele>
        <time>2020-10-04T11:25:02.641Z</time>
      </trkpt>
      <trkpt lat="44.02616" lon="1.87213">
        <ele>256</ele>
        <time>2020-10-04T11:25:03.641Z</time>
      </trkpt>
      <trkpt lat="44.02616" lon="1.87212">
        <ele>257</ele>
        <time>2020-10-04T11:25:04.641Z</time>
      </trkpt>
      <trkpt lat="44.02617" lon="1.87212">
        <ele>257</ele>
        <time>2020-10-04T11:25:05.641Z</time>
      </trkpt>
      <trkpt lat="44.02618" lon="1.87211">
        <ele>257</ele>
        <time>2020-10-04T11:25:06.641Z</time>
      </trkpt>
      <trkpt lat="44.02618" lon="1.87211">
        <ele>258</ele>
        <time>2020-10-04T11:25:07.641Z</time>
      </trkpt>
      <trkpt lat="44.02619" lon="1.87211">
        <ele>258</ele>
        <time>2020-10-04T11:25:08.641Z</time>
      </trkpt>
      <trkpt lat="44.0262" lon="1.8721">
        <ele>258</ele>
        <time>2020-10-04T11:25:09.641Z</time>
      </trkpt>
      <trkpt lat="44.0262" lon="1.8721">
        <ele>258</ele>
        <time>2020-10-04T11:25:10.641Z</time>
      </trkpt>
      <trkpt lat="44.02621" lon="1.8721">
        <ele>258</ele>
        <time>2020-10-04T11:25:11.641Z</time>
      </trkpt>
      <trkpt lat="44.02622" lon="1.8721">
        <ele>259</ele>
        <time>2020-10-04T11:25:12.641Z</time>
      </trkpt>
      <trkpt lat="44.02622" lon="1.87209">
        <ele>259</ele>
        <time>2020-10-04T11:25:13.641Z</time>
      </trkpt>
      <trkpt lat="44.02623" lon="1.87209">
        <ele>259</ele>
        <time>2020-10-04T11:25:14.641Z</time>
      </trkpt>
      <trkpt lat="44.02623" lon="1.87209">
        <ele>259</ele>
        <time>2020-10-04T11:25:15.641Z</time>
      </trkpt>
      <trkpt lat="44.02624" lon="1.87209">
        <ele>260</ele>
        <time>2020-10-04T11:25:16.641Z</time>
      </trkpt>
      <trkpt lat="44.02624" lon="1.87209">
        <ele>260</ele>
        <time>2020-10-04T11:25:17.641Z</time>
      </trkpt>
      <trkpt lat="44.02625" lon="1.87209">
        <ele>260</ele>
        <time>2020-10-04T11:25:18.641Z</time>
      </trkpt>
      <trkpt lat="44.02626" lon="1.87209">
        <ele>261</ele>
        <time>2020-10-04T11:25:19.641Z</time>
      </trkpt>
      <trkpt lat="44.02626" lon="1.87208">
        <ele>261</ele>
        <time>2020-10-04T11:25:20.641Z</time>
      </trkpt>
      <trkpt lat="44.02627" lon="1.87208">
        <ele>261</ele>
        <time>2020-10-04T11:25:21.641Z</time>
      </trkpt>
      <trkpt lat="44.02628" lon="1.87208">
        <ele>261</ele>
        <time>2020-10-04T11:25:22.641Z</time>
      </trkpt>
      <trkpt lat="44.02629" lon="1.87208">
        <ele>261</ele>
        <time>2020-10-04T11:25:23.641Z</time>
      </trkpt>
      <trkpt lat="44.0263" lon="1.87207">
        <ele>262</ele>
        <time>2020-10-04T11:25:24.641Z</time>
      </trkpt>
      <trkpt lat="44.0263" lon="1.87207">
        <ele>262</ele>
        <time>2020-10-04T11:25:25.641Z</time>
      </trkpt>
      <trkpt lat="44.02631" lon="1.87208">
        <ele>262</ele>
        <time>2020-10-04T11:25:26.641Z</time>
      </trkpt>
      <trkpt lat="44.02632" lon="1.87207">
        <ele>262</ele>
        <time>2020-10-04T11:25:27.641Z</time>
      </trkpt>
      <trkpt lat="44.02633" lon="1.87207">
        <ele>262</ele>
        <time>2020-10-04T11:25:28.641Z</time>
      </trkpt>
      <trkpt lat="44.02634" lon="1.87207">
        <ele>263</ele>
        <time>2020-10-04T11:25:29.641Z</time>
      </trkpt>
      <trkpt lat="44.02635" lon="1.87207">
        <ele>263</ele>
        <time>2020-10-04T11:25:30.641Z</time>
      </trkpt>
      <trkpt lat="44.02635" lon="1.87207">
        <ele>263</ele>
        <time>2020-10-04T11:25:31.641Z</time>
      </trkpt>
      <trkpt lat="44.02636" lon="1.87208">
        <ele>263</ele>
        <time>2020-10-04T11:25:32.641Z</time>
      </trkpt>
      <trkpt lat="44.02637" lon="1.87208">
        <ele>263</ele>
        <time>2020-10-04T11:25:33.641Z</time>
      </trkpt>
      <trkpt lat="44.02638" lon="1.87208">
        <ele>263</ele>
        <time>2020-10-04T11:25:34.641Z</time>
      </trkpt>
      <trkpt lat="44.02639" lon="1.87209">
        <ele>263</ele>
        <time>2020-10-04T11:25:35.641Z</time>
      </trkpt>
      <trkpt lat="44.0264" lon="1.87209">
        <ele>263</ele>
        <time>2020-10-04T11:25:36.641Z</time>
      </trkpt>
      <trkpt lat="44.02641" lon="1.87209">
        <ele>263</ele>
        <time>2020-10-04T11:25:37.641Z</time>
      </trkpt>
      <trkpt lat="44.02642" lon="1.87209">
        <ele>263</ele>
        <time>2020-10-04T11:25:38.641Z</time>
      </trkpt>
      <trkpt lat="44.02643" lon="1.87209">
        <ele>264</ele>
        <time>2020-10-04T11:25:39.641Z</time>
      </trkpt>
      <trkpt lat="44.02644" lon="1.87209">
        <ele>264</ele>
        <time>2020-10-04T11:25:40.641Z</time>
      </trkpt>
      <trkpt lat="44.02645" lon="1.87209">
        <ele>264</ele>
        <time>2020-10-04T11:25:41.641Z</time>
      </trkpt>
      <trkpt lat="44.02645" lon="1.87209">
        <ele>264</ele>
        <time>2020-10-04T11:25:42.641Z</time>
      </trkpt>
      <trkpt lat="44.02646" lon="1.87209">
        <ele>264</ele>
        <time>2020-10-04T11:25:43.641Z</time>
      </trkpt>
      <trkpt lat="44.02647" lon="1.87209">
        <ele>264</ele>
        <time>2020-10-04T11:25:44.641Z</time>
      </trkpt>
      <trkpt lat="44.02648" lon="1.87209">
        <ele>264</ele>
        <time>2020-10-04T11:25:45.641Z</time>
      </trkpt>
      <trkpt lat="44.02649" lon="1.87209">
        <ele>264</ele>
        <time>2020-10-04T11:25:46.641Z</time>
      </trkpt>
      <trkpt lat="44.02649" lon="1.87209">
        <ele>264</ele>
        <time>2020-10-04T11:25:47.641Z</time>
      </trkpt>
      <trkpt lat="44.0265" lon="1.87208">
        <ele>264</ele>
        <time>2020-10-04T11:25:48.641Z</time>
      </trkpt>
      <trkpt lat="44.02651" lon="1.87208">
        <ele>264</ele>
        <time>2020-10-04T11:25:49.641Z</time>
      </trkpt>
      <trkpt lat="44.02651" lon="1.87208">
        <ele>265</ele>
        <time>2020-10-04T11:25:50.641Z</time>
      </trkpt>
      <trkpt lat="44.02652" lon="1.87207">
        <ele>265</ele>
        <time>2020-10-04T11:25:51.641Z</time>
      </trkpt>
      <trkpt lat="44.02653" lon="1.87207">
        <ele>265</ele>
        <time>2020-10-04T11:25:52.641Z</time>
      </trkpt>
      <trkpt lat="44.02654" lon="1.87207">
        <ele>265</ele>
        <time>2020-10-04T11:25:53.641Z</time>
      </trkpt>
      <trkpt lat="44.02655" lon="1.87206">
        <ele>265</ele>
        <time>2020-10-04T11:25:54.641Z</time>
      </trkpt>
      <trkpt lat="44.02656" lon="1.87206">
        <ele>265</ele>
        <time>2020-10-04T11:25:55.641Z</time>
      </trkpt>
      <trkpt lat="44.02657" lon="1.87205">
        <ele>265</ele>
        <time>2020-10-04T11:25:56.641Z</time>
      </trkpt>
      <trkpt lat="44.02658" lon="1.87205">
        <ele>265</ele>
        <time>2020-10-04T11:25:57.641Z</time>
      </trkpt>
      <trkpt lat="44.02659" lon="1.87205">
        <ele>265</ele>
        <time>2020-10-04T11:25:58.641Z</time>
      </trkpt>
      <trkpt lat="44.0266" lon="1.87204">
        <ele>265</ele>
        <time>2020-10-04T11:25:59.641Z</time>
      </trkpt>
      <trkpt lat="44.02661" lon="1.87204">
        <ele>265</ele>
        <time>2020-10-04T11:26:00.641Z</time>
      </trkpt>
      <trkpt lat="44.02661" lon="1.87204">
        <ele>265</ele>
        <time>2020-10-04T11:26:01.641Z</time>
      </trkpt>
      <trkpt lat="44.02662" lon="1.87203">
        <ele>265</ele>
        <time>2020-10-04T11:26:02.641Z</time>
      </trkpt>
      <trkpt lat="44.02663" lon="1.87202">
        <ele>265</ele>
        <time>2020-10-04T11:26:03.641Z</time>
      </trkpt>
      <trkpt lat="44.02664" lon="1.87202">
        <ele>265</ele>
        <time>2020-10-04T11:26:04.641Z</time>
      </trkpt>
      <trkpt lat="44.02664" lon="1.87201">
        <ele>265</ele>
        <time>2020-10-04T11:26:05.641Z</time>
      </trkpt>
      <trkpt lat="44.02665" lon="1.872">
        <ele>265</ele>
        <time>2020-10-04T11:26:06.641Z</time>
      </trkpt>
      <trkpt lat="44.02666" lon="1.872">
        <ele>265</ele>
        <time>2020-10-04T11:26:07.641Z</time>
      </trkpt>
      <trkpt lat="44.02667" lon="1.87199">
        <ele>265</ele>
        <time>2020-10-04T11:26:08.641Z</time>
      </trkpt>
      <trkpt lat="44.02668" lon="1.87199">
        <ele>265</ele>
        <time>2020-10-04T11:26:09.641Z</time>
      </trkpt>
      <trkpt lat="44.02668" lon="1.87198">
        <ele>265</ele>
        <time>2020-10-04T11:26:10.641Z</time>
      </trkpt>
      <trkpt lat="44.02669" lon="1.87198">
        <ele>265</ele>
        <time>2020-10-04T11:26:11.641Z</time>
      </trkpt>
      <trkpt lat="44.0267" lon="1.87197">
        <ele>265</ele>
        <time>2020-10-04T11:26:12.641Z</time>
      </trkpt>
      <trkpt lat="44.02671" lon="1.87197">
        <ele>266</ele>
        <time>2020-10-04T11:26:13.641Z</time>
      </trkpt>
      <trkpt lat="44.02671" lon="1.87196">
        <ele>266</ele>
        <time>2020-10-04T11:26:14.641Z</time>
      </trkpt>
      <trkpt lat="44.02672" lon="1.87196">
        <ele>266</ele>
        <time>2020-10-04T11:26:15.641Z</time>
      </trkpt>
      <trkpt lat="44.02673" lon="1.87195">
        <ele>266</ele>
        <time>2020-10-04T11:26:16.641Z</time>
      </trkpt>
      <trkpt lat="44.02674" lon="1.87194">
        <ele>266</ele>
        <time>2020-10-04T11:26:17.641Z</time>
      </trkpt>
      <trkpt lat="44.02675" lon="1.87194">
        <ele>266</ele>
        <time>2020-10-04T11:26:18.641Z</time>
      </trkpt>
      <trkpt lat="44.02675" lon="1.87193">
        <ele>266</ele>
        <time>2020-10-04T11:26:19.641Z</time>
      </trkpt>
      <trkpt lat="44.02676" lon="1.87193">
        <ele>266</ele>
        <time>2020-10-04T11:26:20.641Z</time>
      </trkpt>
      <trkpt lat="44.02677" lon="1.87192">
        <ele>266</ele>
        <time>2020-10-04T11:26:21.641Z</time>
      </trkpt>
      <trkpt lat="44.02678" lon="1.87191">
        <ele>266</ele>
        <time>2020-10-04T11:26:22.641Z</time>
      </trkpt>
      <trkpt lat="44.02679" lon="1.87191">
        <ele>266</ele>
        <time>2020-10-04T11:26:23.641Z</time>
      </trkpt>
      <trkpt lat="44.0268" lon="1.87191">
        <ele>266</ele>
        <time>2020-10-04T11:26:24.641Z</time>
      </trkpt>
      <trkpt lat="44.02681" lon="1.8719">
        <ele>267</ele>
        <time>2020-10-04T11:26:25.641Z</time>
      </trkpt>
      <trkpt lat="44.02681" lon="1.8719">
        <ele>267</ele>
        <time>2020-10-04T11:26:26.641Z</time>
      </trkpt>
      <trkpt lat="44.02682" lon="1.87189">
        <ele>267</ele>
        <time>2020-10-04T11:26:27.641Z</time>
      </trkpt>
      <trkpt lat="44.02683" lon="1.87188">
        <ele>267</ele>
        <time>2020-10-04T11:26:28.641Z</time>
      </trkpt>
      <trkpt lat="44.02684" lon="1.87188">
        <ele>267</ele>
        <time>2020-10-04T11:26:29.641Z</time>
      </trkpt>
      <trkpt lat="44.02685" lon="1.87187">
        <ele>267</ele>
        <time>2020-10-04T11:26:30.641Z</time>
      </trkpt>
      <trkpt lat="44.02686" lon="1.87186">
        <ele>267</ele>
        <time>2020-10-04T11:26:31.641Z</time>
      </trkpt>
      <trkpt lat="44.02686" lon="1.87186">
        <ele>267</ele>
        <time>2020-10-04T11:26:32.641Z</time>
      </trkpt>
      <trkpt lat="44.02687" lon="1.87185">
        <ele>267</ele>
        <time>2020-10-04T11:26:33.641Z</time>
      </trkpt>
      <trkpt lat="44.02688" lon="1.87184">
        <ele>267</ele>
        <time>2020-10-04T11:26:34.641Z</time>
      </trkpt>
      <trkpt lat="44.02689" lon="1.87184">
        <ele>267</ele>
        <time>2020-10-04T11:26:35.641Z</time>
      </trkpt>
      <trkpt lat="44.02689" lon="1.87184">
        <ele>268</ele>
        <time>2020-10-04T11:26:36.641Z</time>
      </trkpt>
      <trkpt lat="44.0269" lon="1.87183">
        <ele>268</ele>
        <time>2020-10-04T11:26:37.641Z</time>
      </trkpt>
      <trkpt lat="44.02691" lon="1.87183">
        <ele>268</ele>
        <time>2020-10-04T11:26:38.641Z</time>
      </trkpt>
      <trkpt lat="44.02692" lon="1.87183">
        <ele>268</ele>
        <time>2020-10-04T11:26:39.641Z</time>
      </trkpt>
      <trkpt lat="44.02693" lon="1.87182">
        <ele>268</ele>
        <time>2020-10-04T11:26:40.641Z</time>
      </trkpt>
      <trkpt lat="44.02694" lon="1.87182">
        <ele>268</ele>
        <time>2020-10-04T11:26:41.641Z</time>
      </trkpt>
      <trkpt lat="44.02695" lon="1.87181">
        <ele>268</ele>
        <time>2020-10-04T11:26:42.641Z</time>
      </trkpt>
      <trkpt lat="44.02696" lon="1.87181">
        <ele>268</ele>
        <time>2020-10-04T11:26:43.641Z</time>
      </trkpt>
      <trkpt lat="44.02697" lon="1.87181">
        <ele>269</ele>
        <time>2020-10-04T11:26:44.641Z</time>
      </trkpt>
      <trkpt lat="44.02698" lon="1.8718">
        <ele>269</ele>
        <time>2020-10-04T11:26:45.641Z</time>
      </trkpt>
      <trkpt lat="44.02699" lon="1.8718">
        <ele>269</ele>
        <time>2020-10-04T11:26:46.641Z</time>
      </trkpt>
      <trkpt lat="44.02699" lon="1.87179">
        <ele>269</ele>
        <time>2020-10-04T11:26:47.641Z</time>
      </trkpt>
      <trkpt lat="44.027" lon="1.87179">
        <ele>269</ele>
        <time>2020-10-04T11:26:48.641Z</time>
      </trkpt>
      <trkpt lat="44.02701" lon="1.87179">
        <ele>269</ele>
        <time>2020-10-04T11:26:49.641Z</time>
      </trkpt>
      <trkpt lat="44.02702" lon="1.87178">
        <ele>270</ele>
        <time>2020-10-04T11:26:50.641Z</time>
      </trkpt>
      <trkpt lat="44.02703" lon="1.87178">
        <ele>270</ele>
        <time>2020-10-04T11:26:51.641Z</time>
      </trkpt>
      <trkpt lat="44.02704" lon="1.87178">
        <ele>270</ele>
        <time>2020-10-04T11:26:52.641Z</time>
      </trkpt>
      <trkpt lat="44.02705" lon="1.87178">
        <ele>270</ele>
        <time>2020-10-04T11:26:53.641Z</time>
      </trkpt>
      <trkpt lat="44.02706" lon="1.87177">
        <ele>270</ele>
        <time>2020-10-04T11:26:54.641Z</time>
      </trkpt>
      <trkpt lat="44.02707" lon="1.87177">
        <ele>270</ele>
        <time>2020-10-04T11:26:55.641Z</time>
      </trkpt>
      <trkpt lat="44.02708" lon="1.87176">
        <ele>270</ele>
        <time>2020-10-04T11:26:56.641Z</time>
      </trkpt>
      <trkpt lat="44.02709" lon="1.87176">
        <ele>270</ele>
        <time>2020-10-04T11:26:57.641Z</time>
      </trkpt>
      <trkpt lat="44.0271" lon="1.87176">
        <ele>270</ele>
        <time>2020-10-04T11:26:58.641Z</time>
      </trkpt>
      <trkpt lat="44.02711" lon="1.87176">
        <ele>271</ele>
        <time>2020-10-04T11:26:59.641Z</time>
      </trkpt>
      <trkpt lat="44.02712" lon="1.87175">
        <ele>271</ele>
        <time>2020-10-04T11:27:00.641Z</time>
      </trkpt>
      <trkpt lat="44.02712" lon="1.87175">
        <ele>271</ele>
        <time>2020-10-04T11:27:01.641Z</time>
      </trkpt>
      <trkpt lat="44.02713" lon="1.87175">
        <ele>271</ele>
        <time>2020-10-04T11:27:02.641Z</time>
      </trkpt>
      <trkpt lat="44.02714" lon="1.87174">
        <ele>271</ele>
        <time>2020-10-04T11:27:03.641Z</time>
      </trkpt>
      <trkpt lat="44.02715" lon="1.87174">
        <ele>271</ele>
        <time>2020-10-04T11:27:04.641Z</time>
      </trkpt>
      <trkpt lat="44.02716" lon="1.87173">
        <ele>271</ele>
        <time>2020-10-04T11:27:05.641Z</time>
      </trkpt>
      <trkpt lat="44.02717" lon="1.87173">
        <ele>272</ele>
        <time>2020-10-04T11:27:06.641Z</time>
      </trkpt>
      <trkpt lat="44.02718" lon="1.87172">
        <ele>272</ele>
        <time>2020-10-04T11:27:07.641Z</time>
      </trkpt>
      <trkpt lat="44.02719" lon="1.87172">
        <ele>272</ele>
        <time>2020-10-04T11:27:08.641Z</time>
      </trkpt>
      <trkpt lat="44.0272" lon="1.87172">
        <ele>272</ele>
        <time>2020-10-04T11:27:09.641Z</time>
      </trkpt>
      <trkpt lat="44.02722" lon="1.87171">
        <ele>272</ele>
        <time>2020-10-04T11:27:10.641Z</time>
      </trkpt>
      <trkpt lat="44.02723" lon="1.87171">
        <ele>272</ele>
        <time>2020-10-04T11:27:11.641Z</time>
      </trkpt>
      <trkpt lat="44.02724" lon="1.8717">
        <ele>272</ele>
        <time>2020-10-04T11:27:12.641Z</time>
      </trkpt>
      <trkpt lat="44.02725" lon="1.8717">
        <ele>272</ele>
        <time>2020-10-04T11:27:13.641Z</time>
      </trkpt>
      <trkpt lat="44.02726" lon="1.8717">
        <ele>272</ele>
        <time>2020-10-04T11:27:14.641Z</time>
      </trkpt>
      <trkpt lat="44.02727" lon="1.87169">
        <ele>272</ele>
        <time>2020-10-04T11:27:15.641Z</time>
      </trkpt>
      <trkpt lat="44.02728" lon="1.87169">
        <ele>272</ele>
        <time>2020-10-04T11:27:16.641Z</time>
      </trkpt>
      <trkpt lat="44.02729" lon="1.87168">
        <ele>272</ele>
        <time>2020-10-04T11:27:17.641Z</time>
      </trkpt>
      <trkpt lat="44.0273" lon="1.87168">
        <ele>272</ele>
        <time>2020-10-04T11:27:18.641Z</time>
      </trkpt>
      <trkpt lat="44.02731" lon="1.87168">
        <ele>272</ele>
        <time>2020-10-04T11:27:19.641Z</time>
      </trkpt>
      <trkpt lat="44.02732" lon="1.87167">
        <ele>272</ele>
        <time>2020-10-04T11:27:20.641Z</time>
      </trkpt>
      <trkpt lat="44.02733" lon="1.87167">
        <ele>272</ele>
        <time>2020-10-04T11:27:21.641Z</time>
      </trkpt>
      <trkpt lat="44.02734" lon="1.87167">
        <ele>272</ele>
        <time>2020-10-04T11:27:22.641Z</time>
      </trkpt>
      <trkpt lat="44.02735" lon="1.87167">
        <ele>273</ele>
        <time>2020-10-04T11:27:23.641Z</time>
      </trkpt>
      <trkpt lat="44.02736" lon="1.87167">
        <ele>273</ele>
        <time>2020-10-04T11:27:24.641Z</time>
      </trkpt>
      <trkpt lat="44.02737" lon="1.87166">
        <ele>273</ele>
        <time>2020-10-04T11:27:25.641Z</time>
      </trkpt>
      <trkpt lat="44.02738" lon="1.87166">
        <ele>273</ele>
        <time>2020-10-04T11:27:26.641Z</time>
      </trkpt>
      <trkpt lat="44.02739" lon="1.87165">
        <ele>273</ele>
        <time>2020-10-04T11:27:27.641Z</time>
      </trkpt>
      <trkpt lat="44.0274" lon="1.87165">
        <ele>273</ele>
        <time>2020-10-04T11:27:28.641Z</time>
      </trkpt>
      <trkpt lat="44.02741" lon="1.87164">
        <ele>273</ele>
        <time>2020-10-04T11:27:29.641Z</time>
      </trkpt>
      <trkpt lat="44.02742" lon="1.87163">
        <ele>273</ele>
        <time>2020-10-04T11:27:30.641Z</time>
      </trkpt>
      <trkpt lat="44.02743" lon="1.87163">
        <ele>273</ele>
        <time>2020-10-04T11:27:31.641Z</time>
      </trkpt>
      <trkpt lat="44.02744" lon="1.87162">
        <ele>273</ele>
        <time>2020-10-04T11:27:32.641Z</time>
      </trkpt>
      <trkpt lat="44.02745" lon="1.87161">
        <ele>273</ele>
        <time>2020-10-04T11:27:33.641Z</time>
      </trkpt>
      <trkpt lat="44.02746" lon="1.87161">
        <ele>273</ele>
        <time>2020-10-04T11:27:34.641Z</time>
      </trkpt>
      <trkpt lat="44.02747" lon="1.8716">
        <ele>273</ele>
        <time>2020-10-04T11:27:35.641Z</time>
      </trkpt>
      <trkpt lat="44.02748" lon="1.87159">
        <ele>273</ele>
        <time>2020-10-04T11:27:36.641Z</time>
      </trkpt>
      <trkpt lat="44.02749" lon="1.87159">
        <ele>273</ele>
        <time>2020-10-04T11:27:37.641Z</time>
      </trkpt>
      <trkpt lat="44.0275" lon="1.87158">
        <ele>273</ele>
        <time>2020-10-04T11:27:38.641Z</time>
      </trkpt>
      <trkpt lat="44.02751" lon="1.87158">
        <ele>273</ele>
        <time>2020-10-04T11:27:39.641Z</time>
      </trkpt>
      <trkpt lat="44.02752" lon="1.87157">
        <ele>273</ele>
        <time>2020-10-04T11:27:40.641Z</time>
      </trkpt>
      <trkpt lat="44.02753" lon="1.87156">
        <ele>273</ele>
        <time>2020-10-04T11:27:41.641Z</time>
      </trkpt>
      <trkpt lat="44.02754" lon="1.87156">
        <ele>273</ele>
        <time>2020-10-04T11:27:42.641Z</time>
      </trkpt>
      <trkpt lat="44.02755" lon="1.87155">
        <ele>274</ele>
        <time>2020-10-04T11:27:43.641Z</time>
      </trkpt>
      <trkpt lat="44.02756" lon="1.87155">
        <ele>274</ele>
        <time>2020-10-04T11:27:44.641Z</time>
      </trkpt>
      <trkpt lat="44.02757" lon="1.87154">
        <ele>274</ele>
        <time>2020-10-04T11:27:45.641Z</time>
      </trkpt>
      <trkpt lat="44.02758" lon="1.87153">
        <ele>274</ele>
        <time>2020-10-04T11:27:46.641Z</time>
      </trkpt>
      <trkpt lat="44.02759" lon="1.87153">
        <ele>274</ele>
        <time>2020-10-04T11:27:47.641Z</time>
      </trkpt>
      <trkpt lat="44.0276" lon="1.87152">
        <ele>274</ele>
        <time>2020-10-04T11:27:48.641Z</time>
      </trkpt>
      <trkpt lat="44.02761" lon="1.87151">
        <ele>274</ele>
        <time>2020-10-04T11:27:49.641Z</time>
      </trkpt>
      <trkpt lat="44.02762" lon="1.87151">
        <ele>274</ele>
        <time>2020-10-04T11:27:50.641Z</time>
      </trkpt>
      <trkpt lat="44.02764" lon="1.8715">
        <ele>274</ele>
        <time>2020-10-04T11:27:51.641Z</time>
      </trkpt>
      <trkpt lat="44.02764" lon="1.87149">
        <ele>274</ele>
        <time>2020-10-04T11:27:52.641Z</time>
      </trkpt>
      <trkpt lat="44.02765" lon="1.87148">
        <ele>274</ele>
        <time>2020-10-04T11:27:53.641Z</time>
      </trkpt>
      <trkpt lat="44.02766" lon="1.87148">
        <ele>274</ele>
        <time>2020-10-04T11:27:54.641Z</time>
      </trkpt>
      <trkpt lat="44.02768" lon="1.87147">
        <ele>274</ele>
        <time>2020-10-04T11:27:55.641Z</time>
      </trkpt>
      <trkpt lat="44.02769" lon="1.87146">
        <ele>274</ele>
        <time>2020-10-04T11:27:56.641Z</time>
      </trkpt>
      <trkpt lat="44.0277" lon="1.87146">
        <ele>274</ele>
        <time>2020-10-04T11:27:57.641Z</time>
      </trkpt>
      <trkpt lat="44.02771" lon="1.87145">
        <ele>274</ele>
        <time>2020-10-04T11:27:58.641Z</time>
      </trkpt>
      <trkpt lat="44.02772" lon="1.87145">
        <ele>274</ele>
        <time>2020-10-04T11:27:59.641Z</time>
      </trkpt>
      <trkpt lat="44.02773" lon="1.87144">
        <ele>274</ele>
        <time>2020-10-04T11:28:00.641Z</time>
      </trkpt>
      <trkpt lat="44.02774" lon="1.87143">
        <ele>274</ele>
        <time>2020-10-04T11:28:01.641Z</time>
      </trkpt>
      <trkpt lat="44.02775" lon="1.87143">
        <ele>274</ele>
        <time>2020-10-04T11:28:02.641Z</time>
      </trkpt>
      <trkpt lat="44.02776" lon="1.87142">
        <ele>274</ele>
        <time>2020-10-04T11:28:03.641Z</time>
      </trkpt>
      <trkpt lat="44.02777" lon="1.87142">
        <ele>274</ele>
        <time>2020-10-04T11:28:04.641Z</time>
      </trkpt>
      <trkpt lat="44.02778" lon="1.87141">
        <ele>274</ele>
        <time>2020-10-04T11:28:05.641Z</time>
      </trkpt>
      <trkpt lat="44.02779" lon="1.8714">
        <ele>274</ele>
        <time>2020-10-04T11:28:06.641Z</time>
      </trkpt>
      <trkpt lat="44.0278" lon="1.8714">
        <ele>274</ele>
        <time>2020-10-04T11:28:07.641Z</time>
      </trkpt>
      <trkpt lat="44.02781" lon="1.87139">
        <ele>274</ele>
        <time>2020-10-04T11:28:08.641Z</time>
      </trkpt>
      <trkpt lat="44.02782" lon="1.87139">
        <ele>274</ele>
        <time>2020-10-04T11:28:09.641Z</time>
      </trkpt>
      <trkpt lat="44.02783" lon="1.87139">
        <ele>275</ele>
        <time>2020-10-04T11:28:10.641Z</time>
      </trkpt>
      <trkpt lat="44.02784" lon="1.87138">
        <ele>275</ele>
        <time>2020-10-04T11:28:11.641Z</time>
      </trkpt>
      <trkpt lat="44.02785" lon="1.87138">
        <ele>275</ele>
        <time>2020-10-04T11:28:12.641Z</time>
      </trkpt>
      <trkpt lat="44.02786" lon="1.87137">
        <ele>275</ele>
        <time>2020-10-04T11:28:13.641Z</time>
      </trkpt>
      <trkpt lat="44.02787" lon="1.87136">
        <ele>275</ele>
        <time>2020-10-04T11:28:14.641Z</time>
      </trkpt>
      <trkpt lat="44.02788" lon="1.87136">
        <ele>275</ele>
        <time>2020-10-04T11:28:15.641Z</time>
      </trkpt>
      <trkpt lat="44.02789" lon="1.87135">
        <ele>275</ele>
        <time>2020-10-04T11:28:16.641Z</time>
      </trkpt>
      <trkpt lat="44.0279" lon="1.87134">
        <ele>275</ele>
        <time>2020-10-04T11:28:17.641Z</time>
      </trkpt>
      <trkpt lat="44.02792" lon="1.87133">
        <ele>275</ele>
        <time>2020-10-04T11:28:18.641Z</time>
      </trkpt>
      <trkpt lat="44.02793" lon="1.87133">
        <ele>275</ele>
        <time>2020-10-04T11:28:19.641Z</time>
      </trkpt>
      <trkpt lat="44.02794" lon="1.87132">
        <ele>275</ele>
        <time>2020-10-04T11:28:20.641Z</time>
      </trkpt>
      <trkpt lat="44.02795" lon="1.87132">
        <ele>275</ele>
        <time>2020-10-04T11:28:21.641Z</time>
      </trkpt>
      <trkpt lat="44.02796" lon="1.87131">
        <ele>275</ele>
        <time>2020-10-04T11:28:22.641Z</time>
      </trkpt>
      <trkpt lat="44.02797" lon="1.8713">
        <ele>275</ele>
        <time>2020-10-04T11:28:23.641Z</time>
      </trkpt>
      <trkpt lat="44.02798" lon="1.8713">
        <ele>275</ele>
        <time>2020-10-04T11:28:24.641Z</time>
      </trkpt>
      <trkpt lat="44.02799" lon="1.87129">
        <ele>275</ele>
        <time>2020-10-04T11:28:25.641Z</time>
      </trkpt>
      <trkpt lat="44.028" lon="1.87128">
        <ele>275</ele>
        <time>2020-10-04T11:28:26.641Z</time>
      </trkpt>
      <trkpt lat="44.02801" lon="1.87128">
        <ele>275</ele>
        <time>2020-10-04T11:28:27.641Z</time>
      </trkpt>
      <trkpt lat="44.02803" lon="1.87128">
        <ele>275</ele>
        <time>2020-10-04T11:28:28.641Z</time>
      </trkpt>
      <trkpt lat="44.02805" lon="1.87127">
        <ele>275</ele>
        <time>2020-10-04T11:28:29.641Z</time>
      </trkpt>
      <trkpt lat="44.02806" lon="1.87127">
        <ele>275</ele>
        <time>2020-10-04T11:28:30.641Z</time>
      </trkpt>
      <trkpt lat="44.02807" lon="1.87126">
        <ele>275</ele>
        <time>2020-10-04T11:28:31.641Z</time>
      </trkpt>
      <trkpt lat="44.02808" lon="1.87126">
        <ele>275</ele>
        <time>2020-10-04T11:28:32.641Z</time>
      </trkpt>
      <trkpt lat="44.02809" lon="1.87125">
        <ele>275</ele>
        <time>2020-10-04T11:28:33.641Z</time>
      </trkpt>
      <trkpt lat="44.0281" lon="1.87125">
        <ele>275</ele>
        <time>2020-10-04T11:28:34.641Z</time>
      </trkpt>
      <trkpt lat="44.02811" lon="1.87124">
        <ele>275</ele>
        <time>2020-10-04T11:28:35.641Z</time>
      </trkpt>
      <trkpt lat="44.02812" lon="1.87123">
        <ele>275</ele>
        <time>2020-10-04T11:28:36.641Z</time>
      </trkpt>
      <trkpt lat="44.02813" lon="1.87122">
        <ele>275</ele>
        <time>2020-10-04T11:28:37.641Z</time>
      </trkpt>
      <trkpt lat="44.02814" lon="1.87121">
        <ele>275</ele>
        <time>2020-10-04T11:28:38.641Z</time>
      </trkpt>
      <trkpt lat="44.02815" lon="1.8712">
        <ele>275</ele>
        <time>2020-10-04T11:28:39.641Z</time>
      </trkpt>
      <trkpt lat="44.02816" lon="1.8712">
        <ele>275</ele>
        <time>2020-10-04T11:28:40.641Z</time>
      </trkpt>
      <trkpt lat="44.02817" lon="1.87119">
        <ele>275</ele>
        <time>2020-10-04T11:28:41.641Z</time>
      </trkpt>
      <trkpt lat="44.02818" lon="1.87118">
        <ele>275</ele>
        <time>2020-10-04T11:28:42.641Z</time>
      </trkpt>
      <trkpt lat="44.02819" lon="1.87117">
        <ele>275</ele>
        <time>2020-10-04T11:28:43.641Z</time>
      </trkpt>
      <trkpt lat="44.0282" lon="1.87117">
        <ele>275</ele>
        <time>2020-10-04T11:28:44.641Z</time>
      </trkpt>
      <trkpt lat="44.02821" lon="1.87116">
        <ele>275</ele>
        <time>2020-10-04T11:28:45.641Z</time>
      </trkpt>
      <trkpt lat="44.02822" lon="1.87115">
        <ele>275</ele>
        <time>2020-10-04T11:28:46.641Z</time>
      </trkpt>
      <trkpt lat="44.02823" lon="1.87114">
        <ele>275</ele>
        <time>2020-10-04T11:28:47.641Z</time>
      </trkpt>
      <trkpt lat="44.02824" lon="1.87113">
        <ele>275</ele>
        <time>2020-10-04T11:28:48.641Z</time>
      </trkpt>
      <trkpt lat="44.02825" lon="1.87112">
        <ele>275</ele>
        <time>2020-10-04T11:28:49.641Z</time>
      </trkpt>
      <trkpt lat="44.02826" lon="1.87111">
        <ele>276</ele>
        <time>2020-10-04T11:28:50.641Z</time>
      </trkpt>
      <trkpt lat="44.02827" lon="1.87111">
        <ele>276</ele>
        <time>2020-10-04T11:28:51.641Z</time>
      </trkpt>
      <trkpt lat="44.02828" lon="1.8711">
        <ele>276</ele>
        <time>2020-10-04T11:28:52.641Z</time>
      </trkpt>
      <trkpt lat="44.02829" lon="1.87109">
        <ele>276</ele>
        <time>2020-10-04T11:28:53.641Z</time>
      </trkpt>
      <trkpt lat="44.0283" lon="1.87108">
        <ele>276</ele>
        <time>2020-10-04T11:28:54.641Z</time>
      </trkpt>
      <trkpt lat="44.02831" lon="1.87107">
        <ele>276</ele>
        <time>2020-10-04T11:28:55.641Z</time>
      </trkpt>
      <trkpt lat="44.02832" lon="1.87107">
        <ele>276</ele>
        <time>2020-10-04T11:28:56.641Z</time>
      </trkpt>
      <trkpt lat="44.02833" lon="1.87106">
        <ele>276</ele>
        <time>2020-10-04T11:28:57.641Z</time>
      </trkpt>
      <trkpt lat="44.02834" lon="1.87105">
        <ele>276</ele>
        <time>2020-10-04T11:28:58.641Z</time>
      </trkpt>
      <trkpt lat="44.02835" lon="1.87105">
        <ele>277</ele>
        <time>2020-10-04T11:28:59.641Z</time>
      </trkpt>
      <trkpt lat="44.02836" lon="1.87104">
        <ele>277</ele>
        <time>2020-10-04T11:29:00.641Z</time>
      </trkpt>
      <trkpt lat="44.02837" lon="1.87103">
        <ele>277</ele>
        <time>2020-10-04T11:29:01.641Z</time>
      </trkpt>
      <trkpt lat="44.02837" lon="1.87103">
        <ele>277</ele>
        <time>2020-10-04T11:29:02.641Z</time>
      </trkpt>
      <trkpt lat="44.02838" lon="1.87102">
        <ele>277</ele>
        <time>2020-10-04T11:29:03.641Z</time>
      </trkpt>
      <trkpt lat="44.02839" lon="1.87101">
        <ele>277</ele>
        <time>2020-10-04T11:29:04.641Z</time>
      </trkpt>
      <trkpt lat="44.0284" lon="1.87101">
        <ele>277</ele>
        <time>2020-10-04T11:29:05.641Z</time>
      </trkpt>
      <trkpt lat="44.02841" lon="1.871">
        <ele>278</ele>
        <time>2020-10-04T11:29:06.641Z</time>
      </trkpt>
      <trkpt lat="44.02842" lon="1.87099">
        <ele>278</ele>
        <time>2020-10-04T11:29:07.641Z</time>
      </trkpt>
      <trkpt lat="44.02843" lon="1.87098">
        <ele>278</ele>
        <time>2020-10-04T11:29:08.641Z</time>
      </trkpt>
      <trkpt lat="44.02843" lon="1.87098">
        <ele>278</ele>
        <time>2020-10-04T11:29:09.641Z</time>
      </trkpt>
      <trkpt lat="44.02844" lon="1.87098">
        <ele>278</ele>
        <time>2020-10-04T11:29:10.641Z</time>
      </trkpt>
      <trkpt lat="44.02845" lon="1.87097">
        <ele>278</ele>
        <time>2020-10-04T11:29:11.641Z</time>
      </trkpt>
      <trkpt lat="44.02845" lon="1.87097">
        <ele>278</ele>
        <time>2020-10-04T11:29:12.641Z</time>
      </trkpt>
      <trkpt lat="44.02846" lon="1.87096">
        <ele>278</ele>
        <time>2020-10-04T11:29:13.641Z</time>
      </trkpt>
      <trkpt lat="44.02847" lon="1.87096">
        <ele>278</ele>
        <time>2020-10-04T11:29:14.641Z</time>
      </trkpt>
      <trkpt lat="44.02848" lon="1.87095">
        <ele>278</ele>
        <time>2020-10-04T11:29:15.641Z</time>
      </trkpt>
      <trkpt lat="44.02848" lon="1.87094">
        <ele>278</ele>
        <time>2020-10-04T11:29:16.641Z</time>
      </trkpt>
      <trkpt lat="44.02849" lon="1.87094">
        <ele>279</ele>
        <time>2020-10-04T11:29:17.641Z</time>
      </trkpt>
      <trkpt lat="44.0285" lon="1.87093">
        <ele>279</ele>
        <time>2020-10-04T11:29:18.641Z</time>
      </trkpt>
      <trkpt lat="44.02851" lon="1.87092">
        <ele>279</ele>
        <time>2020-10-04T11:29:19.641Z</time>
      </trkpt>
      <trkpt lat="44.02852" lon="1.87092">
        <ele>279</ele>
        <time>2020-10-04T11:29:20.641Z</time>
      </trkpt>
      <trkpt lat="44.02853" lon="1.87091">
        <ele>279</ele>
        <time>2020-10-04T11:29:21.641Z</time>
      </trkpt>
      <trkpt lat="44.02854" lon="1.87091">
        <ele>279</ele>
        <time>2020-10-04T11:29:22.641Z</time>
      </trkpt>
      <trkpt lat="44.02855" lon="1.8709">
        <ele>280</ele>
        <time>2020-10-04T11:29:23.641Z</time>
      </trkpt>
      <trkpt lat="44.02855" lon="1.8709">
        <ele>280</ele>
        <time>2020-10-04T11:29:24.641Z</time>
      </trkpt>
      <trkpt lat="44.02856" lon="1.8709">
        <ele>280</ele>
        <time>2020-10-04T11:29:25.641Z</time>
      </trkpt>
      <trkpt lat="44.02858" lon="1.87089">
        <ele>280</ele>
        <time>2020-10-04T11:29:26.641Z</time>
      </trkpt>
      <trkpt lat="44.02858" lon="1.87089">
        <ele>281</ele>
        <time>2020-10-04T11:29:27.641Z</time>
      </trkpt>
      <trkpt lat="44.0286" lon="1.87088">
        <ele>281</ele>
        <time>2020-10-04T11:29:28.641Z</time>
      </trkpt>
      <trkpt lat="44.02861" lon="1.87088">
        <ele>281</ele>
        <time>2020-10-04T11:29:29.641Z</time>
      </trkpt>
      <trkpt lat="44.02862" lon="1.87087">
        <ele>281</ele>
        <time>2020-10-04T11:29:30.641Z</time>
      </trkpt>
      <trkpt lat="44.02863" lon="1.87086">
        <ele>281</ele>
        <time>2020-10-04T11:29:31.641Z</time>
      </trkpt>
      <trkpt lat="44.02863" lon="1.87085">
        <ele>281</ele>
        <time>2020-10-04T11:29:32.641Z</time>
      </trkpt>
      <trkpt lat="44.02864" lon="1.87085">
        <ele>282</ele>
        <time>2020-10-04T11:29:33.641Z</time>
      </trkpt>
      <trkpt lat="44.02865" lon="1.87084">
        <ele>282</ele>
        <time>2020-10-04T11:29:34.641Z</time>
      </trkpt>
      <trkpt lat="44.02866" lon="1.87083">
        <ele>282</ele>
        <time>2020-10-04T11:29:35.641Z</time>
      </trkpt>
      <trkpt lat="44.02867" lon="1.87082">
        <ele>282</ele>
        <time>2020-10-04T11:29:36.641Z</time>
      </trkpt>
      <trkpt lat="44.02868" lon="1.87082">
        <ele>282</ele>
        <time>2020-10-04T11:29:37.641Z</time>
      </trkpt>
      <trkpt lat="44.02869" lon="1.87081">
        <ele>282</ele>
        <time>2020-10-04T11:29:38.641Z</time>
      </trkpt>
      <trkpt lat="44.0287" lon="1.8708">
        <ele>282</ele>
        <time>2020-10-04T11:29:39.641Z</time>
      </trkpt>
      <trkpt lat="44.02871" lon="1.87078">
        <ele>282</ele>
        <time>2020-10-04T11:29:40.641Z</time>
      </trkpt>
      <trkpt lat="44.02872" lon="1.87077">
        <ele>282</ele>
        <time>2020-10-04T11:29:41.641Z</time>
      </trkpt>
      <trkpt lat="44.02873" lon="1.87076">
        <ele>282</ele>
        <time>2020-10-04T11:29:42.641Z</time>
      </trkpt>
      <trkpt lat="44.02873" lon="1.87075">
        <ele>282</ele>
        <time>2020-10-04T11:29:43.641Z</time>
      </trkpt>
      <trkpt lat="44.02874" lon="1.87074">
        <ele>282</ele>
        <time>2020-10-04T11:29:44.641Z</time>
      </trkpt>
      <trkpt lat="44.02875" lon="1.87073">
        <ele>282</ele>
        <time>2020-10-04T11:29:45.641Z</time>
      </trkpt>
      <trkpt lat="44.02876" lon="1.87072">
        <ele>282</ele>
        <time>2020-10-04T11:29:46.641Z</time>
      </trkpt>
      <trkpt lat="44.02877" lon="1.87071">
        <ele>282</ele>
        <time>2020-10-04T11:29:47.641Z</time>
      </trkpt>
      <trkpt lat="44.02879" lon="1.8707">
        <ele>282</ele>
        <time>2020-10-04T11:29:48.641Z</time>
      </trkpt>
      <trkpt lat="44.0288" lon="1.87069">
        <ele>282</ele>
        <time>2020-10-04T11:29:49.641Z</time>
      </trkpt>
      <trkpt lat="44.02881" lon="1.87068">
        <ele>282</ele>
        <time>2020-10-04T11:29:50.641Z</time>
      </trkpt>
      <trkpt lat="44.02882" lon="1.87067">
        <ele>282</ele>
        <time>2020-10-04T11:29:51.641Z</time>
      </trkpt>
      <trkpt lat="44.02883" lon="1.87066">
        <ele>282</ele>
        <time>2020-10-04T11:29:52.641Z</time>
      </trkpt>
      <trkpt lat="44.02884" lon="1.87065">
        <ele>282</ele>
        <time>2020-10-04T11:29:53.641Z</time>
      </trkpt>
      <trkpt lat="44.02885" lon="1.87064">
        <ele>282</ele>
        <time>2020-10-04T11:29:54.641Z</time>
      </trkpt>
      <trkpt lat="44.02886" lon="1.87063">
        <ele>282</ele>
        <time>2020-10-04T11:29:55.641Z</time>
      </trkpt>
      <trkpt lat="44.02887" lon="1.87062">
        <ele>282</ele>
        <time>2020-10-04T11:29:56.641Z</time>
      </trkpt>
      <trkpt lat="44.02888" lon="1.87061">
        <ele>282</ele>
        <time>2020-10-04T11:29:57.641Z</time>
      </trkpt>
      <trkpt lat="44.02889" lon="1.8706">
        <ele>282</ele>
        <time>2020-10-04T11:29:58.641Z</time>
      </trkpt>
      <trkpt lat="44.0289" lon="1.87059">
        <ele>282</ele>
        <time>2020-10-04T11:29:59.641Z</time>
      </trkpt>
      <trkpt lat="44.02891" lon="1.87058">
        <ele>282</ele>
        <time>2020-10-04T11:30:00.641Z</time>
      </trkpt>
      <trkpt lat="44.02892" lon="1.87057">
        <ele>282</ele>
        <time>2020-10-04T11:30:01.641Z</time>
      </trkpt>
      <trkpt lat="44.02893" lon="1.87057">
        <ele>282</ele>
        <time>2020-10-04T11:30:02.641Z</time>
      </trkpt>
      <trkpt lat="44.02894" lon="1.87056">
        <ele>282</ele>
        <time>2020-10-04T11:30:03.641Z</time>
      </trkpt>
      <trkpt lat="44.02894" lon="1.87056">
        <ele>282</ele>
        <time>2020-10-04T11:30:04.641Z</time>
      </trkpt>
      <trkpt lat="44.02895" lon="1.87055">
        <ele>282</ele>
        <time>2020-10-04T11:30:05.641Z</time>
      </trkpt>
      <trkpt lat="44.02896" lon="1.87055">
        <ele>283</ele>
        <time>2020-10-04T11:30:06.641Z</time>
      </trkpt>
      <trkpt lat="44.02897" lon="1.87054">
        <ele>283</ele>
        <time>2020-10-04T11:30:07.641Z</time>
      </trkpt>
      <trkpt lat="44.02898" lon="1.87054">
        <ele>283</ele>
        <time>2020-10-04T11:30:08.641Z</time>
      </trkpt>
      <trkpt lat="44.02898" lon="1.87053">
        <ele>283</ele>
        <time>2020-10-04T11:30:09.641Z</time>
      </trkpt>
      <trkpt lat="44.02899" lon="1.87052">
        <ele>283</ele>
        <time>2020-10-04T11:30:10.641Z</time>
      </trkpt>
      <trkpt lat="44.029" lon="1.87052">
        <ele>283</ele>
        <time>2020-10-04T11:30:11.641Z</time>
      </trkpt>
      <trkpt lat="44.02901" lon="1.87051">
        <ele>284</ele>
        <time>2020-10-04T11:30:12.641Z</time>
      </trkpt>
      <trkpt lat="44.02902" lon="1.8705">
        <ele>284</ele>
        <time>2020-10-04T11:30:13.641Z</time>
      </trkpt>
      <trkpt lat="44.02903" lon="1.87049">
        <ele>284</ele>
        <time>2020-10-04T11:30:14.641Z</time>
      </trkpt>
      <trkpt lat="44.02904" lon="1.87049">
        <ele>284</ele>
        <time>2020-10-04T11:30:15.641Z</time>
      </trkpt>
      <trkpt lat="44.02905" lon="1.87048">
        <ele>284</ele>
        <time>2020-10-04T11:30:16.641Z</time>
      </trkpt>
      <trkpt lat="44.02906" lon="1.87048">
        <ele>284</ele>
        <time>2020-10-04T11:30:17.641Z</time>
      </trkpt>
      <trkpt lat="44.02907" lon="1.87047">
        <ele>284</ele>
        <time>2020-10-04T11:30:18.641Z</time>
      </trkpt>
      <trkpt lat="44.02908" lon="1.87046">
        <ele>284</ele>
        <time>2020-10-04T11:30:19.641Z</time>
      </trkpt>
      <trkpt lat="44.02909" lon="1.87045">
        <ele>284</ele>
        <time>2020-10-04T11:30:20.641Z</time>
      </trkpt>
      <trkpt lat="44.0291" lon="1.87044">
        <ele>284</ele>
        <time>2020-10-04T11:30:21.641Z</time>
      </trkpt>
      <trkpt lat="44.02911" lon="1.87044">
        <ele>284</ele>
        <time>2020-10-04T11:30:22.641Z</time>
      </trkpt>
      <trkpt lat="44.02911" lon="1.87043">
        <ele>284</ele>
        <time>2020-10-04T11:30:23.641Z</time>
      </trkpt>
      <trkpt lat="44.02912" lon="1.87042">
        <ele>285</ele>
        <time>2020-10-04T11:30:24.641Z</time>
      </trkpt>
      <trkpt lat="44.02913" lon="1.87042">
        <ele>285</ele>
        <time>2020-10-04T11:30:25.641Z</time>
      </trkpt>
      <trkpt lat="44.02915" lon="1.87041">
        <ele>285</ele>
        <time>2020-10-04T11:30:26.641Z</time>
      </trkpt>
      <trkpt lat="44.02916" lon="1.8704">
        <ele>285</ele>
        <time>2020-10-04T11:30:27.641Z</time>
      </trkpt>
      <trkpt lat="44.02917" lon="1.8704">
        <ele>285</ele>
        <time>2020-10-04T11:30:28.641Z</time>
      </trkpt>
      <trkpt lat="44.02918" lon="1.8704">
        <ele>285</ele>
        <time>2020-10-04T11:30:29.641Z</time>
      </trkpt>
      <trkpt lat="44.02919" lon="1.87039">
        <ele>285</ele>
        <time>2020-10-04T11:30:30.641Z</time>
      </trkpt>
      <trkpt lat="44.0292" lon="1.87039">
        <ele>285</ele>
        <time>2020-10-04T11:30:31.641Z</time>
      </trkpt>
      <trkpt lat="44.02921" lon="1.87038">
        <ele>285</ele>
        <time>2020-10-04T11:30:32.641Z</time>
      </trkpt>
      <trkpt lat="44.02922" lon="1.87038">
        <ele>285</ele>
        <time>2020-10-04T11:30:33.641Z</time>
      </trkpt>
      <trkpt lat="44.02923" lon="1.87037">
        <ele>285</ele>
        <time>2020-10-04T11:30:34.641Z</time>
      </trkpt>
      <trkpt lat="44.02924" lon="1.87037">
        <ele>285</ele>
        <time>2020-10-04T11:30:35.641Z</time>
      </trkpt>
      <trkpt lat="44.02924" lon="1.87036">
        <ele>285</ele>
        <time>2020-10-04T11:30:36.641Z</time>
      </trkpt>
      <trkpt lat="44.02925" lon="1.87036">
        <ele>285</ele>
        <time>2020-10-04T11:30:37.641Z</time>
      </trkpt>
      <trkpt lat="44.02926" lon="1.87035">
        <ele>285</ele>
        <time>2020-10-04T11:30:38.641Z</time>
      </trkpt>
      <trkpt lat="44.02927" lon="1.87035">
        <ele>285</ele>
        <time>2020-10-04T11:30:39.641Z</time>
      </trkpt>
      <trkpt lat="44.02927" lon="1.87034">
        <ele>285</ele>
        <time>2020-10-04T11:30:40.641Z</time>
      </trkpt>
      <trkpt lat="44.02928" lon="1.87033">
        <ele>286</ele>
        <time>2020-10-04T11:30:41.641Z</time>
      </trkpt>
      <trkpt lat="44.02929" lon="1.87033">
        <ele>285</ele>
        <time>2020-10-04T11:30:42.641Z</time>
      </trkpt>
      <trkpt lat="44.0293" lon="1.87032">
        <ele>285</ele>
        <time>2020-10-04T11:30:43.641Z</time>
      </trkpt>
      <trkpt lat="44.02931" lon="1.87032">
        <ele>285</ele>
        <time>2020-10-04T11:30:44.641Z</time>
      </trkpt>
      <trkpt lat="44.02933" lon="1.87032">
        <ele>285</ele>
        <time>2020-10-04T11:30:45.641Z</time>
      </trkpt>
      <trkpt lat="44.02934" lon="1.87032">
        <ele>285</ele>
        <time>2020-10-04T11:30:46.641Z</time>
      </trkpt>
      <trkpt lat="44.02935" lon="1.87032">
        <ele>286</ele>
        <time>2020-10-04T11:30:47.641Z</time>
      </trkpt>
      <trkpt lat="44.02936" lon="1.87032">
        <ele>286</ele>
        <time>2020-10-04T11:30:48.641Z</time>
      </trkpt>
      <trkpt lat="44.02938" lon="1.87032">
        <ele>286</ele>
        <time>2020-10-04T11:30:49.641Z</time>
      </trkpt>
      <trkpt lat="44.02939" lon="1.87032">
        <ele>286</ele>
        <time>2020-10-04T11:30:50.641Z</time>
      </trkpt>
      <trkpt lat="44.0294" lon="1.87031">
        <ele>286</ele>
        <time>2020-10-04T11:30:51.641Z</time>
      </trkpt>
      <trkpt lat="44.02941" lon="1.87031">
        <ele>286</ele>
        <time>2020-10-04T11:30:52.641Z</time>
      </trkpt>
      <trkpt lat="44.02942" lon="1.87031">
        <ele>286</ele>
        <time>2020-10-04T11:30:53.641Z</time>
      </trkpt>
      <trkpt lat="44.02943" lon="1.87031">
        <ele>286</ele>
        <time>2020-10-04T11:30:54.641Z</time>
      </trkpt>
      <trkpt lat="44.02944" lon="1.87031">
        <ele>286</ele>
        <time>2020-10-04T11:30:55.641Z</time>
      </trkpt>
      <trkpt lat="44.02945" lon="1.87031">
        <ele>286</ele>
        <time>2020-10-04T11:30:56.641Z</time>
      </trkpt>
      <trkpt lat="44.02946" lon="1.87031">
        <ele>286</ele>
        <time>2020-10-04T11:30:57.641Z</time>
      </trkpt>
      <trkpt lat="44.02947" lon="1.87031">
        <ele>286</ele>
        <time>2020-10-04T11:30:58.641Z</time>
      </trkpt>
      <trkpt lat="44.02948" lon="1.87031">
        <ele>286</ele>
        <time>2020-10-04T11:30:59.641Z</time>
      </trkpt>
      <trkpt lat="44.0295" lon="1.87031">
        <ele>286</ele>
        <time>2020-10-04T11:31:00.641Z</time>
      </trkpt>
      <trkpt lat="44.02951" lon="1.87031">
        <ele>286</ele>
        <time>2020-10-04T11:31:01.641Z</time>
      </trkpt>
      <trkpt lat="44.02952" lon="1.87032">
        <ele>286</ele>
        <time>2020-10-04T11:31:02.641Z</time>
      </trkpt>
      <trkpt lat="44.02953" lon="1.87031">
        <ele>286</ele>
        <time>2020-10-04T11:31:03.641Z</time>
      </trkpt>
      <trkpt lat="44.02954" lon="1.87031">
        <ele>286</ele>
        <time>2020-10-04T11:31:04.641Z</time>
      </trkpt>
      <trkpt lat="44.02956" lon="1.87031">
        <ele>286</ele>
        <time>2020-10-04T11:31:05.641Z</time>
      </trkpt>
      <trkpt lat="44.02957" lon="1.87032">
        <ele>286</ele>
        <time>2020-10-04T11:31:06.641Z</time>
      </trkpt>
      <trkpt lat="44.02958" lon="1.87032">
        <ele>286</ele>
        <time>2020-10-04T11:31:07.641Z</time>
      </trkpt>
      <trkpt lat="44.02959" lon="1.87032">
        <ele>286</ele>
        <time>2020-10-04T11:31:08.641Z</time>
      </trkpt>
      <trkpt lat="44.0296" lon="1.87032">
        <ele>286</ele>
        <time>2020-10-04T11:31:09.641Z</time>
      </trkpt>
      <trkpt lat="44.02961" lon="1.87032">
        <ele>286</ele>
        <time>2020-10-04T11:31:10.641Z</time>
      </trkpt>
      <trkpt lat="44.02962" lon="1.87033">
        <ele>286</ele>
        <time>2020-10-04T11:31:11.641Z</time>
      </trkpt>
      <trkpt lat="44.02964" lon="1.87033">
        <ele>286</ele>
        <time>2020-10-04T11:31:12.641Z</time>
      </trkpt>
      <trkpt lat="44.02965" lon="1.87033">
        <ele>286</ele>
        <time>2020-10-04T11:31:13.641Z</time>
      </trkpt>
      <trkpt lat="44.02966" lon="1.87033">
        <ele>285</ele>
        <time>2020-10-04T11:31:14.641Z</time>
      </trkpt>
      <trkpt lat="44.02967" lon="1.87034">
        <ele>285</ele>
        <time>2020-10-04T11:31:15.641Z</time>
      </trkpt>
      <trkpt lat="44.02968" lon="1.87034">
        <ele>285</ele>
        <time>2020-10-04T11:31:16.641Z</time>
      </trkpt>
      <trkpt lat="44.02969" lon="1.87034">
        <ele>285</ele>
        <time>2020-10-04T11:31:17.641Z</time>
      </trkpt>
      <trkpt lat="44.0297" lon="1.87034">
        <ele>285</ele>
        <time>2020-10-04T11:31:18.641Z</time>
      </trkpt>
      <trkpt lat="44.02971" lon="1.87034">
        <ele>285</ele>
        <time>2020-10-04T11:31:19.641Z</time>
      </trkpt>
      <trkpt lat="44.02972" lon="1.87034">
        <ele>285</ele>
        <time>2020-10-04T11:31:20.641Z</time>
      </trkpt>
      <trkpt lat="44.02974" lon="1.87034">
        <ele>285</ele>
        <time>2020-10-04T11:31:21.641Z</time>
      </trkpt>
      <trkpt lat="44.02975" lon="1.87035">
        <ele>285</ele>
        <time>2020-10-04T11:31:22.641Z</time>
      </trkpt>
      <trkpt lat="44.02976" lon="1.87035">
        <ele>285</ele>
        <time>2020-10-04T11:31:23.641Z</time>
      </trkpt>
      <trkpt lat="44.02976" lon="1.87035">
        <ele>285</ele>
        <time>2020-10-04T11:31:24.641Z</time>
      </trkpt>
      <trkpt lat="44.02976" lon="1.87035">
        <ele>285</ele>
        <time>2020-10-04T11:31:25.641Z</time>
      </trkpt>
      <trkpt lat="44.02977" lon="1.87035">
        <ele>284</ele>
        <time>2020-10-04T11:31:26.641Z</time>
      </trkpt>
      <trkpt lat="44.02978" lon="1.87035">
        <ele>284</ele>
        <time>2020-10-04T11:31:27.641Z</time>
      </trkpt>
      <trkpt lat="44.02979" lon="1.87035">
        <ele>284</ele>
        <time>2020-10-04T11:31:28.641Z</time>
      </trkpt>
      <trkpt lat="44.0298" lon="1.87035">
        <ele>284</ele>
        <time>2020-10-04T11:31:29.641Z</time>
      </trkpt>
      <trkpt lat="44.02981" lon="1.87036">
        <ele>284</ele>
        <time>2020-10-04T11:31:30.641Z</time>
      </trkpt>
      <trkpt lat="44.02982" lon="1.87036">
        <ele>284</ele>
        <time>2020-10-04T11:31:31.641Z</time>
      </trkpt>
      <trkpt lat="44.02983" lon="1.87036">
        <ele>284</ele>
        <time>2020-10-04T11:31:32.641Z</time>
      </trkpt>
      <trkpt lat="44.02984" lon="1.87036">
        <ele>284</ele>
        <time>2020-10-04T11:31:33.641Z</time>
      </trkpt>
      <trkpt lat="44.02985" lon="1.87036">
        <ele>284</ele>
        <time>2020-10-04T11:31:34.641Z</time>
      </trkpt>
      <trkpt lat="44.02986" lon="1.87036">
        <ele>284</ele>
        <time>2020-10-04T11:31:35.641Z</time>
      </trkpt>
      <trkpt lat="44.02987" lon="1.87036">
        <ele>284</ele>
        <time>2020-10-04T11:31:36.641Z</time>
      </trkpt>
      <trkpt lat="44.02988" lon="1.87036">
        <ele>284</ele>
        <time>2020-10-04T11:31:37.641Z</time>
      </trkpt>
      <trkpt lat="44.02989" lon="1.87036">
        <ele>284</ele>
        <time>2020-10-04T11:31:38.641Z</time>
      </trkpt>
      <trkpt lat="44.02991" lon="1.87036">
        <ele>284</ele>
        <time>2020-10-04T11:31:39.641Z</time>
      </trkpt>
      <trkpt lat="44.02992" lon="1.87036">
        <ele>284</ele>
        <time>2020-10-04T11:31:40.641Z</time>
      </trkpt>
      <trkpt lat="44.02993" lon="1.87036">
        <ele>284</ele>
        <time>2020-10-04T11:31:41.641Z</time>
      </trkpt>
      <trkpt lat="44.02994" lon="1.87037">
        <ele>284</ele>
        <time>2020-10-04T11:31:42.641Z</time>
      </trkpt>
      <trkpt lat="44.02995" lon="1.87037">
        <ele>284</ele>
        <time>2020-10-04T11:31:43.641Z</time>
      </trkpt>
      <trkpt lat="44.02997" lon="1.87037">
        <ele>284</ele>
        <time>2020-10-04T11:31:44.641Z</time>
      </trkpt>
      <trkpt lat="44.02998" lon="1.87037">
        <ele>284</ele>
        <time>2020-10-04T11:31:45.641Z</time>
      </trkpt>
      <trkpt lat="44.02999" lon="1.87037">
        <ele>284</ele>
        <time>2020-10-04T11:31:46.641Z</time>
      </trkpt>
      <trkpt lat="44.03" lon="1.87038">
        <ele>285</ele>
        <time>2020-10-04T11:31:47.641Z</time>
      </trkpt>
      <trkpt lat="44.03001" lon="1.87038">
        <ele>285</ele>
        <time>2020-10-04T11:31:48.641Z</time>
      </trkpt>
      <trkpt lat="44.03002" lon="1.87037">
        <ele>284</ele>
        <time>2020-10-04T11:31:49.641Z</time>
      </trkpt>
      <trkpt lat="44.03003" lon="1.87037">
        <ele>284</ele>
        <time>2020-10-04T11:31:50.641Z</time>
      </trkpt>
      <trkpt lat="44.03005" lon="1.87037">
        <ele>284</ele>
        <time>2020-10-04T11:31:51.641Z</time>
      </trkpt>
      <trkpt lat="44.03006" lon="1.87037">
        <ele>284</ele>
        <time>2020-10-04T11:31:52.641Z</time>
      </trkpt>
      <trkpt lat="44.03007" lon="1.87037">
        <ele>284</ele>
        <time>2020-10-04T11:31:53.641Z</time>
      </trkpt>
      <trkpt lat="44.03009" lon="1.87037">
        <ele>284</ele>
        <time>2020-10-04T11:31:54.641Z</time>
      </trkpt>
      <trkpt lat="44.0301" lon="1.87038">
        <ele>284</ele>
        <time>2020-10-04T11:31:55.641Z</time>
      </trkpt>
      <trkpt lat="44.03011" lon="1.87038">
        <ele>284</ele>
        <time>2020-10-04T11:31:56.641Z</time>
      </trkpt>
      <trkpt lat="44.03012" lon="1.87039">
        <ele>284</ele>
        <time>2020-10-04T11:31:57.641Z</time>
      </trkpt>
      <trkpt lat="44.03014" lon="1.87039">
        <ele>284</ele>
        <time>2020-10-04T11:32:14.646Z</time>
      </trkpt>
      <trkpt lat="44.03015" lon="1.87039">
        <ele>284</ele>
        <time>2020-10-04T11:32:15.646Z</time>
      </trkpt>
      <trkpt lat="44.03016" lon="1.87039">
        <ele>284</ele>
        <time>2020-10-04T11:32:16.646Z</time>
      </trkpt>
      <trkpt lat="44.03017" lon="1.8704">
        <ele>284</ele>
        <time>2020-10-04T11:32:17.646Z</time>
      </trkpt>
      <trkpt lat="44.03018" lon="1.8704">
        <ele>284</ele>
        <time>2020-10-04T11:32:18.646Z</time>
      </trkpt>
      <trkpt lat="44.03019" lon="1.8704">
        <ele>284</ele>
        <time>2020-10-04T11:32:19.646Z</time>
      </trkpt>
      <trkpt lat="44.03021" lon="1.8704">
        <ele>284</ele>
        <time>2020-10-04T11:33:18.662Z</time>
      </trkpt>
      <trkpt lat="44.03022" lon="1.8704">
        <ele>284</ele>
        <time>2020-10-04T11:33:19.662Z</time>
      </trkpt>
      <trkpt lat="44.03023" lon="1.8704">
        <ele>284</ele>
        <time>2020-10-04T11:33:20.662Z</time>
      </trkpt>
      <trkpt lat="44.03024" lon="1.8704">
        <ele>283</ele>
        <time>2020-10-04T11:33:21.662Z</time>
      </trkpt>
      <trkpt lat="44.03024" lon="1.8704">
        <ele>283</ele>
        <time>2020-10-04T11:33:22.662Z</time>
      </trkpt>
      <trkpt lat="44.03025" lon="1.8704">
        <ele>283</ele>
        <time>2020-10-04T11:33:23.662Z</time>
      </trkpt>
      <trkpt lat="44.03026" lon="1.8704">
        <ele>283</ele>
        <time>2020-10-04T11:33:24.662Z</time>
      </trkpt>
      <trkpt lat="44.03027" lon="1.8704">
        <ele>283</ele>
        <time>2020-10-04T11:33:25.662Z</time>
      </trkpt>
      <trkpt lat="44.03028" lon="1.8704">
        <ele>283</ele>
        <time>2020-10-04T11:33:26.662Z</time>
      </trkpt>
      <trkpt lat="44.03029" lon="1.8704">
        <ele>283</ele>
        <time>2020-10-04T11:33:27.662Z</time>
      </trkpt>
      <trkpt lat="44.0303" lon="1.8704">
        <ele>283</ele>
        <time>2020-10-04T11:33:28.662Z</time>
      </trkpt>
      <trkpt lat="44.03032" lon="1.8704">
        <ele>283</ele>
        <time>2020-10-04T11:33:29.662Z</time>
      </trkpt>
      <trkpt lat="44.03033" lon="1.8704">
        <ele>283</ele>
        <time>2020-10-04T11:33:30.662Z</time>
      </trkpt>
      <trkpt lat="44.03034" lon="1.8704">
        <ele>283</ele>
        <time>2020-10-04T11:33:31.662Z</time>
      </trkpt>
      <trkpt lat="44.03035" lon="1.8704">
        <ele>283</ele>
        <time>2020-10-04T11:33:32.662Z</time>
      </trkpt>
      <trkpt lat="44.03037" lon="1.87041">
        <ele>283</ele>
        <time>2020-10-04T11:33:33.662Z</time>
      </trkpt>
      <trkpt lat="44.03038" lon="1.87041">
        <ele>284</ele>
        <time>2020-10-04T11:33:34.662Z</time>
      </trkpt>
      <trkpt lat="44.03039" lon="1.87041">
        <ele>284</ele>
        <time>2020-10-04T11:33:35.662Z</time>
      </trkpt>
      <trkpt lat="44.0304" lon="1.87041">
        <ele>284</ele>
        <time>2020-10-04T11:33:36.662Z</time>
      </trkpt>
      <trkpt lat="44.03042" lon="1.87041">
        <ele>284</ele>
        <time>2020-10-04T11:33:37.662Z</time>
      </trkpt>
      <trkpt lat="44.03043" lon="1.87041">
        <ele>284</ele>
        <time>2020-10-04T11:33:38.662Z</time>
      </trkpt>
      <trkpt lat="44.03044" lon="1.87041">
        <ele>284</ele>
        <time>2020-10-04T11:33:39.662Z</time>
      </trkpt>
      <trkpt lat="44.03045" lon="1.87041">
        <ele>284</ele>
        <time>2020-10-04T11:33:40.662Z</time>
      </trkpt>
      <trkpt lat="44.03047" lon="1.8704">
        <ele>284</ele>
        <time>2020-10-04T11:33:41.662Z</time>
      </trkpt>
      <trkpt lat="44.03048" lon="1.8704">
        <ele>284</ele>
        <time>2020-10-04T11:33:42.662Z</time>
      </trkpt>
      <trkpt lat="44.03049" lon="1.8704">
        <ele>284</ele>
        <time>2020-10-04T11:33:43.662Z</time>
      </trkpt>
      <trkpt lat="44.03051" lon="1.8704">
        <ele>284</ele>
        <time>2020-10-04T11:33:44.662Z</time>
      </trkpt>
      <trkpt lat="44.03052" lon="1.8704">
        <ele>284</ele>
        <time>2020-10-04T11:33:45.662Z</time>
      </trkpt>
      <trkpt lat="44.03053" lon="1.8704">
        <ele>284</ele>
        <time>2020-10-04T11:33:46.662Z</time>
      </trkpt>
      <trkpt lat="44.03054" lon="1.8704">
        <ele>284</ele>
        <time>2020-10-04T11:33:47.662Z</time>
      </trkpt>
      <trkpt lat="44.03055" lon="1.87039">
        <ele>283</ele>
        <time>2020-10-04T11:33:48.662Z</time>
      </trkpt>
      <trkpt lat="44.03056" lon="1.87039">
        <ele>283</ele>
        <time>2020-10-04T11:33:49.662Z</time>
      </trkpt>
      <trkpt lat="44.03057" lon="1.87039">
        <ele>283</ele>
        <time>2020-10-04T11:33:50.662Z</time>
      </trkpt>
      <trkpt lat="44.03057" lon="1.87039">
        <ele>283</ele>
        <time>2020-10-04T11:33:51.662Z</time>
      </trkpt>
      <trkpt lat="44.03058" lon="1.87038">
        <ele>283</ele>
        <time>2020-10-04T11:33:52.662Z</time>
      </trkpt>
      <trkpt lat="44.03059" lon="1.87038">
        <ele>283</ele>
        <time>2020-10-04T11:33:53.662Z</time>
      </trkpt>
      <trkpt lat="44.0306" lon="1.87038">
        <ele>283</ele>
        <time>2020-10-04T11:33:54.662Z</time>
      </trkpt>
      <trkpt lat="44.03061" lon="1.87037">
        <ele>283</ele>
        <time>2020-10-04T11:33:55.662Z</time>
      </trkpt>
      <trkpt lat="44.03061" lon="1.87037">
        <ele>283</ele>
        <time>2020-10-04T11:33:56.662Z</time>
      </trkpt>
      <trkpt lat="44.03062" lon="1.87037">
        <ele>283</ele>
        <time>2020-10-04T11:33:57.662Z</time>
      </trkpt>
      <trkpt lat="44.03063" lon="1.87036">
        <ele>283</ele>
        <time>2020-10-04T11:33:58.662Z</time>
      </trkpt>
      <trkpt lat="44.03063" lon="1.87036">
        <ele>283</ele>
        <time>2020-10-04T11:33:59.662Z</time>
      </trkpt>
      <trkpt lat="44.03064" lon="1.87035">
        <ele>283</ele>
        <time>2020-10-04T11:34:00.662Z</time>
      </trkpt>
      <trkpt lat="44.03065" lon="1.87035">
        <ele>283</ele>
        <time>2020-10-04T11:34:01.662Z</time>
      </trkpt>
      <trkpt lat="44.03066" lon="1.87035">
        <ele>283</ele>
        <time>2020-10-04T11:34:02.662Z</time>
      </trkpt>
      <trkpt lat="44.03067" lon="1.87034">
        <ele>283</ele>
        <time>2020-10-04T11:34:03.662Z</time>
      </trkpt>
      <trkpt lat="44.03068" lon="1.87034">
        <ele>283</ele>
        <time>2020-10-04T11:34:04.662Z</time>
      </trkpt>
      <trkpt lat="44.03069" lon="1.87034">
        <ele>283</ele>
        <time>2020-10-04T11:34:05.662Z</time>
      </trkpt>
      <trkpt lat="44.03071" lon="1.87033">
        <ele>283</ele>
        <time>2020-10-04T11:34:06.662Z</time>
      </trkpt>
      <trkpt lat="44.03072" lon="1.87033">
        <ele>283</ele>
        <time>2020-10-04T11:34:07.662Z</time>
      </trkpt>
      <trkpt lat="44.03073" lon="1.87032">
        <ele>283</ele>
        <time>2020-10-04T11:34:08.662Z</time>
      </trkpt>
      <trkpt lat="44.03074" lon="1.87032">
        <ele>284</ele>
        <time>2020-10-04T11:34:09.662Z</time>
      </trkpt>
      <trkpt lat="44.03075" lon="1.87031">
        <ele>284</ele>
        <time>2020-10-04T11:34:10.662Z</time>
      </trkpt>
      <trkpt lat="44.03076" lon="1.87031">
        <ele>284</ele>
        <time>2020-10-04T11:34:11.662Z</time>
      </trkpt>
      <trkpt lat="44.03076" lon="1.87031">
        <ele>284</ele>
        <time>2020-10-04T11:34:12.662Z</time>
      </trkpt>
      <trkpt lat="44.03077" lon="1.87031">
        <ele>284</ele>
        <time>2020-10-04T11:34:13.662Z</time>
      </trkpt>
      <trkpt lat="44.03078" lon="1.87031">
        <ele>284</ele>
        <time>2020-10-04T11:34:14.662Z</time>
      </trkpt>
      <trkpt lat="44.03079" lon="1.87031">
        <ele>284</ele>
        <time>2020-10-04T11:34:15.662Z</time>
      </trkpt>
      <trkpt lat="44.0308" lon="1.87031">
        <ele>284</ele>
        <time>2020-10-04T11:34:16.662Z</time>
      </trkpt>
      <trkpt lat="44.03081" lon="1.87031">
        <ele>284</ele>
        <time>2020-10-04T11:34:17.662Z</time>
      </trkpt>
      <trkpt lat="44.03083" lon="1.87031">
        <ele>284</ele>
        <time>2020-10-04T11:34:25.664Z</time>
      </trkpt>
      <trkpt lat="44.03084" lon="1.87031">
        <ele>284</ele>
        <time>2020-10-04T11:34:26.664Z</time>
      </trkpt>
      <trkpt lat="44.03085" lon="1.87031">
        <ele>284</ele>
        <time>2020-10-04T11:34:27.664Z</time>
      </trkpt>
      <trkpt lat="44.03087" lon="1.87031">
        <ele>284</ele>
        <time>2020-10-04T11:34:28.664Z</time>
      </trkpt>
      <trkpt lat="44.03087" lon="1.87031">
        <ele>284</ele>
        <time>2020-10-04T11:34:29.664Z</time>
      </trkpt>
      <trkpt lat="44.03088" lon="1.87031">
        <ele>284</ele>
        <time>2020-10-04T11:34:30.664Z</time>
      </trkpt>
      <trkpt lat="44.03089" lon="1.87032">
        <ele>284</ele>
        <time>2020-10-04T11:34:31.664Z</time>
      </trkpt>
      <trkpt lat="44.0309" lon="1.87032">
        <ele>284</ele>
        <time>2020-10-04T11:34:32.664Z</time>
      </trkpt>
      <trkpt lat="44.03092" lon="1.87032">
        <ele>284</ele>
        <time>2020-10-04T11:34:33.664Z</time>
      </trkpt>
      <trkpt lat="44.03093" lon="1.87033">
        <ele>284</ele>
        <time>2020-10-04T11:34:34.664Z</time>
      </trkpt>
      <trkpt lat="44.03094" lon="1.87033">
        <ele>284</ele>
        <time>2020-10-04T11:34:35.664Z</time>
      </trkpt>
      <trkpt lat="44.03096" lon="1.87033">
        <ele>284</ele>
        <time>2020-10-04T11:34:36.664Z</time>
      </trkpt>
      <trkpt lat="44.03097" lon="1.87034">
        <ele>284</ele>
        <time>2020-10-04T11:34:37.664Z</time>
      </trkpt>
      <trkpt lat="44.03098" lon="1.87034">
        <ele>284</ele>
        <time>2020-10-04T11:34:38.664Z</time>
      </trkpt>
      <trkpt lat="44.03099" lon="1.87034">
        <ele>284</ele>
        <time>2020-10-04T11:34:39.664Z</time>
      </trkpt>
      <trkpt lat="44.03101" lon="1.87035">
        <ele>284</ele>
        <time>2020-10-04T11:34:40.664Z</time>
      </trkpt>
      <trkpt lat="44.03102" lon="1.87036">
        <ele>284</ele>
        <time>2020-10-04T11:34:41.664Z</time>
      </trkpt>
      <trkpt lat="44.03103" lon="1.87036">
        <ele>284</ele>
        <time>2020-10-04T11:34:42.664Z</time>
      </trkpt>
      <trkpt lat="44.03104" lon="1.87036">
        <ele>284</ele>
        <time>2020-10-04T11:34:43.664Z</time>
      </trkpt>
      <trkpt lat="44.03105" lon="1.87037">
        <ele>284</ele>
        <time>2020-10-04T11:34:44.664Z</time>
      </trkpt>
      <trkpt lat="44.03106" lon="1.87037">
        <ele>284</ele>
        <time>2020-10-04T11:34:45.664Z</time>
      </trkpt>
      <trkpt lat="44.03108" lon="1.87038">
        <ele>284</ele>
        <time>2020-10-04T11:34:46.664Z</time>
      </trkpt>
      <trkpt lat="44.03109" lon="1.87038">
        <ele>284</ele>
        <time>2020-10-04T11:34:47.664Z</time>
      </trkpt>
      <trkpt lat="44.03111" lon="1.87038">
        <ele>284</ele>
        <time>2020-10-04T11:34:48.664Z</time>
      </trkpt>
      <trkpt lat="44.03112" lon="1.87039">
        <ele>284</ele>
        <time>2020-10-04T11:34:49.664Z</time>
      </trkpt>
      <trkpt lat="44.03113" lon="1.87039">
        <ele>284</ele>
        <time>2020-10-04T11:34:50.664Z</time>
      </trkpt>
      <trkpt lat="44.03114" lon="1.8704">
        <ele>284</ele>
        <time>2020-10-04T11:34:51.664Z</time>
      </trkpt>
      <trkpt lat="44.03115" lon="1.8704">
        <ele>284</ele>
        <time>2020-10-04T11:34:52.664Z</time>
      </trkpt>
      <trkpt lat="44.03117" lon="1.8704">
        <ele>284</ele>
        <time>2020-10-04T11:34:53.664Z</time>
      </trkpt>
      <trkpt lat="44.03118" lon="1.87041">
        <ele>284</ele>
        <time>2020-10-04T11:34:54.664Z</time>
      </trkpt>
      <trkpt lat="44.03119" lon="1.87042">
        <ele>284</ele>
        <time>2020-10-04T11:34:55.664Z</time>
      </trkpt>
      <trkpt lat="44.0312" lon="1.87042">
        <ele>284</ele>
        <time>2020-10-04T11:34:56.664Z</time>
      </trkpt>
      <trkpt lat="44.03121" lon="1.87043">
        <ele>284</ele>
        <time>2020-10-04T11:34:57.664Z</time>
      </trkpt>
      <trkpt lat="44.03123" lon="1.87043">
        <ele>284</ele>
        <time>2020-10-04T11:34:58.664Z</time>
      </trkpt>
      <trkpt lat="44.03124" lon="1.87043">
        <ele>284</ele>
        <time>2020-10-04T11:34:59.664Z</time>
      </trkpt>
      <trkpt lat="44.03126" lon="1.87044">
        <ele>284</ele>
        <time>2020-10-04T11:35:00.664Z</time>
      </trkpt>
      <trkpt lat="44.03127" lon="1.87045">
        <ele>283</ele>
        <time>2020-10-04T11:35:01.664Z</time>
      </trkpt>
      <trkpt lat="44.03128" lon="1.87046">
        <ele>283</ele>
        <time>2020-10-04T11:35:02.664Z</time>
      </trkpt>
      <trkpt lat="44.03129" lon="1.87046">
        <ele>283</ele>
        <time>2020-10-04T11:35:03.664Z</time>
      </trkpt>
      <trkpt lat="44.03131" lon="1.87047">
        <ele>283</ele>
        <time>2020-10-04T11:35:04.664Z</time>
      </trkpt>
      <trkpt lat="44.03132" lon="1.87048">
        <ele>283</ele>
        <time>2020-10-04T11:35:05.664Z</time>
      </trkpt>
      <trkpt lat="44.03133" lon="1.87048">
        <ele>283</ele>
        <time>2020-10-04T11:35:06.664Z</time>
      </trkpt>
      <trkpt lat="44.03134" lon="1.87049">
        <ele>283</ele>
        <time>2020-10-04T11:35:07.664Z</time>
      </trkpt>
      <trkpt lat="44.03135" lon="1.8705">
        <ele>283</ele>
        <time>2020-10-04T11:35:08.664Z</time>
      </trkpt>
      <trkpt lat="44.03136" lon="1.8705">
        <ele>283</ele>
        <time>2020-10-04T11:35:09.664Z</time>
      </trkpt>
      <trkpt lat="44.03137" lon="1.87051">
        <ele>283</ele>
        <time>2020-10-04T11:35:10.664Z</time>
      </trkpt>
      <trkpt lat="44.03138" lon="1.87052">
        <ele>283</ele>
        <time>2020-10-04T11:35:11.664Z</time>
      </trkpt>
      <trkpt lat="44.03139" lon="1.87052">
        <ele>283</ele>
        <time>2020-10-04T11:35:12.664Z</time>
      </trkpt>
      <trkpt lat="44.03139" lon="1.87053">
        <ele>283</ele>
        <time>2020-10-04T11:35:13.664Z</time>
      </trkpt>
      <trkpt lat="44.0314" lon="1.87053">
        <ele>283</ele>
        <time>2020-10-04T11:35:14.664Z</time>
      </trkpt>
      <trkpt lat="44.03141" lon="1.87054">
        <ele>283</ele>
        <time>2020-10-04T11:35:15.664Z</time>
      </trkpt>
      <trkpt lat="44.03142" lon="1.87055">
        <ele>283</ele>
        <time>2020-10-04T11:35:16.664Z</time>
      </trkpt>
      <trkpt lat="44.03143" lon="1.87055">
        <ele>283</ele>
        <time>2020-10-04T11:35:17.664Z</time>
      </trkpt>
      <trkpt lat="44.03144" lon="1.87056">
        <ele>283</ele>
        <time>2020-10-04T11:35:18.664Z</time>
      </trkpt>
      <trkpt lat="44.03145" lon="1.87057">
        <ele>283</ele>
        <time>2020-10-04T11:35:19.664Z</time>
      </trkpt>
      <trkpt lat="44.03146" lon="1.87058">
        <ele>283</ele>
        <time>2020-10-04T11:35:20.664Z</time>
      </trkpt>
      <trkpt lat="44.03147" lon="1.87058">
        <ele>283</ele>
        <time>2020-10-04T11:35:21.664Z</time>
      </trkpt>
      <trkpt lat="44.03148" lon="1.87059">
        <ele>283</ele>
        <time>2020-10-04T11:35:22.664Z</time>
      </trkpt>
      <trkpt lat="44.03149" lon="1.87059">
        <ele>283</ele>
        <time>2020-10-04T11:35:23.664Z</time>
      </trkpt>
      <trkpt lat="44.03151" lon="1.8706">
        <ele>283</ele>
        <time>2020-10-04T11:35:24.664Z</time>
      </trkpt>
      <trkpt lat="44.03152" lon="1.8706">
        <ele>283</ele>
        <time>2020-10-04T11:35:25.664Z</time>
      </trkpt>
      <trkpt lat="44.03153" lon="1.87061">
        <ele>283</ele>
        <time>2020-10-04T11:35:26.664Z</time>
      </trkpt>
      <trkpt lat="44.03154" lon="1.87061">
        <ele>283</ele>
        <time>2020-10-04T11:35:27.664Z</time>
      </trkpt>
      <trkpt lat="44.03156" lon="1.87061">
        <ele>283</ele>
        <time>2020-10-04T11:35:28.664Z</time>
      </trkpt>
      <trkpt lat="44.03157" lon="1.87061">
        <ele>283</ele>
        <time>2020-10-04T11:35:29.664Z</time>
      </trkpt>
      <trkpt lat="44.03158" lon="1.8706">
        <ele>283</ele>
        <time>2020-10-04T11:35:30.664Z</time>
      </trkpt>
      <trkpt lat="44.03159" lon="1.8706">
        <ele>283</ele>
        <time>2020-10-04T11:35:31.664Z</time>
      </trkpt>
      <trkpt lat="44.0316" lon="1.87059">
        <ele>283</ele>
        <time>2020-10-04T11:35:32.664Z</time>
      </trkpt>
      <trkpt lat="44.03162" lon="1.87058">
        <ele>283</ele>
        <time>2020-10-04T11:35:33.664Z</time>
      </trkpt>
      <trkpt lat="44.03163" lon="1.87058">
        <ele>283</ele>
        <time>2020-10-04T11:35:34.664Z</time>
      </trkpt>
      <trkpt lat="44.03164" lon="1.87057">
        <ele>283</ele>
        <time>2020-10-04T11:35:35.664Z</time>
      </trkpt>
      <trkpt lat="44.03165" lon="1.87056">
        <ele>284</ele>
        <time>2020-10-04T11:35:36.664Z</time>
      </trkpt>
      <trkpt lat="44.03166" lon="1.87055">
        <ele>284</ele>
        <time>2020-10-04T11:35:37.664Z</time>
      </trkpt>
      <trkpt lat="44.03167" lon="1.87055">
        <ele>284</ele>
        <time>2020-10-04T11:35:38.664Z</time>
      </trkpt>
      <trkpt lat="44.03168" lon="1.87054">
        <ele>284</ele>
        <time>2020-10-04T11:35:39.664Z</time>
      </trkpt>
      <trkpt lat="44.03169" lon="1.87053">
        <ele>284</ele>
        <time>2020-10-04T11:35:40.664Z</time>
      </trkpt>
      <trkpt lat="44.0317" lon="1.87052">
        <ele>284</ele>
        <time>2020-10-04T11:35:41.664Z</time>
      </trkpt>
      <trkpt lat="44.0317" lon="1.87052">
        <ele>284</ele>
        <time>2020-10-04T11:35:42.664Z</time>
      </trkpt>
      <trkpt lat="44.03171" lon="1.87051">
        <ele>283</ele>
        <time>2020-10-04T11:35:43.664Z</time>
      </trkpt>
      <trkpt lat="44.03172" lon="1.87051">
        <ele>283</ele>
        <time>2020-10-04T11:35:44.664Z</time>
      </trkpt>
      <trkpt lat="44.03173" lon="1.87051">
        <ele>283</ele>
        <time>2020-10-04T11:35:45.664Z</time>
      </trkpt>
      <trkpt lat="44.03174" lon="1.8705">
        <ele>283</ele>
        <time>2020-10-04T11:35:46.664Z</time>
      </trkpt>
      <trkpt lat="44.03175" lon="1.8705">
        <ele>283</ele>
        <time>2020-10-04T11:35:47.664Z</time>
      </trkpt>
      <trkpt lat="44.03176" lon="1.87049">
        <ele>283</ele>
        <time>2020-10-04T11:35:48.664Z</time>
      </trkpt>
      <trkpt lat="44.03177" lon="1.87049">
        <ele>283</ele>
        <time>2020-10-04T11:35:49.664Z</time>
      </trkpt>
      <trkpt lat="44.03177" lon="1.87048">
        <ele>283</ele>
        <time>2020-10-04T11:35:50.664Z</time>
      </trkpt>
      <trkpt lat="44.03178" lon="1.87048">
        <ele>283</ele>
        <time>2020-10-04T11:35:51.664Z</time>
      </trkpt>
      <trkpt lat="44.03179" lon="1.87048">
        <ele>283</ele>
        <time>2020-10-04T11:35:52.664Z</time>
      </trkpt>
      <trkpt lat="44.0318" lon="1.87047">
        <ele>284</ele>
        <time>2020-10-04T11:35:53.664Z</time>
      </trkpt>
      <trkpt lat="44.03181" lon="1.87046">
        <ele>284</ele>
        <time>2020-10-04T11:35:54.664Z</time>
      </trkpt>
      <trkpt lat="44.03182" lon="1.87045">
        <ele>283</ele>
        <time>2020-10-04T11:35:55.664Z</time>
      </trkpt>
      <trkpt lat="44.03182" lon="1.87044">
        <ele>283</ele>
        <time>2020-10-04T11:35:56.664Z</time>
      </trkpt>
      <trkpt lat="44.03183" lon="1.87043">
        <ele>283</ele>
        <time>2020-10-04T11:35:57.664Z</time>
      </trkpt>
      <trkpt lat="44.03183" lon="1.87042">
        <ele>283</ele>
        <time>2020-10-04T11:35:58.664Z</time>
      </trkpt>
      <trkpt lat="44.03184" lon="1.87041">
        <ele>283</ele>
        <time>2020-10-04T11:35:59.664Z</time>
      </trkpt>
      <trkpt lat="44.03184" lon="1.8704">
        <ele>283</ele>
        <time>2020-10-04T11:36:00.664Z</time>
      </trkpt>
      <trkpt lat="44.03185" lon="1.87038">
        <ele>283</ele>
        <time>2020-10-04T11:36:01.664Z</time>
      </trkpt>
      <trkpt lat="44.03185" lon="1.87037">
        <ele>283</ele>
        <time>2020-10-04T11:36:02.664Z</time>
      </trkpt>
      <trkpt lat="44.03185" lon="1.87036">
        <ele>283</ele>
        <time>2020-10-04T11:36:03.664Z</time>
      </trkpt>
      <trkpt lat="44.03186" lon="1.87035">
        <ele>283</ele>
        <time>2020-10-04T11:36:08.646Z</time>
      </trkpt>
      <trkpt lat="44.03186" lon="1.87033">
        <ele>283</ele>
        <time>2020-10-04T11:36:09.646Z</time>
      </trkpt>
      <trkpt lat="44.03187" lon="1.87032">
        <ele>283</ele>
        <time>2020-10-04T11:36:10.646Z</time>
      </trkpt>
      <trkpt lat="44.03187" lon="1.8703">
        <ele>283</ele>
        <time>2020-10-04T11:36:11.646Z</time>
      </trkpt>
      <trkpt lat="44.03187" lon="1.87029">
        <ele>282</ele>
        <time>2020-10-04T11:36:12.646Z</time>
      </trkpt>
      <trkpt lat="44.03188" lon="1.87027">
        <ele>282</ele>
        <time>2020-10-04T11:36:13.646Z</time>
      </trkpt>
      <trkpt lat="44.03188" lon="1.87026">
        <ele>282</ele>
        <time>2020-10-04T11:36:14.646Z</time>
      </trkpt>
      <trkpt lat="44.03189" lon="1.87024">
        <ele>282</ele>
        <time>2020-10-04T11:36:15.646Z</time>
      </trkpt>
      <trkpt lat="44.03189" lon="1.87023">
        <ele>282</ele>
        <time>2020-10-04T11:36:16.646Z</time>
      </trkpt>
      <trkpt lat="44.03189" lon="1.87022">
        <ele>282</ele>
        <time>2020-10-04T11:36:17.646Z</time>
      </trkpt>
      <trkpt lat="44.0319" lon="1.87021">
        <ele>282</ele>
        <time>2020-10-04T11:36:18.646Z</time>
      </trkpt>
      <trkpt lat="44.0319" lon="1.87019">
        <ele>282</ele>
        <time>2020-10-04T11:36:19.646Z</time>
      </trkpt>
      <trkpt lat="44.0319" lon="1.87018">
        <ele>282</ele>
        <time>2020-10-04T11:36:20.646Z</time>
      </trkpt>
      <trkpt lat="44.03191" lon="1.87017">
        <ele>282</ele>
        <time>2020-10-04T11:36:21.646Z</time>
      </trkpt>
      <trkpt lat="44.03191" lon="1.87015">
        <ele>282</ele>
        <time>2020-10-04T11:36:22.646Z</time>
      </trkpt>
      <trkpt lat="44.03192" lon="1.87014">
        <ele>282</ele>
        <time>2020-10-04T11:36:23.646Z</time>
      </trkpt>
      <trkpt lat="44.03193" lon="1.87013">
        <ele>282</ele>
        <time>2020-10-04T11:36:24.646Z</time>
      </trkpt>
      <trkpt lat="44.03193" lon="1.87012">
        <ele>282</ele>
        <time>2020-10-04T11:36:25.646Z</time>
      </trkpt>
      <trkpt lat="44.03194" lon="1.87011">
        <ele>282</ele>
        <time>2020-10-04T11:36:26.646Z</time>
      </trkpt>
      <trkpt lat="44.03194" lon="1.8701">
        <ele>282</ele>
        <time>2020-10-04T11:36:27.646Z</time>
      </trkpt>
      <trkpt lat="44.03194" lon="1.87008">
        <ele>282</ele>
        <time>2020-10-04T11:36:28.646Z</time>
      </trkpt>
      <trkpt lat="44.03195" lon="1.87007">
        <ele>282</ele>
        <time>2020-10-04T11:36:29.646Z</time>
      </trkpt>
      <trkpt lat="44.03195" lon="1.87007">
        <ele>282</ele>
        <time>2020-10-04T11:36:30.646Z</time>
      </trkpt>
      <trkpt lat="44.03196" lon="1.87006">
        <ele>282</ele>
        <time>2020-10-04T11:36:31.646Z</time>
      </trkpt>
      <trkpt lat="44.03197" lon="1.87005">
        <ele>283</ele>
        <time>2020-10-04T11:36:32.646Z</time>
      </trkpt>
      <trkpt lat="44.03197" lon="1.87004">
        <ele>283</ele>
        <time>2020-10-04T11:36:33.646Z</time>
      </trkpt>
      <trkpt lat="44.03198" lon="1.87002">
        <ele>283</ele>
        <time>2020-10-04T11:36:34.646Z</time>
      </trkpt>
      <trkpt lat="44.03199" lon="1.87001">
        <ele>283</ele>
        <time>2020-10-04T11:36:35.646Z</time>
      </trkpt>
      <trkpt lat="44.032" lon="1.87">
        <ele>283</ele>
        <time>2020-10-04T11:36:36.646Z</time>
      </trkpt>
      <trkpt lat="44.03201" lon="1.86999">
        <ele>282</ele>
        <time>2020-10-04T11:36:37.646Z</time>
      </trkpt>
      <trkpt lat="44.03202" lon="1.86998">
        <ele>282</ele>
        <time>2020-10-04T11:36:38.646Z</time>
      </trkpt>
      <trkpt lat="44.03203" lon="1.86997">
        <ele>282</ele>
        <time>2020-10-04T11:36:39.646Z</time>
      </trkpt>
      <trkpt lat="44.03204" lon="1.86996">
        <ele>282</ele>
        <time>2020-10-04T11:36:40.646Z</time>
      </trkpt>
      <trkpt lat="44.03205" lon="1.86995">
        <ele>282</ele>
        <time>2020-10-04T11:36:41.646Z</time>
      </trkpt>
      <trkpt lat="44.03206" lon="1.86994">
        <ele>282</ele>
        <time>2020-10-04T11:36:42.646Z</time>
      </trkpt>
      <trkpt lat="44.03207" lon="1.86993">
        <ele>282</ele>
        <time>2020-10-04T11:36:43.646Z</time>
      </trkpt>
      <trkpt lat="44.03208" lon="1.86992">
        <ele>282</ele>
        <time>2020-10-04T11:36:44.646Z</time>
      </trkpt>
      <trkpt lat="44.03209" lon="1.86991">
        <ele>282</ele>
        <time>2020-10-04T11:36:45.646Z</time>
      </trkpt>
      <trkpt lat="44.0321" lon="1.8699">
        <ele>282</ele>
        <time>2020-10-04T11:36:46.646Z</time>
      </trkpt>
      <trkpt lat="44.03211" lon="1.8699">
        <ele>282</ele>
        <time>2020-10-04T11:36:47.646Z</time>
      </trkpt>
      <trkpt lat="44.03212" lon="1.86989">
        <ele>282</ele>
        <time>2020-10-04T11:36:48.646Z</time>
      </trkpt>
      <trkpt lat="44.03213" lon="1.86988">
        <ele>282</ele>
        <time>2020-10-04T11:36:49.646Z</time>
      </trkpt>
      <trkpt lat="44.03214" lon="1.86988">
        <ele>282</ele>
        <time>2020-10-04T11:36:50.646Z</time>
      </trkpt>
      <trkpt lat="44.03215" lon="1.86987">
        <ele>282</ele>
        <time>2020-10-04T11:36:51.646Z</time>
      </trkpt>
      <trkpt lat="44.03216" lon="1.86987">
        <ele>282</ele>
        <time>2020-10-04T11:36:52.646Z</time>
      </trkpt>
      <trkpt lat="44.03217" lon="1.86986">
        <ele>282</ele>
        <time>2020-10-04T11:36:53.646Z</time>
      </trkpt>
      <trkpt lat="44.03218" lon="1.86986">
        <ele>282</ele>
        <time>2020-10-04T11:36:54.646Z</time>
      </trkpt>
      <trkpt lat="44.03219" lon="1.86986">
        <ele>282</ele>
        <time>2020-10-04T11:36:55.646Z</time>
      </trkpt>
      <trkpt lat="44.0322" lon="1.86985">
        <ele>282</ele>
        <time>2020-10-04T11:36:56.646Z</time>
      </trkpt>
      <trkpt lat="44.03222" lon="1.86985">
        <ele>282</ele>
        <time>2020-10-04T11:36:57.646Z</time>
      </trkpt>
      <trkpt lat="44.03223" lon="1.86985">
        <ele>282</ele>
        <time>2020-10-04T11:36:58.646Z</time>
      </trkpt>
      <trkpt lat="44.03224" lon="1.86985">
        <ele>282</ele>
        <time>2020-10-04T11:36:59.646Z</time>
      </trkpt>
      <trkpt lat="44.03225" lon="1.86984">
        <ele>282</ele>
        <time>2020-10-04T11:37:00.646Z</time>
      </trkpt>
      <trkpt lat="44.03226" lon="1.86984">
        <ele>282</ele>
        <time>2020-10-04T11:37:01.646Z</time>
      </trkpt>
      <trkpt lat="44.03227" lon="1.86983">
        <ele>283</ele>
        <time>2020-10-04T11:37:02.646Z</time>
      </trkpt>
      <trkpt lat="44.03228" lon="1.86983">
        <ele>283</ele>
        <time>2020-10-04T11:37:03.646Z</time>
      </trkpt>
      <trkpt lat="44.03229" lon="1.86983">
        <ele>283</ele>
        <time>2020-10-04T11:37:04.646Z</time>
      </trkpt>
      <trkpt lat="44.0323" lon="1.86983">
        <ele>283</ele>
        <time>2020-10-04T11:37:05.646Z</time>
      </trkpt>
      <trkpt lat="44.03231" lon="1.86983">
        <ele>283</ele>
        <time>2020-10-04T11:37:06.646Z</time>
      </trkpt>
      <trkpt lat="44.03232" lon="1.86982">
        <ele>283</ele>
        <time>2020-10-04T11:37:07.646Z</time>
      </trkpt>
      <trkpt lat="44.03233" lon="1.86982">
        <ele>283</ele>
        <time>2020-10-04T11:37:08.646Z</time>
      </trkpt>
      <trkpt lat="44.03234" lon="1.86982">
        <ele>283</ele>
        <time>2020-10-04T11:37:09.646Z</time>
      </trkpt>
      <trkpt lat="44.03236" lon="1.86982">
        <ele>283</ele>
        <time>2020-10-04T11:37:10.646Z</time>
      </trkpt>
      <trkpt lat="44.03237" lon="1.86982">
        <ele>283</ele>
        <time>2020-10-04T11:37:11.646Z</time>
      </trkpt>
      <trkpt lat="44.03238" lon="1.86982">
        <ele>283</ele>
        <time>2020-10-04T11:37:12.646Z</time>
      </trkpt>
      <trkpt lat="44.03239" lon="1.86982">
        <ele>283</ele>
        <time>2020-10-04T11:37:13.646Z</time>
      </trkpt>
      <trkpt lat="44.0324" lon="1.86982">
        <ele>283</ele>
        <time>2020-10-04T11:37:14.646Z</time>
      </trkpt>
      <trkpt lat="44.03241" lon="1.86982">
        <ele>283</ele>
        <time>2020-10-04T11:37:15.646Z</time>
      </trkpt>
      <trkpt lat="44.03242" lon="1.86982">
        <ele>283</ele>
        <time>2020-10-04T11:37:16.646Z</time>
      </trkpt>
      <trkpt lat="44.03243" lon="1.86982">
        <ele>283</ele>
        <time>2020-10-04T11:37:17.646Z</time>
      </trkpt>
      <trkpt lat="44.03244" lon="1.86982">
        <ele>283</ele>
        <time>2020-10-04T11:37:18.646Z</time>
      </trkpt>
      <trkpt lat="44.03246" lon="1.86982">
        <ele>283</ele>
        <time>2020-10-04T11:37:19.646Z</time>
      </trkpt>
      <trkpt lat="44.03247" lon="1.86982">
        <ele>283</ele>
        <time>2020-10-04T11:37:20.646Z</time>
      </trkpt>
      <trkpt lat="44.03248" lon="1.86982">
        <ele>283</ele>
        <time>2020-10-04T11:37:21.646Z</time>
      </trkpt>
      <trkpt lat="44.03249" lon="1.86982">
        <ele>283</ele>
        <time>2020-10-04T11:37:22.646Z</time>
      </trkpt>
      <trkpt lat="44.0325" lon="1.86983">
        <ele>283</ele>
        <time>2020-10-04T11:37:23.646Z</time>
      </trkpt>
      <trkpt lat="44.03252" lon="1.86983">
        <ele>283</ele>
        <time>2020-10-04T11:37:24.646Z</time>
      </trkpt>
      <trkpt lat="44.03253" lon="1.86983">
        <ele>283</ele>
        <time>2020-10-04T11:37:25.646Z</time>
      </trkpt>
      <trkpt lat="44.03254" lon="1.86983">
        <ele>283</ele>
        <time>2020-10-04T11:37:26.646Z</time>
      </trkpt>
      <trkpt lat="44.03255" lon="1.86983">
        <ele>283</ele>
        <time>2020-10-04T11:37:27.646Z</time>
      </trkpt>
      <trkpt lat="44.03256" lon="1.86983">
        <ele>283</ele>
        <time>2020-10-04T11:37:28.646Z</time>
      </trkpt>
      <trkpt lat="44.03257" lon="1.86983">
        <ele>283</ele>
        <time>2020-10-04T11:37:29.646Z</time>
      </trkpt>
      <trkpt lat="44.03258" lon="1.86983">
        <ele>283</ele>
        <time>2020-10-04T11:37:30.646Z</time>
      </trkpt>
      <trkpt lat="44.03259" lon="1.86983">
        <ele>283</ele>
        <time>2020-10-04T11:37:31.646Z</time>
      </trkpt>
      <trkpt lat="44.0326" lon="1.86983">
        <ele>284</ele>
        <time>2020-10-04T11:37:32.646Z</time>
      </trkpt>
      <trkpt lat="44.03261" lon="1.86983">
        <ele>284</ele>
        <time>2020-10-04T11:37:33.646Z</time>
      </trkpt>
      <trkpt lat="44.03262" lon="1.86983">
        <ele>284</ele>
        <time>2020-10-04T11:37:34.646Z</time>
      </trkpt>
      <trkpt lat="44.03263" lon="1.86983">
        <ele>284</ele>
        <time>2020-10-04T11:37:35.646Z</time>
      </trkpt>
      <trkpt lat="44.03264" lon="1.86983">
        <ele>284</ele>
        <time>2020-10-04T11:37:36.646Z</time>
      </trkpt>
      <trkpt lat="44.03265" lon="1.86984">
        <ele>284</ele>
        <time>2020-10-04T11:37:37.646Z</time>
      </trkpt>
      <trkpt lat="44.03267" lon="1.86984">
        <ele>284</ele>
        <time>2020-10-04T11:37:38.646Z</time>
      </trkpt>
      <trkpt lat="44.03268" lon="1.86984">
        <ele>284</ele>
        <time>2020-10-04T11:37:39.646Z</time>
      </trkpt>
      <trkpt lat="44.03269" lon="1.86984">
        <ele>284</ele>
        <time>2020-10-04T11:37:40.646Z</time>
      </trkpt>
      <trkpt lat="44.0327" lon="1.86984">
        <ele>285</ele>
        <time>2020-10-04T11:37:41.646Z</time>
      </trkpt>
      <trkpt lat="44.03271" lon="1.86984">
        <ele>285</ele>
        <time>2020-10-04T11:37:42.646Z</time>
      </trkpt>
      <trkpt lat="44.03272" lon="1.86985">
        <ele>285</ele>
        <time>2020-10-04T11:37:43.646Z</time>
      </trkpt>
      <trkpt lat="44.03273" lon="1.86985">
        <ele>285</ele>
        <time>2020-10-04T11:37:44.646Z</time>
      </trkpt>
      <trkpt lat="44.03274" lon="1.86985">
        <ele>285</ele>
        <time>2020-10-04T11:37:45.646Z</time>
      </trkpt>
      <trkpt lat="44.03275" lon="1.86985">
        <ele>285</ele>
        <time>2020-10-04T11:37:46.646Z</time>
      </trkpt>
      <trkpt lat="44.03276" lon="1.86986">
        <ele>285</ele>
        <time>2020-10-04T11:37:47.646Z</time>
      </trkpt>
      <trkpt lat="44.03277" lon="1.86986">
        <ele>285</ele>
        <time>2020-10-04T11:37:48.646Z</time>
      </trkpt>
      <trkpt lat="44.03278" lon="1.86987">
        <ele>285</ele>
        <time>2020-10-04T11:37:49.646Z</time>
      </trkpt>
      <trkpt lat="44.03279" lon="1.86987">
        <ele>285</ele>
        <time>2020-10-04T11:37:50.646Z</time>
      </trkpt>
      <trkpt lat="44.0328" lon="1.86988">
        <ele>285</ele>
        <time>2020-10-04T11:37:51.646Z</time>
      </trkpt>
      <trkpt lat="44.03281" lon="1.86988">
        <ele>285</ele>
        <time>2020-10-04T11:37:52.646Z</time>
      </trkpt>
      <trkpt lat="44.03282" lon="1.86988">
        <ele>285</ele>
        <time>2020-10-04T11:37:53.646Z</time>
      </trkpt>
      <trkpt lat="44.03283" lon="1.86989">
        <ele>286</ele>
        <time>2020-10-04T11:37:54.646Z</time>
      </trkpt>
      <trkpt lat="44.03284" lon="1.8699">
        <ele>286</ele>
        <time>2020-10-04T11:37:55.646Z</time>
      </trkpt>
      <trkpt lat="44.03285" lon="1.8699">
        <ele>286</ele>
        <time>2020-10-04T11:37:56.646Z</time>
      </trkpt>
      <trkpt lat="44.03286" lon="1.86991">
        <ele>286</ele>
        <time>2020-10-04T11:37:57.646Z</time>
      </trkpt>
      <trkpt lat="44.03287" lon="1.86991">
        <ele>286</ele>
        <time>2020-10-04T11:37:58.646Z</time>
      </trkpt>
      <trkpt lat="44.03288" lon="1.86991">
        <ele>286</ele>
        <time>2020-10-04T11:37:59.646Z</time>
      </trkpt>
      <trkpt lat="44.03289" lon="1.86992">
        <ele>286</ele>
        <time>2020-10-04T11:38:00.646Z</time>
      </trkpt>
      <trkpt lat="44.0329" lon="1.86992">
        <ele>286</ele>
        <time>2020-10-04T11:38:01.646Z</time>
      </trkpt>
      <trkpt lat="44.03291" lon="1.86993">
        <ele>286</ele>
        <time>2020-10-04T11:38:02.646Z</time>
      </trkpt>
      <trkpt lat="44.03292" lon="1.86993">
        <ele>286</ele>
        <time>2020-10-04T11:38:03.646Z</time>
      </trkpt>
      <trkpt lat="44.03293" lon="1.86994">
        <ele>286</ele>
        <time>2020-10-04T11:38:04.646Z</time>
      </trkpt>
      <trkpt lat="44.03294" lon="1.86994">
        <ele>286</ele>
        <time>2020-10-04T11:38:05.646Z</time>
      </trkpt>
      <trkpt lat="44.03295" lon="1.86994">
        <ele>286</ele>
        <time>2020-10-04T11:38:06.646Z</time>
      </trkpt>
      <trkpt lat="44.03296" lon="1.86995">
        <ele>286</ele>
        <time>2020-10-04T11:38:07.646Z</time>
      </trkpt>
      <trkpt lat="44.03297" lon="1.86995">
        <ele>286</ele>
        <time>2020-10-04T11:38:08.646Z</time>
      </trkpt>
      <trkpt lat="44.03298" lon="1.86996">
        <ele>286</ele>
        <time>2020-10-04T11:38:09.646Z</time>
      </trkpt>
      <trkpt lat="44.03299" lon="1.86996">
        <ele>286</ele>
        <time>2020-10-04T11:38:10.646Z</time>
      </trkpt>
      <trkpt lat="44.03299" lon="1.86997">
        <ele>286</ele>
        <time>2020-10-04T11:38:11.646Z</time>
      </trkpt>
      <trkpt lat="44.03301" lon="1.86997">
        <ele>286</ele>
        <time>2020-10-04T11:38:12.646Z</time>
      </trkpt>
      <trkpt lat="44.03302" lon="1.86997">
        <ele>286</ele>
        <time>2020-10-04T11:38:13.646Z</time>
      </trkpt>
      <trkpt lat="44.03303" lon="1.86998">
        <ele>286</ele>
        <time>2020-10-04T11:38:14.646Z</time>
      </trkpt>
      <trkpt lat="44.03304" lon="1.86998">
        <ele>286</ele>
        <time>2020-10-04T11:38:15.646Z</time>
      </trkpt>
      <trkpt lat="44.03305" lon="1.86999">
        <ele>286</ele>
        <time>2020-10-04T11:38:16.646Z</time>
      </trkpt>
      <trkpt lat="44.03306" lon="1.86999">
        <ele>286</ele>
        <time>2020-10-04T11:38:17.646Z</time>
      </trkpt>
      <trkpt lat="44.03308" lon="1.87">
        <ele>286</ele>
        <time>2020-10-04T11:38:18.646Z</time>
      </trkpt>
      <trkpt lat="44.03309" lon="1.87">
        <ele>286</ele>
        <time>2020-10-04T11:38:19.646Z</time>
      </trkpt>
      <trkpt lat="44.0331" lon="1.87001">
        <ele>286</ele>
        <time>2020-10-04T11:38:20.646Z</time>
      </trkpt>
      <trkpt lat="44.03311" lon="1.87001">
        <ele>286</ele>
        <time>2020-10-04T11:38:21.646Z</time>
      </trkpt>
      <trkpt lat="44.03312" lon="1.87002">
        <ele>286</ele>
        <time>2020-10-04T11:38:22.646Z</time>
      </trkpt>
      <trkpt lat="44.03313" lon="1.87002">
        <ele>286</ele>
        <time>2020-10-04T11:38:23.646Z</time>
      </trkpt>
      <trkpt lat="44.03314" lon="1.87003">
        <ele>286</ele>
        <time>2020-10-04T11:38:24.646Z</time>
      </trkpt>
      <trkpt lat="44.03315" lon="1.87003">
        <ele>286</ele>
        <time>2020-10-04T11:38:25.646Z</time>
      </trkpt>
      <trkpt lat="44.03316" lon="1.87004">
        <ele>285</ele>
        <time>2020-10-04T11:38:26.646Z</time>
      </trkpt>
      <trkpt lat="44.03317" lon="1.87004">
        <ele>285</ele>
        <time>2020-10-04T11:38:27.646Z</time>
      </trkpt>
      <trkpt lat="44.03318" lon="1.87005">
        <ele>285</ele>
        <time>2020-10-04T11:38:28.646Z</time>
      </trkpt>
      <trkpt lat="44.0332" lon="1.87005">
        <ele>285</ele>
        <time>2020-10-04T11:38:29.646Z</time>
      </trkpt>
      <trkpt lat="44.03321" lon="1.87006">
        <ele>285</ele>
        <time>2020-10-04T11:38:30.646Z</time>
      </trkpt>
      <trkpt lat="44.03322" lon="1.87006">
        <ele>285</ele>
        <time>2020-10-04T11:38:31.646Z</time>
      </trkpt>
      <trkpt lat="44.03323" lon="1.87006">
        <ele>285</ele>
        <time>2020-10-04T11:38:32.646Z</time>
      </trkpt>
      <trkpt lat="44.03324" lon="1.87007">
        <ele>285</ele>
        <time>2020-10-04T11:38:33.646Z</time>
      </trkpt>
      <trkpt lat="44.03325" lon="1.87007">
        <ele>285</ele>
        <time>2020-10-04T11:38:34.646Z</time>
      </trkpt>
      <trkpt lat="44.03326" lon="1.87008">
        <ele>285</ele>
        <time>2020-10-04T11:38:35.646Z</time>
      </trkpt>
      <trkpt lat="44.03327" lon="1.87008">
        <ele>285</ele>
        <time>2020-10-04T11:38:36.646Z</time>
      </trkpt>
      <trkpt lat="44.03328" lon="1.87008">
        <ele>285</ele>
        <time>2020-10-04T11:38:37.646Z</time>
      </trkpt>
      <trkpt lat="44.0333" lon="1.87009">
        <ele>285</ele>
        <time>2020-10-04T11:38:38.646Z</time>
      </trkpt>
      <trkpt lat="44.03331" lon="1.87009">
        <ele>285</ele>
        <time>2020-10-04T11:38:39.646Z</time>
      </trkpt>
      <trkpt lat="44.03332" lon="1.87009">
        <ele>285</ele>
        <time>2020-10-04T11:38:40.646Z</time>
      </trkpt>
      <trkpt lat="44.03333" lon="1.87009">
        <ele>286</ele>
        <time>2020-10-04T11:38:41.646Z</time>
      </trkpt>
      <trkpt lat="44.03334" lon="1.87009">
        <ele>286</ele>
        <time>2020-10-04T11:38:42.646Z</time>
      </trkpt>
      <trkpt lat="44.03335" lon="1.87009">
        <ele>286</ele>
        <time>2020-10-04T11:38:43.646Z</time>
      </trkpt>
      <trkpt lat="44.03336" lon="1.87009">
        <ele>286</ele>
        <time>2020-10-04T11:38:44.646Z</time>
      </trkpt>
      <trkpt lat="44.03337" lon="1.87009">
        <ele>286</ele>
        <time>2020-10-04T11:38:45.646Z</time>
      </trkpt>
      <trkpt lat="44.03339" lon="1.8701">
        <ele>286</ele>
        <time>2020-10-04T11:38:46.646Z</time>
      </trkpt>
      <trkpt lat="44.0334" lon="1.8701">
        <ele>286</ele>
        <time>2020-10-04T11:38:47.646Z</time>
      </trkpt>
      <trkpt lat="44.03341" lon="1.8701">
        <ele>286</ele>
        <time>2020-10-04T11:38:48.646Z</time>
      </trkpt>
      <trkpt lat="44.03342" lon="1.8701">
        <ele>286</ele>
        <time>2020-10-04T11:38:49.646Z</time>
      </trkpt>
      <trkpt lat="44.03343" lon="1.8701">
        <ele>286</ele>
        <time>2020-10-04T11:38:50.646Z</time>
      </trkpt>
      <trkpt lat="44.03344" lon="1.87011">
        <ele>286</ele>
        <time>2020-10-04T11:38:51.646Z</time>
      </trkpt>
      <trkpt lat="44.03345" lon="1.87011">
        <ele>287</ele>
        <time>2020-10-04T11:38:52.646Z</time>
      </trkpt>
      <trkpt lat="44.03346" lon="1.87011">
        <ele>287</ele>
        <time>2020-10-04T11:38:53.646Z</time>
      </trkpt>
      <trkpt lat="44.03347" lon="1.87011">
        <ele>287</ele>
        <time>2020-10-04T11:38:54.646Z</time>
      </trkpt>
      <trkpt lat="44.03348" lon="1.87011">
        <ele>287</ele>
        <time>2020-10-04T11:38:55.646Z</time>
      </trkpt>
      <trkpt lat="44.0335" lon="1.87011">
        <ele>287</ele>
        <time>2020-10-04T11:38:56.646Z</time>
      </trkpt>
      <trkpt lat="44.03351" lon="1.87011">
        <ele>287</ele>
        <time>2020-10-04T11:38:57.646Z</time>
      </trkpt>
      <trkpt lat="44.03352" lon="1.87011">
        <ele>287</ele>
        <time>2020-10-04T11:38:58.646Z</time>
      </trkpt>
      <trkpt lat="44.03353" lon="1.87011">
        <ele>287</ele>
        <time>2020-10-04T11:38:59.646Z</time>
      </trkpt>
      <trkpt lat="44.03354" lon="1.87011">
        <ele>287</ele>
        <time>2020-10-04T11:39:00.646Z</time>
      </trkpt>
      <trkpt lat="44.03355" lon="1.87011">
        <ele>287</ele>
        <time>2020-10-04T11:39:01.646Z</time>
      </trkpt>
      <trkpt lat="44.03356" lon="1.87011">
        <ele>287</ele>
        <time>2020-10-04T11:39:02.646Z</time>
      </trkpt>
      <trkpt lat="44.03357" lon="1.87011">
        <ele>287</ele>
        <time>2020-10-04T11:39:03.646Z</time>
      </trkpt>
      <trkpt lat="44.03358" lon="1.87011">
        <ele>287</ele>
        <time>2020-10-04T11:39:04.646Z</time>
      </trkpt>
      <trkpt lat="44.03359" lon="1.87012">
        <ele>287</ele>
        <time>2020-10-04T11:39:05.646Z</time>
      </trkpt>
      <trkpt lat="44.03361" lon="1.87012">
        <ele>287</ele>
        <time>2020-10-04T11:39:06.646Z</time>
      </trkpt>
      <trkpt lat="44.03362" lon="1.87012">
        <ele>287</ele>
        <time>2020-10-04T11:39:07.646Z</time>
      </trkpt>
      <trkpt lat="44.03363" lon="1.87012">
        <ele>287</ele>
        <time>2020-10-04T11:39:08.646Z</time>
      </trkpt>
      <trkpt lat="44.03364" lon="1.87012">
        <ele>287</ele>
        <time>2020-10-04T11:39:09.646Z</time>
      </trkpt>
      <trkpt lat="44.03365" lon="1.87013">
        <ele>287</ele>
        <time>2020-10-04T11:39:10.646Z</time>
      </trkpt>
      <trkpt lat="44.03366" lon="1.87013">
        <ele>287</ele>
        <time>2020-10-04T11:39:11.646Z</time>
      </trkpt>
      <trkpt lat="44.03367" lon="1.87013">
        <ele>287</ele>
        <time>2020-10-04T11:39:12.646Z</time>
      </trkpt>
      <trkpt lat="44.03368" lon="1.87013">
        <ele>287</ele>
        <time>2020-10-04T11:39:13.646Z</time>
      </trkpt>
      <trkpt lat="44.03369" lon="1.87013">
        <ele>287</ele>
        <time>2020-10-04T11:39:14.646Z</time>
      </trkpt>
      <trkpt lat="44.0337" lon="1.87013">
        <ele>287</ele>
        <time>2020-10-04T11:39:15.646Z</time>
      </trkpt>
      <trkpt lat="44.0337" lon="1.87013">
        <ele>287</ele>
        <time>2020-10-04T11:39:16.646Z</time>
      </trkpt>
      <trkpt lat="44.0337" lon="1.87013">
        <ele>287</ele>
        <time>2020-10-04T11:39:17.646Z</time>
      </trkpt>
      <trkpt lat="44.0337" lon="1.87013">
        <ele>287</ele>
        <time>2020-10-04T11:39:18.646Z</time>
      </trkpt>
      <trkpt lat="44.03373" lon="1.87012">
        <ele>286</ele>
        <time>2020-10-04T11:39:19.646Z</time>
      </trkpt>
      <trkpt lat="44.03374" lon="1.87012">
        <ele>287</ele>
        <time>2020-10-04T11:39:20.646Z</time>
      </trkpt>
      <trkpt lat="44.03375" lon="1.87013">
        <ele>287</ele>
        <time>2020-10-04T11:39:21.646Z</time>
      </trkpt>
      <trkpt lat="44.03376" lon="1.87012">
        <ele>287</ele>
        <time>2020-10-04T11:39:22.646Z</time>
      </trkpt>
      <trkpt lat="44.03377" lon="1.87012">
        <ele>287</ele>
        <time>2020-10-04T11:39:23.646Z</time>
      </trkpt>
      <trkpt lat="44.03378" lon="1.87012">
        <ele>287</ele>
        <time>2020-10-04T11:39:24.646Z</time>
      </trkpt>
      <trkpt lat="44.03379" lon="1.87011">
        <ele>287</ele>
        <time>2020-10-04T11:39:25.646Z</time>
      </trkpt>
      <trkpt lat="44.0338" lon="1.87011">
        <ele>287</ele>
        <time>2020-10-04T11:39:26.646Z</time>
      </trkpt>
      <trkpt lat="44.03381" lon="1.8701">
        <ele>287</ele>
        <time>2020-10-04T11:39:27.646Z</time>
      </trkpt>
      <trkpt lat="44.03382" lon="1.8701">
        <ele>287</ele>
        <time>2020-10-04T11:39:28.646Z</time>
      </trkpt>
      <trkpt lat="44.03383" lon="1.8701">
        <ele>287</ele>
        <time>2020-10-04T11:39:29.646Z</time>
      </trkpt>
      <trkpt lat="44.03383" lon="1.8701">
        <ele>287</ele>
        <time>2020-10-04T11:39:30.646Z</time>
      </trkpt>
      <trkpt lat="44.03383" lon="1.87009">
        <ele>287</ele>
        <time>2020-10-04T11:39:31.646Z</time>
      </trkpt>
      <trkpt lat="44.03383" lon="1.87009">
        <ele>287</ele>
        <time>2020-10-04T11:39:32.646Z</time>
      </trkpt>
      <trkpt lat="44.03383" lon="1.87008">
        <ele>287</ele>
        <time>2020-10-04T11:39:33.646Z</time>
      </trkpt>
      <trkpt lat="44.03383" lon="1.87006">
        <ele>287</ele>
        <time>2020-10-04T11:39:34.646Z</time>
      </trkpt>
      <trkpt lat="44.03383" lon="1.87005">
        <ele>287</ele>
        <time>2020-10-04T11:39:35.646Z</time>
      </trkpt>
      <trkpt lat="44.03383" lon="1.87004">
        <ele>287</ele>
        <time>2020-10-04T11:39:36.646Z</time>
      </trkpt>
      <trkpt lat="44.03383" lon="1.87004">
        <ele>287</ele>
        <time>2020-10-04T11:39:37.646Z</time>
      </trkpt>
      <trkpt lat="44.03382" lon="1.87001">
        <ele>287</ele>
        <time>2020-10-04T11:39:38.646Z</time>
      </trkpt>
      <trkpt lat="44.03382" lon="1.87001">
        <ele>287</ele>
        <time>2020-10-04T11:39:39.646Z</time>
      </trkpt>
      <trkpt lat="44.03382" lon="1.87">
        <ele>287</ele>
        <time>2020-10-04T11:39:40.646Z</time>
      </trkpt>
      <trkpt lat="44.03381" lon="1.86998">
        <ele>287</ele>
        <time>2020-10-04T11:39:41.646Z</time>
      </trkpt>
      <trkpt lat="44.03381" lon="1.86998">
        <ele>287</ele>
        <time>2020-10-04T11:39:42.646Z</time>
      </trkpt>
      <trkpt lat="44.03379" lon="1.86996">
        <ele>287</ele>
        <time>2020-10-04T11:39:43.646Z</time>
      </trkpt>
      <trkpt lat="44.03379" lon="1.86995">
        <ele>288</ele>
        <time>2020-10-04T11:39:44.646Z</time>
      </trkpt>
      <trkpt lat="44.03378" lon="1.86994">
        <ele>288</ele>
        <time>2020-10-04T11:39:45.646Z</time>
      </trkpt>
      <trkpt lat="44.03378" lon="1.86994">
        <ele>288</ele>
        <time>2020-10-04T11:39:46.646Z</time>
      </trkpt>
      <trkpt lat="44.03376" lon="1.86992">
        <ele>288</ele>
        <time>2020-10-04T11:39:47.646Z</time>
      </trkpt>
      <trkpt lat="44.03375" lon="1.86991">
        <ele>288</ele>
        <time>2020-10-04T11:39:48.646Z</time>
      </trkpt>
      <trkpt lat="44.03375" lon="1.8699">
        <ele>288</ele>
        <time>2020-10-04T11:39:49.646Z</time>
      </trkpt>
      <trkpt lat="44.03375" lon="1.8699">
        <ele>288</ele>
        <time>2020-10-04T11:39:50.646Z</time>
      </trkpt>
      <trkpt lat="44.03373" lon="1.86988">
        <ele>288</ele>
        <time>2020-10-04T11:39:51.646Z</time>
      </trkpt>
      <trkpt lat="44.03372" lon="1.86987">
        <ele>288</ele>
        <time>2020-10-04T11:39:52.646Z</time>
      </trkpt>
      <trkpt lat="44.03371" lon="1.86986">
        <ele>288</ele>
        <time>2020-10-04T11:39:53.646Z</time>
      </trkpt>
      <trkpt lat="44.0337" lon="1.86986">
        <ele>288</ele>
        <time>2020-10-04T11:39:54.646Z</time>
      </trkpt>
      <trkpt lat="44.0337" lon="1.86985">
        <ele>288</ele>
        <time>2020-10-04T11:39:55.646Z</time>
      </trkpt>
      <trkpt lat="44.03369" lon="1.86984">
        <ele>288</ele>
        <time>2020-10-04T11:39:56.646Z</time>
      </trkpt>
      <trkpt lat="44.03368" lon="1.86983">
        <ele>288</ele>
        <time>2020-10-04T11:39:57.646Z</time>
      </trkpt>
      <trkpt lat="44.03367" lon="1.86982">
        <ele>288</ele>
        <time>2020-10-04T11:39:58.646Z</time>
      </trkpt>
      <trkpt lat="44.03366" lon="1.86981">
        <ele>288</ele>
        <time>2020-10-04T11:39:59.646Z</time>
      </trkpt>
      <trkpt lat="44.03366" lon="1.86979">
        <ele>288</ele>
        <time>2020-10-04T11:40:00.646Z</time>
      </trkpt>
      <trkpt lat="44.03365" lon="1.86978">
        <ele>288</ele>
        <time>2020-10-04T11:40:01.646Z</time>
      </trkpt>
      <trkpt lat="44.03364" lon="1.86977">
        <ele>288</ele>
        <time>2020-10-04T11:40:02.646Z</time>
      </trkpt>
      <trkpt lat="44.03363" lon="1.86976">
        <ele>288</ele>
        <time>2020-10-04T11:40:03.646Z</time>
      </trkpt>
      <trkpt lat="44.03363" lon="1.86975">
        <ele>288</ele>
        <time>2020-10-04T11:40:04.646Z</time>
      </trkpt>
      <trkpt lat="44.03362" lon="1.86974">
        <ele>288</ele>
        <time>2020-10-04T11:40:05.646Z</time>
      </trkpt>
      <trkpt lat="44.03361" lon="1.86973">
        <ele>288</ele>
        <time>2020-10-04T11:40:06.646Z</time>
      </trkpt>
      <trkpt lat="44.0336" lon="1.86972">
        <ele>288</ele>
        <time>2020-10-04T11:40:07.646Z</time>
      </trkpt>
      <trkpt lat="44.03359" lon="1.86971">
        <ele>288</ele>
        <time>2020-10-04T11:40:08.646Z</time>
      </trkpt>
      <trkpt lat="44.03359" lon="1.86971">
        <ele>288</ele>
        <time>2020-10-04T11:40:09.646Z</time>
      </trkpt>
      <trkpt lat="44.03358" lon="1.86969">
        <ele>288</ele>
        <time>2020-10-04T11:40:10.646Z</time>
      </trkpt>
      <trkpt lat="44.03357" lon="1.86968">
        <ele>287</ele>
        <time>2020-10-04T11:40:11.646Z</time>
      </trkpt>
      <trkpt lat="44.03356" lon="1.86967">
        <ele>287</ele>
        <time>2020-10-04T11:40:12.646Z</time>
      </trkpt>
      <trkpt lat="44.03355" lon="1.86966">
        <ele>287</ele>
        <time>2020-10-04T11:40:13.646Z</time>
      </trkpt>
      <trkpt lat="44.03355" lon="1.86965">
        <ele>287</ele>
        <time>2020-10-04T11:40:14.646Z</time>
      </trkpt>
      <trkpt lat="44.03354" lon="1.86964">
        <ele>287</ele>
        <time>2020-10-04T11:40:15.646Z</time>
      </trkpt>
      <trkpt lat="44.03353" lon="1.86963">
        <ele>287</ele>
        <time>2020-10-04T11:40:16.646Z</time>
      </trkpt>
      <trkpt lat="44.03352" lon="1.86962">
        <ele>287</ele>
        <time>2020-10-04T11:40:17.646Z</time>
      </trkpt>
      <trkpt lat="44.03351" lon="1.86961">
        <ele>287</ele>
        <time>2020-10-04T11:40:18.646Z</time>
      </trkpt>
      <trkpt lat="44.03351" lon="1.8696">
        <ele>287</ele>
        <time>2020-10-04T11:40:19.646Z</time>
      </trkpt>
      <trkpt lat="44.0335" lon="1.86958">
        <ele>287</ele>
        <time>2020-10-04T11:40:20.646Z</time>
      </trkpt>
      <trkpt lat="44.03349" lon="1.86957">
        <ele>287</ele>
        <time>2020-10-04T11:40:21.646Z</time>
      </trkpt>
      <trkpt lat="44.03348" lon="1.86956">
        <ele>287</ele>
        <time>2020-10-04T11:40:22.646Z</time>
      </trkpt>
      <trkpt lat="44.03347" lon="1.86955">
        <ele>287</ele>
        <time>2020-10-04T11:40:23.646Z</time>
      </trkpt>
      <trkpt lat="44.03346" lon="1.86954">
        <ele>287</ele>
        <time>2020-10-04T11:40:24.646Z</time>
      </trkpt>
      <trkpt lat="44.03346" lon="1.86953">
        <ele>287</ele>
        <time>2020-10-04T11:40:25.646Z</time>
      </trkpt>
      <trkpt lat="44.03345" lon="1.86952">
        <ele>287</ele>
        <time>2020-10-04T11:40:26.646Z</time>
      </trkpt>
      <trkpt lat="44.03344" lon="1.86951">
        <ele>287</ele>
        <time>2020-10-04T11:40:27.646Z</time>
      </trkpt>
      <trkpt lat="44.03344" lon="1.86951">
        <ele>287</ele>
        <time>2020-10-04T11:40:28.646Z</time>
      </trkpt>
      <trkpt lat="44.03343" lon="1.8695">
        <ele>287</ele>
        <time>2020-10-04T11:40:29.646Z</time>
      </trkpt>
      <trkpt lat="44.03342" lon="1.86948">
        <ele>287</ele>
        <time>2020-10-04T11:40:30.646Z</time>
      </trkpt>
      <trkpt lat="44.03342" lon="1.86947">
        <ele>287</ele>
        <time>2020-10-04T11:40:31.646Z</time>
      </trkpt>
      <trkpt lat="44.0334" lon="1.86945">
        <ele>287</ele>
        <time>2020-10-04T11:40:32.646Z</time>
      </trkpt>
      <trkpt lat="44.0334" lon="1.86945">
        <ele>287</ele>
        <time>2020-10-04T11:40:33.646Z</time>
      </trkpt>
      <trkpt lat="44.03338" lon="1.86943">
        <ele>287</ele>
        <time>2020-10-04T11:40:34.646Z</time>
      </trkpt>
      <trkpt lat="44.03337" lon="1.86941">
        <ele>288</ele>
        <time>2020-10-04T11:40:35.646Z</time>
      </trkpt>
      <trkpt lat="44.03336" lon="1.8694">
        <ele>288</ele>
        <time>2020-10-04T11:40:36.646Z</time>
      </trkpt>
      <trkpt lat="44.03336" lon="1.8694">
        <ele>288</ele>
        <time>2020-10-04T11:40:37.646Z</time>
      </trkpt>
      <trkpt lat="44.03335" lon="1.86938">
        <ele>288</ele>
        <time>2020-10-04T11:40:38.646Z</time>
      </trkpt>
      <trkpt lat="44.03334" lon="1.86937">
        <ele>288</ele>
        <time>2020-10-04T11:40:39.646Z</time>
      </trkpt>
      <trkpt lat="44.03333" lon="1.86936">
        <ele>288</ele>
        <time>2020-10-04T11:40:40.646Z</time>
      </trkpt>
      <trkpt lat="44.03333" lon="1.86936">
        <ele>288</ele>
        <time>2020-10-04T11:40:41.646Z</time>
      </trkpt>
      <trkpt lat="44.03331" lon="1.86933">
        <ele>288</ele>
        <time>2020-10-04T11:40:42.646Z</time>
      </trkpt>
      <trkpt lat="44.0333" lon="1.86932">
        <ele>288</ele>
        <time>2020-10-04T11:40:43.646Z</time>
      </trkpt>
      <trkpt lat="44.03329" lon="1.86931">
        <ele>288</ele>
        <time>2020-10-04T11:40:44.646Z</time>
      </trkpt>
      <trkpt lat="44.03329" lon="1.8693">
        <ele>288</ele>
        <time>2020-10-04T11:40:45.646Z</time>
      </trkpt>
      <trkpt lat="44.03328" lon="1.86929">
        <ele>288</ele>
        <time>2020-10-04T11:40:46.646Z</time>
      </trkpt>
      <trkpt lat="44.03327" lon="1.86928">
        <ele>288</ele>
        <time>2020-10-04T11:40:47.646Z</time>
      </trkpt>
      <trkpt lat="44.03326" lon="1.86927">
        <ele>288</ele>
        <time>2020-10-04T11:40:48.646Z</time>
      </trkpt>
      <trkpt lat="44.03326" lon="1.86927">
        <ele>288</ele>
        <time>2020-10-04T11:40:49.646Z</time>
      </trkpt>
      <trkpt lat="44.03325" lon="1.86925">
        <ele>288</ele>
        <time>2020-10-04T11:40:50.646Z</time>
      </trkpt>
      <trkpt lat="44.03324" lon="1.86924">
        <ele>288</ele>
        <time>2020-10-04T11:40:51.646Z</time>
      </trkpt>
      <trkpt lat="44.03323" lon="1.86923">
        <ele>288</ele>
        <time>2020-10-04T11:40:52.646Z</time>
      </trkpt>
      <trkpt lat="44.03322" lon="1.86922">
        <ele>288</ele>
        <time>2020-10-04T11:40:53.646Z</time>
      </trkpt>
      <trkpt lat="44.03321" lon="1.86921">
        <ele>288</ele>
        <time>2020-10-04T11:40:54.646Z</time>
      </trkpt>
      <trkpt lat="44.0332" lon="1.8692">
        <ele>288</ele>
        <time>2020-10-04T11:40:55.646Z</time>
      </trkpt>
      <trkpt lat="44.03319" lon="1.86919">
        <ele>288</ele>
        <time>2020-10-04T11:40:56.646Z</time>
      </trkpt>
      <trkpt lat="44.03318" lon="1.86918">
        <ele>288</ele>
        <time>2020-10-04T11:40:57.646Z</time>
      </trkpt>
      <trkpt lat="44.03317" lon="1.86917">
        <ele>288</ele>
        <time>2020-10-04T11:40:58.646Z</time>
      </trkpt>
      <trkpt lat="44.03316" lon="1.86916">
        <ele>288</ele>
        <time>2020-10-04T11:40:59.646Z</time>
      </trkpt>
      <trkpt lat="44.03316" lon="1.86916">
        <ele>288</ele>
        <time>2020-10-04T11:41:00.646Z</time>
      </trkpt>
      <trkpt lat="44.03314" lon="1.86914">
        <ele>288</ele>
        <time>2020-10-04T11:41:01.646Z</time>
      </trkpt>
      <trkpt lat="44.03313" lon="1.86913">
        <ele>288</ele>
        <time>2020-10-04T11:41:02.646Z</time>
      </trkpt>
      <trkpt lat="44.03312" lon="1.86912">
        <ele>288</ele>
        <time>2020-10-04T11:41:03.646Z</time>
      </trkpt>
      <trkpt lat="44.03312" lon="1.86911">
        <ele>288</ele>
        <time>2020-10-04T11:41:04.646Z</time>
      </trkpt>
      <trkpt lat="44.03311" lon="1.8691">
        <ele>288</ele>
        <time>2020-10-04T11:41:05.646Z</time>
      </trkpt>
      <trkpt lat="44.0331" lon="1.86909">
        <ele>288</ele>
        <time>2020-10-04T11:41:06.646Z</time>
      </trkpt>
      <trkpt lat="44.03309" lon="1.86908">
        <ele>288</ele>
        <time>2020-10-04T11:41:07.646Z</time>
      </trkpt>
      <trkpt lat="44.03308" lon="1.86907">
        <ele>288</ele>
        <time>2020-10-04T11:41:08.646Z</time>
      </trkpt>
      <trkpt lat="44.03307" lon="1.86906">
        <ele>288</ele>
        <time>2020-10-04T11:41:09.646Z</time>
      </trkpt>
      <trkpt lat="44.03306" lon="1.86905">
        <ele>288</ele>
        <time>2020-10-04T11:41:10.646Z</time>
      </trkpt>
      <trkpt lat="44.03305" lon="1.86904">
        <ele>288</ele>
        <time>2020-10-04T11:41:11.646Z</time>
      </trkpt>
      <trkpt lat="44.03305" lon="1.86903">
        <ele>288</ele>
        <time>2020-10-04T11:41:12.646Z</time>
      </trkpt>
      <trkpt lat="44.03304" lon="1.86902">
        <ele>288</ele>
        <time>2020-10-04T11:41:13.646Z</time>
      </trkpt>
      <trkpt lat="44.03303" lon="1.86901">
        <ele>288</ele>
        <time>2020-10-04T11:41:14.646Z</time>
      </trkpt>
      <trkpt lat="44.03302" lon="1.869">
        <ele>288</ele>
        <time>2020-10-04T11:41:15.646Z</time>
      </trkpt>
      <trkpt lat="44.03301" lon="1.86899">
        <ele>287</ele>
        <time>2020-10-04T11:41:16.646Z</time>
      </trkpt>
      <trkpt lat="44.033" lon="1.86898">
        <ele>287</ele>
        <time>2020-10-04T11:41:17.646Z</time>
      </trkpt>
      <trkpt lat="44.033" lon="1.86898">
        <ele>287</ele>
        <time>2020-10-04T11:41:18.646Z</time>
      </trkpt>
      <trkpt lat="44.03299" lon="1.86897">
        <ele>287</ele>
        <time>2020-10-04T11:41:19.646Z</time>
      </trkpt>
      <trkpt lat="44.03298" lon="1.86896">
        <ele>287</ele>
        <time>2020-10-04T11:41:20.646Z</time>
      </trkpt>
      <trkpt lat="44.03297" lon="1.86895">
        <ele>287</ele>
        <time>2020-10-04T11:41:21.646Z</time>
      </trkpt>
      <trkpt lat="44.03295" lon="1.86893">
        <ele>287</ele>
        <time>2020-10-04T11:41:22.646Z</time>
      </trkpt>
      <trkpt lat="44.03295" lon="1.86893">
        <ele>287</ele>
        <time>2020-10-04T11:41:23.646Z</time>
      </trkpt>
      <trkpt lat="44.03293" lon="1.86891">
        <ele>287</ele>
        <time>2020-10-04T11:41:24.646Z</time>
      </trkpt>
      <trkpt lat="44.03292" lon="1.8689">
        <ele>287</ele>
        <time>2020-10-04T11:41:25.646Z</time>
      </trkpt>
      <trkpt lat="44.03291" lon="1.8689">
        <ele>287</ele>
        <time>2020-10-04T11:41:26.646Z</time>
      </trkpt>
      <trkpt lat="44.0329" lon="1.86889">
        <ele>287</ele>
        <time>2020-10-04T11:41:27.646Z</time>
      </trkpt>
      <trkpt lat="44.0329" lon="1.86889">
        <ele>287</ele>
        <time>2020-10-04T11:41:28.646Z</time>
      </trkpt>
      <trkpt lat="44.03288" lon="1.86887">
        <ele>287</ele>
        <time>2020-10-04T11:41:29.646Z</time>
      </trkpt>
      <trkpt lat="44.03287" lon="1.86886">
        <ele>287</ele>
        <time>2020-10-04T11:41:30.646Z</time>
      </trkpt>
      <trkpt lat="44.03286" lon="1.86885">
        <ele>287</ele>
        <time>2020-10-04T11:41:31.646Z</time>
      </trkpt>
      <trkpt lat="44.03286" lon="1.86885">
        <ele>287</ele>
        <time>2020-10-04T11:41:32.646Z</time>
      </trkpt>
      <trkpt lat="44.03285" lon="1.86883">
        <ele>287</ele>
        <time>2020-10-04T11:41:33.646Z</time>
      </trkpt>
      <trkpt lat="44.03284" lon="1.86882">
        <ele>287</ele>
        <time>2020-10-04T11:41:34.646Z</time>
      </trkpt>
      <trkpt lat="44.03283" lon="1.86882">
        <ele>287</ele>
        <time>2020-10-04T11:41:35.646Z</time>
      </trkpt>
      <trkpt lat="44.03282" lon="1.86881">
        <ele>287</ele>
        <time>2020-10-04T11:41:36.646Z</time>
      </trkpt>
      <trkpt lat="44.03281" lon="1.8688">
        <ele>287</ele>
        <time>2020-10-04T11:41:37.646Z</time>
      </trkpt>
      <trkpt lat="44.0328" lon="1.86879">
        <ele>287</ele>
        <time>2020-10-04T11:41:38.646Z</time>
      </trkpt>
      <trkpt lat="44.0328" lon="1.86879">
        <ele>287</ele>
        <time>2020-10-04T11:41:39.646Z</time>
      </trkpt>
      <trkpt lat="44.03278" lon="1.86878">
        <ele>286</ele>
        <time>2020-10-04T11:41:40.646Z</time>
      </trkpt>
      <trkpt lat="44.03277" lon="1.86877">
        <ele>286</ele>
        <time>2020-10-04T11:41:41.646Z</time>
      </trkpt>
      <trkpt lat="44.03276" lon="1.86876">
        <ele>286</ele>
        <time>2020-10-04T11:41:42.646Z</time>
      </trkpt>
      <trkpt lat="44.03275" lon="1.86876">
        <ele>286</ele>
        <time>2020-10-04T11:41:43.646Z</time>
      </trkpt>
      <trkpt lat="44.03274" lon="1.86875">
        <ele>286</ele>
        <time>2020-10-04T11:41:56.651Z</time>
      </trkpt>
      <trkpt lat="44.03273" lon="1.86874">
        <ele>286</ele>
        <time>2020-10-04T11:41:57.651Z</time>
      </trkpt>
      <trkpt lat="44.03272" lon="1.86873">
        <ele>286</ele>
        <time>2020-10-04T11:41:58.651Z</time>
      </trkpt>
      <trkpt lat="44.03271" lon="1.86873">
        <ele>286</ele>
        <time>2020-10-04T11:41:59.651Z</time>
      </trkpt>
      <trkpt lat="44.0327" lon="1.86872">
        <ele>286</ele>
        <time>2020-10-04T11:42:00.651Z</time>
      </trkpt>
      <trkpt lat="44.03269" lon="1.86871">
        <ele>286</ele>
        <time>2020-10-04T11:42:01.651Z</time>
      </trkpt>
      <trkpt lat="44.03268" lon="1.8687">
        <ele>286</ele>
        <time>2020-10-04T11:42:02.651Z</time>
      </trkpt>
      <trkpt lat="44.03268" lon="1.8687">
        <ele>286</ele>
        <time>2020-10-04T11:42:03.651Z</time>
      </trkpt>
      <trkpt lat="44.03266" lon="1.86869">
        <ele>286</ele>
        <time>2020-10-04T11:43:21.657Z</time>
      </trkpt>
      <trkpt lat="44.03266" lon="1.86868">
        <ele>287</ele>
        <time>2020-10-04T11:43:22.657Z</time>
      </trkpt>
      <trkpt lat="44.03265" lon="1.86867">
        <ele>287</ele>
        <time>2020-10-04T11:43:23.657Z</time>
      </trkpt>
      <trkpt lat="44.03264" lon="1.86866">
        <ele>287</ele>
        <time>2020-10-04T11:43:24.657Z</time>
      </trkpt>
      <trkpt lat="44.03263" lon="1.86866">
        <ele>287</ele>
        <time>2020-10-04T11:43:25.657Z</time>
      </trkpt>
      <trkpt lat="44.03262" lon="1.86865">
        <ele>287</ele>
        <time>2020-10-04T11:43:26.657Z</time>
      </trkpt>
      <trkpt lat="44.03261" lon="1.86864">
        <ele>287</ele>
        <time>2020-10-04T11:43:27.657Z</time>
      </trkpt>
      <trkpt lat="44.0326" lon="1.86863">
        <ele>287</ele>
        <time>2020-10-04T11:43:28.657Z</time>
      </trkpt>
      <trkpt lat="44.03259" lon="1.86862">
        <ele>287</ele>
        <time>2020-10-04T11:43:29.657Z</time>
      </trkpt>
      <trkpt lat="44.03258" lon="1.86862">
        <ele>287</ele>
        <time>2020-10-04T11:43:30.657Z</time>
      </trkpt>
      <trkpt lat="44.03257" lon="1.86861">
        <ele>287</ele>
        <time>2020-10-04T11:43:31.657Z</time>
      </trkpt>
      <trkpt lat="44.03257" lon="1.8686">
        <ele>287</ele>
        <time>2020-10-04T11:43:32.657Z</time>
      </trkpt>
      <trkpt lat="44.03256" lon="1.86859">
        <ele>287</ele>
        <time>2020-10-04T11:43:33.657Z</time>
      </trkpt>
      <trkpt lat="44.03255" lon="1.86858">
        <ele>287</ele>
        <time>2020-10-04T11:43:34.657Z</time>
      </trkpt>
      <trkpt lat="44.03254" lon="1.86857">
        <ele>287</ele>
        <time>2020-10-04T11:43:35.657Z</time>
      </trkpt>
      <trkpt lat="44.03253" lon="1.86856">
        <ele>287</ele>
        <time>2020-10-04T11:43:36.657Z</time>
      </trkpt>
      <trkpt lat="44.03253" lon="1.86855">
        <ele>287</ele>
        <time>2020-10-04T11:43:37.657Z</time>
      </trkpt>
      <trkpt lat="44.03252" lon="1.86855">
        <ele>287</ele>
        <time>2020-10-04T11:43:38.657Z</time>
      </trkpt>
      <trkpt lat="44.03251" lon="1.86854">
        <ele>287</ele>
        <time>2020-10-04T11:43:39.657Z</time>
      </trkpt>
      <trkpt lat="44.03251" lon="1.86854">
        <ele>287</ele>
        <time>2020-10-04T11:43:40.657Z</time>
      </trkpt>
      <trkpt lat="44.03249" lon="1.86852">
        <ele>288</ele>
        <time>2020-10-04T11:43:41.657Z</time>
      </trkpt>
      <trkpt lat="44.03249" lon="1.86851">
        <ele>288</ele>
        <time>2020-10-04T11:43:42.657Z</time>
      </trkpt>
      <trkpt lat="44.03248" lon="1.8685">
        <ele>288</ele>
        <time>2020-10-04T11:43:43.657Z</time>
      </trkpt>
      <trkpt lat="44.03247" lon="1.86849">
        <ele>288</ele>
        <time>2020-10-04T11:43:44.657Z</time>
      </trkpt>
      <trkpt lat="44.03246" lon="1.86848">
        <ele>288</ele>
        <time>2020-10-04T11:43:45.657Z</time>
      </trkpt>
      <trkpt lat="44.03245" lon="1.86848">
        <ele>288</ele>
        <time>2020-10-04T11:43:46.657Z</time>
      </trkpt>
      <trkpt lat="44.03245" lon="1.86848">
        <ele>288</ele>
        <time>2020-10-04T11:43:47.657Z</time>
      </trkpt>
      <trkpt lat="44.03243" lon="1.86846">
        <ele>288</ele>
        <time>2020-10-04T11:43:48.657Z</time>
      </trkpt>
      <trkpt lat="44.03242" lon="1.86845">
        <ele>288</ele>
        <time>2020-10-04T11:43:49.657Z</time>
      </trkpt>
      <trkpt lat="44.03242" lon="1.86844">
        <ele>288</ele>
        <time>2020-10-04T11:43:50.657Z</time>
      </trkpt>
      <trkpt lat="44.03242" lon="1.86844">
        <ele>288</ele>
        <time>2020-10-04T11:43:51.657Z</time>
      </trkpt>
      <trkpt lat="44.0324" lon="1.86841">
        <ele>288</ele>
        <time>2020-10-04T11:43:52.657Z</time>
      </trkpt>
      <trkpt lat="44.03239" lon="1.8684">
        <ele>288</ele>
        <time>2020-10-04T11:43:53.657Z</time>
      </trkpt>
      <trkpt lat="44.03239" lon="1.86839">
        <ele>288</ele>
        <time>2020-10-04T11:43:54.657Z</time>
      </trkpt>
      <trkpt lat="44.03238" lon="1.86838">
        <ele>287</ele>
        <time>2020-10-04T11:43:55.657Z</time>
      </trkpt>
      <trkpt lat="44.03237" lon="1.86837">
        <ele>288</ele>
        <time>2020-10-04T11:43:56.657Z</time>
      </trkpt>
      <trkpt lat="44.03237" lon="1.86836">
        <ele>288</ele>
        <time>2020-10-04T11:43:57.657Z</time>
      </trkpt>
      <trkpt lat="44.03236" lon="1.86835">
        <ele>288</ele>
        <time>2020-10-04T11:43:58.657Z</time>
      </trkpt>
      <trkpt lat="44.03236" lon="1.86835">
        <ele>288</ele>
        <time>2020-10-04T11:43:59.657Z</time>
      </trkpt>
      <trkpt lat="44.03234" lon="1.86833">
        <ele>288</ele>
        <time>2020-10-04T11:44:00.657Z</time>
      </trkpt>
      <trkpt lat="44.03234" lon="1.86831">
        <ele>288</ele>
        <time>2020-10-04T11:44:01.657Z</time>
      </trkpt>
      <trkpt lat="44.03233" lon="1.8683">
        <ele>288</ele>
        <time>2020-10-04T11:44:02.657Z</time>
      </trkpt>
      <trkpt lat="44.03232" lon="1.86829">
        <ele>288</ele>
        <time>2020-10-04T11:44:03.657Z</time>
      </trkpt>
      <trkpt lat="44.03231" lon="1.86828">
        <ele>288</ele>
        <time>2020-10-04T11:44:04.657Z</time>
      </trkpt>
      <trkpt lat="44.0323" lon="1.86827">
        <ele>288</ele>
        <time>2020-10-04T11:44:05.657Z</time>
      </trkpt>
      <trkpt lat="44.0323" lon="1.86825">
        <ele>288</ele>
        <time>2020-10-04T11:44:06.657Z</time>
      </trkpt>
      <trkpt lat="44.03229" lon="1.86824">
        <ele>288</ele>
        <time>2020-10-04T11:44:07.657Z</time>
      </trkpt>
      <trkpt lat="44.03228" lon="1.86823">
        <ele>288</ele>
        <time>2020-10-04T11:44:08.657Z</time>
      </trkpt>
      <trkpt lat="44.03228" lon="1.86822">
        <ele>288</ele>
        <time>2020-10-04T11:44:09.657Z</time>
      </trkpt>
      <trkpt lat="44.03228" lon="1.86822">
        <ele>288</ele>
        <time>2020-10-04T11:44:10.657Z</time>
      </trkpt>
      <trkpt lat="44.03226" lon="1.8682">
        <ele>288</ele>
        <time>2020-10-04T11:44:11.657Z</time>
      </trkpt>
      <trkpt lat="44.03225" lon="1.86818">
        <ele>288</ele>
        <time>2020-10-04T11:44:12.657Z</time>
      </trkpt>
      <trkpt lat="44.03224" lon="1.86817">
        <ele>288</ele>
        <time>2020-10-04T11:44:13.657Z</time>
      </trkpt>
      <trkpt lat="44.03224" lon="1.86816">
        <ele>288</ele>
        <time>2020-10-04T11:44:14.657Z</time>
      </trkpt>
      <trkpt lat="44.03223" lon="1.86815">
        <ele>288</ele>
        <time>2020-10-04T11:44:15.657Z</time>
      </trkpt>
      <trkpt lat="44.03222" lon="1.86814">
        <ele>288</ele>
        <time>2020-10-04T11:44:16.657Z</time>
      </trkpt>
      <trkpt lat="44.03222" lon="1.86814">
        <ele>288</ele>
        <time>2020-10-04T11:44:17.657Z</time>
      </trkpt>
      <trkpt lat="44.03221" lon="1.86813">
        <ele>289</ele>
        <time>2020-10-04T11:44:18.657Z</time>
      </trkpt>
      <trkpt lat="44.03221" lon="1.86812">
        <ele>289</ele>
        <time>2020-10-04T11:44:19.657Z</time>
      </trkpt>
      <trkpt lat="44.0322" lon="1.86811">
        <ele>289</ele>
        <time>2020-10-04T11:44:20.657Z</time>
      </trkpt>
      <trkpt lat="44.03219" lon="1.8681">
        <ele>289</ele>
        <time>2020-10-04T11:44:21.657Z</time>
      </trkpt>
      <trkpt lat="44.03219" lon="1.86809">
        <ele>289</ele>
        <time>2020-10-04T11:44:22.657Z</time>
      </trkpt>
      <trkpt lat="44.03218" lon="1.86808">
        <ele>289</ele>
        <time>2020-10-04T11:44:23.657Z</time>
      </trkpt>
      <trkpt lat="44.03217" lon="1.86807">
        <ele>289</ele>
        <time>2020-10-04T11:44:24.657Z</time>
      </trkpt>
      <trkpt lat="44.03217" lon="1.86806">
        <ele>289</ele>
        <time>2020-10-04T11:44:25.657Z</time>
      </trkpt>
      <trkpt lat="44.03216" lon="1.86805">
        <ele>289</ele>
        <time>2020-10-04T11:44:26.657Z</time>
      </trkpt>
      <trkpt lat="44.03216" lon="1.86804">
        <ele>289</ele>
        <time>2020-10-04T11:44:27.657Z</time>
      </trkpt>
      <trkpt lat="44.03216" lon="1.86804">
        <ele>289</ele>
        <time>2020-10-04T11:44:28.657Z</time>
      </trkpt>
      <trkpt lat="44.03215" lon="1.86803">
        <ele>289</ele>
        <time>2020-10-04T11:44:29.657Z</time>
      </trkpt>
      <trkpt lat="44.03213" lon="1.86801">
        <ele>289</ele>
        <time>2020-10-04T11:44:30.657Z</time>
      </trkpt>
      <trkpt lat="44.03213" lon="1.86801">
        <ele>289</ele>
        <time>2020-10-04T11:44:31.657Z</time>
      </trkpt>
      <trkpt lat="44.03212" lon="1.868">
        <ele>289</ele>
        <time>2020-10-04T11:44:32.657Z</time>
      </trkpt>
      <trkpt lat="44.03211" lon="1.86799">
        <ele>289</ele>
        <time>2020-10-04T11:44:33.657Z</time>
      </trkpt>
      <trkpt lat="44.0321" lon="1.86797">
        <ele>289</ele>
        <time>2020-10-04T11:44:34.657Z</time>
      </trkpt>
      <trkpt lat="44.03209" lon="1.86796">
        <ele>289</ele>
        <time>2020-10-04T11:44:35.657Z</time>
      </trkpt>
      <trkpt lat="44.03208" lon="1.86795">
        <ele>289</ele>
        <time>2020-10-04T11:44:36.657Z</time>
      </trkpt>
      <trkpt lat="44.03208" lon="1.86795">
        <ele>289</ele>
        <time>2020-10-04T11:44:37.657Z</time>
      </trkpt>
      <trkpt lat="44.03206" lon="1.86793">
        <ele>289</ele>
        <time>2020-10-04T11:44:38.657Z</time>
      </trkpt>
      <trkpt lat="44.03205" lon="1.86792">
        <ele>289</ele>
        <time>2020-10-04T11:44:39.657Z</time>
      </trkpt>
      <trkpt lat="44.03205" lon="1.8679">
        <ele>289</ele>
        <time>2020-10-04T11:44:40.657Z</time>
      </trkpt>
      <trkpt lat="44.03205" lon="1.8679">
        <ele>289</ele>
        <time>2020-10-04T11:44:41.657Z</time>
      </trkpt>
      <trkpt lat="44.03203" lon="1.86788">
        <ele>289</ele>
        <time>2020-10-04T11:44:42.657Z</time>
      </trkpt>
      <trkpt lat="44.03202" lon="1.86787">
        <ele>289</ele>
        <time>2020-10-04T11:44:43.657Z</time>
      </trkpt>
      <trkpt lat="44.03201" lon="1.86786">
        <ele>289</ele>
        <time>2020-10-04T11:44:44.657Z</time>
      </trkpt>
      <trkpt lat="44.032" lon="1.86785">
        <ele>289</ele>
        <time>2020-10-04T11:44:45.657Z</time>
      </trkpt>
      <trkpt lat="44.03199" lon="1.86784">
        <ele>289</ele>
        <time>2020-10-04T11:44:46.657Z</time>
      </trkpt>
      <trkpt lat="44.03198" lon="1.86783">
        <ele>289</ele>
        <time>2020-10-04T11:44:47.657Z</time>
      </trkpt>
      <trkpt lat="44.03197" lon="1.86782">
        <ele>289</ele>
        <time>2020-10-04T11:44:48.657Z</time>
      </trkpt>
      <trkpt lat="44.03197" lon="1.86781">
        <ele>289</ele>
        <time>2020-10-04T11:44:49.657Z</time>
      </trkpt>
      <trkpt lat="44.03197" lon="1.86781">
        <ele>289</ele>
        <time>2020-10-04T11:44:50.657Z</time>
      </trkpt>
      <trkpt lat="44.03195" lon="1.86779">
        <ele>289</ele>
        <time>2020-10-04T11:44:51.657Z</time>
      </trkpt>
      <trkpt lat="44.03194" lon="1.86778">
        <ele>289</ele>
        <time>2020-10-04T11:44:52.657Z</time>
      </trkpt>
      <trkpt lat="44.03193" lon="1.86778">
        <ele>289</ele>
        <time>2020-10-04T11:44:53.657Z</time>
      </trkpt>
      <trkpt lat="44.03192" lon="1.86777">
        <ele>289</ele>
        <time>2020-10-04T11:44:54.657Z</time>
      </trkpt>
      <trkpt lat="44.03191" lon="1.86775">
        <ele>288</ele>
        <time>2020-10-04T11:44:55.657Z</time>
      </trkpt>
      <trkpt lat="44.0319" lon="1.86774">
        <ele>288</ele>
        <time>2020-10-04T11:44:56.657Z</time>
      </trkpt>
      <trkpt lat="44.03189" lon="1.86773">
        <ele>288</ele>
        <time>2020-10-04T11:44:57.657Z</time>
      </trkpt>
      <trkpt lat="44.03188" lon="1.86772">
        <ele>288</ele>
        <time>2020-10-04T11:44:58.657Z</time>
      </trkpt>
      <trkpt lat="44.03187" lon="1.86771">
        <ele>288</ele>
        <time>2020-10-04T11:44:59.657Z</time>
      </trkpt>
      <trkpt lat="44.03187" lon="1.86771">
        <ele>288</ele>
        <time>2020-10-04T11:45:00.657Z</time>
      </trkpt>
      <trkpt lat="44.03185" lon="1.8677">
        <ele>288</ele>
        <time>2020-10-04T11:45:01.657Z</time>
      </trkpt>
      <trkpt lat="44.03184" lon="1.86769">
        <ele>288</ele>
        <time>2020-10-04T11:45:02.657Z</time>
      </trkpt>
      <trkpt lat="44.03183" lon="1.86768">
        <ele>288</ele>
        <time>2020-10-04T11:45:03.657Z</time>
      </trkpt>
      <trkpt lat="44.03182" lon="1.86767">
        <ele>288</ele>
        <time>2020-10-04T11:45:04.657Z</time>
      </trkpt>
      <trkpt lat="44.03181" lon="1.86766">
        <ele>288</ele>
        <time>2020-10-04T11:45:05.657Z</time>
      </trkpt>
      <trkpt lat="44.0318" lon="1.86765">
        <ele>288</ele>
        <time>2020-10-04T11:45:06.657Z</time>
      </trkpt>
      <trkpt lat="44.0318" lon="1.86764">
        <ele>288</ele>
        <time>2020-10-04T11:45:07.657Z</time>
      </trkpt>
      <trkpt lat="44.03179" lon="1.86763">
        <ele>288</ele>
        <time>2020-10-04T11:45:08.657Z</time>
      </trkpt>
      <trkpt lat="44.03178" lon="1.86762">
        <ele>288</ele>
        <time>2020-10-04T11:45:09.657Z</time>
      </trkpt>
      <trkpt lat="44.03177" lon="1.86761">
        <ele>288</ele>
        <time>2020-10-04T11:45:10.657Z</time>
      </trkpt>
      <trkpt lat="44.03176" lon="1.8676">
        <ele>288</ele>
        <time>2020-10-04T11:45:11.657Z</time>
      </trkpt>
      <trkpt lat="44.03175" lon="1.86759">
        <ele>288</ele>
        <time>2020-10-04T11:45:12.657Z</time>
      </trkpt>
      <trkpt lat="44.03174" lon="1.86758">
        <ele>288</ele>
        <time>2020-10-04T11:45:13.657Z</time>
      </trkpt>
      <trkpt lat="44.03173" lon="1.86757">
        <ele>288</ele>
        <time>2020-10-04T11:45:14.657Z</time>
      </trkpt>
      <trkpt lat="44.03172" lon="1.86756">
        <ele>288</ele>
        <time>2020-10-04T11:45:15.657Z</time>
      </trkpt>
      <trkpt lat="44.03171" lon="1.86755">
        <ele>288</ele>
        <time>2020-10-04T11:45:16.657Z</time>
      </trkpt>
      <trkpt lat="44.0317" lon="1.86754">
        <ele>288</ele>
        <time>2020-10-04T11:45:17.657Z</time>
      </trkpt>
      <trkpt lat="44.0317" lon="1.86754">
        <ele>288</ele>
        <time>2020-10-04T11:45:18.657Z</time>
      </trkpt>
      <trkpt lat="44.03169" lon="1.86753">
        <ele>288</ele>
        <time>2020-10-04T11:45:19.657Z</time>
      </trkpt>
      <trkpt lat="44.03167" lon="1.86751">
        <ele>288</ele>
        <time>2020-10-04T11:45:20.657Z</time>
      </trkpt>
      <trkpt lat="44.03167" lon="1.86751">
        <ele>288</ele>
        <time>2020-10-04T11:45:21.657Z</time>
      </trkpt>
      <trkpt lat="44.03166" lon="1.8675">
        <ele>288</ele>
        <time>2020-10-04T11:45:22.657Z</time>
      </trkpt>
      <trkpt lat="44.03165" lon="1.86748">
        <ele>288</ele>
        <time>2020-10-04T11:45:23.657Z</time>
      </trkpt>
      <trkpt lat="44.03163" lon="1.86746">
        <ele>288</ele>
        <time>2020-10-04T11:45:24.657Z</time>
      </trkpt>
      <trkpt lat="44.03162" lon="1.86745">
        <ele>288</ele>
        <time>2020-10-04T11:45:25.657Z</time>
      </trkpt>
      <trkpt lat="44.03161" lon="1.86744">
        <ele>288</ele>
        <time>2020-10-04T11:45:26.657Z</time>
      </trkpt>
      <trkpt lat="44.03161" lon="1.86743">
        <ele>288</ele>
        <time>2020-10-04T11:45:27.657Z</time>
      </trkpt>
      <trkpt lat="44.03161" lon="1.86743">
        <ele>288</ele>
        <time>2020-10-04T11:45:28.657Z</time>
      </trkpt>
      <trkpt lat="44.03159" lon="1.8674">
        <ele>288</ele>
        <time>2020-10-04T11:45:29.657Z</time>
      </trkpt>
      <trkpt lat="44.03158" lon="1.86739">
        <ele>288</ele>
        <time>2020-10-04T11:45:30.657Z</time>
      </trkpt>
      <trkpt lat="44.03157" lon="1.86738">
        <ele>288</ele>
        <time>2020-10-04T11:45:31.657Z</time>
      </trkpt>
      <trkpt lat="44.03157" lon="1.86738">
        <ele>288</ele>
        <time>2020-10-04T11:45:32.657Z</time>
      </trkpt>
      <trkpt lat="44.03155" lon="1.86736">
        <ele>288</ele>
        <time>2020-10-04T11:45:33.657Z</time>
      </trkpt>
      <trkpt lat="44.03155" lon="1.86735">
        <ele>288</ele>
        <time>2020-10-04T11:45:34.657Z</time>
      </trkpt>
      <trkpt lat="44.03155" lon="1.86735">
        <ele>288</ele>
        <time>2020-10-04T11:45:35.657Z</time>
      </trkpt>
      <trkpt lat="44.03155" lon="1.86735">
        <ele>288</ele>
        <time>2020-10-04T11:45:36.657Z</time>
      </trkpt>
      <trkpt lat="44.03155" lon="1.86735">
        <ele>288</ele>
        <time>2020-10-04T11:45:37.657Z</time>
      </trkpt>
      <trkpt lat="44.03154" lon="1.86734">
        <ele>288</ele>
        <time>2020-10-04T11:45:38.657Z</time>
      </trkpt>
      <trkpt lat="44.03153" lon="1.86733">
        <ele>288</ele>
        <time>2020-10-04T11:45:39.657Z</time>
      </trkpt>
      <trkpt lat="44.03153" lon="1.86733">
        <ele>288</ele>
        <time>2020-10-04T11:45:40.657Z</time>
      </trkpt>
      <trkpt lat="44.03153" lon="1.86732">
        <ele>288</ele>
        <time>2020-10-04T11:45:41.657Z</time>
      </trkpt>
      <trkpt lat="44.03152" lon="1.86732">
        <ele>288</ele>
        <time>2020-10-04T11:45:42.657Z</time>
      </trkpt>
      <trkpt lat="44.03152" lon="1.86731">
        <ele>288</ele>
        <time>2020-10-04T11:45:43.657Z</time>
      </trkpt>
      <trkpt lat="44.03151" lon="1.8673">
        <ele>288</ele>
        <time>2020-10-04T11:45:44.657Z</time>
      </trkpt>
      <trkpt lat="44.0315" lon="1.86729">
        <ele>288</ele>
        <time>2020-10-04T11:45:45.657Z</time>
      </trkpt>
      <trkpt lat="44.0315" lon="1.86728">
        <ele>288</ele>
        <time>2020-10-04T11:45:46.657Z</time>
      </trkpt>
      <trkpt lat="44.03149" lon="1.86726">
        <ele>288</ele>
        <time>2020-10-04T11:45:47.657Z</time>
      </trkpt>
      <trkpt lat="44.03148" lon="1.86725">
        <ele>288</ele>
        <time>2020-10-04T11:45:48.657Z</time>
      </trkpt>
      <trkpt lat="44.03148" lon="1.86724">
        <ele>288</ele>
        <time>2020-10-04T11:45:49.657Z</time>
      </trkpt>
      <trkpt lat="44.03147" lon="1.86723">
        <ele>288</ele>
        <time>2020-10-04T11:45:50.657Z</time>
      </trkpt>
      <trkpt lat="44.03147" lon="1.86723">
        <ele>288</ele>
        <time>2020-10-04T11:45:51.657Z</time>
      </trkpt>
      <trkpt lat="44.03145" lon="1.8672">
        <ele>288</ele>
        <time>2020-10-04T11:45:52.657Z</time>
      </trkpt>
      <trkpt lat="44.03145" lon="1.86719">
        <ele>288</ele>
        <time>2020-10-04T11:45:53.657Z</time>
      </trkpt>
      <trkpt lat="44.03144" lon="1.86718">
        <ele>288</ele>
        <time>2020-10-04T11:45:54.657Z</time>
      </trkpt>
      <trkpt lat="44.03144" lon="1.86717">
        <ele>288</ele>
        <time>2020-10-04T11:45:55.657Z</time>
      </trkpt>
      <trkpt lat="44.03143" lon="1.86716">
        <ele>288</ele>
        <time>2020-10-04T11:45:56.657Z</time>
      </trkpt>
      <trkpt lat="44.03143" lon="1.86715">
        <ele>288</ele>
        <time>2020-10-04T11:45:57.657Z</time>
      </trkpt>
      <trkpt lat="44.03143" lon="1.86714">
        <ele>288</ele>
        <time>2020-10-04T11:45:58.657Z</time>
      </trkpt>
      <trkpt lat="44.03142" lon="1.86713">
        <ele>288</ele>
        <time>2020-10-04T11:45:59.657Z</time>
      </trkpt>
      <trkpt lat="44.03142" lon="1.86713">
        <ele>288</ele>
        <time>2020-10-04T11:46:00.657Z</time>
      </trkpt>
      <trkpt lat="44.03142" lon="1.86713">
        <ele>288</ele>
        <time>2020-10-04T11:46:01.657Z</time>
      </trkpt>
      <trkpt lat="44.03141" lon="1.86713">
        <ele>288</ele>
        <time>2020-10-04T11:46:02.657Z</time>
      </trkpt>
      <trkpt lat="44.03141" lon="1.86712">
        <ele>288</ele>
        <time>2020-10-04T11:46:03.657Z</time>
      </trkpt>
      <trkpt lat="44.0314" lon="1.8671">
        <ele>288</ele>
        <time>2020-10-04T11:46:04.657Z</time>
      </trkpt>
      <trkpt lat="44.03139" lon="1.86709">
        <ele>288</ele>
        <time>2020-10-04T11:46:05.657Z</time>
      </trkpt>
      <trkpt lat="44.03139" lon="1.86709">
        <ele>288</ele>
        <time>2020-10-04T11:46:06.657Z</time>
      </trkpt>
      <trkpt lat="44.03138" lon="1.86707">
        <ele>288</ele>
        <time>2020-10-04T11:46:07.657Z</time>
      </trkpt>
      <trkpt lat="44.03138" lon="1.86706">
        <ele>288</ele>
        <time>2020-10-04T11:46:08.657Z</time>
      </trkpt>
      <trkpt lat="44.03138" lon="1.86706">
        <ele>288</ele>
        <time>2020-10-04T11:46:09.657Z</time>
      </trkpt>
      <trkpt lat="44.03137" lon="1.86706">
        <ele>288</ele>
        <time>2020-10-04T11:46:10.657Z</time>
      </trkpt>
      <trkpt lat="44.03136" lon="1.86704">
        <ele>288</ele>
        <time>2020-10-04T11:46:11.657Z</time>
      </trkpt>
      <trkpt lat="44.03136" lon="1.86704">
        <ele>288</ele>
        <time>2020-10-04T11:46:12.657Z</time>
      </trkpt>
      <trkpt lat="44.03136" lon="1.86703">
        <ele>288</ele>
        <time>2020-10-04T11:46:13.657Z</time>
      </trkpt>
      <trkpt lat="44.03135" lon="1.86701">
        <ele>288</ele>
        <time>2020-10-04T11:46:14.657Z</time>
      </trkpt>
      <trkpt lat="44.03134" lon="1.867">
        <ele>288</ele>
        <time>2020-10-04T11:46:15.657Z</time>
      </trkpt>
      <trkpt lat="44.03134" lon="1.86699">
        <ele>288</ele>
        <time>2020-10-04T11:46:16.657Z</time>
      </trkpt>
      <trkpt lat="44.03134" lon="1.86697">
        <ele>288</ele>
        <time>2020-10-04T11:46:17.657Z</time>
      </trkpt>
      <trkpt lat="44.03134" lon="1.86697">
        <ele>288</ele>
        <time>2020-10-04T11:46:18.657Z</time>
      </trkpt>
      <trkpt lat="44.03133" lon="1.86695">
        <ele>288</ele>
        <time>2020-10-04T11:46:19.657Z</time>
      </trkpt>
      <trkpt lat="44.03132" lon="1.86694">
        <ele>288</ele>
        <time>2020-10-04T11:46:20.657Z</time>
      </trkpt>
      <trkpt lat="44.03132" lon="1.86693">
        <ele>288</ele>
        <time>2020-10-04T11:46:21.657Z</time>
      </trkpt>
      <trkpt lat="44.03132" lon="1.86693">
        <ele>288</ele>
        <time>2020-10-04T11:46:22.657Z</time>
      </trkpt>
      <trkpt lat="44.03131" lon="1.86691">
        <ele>288</ele>
        <time>2020-10-04T11:46:23.657Z</time>
      </trkpt>
      <trkpt lat="44.0313" lon="1.8669">
        <ele>288</ele>
        <time>2020-10-04T11:46:24.657Z</time>
      </trkpt>
      <trkpt lat="44.0313" lon="1.86689">
        <ele>288</ele>
        <time>2020-10-04T11:46:25.657Z</time>
      </trkpt>
      <trkpt lat="44.0313" lon="1.86688">
        <ele>288</ele>
        <time>2020-10-04T11:46:26.657Z</time>
      </trkpt>
      <trkpt lat="44.03129" lon="1.86687">
        <ele>288</ele>
        <time>2020-10-04T11:46:27.657Z</time>
      </trkpt>
      <trkpt lat="44.03129" lon="1.86686">
        <ele>288</ele>
        <time>2020-10-04T11:46:28.657Z</time>
      </trkpt>
      <trkpt lat="44.03128" lon="1.86684">
        <ele>288</ele>
        <time>2020-10-04T11:46:29.657Z</time>
      </trkpt>
      <trkpt lat="44.03128" lon="1.86683">
        <ele>288</ele>
        <time>2020-10-04T11:46:30.657Z</time>
      </trkpt>
      <trkpt lat="44.03128" lon="1.86683">
        <ele>288</ele>
        <time>2020-10-04T11:46:31.657Z</time>
      </trkpt>
      <trkpt lat="44.03128" lon="1.86681">
        <ele>288</ele>
        <time>2020-10-04T11:46:32.657Z</time>
      </trkpt>
      <trkpt lat="44.03129" lon="1.8668">
        <ele>288</ele>
        <time>2020-10-04T11:46:33.657Z</time>
      </trkpt>
      <trkpt lat="44.03129" lon="1.86679">
        <ele>288</ele>
        <time>2020-10-04T11:46:34.657Z</time>
      </trkpt>
      <trkpt lat="44.03129" lon="1.86677">
        <ele>288</ele>
        <time>2020-10-04T11:46:35.657Z</time>
      </trkpt>
      <trkpt lat="44.0313" lon="1.86676">
        <ele>288</ele>
        <time>2020-10-04T11:46:36.657Z</time>
      </trkpt>
      <trkpt lat="44.0313" lon="1.86675">
        <ele>288</ele>
        <time>2020-10-04T11:46:37.657Z</time>
      </trkpt>
      <trkpt lat="44.03131" lon="1.86674">
        <ele>288</ele>
        <time>2020-10-04T11:46:38.657Z</time>
      </trkpt>
      <trkpt lat="44.03131" lon="1.86673">
        <ele>288</ele>
        <time>2020-10-04T11:46:39.657Z</time>
      </trkpt>
      <trkpt lat="44.03132" lon="1.86672">
        <ele>288</ele>
        <time>2020-10-04T11:46:40.657Z</time>
      </trkpt>
      <trkpt lat="44.03132" lon="1.86672">
        <ele>288</ele>
        <time>2020-10-04T11:46:41.657Z</time>
      </trkpt>
      <trkpt lat="44.03133" lon="1.86671">
        <ele>288</ele>
        <time>2020-10-04T11:46:42.657Z</time>
      </trkpt>
      <trkpt lat="44.03134" lon="1.8667">
        <ele>288</ele>
        <time>2020-10-04T11:46:43.657Z</time>
      </trkpt>
      <trkpt lat="44.03135" lon="1.86669">
        <ele>288</ele>
        <time>2020-10-04T11:46:44.657Z</time>
      </trkpt>
      <trkpt lat="44.03136" lon="1.86668">
        <ele>288</ele>
        <time>2020-10-04T11:46:45.657Z</time>
      </trkpt>
      <trkpt lat="44.03136" lon="1.86667">
        <ele>288</ele>
        <time>2020-10-04T11:46:46.657Z</time>
      </trkpt>
      <trkpt lat="44.03137" lon="1.86667">
        <ele>287</ele>
        <time>2020-10-04T11:46:47.657Z</time>
      </trkpt>
      <trkpt lat="44.03138" lon="1.86666">
        <ele>287</ele>
        <time>2020-10-04T11:46:48.657Z</time>
      </trkpt>
      <trkpt lat="44.03139" lon="1.86665">
        <ele>287</ele>
        <time>2020-10-04T11:46:49.657Z</time>
      </trkpt>
      <trkpt lat="44.0314" lon="1.86664">
        <ele>287</ele>
        <time>2020-10-04T11:46:50.657Z</time>
      </trkpt>
      <trkpt lat="44.0314" lon="1.86663">
        <ele>287</ele>
        <time>2020-10-04T11:46:51.657Z</time>
      </trkpt>
      <trkpt lat="44.03141" lon="1.86662">
        <ele>287</ele>
        <time>2020-10-04T11:46:52.657Z</time>
      </trkpt>
      <trkpt lat="44.03142" lon="1.86661">
        <ele>287</ele>
        <time>2020-10-04T11:46:53.657Z</time>
      </trkpt>
      <trkpt lat="44.03142" lon="1.8666">
        <ele>287</ele>
        <time>2020-10-04T11:46:54.657Z</time>
      </trkpt>
      <trkpt lat="44.03143" lon="1.86658">
        <ele>287</ele>
        <time>2020-10-04T11:46:55.657Z</time>
      </trkpt>
      <trkpt lat="44.03144" lon="1.86657">
        <ele>287</ele>
        <time>2020-10-04T11:46:56.657Z</time>
      </trkpt>
      <trkpt lat="44.03144" lon="1.86656">
        <ele>287</ele>
        <time>2020-10-04T11:46:57.657Z</time>
      </trkpt>
      <trkpt lat="44.03145" lon="1.86655">
        <ele>287</ele>
        <time>2020-10-04T11:46:58.657Z</time>
      </trkpt>
      <trkpt lat="44.03145" lon="1.86655">
        <ele>287</ele>
        <time>2020-10-04T11:46:59.657Z</time>
      </trkpt>
      <trkpt lat="44.03146" lon="1.86654">
        <ele>286</ele>
        <time>2020-10-04T11:47:00.657Z</time>
      </trkpt>
      <trkpt lat="44.03147" lon="1.86651">
        <ele>286</ele>
        <time>2020-10-04T11:47:01.657Z</time>
      </trkpt>
      <trkpt lat="44.03147" lon="1.86651">
        <ele>286</ele>
        <time>2020-10-04T11:47:02.657Z</time>
      </trkpt>
      <trkpt lat="44.03148" lon="1.8665">
        <ele>286</ele>
        <time>2020-10-04T11:47:03.657Z</time>
      </trkpt>
      <trkpt lat="44.03149" lon="1.86649">
        <ele>286</ele>
        <time>2020-10-04T11:47:04.657Z</time>
      </trkpt>
      <trkpt lat="44.03151" lon="1.86646">
        <ele>286</ele>
        <time>2020-10-04T11:47:05.657Z</time>
      </trkpt>
      <trkpt lat="44.03151" lon="1.86645">
        <ele>286</ele>
        <time>2020-10-04T11:47:06.657Z</time>
      </trkpt>
      <trkpt lat="44.03152" lon="1.86644">
        <ele>286</ele>
        <time>2020-10-04T11:47:07.657Z</time>
      </trkpt>
      <trkpt lat="44.03153" lon="1.86643">
        <ele>286</ele>
        <time>2020-10-04T11:47:08.657Z</time>
      </trkpt>
      <trkpt lat="44.03153" lon="1.86643">
        <ele>286</ele>
        <time>2020-10-04T11:47:09.657Z</time>
      </trkpt>
      <trkpt lat="44.03155" lon="1.86641">
        <ele>286</ele>
        <time>2020-10-04T11:47:10.657Z</time>
      </trkpt>
      <trkpt lat="44.03156" lon="1.8664">
        <ele>286</ele>
        <time>2020-10-04T11:47:11.657Z</time>
      </trkpt>
      <trkpt lat="44.03157" lon="1.86639">
        <ele>286</ele>
        <time>2020-10-04T11:47:12.657Z</time>
      </trkpt>
      <trkpt lat="44.03157" lon="1.86639">
        <ele>286</ele>
        <time>2020-10-04T11:47:13.657Z</time>
      </trkpt>
      <trkpt lat="44.03158" lon="1.86636">
        <ele>286</ele>
        <time>2020-10-04T11:47:14.657Z</time>
      </trkpt>
      <trkpt lat="44.03159" lon="1.86635">
        <ele>286</ele>
        <time>2020-10-04T11:47:15.657Z</time>
      </trkpt>
      <trkpt lat="44.0316" lon="1.86634">
        <ele>286</ele>
        <time>2020-10-04T11:47:16.657Z</time>
      </trkpt>
      <trkpt lat="44.03161" lon="1.86633">
        <ele>286</ele>
        <time>2020-10-04T11:47:17.657Z</time>
      </trkpt>
      <trkpt lat="44.03161" lon="1.86632">
        <ele>286</ele>
        <time>2020-10-04T11:47:18.657Z</time>
      </trkpt>
      <trkpt lat="44.03162" lon="1.86631">
        <ele>286</ele>
        <time>2020-10-04T11:47:19.657Z</time>
      </trkpt>
      <trkpt lat="44.03163" lon="1.86629">
        <ele>286</ele>
        <time>2020-10-04T11:47:20.657Z</time>
      </trkpt>
      <trkpt lat="44.03163" lon="1.86629">
        <ele>286</ele>
        <time>2020-10-04T11:47:21.657Z</time>
      </trkpt>
      <trkpt lat="44.03164" lon="1.86627">
        <ele>286</ele>
        <time>2020-10-04T11:47:22.657Z</time>
      </trkpt>
      <trkpt lat="44.03165" lon="1.86625">
        <ele>286</ele>
        <time>2020-10-04T11:47:23.657Z</time>
      </trkpt>
      <trkpt lat="44.03166" lon="1.86624">
        <ele>286</ele>
        <time>2020-10-04T11:47:24.657Z</time>
      </trkpt>
      <trkpt lat="44.03166" lon="1.86623">
        <ele>286</ele>
        <time>2020-10-04T11:47:25.657Z</time>
      </trkpt>
      <trkpt lat="44.03167" lon="1.86622">
        <ele>286</ele>
        <time>2020-10-04T11:47:26.657Z</time>
      </trkpt>
      <trkpt lat="44.03168" lon="1.8662">
        <ele>286</ele>
        <time>2020-10-04T11:47:27.657Z</time>
      </trkpt>
      <trkpt lat="44.03169" lon="1.86619">
        <ele>286</ele>
        <time>2020-10-04T11:47:28.657Z</time>
      </trkpt>
      <trkpt lat="44.0317" lon="1.86618">
        <ele>286</ele>
        <time>2020-10-04T11:47:29.657Z</time>
      </trkpt>
      <trkpt lat="44.03171" lon="1.86617">
        <ele>286</ele>
        <time>2020-10-04T11:47:30.657Z</time>
      </trkpt>
      <trkpt lat="44.03171" lon="1.86616">
        <ele>286</ele>
        <time>2020-10-04T11:47:31.657Z</time>
      </trkpt>
      <trkpt lat="44.03171" lon="1.86616">
        <ele>286</ele>
        <time>2020-10-04T11:47:32.657Z</time>
      </trkpt>
      <trkpt lat="44.03173" lon="1.86613">
        <ele>286</ele>
        <time>2020-10-04T11:47:33.657Z</time>
      </trkpt>
      <trkpt lat="44.03174" lon="1.86612">
        <ele>286</ele>
        <time>2020-10-04T11:47:34.657Z</time>
      </trkpt>
      <trkpt lat="44.03175" lon="1.86611">
        <ele>286</ele>
        <time>2020-10-04T11:47:35.657Z</time>
      </trkpt>
      <trkpt lat="44.03176" lon="1.8661">
        <ele>286</ele>
        <time>2020-10-04T11:47:36.657Z</time>
      </trkpt>
      <trkpt lat="44.03177" lon="1.86609">
        <ele>286</ele>
        <time>2020-10-04T11:47:37.657Z</time>
      </trkpt>
      <trkpt lat="44.03177" lon="1.86607">
        <ele>286</ele>
        <time>2020-10-04T11:47:38.657Z</time>
      </trkpt>
      <trkpt lat="44.03178" lon="1.86606">
        <ele>286</ele>
        <time>2020-10-04T11:47:39.657Z</time>
      </trkpt>
      <trkpt lat="44.03179" lon="1.86605">
        <ele>286</ele>
        <time>2020-10-04T11:47:40.657Z</time>
      </trkpt>
      <trkpt lat="44.0318" lon="1.86603">
        <ele>286</ele>
        <time>2020-10-04T11:47:41.657Z</time>
      </trkpt>
      <trkpt lat="44.03181" lon="1.86602">
        <ele>286</ele>
        <time>2020-10-04T11:47:42.657Z</time>
      </trkpt>
      <trkpt lat="44.03181" lon="1.86601">
        <ele>286</ele>
        <time>2020-10-04T11:47:43.657Z</time>
      </trkpt>
      <trkpt lat="44.03182" lon="1.866">
        <ele>286</ele>
        <time>2020-10-04T11:47:44.657Z</time>
      </trkpt>
      <trkpt lat="44.03183" lon="1.86598">
        <ele>285</ele>
        <time>2020-10-04T11:47:45.657Z</time>
      </trkpt>
      <trkpt lat="44.03184" lon="1.86597">
        <ele>285</ele>
        <time>2020-10-04T11:47:46.657Z</time>
      </trkpt>
      <trkpt lat="44.03185" lon="1.86596">
        <ele>285</ele>
        <time>2020-10-04T11:47:47.657Z</time>
      </trkpt>
      <trkpt lat="44.03186" lon="1.86595">
        <ele>285</ele>
        <time>2020-10-04T11:47:48.657Z</time>
      </trkpt>
      <trkpt lat="44.03186" lon="1.86594">
        <ele>285</ele>
        <time>2020-10-04T11:47:49.657Z</time>
      </trkpt>
      <trkpt lat="44.03186" lon="1.86594">
        <ele>285</ele>
        <time>2020-10-04T11:47:50.657Z</time>
      </trkpt>
      <trkpt lat="44.03187" lon="1.86593">
        <ele>285</ele>
        <time>2020-10-04T11:47:51.657Z</time>
      </trkpt>
      <trkpt lat="44.03189" lon="1.8659">
        <ele>285</ele>
        <time>2020-10-04T11:47:52.657Z</time>
      </trkpt>
      <trkpt lat="44.03189" lon="1.8659">
        <ele>285</ele>
        <time>2020-10-04T11:47:53.657Z</time>
      </trkpt>
      <trkpt lat="44.0319" lon="1.86589">
        <ele>285</ele>
        <time>2020-10-04T11:47:54.657Z</time>
      </trkpt>
      <trkpt lat="44.0319" lon="1.86588">
        <ele>284</ele>
        <time>2020-10-04T11:47:55.657Z</time>
      </trkpt>
      <trkpt lat="44.03192" lon="1.86586">
        <ele>284</ele>
        <time>2020-10-04T11:47:56.657Z</time>
      </trkpt>
      <trkpt lat="44.03193" lon="1.86585">
        <ele>284</ele>
        <time>2020-10-04T11:47:57.657Z</time>
      </trkpt>
      <trkpt lat="44.03194" lon="1.86583">
        <ele>284</ele>
        <time>2020-10-04T11:47:58.657Z</time>
      </trkpt>
      <trkpt lat="44.03195" lon="1.86582">
        <ele>284</ele>
        <time>2020-10-04T11:47:59.657Z</time>
      </trkpt>
      <trkpt lat="44.03195" lon="1.86582">
        <ele>284</ele>
        <time>2020-10-04T11:48:00.657Z</time>
      </trkpt>
      <trkpt lat="44.03196" lon="1.8658">
        <ele>284</ele>
        <time>2020-10-04T11:48:01.657Z</time>
      </trkpt>
      <trkpt lat="44.03197" lon="1.86579">
        <ele>284</ele>
        <time>2020-10-04T11:48:02.657Z</time>
      </trkpt>
      <trkpt lat="44.03198" lon="1.86577">
        <ele>284</ele>
        <time>2020-10-04T11:48:03.657Z</time>
      </trkpt>
      <trkpt lat="44.03198" lon="1.86577">
        <ele>284</ele>
        <time>2020-10-04T11:48:04.657Z</time>
      </trkpt>
      <trkpt lat="44.032" lon="1.86575">
        <ele>284</ele>
        <time>2020-10-04T11:48:05.657Z</time>
      </trkpt>
      <trkpt lat="44.03201" lon="1.86573">
        <ele>284</ele>
        <time>2020-10-04T11:48:06.657Z</time>
      </trkpt>
      <trkpt lat="44.03201" lon="1.86572">
        <ele>284</ele>
        <time>2020-10-04T11:48:07.657Z</time>
      </trkpt>
      <trkpt lat="44.03202" lon="1.86571">
        <ele>284</ele>
        <time>2020-10-04T11:48:08.657Z</time>
      </trkpt>
      <trkpt lat="44.03203" lon="1.8657">
        <ele>284</ele>
        <time>2020-10-04T11:48:09.657Z</time>
      </trkpt>
      <trkpt lat="44.03204" lon="1.86568">
        <ele>284</ele>
        <time>2020-10-04T11:48:10.657Z</time>
      </trkpt>
      <trkpt lat="44.03205" lon="1.86567">
        <ele>284</ele>
        <time>2020-10-04T11:48:11.657Z</time>
      </trkpt>
      <trkpt lat="44.03205" lon="1.86567">
        <ele>284</ele>
        <time>2020-10-04T11:48:12.657Z</time>
      </trkpt>
      <trkpt lat="44.03206" lon="1.86565">
        <ele>284</ele>
        <time>2020-10-04T11:48:13.657Z</time>
      </trkpt>
      <trkpt lat="44.03207" lon="1.86564">
        <ele>284</ele>
        <time>2020-10-04T11:48:14.657Z</time>
      </trkpt>
      <trkpt lat="44.03208" lon="1.86563">
        <ele>284</ele>
        <time>2020-10-04T11:48:15.657Z</time>
      </trkpt>
      <trkpt lat="44.03209" lon="1.86561">
        <ele>284</ele>
        <time>2020-10-04T11:48:16.657Z</time>
      </trkpt>
      <trkpt lat="44.03209" lon="1.8656">
        <ele>284</ele>
        <time>2020-10-04T11:48:17.657Z</time>
      </trkpt>
      <trkpt lat="44.0321" lon="1.86559">
        <ele>284</ele>
        <time>2020-10-04T11:48:18.657Z</time>
      </trkpt>
      <trkpt lat="44.03211" lon="1.86558">
        <ele>284</ele>
        <time>2020-10-04T11:48:19.657Z</time>
      </trkpt>
      <trkpt lat="44.03212" lon="1.86557">
        <ele>283</ele>
        <time>2020-10-04T11:48:20.657Z</time>
      </trkpt>
      <trkpt lat="44.03213" lon="1.86556">
        <ele>283</ele>
        <time>2020-10-04T11:48:21.657Z</time>
      </trkpt>
      <trkpt lat="44.03214" lon="1.86554">
        <ele>283</ele>
        <time>2020-10-04T11:48:22.657Z</time>
      </trkpt>
      <trkpt lat="44.03214" lon="1.86554">
        <ele>283</ele>
        <time>2020-10-04T11:48:23.657Z</time>
      </trkpt>
      <trkpt lat="44.03215" lon="1.86552">
        <ele>284</ele>
        <time>2020-10-04T11:48:24.657Z</time>
      </trkpt>
      <trkpt lat="44.03216" lon="1.86551">
        <ele>283</ele>
        <time>2020-10-04T11:48:25.657Z</time>
      </trkpt>
      <trkpt lat="44.03217" lon="1.8655">
        <ele>284</ele>
        <time>2020-10-04T11:48:26.657Z</time>
      </trkpt>
      <trkpt lat="44.03217" lon="1.86549">
        <ele>284</ele>
        <time>2020-10-04T11:48:27.657Z</time>
      </trkpt>
      <trkpt lat="44.03218" lon="1.86548">
        <ele>284</ele>
        <time>2020-10-04T11:48:28.657Z</time>
      </trkpt>
      <trkpt lat="44.03219" lon="1.86546">
        <ele>284</ele>
        <time>2020-10-04T11:48:29.657Z</time>
      </trkpt>
      <trkpt lat="44.0322" lon="1.86545">
        <ele>284</ele>
        <time>2020-10-04T11:48:30.657Z</time>
      </trkpt>
      <trkpt lat="44.0322" lon="1.86544">
        <ele>284</ele>
        <time>2020-10-04T11:48:31.657Z</time>
      </trkpt>
      <trkpt lat="44.03221" lon="1.86543">
        <ele>284</ele>
        <time>2020-10-04T11:48:32.657Z</time>
      </trkpt>
      <trkpt lat="44.03222" lon="1.86542">
        <ele>284</ele>
        <time>2020-10-04T11:48:33.657Z</time>
      </trkpt>
      <trkpt lat="44.03223" lon="1.86541">
        <ele>284</ele>
        <time>2020-10-04T11:48:34.657Z</time>
      </trkpt>
      <trkpt lat="44.03223" lon="1.8654">
        <ele>284</ele>
        <time>2020-10-04T11:48:35.657Z</time>
      </trkpt>
      <trkpt lat="44.03224" lon="1.86538">
        <ele>285</ele>
        <time>2020-10-04T11:48:36.657Z</time>
      </trkpt>
      <trkpt lat="44.03225" lon="1.86537">
        <ele>285</ele>
        <time>2020-10-04T11:48:37.657Z</time>
      </trkpt>
      <trkpt lat="44.03226" lon="1.86537">
        <ele>285</ele>
        <time>2020-10-04T11:48:38.657Z</time>
      </trkpt>
      <trkpt lat="44.03227" lon="1.86535">
        <ele>285</ele>
        <time>2020-10-04T11:48:39.657Z</time>
      </trkpt>
      <trkpt lat="44.03228" lon="1.86534">
        <ele>285</ele>
        <time>2020-10-04T11:48:40.657Z</time>
      </trkpt>
      <trkpt lat="44.03228" lon="1.86534">
        <ele>285</ele>
        <time>2020-10-04T11:48:41.657Z</time>
      </trkpt>
      <trkpt lat="44.03229" lon="1.86533">
        <ele>285</ele>
        <time>2020-10-04T11:48:42.657Z</time>
      </trkpt>
      <trkpt lat="44.0323" lon="1.86531">
        <ele>284</ele>
        <time>2020-10-04T11:48:43.657Z</time>
      </trkpt>
      <trkpt lat="44.0323" lon="1.86531">
        <ele>284</ele>
        <time>2020-10-04T11:48:44.657Z</time>
      </trkpt>
      <trkpt lat="44.03231" lon="1.8653">
        <ele>284</ele>
        <time>2020-10-04T11:48:45.657Z</time>
      </trkpt>
      <trkpt lat="44.03232" lon="1.86529">
        <ele>284</ele>
        <time>2020-10-04T11:48:46.657Z</time>
      </trkpt>
      <trkpt lat="44.03234" lon="1.86527">
        <ele>284</ele>
        <time>2020-10-04T11:48:47.657Z</time>
      </trkpt>
      <trkpt lat="44.03235" lon="1.86526">
        <ele>284</ele>
        <time>2020-10-04T11:48:48.657Z</time>
      </trkpt>
      <trkpt lat="44.03236" lon="1.86525">
        <ele>284</ele>
        <time>2020-10-04T11:48:49.657Z</time>
      </trkpt>
      <trkpt lat="44.03236" lon="1.86525">
        <ele>284</ele>
        <time>2020-10-04T11:48:50.657Z</time>
      </trkpt>
      <trkpt lat="44.03238" lon="1.86523">
        <ele>284</ele>
        <time>2020-10-04T11:48:51.657Z</time>
      </trkpt>
      <trkpt lat="44.03238" lon="1.86521">
        <ele>284</ele>
        <time>2020-10-04T11:48:52.657Z</time>
      </trkpt>
      <trkpt lat="44.03239" lon="1.8652">
        <ele>284</ele>
        <time>2020-10-04T11:48:53.657Z</time>
      </trkpt>
      <trkpt lat="44.0324" lon="1.86519">
        <ele>284</ele>
        <time>2020-10-04T11:48:54.657Z</time>
      </trkpt>
      <trkpt lat="44.0324" lon="1.86519">
        <ele>284</ele>
        <time>2020-10-04T11:48:55.657Z</time>
      </trkpt>
      <trkpt lat="44.03241" lon="1.86516">
        <ele>284</ele>
        <time>2020-10-04T11:48:56.657Z</time>
      </trkpt>
      <trkpt lat="44.03242" lon="1.86515">
        <ele>284</ele>
        <time>2020-10-04T11:48:57.657Z</time>
      </trkpt>
      <trkpt lat="44.03243" lon="1.86514">
        <ele>283</ele>
        <time>2020-10-04T11:48:58.657Z</time>
      </trkpt>
      <trkpt lat="44.03244" lon="1.86513">
        <ele>283</ele>
        <time>2020-10-04T11:48:59.657Z</time>
      </trkpt>
      <trkpt lat="44.03245" lon="1.86511">
        <ele>283</ele>
        <time>2020-10-04T11:49:00.657Z</time>
      </trkpt>
      <trkpt lat="44.03245" lon="1.8651">
        <ele>283</ele>
        <time>2020-10-04T11:49:01.657Z</time>
      </trkpt>
      <trkpt lat="44.03246" lon="1.86509">
        <ele>283</ele>
        <time>2020-10-04T11:49:02.657Z</time>
      </trkpt>
      <trkpt lat="44.03246" lon="1.86509">
        <ele>283</ele>
        <time>2020-10-04T11:49:03.657Z</time>
      </trkpt>
      <trkpt lat="44.03248" lon="1.86507">
        <ele>283</ele>
        <time>2020-10-04T11:49:04.657Z</time>
      </trkpt>
      <trkpt lat="44.03249" lon="1.86505">
        <ele>283</ele>
        <time>2020-10-04T11:49:05.657Z</time>
      </trkpt>
      <trkpt lat="44.03249" lon="1.86504">
        <ele>283</ele>
        <time>2020-10-04T11:49:06.657Z</time>
      </trkpt>
      <trkpt lat="44.0325" lon="1.86503">
        <ele>282</ele>
        <time>2020-10-04T11:49:07.657Z</time>
      </trkpt>
      <trkpt lat="44.03251" lon="1.86501">
        <ele>282</ele>
        <time>2020-10-04T11:49:08.657Z</time>
      </trkpt>
      <trkpt lat="44.03251" lon="1.865">
        <ele>282</ele>
        <time>2020-10-04T11:49:09.657Z</time>
      </trkpt>
      <trkpt lat="44.03252" lon="1.86498">
        <ele>282</ele>
        <time>2020-10-04T11:49:32.670Z</time>
      </trkpt>
      <trkpt lat="44.03253" lon="1.86497">
        <ele>282</ele>
        <time>2020-10-04T11:49:33.670Z</time>
      </trkpt>
      <trkpt lat="44.03254" lon="1.86496">
        <ele>282</ele>
        <time>2020-10-04T11:49:34.670Z</time>
      </trkpt>
      <trkpt lat="44.03254" lon="1.86495">
        <ele>282</ele>
        <time>2020-10-04T11:49:35.670Z</time>
      </trkpt>
      <trkpt lat="44.03254" lon="1.86495">
        <ele>282</ele>
        <time>2020-10-04T11:49:36.670Z</time>
      </trkpt>
      <trkpt lat="44.03256" lon="1.86492">
        <ele>282</ele>
        <time>2020-10-04T11:49:37.670Z</time>
      </trkpt>
      <trkpt lat="44.03257" lon="1.86491">
        <ele>282</ele>
        <time>2020-10-04T11:49:38.670Z</time>
      </trkpt>
      <trkpt lat="44.03258" lon="1.8649">
        <ele>282</ele>
        <time>2020-10-04T11:49:39.670Z</time>
      </trkpt>
      <trkpt lat="44.03258" lon="1.86488">
        <ele>282</ele>
        <time>2020-10-04T11:49:40.670Z</time>
      </trkpt>
      <trkpt lat="44.03259" lon="1.86487">
        <ele>282</ele>
        <time>2020-10-04T11:49:41.670Z</time>
      </trkpt>
      <trkpt lat="44.0326" lon="1.86486">
        <ele>282</ele>
        <time>2020-10-04T11:49:57.690Z</time>
      </trkpt>
      <trkpt lat="44.03261" lon="1.86485">
        <ele>282</ele>
        <time>2020-10-04T11:49:58.690Z</time>
      </trkpt>
      <trkpt lat="44.03261" lon="1.86483">
        <ele>282</ele>
        <time>2020-10-04T11:49:59.690Z</time>
      </trkpt>
      <trkpt lat="44.03262" lon="1.86482">
        <ele>282</ele>
        <time>2020-10-04T11:50:00.690Z</time>
      </trkpt>
      <trkpt lat="44.03263" lon="1.86481">
        <ele>282</ele>
        <time>2020-10-04T11:50:01.690Z</time>
      </trkpt>
      <trkpt lat="44.03264" lon="1.86479">
        <ele>282</ele>
        <time>2020-10-04T11:50:02.690Z</time>
      </trkpt>
      <trkpt lat="44.03264" lon="1.86478">
        <ele>282</ele>
        <time>2020-10-04T11:50:03.690Z</time>
      </trkpt>
      <trkpt lat="44.03265" lon="1.86477">
        <ele>282</ele>
        <time>2020-10-04T11:50:04.690Z</time>
      </trkpt>
      <trkpt lat="44.03266" lon="1.86475">
        <ele>282</ele>
        <time>2020-10-04T11:50:05.690Z</time>
      </trkpt>
      <trkpt lat="44.03266" lon="1.86474">
        <ele>281</ele>
        <time>2020-10-04T11:50:06.690Z</time>
      </trkpt>
      <trkpt lat="44.03267" lon="1.86473">
        <ele>281</ele>
        <time>2020-10-04T11:50:07.690Z</time>
      </trkpt>
      <trkpt lat="44.03268" lon="1.86472">
        <ele>281</ele>
        <time>2020-10-04T11:50:08.690Z</time>
      </trkpt>
      <trkpt lat="44.03268" lon="1.86472">
        <ele>281</ele>
        <time>2020-10-04T11:50:09.690Z</time>
      </trkpt>
      <trkpt lat="44.03269" lon="1.86471">
        <ele>281</ele>
        <time>2020-10-04T11:50:10.690Z</time>
      </trkpt>
      <trkpt lat="44.03269" lon="1.86469">
        <ele>281</ele>
        <time>2020-10-04T11:50:11.690Z</time>
      </trkpt>
      <trkpt lat="44.03271" lon="1.86466">
        <ele>281</ele>
        <time>2020-10-04T11:50:12.690Z</time>
      </trkpt>
      <trkpt lat="44.03271" lon="1.86466">
        <ele>281</ele>
        <time>2020-10-04T11:50:13.690Z</time>
      </trkpt>
      <trkpt lat="44.03271" lon="1.86465">
        <ele>281</ele>
        <time>2020-10-04T11:50:14.690Z</time>
      </trkpt>
      <trkpt lat="44.03273" lon="1.86463">
        <ele>281</ele>
        <time>2020-10-04T11:50:15.690Z</time>
      </trkpt>
      <trkpt lat="44.03274" lon="1.86461">
        <ele>280</ele>
        <time>2020-10-04T11:50:16.690Z</time>
      </trkpt>
      <trkpt lat="44.03274" lon="1.86461">
        <ele>280</ele>
        <time>2020-10-04T11:50:17.690Z</time>
      </trkpt>
      <trkpt lat="44.03275" lon="1.86459">
        <ele>280</ele>
        <time>2020-10-04T11:50:18.690Z</time>
      </trkpt>
      <trkpt lat="44.03276" lon="1.86458">
        <ele>280</ele>
        <time>2020-10-04T11:50:19.690Z</time>
      </trkpt>
      <trkpt lat="44.03276" lon="1.86456">
        <ele>280</ele>
        <time>2020-10-04T11:50:20.690Z</time>
      </trkpt>
      <trkpt lat="44.03277" lon="1.86455">
        <ele>280</ele>
        <time>2020-10-04T11:50:21.690Z</time>
      </trkpt>
      <trkpt lat="44.03277" lon="1.86455">
        <ele>280</ele>
        <time>2020-10-04T11:50:22.690Z</time>
      </trkpt>
      <trkpt lat="44.03279" lon="1.86453">
        <ele>279</ele>
        <time>2020-10-04T11:50:23.690Z</time>
      </trkpt>
      <trkpt lat="44.03279" lon="1.86451">
        <ele>279</ele>
        <time>2020-10-04T11:50:24.690Z</time>
      </trkpt>
      <trkpt lat="44.0328" lon="1.8645">
        <ele>279</ele>
        <time>2020-10-04T11:50:25.690Z</time>
      </trkpt>
      <trkpt lat="44.0328" lon="1.86448">
        <ele>279</ele>
        <time>2020-10-04T11:50:26.690Z</time>
      </trkpt>
      <trkpt lat="44.03281" lon="1.86447">
        <ele>279</ele>
        <time>2020-10-04T11:50:27.690Z</time>
      </trkpt>
      <trkpt lat="44.03282" lon="1.86446">
        <ele>279</ele>
        <time>2020-10-04T11:50:28.690Z</time>
      </trkpt>
      <trkpt lat="44.03282" lon="1.86445">
        <ele>279</ele>
        <time>2020-10-04T11:50:29.690Z</time>
      </trkpt>
      <trkpt lat="44.03282" lon="1.86445">
        <ele>279</ele>
        <time>2020-10-04T11:50:30.690Z</time>
      </trkpt>
      <trkpt lat="44.03283" lon="1.86442">
        <ele>278</ele>
        <time>2020-10-04T11:50:31.690Z</time>
      </trkpt>
      <trkpt lat="44.03284" lon="1.86441">
        <ele>278</ele>
        <time>2020-10-04T11:50:32.690Z</time>
      </trkpt>
      <trkpt lat="44.03284" lon="1.86439">
        <ele>279</ele>
        <time>2020-10-04T11:50:33.690Z</time>
      </trkpt>
      <trkpt lat="44.03285" lon="1.86438">
        <ele>279</ele>
        <time>2020-10-04T11:50:34.690Z</time>
      </trkpt>
      <trkpt lat="44.03285" lon="1.86437">
        <ele>279</ele>
        <time>2020-10-04T11:50:35.690Z</time>
      </trkpt>
      <trkpt lat="44.03285" lon="1.86435">
        <ele>279</ele>
        <time>2020-10-04T11:50:36.690Z</time>
      </trkpt>
      <trkpt lat="44.03286" lon="1.86434">
        <ele>279</ele>
        <time>2020-10-04T11:50:37.690Z</time>
      </trkpt>
      <trkpt lat="44.03286" lon="1.86432">
        <ele>279</ele>
        <time>2020-10-04T11:50:38.690Z</time>
      </trkpt>
      <trkpt lat="44.03286" lon="1.86431">
        <ele>279</ele>
        <time>2020-10-04T11:50:39.690Z</time>
      </trkpt>
      <trkpt lat="44.03287" lon="1.8643">
        <ele>279</ele>
        <time>2020-10-04T11:50:40.690Z</time>
      </trkpt>
      <trkpt lat="44.03287" lon="1.86429">
        <ele>279</ele>
        <time>2020-10-04T11:50:41.690Z</time>
      </trkpt>
      <trkpt lat="44.03287" lon="1.86429">
        <ele>279</ele>
        <time>2020-10-04T11:50:42.690Z</time>
      </trkpt>
      <trkpt lat="44.03289" lon="1.86426">
        <ele>279</ele>
        <time>2020-10-04T11:50:43.690Z</time>
      </trkpt>
      <trkpt lat="44.03289" lon="1.86425">
        <ele>279</ele>
        <time>2020-10-04T11:50:44.690Z</time>
      </trkpt>
      <trkpt lat="44.03289" lon="1.86423">
        <ele>279</ele>
        <time>2020-10-04T11:50:45.690Z</time>
      </trkpt>
      <trkpt lat="44.03289" lon="1.86422">
        <ele>279</ele>
        <time>2020-10-04T11:50:46.690Z</time>
      </trkpt>
      <trkpt lat="44.0329" lon="1.86421">
        <ele>279</ele>
        <time>2020-10-04T11:50:47.690Z</time>
      </trkpt>
      <trkpt lat="44.0329" lon="1.8642">
        <ele>278</ele>
        <time>2020-10-04T11:50:48.690Z</time>
      </trkpt>
      <trkpt lat="44.03291" lon="1.86419">
        <ele>278</ele>
        <time>2020-10-04T11:50:49.690Z</time>
      </trkpt>
      <trkpt lat="44.03291" lon="1.86418">
        <ele>278</ele>
        <time>2020-10-04T11:50:50.690Z</time>
      </trkpt>
      <trkpt lat="44.03292" lon="1.86417">
        <ele>278</ele>
        <time>2020-10-04T11:50:51.690Z</time>
      </trkpt>
      <trkpt lat="44.03292" lon="1.86416">
        <ele>278</ele>
        <time>2020-10-04T11:50:52.690Z</time>
      </trkpt>
      <trkpt lat="44.03293" lon="1.86415">
        <ele>278</ele>
        <time>2020-10-04T11:50:53.690Z</time>
      </trkpt>
      <trkpt lat="44.03293" lon="1.86413">
        <ele>278</ele>
        <time>2020-10-04T11:50:54.690Z</time>
      </trkpt>
      <trkpt lat="44.03294" lon="1.86412">
        <ele>278</ele>
        <time>2020-10-04T11:50:55.690Z</time>
      </trkpt>
      <trkpt lat="44.03294" lon="1.86411">
        <ele>278</ele>
        <time>2020-10-04T11:50:56.690Z</time>
      </trkpt>
      <trkpt lat="44.03295" lon="1.86409">
        <ele>278</ele>
        <time>2020-10-04T11:50:57.690Z</time>
      </trkpt>
      <trkpt lat="44.03296" lon="1.86408">
        <ele>278</ele>
        <time>2020-10-04T11:50:58.690Z</time>
      </trkpt>
      <trkpt lat="44.03296" lon="1.86406">
        <ele>278</ele>
        <time>2020-10-04T11:50:59.690Z</time>
      </trkpt>
      <trkpt lat="44.03296" lon="1.86406">
        <ele>278</ele>
        <time>2020-10-04T11:51:00.690Z</time>
      </trkpt>
      <trkpt lat="44.03297" lon="1.86405">
        <ele>278</ele>
        <time>2020-10-04T11:51:01.690Z</time>
      </trkpt>
      <trkpt lat="44.03297" lon="1.86404">
        <ele>278</ele>
        <time>2020-10-04T11:51:02.690Z</time>
      </trkpt>
      <trkpt lat="44.03297" lon="1.86402">
        <ele>277</ele>
        <time>2020-10-04T11:51:03.690Z</time>
      </trkpt>
      <trkpt lat="44.03298" lon="1.86399">
        <ele>277</ele>
        <time>2020-10-04T11:51:04.690Z</time>
      </trkpt>
      <trkpt lat="44.03298" lon="1.86399">
        <ele>277</ele>
        <time>2020-10-04T11:51:05.690Z</time>
      </trkpt>
      <trkpt lat="44.03299" lon="1.86397">
        <ele>277</ele>
        <time>2020-10-04T11:51:06.690Z</time>
      </trkpt>
      <trkpt lat="44.033" lon="1.86396">
        <ele>277</ele>
        <time>2020-10-04T11:51:07.690Z</time>
      </trkpt>
      <trkpt lat="44.033" lon="1.86396">
        <ele>277</ele>
        <time>2020-10-04T11:51:08.690Z</time>
      </trkpt>
      <trkpt lat="44.03301" lon="1.86393">
        <ele>277</ele>
        <time>2020-10-04T11:51:09.690Z</time>
      </trkpt>
      <trkpt lat="44.03301" lon="1.86392">
        <ele>277</ele>
        <time>2020-10-04T11:51:10.690Z</time>
      </trkpt>
      <trkpt lat="44.03302" lon="1.86391">
        <ele>277</ele>
        <time>2020-10-04T11:51:11.690Z</time>
      </trkpt>
      <trkpt lat="44.03302" lon="1.86389">
        <ele>277</ele>
        <time>2020-10-04T11:51:12.690Z</time>
      </trkpt>
      <trkpt lat="44.03302" lon="1.86389">
        <ele>277</ele>
        <time>2020-10-04T11:51:13.690Z</time>
      </trkpt>
      <trkpt lat="44.03303" lon="1.86387">
        <ele>277</ele>
        <time>2020-10-04T11:51:14.690Z</time>
      </trkpt>
      <trkpt lat="44.03303" lon="1.86385">
        <ele>276</ele>
        <time>2020-10-04T11:51:15.690Z</time>
      </trkpt>
      <trkpt lat="44.03303" lon="1.86384">
        <ele>276</ele>
        <time>2020-10-04T11:51:16.690Z</time>
      </trkpt>
      <trkpt lat="44.03304" lon="1.86383">
        <ele>276</ele>
        <time>2020-10-04T11:51:17.690Z</time>
      </trkpt>
      <trkpt lat="44.03304" lon="1.86381">
        <ele>276</ele>
        <time>2020-10-04T11:51:18.690Z</time>
      </trkpt>
      <trkpt lat="44.03304" lon="1.8638">
        <ele>277</ele>
        <time>2020-10-04T11:51:19.690Z</time>
      </trkpt>
      <trkpt lat="44.03305" lon="1.86379">
        <ele>277</ele>
        <time>2020-10-04T11:51:20.690Z</time>
      </trkpt>
      <trkpt lat="44.03305" lon="1.86379">
        <ele>277</ele>
        <time>2020-10-04T11:51:21.690Z</time>
      </trkpt>
      <trkpt lat="44.03306" lon="1.86377">
        <ele>277</ele>
        <time>2020-10-04T11:51:22.690Z</time>
      </trkpt>
      <trkpt lat="44.03306" lon="1.86375">
        <ele>277</ele>
        <time>2020-10-04T11:51:23.690Z</time>
      </trkpt>
      <trkpt lat="44.03306" lon="1.86374">
        <ele>277</ele>
        <time>2020-10-04T11:51:24.690Z</time>
      </trkpt>
      <trkpt lat="44.03306" lon="1.86373">
        <ele>277</ele>
        <time>2020-10-04T11:51:25.690Z</time>
      </trkpt>
      <trkpt lat="44.03307" lon="1.86371">
        <ele>277</ele>
        <time>2020-10-04T11:51:26.690Z</time>
      </trkpt>
      <trkpt lat="44.03307" lon="1.8637">
        <ele>277</ele>
        <time>2020-10-04T11:51:27.690Z</time>
      </trkpt>
      <trkpt lat="44.03307" lon="1.86368">
        <ele>277</ele>
        <time>2020-10-04T11:51:28.690Z</time>
      </trkpt>
      <trkpt lat="44.03307" lon="1.86367">
        <ele>277</ele>
        <time>2020-10-04T11:51:29.690Z</time>
      </trkpt>
      <trkpt lat="44.03307" lon="1.86365">
        <ele>277</ele>
        <time>2020-10-04T11:51:30.690Z</time>
      </trkpt>
      <trkpt lat="44.03308" lon="1.86364">
        <ele>277</ele>
        <time>2020-10-04T11:51:31.690Z</time>
      </trkpt>
      <trkpt lat="44.03308" lon="1.86362">
        <ele>277</ele>
        <time>2020-10-04T11:51:32.690Z</time>
      </trkpt>
      <trkpt lat="44.03308" lon="1.86362">
        <ele>277</ele>
        <time>2020-10-04T11:51:33.690Z</time>
      </trkpt>
      <trkpt lat="44.03308" lon="1.86359">
        <ele>276</ele>
        <time>2020-10-04T11:51:34.690Z</time>
      </trkpt>
      <trkpt lat="44.03308" lon="1.86357">
        <ele>276</ele>
        <time>2020-10-04T11:51:35.690Z</time>
      </trkpt>
      <trkpt lat="44.03308" lon="1.86355">
        <ele>276</ele>
        <time>2020-10-04T11:51:36.690Z</time>
      </trkpt>
      <trkpt lat="44.03308" lon="1.86354">
        <ele>276</ele>
        <time>2020-10-04T11:51:37.690Z</time>
      </trkpt>
      <trkpt lat="44.03308" lon="1.86353">
        <ele>276</ele>
        <time>2020-10-04T11:51:38.690Z</time>
      </trkpt>
      <trkpt lat="44.03308" lon="1.86352">
        <ele>276</ele>
        <time>2020-10-04T11:51:39.690Z</time>
      </trkpt>
      <trkpt lat="44.03308" lon="1.8635">
        <ele>276</ele>
        <time>2020-10-04T11:51:40.690Z</time>
      </trkpt>
      <trkpt lat="44.03308" lon="1.86349">
        <ele>275</ele>
        <time>2020-10-04T11:51:41.690Z</time>
      </trkpt>
      <trkpt lat="44.03309" lon="1.86347">
        <ele>275</ele>
        <time>2020-10-04T11:51:42.690Z</time>
      </trkpt>
      <trkpt lat="44.03309" lon="1.86346">
        <ele>275</ele>
        <time>2020-10-04T11:51:43.690Z</time>
      </trkpt>
      <trkpt lat="44.03309" lon="1.86344">
        <ele>275</ele>
        <time>2020-10-04T11:51:44.690Z</time>
      </trkpt>
      <trkpt lat="44.03309" lon="1.86343">
        <ele>275</ele>
        <time>2020-10-04T11:51:45.690Z</time>
      </trkpt>
      <trkpt lat="44.03309" lon="1.86341">
        <ele>275</ele>
        <time>2020-10-04T11:51:46.690Z</time>
      </trkpt>
      <trkpt lat="44.03309" lon="1.8634">
        <ele>275</ele>
        <time>2020-10-04T11:51:47.690Z</time>
      </trkpt>
      <trkpt lat="44.03309" lon="1.86338">
        <ele>275</ele>
        <time>2020-10-04T11:51:48.690Z</time>
      </trkpt>
      <trkpt lat="44.0331" lon="1.86337">
        <ele>274</ele>
        <time>2020-10-04T11:51:49.690Z</time>
      </trkpt>
      <trkpt lat="44.0331" lon="1.86337">
        <ele>274</ele>
        <time>2020-10-04T11:51:50.690Z</time>
      </trkpt>
      <trkpt lat="44.0331" lon="1.86335">
        <ele>274</ele>
        <time>2020-10-04T11:51:51.690Z</time>
      </trkpt>
      <trkpt lat="44.0331" lon="1.86335">
        <ele>274</ele>
        <time>2020-10-04T11:51:52.690Z</time>
      </trkpt>
      <trkpt lat="44.03311" lon="1.86333">
        <ele>274</ele>
        <time>2020-10-04T11:51:53.690Z</time>
      </trkpt>
      <trkpt lat="44.03311" lon="1.86332">
        <ele>274</ele>
        <time>2020-10-04T11:51:54.690Z</time>
      </trkpt>
      <trkpt lat="44.03311" lon="1.8633">
        <ele>274</ele>
        <time>2020-10-04T11:51:55.690Z</time>
      </trkpt>
      <trkpt lat="44.03311" lon="1.8633">
        <ele>274</ele>
        <time>2020-10-04T11:51:56.690Z</time>
      </trkpt>
      <trkpt lat="44.03311" lon="1.86327">
        <ele>274</ele>
        <time>2020-10-04T11:51:57.690Z</time>
      </trkpt>
      <trkpt lat="44.03312" lon="1.86326">
        <ele>274</ele>
        <time>2020-10-04T11:51:58.690Z</time>
      </trkpt>
      <trkpt lat="44.03312" lon="1.86326">
        <ele>274</ele>
        <time>2020-10-04T11:51:59.690Z</time>
      </trkpt>
      <trkpt lat="44.03312" lon="1.86323">
        <ele>274</ele>
        <time>2020-10-04T11:52:00.690Z</time>
      </trkpt>
      <trkpt lat="44.03313" lon="1.86322">
        <ele>274</ele>
        <time>2020-10-04T11:52:01.690Z</time>
      </trkpt>
      <trkpt lat="44.03313" lon="1.86321">
        <ele>274</ele>
        <time>2020-10-04T11:52:02.690Z</time>
      </trkpt>
      <trkpt lat="44.03314" lon="1.86319">
        <ele>274</ele>
        <time>2020-10-04T11:52:03.690Z</time>
      </trkpt>
      <trkpt lat="44.03315" lon="1.86318">
        <ele>274</ele>
        <time>2020-10-04T11:52:04.690Z</time>
      </trkpt>
      <trkpt lat="44.03315" lon="1.86318">
        <ele>274</ele>
        <time>2020-10-04T11:52:05.690Z</time>
      </trkpt>
      <trkpt lat="44.03316" lon="1.86316">
        <ele>274</ele>
        <time>2020-10-04T11:52:06.690Z</time>
      </trkpt>
      <trkpt lat="44.03316" lon="1.86315">
        <ele>274</ele>
        <time>2020-10-04T11:52:07.690Z</time>
      </trkpt>
      <trkpt lat="44.03317" lon="1.86314">
        <ele>274</ele>
        <time>2020-10-04T11:52:08.690Z</time>
      </trkpt>
      <trkpt lat="44.03317" lon="1.86313">
        <ele>274</ele>
        <time>2020-10-04T11:52:09.690Z</time>
      </trkpt>
      <trkpt lat="44.03318" lon="1.86312">
        <ele>274</ele>
        <time>2020-10-04T11:52:10.690Z</time>
      </trkpt>
      <trkpt lat="44.03319" lon="1.86311">
        <ele>274</ele>
        <time>2020-10-04T11:52:11.690Z</time>
      </trkpt>
      <trkpt lat="44.03319" lon="1.86311">
        <ele>274</ele>
        <time>2020-10-04T11:52:12.690Z</time>
      </trkpt>
      <trkpt lat="44.03319" lon="1.8631">
        <ele>274</ele>
        <time>2020-10-04T11:52:13.690Z</time>
      </trkpt>
      <trkpt lat="44.03319" lon="1.86309">
        <ele>274</ele>
        <time>2020-10-04T11:52:14.690Z</time>
      </trkpt>
      <trkpt lat="44.03319" lon="1.86309">
        <ele>274</ele>
        <time>2020-10-04T11:52:15.690Z</time>
      </trkpt>
      <trkpt lat="44.03319" lon="1.86308">
        <ele>275</ele>
        <time>2020-10-04T11:52:16.690Z</time>
      </trkpt>
      <trkpt lat="44.0332" lon="1.86305">
        <ele>275</ele>
        <time>2020-10-04T11:52:17.690Z</time>
      </trkpt>
      <trkpt lat="44.0332" lon="1.86304">
        <ele>275</ele>
        <time>2020-10-04T11:52:18.690Z</time>
      </trkpt>
      <trkpt lat="44.03322" lon="1.86303">
        <ele>275</ele>
        <time>2020-10-04T11:52:19.690Z</time>
      </trkpt>
      <trkpt lat="44.03322" lon="1.86302">
        <ele>275</ele>
        <time>2020-10-04T11:52:20.690Z</time>
      </trkpt>
      <trkpt lat="44.03322" lon="1.86301">
        <ele>275</ele>
        <time>2020-10-04T11:52:21.690Z</time>
      </trkpt>
      <trkpt lat="44.03322" lon="1.863">
        <ele>275</ele>
        <time>2020-10-04T11:52:22.690Z</time>
      </trkpt>
      <trkpt lat="44.03323" lon="1.86298">
        <ele>275</ele>
        <time>2020-10-04T11:52:23.690Z</time>
      </trkpt>
      <trkpt lat="44.03323" lon="1.86297">
        <ele>275</ele>
        <time>2020-10-04T11:52:24.690Z</time>
      </trkpt>
      <trkpt lat="44.03324" lon="1.86296">
        <ele>275</ele>
        <time>2020-10-04T11:52:25.690Z</time>
      </trkpt>
      <trkpt lat="44.03325" lon="1.86295">
        <ele>275</ele>
        <time>2020-10-04T11:52:26.690Z</time>
      </trkpt>
      <trkpt lat="44.03325" lon="1.86295">
        <ele>275</ele>
        <time>2020-10-04T11:52:27.690Z</time>
      </trkpt>
      <trkpt lat="44.03326" lon="1.86294">
        <ele>274</ele>
        <time>2020-10-04T11:52:28.690Z</time>
      </trkpt>
      <trkpt lat="44.03326" lon="1.86293">
        <ele>274</ele>
        <time>2020-10-04T11:52:29.690Z</time>
      </trkpt>
      <trkpt lat="44.03327" lon="1.86292">
        <ele>274</ele>
        <time>2020-10-04T11:52:30.690Z</time>
      </trkpt>
      <trkpt lat="44.03327" lon="1.86291">
        <ele>274</ele>
        <time>2020-10-04T11:52:31.690Z</time>
      </trkpt>
      <trkpt lat="44.03328" lon="1.8629">
        <ele>274</ele>
        <time>2020-10-04T11:52:32.690Z</time>
      </trkpt>
      <trkpt lat="44.03328" lon="1.86289">
        <ele>274</ele>
        <time>2020-10-04T11:52:33.690Z</time>
      </trkpt>
      <trkpt lat="44.03328" lon="1.86288">
        <ele>273</ele>
        <time>2020-10-04T11:52:34.690Z</time>
      </trkpt>
      <trkpt lat="44.03329" lon="1.86287">
        <ele>273</ele>
        <time>2020-10-04T11:52:35.690Z</time>
      </trkpt>
      <trkpt lat="44.03329" lon="1.86286">
        <ele>273</ele>
        <time>2020-10-04T11:52:36.690Z</time>
      </trkpt>
      <trkpt lat="44.03329" lon="1.86285">
        <ele>273</ele>
        <time>2020-10-04T11:52:37.690Z</time>
      </trkpt>
      <trkpt lat="44.0333" lon="1.86284">
        <ele>273</ele>
        <time>2020-10-04T11:52:38.690Z</time>
      </trkpt>
      <trkpt lat="44.0333" lon="1.86283">
        <ele>273</ele>
        <time>2020-10-04T11:52:39.690Z</time>
      </trkpt>
      <trkpt lat="44.03331" lon="1.86282">
        <ele>273</ele>
        <time>2020-10-04T11:52:40.690Z</time>
      </trkpt>
      <trkpt lat="44.03331" lon="1.86281">
        <ele>273</ele>
        <time>2020-10-04T11:52:41.690Z</time>
      </trkpt>
      <trkpt lat="44.03332" lon="1.86281">
        <ele>273</ele>
        <time>2020-10-04T11:52:42.690Z</time>
      </trkpt>
      <trkpt lat="44.03332" lon="1.8628">
        <ele>272</ele>
        <time>2020-10-04T11:52:43.690Z</time>
      </trkpt>
      <trkpt lat="44.03333" lon="1.86279">
        <ele>272</ele>
        <time>2020-10-04T11:52:44.690Z</time>
      </trkpt>
      <trkpt lat="44.03334" lon="1.86278">
        <ele>272</ele>
        <time>2020-10-04T11:52:45.690Z</time>
      </trkpt>
      <trkpt lat="44.03335" lon="1.86277">
        <ele>272</ele>
        <time>2020-10-04T11:52:46.690Z</time>
      </trkpt>
      <trkpt lat="44.03335" lon="1.86276">
        <ele>271</ele>
        <time>2020-10-04T11:52:47.690Z</time>
      </trkpt>
      <trkpt lat="44.03336" lon="1.86275">
        <ele>271</ele>
        <time>2020-10-04T11:52:48.690Z</time>
      </trkpt>
      <trkpt lat="44.03337" lon="1.86274">
        <ele>271</ele>
        <time>2020-10-04T11:52:49.690Z</time>
      </trkpt>
      <trkpt lat="44.03337" lon="1.86272">
        <ele>271</ele>
        <time>2020-10-04T11:52:50.690Z</time>
      </trkpt>
      <trkpt lat="44.03338" lon="1.86271">
        <ele>271</ele>
        <time>2020-10-04T11:52:51.690Z</time>
      </trkpt>
      <trkpt lat="44.03339" lon="1.8627">
        <ele>270</ele>
        <time>2020-10-04T11:52:52.690Z</time>
      </trkpt>
      <trkpt lat="44.03339" lon="1.86269">
        <ele>270</ele>
        <time>2020-10-04T11:52:53.690Z</time>
      </trkpt>
      <trkpt lat="44.0334" lon="1.86267">
        <ele>270</ele>
        <time>2020-10-04T11:52:54.690Z</time>
      </trkpt>
      <trkpt lat="44.0334" lon="1.86266">
        <ele>270</ele>
        <time>2020-10-04T11:52:55.690Z</time>
      </trkpt>
      <trkpt lat="44.03341" lon="1.86264">
        <ele>270</ele>
        <time>2020-10-04T11:52:56.690Z</time>
      </trkpt>
      <trkpt lat="44.03341" lon="1.86263">
        <ele>269</ele>
        <time>2020-10-04T11:52:57.690Z</time>
      </trkpt>
      <trkpt lat="44.03342" lon="1.86262">
        <ele>269</ele>
        <time>2020-10-04T11:52:58.690Z</time>
      </trkpt>
      <trkpt lat="44.03343" lon="1.86261">
        <ele>269</ele>
        <time>2020-10-04T11:52:59.690Z</time>
      </trkpt>
      <trkpt lat="44.03343" lon="1.86259">
        <ele>269</ele>
        <time>2020-10-04T11:53:00.690Z</time>
      </trkpt>
      <trkpt lat="44.03344" lon="1.86258">
        <ele>269</ele>
        <time>2020-10-04T11:53:01.690Z</time>
      </trkpt>
      <trkpt lat="44.03344" lon="1.86257">
        <ele>269</ele>
        <time>2020-10-04T11:53:02.690Z</time>
      </trkpt>
      <trkpt lat="44.03344" lon="1.86256">
        <ele>269</ele>
        <time>2020-10-04T11:53:03.690Z</time>
      </trkpt>
      <trkpt lat="44.03345" lon="1.86254">
        <ele>268</ele>
        <time>2020-10-04T11:53:04.690Z</time>
      </trkpt>
      <trkpt lat="44.03345" lon="1.86253">
        <ele>268</ele>
        <time>2020-10-04T11:53:05.690Z</time>
      </trkpt>
      <trkpt lat="44.03346" lon="1.86252">
        <ele>268</ele>
        <time>2020-10-04T11:53:06.690Z</time>
      </trkpt>
      <trkpt lat="44.03346" lon="1.86251">
        <ele>268</ele>
        <time>2020-10-04T11:53:07.690Z</time>
      </trkpt>
      <trkpt lat="44.03347" lon="1.86249">
        <ele>268</ele>
        <time>2020-10-04T11:53:08.690Z</time>
      </trkpt>
      <trkpt lat="44.03347" lon="1.86248">
        <ele>268</ele>
        <time>2020-10-04T11:53:09.690Z</time>
      </trkpt>
      <trkpt lat="44.03348" lon="1.86247">
        <ele>268</ele>
        <time>2020-10-04T11:53:10.690Z</time>
      </trkpt>
      <trkpt lat="44.03348" lon="1.86246">
        <ele>267</ele>
        <time>2020-10-04T11:53:11.690Z</time>
      </trkpt>
      <trkpt lat="44.03349" lon="1.86244">
        <ele>267</ele>
        <time>2020-10-04T11:53:12.690Z</time>
      </trkpt>
      <trkpt lat="44.03349" lon="1.86243">
        <ele>267</ele>
        <time>2020-10-04T11:53:13.690Z</time>
      </trkpt>
      <trkpt lat="44.0335" lon="1.86242">
        <ele>267</ele>
        <time>2020-10-04T11:53:14.690Z</time>
      </trkpt>
      <trkpt lat="44.0335" lon="1.8624">
        <ele>267</ele>
        <time>2020-10-04T11:53:15.690Z</time>
      </trkpt>
      <trkpt lat="44.0335" lon="1.86239">
        <ele>267</ele>
        <time>2020-10-04T11:53:16.690Z</time>
      </trkpt>
      <trkpt lat="44.03351" lon="1.86238">
        <ele>267</ele>
        <time>2020-10-04T11:53:17.690Z</time>
      </trkpt>
      <trkpt lat="44.03351" lon="1.86237">
        <ele>267</ele>
        <time>2020-10-04T11:53:18.690Z</time>
      </trkpt>
      <trkpt lat="44.03352" lon="1.86236">
        <ele>266</ele>
        <time>2020-10-04T11:53:19.690Z</time>
      </trkpt>
      <trkpt lat="44.03352" lon="1.86234">
        <ele>266</ele>
        <time>2020-10-04T11:53:20.690Z</time>
      </trkpt>
      <trkpt lat="44.03352" lon="1.86233">
        <ele>266</ele>
        <time>2020-10-04T11:53:21.690Z</time>
      </trkpt>
      <trkpt lat="44.03352" lon="1.86231">
        <ele>266</ele>
        <time>2020-10-04T11:53:22.690Z</time>
      </trkpt>
      <trkpt lat="44.03352" lon="1.8623">
        <ele>266</ele>
        <time>2020-10-04T11:53:23.690Z</time>
      </trkpt>
      <trkpt lat="44.03352" lon="1.86229">
        <ele>266</ele>
        <time>2020-10-04T11:53:24.690Z</time>
      </trkpt>
      <trkpt lat="44.03352" lon="1.86227">
        <ele>266</ele>
        <time>2020-10-04T11:53:25.690Z</time>
      </trkpt>
      <trkpt lat="44.03353" lon="1.86226">
        <ele>266</ele>
        <time>2020-10-04T11:53:26.690Z</time>
      </trkpt>
      <trkpt lat="44.03353" lon="1.86225">
        <ele>266</ele>
        <time>2020-10-04T11:53:27.690Z</time>
      </trkpt>
      <trkpt lat="44.03353" lon="1.86224">
        <ele>266</ele>
        <time>2020-10-04T11:53:28.690Z</time>
      </trkpt>
      <trkpt lat="44.03353" lon="1.86222">
        <ele>266</ele>
        <time>2020-10-04T11:53:29.690Z</time>
      </trkpt>
      <trkpt lat="44.03354" lon="1.8622">
        <ele>265</ele>
        <time>2020-10-04T11:53:30.690Z</time>
      </trkpt>
      <trkpt lat="44.03354" lon="1.86219">
        <ele>265</ele>
        <time>2020-10-04T11:53:31.690Z</time>
      </trkpt>
      <trkpt lat="44.03354" lon="1.86218">
        <ele>265</ele>
        <time>2020-10-04T11:53:32.690Z</time>
      </trkpt>
      <trkpt lat="44.03355" lon="1.86216">
        <ele>265</ele>
        <time>2020-10-04T11:53:33.690Z</time>
      </trkpt>
      <trkpt lat="44.03355" lon="1.86215">
        <ele>265</ele>
        <time>2020-10-04T11:53:34.690Z</time>
      </trkpt>
      <trkpt lat="44.03355" lon="1.86214">
        <ele>265</ele>
        <time>2020-10-04T11:53:35.690Z</time>
      </trkpt>
      <trkpt lat="44.03355" lon="1.86213">
        <ele>265</ele>
        <time>2020-10-04T11:53:36.690Z</time>
      </trkpt>
      <trkpt lat="44.03356" lon="1.86211">
        <ele>265</ele>
        <time>2020-10-04T11:53:37.690Z</time>
      </trkpt>
      <trkpt lat="44.03357" lon="1.8621">
        <ele>264</ele>
        <time>2020-10-04T11:53:38.690Z</time>
      </trkpt>
      <trkpt lat="44.03357" lon="1.86209">
        <ele>264</ele>
        <time>2020-10-04T11:53:39.690Z</time>
      </trkpt>
      <trkpt lat="44.03358" lon="1.86208">
        <ele>264</ele>
        <time>2020-10-04T11:53:40.690Z</time>
      </trkpt>
      <trkpt lat="44.03358" lon="1.86207">
        <ele>264</ele>
        <time>2020-10-04T11:53:41.690Z</time>
      </trkpt>
      <trkpt lat="44.03358" lon="1.86205">
        <ele>264</ele>
        <time>2020-10-04T11:53:42.690Z</time>
      </trkpt>
      <trkpt lat="44.03359" lon="1.86204">
        <ele>264</ele>
        <time>2020-10-04T11:53:43.690Z</time>
      </trkpt>
      <trkpt lat="44.03359" lon="1.86203">
        <ele>264</ele>
        <time>2020-10-04T11:53:44.690Z</time>
      </trkpt>
      <trkpt lat="44.03359" lon="1.86202">
        <ele>264</ele>
        <time>2020-10-04T11:53:45.690Z</time>
      </trkpt>
      <trkpt lat="44.0336" lon="1.862">
        <ele>263</ele>
        <time>2020-10-04T11:53:46.690Z</time>
      </trkpt>
      <trkpt lat="44.0336" lon="1.86199">
        <ele>263</ele>
        <time>2020-10-04T11:53:47.690Z</time>
      </trkpt>
      <trkpt lat="44.0336" lon="1.86198">
        <ele>263</ele>
        <time>2020-10-04T11:53:48.690Z</time>
      </trkpt>
      <trkpt lat="44.0336" lon="1.86196">
        <ele>263</ele>
        <time>2020-10-04T11:53:49.690Z</time>
      </trkpt>
      <trkpt lat="44.03361" lon="1.86195">
        <ele>263</ele>
        <time>2020-10-04T11:53:50.690Z</time>
      </trkpt>
      <trkpt lat="44.03361" lon="1.86194">
        <ele>263</ele>
        <time>2020-10-04T11:53:51.690Z</time>
      </trkpt>
      <trkpt lat="44.03361" lon="1.86193">
        <ele>263</ele>
        <time>2020-10-04T11:53:52.690Z</time>
      </trkpt>
      <trkpt lat="44.03361" lon="1.86191">
        <ele>263</ele>
        <time>2020-10-04T11:53:53.690Z</time>
      </trkpt>
      <trkpt lat="44.03361" lon="1.8619">
        <ele>263</ele>
        <time>2020-10-04T11:53:54.690Z</time>
      </trkpt>
      <trkpt lat="44.03361" lon="1.86189">
        <ele>263</ele>
        <time>2020-10-04T11:53:55.690Z</time>
      </trkpt>
      <trkpt lat="44.03361" lon="1.86188">
        <ele>262</ele>
        <time>2020-10-04T11:53:56.690Z</time>
      </trkpt>
      <trkpt lat="44.03362" lon="1.86187">
        <ele>262</ele>
        <time>2020-10-04T11:53:57.690Z</time>
      </trkpt>
      <trkpt lat="44.03362" lon="1.86185">
        <ele>262</ele>
        <time>2020-10-04T11:53:58.690Z</time>
      </trkpt>
      <trkpt lat="44.03363" lon="1.86184">
        <ele>262</ele>
        <time>2020-10-04T11:53:59.690Z</time>
      </trkpt>
      <trkpt lat="44.03364" lon="1.86183">
        <ele>262</ele>
        <time>2020-10-04T11:54:00.690Z</time>
      </trkpt>
      <trkpt lat="44.03364" lon="1.86182">
        <ele>262</ele>
        <time>2020-10-04T11:54:01.690Z</time>
      </trkpt>
      <trkpt lat="44.03365" lon="1.86181">
        <ele>262</ele>
        <time>2020-10-04T11:54:02.690Z</time>
      </trkpt>
      <trkpt lat="44.03366" lon="1.8618">
        <ele>262</ele>
        <time>2020-10-04T11:54:03.690Z</time>
      </trkpt>
      <trkpt lat="44.03366" lon="1.86178">
        <ele>261</ele>
        <time>2020-10-04T11:54:04.690Z</time>
      </trkpt>
      <trkpt lat="44.03367" lon="1.86177">
        <ele>261</ele>
        <time>2020-10-04T11:54:05.690Z</time>
      </trkpt>
      <trkpt lat="44.03368" lon="1.86176">
        <ele>261</ele>
        <time>2020-10-04T11:54:06.690Z</time>
      </trkpt>
      <trkpt lat="44.03368" lon="1.86175">
        <ele>261</ele>
        <time>2020-10-04T11:54:07.690Z</time>
      </trkpt>
      <trkpt lat="44.03369" lon="1.86174">
        <ele>260</ele>
        <time>2020-10-04T11:54:08.690Z</time>
      </trkpt>
      <trkpt lat="44.03369" lon="1.86173">
        <ele>260</ele>
        <time>2020-10-04T11:54:09.690Z</time>
      </trkpt>
      <trkpt lat="44.0337" lon="1.86172">
        <ele>260</ele>
        <time>2020-10-04T11:54:10.690Z</time>
      </trkpt>
      <trkpt lat="44.0337" lon="1.86171">
        <ele>259</ele>
        <time>2020-10-04T11:54:11.690Z</time>
      </trkpt>
      <trkpt lat="44.03371" lon="1.8617">
        <ele>259</ele>
        <time>2020-10-04T11:54:12.690Z</time>
      </trkpt>
      <trkpt lat="44.03371" lon="1.86169">
        <ele>259</ele>
        <time>2020-10-04T11:54:13.690Z</time>
      </trkpt>
      <trkpt lat="44.03372" lon="1.86168">
        <ele>258</ele>
        <time>2020-10-04T11:54:14.690Z</time>
      </trkpt>
      <trkpt lat="44.03372" lon="1.86167">
        <ele>258</ele>
        <time>2020-10-04T11:54:15.690Z</time>
      </trkpt>
      <trkpt lat="44.03373" lon="1.86166">
        <ele>258</ele>
        <time>2020-10-04T11:54:16.690Z</time>
      </trkpt>
      <trkpt lat="44.03373" lon="1.86165">
        <ele>257</ele>
        <time>2020-10-04T11:54:17.690Z</time>
      </trkpt>
      <trkpt lat="44.03373" lon="1.86164">
        <ele>257</ele>
        <time>2020-10-04T11:54:18.690Z</time>
      </trkpt>
      <trkpt lat="44.03373" lon="1.86164">
        <ele>257</ele>
        <time>2020-10-04T11:54:19.690Z</time>
      </trkpt>
      <trkpt lat="44.03374" lon="1.86164">
        <ele>257</ele>
        <time>2020-10-04T11:54:20.690Z</time>
      </trkpt>
      <trkpt lat="44.03374" lon="1.86164">
        <ele>256</ele>
        <time>2020-10-04T11:54:21.690Z</time>
      </trkpt>
      <trkpt lat="44.03374" lon="1.86163">
        <ele>256</ele>
        <time>2020-10-04T11:54:22.690Z</time>
      </trkpt>
      <trkpt lat="44.03374" lon="1.86162">
        <ele>256</ele>
        <time>2020-10-04T11:54:23.690Z</time>
      </trkpt>
      <trkpt lat="44.03375" lon="1.86161">
        <ele>256</ele>
        <time>2020-10-04T11:54:24.690Z</time>
      </trkpt>
      <trkpt lat="44.03375" lon="1.86161">
        <ele>255</ele>
        <time>2020-10-04T11:54:25.690Z</time>
      </trkpt>
      <trkpt lat="44.03375" lon="1.86161">
        <ele>255</ele>
        <time>2020-10-04T11:54:26.690Z</time>
      </trkpt>
      <trkpt lat="44.03375" lon="1.8616">
        <ele>255</ele>
        <time>2020-10-04T11:54:27.690Z</time>
      </trkpt>
      <trkpt lat="44.03376" lon="1.86159">
        <ele>254</ele>
        <time>2020-10-04T11:54:28.690Z</time>
      </trkpt>
      <trkpt lat="44.03376" lon="1.86158">
        <ele>254</ele>
        <time>2020-10-04T11:54:29.690Z</time>
      </trkpt>
      <trkpt lat="44.03377" lon="1.86156">
        <ele>254</ele>
        <time>2020-10-04T11:54:30.690Z</time>
      </trkpt>
      <trkpt lat="44.03377" lon="1.86155">
        <ele>253</ele>
        <time>2020-10-04T11:54:31.690Z</time>
      </trkpt>
      <trkpt lat="44.03378" lon="1.86154">
        <ele>253</ele>
        <time>2020-10-04T11:54:32.690Z</time>
      </trkpt>
      <trkpt lat="44.03378" lon="1.86153">
        <ele>253</ele>
        <time>2020-10-04T11:54:33.690Z</time>
      </trkpt>
      <trkpt lat="44.03378" lon="1.86152">
        <ele>252</ele>
        <time>2020-10-04T11:54:34.690Z</time>
      </trkpt>
      <trkpt lat="44.03378" lon="1.86151">
        <ele>252</ele>
        <time>2020-10-04T11:54:35.690Z</time>
      </trkpt>
      <trkpt lat="44.03379" lon="1.8615">
        <ele>252</ele>
        <time>2020-10-04T11:54:36.690Z</time>
      </trkpt>
      <trkpt lat="44.03379" lon="1.86149">
        <ele>251</ele>
        <time>2020-10-04T11:54:37.690Z</time>
      </trkpt>
      <trkpt lat="44.0338" lon="1.86148">
        <ele>251</ele>
        <time>2020-10-04T11:54:38.690Z</time>
      </trkpt>
      <trkpt lat="44.0338" lon="1.86147">
        <ele>251</ele>
        <time>2020-10-04T11:54:39.690Z</time>
      </trkpt>
      <trkpt lat="44.03381" lon="1.86146">
        <ele>250</ele>
        <time>2020-10-04T11:54:40.690Z</time>
      </trkpt>
      <trkpt lat="44.03381" lon="1.86145">
        <ele>250</ele>
        <time>2020-10-04T11:54:41.690Z</time>
      </trkpt>
      <trkpt lat="44.03382" lon="1.86144">
        <ele>250</ele>
        <time>2020-10-04T11:54:42.690Z</time>
      </trkpt>
      <trkpt lat="44.03382" lon="1.86143">
        <ele>249</ele>
        <time>2020-10-04T11:54:43.690Z</time>
      </trkpt>
      <trkpt lat="44.03382" lon="1.86141">
        <ele>249</ele>
        <time>2020-10-04T11:54:44.690Z</time>
      </trkpt>
      <trkpt lat="44.03383" lon="1.8614">
        <ele>249</ele>
        <time>2020-10-04T11:54:45.690Z</time>
      </trkpt>
      <trkpt lat="44.03383" lon="1.86139">
        <ele>248</ele>
        <time>2020-10-04T11:54:46.690Z</time>
      </trkpt>
      <trkpt lat="44.03384" lon="1.86138">
        <ele>248</ele>
        <time>2020-10-04T11:54:54.693Z</time>
      </trkpt>
      <trkpt lat="44.03384" lon="1.86137">
        <ele>248</ele>
        <time>2020-10-04T11:54:55.693Z</time>
      </trkpt>
      <trkpt lat="44.03384" lon="1.86136">
        <ele>247</ele>
        <time>2020-10-04T11:54:56.693Z</time>
      </trkpt>
      <trkpt lat="44.03385" lon="1.86134">
        <ele>247</ele>
        <time>2020-10-04T11:54:57.693Z</time>
      </trkpt>
      <trkpt lat="44.03385" lon="1.86133">
        <ele>247</ele>
        <time>2020-10-04T11:54:58.693Z</time>
      </trkpt>
      <trkpt lat="44.03385" lon="1.86132">
        <ele>247</ele>
        <time>2020-10-04T11:55:04.715Z</time>
      </trkpt>
      <trkpt lat="44.03386" lon="1.86131">
        <ele>246</ele>
        <time>2020-10-04T11:55:05.715Z</time>
      </trkpt>
      <trkpt lat="44.03386" lon="1.8613">
        <ele>246</ele>
        <time>2020-10-04T11:55:06.715Z</time>
      </trkpt>
      <trkpt lat="44.03387" lon="1.86129">
        <ele>246</ele>
        <time>2020-10-04T11:55:07.715Z</time>
      </trkpt>
      <trkpt lat="44.03387" lon="1.86128">
        <ele>246</ele>
        <time>2020-10-04T11:55:08.715Z</time>
      </trkpt>
      <trkpt lat="44.03387" lon="1.86127">
        <ele>246</ele>
        <time>2020-10-04T11:55:09.715Z</time>
      </trkpt>
      <trkpt lat="44.03388" lon="1.86125">
        <ele>245</ele>
        <time>2020-10-04T11:55:10.715Z</time>
      </trkpt>
      <trkpt lat="44.03388" lon="1.86124">
        <ele>245</ele>
        <time>2020-10-04T11:55:11.715Z</time>
      </trkpt>
      <trkpt lat="44.03389" lon="1.86123">
        <ele>245</ele>
        <time>2020-10-04T11:55:12.715Z</time>
      </trkpt>
      <trkpt lat="44.03389" lon="1.86122">
        <ele>245</ele>
        <time>2020-10-04T11:55:13.715Z</time>
      </trkpt>
      <trkpt lat="44.0339" lon="1.86121">
        <ele>245</ele>
        <time>2020-10-04T11:55:14.715Z</time>
      </trkpt>
      <trkpt lat="44.0339" lon="1.8612">
        <ele>245</ele>
        <time>2020-10-04T11:55:15.715Z</time>
      </trkpt>
      <trkpt lat="44.0339" lon="1.86119">
        <ele>244</ele>
        <time>2020-10-04T11:55:16.715Z</time>
      </trkpt>
      <trkpt lat="44.03391" lon="1.86117">
        <ele>244</ele>
        <time>2020-10-04T11:55:17.715Z</time>
      </trkpt>
      <trkpt lat="44.03392" lon="1.86116">
        <ele>244</ele>
        <time>2020-10-04T11:55:18.715Z</time>
      </trkpt>
      <trkpt lat="44.03392" lon="1.86115">
        <ele>244</ele>
        <time>2020-10-04T11:55:19.715Z</time>
      </trkpt>
      <trkpt lat="44.03392" lon="1.86114">
        <ele>244</ele>
        <time>2020-10-04T11:55:20.715Z</time>
      </trkpt>
      <trkpt lat="44.03393" lon="1.86113">
        <ele>244</ele>
        <time>2020-10-04T11:55:21.715Z</time>
      </trkpt>
      <trkpt lat="44.03393" lon="1.86112">
        <ele>243</ele>
        <time>2020-10-04T11:55:22.715Z</time>
      </trkpt>
      <trkpt lat="44.03394" lon="1.86112">
        <ele>243</ele>
        <time>2020-10-04T11:55:23.715Z</time>
      </trkpt>
      <trkpt lat="44.03394" lon="1.86112">
        <ele>243</ele>
        <time>2020-10-04T11:55:24.715Z</time>
      </trkpt>
      <trkpt lat="44.03394" lon="1.86111">
        <ele>243</ele>
        <time>2020-10-04T11:55:25.715Z</time>
      </trkpt>
      <trkpt lat="44.03394" lon="1.86111">
        <ele>243</ele>
        <time>2020-10-04T11:55:26.715Z</time>
      </trkpt>
      <trkpt lat="44.03395" lon="1.8611">
        <ele>240</ele>
        <time>2020-10-04T11:55:27.715Z</time>
      </trkpt>
      <trkpt lat="44.03395" lon="1.86109">
        <ele>240</ele>
        <time>2020-10-04T11:55:28.715Z</time>
      </trkpt>
      <trkpt lat="44.03395" lon="1.86108">
        <ele>240</ele>
        <time>2020-10-04T11:55:29.715Z</time>
      </trkpt>
      <trkpt lat="44.03396" lon="1.86107">
        <ele>240</ele>
        <time>2020-10-04T11:55:30.715Z</time>
      </trkpt>
      <trkpt lat="44.03396" lon="1.86106">
        <ele>240</ele>
        <time>2020-10-04T11:55:31.715Z</time>
      </trkpt>
      <trkpt lat="44.03396" lon="1.86104">
        <ele>240</ele>
        <time>2020-10-04T11:55:32.715Z</time>
      </trkpt>
      <trkpt lat="44.03397" lon="1.86103">
        <ele>240</ele>
        <time>2020-10-04T11:55:33.715Z</time>
      </trkpt>
      <trkpt lat="44.03397" lon="1.86102">
        <ele>240</ele>
        <time>2020-10-04T11:55:34.715Z</time>
      </trkpt>
      <trkpt lat="44.03397" lon="1.86101">
        <ele>240</ele>
        <time>2020-10-04T11:55:35.715Z</time>
      </trkpt>
      <trkpt lat="44.03397" lon="1.861">
        <ele>240</ele>
        <time>2020-10-04T11:55:36.715Z</time>
      </trkpt>
      <trkpt lat="44.03397" lon="1.861">
        <ele>240</ele>
        <time>2020-10-04T11:55:37.715Z</time>
      </trkpt>
      <trkpt lat="44.03398" lon="1.861">
        <ele>240</ele>
        <time>2020-10-04T11:55:38.715Z</time>
      </trkpt>
      <trkpt lat="44.03398" lon="1.86099">
        <ele>239</ele>
        <time>2020-10-04T11:55:39.715Z</time>
      </trkpt>
      <trkpt lat="44.03398" lon="1.86097">
        <ele>238</ele>
        <time>2020-10-04T11:55:40.715Z</time>
      </trkpt>
      <trkpt lat="44.03399" lon="1.86096">
        <ele>238</ele>
        <time>2020-10-04T11:55:41.715Z</time>
      </trkpt>
      <trkpt lat="44.03399" lon="1.86094">
        <ele>238</ele>
        <time>2020-10-04T11:55:42.715Z</time>
      </trkpt>
      <trkpt lat="44.034" lon="1.86093">
        <ele>238</ele>
        <time>2020-10-04T11:55:43.715Z</time>
      </trkpt>
      <trkpt lat="44.034" lon="1.86092">
        <ele>238</ele>
        <time>2020-10-04T11:55:44.715Z</time>
      </trkpt>
      <trkpt lat="44.034" lon="1.86091">
        <ele>238</ele>
        <time>2020-10-04T11:55:45.715Z</time>
      </trkpt>
      <trkpt lat="44.03401" lon="1.86089">
        <ele>238</ele>
        <time>2020-10-04T11:55:46.715Z</time>
      </trkpt>
      <trkpt lat="44.03401" lon="1.86088">
        <ele>238</ele>
        <time>2020-10-04T11:55:47.715Z</time>
      </trkpt>
      <trkpt lat="44.03402" lon="1.86087">
        <ele>238</ele>
        <time>2020-10-04T11:55:48.715Z</time>
      </trkpt>
      <trkpt lat="44.03403" lon="1.86086">
        <ele>238</ele>
        <time>2020-10-04T11:55:49.715Z</time>
      </trkpt>
      <trkpt lat="44.03403" lon="1.86084">
        <ele>238</ele>
        <time>2020-10-04T11:55:50.715Z</time>
      </trkpt>
      <trkpt lat="44.03404" lon="1.86084">
        <ele>237</ele>
        <time>2020-10-04T11:55:51.715Z</time>
      </trkpt>
      <trkpt lat="44.03405" lon="1.86083">
        <ele>237</ele>
        <time>2020-10-04T11:55:52.715Z</time>
      </trkpt>
      <trkpt lat="44.03405" lon="1.86082">
        <ele>237</ele>
        <time>2020-10-04T11:55:53.715Z</time>
      </trkpt>
      <trkpt lat="44.03406" lon="1.86081">
        <ele>237</ele>
        <time>2020-10-04T11:55:54.715Z</time>
      </trkpt>
      <trkpt lat="44.03407" lon="1.8608">
        <ele>237</ele>
        <time>2020-10-04T11:55:55.715Z</time>
      </trkpt>
      <trkpt lat="44.03408" lon="1.8608">
        <ele>237</ele>
        <time>2020-10-04T11:55:56.715Z</time>
      </trkpt>
      <trkpt lat="44.03408" lon="1.86079">
        <ele>236</ele>
        <time>2020-10-04T11:55:57.715Z</time>
      </trkpt>
      <trkpt lat="44.03408" lon="1.86078">
        <ele>236</ele>
        <time>2020-10-04T11:55:58.715Z</time>
      </trkpt>
      <trkpt lat="44.03409" lon="1.86078">
        <ele>236</ele>
        <time>2020-10-04T11:55:59.715Z</time>
      </trkpt>
      <trkpt lat="44.03409" lon="1.86077">
        <ele>236</ele>
        <time>2020-10-04T11:56:00.715Z</time>
      </trkpt>
      <trkpt lat="44.03409" lon="1.86076">
        <ele>236</ele>
        <time>2020-10-04T11:56:01.715Z</time>
      </trkpt>
      <trkpt lat="44.0341" lon="1.86076">
        <ele>236</ele>
        <time>2020-10-04T11:56:02.715Z</time>
      </trkpt>
      <trkpt lat="44.03411" lon="1.86076">
        <ele>236</ele>
        <time>2020-10-04T11:56:03.715Z</time>
      </trkpt>
      <trkpt lat="44.03412" lon="1.86075">
        <ele>236</ele>
        <time>2020-10-04T11:56:04.715Z</time>
      </trkpt>
      <trkpt lat="44.03412" lon="1.86074">
        <ele>236</ele>
        <time>2020-10-04T11:56:05.715Z</time>
      </trkpt>
      <trkpt lat="44.03413" lon="1.86073">
        <ele>236</ele>
        <time>2020-10-04T11:56:06.715Z</time>
      </trkpt>
      <trkpt lat="44.03414" lon="1.86072">
        <ele>235</ele>
        <time>2020-10-04T11:56:07.715Z</time>
      </trkpt>
      <trkpt lat="44.03415" lon="1.86071">
        <ele>235</ele>
        <time>2020-10-04T11:56:08.715Z</time>
      </trkpt>
      <trkpt lat="44.03416" lon="1.8607">
        <ele>235</ele>
        <time>2020-10-04T11:56:09.715Z</time>
      </trkpt>
      <trkpt lat="44.03417" lon="1.86068">
        <ele>235</ele>
        <time>2020-10-04T11:56:10.715Z</time>
      </trkpt>
      <trkpt lat="44.03417" lon="1.86067">
        <ele>235</ele>
        <time>2020-10-04T11:56:11.715Z</time>
      </trkpt>
      <trkpt lat="44.03418" lon="1.86066">
        <ele>235</ele>
        <time>2020-10-04T11:56:12.715Z</time>
      </trkpt>
      <trkpt lat="44.03419" lon="1.86065">
        <ele>235</ele>
        <time>2020-10-04T11:56:13.715Z</time>
      </trkpt>
      <trkpt lat="44.0342" lon="1.86064">
        <ele>234</ele>
        <time>2020-10-04T11:56:14.715Z</time>
      </trkpt>
      <trkpt lat="44.03421" lon="1.86063">
        <ele>234</ele>
        <time>2020-10-04T11:56:15.715Z</time>
      </trkpt>
      <trkpt lat="44.03421" lon="1.86061">
        <ele>234</ele>
        <time>2020-10-04T11:56:16.715Z</time>
      </trkpt>
      <trkpt lat="44.03422" lon="1.8606">
        <ele>234</ele>
        <time>2020-10-04T11:56:17.715Z</time>
      </trkpt>
      <trkpt lat="44.03423" lon="1.86059">
        <ele>234</ele>
        <time>2020-10-04T11:56:18.715Z</time>
      </trkpt>
      <trkpt lat="44.03424" lon="1.86057">
        <ele>234</ele>
        <time>2020-10-04T11:56:19.715Z</time>
      </trkpt>
      <trkpt lat="44.03425" lon="1.86056">
        <ele>234</ele>
        <time>2020-10-04T11:56:20.715Z</time>
      </trkpt>
      <trkpt lat="44.03425" lon="1.86055">
        <ele>233</ele>
        <time>2020-10-04T11:56:21.715Z</time>
      </trkpt>
      <trkpt lat="44.03426" lon="1.86053">
        <ele>233</ele>
        <time>2020-10-04T11:56:22.715Z</time>
      </trkpt>
      <trkpt lat="44.03427" lon="1.86052">
        <ele>233</ele>
        <time>2020-10-04T11:56:23.715Z</time>
      </trkpt>
      <trkpt lat="44.03428" lon="1.86051">
        <ele>233</ele>
        <time>2020-10-04T11:56:24.715Z</time>
      </trkpt>
      <trkpt lat="44.03429" lon="1.86049">
        <ele>233</ele>
        <time>2020-10-04T11:56:25.715Z</time>
      </trkpt>
      <trkpt lat="44.03431" lon="1.86048">
        <ele>233</ele>
        <time>2020-10-04T11:56:26.715Z</time>
      </trkpt>
      <trkpt lat="44.03432" lon="1.86047">
        <ele>233</ele>
        <time>2020-10-04T11:56:27.715Z</time>
      </trkpt>
      <trkpt lat="44.03433" lon="1.86046">
        <ele>233</ele>
        <time>2020-10-04T11:56:28.715Z</time>
      </trkpt>
      <trkpt lat="44.03433" lon="1.86045">
        <ele>233</ele>
        <time>2020-10-04T11:56:29.715Z</time>
      </trkpt>
      <trkpt lat="44.03434" lon="1.86044">
        <ele>232</ele>
        <time>2020-10-04T11:56:30.715Z</time>
      </trkpt>
      <trkpt lat="44.03435" lon="1.86042">
        <ele>232</ele>
        <time>2020-10-04T11:56:31.715Z</time>
      </trkpt>
      <trkpt lat="44.03436" lon="1.86041">
        <ele>232</ele>
        <time>2020-10-04T11:56:32.715Z</time>
      </trkpt>
      <trkpt lat="44.03437" lon="1.8604">
        <ele>232</ele>
        <time>2020-10-04T11:56:33.715Z</time>
      </trkpt>
      <trkpt lat="44.03438" lon="1.86039">
        <ele>231</ele>
        <time>2020-10-04T11:56:34.715Z</time>
      </trkpt>
      <trkpt lat="44.03439" lon="1.86038">
        <ele>231</ele>
        <time>2020-10-04T11:56:35.715Z</time>
      </trkpt>
      <trkpt lat="44.0344" lon="1.86037">
        <ele>231</ele>
        <time>2020-10-04T11:56:36.715Z</time>
      </trkpt>
      <trkpt lat="44.03441" lon="1.86035">
        <ele>231</ele>
        <time>2020-10-04T11:56:37.715Z</time>
      </trkpt>
      <trkpt lat="44.03442" lon="1.86034">
        <ele>231</ele>
        <time>2020-10-04T11:56:38.715Z</time>
      </trkpt>
      <trkpt lat="44.03443" lon="1.86033">
        <ele>231</ele>
        <time>2020-10-04T11:56:39.715Z</time>
      </trkpt>
      <trkpt lat="44.03444" lon="1.86032">
        <ele>230</ele>
        <time>2020-10-04T11:56:40.715Z</time>
      </trkpt>
      <trkpt lat="44.03445" lon="1.86031">
        <ele>230</ele>
        <time>2020-10-04T11:56:41.715Z</time>
      </trkpt>
      <trkpt lat="44.03445" lon="1.8603">
        <ele>230</ele>
        <time>2020-10-04T11:56:42.715Z</time>
      </trkpt>
      <trkpt lat="44.03446" lon="1.86028">
        <ele>230</ele>
        <time>2020-10-04T11:56:43.715Z</time>
      </trkpt>
      <trkpt lat="44.03447" lon="1.86027">
        <ele>229</ele>
        <time>2020-10-04T11:56:44.715Z</time>
      </trkpt>
      <trkpt lat="44.03448" lon="1.86026">
        <ele>229</ele>
        <time>2020-10-04T11:56:45.715Z</time>
      </trkpt>
      <trkpt lat="44.03448" lon="1.86025">
        <ele>229</ele>
        <time>2020-10-04T11:56:46.715Z</time>
      </trkpt>
      <trkpt lat="44.03449" lon="1.86023">
        <ele>229</ele>
        <time>2020-10-04T11:56:47.715Z</time>
      </trkpt>
      <trkpt lat="44.0345" lon="1.86022">
        <ele>229</ele>
        <time>2020-10-04T11:56:48.715Z</time>
      </trkpt>
      <trkpt lat="44.0345" lon="1.86021">
        <ele>229</ele>
        <time>2020-10-04T11:56:49.715Z</time>
      </trkpt>
      <trkpt lat="44.03451" lon="1.86019">
        <ele>229</ele>
        <time>2020-10-04T11:56:50.715Z</time>
      </trkpt>
      <trkpt lat="44.03451" lon="1.86018">
        <ele>229</ele>
        <time>2020-10-04T11:56:51.715Z</time>
      </trkpt>
      <trkpt lat="44.03452" lon="1.86017">
        <ele>229</ele>
        <time>2020-10-04T11:56:52.715Z</time>
      </trkpt>
      <trkpt lat="44.03452" lon="1.86016">
        <ele>229</ele>
        <time>2020-10-04T11:56:53.715Z</time>
      </trkpt>
      <trkpt lat="44.03452" lon="1.86016">
        <ele>229</ele>
        <time>2020-10-04T11:56:54.715Z</time>
      </trkpt>
      <trkpt lat="44.03452" lon="1.86016">
        <ele>229</ele>
        <time>2020-10-04T11:56:55.715Z</time>
      </trkpt>
      <trkpt lat="44.03452" lon="1.86016">
        <ele>229</ele>
        <time>2020-10-04T11:56:56.715Z</time>
      </trkpt>
      <trkpt lat="44.03451" lon="1.86012">
        <ele>230</ele>
        <time>2020-10-04T11:56:57.715Z</time>
      </trkpt>
      <trkpt lat="44.03451" lon="1.86012">
        <ele>230</ele>
        <time>2020-10-04T11:56:58.715Z</time>
      </trkpt>
      <trkpt lat="44.03451" lon="1.86012">
        <ele>229</ele>
        <time>2020-10-04T11:56:59.715Z</time>
      </trkpt>
      <trkpt lat="44.03451" lon="1.8601">
        <ele>229</ele>
        <time>2020-10-04T11:57:00.715Z</time>
      </trkpt>
      <trkpt lat="44.03451" lon="1.8601">
        <ele>229</ele>
        <time>2020-10-04T11:57:01.715Z</time>
      </trkpt>
      <trkpt lat="44.03451" lon="1.8601">
        <ele>229</ele>
        <time>2020-10-04T11:57:02.715Z</time>
      </trkpt>
      <trkpt lat="44.03451" lon="1.86009">
        <ele>229</ele>
        <time>2020-10-04T11:57:03.715Z</time>
      </trkpt>
      <trkpt lat="44.03452" lon="1.86008">
        <ele>229</ele>
        <time>2020-10-04T11:57:04.715Z</time>
      </trkpt>
      <trkpt lat="44.03452" lon="1.86006">
        <ele>229</ele>
        <time>2020-10-04T11:57:05.715Z</time>
      </trkpt>
      <trkpt lat="44.03452" lon="1.86005">
        <ele>228</ele>
        <time>2020-10-04T11:57:06.715Z</time>
      </trkpt>
      <trkpt lat="44.03453" lon="1.86004">
        <ele>228</ele>
        <time>2020-10-04T11:57:07.715Z</time>
      </trkpt>
      <trkpt lat="44.03454" lon="1.86003">
        <ele>228</ele>
        <time>2020-10-04T11:57:08.715Z</time>
      </trkpt>
      <trkpt lat="44.03454" lon="1.86002">
        <ele>228</ele>
        <time>2020-10-04T11:57:09.715Z</time>
      </trkpt>
      <trkpt lat="44.03455" lon="1.86001">
        <ele>228</ele>
        <time>2020-10-04T11:57:10.715Z</time>
      </trkpt>
      <trkpt lat="44.03456" lon="1.85999">
        <ele>228</ele>
        <time>2020-10-04T11:57:11.715Z</time>
      </trkpt>
      <trkpt lat="44.03457" lon="1.85998">
        <ele>228</ele>
        <time>2020-10-04T11:57:12.715Z</time>
      </trkpt>
      <trkpt lat="44.03458" lon="1.85997">
        <ele>227</ele>
        <time>2020-10-04T11:57:13.715Z</time>
      </trkpt>
      <trkpt lat="44.03458" lon="1.85996">
        <ele>227</ele>
        <time>2020-10-04T11:57:14.715Z</time>
      </trkpt>
      <trkpt lat="44.03459" lon="1.85995">
        <ele>227</ele>
        <time>2020-10-04T11:57:15.715Z</time>
      </trkpt>
      <trkpt lat="44.0346" lon="1.85994">
        <ele>227</ele>
        <time>2020-10-04T11:57:16.715Z</time>
      </trkpt>
      <trkpt lat="44.0346" lon="1.85992">
        <ele>227</ele>
        <time>2020-10-04T11:57:17.715Z</time>
      </trkpt>
      <trkpt lat="44.03461" lon="1.85991">
        <ele>227</ele>
        <time>2020-10-04T11:57:18.715Z</time>
      </trkpt>
      <trkpt lat="44.03462" lon="1.8599">
        <ele>227</ele>
        <time>2020-10-04T11:57:19.715Z</time>
      </trkpt>
      <trkpt lat="44.03462" lon="1.85989">
        <ele>227</ele>
        <time>2020-10-04T11:57:20.715Z</time>
      </trkpt>
      <trkpt lat="44.03463" lon="1.85988">
        <ele>227</ele>
        <time>2020-10-04T11:57:21.715Z</time>
      </trkpt>
      <trkpt lat="44.03463" lon="1.85986">
        <ele>227</ele>
        <time>2020-10-04T11:57:22.715Z</time>
      </trkpt>
      <trkpt lat="44.03464" lon="1.85985">
        <ele>227</ele>
        <time>2020-10-04T11:57:23.715Z</time>
      </trkpt>
      <trkpt lat="44.03465" lon="1.85984">
        <ele>227</ele>
        <time>2020-10-04T11:57:24.715Z</time>
      </trkpt>
      <trkpt lat="44.03465" lon="1.85983">
        <ele>227</ele>
        <time>2020-10-04T11:57:25.715Z</time>
      </trkpt>
      <trkpt lat="44.03466" lon="1.85982">
        <ele>227</ele>
        <time>2020-10-04T11:57:26.715Z</time>
      </trkpt>
      <trkpt lat="44.03467" lon="1.85981">
        <ele>227</ele>
        <time>2020-10-04T11:57:27.715Z</time>
      </trkpt>
      <trkpt lat="44.03468" lon="1.8598">
        <ele>227</ele>
        <time>2020-10-04T11:57:28.715Z</time>
      </trkpt>
      <trkpt lat="44.03468" lon="1.85979">
        <ele>227</ele>
        <time>2020-10-04T11:57:29.715Z</time>
      </trkpt>
      <trkpt lat="44.03468" lon="1.85978">
        <ele>227</ele>
        <time>2020-10-04T11:57:30.715Z</time>
      </trkpt>
      <trkpt lat="44.03469" lon="1.85978">
        <ele>227</ele>
        <time>2020-10-04T11:57:31.715Z</time>
      </trkpt>
      <trkpt lat="44.03469" lon="1.85977">
        <ele>227</ele>
        <time>2020-10-04T11:57:32.715Z</time>
      </trkpt>
      <trkpt lat="44.03469" lon="1.85976">
        <ele>227</ele>
        <time>2020-10-04T11:57:33.715Z</time>
      </trkpt>
      <trkpt lat="44.03469" lon="1.85975">
        <ele>227</ele>
        <time>2020-10-04T11:57:34.715Z</time>
      </trkpt>
      <trkpt lat="44.03469" lon="1.85974">
        <ele>227</ele>
        <time>2020-10-04T11:57:35.715Z</time>
      </trkpt>
      <trkpt lat="44.0347" lon="1.85973">
        <ele>227</ele>
        <time>2020-10-04T11:57:36.715Z</time>
      </trkpt>
      <trkpt lat="44.0347" lon="1.85972">
        <ele>227</ele>
        <time>2020-10-04T11:57:37.715Z</time>
      </trkpt>
      <trkpt lat="44.03471" lon="1.85971">
        <ele>227</ele>
        <time>2020-10-04T11:57:38.715Z</time>
      </trkpt>
      <trkpt lat="44.03471" lon="1.8597">
        <ele>227</ele>
        <time>2020-10-04T11:57:39.715Z</time>
      </trkpt>
      <trkpt lat="44.03471" lon="1.85969">
        <ele>227</ele>
        <time>2020-10-04T11:57:40.715Z</time>
      </trkpt>
      <trkpt lat="44.03471" lon="1.85968">
        <ele>227</ele>
        <time>2020-10-04T11:57:41.715Z</time>
      </trkpt>
      <trkpt lat="44.03472" lon="1.85967">
        <ele>227</ele>
        <time>2020-10-04T11:57:42.715Z</time>
      </trkpt>
      <trkpt lat="44.03472" lon="1.85966">
        <ele>227</ele>
        <time>2020-10-04T11:57:43.715Z</time>
      </trkpt>
      <trkpt lat="44.03472" lon="1.85964">
        <ele>227</ele>
        <time>2020-10-04T11:57:44.715Z</time>
      </trkpt>
      <trkpt lat="44.03472" lon="1.85963">
        <ele>227</ele>
        <time>2020-10-04T11:57:45.715Z</time>
      </trkpt>
      <trkpt lat="44.03473" lon="1.85961">
        <ele>227</ele>
        <time>2020-10-04T11:57:46.715Z</time>
      </trkpt>
      <trkpt lat="44.03473" lon="1.85959">
        <ele>227</ele>
        <time>2020-10-04T11:57:47.715Z</time>
      </trkpt>
      <trkpt lat="44.03473" lon="1.85958">
        <ele>227</ele>
        <time>2020-10-04T11:57:48.715Z</time>
      </trkpt>
      <trkpt lat="44.03473" lon="1.85956">
        <ele>227</ele>
        <time>2020-10-04T11:57:49.715Z</time>
      </trkpt>
      <trkpt lat="44.03473" lon="1.85955">
        <ele>227</ele>
        <time>2020-10-04T11:57:50.715Z</time>
      </trkpt>
      <trkpt lat="44.03474" lon="1.85953">
        <ele>227</ele>
        <time>2020-10-04T11:57:51.715Z</time>
      </trkpt>
      <trkpt lat="44.03474" lon="1.85952">
        <ele>227</ele>
        <time>2020-10-04T11:57:52.715Z</time>
      </trkpt>
      <trkpt lat="44.03474" lon="1.8595">
        <ele>227</ele>
        <time>2020-10-04T11:57:53.715Z</time>
      </trkpt>
      <trkpt lat="44.03474" lon="1.85949">
        <ele>227</ele>
        <time>2020-10-04T11:57:54.715Z</time>
      </trkpt>
      <trkpt lat="44.03474" lon="1.85948">
        <ele>227</ele>
        <time>2020-10-04T11:57:55.715Z</time>
      </trkpt>
      <trkpt lat="44.03474" lon="1.85946">
        <ele>227</ele>
        <time>2020-10-04T11:57:56.715Z</time>
      </trkpt>
      <trkpt lat="44.03475" lon="1.85945">
        <ele>227</ele>
        <time>2020-10-04T11:57:57.715Z</time>
      </trkpt>
      <trkpt lat="44.03475" lon="1.85943">
        <ele>227</ele>
        <time>2020-10-04T11:57:58.715Z</time>
      </trkpt>
      <trkpt lat="44.03476" lon="1.85943">
        <ele>227</ele>
        <time>2020-10-04T11:57:59.715Z</time>
      </trkpt>
      <trkpt lat="44.03476" lon="1.85942">
        <ele>227</ele>
        <time>2020-10-04T11:58:00.715Z</time>
      </trkpt>
      <trkpt lat="44.03477" lon="1.85941">
        <ele>227</ele>
        <time>2020-10-04T11:58:01.715Z</time>
      </trkpt>
      <trkpt lat="44.03477" lon="1.8594">
        <ele>227</ele>
        <time>2020-10-04T11:58:02.715Z</time>
      </trkpt>
      <trkpt lat="44.03478" lon="1.8594">
        <ele>227</ele>
        <time>2020-10-04T11:58:03.715Z</time>
      </trkpt>
      <trkpt lat="44.03478" lon="1.85939">
        <ele>227</ele>
        <time>2020-10-04T11:58:04.715Z</time>
      </trkpt>
      <trkpt lat="44.03479" lon="1.85938">
        <ele>227</ele>
        <time>2020-10-04T11:58:05.715Z</time>
      </trkpt>
      <trkpt lat="44.0348" lon="1.85937">
        <ele>227</ele>
        <time>2020-10-04T11:58:06.715Z</time>
      </trkpt>
      <trkpt lat="44.03481" lon="1.85936">
        <ele>228</ele>
        <time>2020-10-04T11:58:07.715Z</time>
      </trkpt>
      <trkpt lat="44.03482" lon="1.85936">
        <ele>228</ele>
        <time>2020-10-04T11:58:08.715Z</time>
      </trkpt>
      <trkpt lat="44.03482" lon="1.85935">
        <ele>228</ele>
        <time>2020-10-04T11:58:09.715Z</time>
      </trkpt>
      <trkpt lat="44.03483" lon="1.85933">
        <ele>228</ele>
        <time>2020-10-04T11:58:10.715Z</time>
      </trkpt>
      <trkpt lat="44.03483" lon="1.85932">
        <ele>228</ele>
        <time>2020-10-04T11:58:11.715Z</time>
      </trkpt>
      <trkpt lat="44.03483" lon="1.8593">
        <ele>228</ele>
        <time>2020-10-04T11:58:12.715Z</time>
      </trkpt>
      <trkpt lat="44.03484" lon="1.85929">
        <ele>228</ele>
        <time>2020-10-04T11:58:13.715Z</time>
      </trkpt>
      <trkpt lat="44.03485" lon="1.85928">
        <ele>228</ele>
        <time>2020-10-04T11:58:14.715Z</time>
      </trkpt>
      <trkpt lat="44.03486" lon="1.85928">
        <ele>228</ele>
        <time>2020-10-04T11:58:15.715Z</time>
      </trkpt>
      <trkpt lat="44.03487" lon="1.85927">
        <ele>228</ele>
        <time>2020-10-04T11:58:16.715Z</time>
      </trkpt>
      <trkpt lat="44.03488" lon="1.85927">
        <ele>228</ele>
        <time>2020-10-04T11:58:17.715Z</time>
      </trkpt>
      <trkpt lat="44.03489" lon="1.85926">
        <ele>228</ele>
        <time>2020-10-04T11:58:18.715Z</time>
      </trkpt>
      <trkpt lat="44.0349" lon="1.85926">
        <ele>228</ele>
        <time>2020-10-04T11:58:19.715Z</time>
      </trkpt>
      <trkpt lat="44.03491" lon="1.85926">
        <ele>228</ele>
        <time>2020-10-04T11:58:20.715Z</time>
      </trkpt>
      <trkpt lat="44.03492" lon="1.85926">
        <ele>228</ele>
        <time>2020-10-04T11:58:21.715Z</time>
      </trkpt>
      <trkpt lat="44.03493" lon="1.85925">
        <ele>228</ele>
        <time>2020-10-04T11:58:22.715Z</time>
      </trkpt>
      <trkpt lat="44.03494" lon="1.85925">
        <ele>228</ele>
        <time>2020-10-04T11:58:23.715Z</time>
      </trkpt>
      <trkpt lat="44.03495" lon="1.85924">
        <ele>228</ele>
        <time>2020-10-04T11:58:24.715Z</time>
      </trkpt>
      <trkpt lat="44.03496" lon="1.85924">
        <ele>228</ele>
        <time>2020-10-04T11:58:25.715Z</time>
      </trkpt>
      <trkpt lat="44.03497" lon="1.85924">
        <ele>228</ele>
        <time>2020-10-04T11:58:26.715Z</time>
      </trkpt>
      <trkpt lat="44.03498" lon="1.85924">
        <ele>228</ele>
        <time>2020-10-04T11:58:27.715Z</time>
      </trkpt>
      <trkpt lat="44.03499" lon="1.85923">
        <ele>227</ele>
        <time>2020-10-04T11:58:28.715Z</time>
      </trkpt>
      <trkpt lat="44.035" lon="1.85923">
        <ele>227</ele>
        <time>2020-10-04T11:58:29.715Z</time>
      </trkpt>
      <trkpt lat="44.03501" lon="1.85923">
        <ele>227</ele>
        <time>2020-10-04T11:58:30.715Z</time>
      </trkpt>
      <trkpt lat="44.03502" lon="1.85923">
        <ele>227</ele>
        <time>2020-10-04T11:58:31.715Z</time>
      </trkpt>
      <trkpt lat="44.03503" lon="1.85922">
        <ele>227</ele>
        <time>2020-10-04T11:58:32.715Z</time>
      </trkpt>
      <trkpt lat="44.03504" lon="1.85922">
        <ele>227</ele>
        <time>2020-10-04T11:58:33.715Z</time>
      </trkpt>
      <trkpt lat="44.03505" lon="1.85922">
        <ele>227</ele>
        <time>2020-10-04T11:58:34.715Z</time>
      </trkpt>
      <trkpt lat="44.03507" lon="1.85922">
        <ele>227</ele>
        <time>2020-10-04T11:58:35.715Z</time>
      </trkpt>
      <trkpt lat="44.03508" lon="1.85922">
        <ele>226</ele>
        <time>2020-10-04T11:58:36.715Z</time>
      </trkpt>
      <trkpt lat="44.03509" lon="1.85922">
        <ele>226</ele>
        <time>2020-10-04T11:58:37.715Z</time>
      </trkpt>
      <trkpt lat="44.0351" lon="1.85922">
        <ele>226</ele>
        <time>2020-10-04T11:58:38.715Z</time>
      </trkpt>
      <trkpt lat="44.03512" lon="1.85922">
        <ele>226</ele>
        <time>2020-10-04T11:58:39.715Z</time>
      </trkpt>
      <trkpt lat="44.03513" lon="1.85922">
        <ele>225</ele>
        <time>2020-10-04T11:58:40.715Z</time>
      </trkpt>
      <trkpt lat="44.03514" lon="1.85922">
        <ele>225</ele>
        <time>2020-10-04T11:58:41.715Z</time>
      </trkpt>
      <trkpt lat="44.03515" lon="1.85923">
        <ele>225</ele>
        <time>2020-10-04T11:58:42.715Z</time>
      </trkpt>
      <trkpt lat="44.03516" lon="1.85923">
        <ele>225</ele>
        <time>2020-10-04T11:58:43.715Z</time>
      </trkpt>
      <trkpt lat="44.03517" lon="1.85923">
        <ele>225</ele>
        <time>2020-10-04T11:58:44.715Z</time>
      </trkpt>
      <trkpt lat="44.03518" lon="1.85923">
        <ele>225</ele>
        <time>2020-10-04T11:58:45.715Z</time>
      </trkpt>
      <trkpt lat="44.0352" lon="1.85923">
        <ele>225</ele>
        <time>2020-10-04T11:58:46.715Z</time>
      </trkpt>
      <trkpt lat="44.03521" lon="1.85923">
        <ele>225</ele>
        <time>2020-10-04T11:58:47.715Z</time>
      </trkpt>
      <trkpt lat="44.03522" lon="1.85923">
        <ele>224</ele>
        <time>2020-10-04T11:58:48.715Z</time>
      </trkpt>
      <trkpt lat="44.03523" lon="1.85923">
        <ele>224</ele>
        <time>2020-10-04T11:58:49.715Z</time>
      </trkpt>
      <trkpt lat="44.03524" lon="1.85923">
        <ele>224</ele>
        <time>2020-10-04T11:58:50.715Z</time>
      </trkpt>
      <trkpt lat="44.03525" lon="1.85923">
        <ele>224</ele>
        <time>2020-10-04T11:58:51.715Z</time>
      </trkpt>
      <trkpt lat="44.03526" lon="1.85923">
        <ele>224</ele>
        <time>2020-10-04T11:58:52.715Z</time>
      </trkpt>
      <trkpt lat="44.03528" lon="1.85924">
        <ele>224</ele>
        <time>2020-10-04T11:58:53.715Z</time>
      </trkpt>
      <trkpt lat="44.03529" lon="1.85924">
        <ele>224</ele>
        <time>2020-10-04T11:58:54.715Z</time>
      </trkpt>
      <trkpt lat="44.0353" lon="1.85924">
        <ele>224</ele>
        <time>2020-10-04T11:58:55.715Z</time>
      </trkpt>
      <trkpt lat="44.03531" lon="1.85924">
        <ele>224</ele>
        <time>2020-10-04T11:58:56.715Z</time>
      </trkpt>
      <trkpt lat="44.03533" lon="1.85924">
        <ele>224</ele>
        <time>2020-10-04T11:58:57.715Z</time>
      </trkpt>
      <trkpt lat="44.03534" lon="1.85924">
        <ele>224</ele>
        <time>2020-10-04T11:58:58.715Z</time>
      </trkpt>
      <trkpt lat="44.03535" lon="1.85925">
        <ele>223</ele>
        <time>2020-10-04T11:58:59.715Z</time>
      </trkpt>
      <trkpt lat="44.03536" lon="1.85925">
        <ele>223</ele>
        <time>2020-10-04T11:59:00.715Z</time>
      </trkpt>
      <trkpt lat="44.03537" lon="1.85926">
        <ele>223</ele>
        <time>2020-10-04T11:59:01.715Z</time>
      </trkpt>
      <trkpt lat="44.03538" lon="1.85926">
        <ele>223</ele>
        <time>2020-10-04T11:59:02.715Z</time>
      </trkpt>
      <trkpt lat="44.0354" lon="1.85927">
        <ele>223</ele>
        <time>2020-10-04T11:59:03.715Z</time>
      </trkpt>
      <trkpt lat="44.03541" lon="1.85927">
        <ele>223</ele>
        <time>2020-10-04T11:59:04.715Z</time>
      </trkpt>
      <trkpt lat="44.03542" lon="1.85927">
        <ele>223</ele>
        <time>2020-10-04T11:59:05.715Z</time>
      </trkpt>
      <trkpt lat="44.03544" lon="1.85928">
        <ele>223</ele>
        <time>2020-10-04T11:59:06.715Z</time>
      </trkpt>
      <trkpt lat="44.03545" lon="1.85928">
        <ele>223</ele>
        <time>2020-10-04T11:59:07.715Z</time>
      </trkpt>
      <trkpt lat="44.03546" lon="1.85929">
        <ele>223</ele>
        <time>2020-10-04T11:59:08.715Z</time>
      </trkpt>
      <trkpt lat="44.03547" lon="1.85929">
        <ele>223</ele>
        <time>2020-10-04T11:59:09.715Z</time>
      </trkpt>
      <trkpt lat="44.03548" lon="1.8593">
        <ele>223</ele>
        <time>2020-10-04T11:59:10.715Z</time>
      </trkpt>
      <trkpt lat="44.0355" lon="1.8593">
        <ele>223</ele>
        <time>2020-10-04T11:59:11.715Z</time>
      </trkpt>
      <trkpt lat="44.03551" lon="1.85931">
        <ele>223</ele>
        <time>2020-10-04T11:59:12.715Z</time>
      </trkpt>
      <trkpt lat="44.03552" lon="1.85931">
        <ele>223</ele>
        <time>2020-10-04T11:59:13.715Z</time>
      </trkpt>
      <trkpt lat="44.03553" lon="1.85932">
        <ele>223</ele>
        <time>2020-10-04T11:59:14.715Z</time>
      </trkpt>
      <trkpt lat="44.03554" lon="1.85932">
        <ele>223</ele>
        <time>2020-10-04T11:59:15.715Z</time>
      </trkpt>
      <trkpt lat="44.03555" lon="1.85932">
        <ele>223</ele>
        <time>2020-10-04T11:59:16.715Z</time>
      </trkpt>
      <trkpt lat="44.03557" lon="1.85933">
        <ele>223</ele>
        <time>2020-10-04T11:59:17.715Z</time>
      </trkpt>
      <trkpt lat="44.03558" lon="1.85933">
        <ele>223</ele>
        <time>2020-10-04T11:59:18.715Z</time>
      </trkpt>
      <trkpt lat="44.03559" lon="1.85933">
        <ele>223</ele>
        <time>2020-10-04T11:59:19.715Z</time>
      </trkpt>
      <trkpt lat="44.0356" lon="1.85933">
        <ele>223</ele>
        <time>2020-10-04T11:59:20.715Z</time>
      </trkpt>
      <trkpt lat="44.03561" lon="1.85934">
        <ele>223</ele>
        <time>2020-10-04T11:59:21.715Z</time>
      </trkpt>
      <trkpt lat="44.03562" lon="1.85934">
        <ele>223</ele>
        <time>2020-10-04T11:59:22.715Z</time>
      </trkpt>
      <trkpt lat="44.03564" lon="1.85934">
        <ele>223</ele>
        <time>2020-10-04T11:59:23.715Z</time>
      </trkpt>
      <trkpt lat="44.03565" lon="1.85934">
        <ele>223</ele>
        <time>2020-10-04T11:59:24.715Z</time>
      </trkpt>
      <trkpt lat="44.03566" lon="1.85935">
        <ele>223</ele>
        <time>2020-10-04T11:59:25.715Z</time>
      </trkpt>
      <trkpt lat="44.03567" lon="1.85935">
        <ele>223</ele>
        <time>2020-10-04T11:59:26.715Z</time>
      </trkpt>
      <trkpt lat="44.03568" lon="1.85935">
        <ele>223</ele>
        <time>2020-10-04T11:59:27.715Z</time>
      </trkpt>
      <trkpt lat="44.03569" lon="1.85935">
        <ele>223</ele>
        <time>2020-10-04T11:59:28.715Z</time>
      </trkpt>
      <trkpt lat="44.0357" lon="1.85935">
        <ele>223</ele>
        <time>2020-10-04T11:59:29.715Z</time>
      </trkpt>
      <trkpt lat="44.03571" lon="1.85935">
        <ele>223</ele>
        <time>2020-10-04T11:59:30.715Z</time>
      </trkpt>
      <trkpt lat="44.03572" lon="1.85935">
        <ele>223</ele>
        <time>2020-10-04T11:59:31.715Z</time>
      </trkpt>
      <trkpt lat="44.03573" lon="1.85936">
        <ele>223</ele>
        <time>2020-10-04T11:59:32.715Z</time>
      </trkpt>
      <trkpt lat="44.03574" lon="1.85936">
        <ele>223</ele>
        <time>2020-10-04T11:59:33.715Z</time>
      </trkpt>
      <trkpt lat="44.03575" lon="1.85936">
        <ele>223</ele>
        <time>2020-10-04T11:59:34.715Z</time>
      </trkpt>
      <trkpt lat="44.03577" lon="1.85936">
        <ele>223</ele>
        <time>2020-10-04T11:59:35.715Z</time>
      </trkpt>
      <trkpt lat="44.03578" lon="1.85935">
        <ele>223</ele>
        <time>2020-10-04T11:59:36.715Z</time>
      </trkpt>
      <trkpt lat="44.03579" lon="1.85935">
        <ele>223</ele>
        <time>2020-10-04T11:59:37.715Z</time>
      </trkpt>
      <trkpt lat="44.0358" lon="1.85935">
        <ele>223</ele>
        <time>2020-10-04T11:59:38.715Z</time>
      </trkpt>
      <trkpt lat="44.03581" lon="1.85935">
        <ele>223</ele>
        <time>2020-10-04T11:59:39.715Z</time>
      </trkpt>
      <trkpt lat="44.03582" lon="1.85935">
        <ele>223</ele>
        <time>2020-10-04T11:59:40.715Z</time>
      </trkpt>
      <trkpt lat="44.03583" lon="1.85935">
        <ele>223</ele>
        <time>2020-10-04T11:59:41.715Z</time>
      </trkpt>
      <trkpt lat="44.03584" lon="1.85935">
        <ele>224</ele>
        <time>2020-10-04T11:59:42.715Z</time>
      </trkpt>
      <trkpt lat="44.03585" lon="1.85935">
        <ele>224</ele>
        <time>2020-10-04T11:59:43.715Z</time>
      </trkpt>
      <trkpt lat="44.03586" lon="1.85934">
        <ele>224</ele>
        <time>2020-10-04T11:59:44.715Z</time>
      </trkpt>
      <trkpt lat="44.03587" lon="1.85934">
        <ele>224</ele>
        <time>2020-10-04T11:59:45.715Z</time>
      </trkpt>
      <trkpt lat="44.03589" lon="1.85934">
        <ele>224</ele>
        <time>2020-10-04T11:59:46.715Z</time>
      </trkpt>
      <trkpt lat="44.0359" lon="1.85933">
        <ele>224</ele>
        <time>2020-10-04T11:59:47.715Z</time>
      </trkpt>
      <trkpt lat="44.03591" lon="1.85933">
        <ele>224</ele>
        <time>2020-10-04T11:59:48.715Z</time>
      </trkpt>
      <trkpt lat="44.03592" lon="1.85933">
        <ele>224</ele>
        <time>2020-10-04T11:59:49.715Z</time>
      </trkpt>
      <trkpt lat="44.03593" lon="1.85933">
        <ele>224</ele>
        <time>2020-10-04T11:59:50.715Z</time>
      </trkpt>
      <trkpt lat="44.03594" lon="1.85932">
        <ele>224</ele>
        <time>2020-10-04T11:59:51.715Z</time>
      </trkpt>
      <trkpt lat="44.03595" lon="1.85932">
        <ele>224</ele>
        <time>2020-10-04T11:59:52.715Z</time>
      </trkpt>
      <trkpt lat="44.03597" lon="1.85932">
        <ele>224</ele>
        <time>2020-10-04T11:59:53.715Z</time>
      </trkpt>
      <trkpt lat="44.03598" lon="1.85932">
        <ele>224</ele>
        <time>2020-10-04T11:59:54.715Z</time>
      </trkpt>
      <trkpt lat="44.03599" lon="1.85931">
        <ele>224</ele>
        <time>2020-10-04T11:59:55.715Z</time>
      </trkpt>
      <trkpt lat="44.036" lon="1.85931">
        <ele>224</ele>
        <time>2020-10-04T11:59:56.715Z</time>
      </trkpt>
      <trkpt lat="44.03601" lon="1.85931">
        <ele>224</ele>
        <time>2020-10-04T11:59:57.715Z</time>
      </trkpt>
      <trkpt lat="44.03602" lon="1.85931">
        <ele>224</ele>
        <time>2020-10-04T11:59:58.715Z</time>
      </trkpt>
      <trkpt lat="44.03603" lon="1.85931">
        <ele>224</ele>
        <time>2020-10-04T11:59:59.715Z</time>
      </trkpt>
      <trkpt lat="44.03604" lon="1.85931">
        <ele>224</ele>
        <time>2020-10-04T12:00:00.715Z</time>
      </trkpt>
      <trkpt lat="44.03605" lon="1.85931">
        <ele>224</ele>
        <time>2020-10-04T12:00:01.715Z</time>
      </trkpt>
      <trkpt lat="44.03606" lon="1.8593">
        <ele>224</ele>
        <time>2020-10-04T12:00:02.715Z</time>
      </trkpt>
      <trkpt lat="44.03608" lon="1.8593">
        <ele>224</ele>
        <time>2020-10-04T12:00:03.715Z</time>
      </trkpt>
      <trkpt lat="44.03609" lon="1.85929">
        <ele>225</ele>
        <time>2020-10-04T12:00:04.715Z</time>
      </trkpt>
      <trkpt lat="44.0361" lon="1.85929">
        <ele>225</ele>
        <time>2020-10-04T12:00:05.715Z</time>
      </trkpt>
      <trkpt lat="44.03611" lon="1.85929">
        <ele>225</ele>
        <time>2020-10-04T12:00:06.715Z</time>
      </trkpt>
      <trkpt lat="44.03612" lon="1.85929">
        <ele>225</ele>
        <time>2020-10-04T12:00:07.715Z</time>
      </trkpt>
      <trkpt lat="44.03613" lon="1.85928">
        <ele>225</ele>
        <time>2020-10-04T12:00:08.715Z</time>
      </trkpt>
      <trkpt lat="44.03614" lon="1.85928">
        <ele>225</ele>
        <time>2020-10-04T12:00:09.715Z</time>
      </trkpt>
      <trkpt lat="44.03615" lon="1.85928">
        <ele>225</ele>
        <time>2020-10-04T12:00:10.715Z</time>
      </trkpt>
      <trkpt lat="44.03616" lon="1.85928">
        <ele>225</ele>
        <time>2020-10-04T12:00:11.715Z</time>
      </trkpt>
      <trkpt lat="44.03617" lon="1.85928">
        <ele>225</ele>
        <time>2020-10-04T12:00:12.715Z</time>
      </trkpt>
      <trkpt lat="44.03619" lon="1.85927">
        <ele>225</ele>
        <time>2020-10-04T12:00:13.715Z</time>
      </trkpt>
      <trkpt lat="44.03619" lon="1.85927">
        <ele>225</ele>
        <time>2020-10-04T12:00:14.715Z</time>
      </trkpt>
      <trkpt lat="44.0362" lon="1.85927">
        <ele>225</ele>
        <time>2020-10-04T12:00:15.715Z</time>
      </trkpt>
      <trkpt lat="44.03621" lon="1.85927">
        <ele>225</ele>
        <time>2020-10-04T12:00:16.715Z</time>
      </trkpt>
      <trkpt lat="44.03623" lon="1.85927">
        <ele>226</ele>
        <time>2020-10-04T12:00:17.715Z</time>
      </trkpt>
      <trkpt lat="44.03624" lon="1.85926">
        <ele>226</ele>
        <time>2020-10-04T12:00:18.715Z</time>
      </trkpt>
      <trkpt lat="44.03625" lon="1.85926">
        <ele>226</ele>
        <time>2020-10-04T12:00:19.715Z</time>
      </trkpt>
      <trkpt lat="44.03626" lon="1.85926">
        <ele>226</ele>
        <time>2020-10-04T12:00:20.715Z</time>
      </trkpt>
      <trkpt lat="44.03627" lon="1.85925">
        <ele>226</ele>
        <time>2020-10-04T12:00:21.715Z</time>
      </trkpt>
      <trkpt lat="44.03628" lon="1.85925">
        <ele>226</ele>
        <time>2020-10-04T12:00:22.715Z</time>
      </trkpt>
      <trkpt lat="44.03629" lon="1.85925">
        <ele>226</ele>
        <time>2020-10-04T12:00:23.715Z</time>
      </trkpt>
      <trkpt lat="44.0363" lon="1.85925">
        <ele>226</ele>
        <time>2020-10-04T12:00:24.715Z</time>
      </trkpt>
      <trkpt lat="44.03631" lon="1.85925">
        <ele>226</ele>
        <time>2020-10-04T12:00:25.715Z</time>
      </trkpt>
      <trkpt lat="44.03632" lon="1.85925">
        <ele>226</ele>
        <time>2020-10-04T12:00:26.715Z</time>
      </trkpt>
      <trkpt lat="44.03633" lon="1.85924">
        <ele>227</ele>
        <time>2020-10-04T12:00:27.715Z</time>
      </trkpt>
      <trkpt lat="44.03634" lon="1.85924">
        <ele>227</ele>
        <time>2020-10-04T12:00:28.715Z</time>
      </trkpt>
      <trkpt lat="44.03635" lon="1.85924">
        <ele>227</ele>
        <time>2020-10-04T12:00:29.715Z</time>
      </trkpt>
      <trkpt lat="44.03636" lon="1.85924">
        <ele>227</ele>
        <time>2020-10-04T12:00:30.715Z</time>
      </trkpt>
      <trkpt lat="44.03637" lon="1.85924">
        <ele>227</ele>
        <time>2020-10-04T12:00:31.715Z</time>
      </trkpt>
      <trkpt lat="44.03638" lon="1.85924">
        <ele>227</ele>
        <time>2020-10-04T12:00:32.715Z</time>
      </trkpt>
      <trkpt lat="44.03639" lon="1.85924">
        <ele>227</ele>
        <time>2020-10-04T12:00:33.715Z</time>
      </trkpt>
      <trkpt lat="44.0364" lon="1.85924">
        <ele>227</ele>
        <time>2020-10-04T12:00:34.715Z</time>
      </trkpt>
      <trkpt lat="44.03641" lon="1.85924">
        <ele>227</ele>
        <time>2020-10-04T12:00:35.715Z</time>
      </trkpt>
      <trkpt lat="44.03642" lon="1.85924">
        <ele>228</ele>
        <time>2020-10-04T12:00:36.715Z</time>
      </trkpt>
      <trkpt lat="44.03643" lon="1.85924">
        <ele>228</ele>
        <time>2020-10-04T12:00:37.715Z</time>
      </trkpt>
      <trkpt lat="44.03644" lon="1.85924">
        <ele>228</ele>
        <time>2020-10-04T12:00:38.715Z</time>
      </trkpt>
      <trkpt lat="44.03644" lon="1.85924">
        <ele>228</ele>
        <time>2020-10-04T12:00:39.715Z</time>
      </trkpt>
      <trkpt lat="44.03645" lon="1.85924">
        <ele>228</ele>
        <time>2020-10-04T12:00:40.715Z</time>
      </trkpt>
      <trkpt lat="44.03645" lon="1.85924">
        <ele>228</ele>
        <time>2020-10-04T12:00:41.715Z</time>
      </trkpt>
      <trkpt lat="44.03645" lon="1.85924">
        <ele>228</ele>
        <time>2020-10-04T12:00:42.715Z</time>
      </trkpt>
      <trkpt lat="44.03645" lon="1.85924">
        <ele>228</ele>
        <time>2020-10-04T12:00:43.715Z</time>
      </trkpt>
      <trkpt lat="44.03646" lon="1.85924">
        <ele>228</ele>
        <time>2020-10-04T12:00:44.715Z</time>
      </trkpt>
      <trkpt lat="44.03646" lon="1.85924">
        <ele>228</ele>
        <time>2020-10-04T12:00:45.715Z</time>
      </trkpt>
      <trkpt lat="44.03647" lon="1.85924">
        <ele>228</ele>
        <time>2020-10-04T12:00:46.715Z</time>
      </trkpt>
      <trkpt lat="44.03647" lon="1.85924">
        <ele>228</ele>
        <time>2020-10-04T12:00:47.715Z</time>
      </trkpt>
      <trkpt lat="44.03648" lon="1.85924">
        <ele>229</ele>
        <time>2020-10-04T12:00:48.715Z</time>
      </trkpt>
      <trkpt lat="44.03649" lon="1.85924">
        <ele>229</ele>
        <time>2020-10-04T12:00:49.715Z</time>
      </trkpt>
      <trkpt lat="44.03649" lon="1.85924">
        <ele>229</ele>
        <time>2020-10-04T12:00:50.715Z</time>
      </trkpt>
      <trkpt lat="44.0365" lon="1.85924">
        <ele>229</ele>
        <time>2020-10-04T12:00:51.715Z</time>
      </trkpt>
      <trkpt lat="44.03651" lon="1.85924">
        <ele>229</ele>
        <time>2020-10-04T12:00:52.715Z</time>
      </trkpt>
      <trkpt lat="44.03651" lon="1.85924">
        <ele>229</ele>
        <time>2020-10-04T12:00:55.986Z</time>
      </trkpt>
      <trkpt lat="44.03652" lon="1.85925">
        <ele>229</ele>
        <time>2020-10-04T12:00:56.986Z</time>
      </trkpt>
      <trkpt lat="44.03653" lon="1.85925">
        <ele>229</ele>
        <time>2020-10-04T12:00:57.986Z</time>
      </trkpt>
      <trkpt lat="44.03653" lon="1.85926">
        <ele>229</ele>
        <time>2020-10-04T12:00:58.986Z</time>
      </trkpt>
      <trkpt lat="44.03654" lon="1.85926">
        <ele>229</ele>
        <time>2020-10-04T12:00:59.986Z</time>
      </trkpt>
      <trkpt lat="44.03655" lon="1.85927">
        <ele>229</ele>
        <time>2020-10-04T12:01:00.986Z</time>
      </trkpt>
      <trkpt lat="44.03655" lon="1.85927">
        <ele>229</ele>
        <time>2020-10-04T12:01:01.986Z</time>
      </trkpt>
      <trkpt lat="44.03656" lon="1.85927">
        <ele>229</ele>
        <time>2020-10-04T12:01:02.986Z</time>
      </trkpt>
      <trkpt lat="44.03656" lon="1.85928">
        <ele>229</ele>
        <time>2020-10-04T12:01:03.986Z</time>
      </trkpt>
      <trkpt lat="44.03656" lon="1.85928">
        <ele>229</ele>
        <time>2020-10-04T12:01:04.986Z</time>
      </trkpt>
      <trkpt lat="44.03656" lon="1.85928">
        <ele>230</ele>
        <time>2020-10-04T12:01:05.986Z</time>
      </trkpt>
      <trkpt lat="44.03656" lon="1.85928">
        <ele>230</ele>
        <time>2020-10-04T12:01:06.986Z</time>
      </trkpt>
      <trkpt lat="44.03658" lon="1.85928">
        <ele>230</ele>
        <time>2020-10-04T12:01:07.986Z</time>
      </trkpt>
      <trkpt lat="44.03659" lon="1.85929">
        <ele>230</ele>
        <time>2020-10-04T12:01:08.986Z</time>
      </trkpt>
      <trkpt lat="44.0366" lon="1.8593">
        <ele>230</ele>
        <time>2020-10-04T12:01:09.986Z</time>
      </trkpt>
      <trkpt lat="44.03661" lon="1.85931">
        <ele>230</ele>
        <time>2020-10-04T12:01:10.986Z</time>
      </trkpt>
      <trkpt lat="44.03662" lon="1.85932">
        <ele>230</ele>
        <time>2020-10-04T12:01:11.986Z</time>
      </trkpt>
      <trkpt lat="44.03663" lon="1.85933">
        <ele>230</ele>
        <time>2020-10-04T12:01:12.986Z</time>
      </trkpt>
      <trkpt lat="44.03664" lon="1.85933">
        <ele>230</ele>
        <time>2020-10-04T12:01:13.986Z</time>
      </trkpt>
      <trkpt lat="44.03665" lon="1.85934">
        <ele>230</ele>
        <time>2020-10-04T12:01:14.986Z</time>
      </trkpt>
      <trkpt lat="44.03666" lon="1.85935">
        <ele>230</ele>
        <time>2020-10-04T12:01:15.986Z</time>
      </trkpt>
      <trkpt lat="44.03667" lon="1.85936">
        <ele>230</ele>
        <time>2020-10-04T12:01:16.986Z</time>
      </trkpt>
      <trkpt lat="44.03668" lon="1.85936">
        <ele>230</ele>
        <time>2020-10-04T12:01:17.986Z</time>
      </trkpt>
      <trkpt lat="44.03669" lon="1.85937">
        <ele>230</ele>
        <time>2020-10-04T12:01:18.986Z</time>
      </trkpt>
      <trkpt lat="44.0367" lon="1.85938">
        <ele>230</ele>
        <time>2020-10-04T12:01:19.986Z</time>
      </trkpt>
      <trkpt lat="44.03671" lon="1.85939">
        <ele>230</ele>
        <time>2020-10-04T12:01:23.994Z</time>
      </trkpt>
      <trkpt lat="44.03672" lon="1.85941">
        <ele>230</ele>
        <time>2020-10-04T12:01:24.994Z</time>
      </trkpt>
      <trkpt lat="44.03673" lon="1.85941">
        <ele>229</ele>
        <time>2020-10-04T12:01:25.994Z</time>
      </trkpt>
      <trkpt lat="44.03674" lon="1.85942">
        <ele>229</ele>
        <time>2020-10-04T12:01:26.994Z</time>
      </trkpt>
      <trkpt lat="44.03675" lon="1.85943">
        <ele>229</ele>
        <time>2020-10-04T12:01:27.994Z</time>
      </trkpt>
      <trkpt lat="44.03676" lon="1.85944">
        <ele>229</ele>
        <time>2020-10-04T12:01:28.994Z</time>
      </trkpt>
      <trkpt lat="44.03677" lon="1.85945">
        <ele>229</ele>
        <time>2020-10-04T12:01:29.994Z</time>
      </trkpt>
      <trkpt lat="44.03678" lon="1.85946">
        <ele>229</ele>
        <time>2020-10-04T12:01:30.994Z</time>
      </trkpt>
      <trkpt lat="44.03678" lon="1.85946">
        <ele>229</ele>
        <time>2020-10-04T12:01:31.994Z</time>
      </trkpt>
      <trkpt lat="44.03679" lon="1.85947">
        <ele>229</ele>
        <time>2020-10-04T12:01:32.994Z</time>
      </trkpt>
      <trkpt lat="44.0368" lon="1.85948">
        <ele>229</ele>
        <time>2020-10-04T12:01:33.994Z</time>
      </trkpt>
      <trkpt lat="44.0368" lon="1.85949">
        <ele>229</ele>
        <time>2020-10-04T12:01:34.994Z</time>
      </trkpt>
      <trkpt lat="44.03682" lon="1.8595">
        <ele>229</ele>
        <time>2020-10-04T12:01:35.994Z</time>
      </trkpt>
      <trkpt lat="44.03683" lon="1.85951">
        <ele>229</ele>
        <time>2020-10-04T12:01:36.994Z</time>
      </trkpt>
      <trkpt lat="44.03684" lon="1.85952">
        <ele>229</ele>
        <time>2020-10-04T12:01:37.994Z</time>
      </trkpt>
      <trkpt lat="44.03684" lon="1.85953">
        <ele>229</ele>
        <time>2020-10-04T12:01:38.994Z</time>
      </trkpt>
      <trkpt lat="44.03685" lon="1.85954">
        <ele>229</ele>
        <time>2020-10-04T12:01:39.994Z</time>
      </trkpt>
      <trkpt lat="44.03687" lon="1.85955">
        <ele>229</ele>
        <time>2020-10-04T12:02:04.006Z</time>
      </trkpt>
      <trkpt lat="44.03688" lon="1.85956">
        <ele>229</ele>
        <time>2020-10-04T12:02:05.006Z</time>
      </trkpt>
      <trkpt lat="44.03689" lon="1.85957">
        <ele>229</ele>
        <time>2020-10-04T12:02:06.006Z</time>
      </trkpt>
      <trkpt lat="44.0369" lon="1.85958">
        <ele>229</ele>
        <time>2020-10-04T12:02:07.006Z</time>
      </trkpt>
      <trkpt lat="44.0369" lon="1.85959">
        <ele>229</ele>
        <time>2020-10-04T12:02:08.006Z</time>
      </trkpt>
      <trkpt lat="44.03691" lon="1.8596">
        <ele>229</ele>
        <time>2020-10-04T12:02:09.006Z</time>
      </trkpt>
      <trkpt lat="44.03692" lon="1.85961">
        <ele>229</ele>
        <time>2020-10-04T12:02:10.006Z</time>
      </trkpt>
      <trkpt lat="44.03693" lon="1.85962">
        <ele>229</ele>
        <time>2020-10-04T12:02:11.006Z</time>
      </trkpt>
      <trkpt lat="44.03694" lon="1.85963">
        <ele>229</ele>
        <time>2020-10-04T12:02:12.006Z</time>
      </trkpt>
      <trkpt lat="44.03695" lon="1.85963">
        <ele>229</ele>
        <time>2020-10-04T12:02:13.006Z</time>
      </trkpt>
      <trkpt lat="44.03697" lon="1.85964">
        <ele>229</ele>
        <time>2020-10-04T12:02:14.006Z</time>
      </trkpt>
      <trkpt lat="44.03697" lon="1.85965">
        <ele>229</ele>
        <time>2020-10-04T12:02:15.006Z</time>
      </trkpt>
      <trkpt lat="44.03698" lon="1.85966">
        <ele>229</ele>
        <time>2020-10-04T12:02:16.006Z</time>
      </trkpt>
      <trkpt lat="44.03699" lon="1.85967">
        <ele>229</ele>
        <time>2020-10-04T12:02:17.006Z</time>
      </trkpt>
      <trkpt lat="44.037" lon="1.85968">
        <ele>229</ele>
        <time>2020-10-04T12:02:18.006Z</time>
      </trkpt>
      <trkpt lat="44.03701" lon="1.85969">
        <ele>229</ele>
        <time>2020-10-04T12:02:19.006Z</time>
      </trkpt>
      <trkpt lat="44.03702" lon="1.85969">
        <ele>229</ele>
        <time>2020-10-04T12:02:20.006Z</time>
      </trkpt>
      <trkpt lat="44.03703" lon="1.8597">
        <ele>229</ele>
        <time>2020-10-04T12:02:21.006Z</time>
      </trkpt>
      <trkpt lat="44.03704" lon="1.85971">
        <ele>229</ele>
        <time>2020-10-04T12:02:22.006Z</time>
      </trkpt>
      <trkpt lat="44.03705" lon="1.85972">
        <ele>229</ele>
        <time>2020-10-04T12:02:23.006Z</time>
      </trkpt>
      <trkpt lat="44.03706" lon="1.85973">
        <ele>229</ele>
        <time>2020-10-04T12:02:24.006Z</time>
      </trkpt>
      <trkpt lat="44.03707" lon="1.85974">
        <ele>229</ele>
        <time>2020-10-04T12:02:25.006Z</time>
      </trkpt>
      <trkpt lat="44.03708" lon="1.85974">
        <ele>229</ele>
        <time>2020-10-04T12:02:26.006Z</time>
      </trkpt>
      <trkpt lat="44.03709" lon="1.85975">
        <ele>229</ele>
        <time>2020-10-04T12:02:27.006Z</time>
      </trkpt>
      <trkpt lat="44.03709" lon="1.85976">
        <ele>229</ele>
        <time>2020-10-04T12:02:28.006Z</time>
      </trkpt>
      <trkpt lat="44.0371" lon="1.85977">
        <ele>229</ele>
        <time>2020-10-04T12:02:29.006Z</time>
      </trkpt>
      <trkpt lat="44.03711" lon="1.85977">
        <ele>229</ele>
        <time>2020-10-04T12:02:30.006Z</time>
      </trkpt>
      <trkpt lat="44.03712" lon="1.85978">
        <ele>229</ele>
        <time>2020-10-04T12:02:31.006Z</time>
      </trkpt>
      <trkpt lat="44.03713" lon="1.85978">
        <ele>229</ele>
        <time>2020-10-04T12:02:32.006Z</time>
      </trkpt>
      <trkpt lat="44.03714" lon="1.85979">
        <ele>229</ele>
        <time>2020-10-04T12:02:33.006Z</time>
      </trkpt>
      <trkpt lat="44.03715" lon="1.8598">
        <ele>229</ele>
        <time>2020-10-04T12:02:34.006Z</time>
      </trkpt>
      <trkpt lat="44.03716" lon="1.8598">
        <ele>229</ele>
        <time>2020-10-04T12:02:35.006Z</time>
      </trkpt>
      <trkpt lat="44.03717" lon="1.85981">
        <ele>229</ele>
        <time>2020-10-04T12:02:36.006Z</time>
      </trkpt>
      <trkpt lat="44.03718" lon="1.85982">
        <ele>229</ele>
        <time>2020-10-04T12:02:37.006Z</time>
      </trkpt>
      <trkpt lat="44.03719" lon="1.85982">
        <ele>228</ele>
        <time>2020-10-04T12:02:38.006Z</time>
      </trkpt>
      <trkpt lat="44.0372" lon="1.85983">
        <ele>228</ele>
        <time>2020-10-04T12:02:39.006Z</time>
      </trkpt>
      <trkpt lat="44.03721" lon="1.85984">
        <ele>228</ele>
        <time>2020-10-04T12:02:40.006Z</time>
      </trkpt>
      <trkpt lat="44.03722" lon="1.85984">
        <ele>228</ele>
        <time>2020-10-04T12:02:41.006Z</time>
      </trkpt>
      <trkpt lat="44.03723" lon="1.85985">
        <ele>228</ele>
        <time>2020-10-04T12:02:42.006Z</time>
      </trkpt>
      <trkpt lat="44.03724" lon="1.85985">
        <ele>228</ele>
        <time>2020-10-04T12:02:43.006Z</time>
      </trkpt>
      <trkpt lat="44.03725" lon="1.85986">
        <ele>228</ele>
        <time>2020-10-04T12:02:44.006Z</time>
      </trkpt>
      <trkpt lat="44.03726" lon="1.85987">
        <ele>228</ele>
        <time>2020-10-04T12:02:45.006Z</time>
      </trkpt>
      <trkpt lat="44.03727" lon="1.85987">
        <ele>228</ele>
        <time>2020-10-04T12:02:46.006Z</time>
      </trkpt>
      <trkpt lat="44.03728" lon="1.85988">
        <ele>228</ele>
        <time>2020-10-04T12:02:47.006Z</time>
      </trkpt>
      <trkpt lat="44.03729" lon="1.85989">
        <ele>228</ele>
        <time>2020-10-04T12:02:48.006Z</time>
      </trkpt>
      <trkpt lat="44.0373" lon="1.85989">
        <ele>228</ele>
        <time>2020-10-04T12:02:49.006Z</time>
      </trkpt>
      <trkpt lat="44.03731" lon="1.8599">
        <ele>228</ele>
        <time>2020-10-04T12:02:50.006Z</time>
      </trkpt>
      <trkpt lat="44.03732" lon="1.85991">
        <ele>228</ele>
        <time>2020-10-04T12:02:51.006Z</time>
      </trkpt>
      <trkpt lat="44.03733" lon="1.85991">
        <ele>228</ele>
        <time>2020-10-04T12:02:52.006Z</time>
      </trkpt>
      <trkpt lat="44.03734" lon="1.85992">
        <ele>227</ele>
        <time>2020-10-04T12:02:53.006Z</time>
      </trkpt>
      <trkpt lat="44.03735" lon="1.85992">
        <ele>227</ele>
        <time>2020-10-04T12:02:54.006Z</time>
      </trkpt>
      <trkpt lat="44.03736" lon="1.85992">
        <ele>227</ele>
        <time>2020-10-04T12:02:55.006Z</time>
      </trkpt>
      <trkpt lat="44.03737" lon="1.85993">
        <ele>227</ele>
        <time>2020-10-04T12:02:56.006Z</time>
      </trkpt>
      <trkpt lat="44.03738" lon="1.85993">
        <ele>227</ele>
        <time>2020-10-04T12:02:57.006Z</time>
      </trkpt>
      <trkpt lat="44.03739" lon="1.85994">
        <ele>227</ele>
        <time>2020-10-04T12:02:58.006Z</time>
      </trkpt>
      <trkpt lat="44.03739" lon="1.85994">
        <ele>227</ele>
        <time>2020-10-04T12:02:59.006Z</time>
      </trkpt>
      <trkpt lat="44.0374" lon="1.85995">
        <ele>227</ele>
        <time>2020-10-04T12:03:00.006Z</time>
      </trkpt>
      <trkpt lat="44.03741" lon="1.85995">
        <ele>227</ele>
        <time>2020-10-04T12:03:01.006Z</time>
      </trkpt>
      <trkpt lat="44.03742" lon="1.85996">
        <ele>227</ele>
        <time>2020-10-04T12:03:02.006Z</time>
      </trkpt>
      <trkpt lat="44.03743" lon="1.85996">
        <ele>227</ele>
        <time>2020-10-04T12:03:03.006Z</time>
      </trkpt>
      <trkpt lat="44.03744" lon="1.85997">
        <ele>227</ele>
        <time>2020-10-04T12:03:04.006Z</time>
      </trkpt>
      <trkpt lat="44.03745" lon="1.85997">
        <ele>227</ele>
        <time>2020-10-04T12:03:05.006Z</time>
      </trkpt>
      <trkpt lat="44.03745" lon="1.85998">
        <ele>227</ele>
        <time>2020-10-04T12:03:06.006Z</time>
      </trkpt>
      <trkpt lat="44.03746" lon="1.85998">
        <ele>227</ele>
        <time>2020-10-04T12:03:07.006Z</time>
      </trkpt>
      <trkpt lat="44.03747" lon="1.85998">
        <ele>227</ele>
        <time>2020-10-04T12:03:08.006Z</time>
      </trkpt>
      <trkpt lat="44.03747" lon="1.85999">
        <ele>227</ele>
        <time>2020-10-04T12:03:09.006Z</time>
      </trkpt>
      <trkpt lat="44.03748" lon="1.85998">
        <ele>227</ele>
        <time>2020-10-04T12:03:10.006Z</time>
      </trkpt>
      <trkpt lat="44.03748" lon="1.85998">
        <ele>227</ele>
        <time>2020-10-04T12:03:11.006Z</time>
      </trkpt>
      <trkpt lat="44.0375" lon="1.85999">
        <ele>227</ele>
        <time>2020-10-04T12:03:12.006Z</time>
      </trkpt>
      <trkpt lat="44.03751" lon="1.86">
        <ele>227</ele>
        <time>2020-10-04T12:03:13.006Z</time>
      </trkpt>
      <trkpt lat="44.03751" lon="1.86">
        <ele>227</ele>
        <time>2020-10-04T12:03:14.006Z</time>
      </trkpt>
      <trkpt lat="44.03752" lon="1.86001">
        <ele>227</ele>
        <time>2020-10-04T12:03:15.006Z</time>
      </trkpt>
      <trkpt lat="44.03753" lon="1.86001">
        <ele>227</ele>
        <time>2020-10-04T12:03:16.006Z</time>
      </trkpt>
      <trkpt lat="44.03753" lon="1.86001">
        <ele>227</ele>
        <time>2020-10-04T12:03:17.006Z</time>
      </trkpt>
      <trkpt lat="44.03754" lon="1.86001">
        <ele>227</ele>
        <time>2020-10-04T12:03:18.006Z</time>
      </trkpt>
      <trkpt lat="44.03755" lon="1.86001">
        <ele>227</ele>
        <time>2020-10-04T12:03:19.006Z</time>
      </trkpt>
      <trkpt lat="44.03755" lon="1.86002">
        <ele>227</ele>
        <time>2020-10-04T12:03:20.006Z</time>
      </trkpt>
      <trkpt lat="44.03756" lon="1.86002">
        <ele>227</ele>
        <time>2020-10-04T12:03:21.006Z</time>
      </trkpt>
      <trkpt lat="44.03756" lon="1.86002">
        <ele>227</ele>
        <time>2020-10-04T12:03:22.006Z</time>
      </trkpt>
      <trkpt lat="44.03756" lon="1.86002">
        <ele>227</ele>
        <time>2020-10-04T12:03:23.006Z</time>
      </trkpt>
      <trkpt lat="44.03757" lon="1.86002">
        <ele>228</ele>
        <time>2020-10-04T12:03:24.006Z</time>
      </trkpt>
      <trkpt lat="44.03758" lon="1.86003">
        <ele>228</ele>
        <time>2020-10-04T12:03:25.006Z</time>
      </trkpt>
      <trkpt lat="44.03759" lon="1.86003">
        <ele>228</ele>
        <time>2020-10-04T12:03:26.006Z</time>
      </trkpt>
      <trkpt lat="44.03759" lon="1.86003">
        <ele>228</ele>
        <time>2020-10-04T12:03:27.006Z</time>
      </trkpt>
      <trkpt lat="44.0376" lon="1.86004">
        <ele>227</ele>
        <time>2020-10-04T12:03:28.006Z</time>
      </trkpt>
      <trkpt lat="44.03761" lon="1.86004">
        <ele>227</ele>
        <time>2020-10-04T12:03:29.006Z</time>
      </trkpt>
      <trkpt lat="44.03762" lon="1.86005">
        <ele>227</ele>
        <time>2020-10-04T12:03:30.006Z</time>
      </trkpt>
      <trkpt lat="44.03763" lon="1.86005">
        <ele>227</ele>
        <time>2020-10-04T12:03:31.006Z</time>
      </trkpt>
      <trkpt lat="44.03764" lon="1.86006">
        <ele>227</ele>
        <time>2020-10-04T12:03:32.006Z</time>
      </trkpt>
      <trkpt lat="44.03765" lon="1.86006">
        <ele>227</ele>
        <time>2020-10-04T12:03:33.006Z</time>
      </trkpt>
      <trkpt lat="44.03766" lon="1.86006">
        <ele>227</ele>
        <time>2020-10-04T12:03:34.006Z</time>
      </trkpt>
      <trkpt lat="44.03767" lon="1.86006">
        <ele>227</ele>
        <time>2020-10-04T12:03:35.006Z</time>
      </trkpt>
      <trkpt lat="44.03768" lon="1.86006">
        <ele>228</ele>
        <time>2020-10-04T12:03:36.006Z</time>
      </trkpt>
      <trkpt lat="44.03769" lon="1.86007">
        <ele>228</ele>
        <time>2020-10-04T12:03:37.006Z</time>
      </trkpt>
      <trkpt lat="44.0377" lon="1.86007">
        <ele>228</ele>
        <time>2020-10-04T12:03:38.006Z</time>
      </trkpt>
      <trkpt lat="44.03771" lon="1.86007">
        <ele>228</ele>
        <time>2020-10-04T12:03:39.006Z</time>
      </trkpt>
      <trkpt lat="44.03772" lon="1.86008">
        <ele>228</ele>
        <time>2020-10-04T12:03:40.006Z</time>
      </trkpt>
      <trkpt lat="44.03773" lon="1.86008">
        <ele>228</ele>
        <time>2020-10-04T12:03:41.006Z</time>
      </trkpt>
      <trkpt lat="44.03774" lon="1.86009">
        <ele>228</ele>
        <time>2020-10-04T12:03:42.006Z</time>
      </trkpt>
      <trkpt lat="44.03776" lon="1.86009">
        <ele>228</ele>
        <time>2020-10-04T12:03:43.006Z</time>
      </trkpt>
      <trkpt lat="44.03777" lon="1.8601">
        <ele>228</ele>
        <time>2020-10-04T12:03:44.006Z</time>
      </trkpt>
      <trkpt lat="44.03778" lon="1.8601">
        <ele>228</ele>
        <time>2020-10-04T12:03:45.006Z</time>
      </trkpt>
      <trkpt lat="44.03779" lon="1.86011">
        <ele>228</ele>
        <time>2020-10-04T12:03:46.006Z</time>
      </trkpt>
      <trkpt lat="44.03779" lon="1.86011">
        <ele>228</ele>
        <time>2020-10-04T12:03:47.006Z</time>
      </trkpt>
      <trkpt lat="44.03779" lon="1.86011">
        <ele>228</ele>
        <time>2020-10-04T12:03:48.006Z</time>
      </trkpt>
      <trkpt lat="44.03779" lon="1.86011">
        <ele>228</ele>
        <time>2020-10-04T12:03:49.006Z</time>
      </trkpt>
      <trkpt lat="44.0378" lon="1.86011">
        <ele>228</ele>
        <time>2020-10-04T12:03:50.006Z</time>
      </trkpt>
      <trkpt lat="44.0378" lon="1.86011">
        <ele>228</ele>
        <time>2020-10-04T12:03:51.006Z</time>
      </trkpt>
      <trkpt lat="44.03781" lon="1.86012">
        <ele>228</ele>
        <time>2020-10-04T12:03:52.006Z</time>
      </trkpt>
      <trkpt lat="44.03782" lon="1.86012">
        <ele>228</ele>
        <time>2020-10-04T12:03:53.006Z</time>
      </trkpt>
      <trkpt lat="44.03783" lon="1.86012">
        <ele>228</ele>
        <time>2020-10-04T12:03:54.006Z</time>
      </trkpt>
      <trkpt lat="44.03783" lon="1.86012">
        <ele>228</ele>
        <time>2020-10-04T12:03:55.006Z</time>
      </trkpt>
      <trkpt lat="44.03783" lon="1.86012">
        <ele>228</ele>
        <time>2020-10-04T12:03:56.006Z</time>
      </trkpt>
      <trkpt lat="44.03784" lon="1.86013">
        <ele>228</ele>
        <time>2020-10-04T12:03:57.006Z</time>
      </trkpt>
      <trkpt lat="44.03785" lon="1.86013">
        <ele>228</ele>
        <time>2020-10-04T12:03:58.006Z</time>
      </trkpt>
      <trkpt lat="44.03786" lon="1.86014">
        <ele>228</ele>
        <time>2020-10-04T12:03:59.006Z</time>
      </trkpt>
      <trkpt lat="44.03787" lon="1.86014">
        <ele>228</ele>
        <time>2020-10-04T12:04:00.006Z</time>
      </trkpt>
      <trkpt lat="44.03788" lon="1.86015">
        <ele>228</ele>
        <time>2020-10-04T12:04:01.006Z</time>
      </trkpt>
      <trkpt lat="44.03789" lon="1.86015">
        <ele>228</ele>
        <time>2020-10-04T12:04:02.006Z</time>
      </trkpt>
      <trkpt lat="44.0379" lon="1.86016">
        <ele>228</ele>
        <time>2020-10-04T12:04:03.006Z</time>
      </trkpt>
      <trkpt lat="44.03791" lon="1.86016">
        <ele>228</ele>
        <time>2020-10-04T12:04:04.006Z</time>
      </trkpt>
      <trkpt lat="44.03791" lon="1.86016">
        <ele>229</ele>
        <time>2020-10-04T12:04:05.006Z</time>
      </trkpt>
      <trkpt lat="44.03792" lon="1.86017">
        <ele>229</ele>
        <time>2020-10-04T12:04:06.006Z</time>
      </trkpt>
      <trkpt lat="44.03793" lon="1.86017">
        <ele>229</ele>
        <time>2020-10-04T12:04:07.006Z</time>
      </trkpt>
      <trkpt lat="44.03795" lon="1.86017">
        <ele>228</ele>
        <time>2020-10-04T12:04:08.006Z</time>
      </trkpt>
      <trkpt lat="44.03796" lon="1.86018">
        <ele>228</ele>
        <time>2020-10-04T12:04:09.006Z</time>
      </trkpt>
      <trkpt lat="44.03797" lon="1.86018">
        <ele>228</ele>
        <time>2020-10-04T12:04:10.006Z</time>
      </trkpt>
      <trkpt lat="44.03798" lon="1.86019">
        <ele>228</ele>
        <time>2020-10-04T12:04:11.006Z</time>
      </trkpt>
      <trkpt lat="44.03799" lon="1.86019">
        <ele>228</ele>
        <time>2020-10-04T12:04:12.006Z</time>
      </trkpt>
      <trkpt lat="44.038" lon="1.8602">
        <ele>228</ele>
        <time>2020-10-04T12:04:13.006Z</time>
      </trkpt>
      <trkpt lat="44.03801" lon="1.86021">
        <ele>228</ele>
        <time>2020-10-04T12:04:14.006Z</time>
      </trkpt>
      <trkpt lat="44.03802" lon="1.86021">
        <ele>228</ele>
        <time>2020-10-04T12:04:15.006Z</time>
      </trkpt>
      <trkpt lat="44.03802" lon="1.86022">
        <ele>228</ele>
        <time>2020-10-04T12:04:16.006Z</time>
      </trkpt>
      <trkpt lat="44.03803" lon="1.86023">
        <ele>228</ele>
        <time>2020-10-04T12:04:17.006Z</time>
      </trkpt>
      <trkpt lat="44.03804" lon="1.86023">
        <ele>227</ele>
        <time>2020-10-04T12:04:18.006Z</time>
      </trkpt>
      <trkpt lat="44.03806" lon="1.86024">
        <ele>227</ele>
        <time>2020-10-04T12:04:19.006Z</time>
      </trkpt>
      <trkpt lat="44.03807" lon="1.86025">
        <ele>227</ele>
        <time>2020-10-04T12:04:20.006Z</time>
      </trkpt>
      <trkpt lat="44.03808" lon="1.86025">
        <ele>227</ele>
        <time>2020-10-04T12:04:21.006Z</time>
      </trkpt>
      <trkpt lat="44.03809" lon="1.86026">
        <ele>227</ele>
        <time>2020-10-04T12:04:22.006Z</time>
      </trkpt>
      <trkpt lat="44.0381" lon="1.86027">
        <ele>226</ele>
        <time>2020-10-04T12:04:23.006Z</time>
      </trkpt>
      <trkpt lat="44.03811" lon="1.86027">
        <ele>226</ele>
        <time>2020-10-04T12:04:24.006Z</time>
      </trkpt>
      <trkpt lat="44.03812" lon="1.86027">
        <ele>226</ele>
        <time>2020-10-04T12:04:25.006Z</time>
      </trkpt>
      <trkpt lat="44.03812" lon="1.86027">
        <ele>226</ele>
        <time>2020-10-04T12:04:26.006Z</time>
      </trkpt>
      <trkpt lat="44.03813" lon="1.86027">
        <ele>226</ele>
        <time>2020-10-04T12:04:27.006Z</time>
      </trkpt>
      <trkpt lat="44.03813" lon="1.86027">
        <ele>226</ele>
        <time>2020-10-04T12:04:28.006Z</time>
      </trkpt>
      <trkpt lat="44.03814" lon="1.86028">
        <ele>226</ele>
        <time>2020-10-04T12:04:29.006Z</time>
      </trkpt>
      <trkpt lat="44.03815" lon="1.86028">
        <ele>226</ele>
        <time>2020-10-04T12:04:30.006Z</time>
      </trkpt>
      <trkpt lat="44.03816" lon="1.86029">
        <ele>226</ele>
        <time>2020-10-04T12:04:31.006Z</time>
      </trkpt>
      <trkpt lat="44.03817" lon="1.8603">
        <ele>227</ele>
        <time>2020-10-04T12:04:32.006Z</time>
      </trkpt>
      <trkpt lat="44.03818" lon="1.8603">
        <ele>227</ele>
        <time>2020-10-04T12:04:33.006Z</time>
      </trkpt>
      <trkpt lat="44.03819" lon="1.8603">
        <ele>227</ele>
        <time>2020-10-04T12:04:34.006Z</time>
      </trkpt>
      <trkpt lat="44.0382" lon="1.86031">
        <ele>227</ele>
        <time>2020-10-04T12:04:35.006Z</time>
      </trkpt>
      <trkpt lat="44.03821" lon="1.86031">
        <ele>227</ele>
        <time>2020-10-04T12:04:36.006Z</time>
      </trkpt>
      <trkpt lat="44.03822" lon="1.86032">
        <ele>227</ele>
        <time>2020-10-04T12:04:37.006Z</time>
      </trkpt>
      <trkpt lat="44.03823" lon="1.86033">
        <ele>227</ele>
        <time>2020-10-04T12:04:38.006Z</time>
      </trkpt>
      <trkpt lat="44.03825" lon="1.86033">
        <ele>227</ele>
        <time>2020-10-04T12:04:39.006Z</time>
      </trkpt>
      <trkpt lat="44.03826" lon="1.86034">
        <ele>227</ele>
        <time>2020-10-04T12:04:40.006Z</time>
      </trkpt>
      <trkpt lat="44.03826" lon="1.86035">
        <ele>227</ele>
        <time>2020-10-04T12:04:41.006Z</time>
      </trkpt>
      <trkpt lat="44.03827" lon="1.86035">
        <ele>228</ele>
        <time>2020-10-04T12:04:42.006Z</time>
      </trkpt>
      <trkpt lat="44.03828" lon="1.86036">
        <ele>228</ele>
        <time>2020-10-04T12:04:43.006Z</time>
      </trkpt>
      <trkpt lat="44.03829" lon="1.86036">
        <ele>228</ele>
        <time>2020-10-04T12:04:44.006Z</time>
      </trkpt>
      <trkpt lat="44.0383" lon="1.86036">
        <ele>228</ele>
        <time>2020-10-04T12:04:45.006Z</time>
      </trkpt>
      <trkpt lat="44.03831" lon="1.86037">
        <ele>228</ele>
        <time>2020-10-04T12:04:46.006Z</time>
      </trkpt>
      <trkpt lat="44.03832" lon="1.86037">
        <ele>228</ele>
        <time>2020-10-04T12:04:47.006Z</time>
      </trkpt>
      <trkpt lat="44.03833" lon="1.86037">
        <ele>228</ele>
        <time>2020-10-04T12:04:48.006Z</time>
      </trkpt>
      <trkpt lat="44.03834" lon="1.86038">
        <ele>228</ele>
        <time>2020-10-04T12:04:49.006Z</time>
      </trkpt>
      <trkpt lat="44.03835" lon="1.86038">
        <ele>228</ele>
        <time>2020-10-04T12:04:50.006Z</time>
      </trkpt>
      <trkpt lat="44.03836" lon="1.86039">
        <ele>228</ele>
        <time>2020-10-04T12:04:51.006Z</time>
      </trkpt>
      <trkpt lat="44.03837" lon="1.86039">
        <ele>228</ele>
        <time>2020-10-04T12:04:52.006Z</time>
      </trkpt>
      <trkpt lat="44.03838" lon="1.8604">
        <ele>228</ele>
        <time>2020-10-04T12:04:53.006Z</time>
      </trkpt>
      <trkpt lat="44.03839" lon="1.86041">
        <ele>228</ele>
        <time>2020-10-04T12:04:54.006Z</time>
      </trkpt>
      <trkpt lat="44.0384" lon="1.86041">
        <ele>229</ele>
        <time>2020-10-04T12:04:55.006Z</time>
      </trkpt>
      <trkpt lat="44.03841" lon="1.86042">
        <ele>229</ele>
        <time>2020-10-04T12:04:56.006Z</time>
      </trkpt>
      <trkpt lat="44.03842" lon="1.86042">
        <ele>229</ele>
        <time>2020-10-04T12:04:57.006Z</time>
      </trkpt>
      <trkpt lat="44.03843" lon="1.86043">
        <ele>229</ele>
        <time>2020-10-04T12:04:58.006Z</time>
      </trkpt>
      <trkpt lat="44.03843" lon="1.86043">
        <ele>229</ele>
        <time>2020-10-04T12:04:59.006Z</time>
      </trkpt>
      <trkpt lat="44.03844" lon="1.86043">
        <ele>229</ele>
        <time>2020-10-04T12:05:00.006Z</time>
      </trkpt>
      <trkpt lat="44.03844" lon="1.86043">
        <ele>229</ele>
        <time>2020-10-04T12:05:01.006Z</time>
      </trkpt>
      <trkpt lat="44.03844" lon="1.86044">
        <ele>229</ele>
        <time>2020-10-04T12:05:02.006Z</time>
      </trkpt>
      <trkpt lat="44.03845" lon="1.86045">
        <ele>229</ele>
        <time>2020-10-04T12:05:03.006Z</time>
      </trkpt>
      <trkpt lat="44.03845" lon="1.86045">
        <ele>229</ele>
        <time>2020-10-04T12:05:04.006Z</time>
      </trkpt>
      <trkpt lat="44.03846" lon="1.86046">
        <ele>229</ele>
        <time>2020-10-04T12:05:05.006Z</time>
      </trkpt>
      <trkpt lat="44.03847" lon="1.86046">
        <ele>229</ele>
        <time>2020-10-04T12:05:06.006Z</time>
      </trkpt>
      <trkpt lat="44.03848" lon="1.86047">
        <ele>229</ele>
        <time>2020-10-04T12:05:07.006Z</time>
      </trkpt>
      <trkpt lat="44.03849" lon="1.86048">
        <ele>229</ele>
        <time>2020-10-04T12:05:08.006Z</time>
      </trkpt>
      <trkpt lat="44.03849" lon="1.86048">
        <ele>229</ele>
        <time>2020-10-04T12:05:09.006Z</time>
      </trkpt>
      <trkpt lat="44.0385" lon="1.86049">
        <ele>229</ele>
        <time>2020-10-04T12:05:10.006Z</time>
      </trkpt>
      <trkpt lat="44.03851" lon="1.86049">
        <ele>229</ele>
        <time>2020-10-04T12:05:11.006Z</time>
      </trkpt>
      <trkpt lat="44.03852" lon="1.8605">
        <ele>229</ele>
        <time>2020-10-04T12:05:12.006Z</time>
      </trkpt>
      <trkpt lat="44.03852" lon="1.8605">
        <ele>229</ele>
        <time>2020-10-04T12:05:13.006Z</time>
      </trkpt>
      <trkpt lat="44.03853" lon="1.86051">
        <ele>229</ele>
        <time>2020-10-04T12:05:14.006Z</time>
      </trkpt>
      <trkpt lat="44.03854" lon="1.86051">
        <ele>229</ele>
        <time>2020-10-04T12:05:15.006Z</time>
      </trkpt>
      <trkpt lat="44.03856" lon="1.86052">
        <ele>229</ele>
        <time>2020-10-04T12:05:16.006Z</time>
      </trkpt>
      <trkpt lat="44.03857" lon="1.86053">
        <ele>229</ele>
        <time>2020-10-04T12:05:17.006Z</time>
      </trkpt>
      <trkpt lat="44.03857" lon="1.86053">
        <ele>229</ele>
        <time>2020-10-04T12:05:18.006Z</time>
      </trkpt>
      <trkpt lat="44.03858" lon="1.86054">
        <ele>229</ele>
        <time>2020-10-04T12:05:19.006Z</time>
      </trkpt>
      <trkpt lat="44.03859" lon="1.86054">
        <ele>229</ele>
        <time>2020-10-04T12:05:20.006Z</time>
      </trkpt>
      <trkpt lat="44.0386" lon="1.86055">
        <ele>229</ele>
        <time>2020-10-04T12:05:21.006Z</time>
      </trkpt>
      <trkpt lat="44.03861" lon="1.86055">
        <ele>229</ele>
        <time>2020-10-04T12:05:22.006Z</time>
      </trkpt>
      <trkpt lat="44.03861" lon="1.86055">
        <ele>229</ele>
        <time>2020-10-04T12:05:23.006Z</time>
      </trkpt>
      <trkpt lat="44.03862" lon="1.86056">
        <ele>229</ele>
        <time>2020-10-04T12:05:24.006Z</time>
      </trkpt>
      <trkpt lat="44.03862" lon="1.86056">
        <ele>229</ele>
        <time>2020-10-04T12:05:25.006Z</time>
      </trkpt>
      <trkpt lat="44.03863" lon="1.86057">
        <ele>229</ele>
        <time>2020-10-04T12:05:26.006Z</time>
      </trkpt>
      <trkpt lat="44.03863" lon="1.86057">
        <ele>229</ele>
        <time>2020-10-04T12:05:27.006Z</time>
      </trkpt>
      <trkpt lat="44.03866" lon="1.8606">
        <ele>230</ele>
        <time>2020-10-04T12:05:28.006Z</time>
      </trkpt>
      <trkpt lat="44.03866" lon="1.8606">
        <ele>230</ele>
        <time>2020-10-04T12:05:29.006Z</time>
      </trkpt>
      <trkpt lat="44.03867" lon="1.86061">
        <ele>230</ele>
        <time>2020-10-04T12:05:30.006Z</time>
      </trkpt>
      <trkpt lat="44.03868" lon="1.86061">
        <ele>230</ele>
        <time>2020-10-04T12:05:31.006Z</time>
      </trkpt>
      <trkpt lat="44.03869" lon="1.86062">
        <ele>230</ele>
        <time>2020-10-04T12:05:32.006Z</time>
      </trkpt>
      <trkpt lat="44.03869" lon="1.86062">
        <ele>230</ele>
        <time>2020-10-04T12:05:33.006Z</time>
      </trkpt>
      <trkpt lat="44.0387" lon="1.86063">
        <ele>230</ele>
        <time>2020-10-04T12:05:34.006Z</time>
      </trkpt>
      <trkpt lat="44.03871" lon="1.86064">
        <ele>230</ele>
        <time>2020-10-04T12:05:35.006Z</time>
      </trkpt>
      <trkpt lat="44.03872" lon="1.86064">
        <ele>230</ele>
        <time>2020-10-04T12:05:36.006Z</time>
      </trkpt>
      <trkpt lat="44.03872" lon="1.86065">
        <ele>231</ele>
        <time>2020-10-04T12:05:37.006Z</time>
      </trkpt>
      <trkpt lat="44.03873" lon="1.86066">
        <ele>231</ele>
        <time>2020-10-04T12:05:38.006Z</time>
      </trkpt>
      <trkpt lat="44.03874" lon="1.86067">
        <ele>231</ele>
        <time>2020-10-04T12:05:39.006Z</time>
      </trkpt>
      <trkpt lat="44.03874" lon="1.86068">
        <ele>231</ele>
        <time>2020-10-04T12:05:40.006Z</time>
      </trkpt>
      <trkpt lat="44.03875" lon="1.86069">
        <ele>231</ele>
        <time>2020-10-04T12:05:41.006Z</time>
      </trkpt>
      <trkpt lat="44.03876" lon="1.8607">
        <ele>231</ele>
        <time>2020-10-04T12:05:42.006Z</time>
      </trkpt>
      <trkpt lat="44.03877" lon="1.86071">
        <ele>231</ele>
        <time>2020-10-04T12:05:43.006Z</time>
      </trkpt>
      <trkpt lat="44.03879" lon="1.86072">
        <ele>231</ele>
        <time>2020-10-04T12:05:44.006Z</time>
      </trkpt>
      <trkpt lat="44.0388" lon="1.86073">
        <ele>231</ele>
        <time>2020-10-04T12:05:45.006Z</time>
      </trkpt>
      <trkpt lat="44.0388" lon="1.86074">
        <ele>231</ele>
        <time>2020-10-04T12:05:46.006Z</time>
      </trkpt>
      <trkpt lat="44.03881" lon="1.86075">
        <ele>231</ele>
        <time>2020-10-04T12:05:47.006Z</time>
      </trkpt>
      <trkpt lat="44.03882" lon="1.86076">
        <ele>231</ele>
        <time>2020-10-04T12:05:48.006Z</time>
      </trkpt>
      <trkpt lat="44.03883" lon="1.86077">
        <ele>231</ele>
        <time>2020-10-04T12:05:49.006Z</time>
      </trkpt>
      <trkpt lat="44.03884" lon="1.86077">
        <ele>231</ele>
        <time>2020-10-04T12:05:50.006Z</time>
      </trkpt>
      <trkpt lat="44.03885" lon="1.86078">
        <ele>232</ele>
        <time>2020-10-04T12:05:51.006Z</time>
      </trkpt>
      <trkpt lat="44.03886" lon="1.86079">
        <ele>232</ele>
        <time>2020-10-04T12:05:52.006Z</time>
      </trkpt>
      <trkpt lat="44.03887" lon="1.8608">
        <ele>232</ele>
        <time>2020-10-04T12:05:53.006Z</time>
      </trkpt>
      <trkpt lat="44.03887" lon="1.86081">
        <ele>232</ele>
        <time>2020-10-04T12:05:54.006Z</time>
      </trkpt>
      <trkpt lat="44.03888" lon="1.86082">
        <ele>232</ele>
        <time>2020-10-04T12:05:55.006Z</time>
      </trkpt>
      <trkpt lat="44.03889" lon="1.86083">
        <ele>232</ele>
        <time>2020-10-04T12:05:56.006Z</time>
      </trkpt>
      <trkpt lat="44.0389" lon="1.86084">
        <ele>232</ele>
        <time>2020-10-04T12:05:57.006Z</time>
      </trkpt>
      <trkpt lat="44.03891" lon="1.86085">
        <ele>232</ele>
        <time>2020-10-04T12:05:58.006Z</time>
      </trkpt>
      <trkpt lat="44.03892" lon="1.86086">
        <ele>231</ele>
        <time>2020-10-04T12:05:59.006Z</time>
      </trkpt>
      <trkpt lat="44.03893" lon="1.86087">
        <ele>231</ele>
        <time>2020-10-04T12:06:00.006Z</time>
      </trkpt>
      <trkpt lat="44.03894" lon="1.86088">
        <ele>231</ele>
        <time>2020-10-04T12:06:01.006Z</time>
      </trkpt>
      <trkpt lat="44.03895" lon="1.8609">
        <ele>231</ele>
        <time>2020-10-04T12:06:02.006Z</time>
      </trkpt>
      <trkpt lat="44.03896" lon="1.86091">
        <ele>231</ele>
        <time>2020-10-04T12:06:03.006Z</time>
      </trkpt>
      <trkpt lat="44.03897" lon="1.86092">
        <ele>231</ele>
        <time>2020-10-04T12:06:04.006Z</time>
      </trkpt>
      <trkpt lat="44.03897" lon="1.86093">
        <ele>231</ele>
        <time>2020-10-04T12:06:05.006Z</time>
      </trkpt>
      <trkpt lat="44.03898" lon="1.86094">
        <ele>231</ele>
        <time>2020-10-04T12:06:06.006Z</time>
      </trkpt>
      <trkpt lat="44.03899" lon="1.86095">
        <ele>231</ele>
        <time>2020-10-04T12:06:07.006Z</time>
      </trkpt>
      <trkpt lat="44.039" lon="1.86096">
        <ele>231</ele>
        <time>2020-10-04T12:06:08.006Z</time>
      </trkpt>
      <trkpt lat="44.03901" lon="1.86097">
        <ele>231</ele>
        <time>2020-10-04T12:06:09.006Z</time>
      </trkpt>
      <trkpt lat="44.03902" lon="1.86097">
        <ele>231</ele>
        <time>2020-10-04T12:06:10.006Z</time>
      </trkpt>
      <trkpt lat="44.03903" lon="1.86098">
        <ele>231</ele>
        <time>2020-10-04T12:06:11.006Z</time>
      </trkpt>
      <trkpt lat="44.03904" lon="1.86099">
        <ele>231</ele>
        <time>2020-10-04T12:06:12.006Z</time>
      </trkpt>
      <trkpt lat="44.03905" lon="1.861">
        <ele>231</ele>
        <time>2020-10-04T12:06:13.006Z</time>
      </trkpt>
      <trkpt lat="44.03906" lon="1.861">
        <ele>231</ele>
        <time>2020-10-04T12:06:14.006Z</time>
      </trkpt>
      <trkpt lat="44.03907" lon="1.86101">
        <ele>231</ele>
        <time>2020-10-04T12:06:15.006Z</time>
      </trkpt>
      <trkpt lat="44.03908" lon="1.86102">
        <ele>232</ele>
        <time>2020-10-04T12:06:16.006Z</time>
      </trkpt>
      <trkpt lat="44.03908" lon="1.86103">
        <ele>232</ele>
        <time>2020-10-04T12:06:17.006Z</time>
      </trkpt>
      <trkpt lat="44.03909" lon="1.86103">
        <ele>232</ele>
        <time>2020-10-04T12:06:18.006Z</time>
      </trkpt>
      <trkpt lat="44.0391" lon="1.86104">
        <ele>232</ele>
        <time>2020-10-04T12:06:19.006Z</time>
      </trkpt>
      <trkpt lat="44.03911" lon="1.86105">
        <ele>232</ele>
        <time>2020-10-04T12:06:20.006Z</time>
      </trkpt>
      <trkpt lat="44.03912" lon="1.86105">
        <ele>232</ele>
        <time>2020-10-04T12:06:21.006Z</time>
      </trkpt>
      <trkpt lat="44.03913" lon="1.86106">
        <ele>232</ele>
        <time>2020-10-04T12:06:22.006Z</time>
      </trkpt>
      <trkpt lat="44.03914" lon="1.86106">
        <ele>232</ele>
        <time>2020-10-04T12:06:23.006Z</time>
      </trkpt>
      <trkpt lat="44.03915" lon="1.86107">
        <ele>232</ele>
        <time>2020-10-04T12:06:24.006Z</time>
      </trkpt>
      <trkpt lat="44.03916" lon="1.86108">
        <ele>232</ele>
        <time>2020-10-04T12:06:25.006Z</time>
      </trkpt>
      <trkpt lat="44.03917" lon="1.86108">
        <ele>232</ele>
        <time>2020-10-04T12:06:26.006Z</time>
      </trkpt>
      <trkpt lat="44.03919" lon="1.86109">
        <ele>232</ele>
        <time>2020-10-04T12:06:27.006Z</time>
      </trkpt>
      <trkpt lat="44.0392" lon="1.86109">
        <ele>232</ele>
        <time>2020-10-04T12:06:28.006Z</time>
      </trkpt>
      <trkpt lat="44.03921" lon="1.8611">
        <ele>232</ele>
        <time>2020-10-04T12:06:29.006Z</time>
      </trkpt>
      <trkpt lat="44.03922" lon="1.8611">
        <ele>232</ele>
        <time>2020-10-04T12:06:30.006Z</time>
      </trkpt>
      <trkpt lat="44.03923" lon="1.8611">
        <ele>232</ele>
        <time>2020-10-04T12:06:31.006Z</time>
      </trkpt>
      <trkpt lat="44.03924" lon="1.86111">
        <ele>232</ele>
        <time>2020-10-04T12:06:32.006Z</time>
      </trkpt>
      <trkpt lat="44.03925" lon="1.86111">
        <ele>232</ele>
        <time>2020-10-04T12:06:33.006Z</time>
      </trkpt>
      <trkpt lat="44.03926" lon="1.86112">
        <ele>232</ele>
        <time>2020-10-04T12:06:34.006Z</time>
      </trkpt>
      <trkpt lat="44.03927" lon="1.86113">
        <ele>232</ele>
        <time>2020-10-04T12:06:35.006Z</time>
      </trkpt>
      <trkpt lat="44.03928" lon="1.86113">
        <ele>232</ele>
        <time>2020-10-04T12:06:36.006Z</time>
      </trkpt>
      <trkpt lat="44.03929" lon="1.86113">
        <ele>232</ele>
        <time>2020-10-04T12:06:37.006Z</time>
      </trkpt>
      <trkpt lat="44.03929" lon="1.86114">
        <ele>232</ele>
        <time>2020-10-04T12:06:38.006Z</time>
      </trkpt>
      <trkpt lat="44.03931" lon="1.86114">
        <ele>232</ele>
        <time>2020-10-04T12:06:39.006Z</time>
      </trkpt>
      <trkpt lat="44.03932" lon="1.86114">
        <ele>232</ele>
        <time>2020-10-04T12:06:40.006Z</time>
      </trkpt>
      <trkpt lat="44.03933" lon="1.86115">
        <ele>232</ele>
        <time>2020-10-04T12:06:41.006Z</time>
      </trkpt>
      <trkpt lat="44.03934" lon="1.86115">
        <ele>232</ele>
        <time>2020-10-04T12:06:42.006Z</time>
      </trkpt>
      <trkpt lat="44.03935" lon="1.86116">
        <ele>232</ele>
        <time>2020-10-04T12:06:43.006Z</time>
      </trkpt>
      <trkpt lat="44.03935" lon="1.86116">
        <ele>233</ele>
        <time>2020-10-04T12:06:44.006Z</time>
      </trkpt>
      <trkpt lat="44.03936" lon="1.86116">
        <ele>233</ele>
        <time>2020-10-04T12:06:45.006Z</time>
      </trkpt>
      <trkpt lat="44.03937" lon="1.86117">
        <ele>233</ele>
        <time>2020-10-04T12:06:46.006Z</time>
      </trkpt>
      <trkpt lat="44.03939" lon="1.86117">
        <ele>233</ele>
        <time>2020-10-04T12:06:47.006Z</time>
      </trkpt>
      <trkpt lat="44.0394" lon="1.86117">
        <ele>233</ele>
        <time>2020-10-04T12:06:48.006Z</time>
      </trkpt>
      <trkpt lat="44.03941" lon="1.86118">
        <ele>233</ele>
        <time>2020-10-04T12:06:49.006Z</time>
      </trkpt>
      <trkpt lat="44.03942" lon="1.86118">
        <ele>233</ele>
        <time>2020-10-04T12:06:50.006Z</time>
      </trkpt>
      <trkpt lat="44.03943" lon="1.86119">
        <ele>233</ele>
        <time>2020-10-04T12:06:51.006Z</time>
      </trkpt>
      <trkpt lat="44.03944" lon="1.86119">
        <ele>233</ele>
        <time>2020-10-04T12:06:52.006Z</time>
      </trkpt>
      <trkpt lat="44.03945" lon="1.86119">
        <ele>233</ele>
        <time>2020-10-04T12:06:53.006Z</time>
      </trkpt>
      <trkpt lat="44.03946" lon="1.8612">
        <ele>233</ele>
        <time>2020-10-04T12:06:54.006Z</time>
      </trkpt>
      <trkpt lat="44.03947" lon="1.8612">
        <ele>233</ele>
        <time>2020-10-04T12:06:55.006Z</time>
      </trkpt>
      <trkpt lat="44.03948" lon="1.8612">
        <ele>233</ele>
        <time>2020-10-04T12:06:56.006Z</time>
      </trkpt>
      <trkpt lat="44.03949" lon="1.86121">
        <ele>233</ele>
        <time>2020-10-04T12:06:57.006Z</time>
      </trkpt>
      <trkpt lat="44.0395" lon="1.86121">
        <ele>232</ele>
        <time>2020-10-04T12:06:58.006Z</time>
      </trkpt>
      <trkpt lat="44.03951" lon="1.86122">
        <ele>232</ele>
        <time>2020-10-04T12:06:59.006Z</time>
      </trkpt>
      <trkpt lat="44.03953" lon="1.86122">
        <ele>232</ele>
        <time>2020-10-04T12:07:00.006Z</time>
      </trkpt>
      <trkpt lat="44.03954" lon="1.86123">
        <ele>232</ele>
        <time>2020-10-04T12:07:01.006Z</time>
      </trkpt>
      <trkpt lat="44.03954" lon="1.86123">
        <ele>232</ele>
        <time>2020-10-04T12:07:02.006Z</time>
      </trkpt>
      <trkpt lat="44.03955" lon="1.86123">
        <ele>232</ele>
        <time>2020-10-04T12:07:03.006Z</time>
      </trkpt>
      <trkpt lat="44.03956" lon="1.86123">
        <ele>232</ele>
        <time>2020-10-04T12:07:04.006Z</time>
      </trkpt>
      <trkpt lat="44.03957" lon="1.86124">
        <ele>232</ele>
        <time>2020-10-04T12:07:05.006Z</time>
      </trkpt>
      <trkpt lat="44.03957" lon="1.86124">
        <ele>232</ele>
        <time>2020-10-04T12:07:06.006Z</time>
      </trkpt>
      <trkpt lat="44.03958" lon="1.86125">
        <ele>232</ele>
        <time>2020-10-04T12:07:07.006Z</time>
      </trkpt>
      <trkpt lat="44.03959" lon="1.86126">
        <ele>232</ele>
        <time>2020-10-04T12:07:08.006Z</time>
      </trkpt>
      <trkpt lat="44.0396" lon="1.86126">
        <ele>232</ele>
        <time>2020-10-04T12:07:09.006Z</time>
      </trkpt>
      <trkpt lat="44.03961" lon="1.86127">
        <ele>232</ele>
        <time>2020-10-04T12:07:10.006Z</time>
      </trkpt>
      <trkpt lat="44.03962" lon="1.86127">
        <ele>232</ele>
        <time>2020-10-04T12:07:11.006Z</time>
      </trkpt>
      <trkpt lat="44.03962" lon="1.86128">
        <ele>232</ele>
        <time>2020-10-04T12:07:12.006Z</time>
      </trkpt>
      <trkpt lat="44.03963" lon="1.86129">
        <ele>232</ele>
        <time>2020-10-04T12:07:13.006Z</time>
      </trkpt>
      <trkpt lat="44.03964" lon="1.86129">
        <ele>232</ele>
        <time>2020-10-04T12:07:14.006Z</time>
      </trkpt>
      <trkpt lat="44.03965" lon="1.8613">
        <ele>232</ele>
        <time>2020-10-04T12:07:15.006Z</time>
      </trkpt>
      <trkpt lat="44.03967" lon="1.8613">
        <ele>232</ele>
        <time>2020-10-04T12:07:16.006Z</time>
      </trkpt>
      <trkpt lat="44.03968" lon="1.86131">
        <ele>232</ele>
        <time>2020-10-04T12:07:17.006Z</time>
      </trkpt>
      <trkpt lat="44.03968" lon="1.86131">
        <ele>231</ele>
        <time>2020-10-04T12:07:18.006Z</time>
      </trkpt>
      <trkpt lat="44.03969" lon="1.86132">
        <ele>231</ele>
        <time>2020-10-04T12:07:19.006Z</time>
      </trkpt>
      <trkpt lat="44.0397" lon="1.86132">
        <ele>231</ele>
        <time>2020-10-04T12:07:20.006Z</time>
      </trkpt>
      <trkpt lat="44.03971" lon="1.86133">
        <ele>231</ele>
        <time>2020-10-04T12:07:21.006Z</time>
      </trkpt>
      <trkpt lat="44.03972" lon="1.86133">
        <ele>231</ele>
        <time>2020-10-04T12:07:22.006Z</time>
      </trkpt>
      <trkpt lat="44.03973" lon="1.86133">
        <ele>231</ele>
        <time>2020-10-04T12:07:23.006Z</time>
      </trkpt>
      <trkpt lat="44.03973" lon="1.86134">
        <ele>231</ele>
        <time>2020-10-04T12:07:24.006Z</time>
      </trkpt>
      <trkpt lat="44.03974" lon="1.86134">
        <ele>231</ele>
        <time>2020-10-04T12:07:25.006Z</time>
      </trkpt>
      <trkpt lat="44.03975" lon="1.86134">
        <ele>231</ele>
        <time>2020-10-04T12:07:26.006Z</time>
      </trkpt>
      <trkpt lat="44.03976" lon="1.86135">
        <ele>231</ele>
        <time>2020-10-04T12:07:27.006Z</time>
      </trkpt>
      <trkpt lat="44.03976" lon="1.86135">
        <ele>231</ele>
        <time>2020-10-04T12:07:28.006Z</time>
      </trkpt>
      <trkpt lat="44.03977" lon="1.86136">
        <ele>231</ele>
        <time>2020-10-04T12:07:29.006Z</time>
      </trkpt>
      <trkpt lat="44.03978" lon="1.86136">
        <ele>231</ele>
        <time>2020-10-04T12:07:30.006Z</time>
      </trkpt>
      <trkpt lat="44.03979" lon="1.86136">
        <ele>231</ele>
        <time>2020-10-04T12:07:31.006Z</time>
      </trkpt>
      <trkpt lat="44.0398" lon="1.86137">
        <ele>231</ele>
        <time>2020-10-04T12:07:32.006Z</time>
      </trkpt>
      <trkpt lat="44.03981" lon="1.86137">
        <ele>232</ele>
        <time>2020-10-04T12:07:33.006Z</time>
      </trkpt>
      <trkpt lat="44.03982" lon="1.86138">
        <ele>232</ele>
        <time>2020-10-04T12:07:34.006Z</time>
      </trkpt>
      <trkpt lat="44.03983" lon="1.86138">
        <ele>232</ele>
        <time>2020-10-04T12:07:35.006Z</time>
      </trkpt>
      <trkpt lat="44.03984" lon="1.86139">
        <ele>232</ele>
        <time>2020-10-04T12:07:36.006Z</time>
      </trkpt>
      <trkpt lat="44.03984" lon="1.86139">
        <ele>232</ele>
        <time>2020-10-04T12:07:37.006Z</time>
      </trkpt>
      <trkpt lat="44.03985" lon="1.8614">
        <ele>232</ele>
        <time>2020-10-04T12:07:38.006Z</time>
      </trkpt>
      <trkpt lat="44.03986" lon="1.8614">
        <ele>232</ele>
        <time>2020-10-04T12:07:39.006Z</time>
      </trkpt>
      <trkpt lat="44.03987" lon="1.86141">
        <ele>232</ele>
        <time>2020-10-04T12:07:40.006Z</time>
      </trkpt>
      <trkpt lat="44.03988" lon="1.86141">
        <ele>233</ele>
        <time>2020-10-04T12:07:41.006Z</time>
      </trkpt>
      <trkpt lat="44.03988" lon="1.86142">
        <ele>233</ele>
        <time>2020-10-04T12:07:42.006Z</time>
      </trkpt>
      <trkpt lat="44.03989" lon="1.86142">
        <ele>233</ele>
        <time>2020-10-04T12:07:43.006Z</time>
      </trkpt>
      <trkpt lat="44.0399" lon="1.86142">
        <ele>233</ele>
        <time>2020-10-04T12:07:44.006Z</time>
      </trkpt>
      <trkpt lat="44.03991" lon="1.86143">
        <ele>233</ele>
        <time>2020-10-04T12:07:45.006Z</time>
      </trkpt>
      <trkpt lat="44.03992" lon="1.86144">
        <ele>233</ele>
        <time>2020-10-04T12:07:46.006Z</time>
      </trkpt>
      <trkpt lat="44.03993" lon="1.86144">
        <ele>233</ele>
        <time>2020-10-04T12:07:47.006Z</time>
      </trkpt>
      <trkpt lat="44.03994" lon="1.86145">
        <ele>233</ele>
        <time>2020-10-04T12:07:48.006Z</time>
      </trkpt>
      <trkpt lat="44.03995" lon="1.86146">
        <ele>233</ele>
        <time>2020-10-04T12:07:49.006Z</time>
      </trkpt>
      <trkpt lat="44.03996" lon="1.86146">
        <ele>233</ele>
        <time>2020-10-04T12:07:50.006Z</time>
      </trkpt>
      <trkpt lat="44.03997" lon="1.86147">
        <ele>233</ele>
        <time>2020-10-04T12:07:51.006Z</time>
      </trkpt>
      <trkpt lat="44.03999" lon="1.86148">
        <ele>233</ele>
        <time>2020-10-04T12:07:52.006Z</time>
      </trkpt>
      <trkpt lat="44.04" lon="1.86149">
        <ele>233</ele>
        <time>2020-10-04T12:07:53.006Z</time>
      </trkpt>
      <trkpt lat="44.04001" lon="1.8615">
        <ele>233</ele>
        <time>2020-10-04T12:07:54.006Z</time>
      </trkpt>
      <trkpt lat="44.04002" lon="1.8615">
        <ele>233</ele>
        <time>2020-10-04T12:07:55.006Z</time>
      </trkpt>
      <trkpt lat="44.04003" lon="1.86151">
        <ele>233</ele>
        <time>2020-10-04T12:07:56.006Z</time>
      </trkpt>
      <trkpt lat="44.04004" lon="1.86152">
        <ele>233</ele>
        <time>2020-10-04T12:07:57.006Z</time>
      </trkpt>
      <trkpt lat="44.04006" lon="1.86153">
        <ele>233</ele>
        <time>2020-10-04T12:07:58.006Z</time>
      </trkpt>
      <trkpt lat="44.04007" lon="1.86154">
        <ele>233</ele>
        <time>2020-10-04T12:07:59.006Z</time>
      </trkpt>
      <trkpt lat="44.04008" lon="1.86154">
        <ele>233</ele>
        <time>2020-10-04T12:08:00.006Z</time>
      </trkpt>
      <trkpt lat="44.04009" lon="1.86155">
        <ele>233</ele>
        <time>2020-10-04T12:08:01.006Z</time>
      </trkpt>
      <trkpt lat="44.0401" lon="1.86156">
        <ele>233</ele>
        <time>2020-10-04T12:08:02.006Z</time>
      </trkpt>
      <trkpt lat="44.04011" lon="1.86157">
        <ele>233</ele>
        <time>2020-10-04T12:08:03.006Z</time>
      </trkpt>
      <trkpt lat="44.04012" lon="1.86158">
        <ele>233</ele>
        <time>2020-10-04T12:08:04.006Z</time>
      </trkpt>
      <trkpt lat="44.04013" lon="1.86159">
        <ele>233</ele>
        <time>2020-10-04T12:08:05.006Z</time>
      </trkpt>
      <trkpt lat="44.04014" lon="1.8616">
        <ele>233</ele>
        <time>2020-10-04T12:08:06.006Z</time>
      </trkpt>
      <trkpt lat="44.04015" lon="1.86161">
        <ele>233</ele>
        <time>2020-10-04T12:08:07.006Z</time>
      </trkpt>
      <trkpt lat="44.04016" lon="1.86162">
        <ele>233</ele>
        <time>2020-10-04T12:08:08.006Z</time>
      </trkpt>
      <trkpt lat="44.04016" lon="1.86163">
        <ele>233</ele>
        <time>2020-10-04T12:08:09.006Z</time>
      </trkpt>
      <trkpt lat="44.04017" lon="1.86164">
        <ele>233</ele>
        <time>2020-10-04T12:08:10.006Z</time>
      </trkpt>
      <trkpt lat="44.04018" lon="1.86165">
        <ele>233</ele>
        <time>2020-10-04T12:08:11.006Z</time>
      </trkpt>
      <trkpt lat="44.04019" lon="1.86166">
        <ele>233</ele>
        <time>2020-10-04T12:08:12.006Z</time>
      </trkpt>
      <trkpt lat="44.0402" lon="1.86167">
        <ele>233</ele>
        <time>2020-10-04T12:08:13.006Z</time>
      </trkpt>
      <trkpt lat="44.04021" lon="1.86168">
        <ele>233</ele>
        <time>2020-10-04T12:08:14.006Z</time>
      </trkpt>
      <trkpt lat="44.04022" lon="1.86169">
        <ele>233</ele>
        <time>2020-10-04T12:08:15.006Z</time>
      </trkpt>
      <trkpt lat="44.04023" lon="1.86169">
        <ele>233</ele>
        <time>2020-10-04T12:08:16.006Z</time>
      </trkpt>
      <trkpt lat="44.04025" lon="1.8617">
        <ele>233</ele>
        <time>2020-10-04T12:08:17.006Z</time>
      </trkpt>
      <trkpt lat="44.04026" lon="1.86171">
        <ele>233</ele>
        <time>2020-10-04T12:08:18.006Z</time>
      </trkpt>
      <trkpt lat="44.04027" lon="1.86171">
        <ele>233</ele>
        <time>2020-10-04T12:08:19.006Z</time>
      </trkpt>
      <trkpt lat="44.04027" lon="1.86172">
        <ele>233</ele>
        <time>2020-10-04T12:08:20.006Z</time>
      </trkpt>
      <trkpt lat="44.04028" lon="1.86172">
        <ele>233</ele>
        <time>2020-10-04T12:08:21.006Z</time>
      </trkpt>
      <trkpt lat="44.04028" lon="1.86173">
        <ele>233</ele>
        <time>2020-10-04T12:08:22.006Z</time>
      </trkpt>
      <trkpt lat="44.04029" lon="1.86173">
        <ele>233</ele>
        <time>2020-10-04T12:08:23.006Z</time>
      </trkpt>
      <trkpt lat="44.0403" lon="1.86173">
        <ele>233</ele>
        <time>2020-10-04T12:08:24.006Z</time>
      </trkpt>
      <trkpt lat="44.0403" lon="1.86174">
        <ele>233</ele>
        <time>2020-10-04T12:08:25.006Z</time>
      </trkpt>
      <trkpt lat="44.04031" lon="1.86174">
        <ele>233</ele>
        <time>2020-10-04T12:08:26.006Z</time>
      </trkpt>
      <trkpt lat="44.04032" lon="1.86175">
        <ele>233</ele>
        <time>2020-10-04T12:08:27.006Z</time>
      </trkpt>
      <trkpt lat="44.04034" lon="1.86175">
        <ele>233</ele>
        <time>2020-10-04T12:08:28.006Z</time>
      </trkpt>
      <trkpt lat="44.04035" lon="1.86176">
        <ele>233</ele>
        <time>2020-10-04T12:08:29.006Z</time>
      </trkpt>
      <trkpt lat="44.04036" lon="1.86176">
        <ele>233</ele>
        <time>2020-10-04T12:08:30.006Z</time>
      </trkpt>
      <trkpt lat="44.04037" lon="1.86177">
        <ele>233</ele>
        <time>2020-10-04T12:08:31.006Z</time>
      </trkpt>
      <trkpt lat="44.04038" lon="1.86177">
        <ele>233</ele>
        <time>2020-10-04T12:08:32.006Z</time>
      </trkpt>
      <trkpt lat="44.04038" lon="1.86178">
        <ele>233</ele>
        <time>2020-10-04T12:08:33.006Z</time>
      </trkpt>
      <trkpt lat="44.04039" lon="1.86178">
        <ele>233</ele>
        <time>2020-10-04T12:08:34.006Z</time>
      </trkpt>
      <trkpt lat="44.0404" lon="1.86179">
        <ele>233</ele>
        <time>2020-10-04T12:08:35.006Z</time>
      </trkpt>
      <trkpt lat="44.04041" lon="1.86179">
        <ele>233</ele>
        <time>2020-10-04T12:08:36.006Z</time>
      </trkpt>
      <trkpt lat="44.04042" lon="1.8618">
        <ele>233</ele>
        <time>2020-10-04T12:08:37.006Z</time>
      </trkpt>
      <trkpt lat="44.04043" lon="1.8618">
        <ele>233</ele>
        <time>2020-10-04T12:08:38.006Z</time>
      </trkpt>
      <trkpt lat="44.04043" lon="1.8618">
        <ele>232</ele>
        <time>2020-10-04T12:08:39.006Z</time>
      </trkpt>
      <trkpt lat="44.04044" lon="1.86181">
        <ele>232</ele>
        <time>2020-10-04T12:08:40.006Z</time>
      </trkpt>
      <trkpt lat="44.04045" lon="1.86181">
        <ele>232</ele>
        <time>2020-10-04T12:08:41.006Z</time>
      </trkpt>
      <trkpt lat="44.04046" lon="1.86181">
        <ele>232</ele>
        <time>2020-10-04T12:08:42.006Z</time>
      </trkpt>
      <trkpt lat="44.04047" lon="1.86182">
        <ele>232</ele>
        <time>2020-10-04T12:08:43.006Z</time>
      </trkpt>
      <trkpt lat="44.04047" lon="1.86182">
        <ele>232</ele>
        <time>2020-10-04T12:08:44.006Z</time>
      </trkpt>
      <trkpt lat="44.04048" lon="1.86182">
        <ele>232</ele>
        <time>2020-10-04T12:08:45.006Z</time>
      </trkpt>
      <trkpt lat="44.04049" lon="1.86183">
        <ele>232</ele>
        <time>2020-10-04T12:08:46.006Z</time>
      </trkpt>
      <trkpt lat="44.04049" lon="1.86183">
        <ele>232</ele>
        <time>2020-10-04T12:08:47.006Z</time>
      </trkpt>
      <trkpt lat="44.0405" lon="1.86184">
        <ele>232</ele>
        <time>2020-10-04T12:08:48.006Z</time>
      </trkpt>
      <trkpt lat="44.04051" lon="1.86184">
        <ele>232</ele>
        <time>2020-10-04T12:08:49.006Z</time>
      </trkpt>
      <trkpt lat="44.04052" lon="1.86184">
        <ele>232</ele>
        <time>2020-10-04T12:08:50.006Z</time>
      </trkpt>
      <trkpt lat="44.04053" lon="1.86184">
        <ele>232</ele>
        <time>2020-10-04T12:08:51.006Z</time>
      </trkpt>
      <trkpt lat="44.04054" lon="1.86184">
        <ele>232</ele>
        <time>2020-10-04T12:08:52.006Z</time>
      </trkpt>
      <trkpt lat="44.04055" lon="1.86184">
        <ele>232</ele>
        <time>2020-10-04T12:08:53.006Z</time>
      </trkpt>
      <trkpt lat="44.04056" lon="1.86185">
        <ele>232</ele>
        <time>2020-10-04T12:08:54.006Z</time>
      </trkpt>
      <trkpt lat="44.04057" lon="1.86185">
        <ele>232</ele>
        <time>2020-10-04T12:08:55.006Z</time>
      </trkpt>
      <trkpt lat="44.04058" lon="1.86185">
        <ele>232</ele>
        <time>2020-10-04T12:08:56.006Z</time>
      </trkpt>
      <trkpt lat="44.04059" lon="1.86186">
        <ele>232</ele>
        <time>2020-10-04T12:08:57.006Z</time>
      </trkpt>
      <trkpt lat="44.0406" lon="1.86186">
        <ele>232</ele>
        <time>2020-10-04T12:08:58.006Z</time>
      </trkpt>
      <trkpt lat="44.04061" lon="1.86186">
        <ele>232</ele>
        <time>2020-10-04T12:08:59.006Z</time>
      </trkpt>
      <trkpt lat="44.04062" lon="1.86186">
        <ele>232</ele>
        <time>2020-10-04T12:09:00.006Z</time>
      </trkpt>
      <trkpt lat="44.04063" lon="1.86186">
        <ele>232</ele>
        <time>2020-10-04T12:09:01.006Z</time>
      </trkpt>
      <trkpt lat="44.04064" lon="1.86187">
        <ele>232</ele>
        <time>2020-10-04T12:09:02.006Z</time>
      </trkpt>
      <trkpt lat="44.04065" lon="1.86187">
        <ele>232</ele>
        <time>2020-10-04T12:09:03.006Z</time>
      </trkpt>
      <trkpt lat="44.04066" lon="1.86187">
        <ele>232</ele>
        <time>2020-10-04T12:09:04.006Z</time>
      </trkpt>
      <trkpt lat="44.04067" lon="1.86187">
        <ele>232</ele>
        <time>2020-10-04T12:09:05.006Z</time>
      </trkpt>
      <trkpt lat="44.04068" lon="1.86188">
        <ele>232</ele>
        <time>2020-10-04T12:09:06.006Z</time>
      </trkpt>
      <trkpt lat="44.04069" lon="1.86188">
        <ele>232</ele>
        <time>2020-10-04T12:09:07.006Z</time>
      </trkpt>
      <trkpt lat="44.0407" lon="1.86188">
        <ele>232</ele>
        <time>2020-10-04T12:09:08.006Z</time>
      </trkpt>
      <trkpt lat="44.04071" lon="1.86188">
        <ele>232</ele>
        <time>2020-10-04T12:09:09.006Z</time>
      </trkpt>
      <trkpt lat="44.04072" lon="1.86188">
        <ele>232</ele>
        <time>2020-10-04T12:09:10.006Z</time>
      </trkpt>
      <trkpt lat="44.04073" lon="1.86189">
        <ele>232</ele>
        <time>2020-10-04T12:09:11.006Z</time>
      </trkpt>
      <trkpt lat="44.04074" lon="1.86189">
        <ele>232</ele>
        <time>2020-10-04T12:09:12.006Z</time>
      </trkpt>
      <trkpt lat="44.04075" lon="1.86189">
        <ele>232</ele>
        <time>2020-10-04T12:09:13.006Z</time>
      </trkpt>
      <trkpt lat="44.04076" lon="1.86189">
        <ele>232</ele>
        <time>2020-10-04T12:09:14.006Z</time>
      </trkpt>
      <trkpt lat="44.04076" lon="1.86189">
        <ele>232</ele>
        <time>2020-10-04T12:09:15.006Z</time>
      </trkpt>
      <trkpt lat="44.04077" lon="1.86189">
        <ele>232</ele>
        <time>2020-10-04T12:09:16.006Z</time>
      </trkpt>
      <trkpt lat="44.04078" lon="1.86189">
        <ele>232</ele>
        <time>2020-10-04T12:09:17.006Z</time>
      </trkpt>
      <trkpt lat="44.04078" lon="1.86189">
        <ele>232</ele>
        <time>2020-10-04T12:09:18.006Z</time>
      </trkpt>
      <trkpt lat="44.04079" lon="1.86189">
        <ele>232</ele>
        <time>2020-10-04T12:09:19.006Z</time>
      </trkpt>
      <trkpt lat="44.0408" lon="1.86189">
        <ele>232</ele>
        <time>2020-10-04T12:09:20.006Z</time>
      </trkpt>
      <trkpt lat="44.04081" lon="1.86189">
        <ele>232</ele>
        <time>2020-10-04T12:09:21.006Z</time>
      </trkpt>
      <trkpt lat="44.04082" lon="1.86189">
        <ele>232</ele>
        <time>2020-10-04T12:09:22.006Z</time>
      </trkpt>
      <trkpt lat="44.04083" lon="1.86189">
        <ele>232</ele>
        <time>2020-10-04T12:09:23.006Z</time>
      </trkpt>
      <trkpt lat="44.04083" lon="1.86189">
        <ele>232</ele>
        <time>2020-10-04T12:09:24.006Z</time>
      </trkpt>
      <trkpt lat="44.04084" lon="1.86189">
        <ele>232</ele>
        <time>2020-10-04T12:09:25.006Z</time>
      </trkpt>
      <trkpt lat="44.04085" lon="1.86189">
        <ele>232</ele>
        <time>2020-10-04T12:09:26.006Z</time>
      </trkpt>
      <trkpt lat="44.04086" lon="1.86189">
        <ele>232</ele>
        <time>2020-10-04T12:09:27.006Z</time>
      </trkpt>
      <trkpt lat="44.04087" lon="1.86189">
        <ele>232</ele>
        <time>2020-10-04T12:09:28.006Z</time>
      </trkpt>
      <trkpt lat="44.04088" lon="1.86189">
        <ele>232</ele>
        <time>2020-10-04T12:09:29.006Z</time>
      </trkpt>
      <trkpt lat="44.04089" lon="1.8619">
        <ele>232</ele>
        <time>2020-10-04T12:09:30.006Z</time>
      </trkpt>
      <trkpt lat="44.0409" lon="1.8619">
        <ele>232</ele>
        <time>2020-10-04T12:09:31.006Z</time>
      </trkpt>
      <trkpt lat="44.04091" lon="1.8619">
        <ele>232</ele>
        <time>2020-10-04T12:09:32.006Z</time>
      </trkpt>
      <trkpt lat="44.04092" lon="1.8619">
        <ele>232</ele>
        <time>2020-10-04T12:09:33.006Z</time>
      </trkpt>
      <trkpt lat="44.04092" lon="1.8619">
        <ele>233</ele>
        <time>2020-10-04T12:09:34.006Z</time>
      </trkpt>
      <trkpt lat="44.04093" lon="1.86191">
        <ele>233</ele>
        <time>2020-10-04T12:09:35.006Z</time>
      </trkpt>
      <trkpt lat="44.04094" lon="1.86191">
        <ele>233</ele>
        <time>2020-10-04T12:09:36.006Z</time>
      </trkpt>
      <trkpt lat="44.04095" lon="1.86191">
        <ele>233</ele>
        <time>2020-10-04T12:09:37.006Z</time>
      </trkpt>
      <trkpt lat="44.04097" lon="1.86192">
        <ele>233</ele>
        <time>2020-10-04T12:09:38.006Z</time>
      </trkpt>
      <trkpt lat="44.04097" lon="1.86192">
        <ele>233</ele>
        <time>2020-10-04T12:09:39.006Z</time>
      </trkpt>
      <trkpt lat="44.04098" lon="1.86192">
        <ele>233</ele>
        <time>2020-10-04T12:09:40.006Z</time>
      </trkpt>
      <trkpt lat="44.04099" lon="1.86192">
        <ele>233</ele>
        <time>2020-10-04T12:09:41.006Z</time>
      </trkpt>
      <trkpt lat="44.04099" lon="1.86191">
        <ele>233</ele>
        <time>2020-10-04T12:09:42.006Z</time>
      </trkpt>
      <trkpt lat="44.04099" lon="1.86191">
        <ele>233</ele>
        <time>2020-10-04T12:09:43.006Z</time>
      </trkpt>
      <trkpt lat="44.04099" lon="1.86191">
        <ele>233</ele>
        <time>2020-10-04T12:09:44.006Z</time>
      </trkpt>
      <trkpt lat="44.04105" lon="1.86191">
        <ele>232</ele>
        <time>2020-10-04T12:09:45.006Z</time>
      </trkpt>
      <trkpt lat="44.04105" lon="1.86191">
        <ele>232</ele>
        <time>2020-10-04T12:09:46.006Z</time>
      </trkpt>
      <trkpt lat="44.04105" lon="1.86191">
        <ele>232</ele>
        <time>2020-10-04T12:09:47.006Z</time>
      </trkpt>
      <trkpt lat="44.04105" lon="1.86191">
        <ele>232</ele>
        <time>2020-10-04T12:09:48.006Z</time>
      </trkpt>
      <trkpt lat="44.04105" lon="1.86191">
        <ele>232</ele>
        <time>2020-10-04T12:09:49.006Z</time>
      </trkpt>
      <trkpt lat="44.04105" lon="1.8619">
        <ele>233</ele>
        <time>2020-10-04T12:09:50.006Z</time>
      </trkpt>
      <trkpt lat="44.04105" lon="1.86191">
        <ele>233</ele>
        <time>2020-10-04T12:09:51.006Z</time>
      </trkpt>
      <trkpt lat="44.04105" lon="1.86191">
        <ele>232</ele>
        <time>2020-10-04T12:09:57.729Z</time>
      </trkpt>
      <trkpt lat="44.04105" lon="1.86191">
        <ele>232</ele>
        <time>2020-10-04T12:09:58.729Z</time>
      </trkpt>
      <trkpt lat="44.04105" lon="1.86191">
        <ele>232</ele>
        <time>2020-10-04T12:09:59.729Z</time>
      </trkpt>
      <trkpt lat="44.04107" lon="1.86194">
        <ele>231</ele>
        <time>2020-10-04T12:10:00.729Z</time>
      </trkpt>
      <trkpt lat="44.04108" lon="1.86194">
        <ele>231</ele>
        <time>2020-10-04T12:10:01.729Z</time>
      </trkpt>
      <trkpt lat="44.04108" lon="1.86194">
        <ele>231</ele>
        <time>2020-10-04T12:10:02.729Z</time>
      </trkpt>
      <trkpt lat="44.04109" lon="1.86195">
        <ele>231</ele>
        <time>2020-10-04T12:10:03.729Z</time>
      </trkpt>
      <trkpt lat="44.0411" lon="1.86196">
        <ele>231</ele>
        <time>2020-10-04T12:10:04.729Z</time>
      </trkpt>
      <trkpt lat="44.0411" lon="1.86196">
        <ele>231</ele>
        <time>2020-10-04T12:10:05.729Z</time>
      </trkpt>
      <trkpt lat="44.04111" lon="1.86196">
        <ele>231</ele>
        <time>2020-10-04T12:10:06.729Z</time>
      </trkpt>
      <trkpt lat="44.04112" lon="1.86196">
        <ele>231</ele>
        <time>2020-10-04T12:10:07.729Z</time>
      </trkpt>
      <trkpt lat="44.04113" lon="1.86197">
        <ele>231</ele>
        <time>2020-10-04T12:10:08.729Z</time>
      </trkpt>
      <trkpt lat="44.04114" lon="1.86197">
        <ele>231</ele>
        <time>2020-10-04T12:10:09.729Z</time>
      </trkpt>
      <trkpt lat="44.04115" lon="1.86197">
        <ele>231</ele>
        <time>2020-10-04T12:10:10.729Z</time>
      </trkpt>
      <trkpt lat="44.04116" lon="1.86198">
        <ele>232</ele>
        <time>2020-10-04T12:10:11.729Z</time>
      </trkpt>
      <trkpt lat="44.04117" lon="1.86198">
        <ele>232</ele>
        <time>2020-10-04T12:10:12.729Z</time>
      </trkpt>
      <trkpt lat="44.04117" lon="1.86198">
        <ele>232</ele>
        <time>2020-10-04T12:10:13.729Z</time>
      </trkpt>
      <trkpt lat="44.04118" lon="1.86199">
        <ele>232</ele>
        <time>2020-10-04T12:10:14.729Z</time>
      </trkpt>
      <trkpt lat="44.04118" lon="1.86199">
        <ele>232</ele>
        <time>2020-10-04T12:10:15.729Z</time>
      </trkpt>
      <trkpt lat="44.04119" lon="1.86199">
        <ele>232</ele>
        <time>2020-10-04T12:10:16.729Z</time>
      </trkpt>
      <trkpt lat="44.04119" lon="1.86199">
        <ele>232</ele>
        <time>2020-10-04T12:10:17.729Z</time>
      </trkpt>
      <trkpt lat="44.04119" lon="1.86199">
        <ele>232</ele>
        <time>2020-10-04T12:10:18.729Z</time>
      </trkpt>
      <trkpt lat="44.04119" lon="1.86197">
        <ele>232</ele>
        <time>2020-10-04T12:10:19.729Z</time>
      </trkpt>
      <trkpt lat="44.04119" lon="1.86196">
        <ele>232</ele>
        <time>2020-10-04T12:10:20.729Z</time>
      </trkpt>
      <trkpt lat="44.04119" lon="1.86195">
        <ele>232</ele>
        <time>2020-10-04T12:10:21.729Z</time>
      </trkpt>
      <trkpt lat="44.04119" lon="1.86194">
        <ele>232</ele>
        <time>2020-10-04T12:10:22.729Z</time>
      </trkpt>
      <trkpt lat="44.04119" lon="1.86193">
        <ele>232</ele>
        <time>2020-10-04T12:10:23.729Z</time>
      </trkpt>
      <trkpt lat="44.04119" lon="1.86192">
        <ele>232</ele>
        <time>2020-10-04T12:10:24.729Z</time>
      </trkpt>
      <trkpt lat="44.04118" lon="1.86191">
        <ele>232</ele>
        <time>2020-10-04T12:10:25.729Z</time>
      </trkpt>
      <trkpt lat="44.04118" lon="1.8619">
        <ele>233</ele>
        <time>2020-10-04T12:10:26.729Z</time>
      </trkpt>
      <trkpt lat="44.04118" lon="1.86188">
        <ele>233</ele>
        <time>2020-10-04T12:10:27.729Z</time>
      </trkpt>
      <trkpt lat="44.04117" lon="1.86187">
        <ele>233</ele>
        <time>2020-10-04T12:10:28.729Z</time>
      </trkpt>
      <trkpt lat="44.04118" lon="1.86186">
        <ele>233</ele>
        <time>2020-10-04T12:10:29.729Z</time>
      </trkpt>
      <trkpt lat="44.04118" lon="1.86185">
        <ele>233</ele>
        <time>2020-10-04T12:10:30.729Z</time>
      </trkpt>
      <trkpt lat="44.04118" lon="1.86184">
        <ele>234</ele>
        <time>2020-10-04T12:10:31.729Z</time>
      </trkpt>
      <trkpt lat="44.04118" lon="1.86183">
        <ele>234</ele>
        <time>2020-10-04T12:10:32.729Z</time>
      </trkpt>
      <trkpt lat="44.04118" lon="1.86182">
        <ele>234</ele>
        <time>2020-10-04T12:10:33.729Z</time>
      </trkpt>
      <trkpt lat="44.04118" lon="1.86182">
        <ele>234</ele>
        <time>2020-10-04T12:10:34.729Z</time>
      </trkpt>
      <trkpt lat="44.04118" lon="1.86181">
        <ele>234</ele>
        <time>2020-10-04T12:10:35.729Z</time>
      </trkpt>
      <trkpt lat="44.04119" lon="1.8618">
        <ele>234</ele>
        <time>2020-10-04T12:10:36.729Z</time>
      </trkpt>
      <trkpt lat="44.04119" lon="1.86179">
        <ele>235</ele>
        <time>2020-10-04T12:10:37.729Z</time>
      </trkpt>
      <trkpt lat="44.04119" lon="1.86178">
        <ele>235</ele>
        <time>2020-10-04T12:10:38.729Z</time>
      </trkpt>
      <trkpt lat="44.04119" lon="1.86177">
        <ele>235</ele>
        <time>2020-10-04T12:10:39.729Z</time>
      </trkpt>
      <trkpt lat="44.04119" lon="1.86176">
        <ele>235</ele>
        <time>2020-10-04T12:10:40.729Z</time>
      </trkpt>
      <trkpt lat="44.04119" lon="1.86176">
        <ele>235</ele>
        <time>2020-10-04T12:10:41.729Z</time>
      </trkpt>
      <trkpt lat="44.04119" lon="1.86174">
        <ele>236</ele>
        <time>2020-10-04T12:10:42.729Z</time>
      </trkpt>
      <trkpt lat="44.04119" lon="1.86173">
        <ele>236</ele>
        <time>2020-10-04T12:10:43.729Z</time>
      </trkpt>
      <trkpt lat="44.0412" lon="1.86173">
        <ele>236</ele>
        <time>2020-10-04T12:10:44.729Z</time>
      </trkpt>
      <trkpt lat="44.0412" lon="1.86172">
        <ele>236</ele>
        <time>2020-10-04T12:10:45.729Z</time>
      </trkpt>
      <trkpt lat="44.0412" lon="1.86171">
        <ele>236</ele>
        <time>2020-10-04T12:10:46.729Z</time>
      </trkpt>
      <trkpt lat="44.04121" lon="1.8617">
        <ele>237</ele>
        <time>2020-10-04T12:10:47.729Z</time>
      </trkpt>
      <trkpt lat="44.04121" lon="1.86169">
        <ele>237</ele>
        <time>2020-10-04T12:10:48.729Z</time>
      </trkpt>
      <trkpt lat="44.04121" lon="1.86168">
        <ele>237</ele>
        <time>2020-10-04T12:10:49.729Z</time>
      </trkpt>
      <trkpt lat="44.04121" lon="1.86168">
        <ele>237</ele>
        <time>2020-10-04T12:10:50.729Z</time>
      </trkpt>
      <trkpt lat="44.04121" lon="1.86168">
        <ele>238</ele>
        <time>2020-10-04T12:10:51.729Z</time>
      </trkpt>
      <trkpt lat="44.04121" lon="1.86168">
        <ele>238</ele>
        <time>2020-10-04T12:10:52.729Z</time>
      </trkpt>
      <trkpt lat="44.04121" lon="1.86165">
        <ele>240</ele>
        <time>2020-10-04T12:10:53.729Z</time>
      </trkpt>
      <trkpt lat="44.04121" lon="1.86164">
        <ele>240</ele>
        <time>2020-10-04T12:10:54.729Z</time>
      </trkpt>
      <trkpt lat="44.04121" lon="1.86163">
        <ele>240</ele>
        <time>2020-10-04T12:10:55.729Z</time>
      </trkpt>
      <trkpt lat="44.04121" lon="1.86161">
        <ele>240</ele>
        <time>2020-10-04T12:10:56.729Z</time>
      </trkpt>
      <trkpt lat="44.04121" lon="1.8616">
        <ele>240</ele>
        <time>2020-10-04T12:10:57.729Z</time>
      </trkpt>
      <trkpt lat="44.04122" lon="1.86159">
        <ele>240</ele>
        <time>2020-10-04T12:10:58.729Z</time>
      </trkpt>
      <trkpt lat="44.04122" lon="1.86158">
        <ele>240</ele>
        <time>2020-10-04T12:10:59.729Z</time>
      </trkpt>
      <trkpt lat="44.04123" lon="1.86157">
        <ele>240</ele>
        <time>2020-10-04T12:11:00.729Z</time>
      </trkpt>
      <trkpt lat="44.04123" lon="1.86155">
        <ele>240</ele>
        <time>2020-10-04T12:11:01.729Z</time>
      </trkpt>
      <trkpt lat="44.04123" lon="1.86154">
        <ele>240</ele>
        <time>2020-10-04T12:11:02.729Z</time>
      </trkpt>
      <trkpt lat="44.04124" lon="1.86152">
        <ele>240</ele>
        <time>2020-10-04T12:11:03.729Z</time>
      </trkpt>
      <trkpt lat="44.04124" lon="1.86151">
        <ele>240</ele>
        <time>2020-10-04T12:11:04.729Z</time>
      </trkpt>
      <trkpt lat="44.04124" lon="1.8615">
        <ele>241</ele>
        <time>2020-10-04T12:11:05.729Z</time>
      </trkpt>
      <trkpt lat="44.04125" lon="1.86148">
        <ele>241</ele>
        <time>2020-10-04T12:11:06.729Z</time>
      </trkpt>
      <trkpt lat="44.04125" lon="1.86147">
        <ele>241</ele>
        <time>2020-10-04T12:11:07.729Z</time>
      </trkpt>
      <trkpt lat="44.04126" lon="1.86146">
        <ele>241</ele>
        <time>2020-10-04T12:11:08.729Z</time>
      </trkpt>
      <trkpt lat="44.04126" lon="1.86144">
        <ele>241</ele>
        <time>2020-10-04T12:11:09.729Z</time>
      </trkpt>
      <trkpt lat="44.04126" lon="1.86143">
        <ele>241</ele>
        <time>2020-10-04T12:11:10.729Z</time>
      </trkpt>
      <trkpt lat="44.04127" lon="1.86142">
        <ele>241</ele>
        <time>2020-10-04T12:11:11.729Z</time>
      </trkpt>
      <trkpt lat="44.04127" lon="1.8614">
        <ele>241</ele>
        <time>2020-10-04T12:11:12.729Z</time>
      </trkpt>
      <trkpt lat="44.04127" lon="1.86139">
        <ele>241</ele>
        <time>2020-10-04T12:11:13.729Z</time>
      </trkpt>
      <trkpt lat="44.04128" lon="1.86138">
        <ele>241</ele>
        <time>2020-10-04T12:11:14.729Z</time>
      </trkpt>
      <trkpt lat="44.04128" lon="1.86136">
        <ele>241</ele>
        <time>2020-10-04T12:11:15.729Z</time>
      </trkpt>
      <trkpt lat="44.04129" lon="1.86135">
        <ele>241</ele>
        <time>2020-10-04T12:11:16.729Z</time>
      </trkpt>
      <trkpt lat="44.04129" lon="1.86133">
        <ele>241</ele>
        <time>2020-10-04T12:11:17.729Z</time>
      </trkpt>
      <trkpt lat="44.04129" lon="1.86132">
        <ele>241</ele>
        <time>2020-10-04T12:11:18.729Z</time>
      </trkpt>
      <trkpt lat="44.04129" lon="1.8613">
        <ele>241</ele>
        <time>2020-10-04T12:11:19.729Z</time>
      </trkpt>
      <trkpt lat="44.0413" lon="1.86129">
        <ele>241</ele>
        <time>2020-10-04T12:11:20.729Z</time>
      </trkpt>
      <trkpt lat="44.0413" lon="1.86128">
        <ele>242</ele>
        <time>2020-10-04T12:11:21.729Z</time>
      </trkpt>
      <trkpt lat="44.0413" lon="1.86126">
        <ele>242</ele>
        <time>2020-10-04T12:11:22.729Z</time>
      </trkpt>
      <trkpt lat="44.04131" lon="1.86125">
        <ele>242</ele>
        <time>2020-10-04T12:11:23.729Z</time>
      </trkpt>
      <trkpt lat="44.04131" lon="1.86124">
        <ele>242</ele>
        <time>2020-10-04T12:11:24.729Z</time>
      </trkpt>
      <trkpt lat="44.04131" lon="1.86123">
        <ele>242</ele>
        <time>2020-10-04T12:11:25.729Z</time>
      </trkpt>
      <trkpt lat="44.04131" lon="1.86121">
        <ele>242</ele>
        <time>2020-10-04T12:11:26.729Z</time>
      </trkpt>
      <trkpt lat="44.04131" lon="1.8612">
        <ele>242</ele>
        <time>2020-10-04T12:11:27.729Z</time>
      </trkpt>
      <trkpt lat="44.0413" lon="1.8612">
        <ele>243</ele>
        <time>2020-10-04T12:11:28.729Z</time>
      </trkpt>
      <trkpt lat="44.0413" lon="1.86119">
        <ele>243</ele>
        <time>2020-10-04T12:11:29.729Z</time>
      </trkpt>
      <trkpt lat="44.0413" lon="1.86119">
        <ele>243</ele>
        <time>2020-10-04T12:11:30.729Z</time>
      </trkpt>
      <trkpt lat="44.0413" lon="1.86119">
        <ele>243</ele>
        <time>2020-10-04T12:11:31.729Z</time>
      </trkpt>
      <trkpt lat="44.0413" lon="1.86119">
        <ele>243</ele>
        <time>2020-10-04T12:11:32.729Z</time>
      </trkpt>
      <trkpt lat="44.04128" lon="1.86117">
        <ele>244</ele>
        <time>2020-10-04T12:11:33.729Z</time>
      </trkpt>
      <trkpt lat="44.04129" lon="1.86117">
        <ele>244</ele>
        <time>2020-10-04T12:11:34.729Z</time>
      </trkpt>
      <trkpt lat="44.04129" lon="1.86118">
        <ele>244</ele>
        <time>2020-10-04T12:11:35.729Z</time>
      </trkpt>
      <trkpt lat="44.04129" lon="1.86118">
        <ele>244</ele>
        <time>2020-10-04T12:11:36.729Z</time>
      </trkpt>
      <trkpt lat="44.0413" lon="1.86118">
        <ele>244</ele>
        <time>2020-10-04T12:11:37.729Z</time>
      </trkpt>
      <trkpt lat="44.0413" lon="1.86118">
        <ele>244</ele>
        <time>2020-10-04T12:11:38.729Z</time>
      </trkpt>
      <trkpt lat="44.0413" lon="1.86118">
        <ele>244</ele>
        <time>2020-10-04T12:11:39.729Z</time>
      </trkpt>
      <trkpt lat="44.0413" lon="1.86119">
        <ele>244</ele>
        <time>2020-10-04T12:11:40.729Z</time>
      </trkpt>
      <trkpt lat="44.0413" lon="1.86119">
        <ele>244</ele>
        <time>2020-10-04T12:11:41.729Z</time>
      </trkpt>
      <trkpt lat="44.0413" lon="1.8612">
        <ele>244</ele>
        <time>2020-10-04T12:11:42.729Z</time>
      </trkpt>
      <trkpt lat="44.0413" lon="1.8612">
        <ele>243</ele>
        <time>2020-10-04T12:11:43.729Z</time>
      </trkpt>
      <trkpt lat="44.0413" lon="1.8612">
        <ele>243</ele>
        <time>2020-10-04T12:11:44.729Z</time>
      </trkpt>
      <trkpt lat="44.0413" lon="1.8612">
        <ele>243</ele>
        <time>2020-10-04T12:11:45.729Z</time>
      </trkpt>
      <trkpt lat="44.0413" lon="1.86117">
        <ele>243</ele>
        <time>2020-10-04T12:11:46.729Z</time>
      </trkpt>
      <trkpt lat="44.04131" lon="1.86116">
        <ele>244</ele>
        <time>2020-10-04T12:11:47.729Z</time>
      </trkpt>
      <trkpt lat="44.04131" lon="1.86115">
        <ele>244</ele>
        <time>2020-10-04T12:11:48.729Z</time>
      </trkpt>
      <trkpt lat="44.04132" lon="1.86114">
        <ele>244</ele>
        <time>2020-10-04T12:11:49.729Z</time>
      </trkpt>
      <trkpt lat="44.04132" lon="1.86112">
        <ele>244</ele>
        <time>2020-10-04T12:11:50.729Z</time>
      </trkpt>
      <trkpt lat="44.04132" lon="1.86111">
        <ele>244</ele>
        <time>2020-10-04T12:11:51.729Z</time>
      </trkpt>
      <trkpt lat="44.04133" lon="1.8611">
        <ele>244</ele>
        <time>2020-10-04T12:11:52.729Z</time>
      </trkpt>
      <trkpt lat="44.04133" lon="1.86108">
        <ele>244</ele>
        <time>2020-10-04T12:11:53.729Z</time>
      </trkpt>
      <trkpt lat="44.04133" lon="1.86107">
        <ele>245</ele>
        <time>2020-10-04T12:11:54.729Z</time>
      </trkpt>
      <trkpt lat="44.04134" lon="1.86105">
        <ele>245</ele>
        <time>2020-10-04T12:11:55.729Z</time>
      </trkpt>
      <trkpt lat="44.04134" lon="1.86104">
        <ele>245</ele>
        <time>2020-10-04T12:11:56.729Z</time>
      </trkpt>
      <trkpt lat="44.04134" lon="1.86103">
        <ele>245</ele>
        <time>2020-10-04T12:11:57.729Z</time>
      </trkpt>
      <trkpt lat="44.04134" lon="1.86102">
        <ele>245</ele>
        <time>2020-10-04T12:11:58.729Z</time>
      </trkpt>
      <trkpt lat="44.04134" lon="1.86101">
        <ele>245</ele>
        <time>2020-10-04T12:11:59.729Z</time>
      </trkpt>
      <trkpt lat="44.04134" lon="1.861">
        <ele>246</ele>
        <time>2020-10-04T12:12:00.729Z</time>
      </trkpt>
      <trkpt lat="44.04134" lon="1.86099">
        <ele>246</ele>
        <time>2020-10-04T12:12:01.729Z</time>
      </trkpt>
      <trkpt lat="44.04134" lon="1.86098">
        <ele>246</ele>
        <time>2020-10-04T12:12:02.729Z</time>
      </trkpt>
      <trkpt lat="44.04135" lon="1.86097">
        <ele>246</ele>
        <time>2020-10-04T12:12:03.729Z</time>
      </trkpt>
      <trkpt lat="44.04135" lon="1.86096">
        <ele>246</ele>
        <time>2020-10-04T12:12:04.729Z</time>
      </trkpt>
      <trkpt lat="44.04135" lon="1.86095">
        <ele>246</ele>
        <time>2020-10-04T12:12:05.729Z</time>
      </trkpt>
      <trkpt lat="44.04136" lon="1.86094">
        <ele>246</ele>
        <time>2020-10-04T12:12:06.729Z</time>
      </trkpt>
      <trkpt lat="44.04136" lon="1.86093">
        <ele>246</ele>
        <time>2020-10-04T12:12:07.729Z</time>
      </trkpt>
      <trkpt lat="44.04136" lon="1.86092">
        <ele>246</ele>
        <time>2020-10-04T12:12:08.729Z</time>
      </trkpt>
      <trkpt lat="44.04136" lon="1.86092">
        <ele>246</ele>
        <time>2020-10-04T12:12:09.729Z</time>
      </trkpt>
      <trkpt lat="44.04136" lon="1.86091">
        <ele>246</ele>
        <time>2020-10-04T12:12:10.729Z</time>
      </trkpt>
      <trkpt lat="44.04136" lon="1.8609">
        <ele>246</ele>
        <time>2020-10-04T12:12:11.729Z</time>
      </trkpt>
      <trkpt lat="44.04137" lon="1.8609">
        <ele>246</ele>
        <time>2020-10-04T12:12:12.729Z</time>
      </trkpt>
      <trkpt lat="44.04137" lon="1.86089">
        <ele>246</ele>
        <time>2020-10-04T12:12:13.729Z</time>
      </trkpt>
      <trkpt lat="44.04138" lon="1.86088">
        <ele>246</ele>
        <time>2020-10-04T12:12:14.729Z</time>
      </trkpt>
      <trkpt lat="44.04138" lon="1.86086">
        <ele>246</ele>
        <time>2020-10-04T12:12:15.729Z</time>
      </trkpt>
      <trkpt lat="44.04139" lon="1.86085">
        <ele>246</ele>
        <time>2020-10-04T12:12:16.729Z</time>
      </trkpt>
      <trkpt lat="44.04139" lon="1.86084">
        <ele>246</ele>
        <time>2020-10-04T12:12:17.729Z</time>
      </trkpt>
      <trkpt lat="44.04139" lon="1.86082">
        <ele>246</ele>
        <time>2020-10-04T12:12:18.729Z</time>
      </trkpt>
      <trkpt lat="44.04139" lon="1.86081">
        <ele>246</ele>
        <time>2020-10-04T12:12:19.729Z</time>
      </trkpt>
      <trkpt lat="44.04139" lon="1.8608">
        <ele>247</ele>
        <time>2020-10-04T12:12:20.729Z</time>
      </trkpt>
      <trkpt lat="44.0414" lon="1.86078">
        <ele>247</ele>
        <time>2020-10-04T12:12:21.729Z</time>
      </trkpt>
      <trkpt lat="44.0414" lon="1.86077">
        <ele>247</ele>
        <time>2020-10-04T12:12:22.729Z</time>
      </trkpt>
      <trkpt lat="44.0414" lon="1.86075">
        <ele>247</ele>
        <time>2020-10-04T12:12:23.729Z</time>
      </trkpt>
      <trkpt lat="44.0414" lon="1.86074">
        <ele>247</ele>
        <time>2020-10-04T12:12:24.729Z</time>
      </trkpt>
      <trkpt lat="44.0414" lon="1.86073">
        <ele>247</ele>
        <time>2020-10-04T12:12:25.729Z</time>
      </trkpt>
      <trkpt lat="44.0414" lon="1.86072">
        <ele>247</ele>
        <time>2020-10-04T12:12:26.729Z</time>
      </trkpt>
      <trkpt lat="44.0414" lon="1.8607">
        <ele>247</ele>
        <time>2020-10-04T12:12:27.729Z</time>
      </trkpt>
      <trkpt lat="44.0414" lon="1.86069">
        <ele>247</ele>
        <time>2020-10-04T12:12:28.729Z</time>
      </trkpt>
      <trkpt lat="44.04141" lon="1.86068">
        <ele>247</ele>
        <time>2020-10-04T12:12:29.729Z</time>
      </trkpt>
      <trkpt lat="44.04141" lon="1.86066">
        <ele>247</ele>
        <time>2020-10-04T12:12:30.729Z</time>
      </trkpt>
      <trkpt lat="44.04141" lon="1.86065">
        <ele>247</ele>
        <time>2020-10-04T12:12:31.729Z</time>
      </trkpt>
      <trkpt lat="44.04142" lon="1.86063">
        <ele>247</ele>
        <time>2020-10-04T12:12:32.729Z</time>
      </trkpt>
      <trkpt lat="44.04142" lon="1.86062">
        <ele>247</ele>
        <time>2020-10-04T12:12:33.729Z</time>
      </trkpt>
      <trkpt lat="44.04143" lon="1.8606">
        <ele>248</ele>
        <time>2020-10-04T12:12:34.729Z</time>
      </trkpt>
      <trkpt lat="44.04143" lon="1.86059">
        <ele>248</ele>
        <time>2020-10-04T12:12:35.729Z</time>
      </trkpt>
      <trkpt lat="44.04143" lon="1.86058">
        <ele>248</ele>
        <time>2020-10-04T12:12:36.729Z</time>
      </trkpt>
      <trkpt lat="44.04144" lon="1.86056">
        <ele>248</ele>
        <time>2020-10-04T12:12:37.729Z</time>
      </trkpt>
      <trkpt lat="44.04144" lon="1.86055">
        <ele>249</ele>
        <time>2020-10-04T12:12:38.729Z</time>
      </trkpt>
      <trkpt lat="44.04145" lon="1.86053">
        <ele>249</ele>
        <time>2020-10-04T12:12:39.729Z</time>
      </trkpt>
      <trkpt lat="44.04145" lon="1.86052">
        <ele>249</ele>
        <time>2020-10-04T12:12:40.729Z</time>
      </trkpt>
      <trkpt lat="44.04145" lon="1.86051">
        <ele>249</ele>
        <time>2020-10-04T12:12:41.729Z</time>
      </trkpt>
      <trkpt lat="44.04146" lon="1.86049">
        <ele>249</ele>
        <time>2020-10-04T12:12:42.729Z</time>
      </trkpt>
      <trkpt lat="44.04146" lon="1.86048">
        <ele>250</ele>
        <time>2020-10-04T12:12:43.729Z</time>
      </trkpt>
      <trkpt lat="44.04146" lon="1.86047">
        <ele>250</ele>
        <time>2020-10-04T12:12:44.729Z</time>
      </trkpt>
      <trkpt lat="44.04146" lon="1.86046">
        <ele>250</ele>
        <time>2020-10-04T12:12:45.729Z</time>
      </trkpt>
      <trkpt lat="44.04147" lon="1.86044">
        <ele>250</ele>
        <time>2020-10-04T12:12:46.729Z</time>
      </trkpt>
      <trkpt lat="44.04148" lon="1.86044">
        <ele>251</ele>
        <time>2020-10-04T12:12:47.729Z</time>
      </trkpt>
      <trkpt lat="44.04149" lon="1.86044">
        <ele>251</ele>
        <time>2020-10-04T12:12:48.729Z</time>
      </trkpt>
      <trkpt lat="44.0415" lon="1.86044">
        <ele>251</ele>
        <time>2020-10-04T12:12:49.729Z</time>
      </trkpt>
      <trkpt lat="44.0415" lon="1.86044">
        <ele>252</ele>
        <time>2020-10-04T12:12:50.729Z</time>
      </trkpt>
      <trkpt lat="44.04151" lon="1.86045">
        <ele>252</ele>
        <time>2020-10-04T12:12:51.729Z</time>
      </trkpt>
      <trkpt lat="44.04152" lon="1.86045">
        <ele>252</ele>
        <time>2020-10-04T12:12:52.729Z</time>
      </trkpt>
      <trkpt lat="44.04153" lon="1.86046">
        <ele>252</ele>
        <time>2020-10-04T12:12:53.729Z</time>
      </trkpt>
      <trkpt lat="44.04154" lon="1.86046">
        <ele>252</ele>
        <time>2020-10-04T12:12:54.729Z</time>
      </trkpt>
      <trkpt lat="44.04155" lon="1.86047">
        <ele>252</ele>
        <time>2020-10-04T12:12:55.729Z</time>
      </trkpt>
      <trkpt lat="44.04156" lon="1.86047">
        <ele>252</ele>
        <time>2020-10-04T12:12:56.729Z</time>
      </trkpt>
      <trkpt lat="44.04157" lon="1.86048">
        <ele>252</ele>
        <time>2020-10-04T12:12:57.729Z</time>
      </trkpt>
      <trkpt lat="44.04158" lon="1.86048">
        <ele>252</ele>
        <time>2020-10-04T12:12:58.729Z</time>
      </trkpt>
      <trkpt lat="44.04159" lon="1.86048">
        <ele>252</ele>
        <time>2020-10-04T12:12:59.729Z</time>
      </trkpt>
      <trkpt lat="44.0416" lon="1.86049">
        <ele>252</ele>
        <time>2020-10-04T12:13:00.729Z</time>
      </trkpt>
      <trkpt lat="44.04161" lon="1.86049">
        <ele>252</ele>
        <time>2020-10-04T12:13:01.729Z</time>
      </trkpt>
      <trkpt lat="44.04163" lon="1.86049">
        <ele>252</ele>
        <time>2020-10-04T12:13:02.729Z</time>
      </trkpt>
      <trkpt lat="44.04164" lon="1.8605">
        <ele>252</ele>
        <time>2020-10-04T12:13:03.729Z</time>
      </trkpt>
      <trkpt lat="44.04165" lon="1.86051">
        <ele>252</ele>
        <time>2020-10-04T12:13:04.729Z</time>
      </trkpt>
      <trkpt lat="44.04166" lon="1.86051">
        <ele>252</ele>
        <time>2020-10-04T12:13:05.729Z</time>
      </trkpt>
      <trkpt lat="44.04167" lon="1.86052">
        <ele>252</ele>
        <time>2020-10-04T12:13:06.729Z</time>
      </trkpt>
      <trkpt lat="44.04168" lon="1.86052">
        <ele>252</ele>
        <time>2020-10-04T12:13:07.729Z</time>
      </trkpt>
      <trkpt lat="44.04169" lon="1.86053">
        <ele>252</ele>
        <time>2020-10-04T12:13:08.729Z</time>
      </trkpt>
      <trkpt lat="44.0417" lon="1.86054">
        <ele>252</ele>
        <time>2020-10-04T12:13:09.729Z</time>
      </trkpt>
      <trkpt lat="44.04171" lon="1.86055">
        <ele>252</ele>
        <time>2020-10-04T12:13:10.729Z</time>
      </trkpt>
      <trkpt lat="44.04172" lon="1.86055">
        <ele>252</ele>
        <time>2020-10-04T12:13:11.729Z</time>
      </trkpt>
      <trkpt lat="44.04173" lon="1.86056">
        <ele>252</ele>
        <time>2020-10-04T12:13:12.729Z</time>
      </trkpt>
      <trkpt lat="44.04174" lon="1.86056">
        <ele>252</ele>
        <time>2020-10-04T12:13:13.729Z</time>
      </trkpt>
      <trkpt lat="44.04175" lon="1.86057">
        <ele>252</ele>
        <time>2020-10-04T12:13:14.729Z</time>
      </trkpt>
      <trkpt lat="44.04176" lon="1.86057">
        <ele>252</ele>
        <time>2020-10-04T12:13:15.729Z</time>
      </trkpt>
      <trkpt lat="44.04178" lon="1.86058">
        <ele>252</ele>
        <time>2020-10-04T12:13:16.729Z</time>
      </trkpt>
      <trkpt lat="44.04179" lon="1.86058">
        <ele>252</ele>
        <time>2020-10-04T12:13:17.729Z</time>
      </trkpt>
      <trkpt lat="44.0418" lon="1.86059">
        <ele>252</ele>
        <time>2020-10-04T12:13:18.729Z</time>
      </trkpt>
      <trkpt lat="44.04181" lon="1.8606">
        <ele>252</ele>
        <time>2020-10-04T12:13:19.729Z</time>
      </trkpt>
      <trkpt lat="44.04182" lon="1.86061">
        <ele>252</ele>
        <time>2020-10-04T12:13:20.729Z</time>
      </trkpt>
      <trkpt lat="44.04183" lon="1.86062">
        <ele>252</ele>
        <time>2020-10-04T12:13:21.729Z</time>
      </trkpt>
      <trkpt lat="44.04184" lon="1.86062">
        <ele>252</ele>
        <time>2020-10-04T12:13:22.729Z</time>
      </trkpt>
      <trkpt lat="44.04185" lon="1.86063">
        <ele>252</ele>
        <time>2020-10-04T12:13:23.729Z</time>
      </trkpt>
      <trkpt lat="44.04187" lon="1.86064">
        <ele>252</ele>
        <time>2020-10-04T12:13:24.729Z</time>
      </trkpt>
      <trkpt lat="44.04188" lon="1.86065">
        <ele>252</ele>
        <time>2020-10-04T12:13:25.729Z</time>
      </trkpt>
      <trkpt lat="44.04189" lon="1.86066">
        <ele>252</ele>
        <time>2020-10-04T12:13:26.729Z</time>
      </trkpt>
      <trkpt lat="44.0419" lon="1.86067">
        <ele>252</ele>
        <time>2020-10-04T12:13:27.729Z</time>
      </trkpt>
      <trkpt lat="44.04191" lon="1.86068">
        <ele>251</ele>
        <time>2020-10-04T12:13:28.729Z</time>
      </trkpt>
      <trkpt lat="44.04192" lon="1.86069">
        <ele>251</ele>
        <time>2020-10-04T12:13:29.729Z</time>
      </trkpt>
      <trkpt lat="44.04193" lon="1.8607">
        <ele>251</ele>
        <time>2020-10-04T12:13:30.729Z</time>
      </trkpt>
      <trkpt lat="44.04194" lon="1.86071">
        <ele>251</ele>
        <time>2020-10-04T12:13:31.729Z</time>
      </trkpt>
      <trkpt lat="44.04195" lon="1.86072">
        <ele>251</ele>
        <time>2020-10-04T12:13:32.729Z</time>
      </trkpt>
      <trkpt lat="44.04196" lon="1.86073">
        <ele>251</ele>
        <time>2020-10-04T12:13:33.729Z</time>
      </trkpt>
      <trkpt lat="44.04198" lon="1.86074">
        <ele>251</ele>
        <time>2020-10-04T12:13:34.729Z</time>
      </trkpt>
      <trkpt lat="44.04199" lon="1.86075">
        <ele>251</ele>
        <time>2020-10-04T12:13:35.729Z</time>
      </trkpt>
      <trkpt lat="44.042" lon="1.86075">
        <ele>251</ele>
        <time>2020-10-04T12:13:36.729Z</time>
      </trkpt>
      <trkpt lat="44.04201" lon="1.86076">
        <ele>251</ele>
        <time>2020-10-04T12:13:37.729Z</time>
      </trkpt>
      <trkpt lat="44.04202" lon="1.86077">
        <ele>251</ele>
        <time>2020-10-04T12:13:38.729Z</time>
      </trkpt>
      <trkpt lat="44.04204" lon="1.86078">
        <ele>251</ele>
        <time>2020-10-04T12:13:39.729Z</time>
      </trkpt>
      <trkpt lat="44.04205" lon="1.86078">
        <ele>251</ele>
        <time>2020-10-04T12:13:40.729Z</time>
      </trkpt>
      <trkpt lat="44.04206" lon="1.86079">
        <ele>250</ele>
        <time>2020-10-04T12:13:41.729Z</time>
      </trkpt>
      <trkpt lat="44.04207" lon="1.8608">
        <ele>250</ele>
        <time>2020-10-04T12:13:42.729Z</time>
      </trkpt>
      <trkpt lat="44.04209" lon="1.86081">
        <ele>250</ele>
        <time>2020-10-04T12:13:43.729Z</time>
      </trkpt>
      <trkpt lat="44.0421" lon="1.86082">
        <ele>250</ele>
        <time>2020-10-04T12:13:44.729Z</time>
      </trkpt>
      <trkpt lat="44.04211" lon="1.86083">
        <ele>250</ele>
        <time>2020-10-04T12:13:45.729Z</time>
      </trkpt>
      <trkpt lat="44.04213" lon="1.86084">
        <ele>250</ele>
        <time>2020-10-04T12:13:46.729Z</time>
      </trkpt>
      <trkpt lat="44.04214" lon="1.86085">
        <ele>250</ele>
        <time>2020-10-04T12:13:47.729Z</time>
      </trkpt>
      <trkpt lat="44.04215" lon="1.86086">
        <ele>250</ele>
        <time>2020-10-04T12:13:48.729Z</time>
      </trkpt>
      <trkpt lat="44.04216" lon="1.86088">
        <ele>250</ele>
        <time>2020-10-04T12:13:49.729Z</time>
      </trkpt>
      <trkpt lat="44.04217" lon="1.86089">
        <ele>250</ele>
        <time>2020-10-04T12:13:50.729Z</time>
      </trkpt>
      <trkpt lat="44.04219" lon="1.8609">
        <ele>250</ele>
        <time>2020-10-04T12:13:51.729Z</time>
      </trkpt>
      <trkpt lat="44.0422" lon="1.86091">
        <ele>250</ele>
        <time>2020-10-04T12:13:52.729Z</time>
      </trkpt>
      <trkpt lat="44.04221" lon="1.86092">
        <ele>250</ele>
        <time>2020-10-04T12:13:53.729Z</time>
      </trkpt>
      <trkpt lat="44.04222" lon="1.86093">
        <ele>250</ele>
        <time>2020-10-04T12:13:54.729Z</time>
      </trkpt>
      <trkpt lat="44.04223" lon="1.86095">
        <ele>250</ele>
        <time>2020-10-04T12:13:55.729Z</time>
      </trkpt>
      <trkpt lat="44.04224" lon="1.86096">
        <ele>250</ele>
        <time>2020-10-04T12:13:56.729Z</time>
      </trkpt>
      <trkpt lat="44.04225" lon="1.86097">
        <ele>250</ele>
        <time>2020-10-04T12:13:57.729Z</time>
      </trkpt>
      <trkpt lat="44.04226" lon="1.86098">
        <ele>250</ele>
        <time>2020-10-04T12:13:58.729Z</time>
      </trkpt>
      <trkpt lat="44.04227" lon="1.861">
        <ele>250</ele>
        <time>2020-10-04T12:13:59.729Z</time>
      </trkpt>
      <trkpt lat="44.04229" lon="1.86101">
        <ele>250</ele>
        <time>2020-10-04T12:14:00.729Z</time>
      </trkpt>
      <trkpt lat="44.0423" lon="1.86102">
        <ele>250</ele>
        <time>2020-10-04T12:14:01.729Z</time>
      </trkpt>
      <trkpt lat="44.04231" lon="1.86103">
        <ele>250</ele>
        <time>2020-10-04T12:14:02.729Z</time>
      </trkpt>
      <trkpt lat="44.04232" lon="1.86104">
        <ele>250</ele>
        <time>2020-10-04T12:14:03.729Z</time>
      </trkpt>
      <trkpt lat="44.04233" lon="1.86105">
        <ele>250</ele>
        <time>2020-10-04T12:14:04.729Z</time>
      </trkpt>
      <trkpt lat="44.04234" lon="1.86106">
        <ele>250</ele>
        <time>2020-10-04T12:14:05.729Z</time>
      </trkpt>
      <trkpt lat="44.04236" lon="1.86108">
        <ele>250</ele>
        <time>2020-10-04T12:14:06.729Z</time>
      </trkpt>
      <trkpt lat="44.04237" lon="1.86109">
        <ele>250</ele>
        <time>2020-10-04T12:14:07.729Z</time>
      </trkpt>
      <trkpt lat="44.04238" lon="1.8611">
        <ele>250</ele>
        <time>2020-10-04T12:14:08.729Z</time>
      </trkpt>
      <trkpt lat="44.04238" lon="1.86111">
        <ele>250</ele>
        <time>2020-10-04T12:14:09.729Z</time>
      </trkpt>
      <trkpt lat="44.04239" lon="1.86112">
        <ele>250</ele>
        <time>2020-10-04T12:14:10.729Z</time>
      </trkpt>
      <trkpt lat="44.0424" lon="1.86113">
        <ele>250</ele>
        <time>2020-10-04T12:14:11.729Z</time>
      </trkpt>
      <trkpt lat="44.04241" lon="1.86114">
        <ele>250</ele>
        <time>2020-10-04T12:14:12.729Z</time>
      </trkpt>
      <trkpt lat="44.04243" lon="1.86116">
        <ele>249</ele>
        <time>2020-10-04T12:14:13.729Z</time>
      </trkpt>
      <trkpt lat="44.04244" lon="1.86117">
        <ele>249</ele>
        <time>2020-10-04T12:14:14.729Z</time>
      </trkpt>
      <trkpt lat="44.04245" lon="1.86119">
        <ele>249</ele>
        <time>2020-10-04T12:14:15.729Z</time>
      </trkpt>
      <trkpt lat="44.04246" lon="1.8612">
        <ele>249</ele>
        <time>2020-10-04T12:14:16.729Z</time>
      </trkpt>
      <trkpt lat="44.04247" lon="1.86121">
        <ele>249</ele>
        <time>2020-10-04T12:14:17.729Z</time>
      </trkpt>
      <trkpt lat="44.04248" lon="1.86122">
        <ele>249</ele>
        <time>2020-10-04T12:14:18.729Z</time>
      </trkpt>
      <trkpt lat="44.04249" lon="1.86123">
        <ele>249</ele>
        <time>2020-10-04T12:14:19.729Z</time>
      </trkpt>
      <trkpt lat="44.04251" lon="1.86124">
        <ele>248</ele>
        <time>2020-10-04T12:14:20.729Z</time>
      </trkpt>
      <trkpt lat="44.04252" lon="1.86125">
        <ele>248</ele>
        <time>2020-10-04T12:14:21.729Z</time>
      </trkpt>
      <trkpt lat="44.04253" lon="1.86126">
        <ele>248</ele>
        <time>2020-10-04T12:14:22.729Z</time>
      </trkpt>
      <trkpt lat="44.04254" lon="1.86127">
        <ele>248</ele>
        <time>2020-10-04T12:14:23.729Z</time>
      </trkpt>
      <trkpt lat="44.04256" lon="1.86128">
        <ele>248</ele>
        <time>2020-10-04T12:14:24.729Z</time>
      </trkpt>
      <trkpt lat="44.04257" lon="1.86129">
        <ele>248</ele>
        <time>2020-10-04T12:14:25.729Z</time>
      </trkpt>
      <trkpt lat="44.04258" lon="1.86131">
        <ele>248</ele>
        <time>2020-10-04T12:14:26.729Z</time>
      </trkpt>
      <trkpt lat="44.04259" lon="1.86132">
        <ele>248</ele>
        <time>2020-10-04T12:14:27.729Z</time>
      </trkpt>
      <trkpt lat="44.04259" lon="1.86133">
        <ele>248</ele>
        <time>2020-10-04T12:14:28.729Z</time>
      </trkpt>
      <trkpt lat="44.0426" lon="1.86135">
        <ele>248</ele>
        <time>2020-10-04T12:14:29.729Z</time>
      </trkpt>
      <trkpt lat="44.04261" lon="1.86136">
        <ele>248</ele>
        <time>2020-10-04T12:14:30.729Z</time>
      </trkpt>
      <trkpt lat="44.04262" lon="1.86136">
        <ele>248</ele>
        <time>2020-10-04T12:14:31.729Z</time>
      </trkpt>
      <trkpt lat="44.04263" lon="1.86137">
        <ele>248</ele>
        <time>2020-10-04T12:14:32.729Z</time>
      </trkpt>
      <trkpt lat="44.04263" lon="1.86138">
        <ele>248</ele>
        <time>2020-10-04T12:14:33.729Z</time>
      </trkpt>
      <trkpt lat="44.04264" lon="1.86139">
        <ele>248</ele>
        <time>2020-10-04T12:14:34.729Z</time>
      </trkpt>
      <trkpt lat="44.04264" lon="1.86139">
        <ele>248</ele>
        <time>2020-10-04T12:14:35.729Z</time>
      </trkpt>
      <trkpt lat="44.04264" lon="1.86139">
        <ele>248</ele>
        <time>2020-10-04T12:14:36.729Z</time>
      </trkpt>
      <trkpt lat="44.04264" lon="1.86139">
        <ele>248</ele>
        <time>2020-10-04T12:14:37.729Z</time>
      </trkpt>
      <trkpt lat="44.04264" lon="1.86139">
        <ele>248</ele>
        <time>2020-10-04T12:14:38.729Z</time>
      </trkpt>
      <trkpt lat="44.04266" lon="1.8614">
        <ele>248</ele>
        <time>2020-10-04T12:14:39.729Z</time>
      </trkpt>
      <trkpt lat="44.04267" lon="1.86141">
        <ele>248</ele>
        <time>2020-10-04T12:14:40.729Z</time>
      </trkpt>
      <trkpt lat="44.04268" lon="1.86141">
        <ele>248</ele>
        <time>2020-10-04T12:14:41.729Z</time>
      </trkpt>
      <trkpt lat="44.04269" lon="1.86142">
        <ele>248</ele>
        <time>2020-10-04T12:14:42.729Z</time>
      </trkpt>
      <trkpt lat="44.0427" lon="1.86143">
        <ele>248</ele>
        <time>2020-10-04T12:14:43.729Z</time>
      </trkpt>
      <trkpt lat="44.04272" lon="1.86144">
        <ele>247</ele>
        <time>2020-10-04T12:14:44.729Z</time>
      </trkpt>
      <trkpt lat="44.04273" lon="1.86144">
        <ele>247</ele>
        <time>2020-10-04T12:14:45.729Z</time>
      </trkpt>
      <trkpt lat="44.04273" lon="1.86146">
        <ele>247</ele>
        <time>2020-10-04T12:14:46.729Z</time>
      </trkpt>
      <trkpt lat="44.04274" lon="1.86146">
        <ele>247</ele>
        <time>2020-10-04T12:14:47.729Z</time>
      </trkpt>
      <trkpt lat="44.04275" lon="1.86147">
        <ele>247</ele>
        <time>2020-10-04T12:14:48.729Z</time>
      </trkpt>
      <trkpt lat="44.04276" lon="1.86148">
        <ele>247</ele>
        <time>2020-10-04T12:14:49.729Z</time>
      </trkpt>
      <trkpt lat="44.04277" lon="1.86149">
        <ele>247</ele>
        <time>2020-10-04T12:14:50.729Z</time>
      </trkpt>
      <trkpt lat="44.04277" lon="1.8615">
        <ele>247</ele>
        <time>2020-10-04T12:14:51.729Z</time>
      </trkpt>
      <trkpt lat="44.04278" lon="1.8615">
        <ele>247</ele>
        <time>2020-10-04T12:14:52.729Z</time>
      </trkpt>
      <trkpt lat="44.04279" lon="1.86151">
        <ele>247</ele>
        <time>2020-10-04T12:14:53.729Z</time>
      </trkpt>
      <trkpt lat="44.04279" lon="1.86151">
        <ele>247</ele>
        <time>2020-10-04T12:14:54.729Z</time>
      </trkpt>
      <trkpt lat="44.0428" lon="1.86152">
        <ele>247</ele>
        <time>2020-10-04T12:14:55.729Z</time>
      </trkpt>
      <trkpt lat="44.04281" lon="1.86153">
        <ele>247</ele>
        <time>2020-10-04T12:14:56.729Z</time>
      </trkpt>
      <trkpt lat="44.04282" lon="1.86154">
        <ele>247</ele>
        <time>2020-10-04T12:14:57.729Z</time>
      </trkpt>
      <trkpt lat="44.04283" lon="1.86155">
        <ele>247</ele>
        <time>2020-10-04T12:14:58.729Z</time>
      </trkpt>
      <trkpt lat="44.04284" lon="1.86156">
        <ele>247</ele>
        <time>2020-10-04T12:14:59.729Z</time>
      </trkpt>
      <trkpt lat="44.04285" lon="1.86157">
        <ele>247</ele>
        <time>2020-10-04T12:15:00.729Z</time>
      </trkpt>
      <trkpt lat="44.04286" lon="1.86157">
        <ele>246</ele>
        <time>2020-10-04T12:15:01.729Z</time>
      </trkpt>
      <trkpt lat="44.04287" lon="1.86158">
        <ele>246</ele>
        <time>2020-10-04T12:15:02.729Z</time>
      </trkpt>
      <trkpt lat="44.04288" lon="1.86159">
        <ele>246</ele>
        <time>2020-10-04T12:15:03.729Z</time>
      </trkpt>
      <trkpt lat="44.04289" lon="1.8616">
        <ele>246</ele>
        <time>2020-10-04T12:15:04.729Z</time>
      </trkpt>
      <trkpt lat="44.0429" lon="1.86161">
        <ele>246</ele>
        <time>2020-10-04T12:15:05.729Z</time>
      </trkpt>
      <trkpt lat="44.04291" lon="1.86162">
        <ele>246</ele>
        <time>2020-10-04T12:15:06.729Z</time>
      </trkpt>
      <trkpt lat="44.04292" lon="1.86163">
        <ele>246</ele>
        <time>2020-10-04T12:15:07.729Z</time>
      </trkpt>
      <trkpt lat="44.04294" lon="1.86164">
        <ele>246</ele>
        <time>2020-10-04T12:15:08.729Z</time>
      </trkpt>
      <trkpt lat="44.04295" lon="1.86165">
        <ele>246</ele>
        <time>2020-10-04T12:15:09.729Z</time>
      </trkpt>
      <trkpt lat="44.04296" lon="1.86166">
        <ele>245</ele>
        <time>2020-10-04T12:15:10.729Z</time>
      </trkpt>
      <trkpt lat="44.04297" lon="1.86167">
        <ele>245</ele>
        <time>2020-10-04T12:15:11.729Z</time>
      </trkpt>
      <trkpt lat="44.04298" lon="1.86168">
        <ele>245</ele>
        <time>2020-10-04T12:15:12.729Z</time>
      </trkpt>
      <trkpt lat="44.04299" lon="1.86168">
        <ele>245</ele>
        <time>2020-10-04T12:15:13.729Z</time>
      </trkpt>
      <trkpt lat="44.043" lon="1.86169">
        <ele>245</ele>
        <time>2020-10-04T12:15:14.729Z</time>
      </trkpt>
      <trkpt lat="44.04301" lon="1.8617">
        <ele>245</ele>
        <time>2020-10-04T12:15:15.729Z</time>
      </trkpt>
      <trkpt lat="44.04302" lon="1.86171">
        <ele>245</ele>
        <time>2020-10-04T12:15:16.729Z</time>
      </trkpt>
      <trkpt lat="44.04303" lon="1.86172">
        <ele>245</ele>
        <time>2020-10-04T12:15:17.729Z</time>
      </trkpt>
      <trkpt lat="44.04304" lon="1.86173">
        <ele>245</ele>
        <time>2020-10-04T12:15:18.729Z</time>
      </trkpt>
      <trkpt lat="44.04305" lon="1.86174">
        <ele>245</ele>
        <time>2020-10-04T12:15:19.729Z</time>
      </trkpt>
      <trkpt lat="44.04306" lon="1.86175">
        <ele>245</ele>
        <time>2020-10-04T12:15:20.729Z</time>
      </trkpt>
      <trkpt lat="44.04307" lon="1.86176">
        <ele>245</ele>
        <time>2020-10-04T12:15:21.729Z</time>
      </trkpt>
      <trkpt lat="44.04309" lon="1.86177">
        <ele>244</ele>
        <time>2020-10-04T12:15:22.729Z</time>
      </trkpt>
      <trkpt lat="44.0431" lon="1.86177">
        <ele>244</ele>
        <time>2020-10-04T12:15:23.729Z</time>
      </trkpt>
      <trkpt lat="44.04311" lon="1.86178">
        <ele>244</ele>
        <time>2020-10-04T12:15:24.729Z</time>
      </trkpt>
      <trkpt lat="44.04312" lon="1.86179">
        <ele>244</ele>
        <time>2020-10-04T12:15:25.729Z</time>
      </trkpt>
      <trkpt lat="44.04314" lon="1.86179">
        <ele>244</ele>
        <time>2020-10-04T12:15:26.729Z</time>
      </trkpt>
      <trkpt lat="44.04315" lon="1.8618">
        <ele>244</ele>
        <time>2020-10-04T12:15:27.729Z</time>
      </trkpt>
      <trkpt lat="44.04316" lon="1.86181">
        <ele>244</ele>
        <time>2020-10-04T12:15:28.729Z</time>
      </trkpt>
      <trkpt lat="44.04317" lon="1.86182">
        <ele>243</ele>
        <time>2020-10-04T12:15:29.729Z</time>
      </trkpt>
      <trkpt lat="44.04318" lon="1.86183">
        <ele>243</ele>
        <time>2020-10-04T12:15:30.729Z</time>
      </trkpt>
      <trkpt lat="44.04319" lon="1.86184">
        <ele>243</ele>
        <time>2020-10-04T12:15:31.729Z</time>
      </trkpt>
      <trkpt lat="44.0432" lon="1.86184">
        <ele>243</ele>
        <time>2020-10-04T12:15:32.729Z</time>
      </trkpt>
      <trkpt lat="44.04321" lon="1.86185">
        <ele>243</ele>
        <time>2020-10-04T12:15:33.729Z</time>
      </trkpt>
      <trkpt lat="44.04323" lon="1.86186">
        <ele>243</ele>
        <time>2020-10-04T12:15:34.729Z</time>
      </trkpt>
      <trkpt lat="44.04324" lon="1.86187">
        <ele>243</ele>
        <time>2020-10-04T12:15:35.729Z</time>
      </trkpt>
      <trkpt lat="44.04325" lon="1.86188">
        <ele>242</ele>
        <time>2020-10-04T12:15:36.729Z</time>
      </trkpt>
      <trkpt lat="44.04326" lon="1.86189">
        <ele>242</ele>
        <time>2020-10-04T12:15:37.729Z</time>
      </trkpt>
      <trkpt lat="44.04327" lon="1.8619">
        <ele>242</ele>
        <time>2020-10-04T12:15:38.729Z</time>
      </trkpt>
      <trkpt lat="44.04328" lon="1.86191">
        <ele>242</ele>
        <time>2020-10-04T12:15:39.729Z</time>
      </trkpt>
      <trkpt lat="44.04329" lon="1.86192">
        <ele>242</ele>
        <time>2020-10-04T12:15:40.729Z</time>
      </trkpt>
      <trkpt lat="44.0433" lon="1.86193">
        <ele>242</ele>
        <time>2020-10-04T12:15:41.729Z</time>
      </trkpt>
      <trkpt lat="44.04331" lon="1.86194">
        <ele>242</ele>
        <time>2020-10-04T12:15:42.729Z</time>
      </trkpt>
      <trkpt lat="44.04332" lon="1.86195">
        <ele>242</ele>
        <time>2020-10-04T12:15:43.729Z</time>
      </trkpt>
      <trkpt lat="44.04333" lon="1.86195">
        <ele>242</ele>
        <time>2020-10-04T12:15:44.729Z</time>
      </trkpt>
      <trkpt lat="44.04335" lon="1.86196">
        <ele>241</ele>
        <time>2020-10-04T12:15:45.729Z</time>
      </trkpt>
      <trkpt lat="44.04336" lon="1.86197">
        <ele>241</ele>
        <time>2020-10-04T12:15:46.729Z</time>
      </trkpt>
      <trkpt lat="44.04336" lon="1.86198">
        <ele>241</ele>
        <time>2020-10-04T12:15:47.729Z</time>
      </trkpt>
      <trkpt lat="44.04337" lon="1.86199">
        <ele>241</ele>
        <time>2020-10-04T12:15:48.729Z</time>
      </trkpt>
      <trkpt lat="44.04338" lon="1.86199">
        <ele>241</ele>
        <time>2020-10-04T12:15:49.729Z</time>
      </trkpt>
      <trkpt lat="44.04339" lon="1.86201">
        <ele>241</ele>
        <time>2020-10-04T12:15:50.729Z</time>
      </trkpt>
      <trkpt lat="44.04341" lon="1.86202">
        <ele>241</ele>
        <time>2020-10-04T12:15:51.729Z</time>
      </trkpt>
      <trkpt lat="44.04342" lon="1.86203">
        <ele>241</ele>
        <time>2020-10-04T12:15:52.729Z</time>
      </trkpt>
      <trkpt lat="44.04343" lon="1.86204">
        <ele>241</ele>
        <time>2020-10-04T12:15:53.729Z</time>
      </trkpt>
      <trkpt lat="44.04344" lon="1.86205">
        <ele>241</ele>
        <time>2020-10-04T12:15:54.729Z</time>
      </trkpt>
      <trkpt lat="44.04345" lon="1.86205">
        <ele>241</ele>
        <time>2020-10-04T12:15:55.729Z</time>
      </trkpt>
      <trkpt lat="44.04346" lon="1.86206">
        <ele>241</ele>
        <time>2020-10-04T12:15:56.729Z</time>
      </trkpt>
      <trkpt lat="44.04347" lon="1.86207">
        <ele>241</ele>
        <time>2020-10-04T12:15:57.729Z</time>
      </trkpt>
      <trkpt lat="44.04348" lon="1.86208">
        <ele>241</ele>
        <time>2020-10-04T12:15:58.729Z</time>
      </trkpt>
      <trkpt lat="44.04349" lon="1.86209">
        <ele>241</ele>
        <time>2020-10-04T12:15:59.729Z</time>
      </trkpt>
      <trkpt lat="44.0435" lon="1.8621">
        <ele>241</ele>
        <time>2020-10-04T12:16:00.729Z</time>
      </trkpt>
      <trkpt lat="44.04351" lon="1.86211">
        <ele>241</ele>
        <time>2020-10-04T12:16:01.729Z</time>
      </trkpt>
      <trkpt lat="44.04352" lon="1.86212">
        <ele>241</ele>
        <time>2020-10-04T12:16:02.729Z</time>
      </trkpt>
      <trkpt lat="44.04354" lon="1.86213">
        <ele>241</ele>
        <time>2020-10-04T12:16:03.729Z</time>
      </trkpt>
      <trkpt lat="44.04355" lon="1.86214">
        <ele>241</ele>
        <time>2020-10-04T12:16:04.729Z</time>
      </trkpt>
      <trkpt lat="44.04356" lon="1.86215">
        <ele>241</ele>
        <time>2020-10-04T12:16:05.729Z</time>
      </trkpt>
      <trkpt lat="44.04357" lon="1.86216">
        <ele>241</ele>
        <time>2020-10-04T12:16:06.729Z</time>
      </trkpt>
      <trkpt lat="44.04358" lon="1.86217">
        <ele>241</ele>
        <time>2020-10-04T12:16:07.729Z</time>
      </trkpt>
      <trkpt lat="44.04359" lon="1.86218">
        <ele>241</ele>
        <time>2020-10-04T12:16:08.729Z</time>
      </trkpt>
      <trkpt lat="44.04361" lon="1.86219">
        <ele>240</ele>
        <time>2020-10-04T12:16:09.729Z</time>
      </trkpt>
      <trkpt lat="44.04362" lon="1.8622">
        <ele>240</ele>
        <time>2020-10-04T12:16:10.729Z</time>
      </trkpt>
      <trkpt lat="44.04363" lon="1.86221">
        <ele>240</ele>
        <time>2020-10-04T12:16:11.729Z</time>
      </trkpt>
      <trkpt lat="44.04364" lon="1.86222">
        <ele>240</ele>
        <time>2020-10-04T12:16:12.729Z</time>
      </trkpt>
      <trkpt lat="44.04366" lon="1.86223">
        <ele>240</ele>
        <time>2020-10-04T12:16:13.729Z</time>
      </trkpt>
      <trkpt lat="44.04367" lon="1.86224">
        <ele>240</ele>
        <time>2020-10-04T12:16:14.729Z</time>
      </trkpt>
      <trkpt lat="44.04368" lon="1.86225">
        <ele>240</ele>
        <time>2020-10-04T12:16:15.729Z</time>
      </trkpt>
      <trkpt lat="44.04369" lon="1.86226">
        <ele>240</ele>
        <time>2020-10-04T12:16:16.729Z</time>
      </trkpt>
      <trkpt lat="44.0437" lon="1.86227">
        <ele>240</ele>
        <time>2020-10-04T12:16:17.729Z</time>
      </trkpt>
      <trkpt lat="44.04371" lon="1.86228">
        <ele>240</ele>
        <time>2020-10-04T12:16:18.729Z</time>
      </trkpt>
      <trkpt lat="44.04372" lon="1.86229">
        <ele>240</ele>
        <time>2020-10-04T12:16:19.729Z</time>
      </trkpt>
      <trkpt lat="44.04373" lon="1.8623">
        <ele>240</ele>
        <time>2020-10-04T12:16:20.729Z</time>
      </trkpt>
      <trkpt lat="44.04374" lon="1.86231">
        <ele>240</ele>
        <time>2020-10-04T12:16:21.729Z</time>
      </trkpt>
      <trkpt lat="44.04376" lon="1.86232">
        <ele>240</ele>
        <time>2020-10-04T12:16:22.729Z</time>
      </trkpt>
      <trkpt lat="44.04377" lon="1.86233">
        <ele>240</ele>
        <time>2020-10-04T12:16:23.729Z</time>
      </trkpt>
      <trkpt lat="44.04378" lon="1.86234">
        <ele>240</ele>
        <time>2020-10-04T12:16:24.729Z</time>
      </trkpt>
      <trkpt lat="44.04379" lon="1.86235">
        <ele>239</ele>
        <time>2020-10-04T12:16:25.729Z</time>
      </trkpt>
      <trkpt lat="44.0438" lon="1.86236">
        <ele>239</ele>
        <time>2020-10-04T12:16:26.729Z</time>
      </trkpt>
      <trkpt lat="44.04381" lon="1.86237">
        <ele>239</ele>
        <time>2020-10-04T12:16:27.729Z</time>
      </trkpt>
      <trkpt lat="44.04382" lon="1.86239">
        <ele>239</ele>
        <time>2020-10-04T12:16:28.729Z</time>
      </trkpt>
      <trkpt lat="44.04383" lon="1.8624">
        <ele>239</ele>
        <time>2020-10-04T12:16:29.729Z</time>
      </trkpt>
      <trkpt lat="44.04384" lon="1.86241">
        <ele>239</ele>
        <time>2020-10-04T12:16:30.729Z</time>
      </trkpt>
      <trkpt lat="44.04385" lon="1.86242">
        <ele>239</ele>
        <time>2020-10-04T12:16:31.729Z</time>
      </trkpt>
      <trkpt lat="44.04386" lon="1.86242">
        <ele>239</ele>
        <time>2020-10-04T12:16:32.729Z</time>
      </trkpt>
      <trkpt lat="44.04387" lon="1.86243">
        <ele>239</ele>
        <time>2020-10-04T12:16:33.729Z</time>
      </trkpt>
      <trkpt lat="44.04388" lon="1.86244">
        <ele>239</ele>
        <time>2020-10-04T12:16:34.729Z</time>
      </trkpt>
      <trkpt lat="44.04389" lon="1.86245">
        <ele>239</ele>
        <time>2020-10-04T12:16:35.729Z</time>
      </trkpt>
      <trkpt lat="44.0439" lon="1.86246">
        <ele>239</ele>
        <time>2020-10-04T12:16:36.729Z</time>
      </trkpt>
      <trkpt lat="44.0439" lon="1.86246">
        <ele>239</ele>
        <time>2020-10-04T12:16:37.729Z</time>
      </trkpt>
      <trkpt lat="44.04391" lon="1.86246">
        <ele>239</ele>
        <time>2020-10-04T12:16:38.729Z</time>
      </trkpt>
      <trkpt lat="44.04391" lon="1.86246">
        <ele>239</ele>
        <time>2020-10-04T12:16:39.729Z</time>
      </trkpt>
      <trkpt lat="44.04391" lon="1.86247">
        <ele>239</ele>
        <time>2020-10-04T12:16:40.729Z</time>
      </trkpt>
      <trkpt lat="44.04391" lon="1.86246">
        <ele>239</ele>
        <time>2020-10-04T12:16:41.729Z</time>
      </trkpt>
      <trkpt lat="44.04394" lon="1.86243">
        <ele>238</ele>
        <time>2020-10-04T12:16:42.729Z</time>
      </trkpt>
      <trkpt lat="44.04395" lon="1.86244">
        <ele>238</ele>
        <time>2020-10-04T12:16:43.729Z</time>
      </trkpt>
      <trkpt lat="44.04395" lon="1.86244">
        <ele>238</ele>
        <time>2020-10-04T12:16:44.729Z</time>
      </trkpt>
      <trkpt lat="44.04395" lon="1.86244">
        <ele>238</ele>
        <time>2020-10-04T12:16:45.729Z</time>
      </trkpt>
      <trkpt lat="44.04396" lon="1.86244">
        <ele>238</ele>
        <time>2020-10-04T12:16:46.729Z</time>
      </trkpt>
      <trkpt lat="44.04396" lon="1.86244">
        <ele>238</ele>
        <time>2020-10-04T12:16:47.729Z</time>
      </trkpt>
      <trkpt lat="44.04397" lon="1.86246">
        <ele>238</ele>
        <time>2020-10-04T12:16:48.729Z</time>
      </trkpt>
      <trkpt lat="44.04397" lon="1.86247">
        <ele>238</ele>
        <time>2020-10-04T12:16:49.729Z</time>
      </trkpt>
      <trkpt lat="44.04398" lon="1.86247">
        <ele>237</ele>
        <time>2020-10-04T12:16:50.729Z</time>
      </trkpt>
      <trkpt lat="44.044" lon="1.86246">
        <ele>237</ele>
        <time>2020-10-04T12:16:51.729Z</time>
      </trkpt>
      <trkpt lat="44.04401" lon="1.86246">
        <ele>237</ele>
        <time>2020-10-04T12:16:52.729Z</time>
      </trkpt>
      <trkpt lat="44.04403" lon="1.86246">
        <ele>236</ele>
        <time>2020-10-04T12:16:53.729Z</time>
      </trkpt>
      <trkpt lat="44.04404" lon="1.86246">
        <ele>236</ele>
        <time>2020-10-04T12:16:54.729Z</time>
      </trkpt>
      <trkpt lat="44.04405" lon="1.86246">
        <ele>236</ele>
        <time>2020-10-04T12:16:55.729Z</time>
      </trkpt>
      <trkpt lat="44.04406" lon="1.86246">
        <ele>236</ele>
        <time>2020-10-04T12:16:56.729Z</time>
      </trkpt>
      <trkpt lat="44.04407" lon="1.86247">
        <ele>236</ele>
        <time>2020-10-04T12:16:57.729Z</time>
      </trkpt>
      <trkpt lat="44.04408" lon="1.86247">
        <ele>236</ele>
        <time>2020-10-04T12:16:58.729Z</time>
      </trkpt>
      <trkpt lat="44.0441" lon="1.86248">
        <ele>236</ele>
        <time>2020-10-04T12:16:59.729Z</time>
      </trkpt>
      <trkpt lat="44.04411" lon="1.86248">
        <ele>236</ele>
        <time>2020-10-04T12:17:00.729Z</time>
      </trkpt>
      <trkpt lat="44.04412" lon="1.86249">
        <ele>236</ele>
        <time>2020-10-04T12:17:01.729Z</time>
      </trkpt>
      <trkpt lat="44.04413" lon="1.8625">
        <ele>236</ele>
        <time>2020-10-04T12:17:02.729Z</time>
      </trkpt>
      <trkpt lat="44.04415" lon="1.8625">
        <ele>236</ele>
        <time>2020-10-04T12:17:03.729Z</time>
      </trkpt>
      <trkpt lat="44.04415" lon="1.8625">
        <ele>236</ele>
        <time>2020-10-04T12:17:04.729Z</time>
      </trkpt>
      <trkpt lat="44.04416" lon="1.8625">
        <ele>236</ele>
        <time>2020-10-04T12:17:05.729Z</time>
      </trkpt>
      <trkpt lat="44.04418" lon="1.86251">
        <ele>236</ele>
        <time>2020-10-04T12:17:06.729Z</time>
      </trkpt>
      <trkpt lat="44.04419" lon="1.86251">
        <ele>236</ele>
        <time>2020-10-04T12:17:07.729Z</time>
      </trkpt>
      <trkpt lat="44.0442" lon="1.86252">
        <ele>236</ele>
        <time>2020-10-04T12:17:08.729Z</time>
      </trkpt>
      <trkpt lat="44.04421" lon="1.86252">
        <ele>236</ele>
        <time>2020-10-04T12:17:09.729Z</time>
      </trkpt>
      <trkpt lat="44.04423" lon="1.86253">
        <ele>236</ele>
        <time>2020-10-04T12:17:10.729Z</time>
      </trkpt>
      <trkpt lat="44.04424" lon="1.86253">
        <ele>236</ele>
        <time>2020-10-04T12:17:11.729Z</time>
      </trkpt>
      <trkpt lat="44.04425" lon="1.86254">
        <ele>236</ele>
        <time>2020-10-04T12:17:12.729Z</time>
      </trkpt>
      <trkpt lat="44.04427" lon="1.86255">
        <ele>236</ele>
        <time>2020-10-04T12:17:13.729Z</time>
      </trkpt>
      <trkpt lat="44.04428" lon="1.86255">
        <ele>236</ele>
        <time>2020-10-04T12:17:14.729Z</time>
      </trkpt>
      <trkpt lat="44.04429" lon="1.86256">
        <ele>236</ele>
        <time>2020-10-04T12:17:15.729Z</time>
      </trkpt>
      <trkpt lat="44.0443" lon="1.86256">
        <ele>236</ele>
        <time>2020-10-04T12:17:16.729Z</time>
      </trkpt>
      <trkpt lat="44.04431" lon="1.86257">
        <ele>236</ele>
        <time>2020-10-04T12:17:17.729Z</time>
      </trkpt>
      <trkpt lat="44.04432" lon="1.86258">
        <ele>236</ele>
        <time>2020-10-04T12:17:18.729Z</time>
      </trkpt>
      <trkpt lat="44.04433" lon="1.86258">
        <ele>236</ele>
        <time>2020-10-04T12:17:19.729Z</time>
      </trkpt>
      <trkpt lat="44.04435" lon="1.86259">
        <ele>236</ele>
        <time>2020-10-04T12:17:20.729Z</time>
      </trkpt>
      <trkpt lat="44.04436" lon="1.86259">
        <ele>236</ele>
        <time>2020-10-04T12:17:21.729Z</time>
      </trkpt>
      <trkpt lat="44.04437" lon="1.8626">
        <ele>236</ele>
        <time>2020-10-04T12:17:22.729Z</time>
      </trkpt>
      <trkpt lat="44.04438" lon="1.8626">
        <ele>236</ele>
        <time>2020-10-04T12:17:23.729Z</time>
      </trkpt>
      <trkpt lat="44.04439" lon="1.86261">
        <ele>236</ele>
        <time>2020-10-04T12:17:24.729Z</time>
      </trkpt>
      <trkpt lat="44.0444" lon="1.86261">
        <ele>237</ele>
        <time>2020-10-04T12:17:25.729Z</time>
      </trkpt>
      <trkpt lat="44.04442" lon="1.86262">
        <ele>237</ele>
        <time>2020-10-04T12:17:26.729Z</time>
      </trkpt>
      <trkpt lat="44.04443" lon="1.86262">
        <ele>237</ele>
        <time>2020-10-04T12:17:27.729Z</time>
      </trkpt>
      <trkpt lat="44.04444" lon="1.86262">
        <ele>237</ele>
        <time>2020-10-04T12:17:28.729Z</time>
      </trkpt>
      <trkpt lat="44.04445" lon="1.86262">
        <ele>237</ele>
        <time>2020-10-04T12:17:29.729Z</time>
      </trkpt>
      <trkpt lat="44.04447" lon="1.86263">
        <ele>237</ele>
        <time>2020-10-04T12:17:30.729Z</time>
      </trkpt>
      <trkpt lat="44.04448" lon="1.86263">
        <ele>237</ele>
        <time>2020-10-04T12:17:31.729Z</time>
      </trkpt>
      <trkpt lat="44.04449" lon="1.86264">
        <ele>237</ele>
        <time>2020-10-04T12:17:32.729Z</time>
      </trkpt>
      <trkpt lat="44.0445" lon="1.86265">
        <ele>237</ele>
        <time>2020-10-04T12:17:33.729Z</time>
      </trkpt>
      <trkpt lat="44.04451" lon="1.86266">
        <ele>237</ele>
        <time>2020-10-04T12:17:34.729Z</time>
      </trkpt>
      <trkpt lat="44.04451" lon="1.86267">
        <ele>237</ele>
        <time>2020-10-04T12:17:35.729Z</time>
      </trkpt>
      <trkpt lat="44.04452" lon="1.86269">
        <ele>237</ele>
        <time>2020-10-04T12:17:36.729Z</time>
      </trkpt>
      <trkpt lat="44.04452" lon="1.8627">
        <ele>236</ele>
        <time>2020-10-04T12:17:37.729Z</time>
      </trkpt>
      <trkpt lat="44.04452" lon="1.86272">
        <ele>236</ele>
        <time>2020-10-04T12:17:38.729Z</time>
      </trkpt>
      <trkpt lat="44.04453" lon="1.86273">
        <ele>236</ele>
        <time>2020-10-04T12:17:39.729Z</time>
      </trkpt>
      <trkpt lat="44.04452" lon="1.86274">
        <ele>236</ele>
        <time>2020-10-04T12:17:40.729Z</time>
      </trkpt>
      <trkpt lat="44.04452" lon="1.86275">
        <ele>236</ele>
        <time>2020-10-04T12:17:41.729Z</time>
      </trkpt>
      <trkpt lat="44.04452" lon="1.86275">
        <ele>236</ele>
        <time>2020-10-04T12:17:42.729Z</time>
      </trkpt>
      <trkpt lat="44.04452" lon="1.86275">
        <ele>236</ele>
        <time>2020-10-04T12:17:43.729Z</time>
      </trkpt>
      <trkpt lat="44.04452" lon="1.86276">
        <ele>236</ele>
        <time>2020-10-04T12:17:44.729Z</time>
      </trkpt>
      <trkpt lat="44.04452" lon="1.86277">
        <ele>236</ele>
        <time>2020-10-04T12:17:45.729Z</time>
      </trkpt>
      <trkpt lat="44.04452" lon="1.86278">
        <ele>236</ele>
        <time>2020-10-04T12:17:46.729Z</time>
      </trkpt>
      <trkpt lat="44.04452" lon="1.86278">
        <ele>236</ele>
        <time>2020-10-04T12:17:47.729Z</time>
      </trkpt>
      <trkpt lat="44.04452" lon="1.8628">
        <ele>236</ele>
        <time>2020-10-04T12:17:48.729Z</time>
      </trkpt>
      <trkpt lat="44.04452" lon="1.86281">
        <ele>236</ele>
        <time>2020-10-04T12:17:49.729Z</time>
      </trkpt>
      <trkpt lat="44.04452" lon="1.86282">
        <ele>236</ele>
        <time>2020-10-04T12:17:50.729Z</time>
      </trkpt>
      <trkpt lat="44.04451" lon="1.86284">
        <ele>236</ele>
        <time>2020-10-04T12:17:51.729Z</time>
      </trkpt>
      <trkpt lat="44.04451" lon="1.86285">
        <ele>236</ele>
        <time>2020-10-04T12:17:52.729Z</time>
      </trkpt>
      <trkpt lat="44.0445" lon="1.86286">
        <ele>236</ele>
        <time>2020-10-04T12:17:53.729Z</time>
      </trkpt>
      <trkpt lat="44.0445" lon="1.86287">
        <ele>236</ele>
        <time>2020-10-04T12:17:54.729Z</time>
      </trkpt>
      <trkpt lat="44.0445" lon="1.86288">
        <ele>236</ele>
        <time>2020-10-04T12:17:55.729Z</time>
      </trkpt>
      <trkpt lat="44.0445" lon="1.86289">
        <ele>236</ele>
        <time>2020-10-04T12:17:56.729Z</time>
      </trkpt>
      <trkpt lat="44.0445" lon="1.86291">
        <ele>236</ele>
        <time>2020-10-04T12:17:57.729Z</time>
      </trkpt>
      <trkpt lat="44.04449" lon="1.86292">
        <ele>236</ele>
        <time>2020-10-04T12:17:58.729Z</time>
      </trkpt>
      <trkpt lat="44.04449" lon="1.86293">
        <ele>235</ele>
        <time>2020-10-04T12:17:59.729Z</time>
      </trkpt>
      <trkpt lat="44.04449" lon="1.86295">
        <ele>235</ele>
        <time>2020-10-04T12:18:00.729Z</time>
      </trkpt>
      <trkpt lat="44.04449" lon="1.86296">
        <ele>235</ele>
        <time>2020-10-04T12:18:01.729Z</time>
      </trkpt>
      <trkpt lat="44.04449" lon="1.86298">
        <ele>235</ele>
        <time>2020-10-04T12:18:02.729Z</time>
      </trkpt>
      <trkpt lat="44.04448" lon="1.863">
        <ele>235</ele>
        <time>2020-10-04T12:18:03.729Z</time>
      </trkpt>
      <trkpt lat="44.04448" lon="1.86301">
        <ele>235</ele>
        <time>2020-10-04T12:18:04.729Z</time>
      </trkpt>
      <trkpt lat="44.04448" lon="1.86303">
        <ele>235</ele>
        <time>2020-10-04T12:18:05.729Z</time>
      </trkpt>
      <trkpt lat="44.04447" lon="1.86304">
        <ele>235</ele>
        <time>2020-10-04T12:18:06.729Z</time>
      </trkpt>
      <trkpt lat="44.04447" lon="1.86305">
        <ele>235</ele>
        <time>2020-10-04T12:18:07.729Z</time>
      </trkpt>
      <trkpt lat="44.04446" lon="1.86307">
        <ele>235</ele>
        <time>2020-10-04T12:18:08.729Z</time>
      </trkpt>
      <trkpt lat="44.04446" lon="1.86308">
        <ele>235</ele>
        <time>2020-10-04T12:18:09.729Z</time>
      </trkpt>
      <trkpt lat="44.04445" lon="1.8631">
        <ele>235</ele>
        <time>2020-10-04T12:18:10.729Z</time>
      </trkpt>
      <trkpt lat="44.04445" lon="1.86312">
        <ele>235</ele>
        <time>2020-10-04T12:18:11.729Z</time>
      </trkpt>
      <trkpt lat="44.04444" lon="1.86314">
        <ele>235</ele>
        <time>2020-10-04T12:18:12.729Z</time>
      </trkpt>
      <trkpt lat="44.04444" lon="1.86315">
        <ele>235</ele>
        <time>2020-10-04T12:18:13.729Z</time>
      </trkpt>
      <trkpt lat="44.04443" lon="1.86316">
        <ele>235</ele>
        <time>2020-10-04T12:18:14.729Z</time>
      </trkpt>
      <trkpt lat="44.04442" lon="1.86318">
        <ele>234</ele>
        <time>2020-10-04T12:18:15.729Z</time>
      </trkpt>
      <trkpt lat="44.04441" lon="1.86319">
        <ele>234</ele>
        <time>2020-10-04T12:18:16.729Z</time>
      </trkpt>
      <trkpt lat="44.0444" lon="1.86321">
        <ele>234</ele>
        <time>2020-10-04T12:18:17.729Z</time>
      </trkpt>
      <trkpt lat="44.0444" lon="1.86322">
        <ele>234</ele>
        <time>2020-10-04T12:18:18.729Z</time>
      </trkpt>
      <trkpt lat="44.04439" lon="1.86324">
        <ele>234</ele>
        <time>2020-10-04T12:18:19.729Z</time>
      </trkpt>
      <trkpt lat="44.04438" lon="1.86325">
        <ele>234</ele>
        <time>2020-10-04T12:18:20.729Z</time>
      </trkpt>
      <trkpt lat="44.04437" lon="1.86326">
        <ele>234</ele>
        <time>2020-10-04T12:18:21.729Z</time>
      </trkpt>
      <trkpt lat="44.04436" lon="1.86327">
        <ele>234</ele>
        <time>2020-10-04T12:18:22.729Z</time>
      </trkpt>
      <trkpt lat="44.04435" lon="1.86328">
        <ele>234</ele>
        <time>2020-10-04T12:18:23.729Z</time>
      </trkpt>
      <trkpt lat="44.04435" lon="1.8633">
        <ele>234</ele>
        <time>2020-10-04T12:18:24.729Z</time>
      </trkpt>
      <trkpt lat="44.04434" lon="1.86331">
        <ele>234</ele>
        <time>2020-10-04T12:18:25.729Z</time>
      </trkpt>
      <trkpt lat="44.04434" lon="1.86332">
        <ele>234</ele>
        <time>2020-10-04T12:18:26.729Z</time>
      </trkpt>
      <trkpt lat="44.04433" lon="1.86334">
        <ele>234</ele>
        <time>2020-10-04T12:18:27.729Z</time>
      </trkpt>
      <trkpt lat="44.04433" lon="1.86336">
        <ele>234</ele>
        <time>2020-10-04T12:18:28.729Z</time>
      </trkpt>
      <trkpt lat="44.04432" lon="1.86337">
        <ele>234</ele>
        <time>2020-10-04T12:18:29.729Z</time>
      </trkpt>
      <trkpt lat="44.04431" lon="1.86339">
        <ele>234</ele>
        <time>2020-10-04T12:18:30.729Z</time>
      </trkpt>
      <trkpt lat="44.04431" lon="1.86341">
        <ele>234</ele>
        <time>2020-10-04T12:18:31.729Z</time>
      </trkpt>
      <trkpt lat="44.0443" lon="1.86342">
        <ele>234</ele>
        <time>2020-10-04T12:18:32.729Z</time>
      </trkpt>
      <trkpt lat="44.04429" lon="1.86344">
        <ele>234</ele>
        <time>2020-10-04T12:18:33.729Z</time>
      </trkpt>
      <trkpt lat="44.04429" lon="1.86346">
        <ele>233</ele>
        <time>2020-10-04T12:18:34.729Z</time>
      </trkpt>
      <trkpt lat="44.04429" lon="1.86348">
        <ele>234</ele>
        <time>2020-10-04T12:18:35.729Z</time>
      </trkpt>
      <trkpt lat="44.04429" lon="1.8635">
        <ele>233</ele>
        <time>2020-10-04T12:18:36.729Z</time>
      </trkpt>
      <trkpt lat="44.04429" lon="1.86352">
        <ele>233</ele>
        <time>2020-10-04T12:18:37.729Z</time>
      </trkpt>
      <trkpt lat="44.04429" lon="1.86354">
        <ele>234</ele>
        <time>2020-10-04T12:18:38.729Z</time>
      </trkpt>
      <trkpt lat="44.04429" lon="1.86356">
        <ele>234</ele>
        <time>2020-10-04T12:18:39.729Z</time>
      </trkpt>
      <trkpt lat="44.0443" lon="1.86358">
        <ele>234</ele>
        <time>2020-10-04T12:18:40.729Z</time>
      </trkpt>
      <trkpt lat="44.0443" lon="1.8636">
        <ele>234</ele>
        <time>2020-10-04T12:18:41.729Z</time>
      </trkpt>
      <trkpt lat="44.0443" lon="1.86362">
        <ele>234</ele>
        <time>2020-10-04T12:18:42.729Z</time>
      </trkpt>
      <trkpt lat="44.0443" lon="1.86363">
        <ele>234</ele>
        <time>2020-10-04T12:18:43.729Z</time>
      </trkpt>
      <trkpt lat="44.04431" lon="1.86365">
        <ele>234</ele>
        <time>2020-10-04T12:18:44.729Z</time>
      </trkpt>
      <trkpt lat="44.04432" lon="1.86367">
        <ele>234</ele>
        <time>2020-10-04T12:18:45.729Z</time>
      </trkpt>
      <trkpt lat="44.04432" lon="1.86369">
        <ele>234</ele>
        <time>2020-10-04T12:18:46.729Z</time>
      </trkpt>
      <trkpt lat="44.04432" lon="1.8637">
        <ele>235</ele>
        <time>2020-10-04T12:18:47.729Z</time>
      </trkpt>
      <trkpt lat="44.04432" lon="1.86372">
        <ele>235</ele>
        <time>2020-10-04T12:18:48.729Z</time>
      </trkpt>
      <trkpt lat="44.04432" lon="1.86374">
        <ele>235</ele>
        <time>2020-10-04T12:18:49.729Z</time>
      </trkpt>
      <trkpt lat="44.04433" lon="1.86375">
        <ele>235</ele>
        <time>2020-10-04T12:18:50.729Z</time>
      </trkpt>
      <trkpt lat="44.04433" lon="1.86377">
        <ele>235</ele>
        <time>2020-10-04T12:18:51.729Z</time>
      </trkpt>
      <trkpt lat="44.04433" lon="1.86378">
        <ele>235</ele>
        <time>2020-10-04T12:18:52.729Z</time>
      </trkpt>
      <trkpt lat="44.04433" lon="1.8638">
        <ele>235</ele>
        <time>2020-10-04T12:18:53.729Z</time>
      </trkpt>
      <trkpt lat="44.04432" lon="1.86381">
        <ele>235</ele>
        <time>2020-10-04T12:18:54.729Z</time>
      </trkpt>
      <trkpt lat="44.04432" lon="1.86383">
        <ele>235</ele>
        <time>2020-10-04T12:18:55.729Z</time>
      </trkpt>
      <trkpt lat="44.04432" lon="1.86384">
        <ele>235</ele>
        <time>2020-10-04T12:18:56.729Z</time>
      </trkpt>
      <trkpt lat="44.04431" lon="1.86385">
        <ele>235</ele>
        <time>2020-10-04T12:18:57.729Z</time>
      </trkpt>
      <trkpt lat="44.04431" lon="1.86387">
        <ele>235</ele>
        <time>2020-10-04T12:18:58.729Z</time>
      </trkpt>
      <trkpt lat="44.0443" lon="1.86388">
        <ele>235</ele>
        <time>2020-10-04T12:18:59.729Z</time>
      </trkpt>
      <trkpt lat="44.0443" lon="1.86389">
        <ele>235</ele>
        <time>2020-10-04T12:19:00.729Z</time>
      </trkpt>
      <trkpt lat="44.0443" lon="1.8639">
        <ele>235</ele>
        <time>2020-10-04T12:19:01.729Z</time>
      </trkpt>
      <trkpt lat="44.04429" lon="1.86392">
        <ele>235</ele>
        <time>2020-10-04T12:19:02.729Z</time>
      </trkpt>
      <trkpt lat="44.04429" lon="1.86393">
        <ele>235</ele>
        <time>2020-10-04T12:19:03.729Z</time>
      </trkpt>
      <trkpt lat="44.04428" lon="1.86395">
        <ele>235</ele>
        <time>2020-10-04T12:19:04.729Z</time>
      </trkpt>
      <trkpt lat="44.04427" lon="1.86396">
        <ele>235</ele>
        <time>2020-10-04T12:19:05.729Z</time>
      </trkpt>
      <trkpt lat="44.04427" lon="1.86397">
        <ele>235</ele>
        <time>2020-10-04T12:19:06.729Z</time>
      </trkpt>
      <trkpt lat="44.04426" lon="1.86398">
        <ele>235</ele>
        <time>2020-10-04T12:19:07.729Z</time>
      </trkpt>
      <trkpt lat="44.04426" lon="1.864">
        <ele>235</ele>
        <time>2020-10-04T12:19:08.729Z</time>
      </trkpt>
      <trkpt lat="44.04425" lon="1.86401">
        <ele>235</ele>
        <time>2020-10-04T12:19:09.729Z</time>
      </trkpt>
      <trkpt lat="44.04425" lon="1.86402">
        <ele>235</ele>
        <time>2020-10-04T12:19:10.729Z</time>
      </trkpt>
      <trkpt lat="44.04425" lon="1.86403">
        <ele>236</ele>
        <time>2020-10-04T12:19:11.729Z</time>
      </trkpt>
      <trkpt lat="44.04424" lon="1.86404">
        <ele>236</ele>
        <time>2020-10-04T12:19:12.729Z</time>
      </trkpt>
      <trkpt lat="44.04424" lon="1.86406">
        <ele>236</ele>
        <time>2020-10-04T12:19:13.729Z</time>
      </trkpt>
      <trkpt lat="44.04424" lon="1.86407">
        <ele>236</ele>
        <time>2020-10-04T12:19:14.729Z</time>
      </trkpt>
      <trkpt lat="44.04423" lon="1.86408">
        <ele>236</ele>
        <time>2020-10-04T12:19:15.729Z</time>
      </trkpt>
      <trkpt lat="44.04423" lon="1.8641">
        <ele>236</ele>
        <time>2020-10-04T12:19:16.729Z</time>
      </trkpt>
      <trkpt lat="44.04422" lon="1.86411">
        <ele>236</ele>
        <time>2020-10-04T12:19:17.729Z</time>
      </trkpt>
      <trkpt lat="44.04422" lon="1.86411">
        <ele>236</ele>
        <time>2020-10-04T12:19:18.729Z</time>
      </trkpt>
      <trkpt lat="44.04422" lon="1.86412">
        <ele>236</ele>
        <time>2020-10-04T12:19:19.729Z</time>
      </trkpt>
      <trkpt lat="44.04422" lon="1.86414">
        <ele>236</ele>
        <time>2020-10-04T12:19:20.729Z</time>
      </trkpt>
      <trkpt lat="44.04422" lon="1.86415">
        <ele>236</ele>
        <time>2020-10-04T12:19:21.729Z</time>
      </trkpt>
      <trkpt lat="44.04422" lon="1.86415">
        <ele>237</ele>
        <time>2020-10-04T12:19:22.729Z</time>
      </trkpt>
      <trkpt lat="44.04422" lon="1.86416">
        <ele>237</ele>
        <time>2020-10-04T12:19:23.729Z</time>
      </trkpt>
      <trkpt lat="44.04423" lon="1.86417">
        <ele>237</ele>
        <time>2020-10-04T12:19:24.729Z</time>
      </trkpt>
      <trkpt lat="44.04423" lon="1.86418">
        <ele>238</ele>
        <time>2020-10-04T12:19:25.729Z</time>
      </trkpt>
      <trkpt lat="44.04424" lon="1.86419">
        <ele>238</ele>
        <time>2020-10-04T12:19:26.729Z</time>
      </trkpt>
      <trkpt lat="44.04424" lon="1.8642">
        <ele>238</ele>
        <time>2020-10-04T12:19:27.729Z</time>
      </trkpt>
      <trkpt lat="44.04425" lon="1.8642">
        <ele>238</ele>
        <time>2020-10-04T12:19:28.729Z</time>
      </trkpt>
      <trkpt lat="44.04426" lon="1.86421">
        <ele>239</ele>
        <time>2020-10-04T12:19:29.729Z</time>
      </trkpt>
      <trkpt lat="44.04426" lon="1.86422">
        <ele>239</ele>
        <time>2020-10-04T12:19:30.729Z</time>
      </trkpt>
      <trkpt lat="44.04427" lon="1.86422">
        <ele>239</ele>
        <time>2020-10-04T12:19:31.729Z</time>
      </trkpt>
      <trkpt lat="44.04428" lon="1.86422">
        <ele>239</ele>
        <time>2020-10-04T12:19:32.729Z</time>
      </trkpt>
      <trkpt lat="44.04429" lon="1.86423">
        <ele>239</ele>
        <time>2020-10-04T12:19:33.729Z</time>
      </trkpt>
      <trkpt lat="44.0443" lon="1.86423">
        <ele>240</ele>
        <time>2020-10-04T12:19:34.729Z</time>
      </trkpt>
      <trkpt lat="44.04431" lon="1.86424">
        <ele>240</ele>
        <time>2020-10-04T12:19:35.729Z</time>
      </trkpt>
      <trkpt lat="44.04431" lon="1.86424">
        <ele>240</ele>
        <time>2020-10-04T12:19:36.729Z</time>
      </trkpt>
      <trkpt lat="44.04432" lon="1.86425">
        <ele>240</ele>
        <time>2020-10-04T12:19:37.729Z</time>
      </trkpt>
      <trkpt lat="44.04433" lon="1.86426">
        <ele>241</ele>
        <time>2020-10-04T12:19:38.729Z</time>
      </trkpt>
      <trkpt lat="44.04434" lon="1.86427">
        <ele>241</ele>
        <time>2020-10-04T12:19:39.729Z</time>
      </trkpt>
      <trkpt lat="44.04435" lon="1.86427">
        <ele>241</ele>
        <time>2020-10-04T12:19:40.729Z</time>
      </trkpt>
      <trkpt lat="44.04436" lon="1.86428">
        <ele>241</ele>
        <time>2020-10-04T12:19:41.729Z</time>
      </trkpt>
      <trkpt lat="44.04437" lon="1.86429">
        <ele>241</ele>
        <time>2020-10-04T12:19:42.729Z</time>
      </trkpt>
      <trkpt lat="44.04438" lon="1.86429">
        <ele>242</ele>
        <time>2020-10-04T12:19:43.729Z</time>
      </trkpt>
      <trkpt lat="44.04438" lon="1.8643">
        <ele>242</ele>
        <time>2020-10-04T12:19:44.729Z</time>
      </trkpt>
      <trkpt lat="44.04439" lon="1.86431">
        <ele>242</ele>
        <time>2020-10-04T12:19:45.729Z</time>
      </trkpt>
      <trkpt lat="44.0444" lon="1.86432">
        <ele>242</ele>
        <time>2020-10-04T12:19:46.729Z</time>
      </trkpt>
      <trkpt lat="44.04441" lon="1.86433">
        <ele>243</ele>
        <time>2020-10-04T12:19:47.729Z</time>
      </trkpt>
      <trkpt lat="44.04442" lon="1.86434">
        <ele>243</ele>
        <time>2020-10-04T12:19:48.729Z</time>
      </trkpt>
      <trkpt lat="44.04443" lon="1.86435">
        <ele>243</ele>
        <time>2020-10-04T12:19:49.729Z</time>
      </trkpt>
      <trkpt lat="44.04444" lon="1.86435">
        <ele>243</ele>
        <time>2020-10-04T12:19:50.729Z</time>
      </trkpt>
      <trkpt lat="44.04445" lon="1.86436">
        <ele>243</ele>
        <time>2020-10-04T12:19:51.729Z</time>
      </trkpt>
      <trkpt lat="44.04446" lon="1.86437">
        <ele>244</ele>
        <time>2020-10-04T12:19:52.729Z</time>
      </trkpt>
      <trkpt lat="44.04447" lon="1.86437">
        <ele>244</ele>
        <time>2020-10-04T12:19:53.729Z</time>
      </trkpt>
      <trkpt lat="44.04448" lon="1.86438">
        <ele>244</ele>
        <time>2020-10-04T12:19:54.729Z</time>
      </trkpt>
      <trkpt lat="44.04449" lon="1.86438">
        <ele>244</ele>
        <time>2020-10-04T12:19:55.729Z</time>
      </trkpt>
      <trkpt lat="44.0445" lon="1.86439">
        <ele>244</ele>
        <time>2020-10-04T12:19:56.729Z</time>
      </trkpt>
      <trkpt lat="44.0445" lon="1.86439">
        <ele>245</ele>
        <time>2020-10-04T12:19:57.729Z</time>
      </trkpt>
      <trkpt lat="44.04451" lon="1.8644">
        <ele>245</ele>
        <time>2020-10-04T12:19:58.729Z</time>
      </trkpt>
      <trkpt lat="44.04452" lon="1.8644">
        <ele>245</ele>
        <time>2020-10-04T12:19:59.729Z</time>
      </trkpt>
      <trkpt lat="44.04452" lon="1.8644">
        <ele>245</ele>
        <time>2020-10-04T12:20:00.729Z</time>
      </trkpt>
      <trkpt lat="44.04453" lon="1.86441">
        <ele>246</ele>
        <time>2020-10-04T12:20:01.729Z</time>
      </trkpt>
      <trkpt lat="44.04453" lon="1.86441">
        <ele>246</ele>
        <time>2020-10-04T12:20:02.729Z</time>
      </trkpt>
      <trkpt lat="44.04454" lon="1.86441">
        <ele>246</ele>
        <time>2020-10-04T12:20:03.729Z</time>
      </trkpt>
      <trkpt lat="44.04455" lon="1.86441">
        <ele>246</ele>
        <time>2020-10-04T12:20:04.729Z</time>
      </trkpt>
      <trkpt lat="44.04455" lon="1.86442">
        <ele>247</ele>
        <time>2020-10-04T12:20:05.729Z</time>
      </trkpt>
      <trkpt lat="44.04456" lon="1.86442">
        <ele>247</ele>
        <time>2020-10-04T12:20:06.729Z</time>
      </trkpt>
      <trkpt lat="44.04457" lon="1.86442">
        <ele>247</ele>
        <time>2020-10-04T12:20:07.729Z</time>
      </trkpt>
      <trkpt lat="44.04457" lon="1.86443">
        <ele>247</ele>
        <time>2020-10-04T12:20:08.729Z</time>
      </trkpt>
      <trkpt lat="44.04458" lon="1.86443">
        <ele>247</ele>
        <time>2020-10-04T12:20:09.729Z</time>
      </trkpt>
      <trkpt lat="44.04459" lon="1.86444">
        <ele>247</ele>
        <time>2020-10-04T12:20:10.729Z</time>
      </trkpt>
      <trkpt lat="44.0446" lon="1.86444">
        <ele>248</ele>
        <time>2020-10-04T12:20:11.729Z</time>
      </trkpt>
      <trkpt lat="44.0446" lon="1.86444">
        <ele>248</ele>
        <time>2020-10-04T12:20:12.729Z</time>
      </trkpt>
      <trkpt lat="44.04461" lon="1.86445">
        <ele>248</ele>
        <time>2020-10-04T12:20:13.729Z</time>
      </trkpt>
      <trkpt lat="44.04462" lon="1.86445">
        <ele>248</ele>
        <time>2020-10-04T12:20:14.729Z</time>
      </trkpt>
      <trkpt lat="44.04463" lon="1.86446">
        <ele>248</ele>
        <time>2020-10-04T12:20:15.729Z</time>
      </trkpt>
      <trkpt lat="44.04463" lon="1.86446">
        <ele>248</ele>
        <time>2020-10-04T12:20:16.729Z</time>
      </trkpt>
      <trkpt lat="44.04464" lon="1.86447">
        <ele>248</ele>
        <time>2020-10-04T12:20:17.729Z</time>
      </trkpt>
      <trkpt lat="44.04465" lon="1.86447">
        <ele>248</ele>
        <time>2020-10-04T12:20:18.729Z</time>
      </trkpt>
      <trkpt lat="44.04466" lon="1.86448">
        <ele>249</ele>
        <time>2020-10-04T12:20:19.729Z</time>
      </trkpt>
      <trkpt lat="44.04467" lon="1.86448">
        <ele>249</ele>
        <time>2020-10-04T12:20:20.729Z</time>
      </trkpt>
      <trkpt lat="44.04467" lon="1.86449">
        <ele>249</ele>
        <time>2020-10-04T12:20:21.729Z</time>
      </trkpt>
      <trkpt lat="44.04468" lon="1.8645">
        <ele>249</ele>
        <time>2020-10-04T12:20:22.729Z</time>
      </trkpt>
      <trkpt lat="44.04469" lon="1.8645">
        <ele>249</ele>
        <time>2020-10-04T12:20:23.729Z</time>
      </trkpt>
      <trkpt lat="44.0447" lon="1.86451">
        <ele>249</ele>
        <time>2020-10-04T12:20:24.729Z</time>
      </trkpt>
      <trkpt lat="44.0447" lon="1.86452">
        <ele>249</ele>
        <time>2020-10-04T12:20:25.729Z</time>
      </trkpt>
      <trkpt lat="44.04471" lon="1.86453">
        <ele>249</ele>
        <time>2020-10-04T12:20:26.729Z</time>
      </trkpt>
      <trkpt lat="44.04472" lon="1.86454">
        <ele>249</ele>
        <time>2020-10-04T12:20:27.729Z</time>
      </trkpt>
      <trkpt lat="44.04473" lon="1.86455">
        <ele>249</ele>
        <time>2020-10-04T12:20:28.729Z</time>
      </trkpt>
      <trkpt lat="44.04474" lon="1.86456">
        <ele>249</ele>
        <time>2020-10-04T12:20:29.729Z</time>
      </trkpt>
      <trkpt lat="44.04475" lon="1.86457">
        <ele>249</ele>
        <time>2020-10-04T12:20:30.729Z</time>
      </trkpt>
      <trkpt lat="44.04476" lon="1.86458">
        <ele>249</ele>
        <time>2020-10-04T12:20:31.729Z</time>
      </trkpt>
      <trkpt lat="44.04477" lon="1.86459">
        <ele>249</ele>
        <time>2020-10-04T12:20:32.729Z</time>
      </trkpt>
      <trkpt lat="44.04478" lon="1.8646">
        <ele>249</ele>
        <time>2020-10-04T12:20:33.729Z</time>
      </trkpt>
      <trkpt lat="44.04479" lon="1.86461">
        <ele>249</ele>
        <time>2020-10-04T12:20:34.729Z</time>
      </trkpt>
      <trkpt lat="44.0448" lon="1.86462">
        <ele>249</ele>
        <time>2020-10-04T12:20:35.729Z</time>
      </trkpt>
      <trkpt lat="44.0448" lon="1.86463">
        <ele>249</ele>
        <time>2020-10-04T12:20:36.729Z</time>
      </trkpt>
      <trkpt lat="44.04481" lon="1.86464">
        <ele>250</ele>
        <time>2020-10-04T12:20:37.729Z</time>
      </trkpt>
      <trkpt lat="44.04482" lon="1.86465">
        <ele>250</ele>
        <time>2020-10-04T12:20:38.729Z</time>
      </trkpt>
      <trkpt lat="44.04483" lon="1.86466">
        <ele>250</ele>
        <time>2020-10-04T12:20:39.729Z</time>
      </trkpt>
      <trkpt lat="44.04484" lon="1.86467">
        <ele>250</ele>
        <time>2020-10-04T12:20:40.729Z</time>
      </trkpt>
      <trkpt lat="44.04485" lon="1.86467">
        <ele>250</ele>
        <time>2020-10-04T12:20:41.729Z</time>
      </trkpt>
      <trkpt lat="44.04486" lon="1.86468">
        <ele>250</ele>
        <time>2020-10-04T12:20:42.729Z</time>
      </trkpt>
      <trkpt lat="44.04487" lon="1.86469">
        <ele>250</ele>
        <time>2020-10-04T12:20:43.729Z</time>
      </trkpt>
      <trkpt lat="44.04488" lon="1.8647">
        <ele>250</ele>
        <time>2020-10-04T12:20:44.729Z</time>
      </trkpt>
      <trkpt lat="44.04489" lon="1.8647">
        <ele>250</ele>
        <time>2020-10-04T12:20:45.729Z</time>
      </trkpt>
      <trkpt lat="44.0449" lon="1.86471">
        <ele>251</ele>
        <time>2020-10-04T12:20:46.729Z</time>
      </trkpt>
      <trkpt lat="44.0449" lon="1.86472">
        <ele>251</ele>
        <time>2020-10-04T12:20:47.729Z</time>
      </trkpt>
      <trkpt lat="44.04491" lon="1.86473">
        <ele>251</ele>
        <time>2020-10-04T12:20:48.729Z</time>
      </trkpt>
      <trkpt lat="44.04492" lon="1.86474">
        <ele>251</ele>
        <time>2020-10-04T12:20:49.729Z</time>
      </trkpt>
      <trkpt lat="44.04493" lon="1.86475">
        <ele>251</ele>
        <time>2020-10-04T12:20:50.729Z</time>
      </trkpt>
      <trkpt lat="44.04493" lon="1.86476">
        <ele>251</ele>
        <time>2020-10-04T12:20:51.729Z</time>
      </trkpt>
      <trkpt lat="44.04494" lon="1.86476">
        <ele>252</ele>
        <time>2020-10-04T12:20:52.729Z</time>
      </trkpt>
      <trkpt lat="44.04494" lon="1.86477">
        <ele>252</ele>
        <time>2020-10-04T12:20:53.729Z</time>
      </trkpt>
      <trkpt lat="44.04495" lon="1.86478">
        <ele>252</ele>
        <time>2020-10-04T12:20:54.729Z</time>
      </trkpt>
      <trkpt lat="44.04496" lon="1.86479">
        <ele>252</ele>
        <time>2020-10-04T12:20:55.729Z</time>
      </trkpt>
      <trkpt lat="44.04497" lon="1.8648">
        <ele>252</ele>
        <time>2020-10-04T12:20:56.729Z</time>
      </trkpt>
      <trkpt lat="44.04498" lon="1.86481">
        <ele>253</ele>
        <time>2020-10-04T12:20:57.729Z</time>
      </trkpt>
      <trkpt lat="44.04498" lon="1.86482">
        <ele>253</ele>
        <time>2020-10-04T12:20:58.729Z</time>
      </trkpt>
      <trkpt lat="44.04499" lon="1.86483">
        <ele>253</ele>
        <time>2020-10-04T12:20:59.729Z</time>
      </trkpt>
      <trkpt lat="44.045" lon="1.86484">
        <ele>253</ele>
        <time>2020-10-04T12:21:00.729Z</time>
      </trkpt>
      <trkpt lat="44.04501" lon="1.86484">
        <ele>253</ele>
        <time>2020-10-04T12:21:01.729Z</time>
      </trkpt>
      <trkpt lat="44.04501" lon="1.86485">
        <ele>253</ele>
        <time>2020-10-04T12:21:02.729Z</time>
      </trkpt>
      <trkpt lat="44.04502" lon="1.86486">
        <ele>253</ele>
        <time>2020-10-04T12:21:03.729Z</time>
      </trkpt>
      <trkpt lat="44.04503" lon="1.86488">
        <ele>253</ele>
        <time>2020-10-04T12:21:04.729Z</time>
      </trkpt>
      <trkpt lat="44.04503" lon="1.86489">
        <ele>253</ele>
        <time>2020-10-04T12:21:05.729Z</time>
      </trkpt>
      <trkpt lat="44.04504" lon="1.8649">
        <ele>253</ele>
        <time>2020-10-04T12:21:06.729Z</time>
      </trkpt>
      <trkpt lat="44.04504" lon="1.86491">
        <ele>253</ele>
        <time>2020-10-04T12:21:07.729Z</time>
      </trkpt>
      <trkpt lat="44.04505" lon="1.86492">
        <ele>253</ele>
        <time>2020-10-04T12:21:08.729Z</time>
      </trkpt>
      <trkpt lat="44.04506" lon="1.86493">
        <ele>253</ele>
        <time>2020-10-04T12:21:09.729Z</time>
      </trkpt>
      <trkpt lat="44.04506" lon="1.86494">
        <ele>253</ele>
        <time>2020-10-04T12:21:10.729Z</time>
      </trkpt>
      <trkpt lat="44.04507" lon="1.86496">
        <ele>253</ele>
        <time>2020-10-04T12:21:11.729Z</time>
      </trkpt>
      <trkpt lat="44.04507" lon="1.86497">
        <ele>253</ele>
        <time>2020-10-04T12:21:12.729Z</time>
      </trkpt>
      <trkpt lat="44.04508" lon="1.86498">
        <ele>253</ele>
        <time>2020-10-04T12:21:13.729Z</time>
      </trkpt>
      <trkpt lat="44.04508" lon="1.865">
        <ele>253</ele>
        <time>2020-10-04T12:21:14.729Z</time>
      </trkpt>
      <trkpt lat="44.04508" lon="1.86501">
        <ele>253</ele>
        <time>2020-10-04T12:21:15.729Z</time>
      </trkpt>
      <trkpt lat="44.04508" lon="1.86503">
        <ele>253</ele>
        <time>2020-10-04T12:21:16.729Z</time>
      </trkpt>
      <trkpt lat="44.04509" lon="1.86504">
        <ele>253</ele>
        <time>2020-10-04T12:21:17.729Z</time>
      </trkpt>
      <trkpt lat="44.04509" lon="1.86505">
        <ele>253</ele>
        <time>2020-10-04T12:21:18.729Z</time>
      </trkpt>
      <trkpt lat="44.04509" lon="1.86506">
        <ele>253</ele>
        <time>2020-10-04T12:21:19.729Z</time>
      </trkpt>
      <trkpt lat="44.0451" lon="1.86507">
        <ele>253</ele>
        <time>2020-10-04T12:21:20.729Z</time>
      </trkpt>
      <trkpt lat="44.0451" lon="1.86508">
        <ele>253</ele>
        <time>2020-10-04T12:21:21.729Z</time>
      </trkpt>
      <trkpt lat="44.0451" lon="1.8651">
        <ele>252</ele>
        <time>2020-10-04T12:21:22.729Z</time>
      </trkpt>
      <trkpt lat="44.04511" lon="1.86511">
        <ele>252</ele>
        <time>2020-10-04T12:21:23.729Z</time>
      </trkpt>
      <trkpt lat="44.04511" lon="1.86513">
        <ele>252</ele>
        <time>2020-10-04T12:21:24.729Z</time>
      </trkpt>
      <trkpt lat="44.04511" lon="1.86514">
        <ele>252</ele>
        <time>2020-10-04T12:21:25.729Z</time>
      </trkpt>
      <trkpt lat="44.04512" lon="1.86515">
        <ele>253</ele>
        <time>2020-10-04T12:21:26.729Z</time>
      </trkpt>
      <trkpt lat="44.04512" lon="1.86516">
        <ele>253</ele>
        <time>2020-10-04T12:21:27.729Z</time>
      </trkpt>
      <trkpt lat="44.04512" lon="1.86517">
        <ele>253</ele>
        <time>2020-10-04T12:21:28.729Z</time>
      </trkpt>
      <trkpt lat="44.04512" lon="1.86519">
        <ele>253</ele>
        <time>2020-10-04T12:21:29.729Z</time>
      </trkpt>
      <trkpt lat="44.04512" lon="1.8652">
        <ele>253</ele>
        <time>2020-10-04T12:21:30.729Z</time>
      </trkpt>
      <trkpt lat="44.04512" lon="1.86522">
        <ele>253</ele>
        <time>2020-10-04T12:21:31.729Z</time>
      </trkpt>
      <trkpt lat="44.04512" lon="1.86523">
        <ele>254</ele>
        <time>2020-10-04T12:21:32.729Z</time>
      </trkpt>
      <trkpt lat="44.04512" lon="1.86524">
        <ele>254</ele>
        <time>2020-10-04T12:21:33.729Z</time>
      </trkpt>
      <trkpt lat="44.04512" lon="1.86526">
        <ele>254</ele>
        <time>2020-10-04T12:21:34.729Z</time>
      </trkpt>
      <trkpt lat="44.04512" lon="1.86527">
        <ele>254</ele>
        <time>2020-10-04T12:21:35.729Z</time>
      </trkpt>
      <trkpt lat="44.04513" lon="1.86528">
        <ele>254</ele>
        <time>2020-10-04T12:21:36.729Z</time>
      </trkpt>
      <trkpt lat="44.04513" lon="1.86529">
        <ele>254</ele>
        <time>2020-10-04T12:21:37.729Z</time>
      </trkpt>
      <trkpt lat="44.04513" lon="1.8653">
        <ele>254</ele>
        <time>2020-10-04T12:21:38.729Z</time>
      </trkpt>
      <trkpt lat="44.04513" lon="1.86531">
        <ele>254</ele>
        <time>2020-10-04T12:21:39.729Z</time>
      </trkpt>
      <trkpt lat="44.04514" lon="1.86533">
        <ele>255</ele>
        <time>2020-10-04T12:21:40.729Z</time>
      </trkpt>
      <trkpt lat="44.04514" lon="1.86534">
        <ele>255</ele>
        <time>2020-10-04T12:21:41.729Z</time>
      </trkpt>
      <trkpt lat="44.04514" lon="1.86535">
        <ele>255</ele>
        <time>2020-10-04T12:21:42.729Z</time>
      </trkpt>
      <trkpt lat="44.04514" lon="1.86536">
        <ele>255</ele>
        <time>2020-10-04T12:21:43.729Z</time>
      </trkpt>
      <trkpt lat="44.04514" lon="1.86537">
        <ele>255</ele>
        <time>2020-10-04T12:21:44.729Z</time>
      </trkpt>
      <trkpt lat="44.04515" lon="1.86538">
        <ele>256</ele>
        <time>2020-10-04T12:21:45.729Z</time>
      </trkpt>
      <trkpt lat="44.04515" lon="1.86539">
        <ele>256</ele>
        <time>2020-10-04T12:21:46.729Z</time>
      </trkpt>
      <trkpt lat="44.04516" lon="1.8654">
        <ele>256</ele>
        <time>2020-10-04T12:21:47.729Z</time>
      </trkpt>
      <trkpt lat="44.04516" lon="1.86541">
        <ele>256</ele>
        <time>2020-10-04T12:21:48.729Z</time>
      </trkpt>
      <trkpt lat="44.04517" lon="1.86542">
        <ele>256</ele>
        <time>2020-10-04T12:21:49.729Z</time>
      </trkpt>
      <trkpt lat="44.04518" lon="1.86542">
        <ele>256</ele>
        <time>2020-10-04T12:21:50.729Z</time>
      </trkpt>
      <trkpt lat="44.04518" lon="1.86543">
        <ele>257</ele>
        <time>2020-10-04T12:21:51.729Z</time>
      </trkpt>
      <trkpt lat="44.04519" lon="1.86544">
        <ele>257</ele>
        <time>2020-10-04T12:21:52.729Z</time>
      </trkpt>
      <trkpt lat="44.04519" lon="1.86544">
        <ele>257</ele>
        <time>2020-10-04T12:21:53.729Z</time>
      </trkpt>
      <trkpt lat="44.0452" lon="1.86545">
        <ele>257</ele>
        <time>2020-10-04T12:21:54.729Z</time>
      </trkpt>
      <trkpt lat="44.0452" lon="1.86545">
        <ele>257</ele>
        <time>2020-10-04T12:21:55.729Z</time>
      </trkpt>
      <trkpt lat="44.0452" lon="1.86545">
        <ele>257</ele>
        <time>2020-10-04T12:21:56.729Z</time>
      </trkpt>
      <trkpt lat="44.04522" lon="1.86546">
        <ele>258</ele>
        <time>2020-10-04T12:21:57.729Z</time>
      </trkpt>
      <trkpt lat="44.04522" lon="1.86546">
        <ele>258</ele>
        <time>2020-10-04T12:21:58.729Z</time>
      </trkpt>
      <trkpt lat="44.04523" lon="1.86549">
        <ele>258</ele>
        <time>2020-10-04T12:21:59.729Z</time>
      </trkpt>
      <trkpt lat="44.04524" lon="1.86549">
        <ele>258</ele>
        <time>2020-10-04T12:22:00.729Z</time>
      </trkpt>
      <trkpt lat="44.04525" lon="1.8655">
        <ele>258</ele>
        <time>2020-10-04T12:22:01.729Z</time>
      </trkpt>
      <trkpt lat="44.04526" lon="1.8655">
        <ele>258</ele>
        <time>2020-10-04T12:22:02.729Z</time>
      </trkpt>
      <trkpt lat="44.04526" lon="1.8655">
        <ele>258</ele>
        <time>2020-10-04T12:22:03.729Z</time>
      </trkpt>
      <trkpt lat="44.04526" lon="1.8655">
        <ele>258</ele>
        <time>2020-10-04T12:22:04.729Z</time>
      </trkpt>
      <trkpt lat="44.04527" lon="1.8655">
        <ele>258</ele>
        <time>2020-10-04T12:22:05.729Z</time>
      </trkpt>
      <trkpt lat="44.04527" lon="1.8655">
        <ele>258</ele>
        <time>2020-10-04T12:22:06.729Z</time>
      </trkpt>
      <trkpt lat="44.04528" lon="1.86551">
        <ele>258</ele>
        <time>2020-10-04T12:22:07.729Z</time>
      </trkpt>
      <trkpt lat="44.04528" lon="1.86551">
        <ele>258</ele>
        <time>2020-10-04T12:22:08.729Z</time>
      </trkpt>
      <trkpt lat="44.04529" lon="1.86551">
        <ele>258</ele>
        <time>2020-10-04T12:22:09.729Z</time>
      </trkpt>
      <trkpt lat="44.0453" lon="1.86552">
        <ele>258</ele>
        <time>2020-10-04T12:22:10.729Z</time>
      </trkpt>
      <trkpt lat="44.04531" lon="1.86552">
        <ele>258</ele>
        <time>2020-10-04T12:22:11.729Z</time>
      </trkpt>
      <trkpt lat="44.04532" lon="1.86552">
        <ele>258</ele>
        <time>2020-10-04T12:22:12.729Z</time>
      </trkpt>
      <trkpt lat="44.04533" lon="1.86552">
        <ele>258</ele>
        <time>2020-10-04T12:22:13.729Z</time>
      </trkpt>
      <trkpt lat="44.04534" lon="1.86552">
        <ele>258</ele>
        <time>2020-10-04T12:22:14.729Z</time>
      </trkpt>
      <trkpt lat="44.04535" lon="1.86553">
        <ele>258</ele>
        <time>2020-10-04T12:22:15.729Z</time>
      </trkpt>
      <trkpt lat="44.04536" lon="1.86553">
        <ele>257</ele>
        <time>2020-10-04T12:22:16.729Z</time>
      </trkpt>
      <trkpt lat="44.04537" lon="1.86553">
        <ele>257</ele>
        <time>2020-10-04T12:22:17.729Z</time>
      </trkpt>
      <trkpt lat="44.04538" lon="1.86553">
        <ele>257</ele>
        <time>2020-10-04T12:22:18.729Z</time>
      </trkpt>
      <trkpt lat="44.0454" lon="1.86553">
        <ele>257</ele>
        <time>2020-10-04T12:22:19.729Z</time>
      </trkpt>
      <trkpt lat="44.04541" lon="1.86553">
        <ele>257</ele>
        <time>2020-10-04T12:22:20.729Z</time>
      </trkpt>
      <trkpt lat="44.04542" lon="1.86553">
        <ele>257</ele>
        <time>2020-10-04T12:22:21.729Z</time>
      </trkpt>
      <trkpt lat="44.04543" lon="1.86553">
        <ele>257</ele>
        <time>2020-10-04T12:22:22.729Z</time>
      </trkpt>
      <trkpt lat="44.04544" lon="1.86553">
        <ele>257</ele>
        <time>2020-10-04T12:22:23.729Z</time>
      </trkpt>
      <trkpt lat="44.04545" lon="1.86554">
        <ele>257</ele>
        <time>2020-10-04T12:22:24.729Z</time>
      </trkpt>
      <trkpt lat="44.04546" lon="1.86554">
        <ele>256</ele>
        <time>2020-10-04T12:22:25.729Z</time>
      </trkpt>
      <trkpt lat="44.04547" lon="1.86554">
        <ele>256</ele>
        <time>2020-10-04T12:22:26.729Z</time>
      </trkpt>
      <trkpt lat="44.04547" lon="1.86555">
        <ele>256</ele>
        <time>2020-10-04T12:22:27.729Z</time>
      </trkpt>
      <trkpt lat="44.04548" lon="1.86555">
        <ele>256</ele>
        <time>2020-10-04T12:22:28.729Z</time>
      </trkpt>
      <trkpt lat="44.04548" lon="1.86555">
        <ele>256</ele>
        <time>2020-10-04T12:22:29.729Z</time>
      </trkpt>
      <trkpt lat="44.04549" lon="1.86556">
        <ele>256</ele>
        <time>2020-10-04T12:22:30.729Z</time>
      </trkpt>
      <trkpt lat="44.04551" lon="1.86557">
        <ele>256</ele>
        <time>2020-10-04T12:22:31.729Z</time>
      </trkpt>
      <trkpt lat="44.04552" lon="1.86557">
        <ele>255</ele>
        <time>2020-10-04T12:22:32.729Z</time>
      </trkpt>
      <trkpt lat="44.04553" lon="1.86558">
        <ele>255</ele>
        <time>2020-10-04T12:22:33.729Z</time>
      </trkpt>
      <trkpt lat="44.04554" lon="1.86559">
        <ele>255</ele>
        <time>2020-10-04T12:22:34.729Z</time>
      </trkpt>
      <trkpt lat="44.04555" lon="1.86559">
        <ele>255</ele>
        <time>2020-10-04T12:22:35.729Z</time>
      </trkpt>
      <trkpt lat="44.04556" lon="1.8656">
        <ele>255</ele>
        <time>2020-10-04T12:22:36.729Z</time>
      </trkpt>
      <trkpt lat="44.04558" lon="1.8656">
        <ele>254</ele>
        <time>2020-10-04T12:22:37.729Z</time>
      </trkpt>
      <trkpt lat="44.04559" lon="1.86561">
        <ele>254</ele>
        <time>2020-10-04T12:22:38.729Z</time>
      </trkpt>
      <trkpt lat="44.0456" lon="1.86561">
        <ele>254</ele>
        <time>2020-10-04T12:22:39.729Z</time>
      </trkpt>
      <trkpt lat="44.04561" lon="1.86562">
        <ele>254</ele>
        <time>2020-10-04T12:22:40.729Z</time>
      </trkpt>
      <trkpt lat="44.04562" lon="1.86563">
        <ele>254</ele>
        <time>2020-10-04T12:22:41.729Z</time>
      </trkpt>
      <trkpt lat="44.04563" lon="1.86564">
        <ele>254</ele>
        <time>2020-10-04T12:22:42.729Z</time>
      </trkpt>
      <trkpt lat="44.04564" lon="1.86565">
        <ele>254</ele>
        <time>2020-10-04T12:22:43.729Z</time>
      </trkpt>
      <trkpt lat="44.04565" lon="1.86565">
        <ele>254</ele>
        <time>2020-10-04T12:22:44.729Z</time>
      </trkpt>
      <trkpt lat="44.04565" lon="1.86566">
        <ele>254</ele>
        <time>2020-10-04T12:22:45.729Z</time>
      </trkpt>
      <trkpt lat="44.04566" lon="1.86566">
        <ele>254</ele>
        <time>2020-10-04T12:22:46.729Z</time>
      </trkpt>
      <trkpt lat="44.04567" lon="1.86566">
        <ele>254</ele>
        <time>2020-10-04T12:22:47.729Z</time>
      </trkpt>
      <trkpt lat="44.04568" lon="1.86567">
        <ele>254</ele>
        <time>2020-10-04T12:22:48.729Z</time>
      </trkpt>
      <trkpt lat="44.04569" lon="1.86567">
        <ele>254</ele>
        <time>2020-10-04T12:22:49.729Z</time>
      </trkpt>
      <trkpt lat="44.0457" lon="1.86567">
        <ele>254</ele>
        <time>2020-10-04T12:22:50.729Z</time>
      </trkpt>
      <trkpt lat="44.0457" lon="1.86567">
        <ele>254</ele>
        <time>2020-10-04T12:22:51.729Z</time>
      </trkpt>
      <trkpt lat="44.04571" lon="1.86567">
        <ele>254</ele>
        <time>2020-10-04T12:22:52.729Z</time>
      </trkpt>
      <trkpt lat="44.04572" lon="1.86568">
        <ele>255</ele>
        <time>2020-10-04T12:22:53.729Z</time>
      </trkpt>
      <trkpt lat="44.04574" lon="1.86568">
        <ele>255</ele>
        <time>2020-10-04T12:22:54.729Z</time>
      </trkpt>
      <trkpt lat="44.04575" lon="1.86569">
        <ele>255</ele>
        <time>2020-10-04T12:22:55.729Z</time>
      </trkpt>
      <trkpt lat="44.04576" lon="1.86569">
        <ele>255</ele>
        <time>2020-10-04T12:22:56.729Z</time>
      </trkpt>
      <trkpt lat="44.04577" lon="1.86569">
        <ele>255</ele>
        <time>2020-10-04T12:22:57.729Z</time>
      </trkpt>
      <trkpt lat="44.04577" lon="1.8657">
        <ele>256</ele>
        <time>2020-10-04T12:22:58.729Z</time>
      </trkpt>
      <trkpt lat="44.04578" lon="1.8657">
        <ele>256</ele>
        <time>2020-10-04T12:22:59.729Z</time>
      </trkpt>
      <trkpt lat="44.0458" lon="1.86571">
        <ele>256</ele>
        <time>2020-10-04T12:23:00.729Z</time>
      </trkpt>
      <trkpt lat="44.04581" lon="1.86571">
        <ele>256</ele>
        <time>2020-10-04T12:23:01.729Z</time>
      </trkpt>
      <trkpt lat="44.04582" lon="1.86571">
        <ele>256</ele>
        <time>2020-10-04T12:23:02.729Z</time>
      </trkpt>
      <trkpt lat="44.04582" lon="1.86572">
        <ele>257</ele>
        <time>2020-10-04T12:23:03.729Z</time>
      </trkpt>
      <trkpt lat="44.04583" lon="1.86572">
        <ele>257</ele>
        <time>2020-10-04T12:23:04.729Z</time>
      </trkpt>
      <trkpt lat="44.04584" lon="1.86573">
        <ele>257</ele>
        <time>2020-10-04T12:23:05.729Z</time>
      </trkpt>
      <trkpt lat="44.04585" lon="1.86574">
        <ele>257</ele>
        <time>2020-10-04T12:23:06.729Z</time>
      </trkpt>
      <trkpt lat="44.04586" lon="1.86574">
        <ele>257</ele>
        <time>2020-10-04T12:23:07.729Z</time>
      </trkpt>
      <trkpt lat="44.04588" lon="1.86575">
        <ele>257</ele>
        <time>2020-10-04T12:23:08.729Z</time>
      </trkpt>
      <trkpt lat="44.04589" lon="1.86575">
        <ele>258</ele>
        <time>2020-10-04T12:23:09.729Z</time>
      </trkpt>
      <trkpt lat="44.04589" lon="1.86575">
        <ele>258</ele>
        <time>2020-10-04T12:23:10.729Z</time>
      </trkpt>
      <trkpt lat="44.0459" lon="1.86575">
        <ele>258</ele>
        <time>2020-10-04T12:23:11.729Z</time>
      </trkpt>
      <trkpt lat="44.04591" lon="1.86576">
        <ele>258</ele>
        <time>2020-10-04T12:23:12.729Z</time>
      </trkpt>
      <trkpt lat="44.04593" lon="1.86576">
        <ele>258</ele>
        <time>2020-10-04T12:23:13.729Z</time>
      </trkpt>
      <trkpt lat="44.04594" lon="1.86577">
        <ele>258</ele>
        <time>2020-10-04T12:23:14.729Z</time>
      </trkpt>
      <trkpt lat="44.04595" lon="1.86577">
        <ele>258</ele>
        <time>2020-10-04T12:23:15.729Z</time>
      </trkpt>
      <trkpt lat="44.04596" lon="1.86578">
        <ele>258</ele>
        <time>2020-10-04T12:23:16.729Z</time>
      </trkpt>
      <trkpt lat="44.04597" lon="1.86578">
        <ele>258</ele>
        <time>2020-10-04T12:23:17.729Z</time>
      </trkpt>
      <trkpt lat="44.04599" lon="1.86578">
        <ele>258</ele>
        <time>2020-10-04T12:23:18.729Z</time>
      </trkpt>
      <trkpt lat="44.046" lon="1.86579">
        <ele>258</ele>
        <time>2020-10-04T12:23:19.729Z</time>
      </trkpt>
      <trkpt lat="44.04601" lon="1.86579">
        <ele>258</ele>
        <time>2020-10-04T12:23:20.729Z</time>
      </trkpt>
      <trkpt lat="44.04602" lon="1.8658">
        <ele>258</ele>
        <time>2020-10-04T12:23:21.729Z</time>
      </trkpt>
      <trkpt lat="44.04603" lon="1.8658">
        <ele>258</ele>
        <time>2020-10-04T12:23:22.729Z</time>
      </trkpt>
      <trkpt lat="44.04604" lon="1.86581">
        <ele>258</ele>
        <time>2020-10-04T12:23:23.729Z</time>
      </trkpt>
      <trkpt lat="44.04605" lon="1.86581">
        <ele>258</ele>
        <time>2020-10-04T12:23:24.729Z</time>
      </trkpt>
      <trkpt lat="44.04607" lon="1.86581">
        <ele>258</ele>
        <time>2020-10-04T12:23:25.729Z</time>
      </trkpt>
      <trkpt lat="44.04608" lon="1.86582">
        <ele>258</ele>
        <time>2020-10-04T12:23:26.729Z</time>
      </trkpt>
      <trkpt lat="44.04609" lon="1.86582">
        <ele>258</ele>
        <time>2020-10-04T12:23:27.729Z</time>
      </trkpt>
      <trkpt lat="44.0461" lon="1.86583">
        <ele>258</ele>
        <time>2020-10-04T12:23:28.729Z</time>
      </trkpt>
      <trkpt lat="44.04611" lon="1.86583">
        <ele>258</ele>
        <time>2020-10-04T12:23:29.729Z</time>
      </trkpt>
      <trkpt lat="44.04612" lon="1.86584">
        <ele>258</ele>
        <time>2020-10-04T12:23:30.729Z</time>
      </trkpt>
      <trkpt lat="44.04613" lon="1.86584">
        <ele>258</ele>
        <time>2020-10-04T12:23:31.729Z</time>
      </trkpt>
      <trkpt lat="44.04614" lon="1.86585">
        <ele>258</ele>
        <time>2020-10-04T12:23:32.729Z</time>
      </trkpt>
      <trkpt lat="44.04615" lon="1.86586">
        <ele>258</ele>
        <time>2020-10-04T12:23:33.729Z</time>
      </trkpt>
      <trkpt lat="44.04616" lon="1.86586">
        <ele>258</ele>
        <time>2020-10-04T12:23:34.729Z</time>
      </trkpt>
      <trkpt lat="44.04617" lon="1.86587">
        <ele>258</ele>
        <time>2020-10-04T12:23:35.729Z</time>
      </trkpt>
      <trkpt lat="44.04619" lon="1.86587">
        <ele>258</ele>
        <time>2020-10-04T12:23:36.729Z</time>
      </trkpt>
      <trkpt lat="44.0462" lon="1.86588">
        <ele>258</ele>
        <time>2020-10-04T12:23:37.729Z</time>
      </trkpt>
      <trkpt lat="44.0462" lon="1.86588">
        <ele>258</ele>
        <time>2020-10-04T12:23:38.729Z</time>
      </trkpt>
      <trkpt lat="44.04622" lon="1.86589">
        <ele>258</ele>
        <time>2020-10-04T12:23:39.729Z</time>
      </trkpt>
      <trkpt lat="44.04623" lon="1.8659">
        <ele>258</ele>
        <time>2020-10-04T12:23:40.729Z</time>
      </trkpt>
      <trkpt lat="44.04624" lon="1.86591">
        <ele>258</ele>
        <time>2020-10-04T12:23:41.729Z</time>
      </trkpt>
      <trkpt lat="44.04624" lon="1.86592">
        <ele>258</ele>
        <time>2020-10-04T12:23:42.729Z</time>
      </trkpt>
      <trkpt lat="44.04625" lon="1.86593">
        <ele>258</ele>
        <time>2020-10-04T12:23:43.729Z</time>
      </trkpt>
      <trkpt lat="44.04626" lon="1.86594">
        <ele>258</ele>
        <time>2020-10-04T12:23:44.729Z</time>
      </trkpt>
      <trkpt lat="44.04628" lon="1.86595">
        <ele>258</ele>
        <time>2020-10-04T12:23:45.729Z</time>
      </trkpt>
      <trkpt lat="44.04629" lon="1.86596">
        <ele>258</ele>
        <time>2020-10-04T12:23:46.729Z</time>
      </trkpt>
      <trkpt lat="44.0463" lon="1.86597">
        <ele>258</ele>
        <time>2020-10-04T12:23:47.729Z</time>
      </trkpt>
      <trkpt lat="44.04631" lon="1.86598">
        <ele>258</ele>
        <time>2020-10-04T12:23:48.729Z</time>
      </trkpt>
      <trkpt lat="44.04632" lon="1.86599">
        <ele>258</ele>
        <time>2020-10-04T12:23:49.729Z</time>
      </trkpt>
      <trkpt lat="44.04633" lon="1.86599">
        <ele>258</ele>
        <time>2020-10-04T12:23:50.729Z</time>
      </trkpt>
      <trkpt lat="44.04634" lon="1.866">
        <ele>258</ele>
        <time>2020-10-04T12:23:51.729Z</time>
      </trkpt>
      <trkpt lat="44.04635" lon="1.86601">
        <ele>258</ele>
        <time>2020-10-04T12:23:52.729Z</time>
      </trkpt>
      <trkpt lat="44.04636" lon="1.86602">
        <ele>258</ele>
        <time>2020-10-04T12:23:53.729Z</time>
      </trkpt>
      <trkpt lat="44.04637" lon="1.86603">
        <ele>258</ele>
        <time>2020-10-04T12:23:54.729Z</time>
      </trkpt>
      <trkpt lat="44.04638" lon="1.86603">
        <ele>258</ele>
        <time>2020-10-04T12:23:55.729Z</time>
      </trkpt>
      <trkpt lat="44.0464" lon="1.86604">
        <ele>258</ele>
        <time>2020-10-04T12:23:56.729Z</time>
      </trkpt>
      <trkpt lat="44.04641" lon="1.86605">
        <ele>258</ele>
        <time>2020-10-04T12:23:57.729Z</time>
      </trkpt>
      <trkpt lat="44.04641" lon="1.86606">
        <ele>258</ele>
        <time>2020-10-04T12:23:58.729Z</time>
      </trkpt>
      <trkpt lat="44.04643" lon="1.86607">
        <ele>258</ele>
        <time>2020-10-04T12:23:59.729Z</time>
      </trkpt>
      <trkpt lat="44.04644" lon="1.86608">
        <ele>258</ele>
        <time>2020-10-04T12:24:00.729Z</time>
      </trkpt>
      <trkpt lat="44.04645" lon="1.86609">
        <ele>258</ele>
        <time>2020-10-04T12:24:01.729Z</time>
      </trkpt>
      <trkpt lat="44.04646" lon="1.8661">
        <ele>259</ele>
        <time>2020-10-04T12:24:02.729Z</time>
      </trkpt>
      <trkpt lat="44.04647" lon="1.86611">
        <ele>259</ele>
        <time>2020-10-04T12:24:03.729Z</time>
      </trkpt>
      <trkpt lat="44.04647" lon="1.86612">
        <ele>259</ele>
        <time>2020-10-04T12:24:04.729Z</time>
      </trkpt>
      <trkpt lat="44.04648" lon="1.86613">
        <ele>259</ele>
        <time>2020-10-04T12:24:05.729Z</time>
      </trkpt>
      <trkpt lat="44.04649" lon="1.86614">
        <ele>259</ele>
        <time>2020-10-04T12:24:06.729Z</time>
      </trkpt>
      <trkpt lat="44.0465" lon="1.86615">
        <ele>259</ele>
        <time>2020-10-04T12:24:07.729Z</time>
      </trkpt>
      <trkpt lat="44.04651" lon="1.86616">
        <ele>259</ele>
        <time>2020-10-04T12:24:08.729Z</time>
      </trkpt>
      <trkpt lat="44.04652" lon="1.86618">
        <ele>259</ele>
        <time>2020-10-04T12:24:09.729Z</time>
      </trkpt>
      <trkpt lat="44.04653" lon="1.86619">
        <ele>259</ele>
        <time>2020-10-04T12:24:10.729Z</time>
      </trkpt>
      <trkpt lat="44.04654" lon="1.8662">
        <ele>259</ele>
        <time>2020-10-04T12:24:11.729Z</time>
      </trkpt>
      <trkpt lat="44.04655" lon="1.86621">
        <ele>259</ele>
        <time>2020-10-04T12:24:12.729Z</time>
      </trkpt>
      <trkpt lat="44.04656" lon="1.86622">
        <ele>259</ele>
        <time>2020-10-04T12:24:13.729Z</time>
      </trkpt>
      <trkpt lat="44.04657" lon="1.86623">
        <ele>259</ele>
        <time>2020-10-04T12:24:14.729Z</time>
      </trkpt>
      <trkpt lat="44.04658" lon="1.86624">
        <ele>259</ele>
        <time>2020-10-04T12:24:15.729Z</time>
      </trkpt>
      <trkpt lat="44.04658" lon="1.86625">
        <ele>259</ele>
        <time>2020-10-04T12:24:16.729Z</time>
      </trkpt>
      <trkpt lat="44.04659" lon="1.86627">
        <ele>259</ele>
        <time>2020-10-04T12:24:17.729Z</time>
      </trkpt>
      <trkpt lat="44.0466" lon="1.86628">
        <ele>259</ele>
        <time>2020-10-04T12:24:18.729Z</time>
      </trkpt>
      <trkpt lat="44.04661" lon="1.86629">
        <ele>259</ele>
        <time>2020-10-04T12:24:19.729Z</time>
      </trkpt>
      <trkpt lat="44.04662" lon="1.8663">
        <ele>259</ele>
        <time>2020-10-04T12:24:20.729Z</time>
      </trkpt>
      <trkpt lat="44.04663" lon="1.86632">
        <ele>259</ele>
        <time>2020-10-04T12:24:21.729Z</time>
      </trkpt>
      <trkpt lat="44.04663" lon="1.86633">
        <ele>259</ele>
        <time>2020-10-04T12:24:22.729Z</time>
      </trkpt>
      <trkpt lat="44.04664" lon="1.86635">
        <ele>259</ele>
        <time>2020-10-04T12:24:23.729Z</time>
      </trkpt>
      <trkpt lat="44.04664" lon="1.86636">
        <ele>259</ele>
        <time>2020-10-04T12:24:24.729Z</time>
      </trkpt>
      <trkpt lat="44.04665" lon="1.86638">
        <ele>259</ele>
        <time>2020-10-04T12:24:25.729Z</time>
      </trkpt>
      <trkpt lat="44.04665" lon="1.8664">
        <ele>259</ele>
        <time>2020-10-04T12:24:26.729Z</time>
      </trkpt>
      <trkpt lat="44.04666" lon="1.86641">
        <ele>259</ele>
        <time>2020-10-04T12:24:27.729Z</time>
      </trkpt>
      <trkpt lat="44.04666" lon="1.86643">
        <ele>259</ele>
        <time>2020-10-04T12:24:28.729Z</time>
      </trkpt>
      <trkpt lat="44.04666" lon="1.86645">
        <ele>258</ele>
        <time>2020-10-04T12:24:29.729Z</time>
      </trkpt>
      <trkpt lat="44.04666" lon="1.86646">
        <ele>258</ele>
        <time>2020-10-04T12:24:30.729Z</time>
      </trkpt>
      <trkpt lat="44.04666" lon="1.86648">
        <ele>258</ele>
        <time>2020-10-04T12:24:31.729Z</time>
      </trkpt>
      <trkpt lat="44.04666" lon="1.8665">
        <ele>258</ele>
        <time>2020-10-04T12:24:32.729Z</time>
      </trkpt>
      <trkpt lat="44.04667" lon="1.86652">
        <ele>258</ele>
        <time>2020-10-04T12:24:33.729Z</time>
      </trkpt>
      <trkpt lat="44.04667" lon="1.86654">
        <ele>258</ele>
        <time>2020-10-04T12:24:34.729Z</time>
      </trkpt>
      <trkpt lat="44.04667" lon="1.86655">
        <ele>258</ele>
        <time>2020-10-04T12:24:35.729Z</time>
      </trkpt>
      <trkpt lat="44.04667" lon="1.86657">
        <ele>258</ele>
        <time>2020-10-04T12:24:36.729Z</time>
      </trkpt>
      <trkpt lat="44.04667" lon="1.86659">
        <ele>258</ele>
        <time>2020-10-04T12:24:37.729Z</time>
      </trkpt>
      <trkpt lat="44.04668" lon="1.8666">
        <ele>258</ele>
        <time>2020-10-04T12:24:38.729Z</time>
      </trkpt>
      <trkpt lat="44.04668" lon="1.86662">
        <ele>258</ele>
        <time>2020-10-04T12:24:39.729Z</time>
      </trkpt>
      <trkpt lat="44.04668" lon="1.86664">
        <ele>258</ele>
        <time>2020-10-04T12:24:40.729Z</time>
      </trkpt>
      <trkpt lat="44.04668" lon="1.86665">
        <ele>258</ele>
        <time>2020-10-04T12:24:41.729Z</time>
      </trkpt>
      <trkpt lat="44.04668" lon="1.86667">
        <ele>258</ele>
        <time>2020-10-04T12:24:42.729Z</time>
      </trkpt>
      <trkpt lat="44.04669" lon="1.86668">
        <ele>258</ele>
        <time>2020-10-04T12:24:43.729Z</time>
      </trkpt>
      <trkpt lat="44.04669" lon="1.8667">
        <ele>258</ele>
        <time>2020-10-04T12:24:44.729Z</time>
      </trkpt>
      <trkpt lat="44.04669" lon="1.86671">
        <ele>258</ele>
        <time>2020-10-04T12:24:45.729Z</time>
      </trkpt>
      <trkpt lat="44.04669" lon="1.86673">
        <ele>258</ele>
        <time>2020-10-04T12:24:46.729Z</time>
      </trkpt>
      <trkpt lat="44.04669" lon="1.86675">
        <ele>258</ele>
        <time>2020-10-04T12:24:47.729Z</time>
      </trkpt>
      <trkpt lat="44.0467" lon="1.86676">
        <ele>258</ele>
        <time>2020-10-04T12:24:48.729Z</time>
      </trkpt>
      <trkpt lat="44.0467" lon="1.86677">
        <ele>258</ele>
        <time>2020-10-04T12:24:49.729Z</time>
      </trkpt>
      <trkpt lat="44.04671" lon="1.86678">
        <ele>258</ele>
        <time>2020-10-04T12:24:50.729Z</time>
      </trkpt>
      <trkpt lat="44.04671" lon="1.8668">
        <ele>258</ele>
        <time>2020-10-04T12:24:51.729Z</time>
      </trkpt>
      <trkpt lat="44.04671" lon="1.86681">
        <ele>258</ele>
        <time>2020-10-04T12:24:52.729Z</time>
      </trkpt>
      <trkpt lat="44.04672" lon="1.86683">
        <ele>258</ele>
        <time>2020-10-04T12:24:53.729Z</time>
      </trkpt>
      <trkpt lat="44.04672" lon="1.86684">
        <ele>258</ele>
        <time>2020-10-04T12:24:54.729Z</time>
      </trkpt>
      <trkpt lat="44.04672" lon="1.86686">
        <ele>258</ele>
        <time>2020-10-04T12:24:55.729Z</time>
      </trkpt>
      <trkpt lat="44.04673" lon="1.86687">
        <ele>258</ele>
        <time>2020-10-04T12:24:56.729Z</time>
      </trkpt>
      <trkpt lat="44.04673" lon="1.86688">
        <ele>258</ele>
        <time>2020-10-04T12:24:57.729Z</time>
      </trkpt>
      <trkpt lat="44.04674" lon="1.8669">
        <ele>258</ele>
        <time>2020-10-04T12:24:58.729Z</time>
      </trkpt>
      <trkpt lat="44.04674" lon="1.86691">
        <ele>258</ele>
        <time>2020-10-04T12:24:59.729Z</time>
      </trkpt>
      <trkpt lat="44.04675" lon="1.86692">
        <ele>258</ele>
        <time>2020-10-04T12:25:00.729Z</time>
      </trkpt>
      <trkpt lat="44.04676" lon="1.86693">
        <ele>258</ele>
        <time>2020-10-04T12:25:01.729Z</time>
      </trkpt>
      <trkpt lat="44.04677" lon="1.86694">
        <ele>258</ele>
        <time>2020-10-04T12:25:02.729Z</time>
      </trkpt>
      <trkpt lat="44.04677" lon="1.86695">
        <ele>258</ele>
        <time>2020-10-04T12:25:03.729Z</time>
      </trkpt>
      <trkpt lat="44.04678" lon="1.86696">
        <ele>258</ele>
        <time>2020-10-04T12:25:04.729Z</time>
      </trkpt>
      <trkpt lat="44.04679" lon="1.86697">
        <ele>259</ele>
        <time>2020-10-04T12:25:05.729Z</time>
      </trkpt>
      <trkpt lat="44.0468" lon="1.86698">
        <ele>259</ele>
        <time>2020-10-04T12:25:06.729Z</time>
      </trkpt>
      <trkpt lat="44.04681" lon="1.86698">
        <ele>259</ele>
        <time>2020-10-04T12:25:07.729Z</time>
      </trkpt>
      <trkpt lat="44.04683" lon="1.86698">
        <ele>259</ele>
        <time>2020-10-04T12:25:08.729Z</time>
      </trkpt>
      <trkpt lat="44.04684" lon="1.86698">
        <ele>259</ele>
        <time>2020-10-04T12:25:09.729Z</time>
      </trkpt>
      <trkpt lat="44.04685" lon="1.86698">
        <ele>260</ele>
        <time>2020-10-04T12:25:10.729Z</time>
      </trkpt>
      <trkpt lat="44.04686" lon="1.86698">
        <ele>260</ele>
        <time>2020-10-04T12:25:11.729Z</time>
      </trkpt>
      <trkpt lat="44.04687" lon="1.86697">
        <ele>260</ele>
        <time>2020-10-04T12:25:12.729Z</time>
      </trkpt>
      <trkpt lat="44.04688" lon="1.86697">
        <ele>260</ele>
        <time>2020-10-04T12:25:13.729Z</time>
      </trkpt>
      <trkpt lat="44.04689" lon="1.86696">
        <ele>260</ele>
        <time>2020-10-04T12:25:14.729Z</time>
      </trkpt>
      <trkpt lat="44.0469" lon="1.86696">
        <ele>260</ele>
        <time>2020-10-04T12:25:15.729Z</time>
      </trkpt>
      <trkpt lat="44.04691" lon="1.86696">
        <ele>260</ele>
        <time>2020-10-04T12:25:16.729Z</time>
      </trkpt>
      <trkpt lat="44.04692" lon="1.86695">
        <ele>260</ele>
        <time>2020-10-04T12:25:17.729Z</time>
      </trkpt>
      <trkpt lat="44.04693" lon="1.86695">
        <ele>260</ele>
        <time>2020-10-04T12:25:18.729Z</time>
      </trkpt>
      <trkpt lat="44.04695" lon="1.86694">
        <ele>260</ele>
        <time>2020-10-04T12:25:19.729Z</time>
      </trkpt>
      <trkpt lat="44.04696" lon="1.86694">
        <ele>260</ele>
        <time>2020-10-04T12:25:20.729Z</time>
      </trkpt>
      <trkpt lat="44.04697" lon="1.86693">
        <ele>260</ele>
        <time>2020-10-04T12:25:21.729Z</time>
      </trkpt>
      <trkpt lat="44.04698" lon="1.86693">
        <ele>260</ele>
        <time>2020-10-04T12:25:22.729Z</time>
      </trkpt>
      <trkpt lat="44.04699" lon="1.86693">
        <ele>260</ele>
        <time>2020-10-04T12:25:23.729Z</time>
      </trkpt>
      <trkpt lat="44.047" lon="1.86693">
        <ele>260</ele>
        <time>2020-10-04T12:25:24.729Z</time>
      </trkpt>
      <trkpt lat="44.04701" lon="1.86693">
        <ele>260</ele>
        <time>2020-10-04T12:25:25.729Z</time>
      </trkpt>
      <trkpt lat="44.04702" lon="1.86692">
        <ele>260</ele>
        <time>2020-10-04T12:25:26.729Z</time>
      </trkpt>
      <trkpt lat="44.04703" lon="1.86692">
        <ele>260</ele>
        <time>2020-10-04T12:25:27.729Z</time>
      </trkpt>
      <trkpt lat="44.04704" lon="1.86692">
        <ele>260</ele>
        <time>2020-10-04T12:25:28.729Z</time>
      </trkpt>
      <trkpt lat="44.04705" lon="1.86692">
        <ele>261</ele>
        <time>2020-10-04T12:25:29.729Z</time>
      </trkpt>
      <trkpt lat="44.04706" lon="1.86691">
        <ele>261</ele>
        <time>2020-10-04T12:25:30.729Z</time>
      </trkpt>
      <trkpt lat="44.04707" lon="1.86691">
        <ele>261</ele>
        <time>2020-10-04T12:25:31.729Z</time>
      </trkpt>
      <trkpt lat="44.04708" lon="1.8669">
        <ele>261</ele>
        <time>2020-10-04T12:25:32.729Z</time>
      </trkpt>
      <trkpt lat="44.04709" lon="1.8669">
        <ele>261</ele>
        <time>2020-10-04T12:25:33.729Z</time>
      </trkpt>
      <trkpt lat="44.0471" lon="1.86689">
        <ele>261</ele>
        <time>2020-10-04T12:25:34.729Z</time>
      </trkpt>
      <trkpt lat="44.04711" lon="1.86688">
        <ele>261</ele>
        <time>2020-10-04T12:25:35.729Z</time>
      </trkpt>
      <trkpt lat="44.04712" lon="1.86688">
        <ele>261</ele>
        <time>2020-10-04T12:25:36.729Z</time>
      </trkpt>
      <trkpt lat="44.04713" lon="1.86687">
        <ele>261</ele>
        <time>2020-10-04T12:25:37.729Z</time>
      </trkpt>
      <trkpt lat="44.04714" lon="1.86686">
        <ele>260</ele>
        <time>2020-10-04T12:25:38.729Z</time>
      </trkpt>
      <trkpt lat="44.04715" lon="1.86686">
        <ele>260</ele>
        <time>2020-10-04T12:25:39.729Z</time>
      </trkpt>
      <trkpt lat="44.04716" lon="1.86685">
        <ele>260</ele>
        <time>2020-10-04T12:25:40.729Z</time>
      </trkpt>
      <trkpt lat="44.04717" lon="1.86684">
        <ele>260</ele>
        <time>2020-10-04T12:25:41.729Z</time>
      </trkpt>
      <trkpt lat="44.04717" lon="1.86684">
        <ele>260</ele>
        <time>2020-10-04T12:25:42.729Z</time>
      </trkpt>
      <trkpt lat="44.04718" lon="1.86683">
        <ele>260</ele>
        <time>2020-10-04T12:25:43.729Z</time>
      </trkpt>
      <trkpt lat="44.04719" lon="1.86682">
        <ele>260</ele>
        <time>2020-10-04T12:25:44.729Z</time>
      </trkpt>
      <trkpt lat="44.0472" lon="1.86682">
        <ele>260</ele>
        <time>2020-10-04T12:25:45.729Z</time>
      </trkpt>
      <trkpt lat="44.0472" lon="1.86681">
        <ele>260</ele>
        <time>2020-10-04T12:25:46.729Z</time>
      </trkpt>
      <trkpt lat="44.04721" lon="1.8668">
        <ele>260</ele>
        <time>2020-10-04T12:25:47.729Z</time>
      </trkpt>
      <trkpt lat="44.04722" lon="1.86679">
        <ele>261</ele>
        <time>2020-10-04T12:25:48.729Z</time>
      </trkpt>
      <trkpt lat="44.04722" lon="1.86679">
        <ele>261</ele>
        <time>2020-10-04T12:25:49.729Z</time>
      </trkpt>
      <trkpt lat="44.04723" lon="1.86678">
        <ele>261</ele>
        <time>2020-10-04T12:25:50.729Z</time>
      </trkpt>
      <trkpt lat="44.04724" lon="1.86677">
        <ele>261</ele>
        <time>2020-10-04T12:25:51.729Z</time>
      </trkpt>
      <trkpt lat="44.04725" lon="1.86676">
        <ele>261</ele>
        <time>2020-10-04T12:25:52.729Z</time>
      </trkpt>
      <trkpt lat="44.04725" lon="1.86675">
        <ele>261</ele>
        <time>2020-10-04T12:25:53.729Z</time>
      </trkpt>
      <trkpt lat="44.04726" lon="1.86675">
        <ele>261</ele>
        <time>2020-10-04T12:25:54.729Z</time>
      </trkpt>
      <trkpt lat="44.04727" lon="1.86674">
        <ele>261</ele>
        <time>2020-10-04T12:25:55.729Z</time>
      </trkpt>
      <trkpt lat="44.04728" lon="1.86673">
        <ele>261</ele>
        <time>2020-10-04T12:25:56.729Z</time>
      </trkpt>
      <trkpt lat="44.04728" lon="1.86672">
        <ele>261</ele>
        <time>2020-10-04T12:25:57.729Z</time>
      </trkpt>
      <trkpt lat="44.04729" lon="1.86672">
        <ele>261</ele>
        <time>2020-10-04T12:25:58.729Z</time>
      </trkpt>
      <trkpt lat="44.0473" lon="1.86671">
        <ele>261</ele>
        <time>2020-10-04T12:25:59.729Z</time>
      </trkpt>
      <trkpt lat="44.04731" lon="1.8667">
        <ele>261</ele>
        <time>2020-10-04T12:26:00.729Z</time>
      </trkpt>
      <trkpt lat="44.04731" lon="1.86669">
        <ele>261</ele>
        <time>2020-10-04T12:26:01.729Z</time>
      </trkpt>
      <trkpt lat="44.04732" lon="1.86668">
        <ele>261</ele>
        <time>2020-10-04T12:26:02.729Z</time>
      </trkpt>
      <trkpt lat="44.04732" lon="1.86667">
        <ele>261</ele>
        <time>2020-10-04T12:26:03.729Z</time>
      </trkpt>
      <trkpt lat="44.04733" lon="1.86666">
        <ele>262</ele>
        <time>2020-10-04T12:26:04.729Z</time>
      </trkpt>
      <trkpt lat="44.04734" lon="1.86665">
        <ele>262</ele>
        <time>2020-10-04T12:26:05.729Z</time>
      </trkpt>
      <trkpt lat="44.04735" lon="1.86665">
        <ele>262</ele>
        <time>2020-10-04T12:26:06.729Z</time>
      </trkpt>
      <trkpt lat="44.04736" lon="1.86663">
        <ele>262</ele>
        <time>2020-10-04T12:26:07.729Z</time>
      </trkpt>
      <trkpt lat="44.04736" lon="1.86663">
        <ele>262</ele>
        <time>2020-10-04T12:26:08.729Z</time>
      </trkpt>
      <trkpt lat="44.04737" lon="1.86662">
        <ele>262</ele>
        <time>2020-10-04T12:26:09.729Z</time>
      </trkpt>
      <trkpt lat="44.04738" lon="1.86662">
        <ele>263</ele>
        <time>2020-10-04T12:26:10.729Z</time>
      </trkpt>
      <trkpt lat="44.04739" lon="1.86661">
        <ele>263</ele>
        <time>2020-10-04T12:26:11.729Z</time>
      </trkpt>
      <trkpt lat="44.0474" lon="1.86661">
        <ele>263</ele>
        <time>2020-10-04T12:26:12.729Z</time>
      </trkpt>
      <trkpt lat="44.04741" lon="1.86661">
        <ele>263</ele>
        <time>2020-10-04T12:26:13.729Z</time>
      </trkpt>
      <trkpt lat="44.04742" lon="1.86661">
        <ele>263</ele>
        <time>2020-10-04T12:26:14.729Z</time>
      </trkpt>
      <trkpt lat="44.04742" lon="1.86661">
        <ele>263</ele>
        <time>2020-10-04T12:26:15.729Z</time>
      </trkpt>
      <trkpt lat="44.04743" lon="1.86661">
        <ele>264</ele>
        <time>2020-10-04T12:26:16.729Z</time>
      </trkpt>
      <trkpt lat="44.04744" lon="1.86662">
        <ele>264</ele>
        <time>2020-10-04T12:26:17.729Z</time>
      </trkpt>
      <trkpt lat="44.04745" lon="1.86662">
        <ele>264</ele>
        <time>2020-10-04T12:26:18.729Z</time>
      </trkpt>
      <trkpt lat="44.04746" lon="1.86663">
        <ele>264</ele>
        <time>2020-10-04T12:26:19.729Z</time>
      </trkpt>
      <trkpt lat="44.04747" lon="1.86664">
        <ele>264</ele>
        <time>2020-10-04T12:26:20.729Z</time>
      </trkpt>
      <trkpt lat="44.04748" lon="1.86665">
        <ele>264</ele>
        <time>2020-10-04T12:26:21.729Z</time>
      </trkpt>
      <trkpt lat="44.04749" lon="1.86666">
        <ele>264</ele>
        <time>2020-10-04T12:26:22.729Z</time>
      </trkpt>
      <trkpt lat="44.0475" lon="1.86667">
        <ele>264</ele>
        <time>2020-10-04T12:26:23.729Z</time>
      </trkpt>
      <trkpt lat="44.0475" lon="1.86668">
        <ele>265</ele>
        <time>2020-10-04T12:26:24.729Z</time>
      </trkpt>
      <trkpt lat="44.04751" lon="1.86669">
        <ele>265</ele>
        <time>2020-10-04T12:26:25.729Z</time>
      </trkpt>
      <trkpt lat="44.04752" lon="1.8667">
        <ele>265</ele>
        <time>2020-10-04T12:26:26.729Z</time>
      </trkpt>
      <trkpt lat="44.04752" lon="1.86671">
        <ele>265</ele>
        <time>2020-10-04T12:26:27.729Z</time>
      </trkpt>
      <trkpt lat="44.04752" lon="1.86672">
        <ele>265</ele>
        <time>2020-10-04T12:26:28.729Z</time>
      </trkpt>
      <trkpt lat="44.04753" lon="1.86674">
        <ele>265</ele>
        <time>2020-10-04T12:26:29.729Z</time>
      </trkpt>
      <trkpt lat="44.04753" lon="1.86675">
        <ele>265</ele>
        <time>2020-10-04T12:26:30.729Z</time>
      </trkpt>
      <trkpt lat="44.04754" lon="1.86676">
        <ele>264</ele>
        <time>2020-10-04T12:26:31.729Z</time>
      </trkpt>
      <trkpt lat="44.04754" lon="1.86677">
        <ele>264</ele>
        <time>2020-10-04T12:26:32.729Z</time>
      </trkpt>
      <trkpt lat="44.04755" lon="1.86678">
        <ele>264</ele>
        <time>2020-10-04T12:26:33.729Z</time>
      </trkpt>
      <trkpt lat="44.04755" lon="1.86679">
        <ele>264</ele>
        <time>2020-10-04T12:26:34.729Z</time>
      </trkpt>
      <trkpt lat="44.04755" lon="1.8668">
        <ele>264</ele>
        <time>2020-10-04T12:26:35.729Z</time>
      </trkpt>
      <trkpt lat="44.04756" lon="1.86681">
        <ele>264</ele>
        <time>2020-10-04T12:26:36.729Z</time>
      </trkpt>
      <trkpt lat="44.04756" lon="1.86683">
        <ele>263</ele>
        <time>2020-10-04T12:26:37.729Z</time>
      </trkpt>
      <trkpt lat="44.04756" lon="1.86684">
        <ele>263</ele>
        <time>2020-10-04T12:26:38.729Z</time>
      </trkpt>
      <trkpt lat="44.04757" lon="1.86686">
        <ele>263</ele>
        <time>2020-10-04T12:26:39.729Z</time>
      </trkpt>
      <trkpt lat="44.04757" lon="1.86687">
        <ele>263</ele>
        <time>2020-10-04T12:26:40.729Z</time>
      </trkpt>
      <trkpt lat="44.04757" lon="1.86689">
        <ele>263</ele>
        <time>2020-10-04T12:26:41.729Z</time>
      </trkpt>
      <trkpt lat="44.04758" lon="1.8669">
        <ele>263</ele>
        <time>2020-10-04T12:26:42.729Z</time>
      </trkpt>
      <trkpt lat="44.04758" lon="1.86691">
        <ele>263</ele>
        <time>2020-10-04T12:26:43.729Z</time>
      </trkpt>
      <trkpt lat="44.04758" lon="1.86693">
        <ele>263</ele>
        <time>2020-10-04T12:26:44.729Z</time>
      </trkpt>
      <trkpt lat="44.04759" lon="1.86694">
        <ele>263</ele>
        <time>2020-10-04T12:26:45.729Z</time>
      </trkpt>
      <trkpt lat="44.04759" lon="1.86695">
        <ele>262</ele>
        <time>2020-10-04T12:26:46.729Z</time>
      </trkpt>
      <trkpt lat="44.04759" lon="1.86696">
        <ele>262</ele>
        <time>2020-10-04T12:26:47.729Z</time>
      </trkpt>
      <trkpt lat="44.0476" lon="1.86697">
        <ele>262</ele>
        <time>2020-10-04T12:26:48.729Z</time>
      </trkpt>
      <trkpt lat="44.0476" lon="1.86699">
        <ele>262</ele>
        <time>2020-10-04T12:26:49.729Z</time>
      </trkpt>
      <trkpt lat="44.0476" lon="1.867">
        <ele>262</ele>
        <time>2020-10-04T12:26:50.729Z</time>
      </trkpt>
      <trkpt lat="44.04761" lon="1.86701">
        <ele>262</ele>
        <time>2020-10-04T12:26:51.729Z</time>
      </trkpt>
      <trkpt lat="44.04761" lon="1.86702">
        <ele>262</ele>
        <time>2020-10-04T12:26:52.729Z</time>
      </trkpt>
      <trkpt lat="44.04761" lon="1.86704">
        <ele>262</ele>
        <time>2020-10-04T12:26:53.729Z</time>
      </trkpt>
      <trkpt lat="44.04762" lon="1.86705">
        <ele>262</ele>
        <time>2020-10-04T12:26:54.729Z</time>
      </trkpt>
      <trkpt lat="44.04762" lon="1.86706">
        <ele>262</ele>
        <time>2020-10-04T12:26:55.729Z</time>
      </trkpt>
      <trkpt lat="44.04763" lon="1.86707">
        <ele>262</ele>
        <time>2020-10-04T12:26:56.729Z</time>
      </trkpt>
      <trkpt lat="44.04764" lon="1.86708">
        <ele>262</ele>
        <time>2020-10-04T12:26:57.729Z</time>
      </trkpt>
      <trkpt lat="44.04764" lon="1.8671">
        <ele>262</ele>
        <time>2020-10-04T12:26:58.729Z</time>
      </trkpt>
      <trkpt lat="44.04765" lon="1.86711">
        <ele>262</ele>
        <time>2020-10-04T12:26:59.729Z</time>
      </trkpt>
      <trkpt lat="44.04765" lon="1.86712">
        <ele>262</ele>
        <time>2020-10-04T12:27:00.729Z</time>
      </trkpt>
      <trkpt lat="44.04766" lon="1.86713">
        <ele>262</ele>
        <time>2020-10-04T12:27:01.729Z</time>
      </trkpt>
      <trkpt lat="44.04766" lon="1.86714">
        <ele>263</ele>
        <time>2020-10-04T12:27:02.729Z</time>
      </trkpt>
      <trkpt lat="44.04767" lon="1.86715">
        <ele>263</ele>
        <time>2020-10-04T12:27:03.729Z</time>
      </trkpt>
      <trkpt lat="44.04767" lon="1.86716">
        <ele>263</ele>
        <time>2020-10-04T12:27:04.729Z</time>
      </trkpt>
      <trkpt lat="44.04767" lon="1.86718">
        <ele>263</ele>
        <time>2020-10-04T12:27:05.729Z</time>
      </trkpt>
      <trkpt lat="44.04768" lon="1.86719">
        <ele>263</ele>
        <time>2020-10-04T12:27:06.729Z</time>
      </trkpt>
      <trkpt lat="44.04768" lon="1.8672">
        <ele>263</ele>
        <time>2020-10-04T12:27:07.729Z</time>
      </trkpt>
      <trkpt lat="44.04768" lon="1.86721">
        <ele>263</ele>
        <time>2020-10-04T12:27:08.729Z</time>
      </trkpt>
      <trkpt lat="44.04769" lon="1.86722">
        <ele>263</ele>
        <time>2020-10-04T12:27:09.729Z</time>
      </trkpt>
      <trkpt lat="44.04769" lon="1.86723">
        <ele>262</ele>
        <time>2020-10-04T12:27:10.729Z</time>
      </trkpt>
      <trkpt lat="44.0477" lon="1.86725">
        <ele>262</ele>
        <time>2020-10-04T12:27:11.729Z</time>
      </trkpt>
      <trkpt lat="44.0477" lon="1.86726">
        <ele>262</ele>
        <time>2020-10-04T12:27:12.729Z</time>
      </trkpt>
      <trkpt lat="44.04771" lon="1.86727">
        <ele>262</ele>
        <time>2020-10-04T12:27:13.729Z</time>
      </trkpt>
      <trkpt lat="44.04772" lon="1.86729">
        <ele>262</ele>
        <time>2020-10-04T12:27:14.729Z</time>
      </trkpt>
      <trkpt lat="44.04772" lon="1.8673">
        <ele>262</ele>
        <time>2020-10-04T12:27:15.729Z</time>
      </trkpt>
      <trkpt lat="44.04773" lon="1.86731">
        <ele>262</ele>
        <time>2020-10-04T12:27:16.729Z</time>
      </trkpt>
      <trkpt lat="44.04773" lon="1.86733">
        <ele>262</ele>
        <time>2020-10-04T12:27:17.729Z</time>
      </trkpt>
      <trkpt lat="44.04774" lon="1.86734">
        <ele>262</ele>
        <time>2020-10-04T12:27:18.729Z</time>
      </trkpt>
      <trkpt lat="44.04774" lon="1.86735">
        <ele>262</ele>
        <time>2020-10-04T12:27:19.729Z</time>
      </trkpt>
      <trkpt lat="44.04775" lon="1.86736">
        <ele>262</ele>
        <time>2020-10-04T12:27:20.729Z</time>
      </trkpt>
      <trkpt lat="44.04775" lon="1.86737">
        <ele>262</ele>
        <time>2020-10-04T12:27:21.729Z</time>
      </trkpt>
      <trkpt lat="44.04776" lon="1.86738">
        <ele>262</ele>
        <time>2020-10-04T12:27:22.729Z</time>
      </trkpt>
      <trkpt lat="44.04777" lon="1.86739">
        <ele>262</ele>
        <time>2020-10-04T12:27:23.729Z</time>
      </trkpt>
      <trkpt lat="44.04777" lon="1.8674">
        <ele>263</ele>
        <time>2020-10-04T12:27:24.729Z</time>
      </trkpt>
      <trkpt lat="44.04778" lon="1.86742">
        <ele>263</ele>
        <time>2020-10-04T12:27:25.729Z</time>
      </trkpt>
      <trkpt lat="44.04778" lon="1.86743">
        <ele>263</ele>
        <time>2020-10-04T12:27:26.729Z</time>
      </trkpt>
      <trkpt lat="44.04778" lon="1.86744">
        <ele>263</ele>
        <time>2020-10-04T12:27:27.729Z</time>
      </trkpt>
      <trkpt lat="44.04779" lon="1.86745">
        <ele>263</ele>
        <time>2020-10-04T12:27:28.729Z</time>
      </trkpt>
      <trkpt lat="44.0478" lon="1.86746">
        <ele>263</ele>
        <time>2020-10-04T12:27:29.729Z</time>
      </trkpt>
      <trkpt lat="44.0478" lon="1.86748">
        <ele>263</ele>
        <time>2020-10-04T12:27:30.729Z</time>
      </trkpt>
      <trkpt lat="44.04781" lon="1.86748">
        <ele>263</ele>
        <time>2020-10-04T12:27:31.729Z</time>
      </trkpt>
      <trkpt lat="44.04781" lon="1.86749">
        <ele>264</ele>
        <time>2020-10-04T12:27:32.729Z</time>
      </trkpt>
      <trkpt lat="44.04782" lon="1.8675">
        <ele>264</ele>
        <time>2020-10-04T12:27:33.729Z</time>
      </trkpt>
      <trkpt lat="44.04782" lon="1.86751">
        <ele>264</ele>
        <time>2020-10-04T12:27:34.729Z</time>
      </trkpt>
      <trkpt lat="44.04783" lon="1.86752">
        <ele>264</ele>
        <time>2020-10-04T12:27:35.729Z</time>
      </trkpt>
      <trkpt lat="44.04783" lon="1.86753">
        <ele>264</ele>
        <time>2020-10-04T12:27:36.729Z</time>
      </trkpt>
      <trkpt lat="44.04783" lon="1.86754">
        <ele>265</ele>
        <time>2020-10-04T12:27:37.729Z</time>
      </trkpt>
      <trkpt lat="44.04784" lon="1.86755">
        <ele>265</ele>
        <time>2020-10-04T12:27:38.729Z</time>
      </trkpt>
      <trkpt lat="44.04784" lon="1.86756">
        <ele>265</ele>
        <time>2020-10-04T12:27:39.729Z</time>
      </trkpt>
      <trkpt lat="44.04785" lon="1.86757">
        <ele>265</ele>
        <time>2020-10-04T12:27:40.729Z</time>
      </trkpt>
      <trkpt lat="44.04785" lon="1.86758">
        <ele>265</ele>
        <time>2020-10-04T12:27:41.729Z</time>
      </trkpt>
      <trkpt lat="44.04786" lon="1.86759">
        <ele>265</ele>
        <time>2020-10-04T12:27:42.729Z</time>
      </trkpt>
      <trkpt lat="44.04786" lon="1.8676">
        <ele>265</ele>
        <time>2020-10-04T12:27:43.729Z</time>
      </trkpt>
      <trkpt lat="44.04786" lon="1.86761">
        <ele>266</ele>
        <time>2020-10-04T12:27:44.729Z</time>
      </trkpt>
      <trkpt lat="44.04787" lon="1.86762">
        <ele>266</ele>
        <time>2020-10-04T12:27:45.729Z</time>
      </trkpt>
      <trkpt lat="44.04787" lon="1.86763">
        <ele>266</ele>
        <time>2020-10-04T12:27:46.729Z</time>
      </trkpt>
      <trkpt lat="44.04788" lon="1.86764">
        <ele>266</ele>
        <time>2020-10-04T12:27:47.729Z</time>
      </trkpt>
      <trkpt lat="44.04788" lon="1.86765">
        <ele>266</ele>
        <time>2020-10-04T12:27:48.729Z</time>
      </trkpt>
      <trkpt lat="44.04789" lon="1.86766">
        <ele>266</ele>
        <time>2020-10-04T12:27:49.729Z</time>
      </trkpt>
      <trkpt lat="44.04789" lon="1.86767">
        <ele>266</ele>
        <time>2020-10-04T12:27:50.729Z</time>
      </trkpt>
      <trkpt lat="44.0479" lon="1.86769">
        <ele>266</ele>
        <time>2020-10-04T12:27:51.729Z</time>
      </trkpt>
      <trkpt lat="44.0479" lon="1.8677">
        <ele>266</ele>
        <time>2020-10-04T12:27:52.729Z</time>
      </trkpt>
      <trkpt lat="44.0479" lon="1.86771">
        <ele>266</ele>
        <time>2020-10-04T12:27:53.729Z</time>
      </trkpt>
      <trkpt lat="44.04791" lon="1.86772">
        <ele>266</ele>
        <time>2020-10-04T12:27:54.729Z</time>
      </trkpt>
      <trkpt lat="44.04791" lon="1.86773">
        <ele>266</ele>
        <time>2020-10-04T12:27:55.729Z</time>
      </trkpt>
      <trkpt lat="44.04791" lon="1.86774">
        <ele>266</ele>
        <time>2020-10-04T12:27:56.729Z</time>
      </trkpt>
      <trkpt lat="44.04791" lon="1.86775">
        <ele>266</ele>
        <time>2020-10-04T12:27:57.729Z</time>
      </trkpt>
      <trkpt lat="44.04792" lon="1.86776">
        <ele>266</ele>
        <time>2020-10-04T12:27:58.729Z</time>
      </trkpt>
      <trkpt lat="44.04792" lon="1.86777">
        <ele>266</ele>
        <time>2020-10-04T12:27:59.729Z</time>
      </trkpt>
      <trkpt lat="44.04792" lon="1.86778">
        <ele>266</ele>
        <time>2020-10-04T12:28:00.729Z</time>
      </trkpt>
      <trkpt lat="44.04792" lon="1.86779">
        <ele>266</ele>
        <time>2020-10-04T12:28:01.729Z</time>
      </trkpt>
      <trkpt lat="44.04792" lon="1.8678">
        <ele>266</ele>
        <time>2020-10-04T12:28:02.729Z</time>
      </trkpt>
      <trkpt lat="44.04792" lon="1.86781">
        <ele>267</ele>
        <time>2020-10-04T12:28:03.729Z</time>
      </trkpt>
      <trkpt lat="44.04792" lon="1.86783">
        <ele>267</ele>
        <time>2020-10-04T12:28:04.729Z</time>
      </trkpt>
      <trkpt lat="44.04793" lon="1.86784">
        <ele>267</ele>
        <time>2020-10-04T12:28:05.729Z</time>
      </trkpt>
      <trkpt lat="44.04793" lon="1.86785">
        <ele>267</ele>
        <time>2020-10-04T12:28:06.729Z</time>
      </trkpt>
      <trkpt lat="44.04793" lon="1.86786">
        <ele>267</ele>
        <time>2020-10-04T12:28:07.729Z</time>
      </trkpt>
      <trkpt lat="44.04793" lon="1.86787">
        <ele>267</ele>
        <time>2020-10-04T12:28:08.729Z</time>
      </trkpt>
      <trkpt lat="44.04793" lon="1.86788">
        <ele>267</ele>
        <time>2020-10-04T12:28:09.729Z</time>
      </trkpt>
      <trkpt lat="44.04793" lon="1.86789">
        <ele>268</ele>
        <time>2020-10-04T12:28:10.729Z</time>
      </trkpt>
      <trkpt lat="44.04793" lon="1.8679">
        <ele>268</ele>
        <time>2020-10-04T12:28:11.729Z</time>
      </trkpt>
      <trkpt lat="44.04793" lon="1.86791">
        <ele>268</ele>
        <time>2020-10-04T12:28:12.729Z</time>
      </trkpt>
      <trkpt lat="44.04793" lon="1.86792">
        <ele>268</ele>
        <time>2020-10-04T12:28:13.729Z</time>
      </trkpt>
      <trkpt lat="44.04794" lon="1.86793">
        <ele>268</ele>
        <time>2020-10-04T12:28:14.729Z</time>
      </trkpt>
      <trkpt lat="44.04794" lon="1.86794">
        <ele>268</ele>
        <time>2020-10-04T12:28:15.729Z</time>
      </trkpt>
      <trkpt lat="44.04794" lon="1.86795">
        <ele>268</ele>
        <time>2020-10-04T12:28:16.729Z</time>
      </trkpt>
      <trkpt lat="44.04794" lon="1.86797">
        <ele>269</ele>
        <time>2020-10-04T12:28:17.729Z</time>
      </trkpt>
      <trkpt lat="44.04794" lon="1.86798">
        <ele>269</ele>
        <time>2020-10-04T12:28:18.729Z</time>
      </trkpt>
      <trkpt lat="44.04794" lon="1.86799">
        <ele>269</ele>
        <time>2020-10-04T12:28:19.729Z</time>
      </trkpt>
      <trkpt lat="44.04794" lon="1.868">
        <ele>269</ele>
        <time>2020-10-04T12:28:20.729Z</time>
      </trkpt>
      <trkpt lat="44.04794" lon="1.86801">
        <ele>269</ele>
        <time>2020-10-04T12:28:21.729Z</time>
      </trkpt>
      <trkpt lat="44.04794" lon="1.86802">
        <ele>269</ele>
        <time>2020-10-04T12:28:22.729Z</time>
      </trkpt>
      <trkpt lat="44.04794" lon="1.86804">
        <ele>269</ele>
        <time>2020-10-04T12:28:23.729Z</time>
      </trkpt>
      <trkpt lat="44.04794" lon="1.86805">
        <ele>270</ele>
        <time>2020-10-04T12:28:24.729Z</time>
      </trkpt>
      <trkpt lat="44.04794" lon="1.86806">
        <ele>270</ele>
        <time>2020-10-04T12:28:25.729Z</time>
      </trkpt>
      <trkpt lat="44.04794" lon="1.86807">
        <ele>270</ele>
        <time>2020-10-04T12:28:26.729Z</time>
      </trkpt>
      <trkpt lat="44.04794" lon="1.86808">
        <ele>270</ele>
        <time>2020-10-04T12:28:27.729Z</time>
      </trkpt>
      <trkpt lat="44.04794" lon="1.8681">
        <ele>270</ele>
        <time>2020-10-04T12:28:28.729Z</time>
      </trkpt>
      <trkpt lat="44.04794" lon="1.8681">
        <ele>270</ele>
        <time>2020-10-04T12:28:29.729Z</time>
      </trkpt>
      <trkpt lat="44.04794" lon="1.86812">
        <ele>270</ele>
        <time>2020-10-04T12:28:30.729Z</time>
      </trkpt>
      <trkpt lat="44.04794" lon="1.86813">
        <ele>270</ele>
        <time>2020-10-04T12:28:31.729Z</time>
      </trkpt>
      <trkpt lat="44.04794" lon="1.86814">
        <ele>270</ele>
        <time>2020-10-04T12:28:32.729Z</time>
      </trkpt>
      <trkpt lat="44.04794" lon="1.86815">
        <ele>271</ele>
        <time>2020-10-04T12:28:33.729Z</time>
      </trkpt>
      <trkpt lat="44.04794" lon="1.86816">
        <ele>271</ele>
        <time>2020-10-04T12:28:34.729Z</time>
      </trkpt>
      <trkpt lat="44.04794" lon="1.86817">
        <ele>271</ele>
        <time>2020-10-04T12:28:35.729Z</time>
      </trkpt>
      <trkpt lat="44.04794" lon="1.86818">
        <ele>271</ele>
        <time>2020-10-04T12:28:36.729Z</time>
      </trkpt>
      <trkpt lat="44.04794" lon="1.8682">
        <ele>271</ele>
        <time>2020-10-04T12:28:37.729Z</time>
      </trkpt>
      <trkpt lat="44.04794" lon="1.86821">
        <ele>271</ele>
        <time>2020-10-04T12:28:38.729Z</time>
      </trkpt>
      <trkpt lat="44.04794" lon="1.86822">
        <ele>271</ele>
        <time>2020-10-04T12:28:39.729Z</time>
      </trkpt>
      <trkpt lat="44.04794" lon="1.86823">
        <ele>271</ele>
        <time>2020-10-04T12:28:40.729Z</time>
      </trkpt>
      <trkpt lat="44.04794" lon="1.86824">
        <ele>272</ele>
        <time>2020-10-04T12:28:41.729Z</time>
      </trkpt>
      <trkpt lat="44.04794" lon="1.86825">
        <ele>272</ele>
        <time>2020-10-04T12:28:42.729Z</time>
      </trkpt>
      <trkpt lat="44.04794" lon="1.86826">
        <ele>272</ele>
        <time>2020-10-04T12:28:43.729Z</time>
      </trkpt>
      <trkpt lat="44.04794" lon="1.86828">
        <ele>272</ele>
        <time>2020-10-04T12:28:44.729Z</time>
      </trkpt>
      <trkpt lat="44.04794" lon="1.86829">
        <ele>272</ele>
        <time>2020-10-04T12:28:45.729Z</time>
      </trkpt>
      <trkpt lat="44.04794" lon="1.8683">
        <ele>272</ele>
        <time>2020-10-04T12:28:46.729Z</time>
      </trkpt>
      <trkpt lat="44.04794" lon="1.86831">
        <ele>272</ele>
        <time>2020-10-04T12:28:47.729Z</time>
      </trkpt>
      <trkpt lat="44.04794" lon="1.86832">
        <ele>272</ele>
        <time>2020-10-04T12:28:48.729Z</time>
      </trkpt>
      <trkpt lat="44.04794" lon="1.86833">
        <ele>272</ele>
        <time>2020-10-04T12:28:49.729Z</time>
      </trkpt>
      <trkpt lat="44.04794" lon="1.86835">
        <ele>272</ele>
        <time>2020-10-04T12:28:50.729Z</time>
      </trkpt>
      <trkpt lat="44.04794" lon="1.86836">
        <ele>272</ele>
        <time>2020-10-04T12:28:51.729Z</time>
      </trkpt>
      <trkpt lat="44.04793" lon="1.86837">
        <ele>272</ele>
        <time>2020-10-04T12:28:52.729Z</time>
      </trkpt>
      <trkpt lat="44.04793" lon="1.86838">
        <ele>272</ele>
        <time>2020-10-04T12:28:53.729Z</time>
      </trkpt>
      <trkpt lat="44.04793" lon="1.86839">
        <ele>272</ele>
        <time>2020-10-04T12:28:54.729Z</time>
      </trkpt>
      <trkpt lat="44.04793" lon="1.86841">
        <ele>272</ele>
        <time>2020-10-04T12:28:55.729Z</time>
      </trkpt>
      <trkpt lat="44.04793" lon="1.86842">
        <ele>272</ele>
        <time>2020-10-04T12:28:56.729Z</time>
      </trkpt>
      <trkpt lat="44.04793" lon="1.86843">
        <ele>272</ele>
        <time>2020-10-04T12:28:57.729Z</time>
      </trkpt>
      <trkpt lat="44.04793" lon="1.86844">
        <ele>272</ele>
        <time>2020-10-04T12:28:58.729Z</time>
      </trkpt>
      <trkpt lat="44.04793" lon="1.86845">
        <ele>272</ele>
        <time>2020-10-04T12:28:59.729Z</time>
      </trkpt>
      <trkpt lat="44.04793" lon="1.86847">
        <ele>272</ele>
        <time>2020-10-04T12:29:00.729Z</time>
      </trkpt>
      <trkpt lat="44.04793" lon="1.86848">
        <ele>272</ele>
        <time>2020-10-04T12:29:01.729Z</time>
      </trkpt>
      <trkpt lat="44.04793" lon="1.86849">
        <ele>272</ele>
        <time>2020-10-04T12:29:02.729Z</time>
      </trkpt>
      <trkpt lat="44.04793" lon="1.8685">
        <ele>273</ele>
        <time>2020-10-04T12:29:03.729Z</time>
      </trkpt>
      <trkpt lat="44.04792" lon="1.86851">
        <ele>273</ele>
        <time>2020-10-04T12:29:04.729Z</time>
      </trkpt>
      <trkpt lat="44.04792" lon="1.86853">
        <ele>273</ele>
        <time>2020-10-04T12:29:05.729Z</time>
      </trkpt>
      <trkpt lat="44.04792" lon="1.86854">
        <ele>273</ele>
        <time>2020-10-04T12:29:06.729Z</time>
      </trkpt>
      <trkpt lat="44.04792" lon="1.86855">
        <ele>273</ele>
        <time>2020-10-04T12:29:07.729Z</time>
      </trkpt>
      <trkpt lat="44.04792" lon="1.86856">
        <ele>274</ele>
        <time>2020-10-04T12:29:08.729Z</time>
      </trkpt>
      <trkpt lat="44.04791" lon="1.86857">
        <ele>274</ele>
        <time>2020-10-04T12:29:09.729Z</time>
      </trkpt>
      <trkpt lat="44.04791" lon="1.86858">
        <ele>274</ele>
        <time>2020-10-04T12:29:10.729Z</time>
      </trkpt>
      <trkpt lat="44.04791" lon="1.86859">
        <ele>274</ele>
        <time>2020-10-04T12:29:11.729Z</time>
      </trkpt>
      <trkpt lat="44.04791" lon="1.8686">
        <ele>274</ele>
        <time>2020-10-04T12:29:12.729Z</time>
      </trkpt>
      <trkpt lat="44.04791" lon="1.86862">
        <ele>275</ele>
        <time>2020-10-04T12:29:13.729Z</time>
      </trkpt>
      <trkpt lat="44.04791" lon="1.86863">
        <ele>275</ele>
        <time>2020-10-04T12:29:14.729Z</time>
      </trkpt>
      <trkpt lat="44.04791" lon="1.86864">
        <ele>275</ele>
        <time>2020-10-04T12:29:15.729Z</time>
      </trkpt>
      <trkpt lat="44.04791" lon="1.86864">
        <ele>275</ele>
        <time>2020-10-04T12:29:16.729Z</time>
      </trkpt>
      <trkpt lat="44.04791" lon="1.86865">
        <ele>275</ele>
        <time>2020-10-04T12:29:17.729Z</time>
      </trkpt>
      <trkpt lat="44.04791" lon="1.86866">
        <ele>275</ele>
        <time>2020-10-04T12:29:18.729Z</time>
      </trkpt>
      <trkpt lat="44.04791" lon="1.86868">
        <ele>275</ele>
        <time>2020-10-04T12:29:19.729Z</time>
      </trkpt>
      <trkpt lat="44.04791" lon="1.86869">
        <ele>275</ele>
        <time>2020-10-04T12:29:20.729Z</time>
      </trkpt>
      <trkpt lat="44.04791" lon="1.8687">
        <ele>276</ele>
        <time>2020-10-04T12:29:21.729Z</time>
      </trkpt>
      <trkpt lat="44.04791" lon="1.86871">
        <ele>276</ele>
        <time>2020-10-04T12:29:22.729Z</time>
      </trkpt>
      <trkpt lat="44.04791" lon="1.86872">
        <ele>276</ele>
        <time>2020-10-04T12:29:23.729Z</time>
      </trkpt>
      <trkpt lat="44.04791" lon="1.86873">
        <ele>276</ele>
        <time>2020-10-04T12:29:24.729Z</time>
      </trkpt>
      <trkpt lat="44.04791" lon="1.86874">
        <ele>276</ele>
        <time>2020-10-04T12:29:25.729Z</time>
      </trkpt>
      <trkpt lat="44.04791" lon="1.86875">
        <ele>276</ele>
        <time>2020-10-04T12:29:26.729Z</time>
      </trkpt>
      <trkpt lat="44.04791" lon="1.86876">
        <ele>276</ele>
        <time>2020-10-04T12:29:27.729Z</time>
      </trkpt>
      <trkpt lat="44.04791" lon="1.86878">
        <ele>276</ele>
        <time>2020-10-04T12:29:28.729Z</time>
      </trkpt>
      <trkpt lat="44.04791" lon="1.86879">
        <ele>276</ele>
        <time>2020-10-04T12:29:29.729Z</time>
      </trkpt>
      <trkpt lat="44.04791" lon="1.8688">
        <ele>277</ele>
        <time>2020-10-04T12:29:30.729Z</time>
      </trkpt>
      <trkpt lat="44.0479" lon="1.86881">
        <ele>277</ele>
        <time>2020-10-04T12:29:31.729Z</time>
      </trkpt>
      <trkpt lat="44.0479" lon="1.86882">
        <ele>277</ele>
        <time>2020-10-04T12:29:32.729Z</time>
      </trkpt>
      <trkpt lat="44.0479" lon="1.86884">
        <ele>277</ele>
        <time>2020-10-04T12:29:33.729Z</time>
      </trkpt>
      <trkpt lat="44.0479" lon="1.86885">
        <ele>277</ele>
        <time>2020-10-04T12:29:34.729Z</time>
      </trkpt>
      <trkpt lat="44.0479" lon="1.86886">
        <ele>277</ele>
        <time>2020-10-04T12:29:35.729Z</time>
      </trkpt>
      <trkpt lat="44.04789" lon="1.86888">
        <ele>278</ele>
        <time>2020-10-04T12:29:36.729Z</time>
      </trkpt>
      <trkpt lat="44.04789" lon="1.86889">
        <ele>278</ele>
        <time>2020-10-04T12:29:37.729Z</time>
      </trkpt>
      <trkpt lat="44.04789" lon="1.8689">
        <ele>278</ele>
        <time>2020-10-04T12:29:38.729Z</time>
      </trkpt>
      <trkpt lat="44.04789" lon="1.86891">
        <ele>278</ele>
        <time>2020-10-04T12:29:39.729Z</time>
      </trkpt>
      <trkpt lat="44.04789" lon="1.86892">
        <ele>278</ele>
        <time>2020-10-04T12:29:40.729Z</time>
      </trkpt>
      <trkpt lat="44.04788" lon="1.86893">
        <ele>278</ele>
        <time>2020-10-04T12:29:41.729Z</time>
      </trkpt>
      <trkpt lat="44.04788" lon="1.86895">
        <ele>278</ele>
        <time>2020-10-04T12:29:42.729Z</time>
      </trkpt>
      <trkpt lat="44.04787" lon="1.86896">
        <ele>279</ele>
        <time>2020-10-04T12:29:43.729Z</time>
      </trkpt>
      <trkpt lat="44.04787" lon="1.86897">
        <ele>279</ele>
        <time>2020-10-04T12:29:44.729Z</time>
      </trkpt>
      <trkpt lat="44.04787" lon="1.86898">
        <ele>279</ele>
        <time>2020-10-04T12:29:45.729Z</time>
      </trkpt>
      <trkpt lat="44.04786" lon="1.869">
        <ele>279</ele>
        <time>2020-10-04T12:29:46.729Z</time>
      </trkpt>
      <trkpt lat="44.04786" lon="1.86901">
        <ele>279</ele>
        <time>2020-10-04T12:29:47.729Z</time>
      </trkpt>
      <trkpt lat="44.04786" lon="1.86902">
        <ele>280</ele>
        <time>2020-10-04T12:29:48.729Z</time>
      </trkpt>
      <trkpt lat="44.04786" lon="1.86903">
        <ele>280</ele>
        <time>2020-10-04T12:29:49.729Z</time>
      </trkpt>
      <trkpt lat="44.04785" lon="1.86905">
        <ele>280</ele>
        <time>2020-10-04T12:29:50.729Z</time>
      </trkpt>
      <trkpt lat="44.04785" lon="1.86906">
        <ele>280</ele>
        <time>2020-10-04T12:29:51.729Z</time>
      </trkpt>
      <trkpt lat="44.04785" lon="1.86907">
        <ele>280</ele>
        <time>2020-10-04T12:29:52.729Z</time>
      </trkpt>
      <trkpt lat="44.04785" lon="1.86908">
        <ele>280</ele>
        <time>2020-10-04T12:29:53.729Z</time>
      </trkpt>
      <trkpt lat="44.04784" lon="1.86909">
        <ele>280</ele>
        <time>2020-10-04T12:29:54.729Z</time>
      </trkpt>
      <trkpt lat="44.04784" lon="1.8691">
        <ele>280</ele>
        <time>2020-10-04T12:29:55.729Z</time>
      </trkpt>
      <trkpt lat="44.04784" lon="1.86911">
        <ele>280</ele>
        <time>2020-10-04T12:29:56.729Z</time>
      </trkpt>
      <trkpt lat="44.04783" lon="1.86912">
        <ele>280</ele>
        <time>2020-10-04T12:29:57.729Z</time>
      </trkpt>
      <trkpt lat="44.04783" lon="1.86913">
        <ele>280</ele>
        <time>2020-10-04T12:29:58.729Z</time>
      </trkpt>
      <trkpt lat="44.04783" lon="1.86914">
        <ele>280</ele>
        <time>2020-10-04T12:29:59.729Z</time>
      </trkpt>
      <trkpt lat="44.04783" lon="1.86915">
        <ele>280</ele>
        <time>2020-10-04T12:30:00.729Z</time>
      </trkpt>
      <trkpt lat="44.04782" lon="1.86917">
        <ele>280</ele>
        <time>2020-10-04T12:30:01.729Z</time>
      </trkpt>
      <trkpt lat="44.04782" lon="1.86918">
        <ele>280</ele>
        <time>2020-10-04T12:30:02.729Z</time>
      </trkpt>
      <trkpt lat="44.04782" lon="1.86919">
        <ele>280</ele>
        <time>2020-10-04T12:30:03.729Z</time>
      </trkpt>
      <trkpt lat="44.04781" lon="1.8692">
        <ele>280</ele>
        <time>2020-10-04T12:30:04.729Z</time>
      </trkpt>
      <trkpt lat="44.04781" lon="1.86922">
        <ele>281</ele>
        <time>2020-10-04T12:30:05.729Z</time>
      </trkpt>
      <trkpt lat="44.04781" lon="1.86923">
        <ele>281</ele>
        <time>2020-10-04T12:30:06.729Z</time>
      </trkpt>
      <trkpt lat="44.0478" lon="1.86924">
        <ele>281</ele>
        <time>2020-10-04T12:30:07.729Z</time>
      </trkpt>
      <trkpt lat="44.0478" lon="1.86925">
        <ele>281</ele>
        <time>2020-10-04T12:30:08.729Z</time>
      </trkpt>
      <trkpt lat="44.0478" lon="1.86926">
        <ele>281</ele>
        <time>2020-10-04T12:30:09.729Z</time>
      </trkpt>
      <trkpt lat="44.0478" lon="1.86928">
        <ele>281</ele>
        <time>2020-10-04T12:30:10.729Z</time>
      </trkpt>
      <trkpt lat="44.04779" lon="1.86929">
        <ele>281</ele>
        <time>2020-10-04T12:30:11.729Z</time>
      </trkpt>
      <trkpt lat="44.04779" lon="1.8693">
        <ele>281</ele>
        <time>2020-10-04T12:30:12.729Z</time>
      </trkpt>
      <trkpt lat="44.04779" lon="1.86932">
        <ele>281</ele>
        <time>2020-10-04T12:30:13.729Z</time>
      </trkpt>
      <trkpt lat="44.04778" lon="1.86933">
        <ele>281</ele>
        <time>2020-10-04T12:30:14.729Z</time>
      </trkpt>
      <trkpt lat="44.04778" lon="1.86935">
        <ele>281</ele>
        <time>2020-10-04T12:30:15.729Z</time>
      </trkpt>
      <trkpt lat="44.04778" lon="1.86936">
        <ele>281</ele>
        <time>2020-10-04T12:30:16.729Z</time>
      </trkpt>
      <trkpt lat="44.04778" lon="1.86938">
        <ele>281</ele>
        <time>2020-10-04T12:30:17.729Z</time>
      </trkpt>
      <trkpt lat="44.04778" lon="1.86939">
        <ele>281</ele>
        <time>2020-10-04T12:30:18.729Z</time>
      </trkpt>
      <trkpt lat="44.04778" lon="1.8694">
        <ele>281</ele>
        <time>2020-10-04T12:30:19.729Z</time>
      </trkpt>
      <trkpt lat="44.04777" lon="1.86941">
        <ele>281</ele>
        <time>2020-10-04T12:30:20.729Z</time>
      </trkpt>
      <trkpt lat="44.04777" lon="1.86942">
        <ele>281</ele>
        <time>2020-10-04T12:30:21.729Z</time>
      </trkpt>
      <trkpt lat="44.04777" lon="1.86942">
        <ele>281</ele>
        <time>2020-10-04T12:30:22.729Z</time>
      </trkpt>
      <trkpt lat="44.04777" lon="1.86942">
        <ele>281</ele>
        <time>2020-10-04T12:30:23.729Z</time>
      </trkpt>
      <trkpt lat="44.04777" lon="1.86942">
        <ele>281</ele>
        <time>2020-10-04T12:30:24.729Z</time>
      </trkpt>
      <trkpt lat="44.04777" lon="1.86944">
        <ele>282</ele>
        <time>2020-10-04T12:30:25.729Z</time>
      </trkpt>
      <trkpt lat="44.04777" lon="1.86945">
        <ele>282</ele>
        <time>2020-10-04T12:30:26.729Z</time>
      </trkpt>
      <trkpt lat="44.04776" lon="1.86946">
        <ele>282</ele>
        <time>2020-10-04T12:30:27.729Z</time>
      </trkpt>
      <trkpt lat="44.04776" lon="1.86947">
        <ele>282</ele>
        <time>2020-10-04T12:30:28.729Z</time>
      </trkpt>
      <trkpt lat="44.04775" lon="1.86949">
        <ele>282</ele>
        <time>2020-10-04T12:30:29.729Z</time>
      </trkpt>
      <trkpt lat="44.04775" lon="1.8695">
        <ele>282</ele>
        <time>2020-10-04T12:30:30.729Z</time>
      </trkpt>
      <trkpt lat="44.04774" lon="1.86951">
        <ele>282</ele>
        <time>2020-10-04T12:30:31.729Z</time>
      </trkpt>
      <trkpt lat="44.04774" lon="1.86952">
        <ele>282</ele>
        <time>2020-10-04T12:30:32.729Z</time>
      </trkpt>
      <trkpt lat="44.04774" lon="1.86954">
        <ele>282</ele>
        <time>2020-10-04T12:30:33.729Z</time>
      </trkpt>
      <trkpt lat="44.04774" lon="1.86955">
        <ele>282</ele>
        <time>2020-10-04T12:30:34.729Z</time>
      </trkpt>
      <trkpt lat="44.04773" lon="1.86956">
        <ele>282</ele>
        <time>2020-10-04T12:30:35.729Z</time>
      </trkpt>
      <trkpt lat="44.04773" lon="1.86957">
        <ele>282</ele>
        <time>2020-10-04T12:30:36.729Z</time>
      </trkpt>
      <trkpt lat="44.04772" lon="1.86959">
        <ele>282</ele>
        <time>2020-10-04T12:30:37.729Z</time>
      </trkpt>
      <trkpt lat="44.04772" lon="1.8696">
        <ele>282</ele>
        <time>2020-10-04T12:30:38.729Z</time>
      </trkpt>
      <trkpt lat="44.04771" lon="1.86961">
        <ele>283</ele>
        <time>2020-10-04T12:30:39.729Z</time>
      </trkpt>
      <trkpt lat="44.04771" lon="1.86963">
        <ele>283</ele>
        <time>2020-10-04T12:30:40.729Z</time>
      </trkpt>
      <trkpt lat="44.0477" lon="1.86964">
        <ele>283</ele>
        <time>2020-10-04T12:30:41.729Z</time>
      </trkpt>
      <trkpt lat="44.0477" lon="1.86965">
        <ele>283</ele>
        <time>2020-10-04T12:30:42.729Z</time>
      </trkpt>
      <trkpt lat="44.0477" lon="1.86967">
        <ele>283</ele>
        <time>2020-10-04T12:30:43.729Z</time>
      </trkpt>
      <trkpt lat="44.0477" lon="1.86968">
        <ele>283</ele>
        <time>2020-10-04T12:30:44.729Z</time>
      </trkpt>
      <trkpt lat="44.04769" lon="1.86969">
        <ele>283</ele>
        <time>2020-10-04T12:30:45.729Z</time>
      </trkpt>
      <trkpt lat="44.04769" lon="1.8697">
        <ele>283</ele>
        <time>2020-10-04T12:30:46.729Z</time>
      </trkpt>
      <trkpt lat="44.04768" lon="1.86971">
        <ele>284</ele>
        <time>2020-10-04T12:30:47.729Z</time>
      </trkpt>
      <trkpt lat="44.04768" lon="1.86973">
        <ele>284</ele>
        <time>2020-10-04T12:30:48.729Z</time>
      </trkpt>
      <trkpt lat="44.04768" lon="1.86974">
        <ele>284</ele>
        <time>2020-10-04T12:30:49.729Z</time>
      </trkpt>
      <trkpt lat="44.04767" lon="1.86975">
        <ele>284</ele>
        <time>2020-10-04T12:30:50.729Z</time>
      </trkpt>
      <trkpt lat="44.04767" lon="1.86976">
        <ele>284</ele>
        <time>2020-10-04T12:30:51.729Z</time>
      </trkpt>
      <trkpt lat="44.04766" lon="1.86977">
        <ele>284</ele>
        <time>2020-10-04T12:30:52.729Z</time>
      </trkpt>
      <trkpt lat="44.04766" lon="1.86978">
        <ele>284</ele>
        <time>2020-10-04T12:30:53.729Z</time>
      </trkpt>
      <trkpt lat="44.04766" lon="1.86979">
        <ele>285</ele>
        <time>2020-10-04T12:30:54.729Z</time>
      </trkpt>
      <trkpt lat="44.04765" lon="1.8698">
        <ele>285</ele>
        <time>2020-10-04T12:30:55.729Z</time>
      </trkpt>
      <trkpt lat="44.04765" lon="1.86981">
        <ele>285</ele>
        <time>2020-10-04T12:30:56.729Z</time>
      </trkpt>
      <trkpt lat="44.04764" lon="1.86982">
        <ele>285</ele>
        <time>2020-10-04T12:30:57.729Z</time>
      </trkpt>
      <trkpt lat="44.04764" lon="1.86983">
        <ele>285</ele>
        <time>2020-10-04T12:30:58.729Z</time>
      </trkpt>
      <trkpt lat="44.04763" lon="1.86984">
        <ele>285</ele>
        <time>2020-10-04T12:30:59.729Z</time>
      </trkpt>
      <trkpt lat="44.04763" lon="1.86984">
        <ele>285</ele>
        <time>2020-10-04T12:31:00.729Z</time>
      </trkpt>
      <trkpt lat="44.04763" lon="1.86985">
        <ele>285</ele>
        <time>2020-10-04T12:31:01.729Z</time>
      </trkpt>
      <trkpt lat="44.04762" lon="1.86987">
        <ele>286</ele>
        <time>2020-10-04T12:31:02.729Z</time>
      </trkpt>
      <trkpt lat="44.04761" lon="1.86988">
        <ele>286</ele>
        <time>2020-10-04T12:31:03.729Z</time>
      </trkpt>
      <trkpt lat="44.04761" lon="1.86989">
        <ele>286</ele>
        <time>2020-10-04T12:31:04.729Z</time>
      </trkpt>
      <trkpt lat="44.0476" lon="1.8699">
        <ele>286</ele>
        <time>2020-10-04T12:31:05.729Z</time>
      </trkpt>
      <trkpt lat="44.0476" lon="1.86991">
        <ele>286</ele>
        <time>2020-10-04T12:31:06.729Z</time>
      </trkpt>
      <trkpt lat="44.04759" lon="1.86992">
        <ele>286</ele>
        <time>2020-10-04T12:31:07.729Z</time>
      </trkpt>
      <trkpt lat="44.04759" lon="1.86993">
        <ele>286</ele>
        <time>2020-10-04T12:31:08.729Z</time>
      </trkpt>
      <trkpt lat="44.04759" lon="1.86995">
        <ele>286</ele>
        <time>2020-10-04T12:31:09.729Z</time>
      </trkpt>
      <trkpt lat="44.04759" lon="1.86996">
        <ele>286</ele>
        <time>2020-10-04T12:31:10.729Z</time>
      </trkpt>
      <trkpt lat="44.04758" lon="1.86998">
        <ele>286</ele>
        <time>2020-10-04T12:31:11.729Z</time>
      </trkpt>
      <trkpt lat="44.04757" lon="1.86999">
        <ele>286</ele>
        <time>2020-10-04T12:31:12.729Z</time>
      </trkpt>
      <trkpt lat="44.04757" lon="1.87">
        <ele>286</ele>
        <time>2020-10-04T12:31:13.729Z</time>
      </trkpt>
      <trkpt lat="44.04756" lon="1.87002">
        <ele>286</ele>
        <time>2020-10-04T12:31:14.729Z</time>
      </trkpt>
      <trkpt lat="44.04755" lon="1.87003">
        <ele>286</ele>
        <time>2020-10-04T12:31:15.729Z</time>
      </trkpt>
      <trkpt lat="44.04755" lon="1.87005">
        <ele>287</ele>
        <time>2020-10-04T12:31:16.729Z</time>
      </trkpt>
      <trkpt lat="44.04754" lon="1.87006">
        <ele>287</ele>
        <time>2020-10-04T12:31:17.729Z</time>
      </trkpt>
      <trkpt lat="44.04754" lon="1.87007">
        <ele>287</ele>
        <time>2020-10-04T12:31:18.729Z</time>
      </trkpt>
      <trkpt lat="44.04754" lon="1.87008">
        <ele>287</ele>
        <time>2020-10-04T12:31:19.729Z</time>
      </trkpt>
      <trkpt lat="44.04754" lon="1.87009">
        <ele>287</ele>
        <time>2020-10-04T12:31:20.729Z</time>
      </trkpt>
      <trkpt lat="44.04754" lon="1.8701">
        <ele>287</ele>
        <time>2020-10-04T12:31:21.729Z</time>
      </trkpt>
      <trkpt lat="44.04753" lon="1.87012">
        <ele>287</ele>
        <time>2020-10-04T12:31:22.729Z</time>
      </trkpt>
      <trkpt lat="44.04753" lon="1.87013">
        <ele>287</ele>
        <time>2020-10-04T12:31:23.729Z</time>
      </trkpt>
      <trkpt lat="44.04752" lon="1.87015">
        <ele>287</ele>
        <time>2020-10-04T12:31:24.729Z</time>
      </trkpt>
      <trkpt lat="44.04752" lon="1.87016">
        <ele>288</ele>
        <time>2020-10-04T12:31:25.729Z</time>
      </trkpt>
      <trkpt lat="44.04752" lon="1.87017">
        <ele>288</ele>
        <time>2020-10-04T12:31:26.729Z</time>
      </trkpt>
      <trkpt lat="44.04752" lon="1.87018">
        <ele>288</ele>
        <time>2020-10-04T12:31:27.729Z</time>
      </trkpt>
      <trkpt lat="44.04751" lon="1.8702">
        <ele>288</ele>
        <time>2020-10-04T12:31:28.729Z</time>
      </trkpt>
      <trkpt lat="44.04751" lon="1.87021">
        <ele>288</ele>
        <time>2020-10-04T12:31:29.729Z</time>
      </trkpt>
      <trkpt lat="44.04751" lon="1.87023">
        <ele>288</ele>
        <time>2020-10-04T12:31:30.729Z</time>
      </trkpt>
      <trkpt lat="44.04751" lon="1.87024">
        <ele>288</ele>
        <time>2020-10-04T12:31:31.729Z</time>
      </trkpt>
      <trkpt lat="44.04751" lon="1.87026">
        <ele>288</ele>
        <time>2020-10-04T12:31:32.729Z</time>
      </trkpt>
      <trkpt lat="44.04751" lon="1.87027">
        <ele>288</ele>
        <time>2020-10-04T12:31:33.729Z</time>
      </trkpt>
      <trkpt lat="44.04751" lon="1.87028">
        <ele>288</ele>
        <time>2020-10-04T12:31:34.729Z</time>
      </trkpt>
      <trkpt lat="44.04751" lon="1.8703">
        <ele>288</ele>
        <time>2020-10-04T12:31:35.729Z</time>
      </trkpt>
      <trkpt lat="44.04751" lon="1.87031">
        <ele>288</ele>
        <time>2020-10-04T12:31:36.729Z</time>
      </trkpt>
      <trkpt lat="44.04751" lon="1.87033">
        <ele>288</ele>
        <time>2020-10-04T12:31:37.729Z</time>
      </trkpt>
      <trkpt lat="44.04751" lon="1.87034">
        <ele>289</ele>
        <time>2020-10-04T12:31:38.729Z</time>
      </trkpt>
      <trkpt lat="44.04751" lon="1.87036">
        <ele>289</ele>
        <time>2020-10-04T12:31:39.729Z</time>
      </trkpt>
      <trkpt lat="44.04751" lon="1.87038">
        <ele>289</ele>
        <time>2020-10-04T12:31:40.729Z</time>
      </trkpt>
      <trkpt lat="44.04751" lon="1.87039">
        <ele>289</ele>
        <time>2020-10-04T12:31:41.729Z</time>
      </trkpt>
      <trkpt lat="44.04751" lon="1.8704">
        <ele>289</ele>
        <time>2020-10-04T12:31:42.729Z</time>
      </trkpt>
      <trkpt lat="44.0475" lon="1.87042">
        <ele>290</ele>
        <time>2020-10-04T12:31:43.729Z</time>
      </trkpt>
      <trkpt lat="44.0475" lon="1.87043">
        <ele>290</ele>
        <time>2020-10-04T12:31:44.729Z</time>
      </trkpt>
      <trkpt lat="44.0475" lon="1.87045">
        <ele>290</ele>
        <time>2020-10-04T12:31:45.729Z</time>
      </trkpt>
      <trkpt lat="44.0475" lon="1.87046">
        <ele>290</ele>
        <time>2020-10-04T12:31:46.729Z</time>
      </trkpt>
      <trkpt lat="44.0475" lon="1.87048">
        <ele>290</ele>
        <time>2020-10-04T12:31:47.729Z</time>
      </trkpt>
      <trkpt lat="44.0475" lon="1.87049">
        <ele>290</ele>
        <time>2020-10-04T12:31:48.729Z</time>
      </trkpt>
      <trkpt lat="44.0475" lon="1.87051">
        <ele>290</ele>
        <time>2020-10-04T12:31:49.729Z</time>
      </trkpt>
      <trkpt lat="44.0475" lon="1.87053">
        <ele>290</ele>
        <time>2020-10-04T12:31:50.729Z</time>
      </trkpt>
      <trkpt lat="44.0475" lon="1.87054">
        <ele>290</ele>
        <time>2020-10-04T12:31:51.729Z</time>
      </trkpt>
      <trkpt lat="44.0475" lon="1.87056">
        <ele>290</ele>
        <time>2020-10-04T12:31:52.729Z</time>
      </trkpt>
      <trkpt lat="44.04749" lon="1.87057">
        <ele>290</ele>
        <time>2020-10-04T12:31:53.729Z</time>
      </trkpt>
      <trkpt lat="44.04749" lon="1.87059">
        <ele>290</ele>
        <time>2020-10-04T12:31:54.729Z</time>
      </trkpt>
      <trkpt lat="44.04749" lon="1.87061">
        <ele>290</ele>
        <time>2020-10-04T12:31:55.729Z</time>
      </trkpt>
      <trkpt lat="44.04749" lon="1.87062">
        <ele>290</ele>
        <time>2020-10-04T12:31:56.729Z</time>
      </trkpt>
      <trkpt lat="44.04748" lon="1.87064">
        <ele>289</ele>
        <time>2020-10-04T12:31:57.729Z</time>
      </trkpt>
      <trkpt lat="44.04748" lon="1.87065">
        <ele>289</ele>
        <time>2020-10-04T12:31:58.729Z</time>
      </trkpt>
      <trkpt lat="44.04748" lon="1.87067">
        <ele>289</ele>
        <time>2020-10-04T12:31:59.729Z</time>
      </trkpt>
      <trkpt lat="44.04748" lon="1.87068">
        <ele>289</ele>
        <time>2020-10-04T12:32:00.729Z</time>
      </trkpt>
      <trkpt lat="44.04748" lon="1.8707">
        <ele>289</ele>
        <time>2020-10-04T12:32:01.729Z</time>
      </trkpt>
      <trkpt lat="44.04747" lon="1.87072">
        <ele>289</ele>
        <time>2020-10-04T12:32:02.729Z</time>
      </trkpt>
      <trkpt lat="44.04747" lon="1.87073">
        <ele>289</ele>
        <time>2020-10-04T12:32:03.729Z</time>
      </trkpt>
      <trkpt lat="44.04747" lon="1.87075">
        <ele>289</ele>
        <time>2020-10-04T12:32:04.729Z</time>
      </trkpt>
      <trkpt lat="44.04747" lon="1.87076">
        <ele>289</ele>
        <time>2020-10-04T12:32:05.729Z</time>
      </trkpt>
      <trkpt lat="44.04747" lon="1.87078">
        <ele>289</ele>
        <time>2020-10-04T12:32:06.729Z</time>
      </trkpt>
      <trkpt lat="44.04747" lon="1.87079">
        <ele>289</ele>
        <time>2020-10-04T12:32:07.729Z</time>
      </trkpt>
      <trkpt lat="44.04748" lon="1.87081">
        <ele>289</ele>
        <time>2020-10-04T12:32:08.729Z</time>
      </trkpt>
      <trkpt lat="44.04748" lon="1.87082">
        <ele>289</ele>
        <time>2020-10-04T12:32:09.729Z</time>
      </trkpt>
      <trkpt lat="44.04748" lon="1.87084">
        <ele>289</ele>
        <time>2020-10-04T12:32:10.729Z</time>
      </trkpt>
      <trkpt lat="44.04748" lon="1.87086">
        <ele>289</ele>
        <time>2020-10-04T12:32:11.729Z</time>
      </trkpt>
      <trkpt lat="44.04748" lon="1.87087">
        <ele>289</ele>
        <time>2020-10-04T12:32:12.729Z</time>
      </trkpt>
      <trkpt lat="44.04747" lon="1.87089">
        <ele>290</ele>
        <time>2020-10-04T12:32:13.729Z</time>
      </trkpt>
      <trkpt lat="44.04747" lon="1.8709">
        <ele>290</ele>
        <time>2020-10-04T12:32:14.729Z</time>
      </trkpt>
      <trkpt lat="44.04747" lon="1.87092">
        <ele>290</ele>
        <time>2020-10-04T12:32:15.729Z</time>
      </trkpt>
      <trkpt lat="44.04747" lon="1.87093">
        <ele>290</ele>
        <time>2020-10-04T12:32:16.729Z</time>
      </trkpt>
      <trkpt lat="44.04746" lon="1.87095">
        <ele>290</ele>
        <time>2020-10-04T12:32:17.729Z</time>
      </trkpt>
      <trkpt lat="44.04746" lon="1.87097">
        <ele>290</ele>
        <time>2020-10-04T12:32:18.729Z</time>
      </trkpt>
      <trkpt lat="44.04746" lon="1.87098">
        <ele>290</ele>
        <time>2020-10-04T12:32:19.729Z</time>
      </trkpt>
      <trkpt lat="44.04745" lon="1.871">
        <ele>290</ele>
        <time>2020-10-04T12:32:20.729Z</time>
      </trkpt>
      <trkpt lat="44.04745" lon="1.87101">
        <ele>290</ele>
        <time>2020-10-04T12:32:21.729Z</time>
      </trkpt>
      <trkpt lat="44.04745" lon="1.87103">
        <ele>290</ele>
        <time>2020-10-04T12:32:22.729Z</time>
      </trkpt>
      <trkpt lat="44.04745" lon="1.87105">
        <ele>290</ele>
        <time>2020-10-04T12:32:23.729Z</time>
      </trkpt>
      <trkpt lat="44.04744" lon="1.87107">
        <ele>290</ele>
        <time>2020-10-04T12:32:24.729Z</time>
      </trkpt>
      <trkpt lat="44.04744" lon="1.87108">
        <ele>290</ele>
        <time>2020-10-04T12:32:25.729Z</time>
      </trkpt>
      <trkpt lat="44.04745" lon="1.8711">
        <ele>290</ele>
        <time>2020-10-04T12:32:26.729Z</time>
      </trkpt>
      <trkpt lat="44.04745" lon="1.87112">
        <ele>291</ele>
        <time>2020-10-04T12:32:27.729Z</time>
      </trkpt>
      <trkpt lat="44.04745" lon="1.87113">
        <ele>291</ele>
        <time>2020-10-04T12:32:28.729Z</time>
      </trkpt>
      <trkpt lat="44.04745" lon="1.87115">
        <ele>291</ele>
        <time>2020-10-04T12:32:29.729Z</time>
      </trkpt>
      <trkpt lat="44.04745" lon="1.87117">
        <ele>291</ele>
        <time>2020-10-04T12:32:30.729Z</time>
      </trkpt>
      <trkpt lat="44.04745" lon="1.87119">
        <ele>291</ele>
        <time>2020-10-04T12:32:31.729Z</time>
      </trkpt>
      <trkpt lat="44.04745" lon="1.87121">
        <ele>291</ele>
        <time>2020-10-04T12:32:32.729Z</time>
      </trkpt>
      <trkpt lat="44.04745" lon="1.87122">
        <ele>291</ele>
        <time>2020-10-04T12:32:33.729Z</time>
      </trkpt>
      <trkpt lat="44.04745" lon="1.87124">
        <ele>291</ele>
        <time>2020-10-04T12:32:34.729Z</time>
      </trkpt>
      <trkpt lat="44.04745" lon="1.87125">
        <ele>291</ele>
        <time>2020-10-04T12:32:35.729Z</time>
      </trkpt>
      <trkpt lat="44.04745" lon="1.87127">
        <ele>291</ele>
        <time>2020-10-04T12:32:36.729Z</time>
      </trkpt>
      <trkpt lat="44.04745" lon="1.87129">
        <ele>291</ele>
        <time>2020-10-04T12:32:37.729Z</time>
      </trkpt>
      <trkpt lat="44.04744" lon="1.87131">
        <ele>291</ele>
        <time>2020-10-04T12:32:38.729Z</time>
      </trkpt>
      <trkpt lat="44.04744" lon="1.87132">
        <ele>290</ele>
        <time>2020-10-04T12:32:39.729Z</time>
      </trkpt>
      <trkpt lat="44.04744" lon="1.87134">
        <ele>290</ele>
        <time>2020-10-04T12:32:40.729Z</time>
      </trkpt>
      <trkpt lat="44.04744" lon="1.87136">
        <ele>290</ele>
        <time>2020-10-04T12:32:41.729Z</time>
      </trkpt>
      <trkpt lat="44.04743" lon="1.87137">
        <ele>290</ele>
        <time>2020-10-04T12:32:42.729Z</time>
      </trkpt>
      <trkpt lat="44.04743" lon="1.87139">
        <ele>290</ele>
        <time>2020-10-04T12:32:43.729Z</time>
      </trkpt>
      <trkpt lat="44.04743" lon="1.87141">
        <ele>290</ele>
        <time>2020-10-04T12:32:44.729Z</time>
      </trkpt>
      <trkpt lat="44.04743" lon="1.87142">
        <ele>290</ele>
        <time>2020-10-04T12:32:45.729Z</time>
      </trkpt>
      <trkpt lat="44.04743" lon="1.87144">
        <ele>290</ele>
        <time>2020-10-04T12:32:46.729Z</time>
      </trkpt>
      <trkpt lat="44.04743" lon="1.87145">
        <ele>290</ele>
        <time>2020-10-04T12:32:47.729Z</time>
      </trkpt>
      <trkpt lat="44.04742" lon="1.87147">
        <ele>290</ele>
        <time>2020-10-04T12:32:48.729Z</time>
      </trkpt>
      <trkpt lat="44.04742" lon="1.87149">
        <ele>290</ele>
        <time>2020-10-04T12:32:49.729Z</time>
      </trkpt>
      <trkpt lat="44.04742" lon="1.8715">
        <ele>289</ele>
        <time>2020-10-04T12:32:50.729Z</time>
      </trkpt>
      <trkpt lat="44.04742" lon="1.87152">
        <ele>289</ele>
        <time>2020-10-04T12:32:51.729Z</time>
      </trkpt>
      <trkpt lat="44.04741" lon="1.87153">
        <ele>290</ele>
        <time>2020-10-04T12:32:52.729Z</time>
      </trkpt>
      <trkpt lat="44.04741" lon="1.87155">
        <ele>290</ele>
        <time>2020-10-04T12:32:53.729Z</time>
      </trkpt>
      <trkpt lat="44.0474" lon="1.87157">
        <ele>290</ele>
        <time>2020-10-04T12:32:54.729Z</time>
      </trkpt>
      <trkpt lat="44.0474" lon="1.87158">
        <ele>290</ele>
        <time>2020-10-04T12:32:55.729Z</time>
      </trkpt>
      <trkpt lat="44.0474" lon="1.87159">
        <ele>290</ele>
        <time>2020-10-04T12:32:56.729Z</time>
      </trkpt>
      <trkpt lat="44.04739" lon="1.87161">
        <ele>289</ele>
        <time>2020-10-04T12:32:57.729Z</time>
      </trkpt>
      <trkpt lat="44.04739" lon="1.87162">
        <ele>289</ele>
        <time>2020-10-04T12:32:58.729Z</time>
      </trkpt>
      <trkpt lat="44.04738" lon="1.87163">
        <ele>289</ele>
        <time>2020-10-04T12:32:59.729Z</time>
      </trkpt>
      <trkpt lat="44.04738" lon="1.87165">
        <ele>289</ele>
        <time>2020-10-04T12:33:00.729Z</time>
      </trkpt>
      <trkpt lat="44.04737" lon="1.87166">
        <ele>289</ele>
        <time>2020-10-04T12:33:01.729Z</time>
      </trkpt>
      <trkpt lat="44.04737" lon="1.87168">
        <ele>289</ele>
        <time>2020-10-04T12:33:02.729Z</time>
      </trkpt>
      <trkpt lat="44.04736" lon="1.87169">
        <ele>289</ele>
        <time>2020-10-04T12:33:03.729Z</time>
      </trkpt>
      <trkpt lat="44.04735" lon="1.87171">
        <ele>289</ele>
        <time>2020-10-04T12:33:04.729Z</time>
      </trkpt>
      <trkpt lat="44.04735" lon="1.87172">
        <ele>289</ele>
        <time>2020-10-04T12:33:05.729Z</time>
      </trkpt>
      <trkpt lat="44.04734" lon="1.87174">
        <ele>289</ele>
        <time>2020-10-04T12:33:06.729Z</time>
      </trkpt>
      <trkpt lat="44.04734" lon="1.87176">
        <ele>289</ele>
        <time>2020-10-04T12:33:07.729Z</time>
      </trkpt>
      <trkpt lat="44.04734" lon="1.87177">
        <ele>289</ele>
        <time>2020-10-04T12:33:08.729Z</time>
      </trkpt>
      <trkpt lat="44.04733" lon="1.87179">
        <ele>289</ele>
        <time>2020-10-04T12:33:09.729Z</time>
      </trkpt>
      <trkpt lat="44.04733" lon="1.8718">
        <ele>289</ele>
        <time>2020-10-04T12:33:10.729Z</time>
      </trkpt>
      <trkpt lat="44.04732" lon="1.87182">
        <ele>289</ele>
        <time>2020-10-04T12:33:11.729Z</time>
      </trkpt>
      <trkpt lat="44.04732" lon="1.87183">
        <ele>289</ele>
        <time>2020-10-04T12:33:12.729Z</time>
      </trkpt>
      <trkpt lat="44.04731" lon="1.87185">
        <ele>289</ele>
        <time>2020-10-04T12:33:13.729Z</time>
      </trkpt>
      <trkpt lat="44.0473" lon="1.87186">
        <ele>289</ele>
        <time>2020-10-04T12:33:14.729Z</time>
      </trkpt>
      <trkpt lat="44.0473" lon="1.87188">
        <ele>289</ele>
        <time>2020-10-04T12:33:15.729Z</time>
      </trkpt>
      <trkpt lat="44.04729" lon="1.87189">
        <ele>288</ele>
        <time>2020-10-04T12:33:16.729Z</time>
      </trkpt>
      <trkpt lat="44.04729" lon="1.87191">
        <ele>288</ele>
        <time>2020-10-04T12:33:17.729Z</time>
      </trkpt>
      <trkpt lat="44.04729" lon="1.87192">
        <ele>288</ele>
        <time>2020-10-04T12:33:18.729Z</time>
      </trkpt>
      <trkpt lat="44.04728" lon="1.87194">
        <ele>288</ele>
        <time>2020-10-04T12:33:19.729Z</time>
      </trkpt>
      <trkpt lat="44.04728" lon="1.87196">
        <ele>288</ele>
        <time>2020-10-04T12:33:20.729Z</time>
      </trkpt>
      <trkpt lat="44.04727" lon="1.87197">
        <ele>288</ele>
        <time>2020-10-04T12:33:21.729Z</time>
      </trkpt>
      <trkpt lat="44.04727" lon="1.87199">
        <ele>288</ele>
        <time>2020-10-04T12:33:22.729Z</time>
      </trkpt>
      <trkpt lat="44.04727" lon="1.872">
        <ele>288</ele>
        <time>2020-10-04T12:33:23.729Z</time>
      </trkpt>
      <trkpt lat="44.04726" lon="1.87202">
        <ele>288</ele>
        <time>2020-10-04T12:33:24.729Z</time>
      </trkpt>
      <trkpt lat="44.04726" lon="1.87204">
        <ele>288</ele>
        <time>2020-10-04T12:33:25.729Z</time>
      </trkpt>
      <trkpt lat="44.04726" lon="1.87205">
        <ele>288</ele>
        <time>2020-10-04T12:33:26.729Z</time>
      </trkpt>
      <trkpt lat="44.04725" lon="1.87206">
        <ele>288</ele>
        <time>2020-10-04T12:33:27.729Z</time>
      </trkpt>
      <trkpt lat="44.04725" lon="1.87208">
        <ele>288</ele>
        <time>2020-10-04T12:33:28.729Z</time>
      </trkpt>
      <trkpt lat="44.04724" lon="1.87209">
        <ele>287</ele>
        <time>2020-10-04T12:33:29.729Z</time>
      </trkpt>
      <trkpt lat="44.04724" lon="1.87211">
        <ele>287</ele>
        <time>2020-10-04T12:33:30.729Z</time>
      </trkpt>
      <trkpt lat="44.04723" lon="1.87212">
        <ele>287</ele>
        <time>2020-10-04T12:33:31.729Z</time>
      </trkpt>
      <trkpt lat="44.04723" lon="1.87214">
        <ele>287</ele>
        <time>2020-10-04T12:33:32.729Z</time>
      </trkpt>
      <trkpt lat="44.04722" lon="1.87215">
        <ele>287</ele>
        <time>2020-10-04T12:33:33.729Z</time>
      </trkpt>
      <trkpt lat="44.04722" lon="1.87217">
        <ele>287</ele>
        <time>2020-10-04T12:33:34.729Z</time>
      </trkpt>
      <trkpt lat="44.04722" lon="1.87219">
        <ele>287</ele>
        <time>2020-10-04T12:33:35.729Z</time>
      </trkpt>
      <trkpt lat="44.04721" lon="1.8722">
        <ele>287</ele>
        <time>2020-10-04T12:33:36.729Z</time>
      </trkpt>
      <trkpt lat="44.04721" lon="1.87222">
        <ele>287</ele>
        <time>2020-10-04T12:33:37.729Z</time>
      </trkpt>
      <trkpt lat="44.0472" lon="1.87224">
        <ele>287</ele>
        <time>2020-10-04T12:33:38.729Z</time>
      </trkpt>
      <trkpt lat="44.0472" lon="1.87225">
        <ele>287</ele>
        <time>2020-10-04T12:33:39.729Z</time>
      </trkpt>
      <trkpt lat="44.04719" lon="1.87227">
        <ele>287</ele>
        <time>2020-10-04T12:33:40.729Z</time>
      </trkpt>
      <trkpt lat="44.04718" lon="1.87229">
        <ele>287</ele>
        <time>2020-10-04T12:33:41.729Z</time>
      </trkpt>
      <trkpt lat="44.04718" lon="1.8723">
        <ele>287</ele>
        <time>2020-10-04T12:33:42.729Z</time>
      </trkpt>
      <trkpt lat="44.04717" lon="1.87232">
        <ele>287</ele>
        <time>2020-10-04T12:33:43.729Z</time>
      </trkpt>
      <trkpt lat="44.04717" lon="1.87234">
        <ele>287</ele>
        <time>2020-10-04T12:33:44.729Z</time>
      </trkpt>
      <trkpt lat="44.04717" lon="1.87235">
        <ele>287</ele>
        <time>2020-10-04T12:33:45.729Z</time>
      </trkpt>
      <trkpt lat="44.04717" lon="1.87237">
        <ele>287</ele>
        <time>2020-10-04T12:33:46.729Z</time>
      </trkpt>
      <trkpt lat="44.04716" lon="1.87239">
        <ele>287</ele>
        <time>2020-10-04T12:33:47.729Z</time>
      </trkpt>
      <trkpt lat="44.04716" lon="1.8724">
        <ele>287</ele>
        <time>2020-10-04T12:33:48.729Z</time>
      </trkpt>
      <trkpt lat="44.04715" lon="1.87242">
        <ele>287</ele>
        <time>2020-10-04T12:33:49.729Z</time>
      </trkpt>
      <trkpt lat="44.04715" lon="1.87244">
        <ele>287</ele>
        <time>2020-10-04T12:33:50.729Z</time>
      </trkpt>
      <trkpt lat="44.04715" lon="1.87245">
        <ele>287</ele>
        <time>2020-10-04T12:33:51.729Z</time>
      </trkpt>
      <trkpt lat="44.04715" lon="1.87247">
        <ele>287</ele>
        <time>2020-10-04T12:33:52.729Z</time>
      </trkpt>
      <trkpt lat="44.04714" lon="1.87249">
        <ele>287</ele>
        <time>2020-10-04T12:33:53.729Z</time>
      </trkpt>
      <trkpt lat="44.04714" lon="1.8725">
        <ele>287</ele>
        <time>2020-10-04T12:33:54.729Z</time>
      </trkpt>
      <trkpt lat="44.04713" lon="1.87252">
        <ele>287</ele>
        <time>2020-10-04T12:33:55.729Z</time>
      </trkpt>
      <trkpt lat="44.04713" lon="1.87254">
        <ele>287</ele>
        <time>2020-10-04T12:33:56.729Z</time>
      </trkpt>
      <trkpt lat="44.04713" lon="1.87255">
        <ele>287</ele>
        <time>2020-10-04T12:33:57.729Z</time>
      </trkpt>
      <trkpt lat="44.04712" lon="1.87257">
        <ele>287</ele>
        <time>2020-10-04T12:33:58.729Z</time>
      </trkpt>
      <trkpt lat="44.04712" lon="1.87259">
        <ele>287</ele>
        <time>2020-10-04T12:33:59.729Z</time>
      </trkpt>
      <trkpt lat="44.04711" lon="1.8726">
        <ele>287</ele>
        <time>2020-10-04T12:34:00.729Z</time>
      </trkpt>
      <trkpt lat="44.04711" lon="1.87262">
        <ele>287</ele>
        <time>2020-10-04T12:34:01.729Z</time>
      </trkpt>
      <trkpt lat="44.04711" lon="1.87264">
        <ele>287</ele>
        <time>2020-10-04T12:34:02.729Z</time>
      </trkpt>
      <trkpt lat="44.0471" lon="1.87266">
        <ele>287</ele>
        <time>2020-10-04T12:34:03.729Z</time>
      </trkpt>
      <trkpt lat="44.0471" lon="1.87267">
        <ele>287</ele>
        <time>2020-10-04T12:34:04.729Z</time>
      </trkpt>
      <trkpt lat="44.0471" lon="1.87269">
        <ele>287</ele>
        <time>2020-10-04T12:34:05.729Z</time>
      </trkpt>
      <trkpt lat="44.04709" lon="1.8727">
        <ele>287</ele>
        <time>2020-10-04T12:34:06.729Z</time>
      </trkpt>
      <trkpt lat="44.04709" lon="1.87272">
        <ele>287</ele>
        <time>2020-10-04T12:34:07.729Z</time>
      </trkpt>
      <trkpt lat="44.04708" lon="1.87274">
        <ele>287</ele>
        <time>2020-10-04T12:34:08.729Z</time>
      </trkpt>
      <trkpt lat="44.04708" lon="1.87275">
        <ele>287</ele>
        <time>2020-10-04T12:34:09.729Z</time>
      </trkpt>
      <trkpt lat="44.04708" lon="1.87277">
        <ele>287</ele>
        <time>2020-10-04T12:34:10.729Z</time>
      </trkpt>
      <trkpt lat="44.04707" lon="1.87278">
        <ele>287</ele>
        <time>2020-10-04T12:34:11.729Z</time>
      </trkpt>
      <trkpt lat="44.04707" lon="1.8728">
        <ele>287</ele>
        <time>2020-10-04T12:34:12.729Z</time>
      </trkpt>
      <trkpt lat="44.04707" lon="1.87281">
        <ele>287</ele>
        <time>2020-10-04T12:34:13.729Z</time>
      </trkpt>
      <trkpt lat="44.04707" lon="1.87283">
        <ele>287</ele>
        <time>2020-10-04T12:34:14.729Z</time>
      </trkpt>
      <trkpt lat="44.04707" lon="1.87285">
        <ele>287</ele>
        <time>2020-10-04T12:34:15.729Z</time>
      </trkpt>
      <trkpt lat="44.04706" lon="1.87286">
        <ele>287</ele>
        <time>2020-10-04T12:34:16.729Z</time>
      </trkpt>
      <trkpt lat="44.04706" lon="1.87288">
        <ele>287</ele>
        <time>2020-10-04T12:34:17.729Z</time>
      </trkpt>
      <trkpt lat="44.04706" lon="1.87289">
        <ele>288</ele>
        <time>2020-10-04T12:34:18.729Z</time>
      </trkpt>
      <trkpt lat="44.04705" lon="1.8729">
        <ele>287</ele>
        <time>2020-10-04T12:34:19.729Z</time>
      </trkpt>
      <trkpt lat="44.04705" lon="1.87292">
        <ele>287</ele>
        <time>2020-10-04T12:34:20.729Z</time>
      </trkpt>
      <trkpt lat="44.04705" lon="1.87293">
        <ele>288</ele>
        <time>2020-10-04T12:34:21.729Z</time>
      </trkpt>
      <trkpt lat="44.04704" lon="1.87295">
        <ele>288</ele>
        <time>2020-10-04T12:34:22.729Z</time>
      </trkpt>
      <trkpt lat="44.04704" lon="1.87296">
        <ele>287</ele>
        <time>2020-10-04T12:34:23.729Z</time>
      </trkpt>
      <trkpt lat="44.04704" lon="1.87298">
        <ele>287</ele>
        <time>2020-10-04T12:34:24.729Z</time>
      </trkpt>
      <trkpt lat="44.04703" lon="1.87299">
        <ele>287</ele>
        <time>2020-10-04T12:34:25.729Z</time>
      </trkpt>
      <trkpt lat="44.04703" lon="1.87301">
        <ele>287</ele>
        <time>2020-10-04T12:34:26.729Z</time>
      </trkpt>
      <trkpt lat="44.04702" lon="1.87302">
        <ele>287</ele>
        <time>2020-10-04T12:34:27.729Z</time>
      </trkpt>
      <trkpt lat="44.04702" lon="1.87304">
        <ele>287</ele>
        <time>2020-10-04T12:34:28.729Z</time>
      </trkpt>
      <trkpt lat="44.04702" lon="1.87305">
        <ele>287</ele>
        <time>2020-10-04T12:34:29.729Z</time>
      </trkpt>
      <trkpt lat="44.04701" lon="1.87306">
        <ele>287</ele>
        <time>2020-10-04T12:34:30.729Z</time>
      </trkpt>
      <trkpt lat="44.04701" lon="1.87308">
        <ele>287</ele>
        <time>2020-10-04T12:34:31.729Z</time>
      </trkpt>
      <trkpt lat="44.047" lon="1.87309">
        <ele>288</ele>
        <time>2020-10-04T12:34:32.729Z</time>
      </trkpt>
      <trkpt lat="44.047" lon="1.8731">
        <ele>288</ele>
        <time>2020-10-04T12:34:33.729Z</time>
      </trkpt>
      <trkpt lat="44.047" lon="1.87312">
        <ele>288</ele>
        <time>2020-10-04T12:34:34.729Z</time>
      </trkpt>
      <trkpt lat="44.04699" lon="1.87313">
        <ele>288</ele>
        <time>2020-10-04T12:34:35.729Z</time>
      </trkpt>
      <trkpt lat="44.04699" lon="1.87315">
        <ele>288</ele>
        <time>2020-10-04T12:34:36.729Z</time>
      </trkpt>
      <trkpt lat="44.04699" lon="1.87316">
        <ele>288</ele>
        <time>2020-10-04T12:34:37.729Z</time>
      </trkpt>
      <trkpt lat="44.04699" lon="1.87317">
        <ele>288</ele>
        <time>2020-10-04T12:34:38.729Z</time>
      </trkpt>
      <trkpt lat="44.04699" lon="1.87318">
        <ele>288</ele>
        <time>2020-10-04T12:34:39.729Z</time>
      </trkpt>
      <trkpt lat="44.04698" lon="1.87319">
        <ele>288</ele>
        <time>2020-10-04T12:34:40.729Z</time>
      </trkpt>
      <trkpt lat="44.04698" lon="1.8732">
        <ele>288</ele>
        <time>2020-10-04T12:34:41.729Z</time>
      </trkpt>
      <trkpt lat="44.04698" lon="1.8732">
        <ele>288</ele>
        <time>2020-10-04T12:34:42.729Z</time>
      </trkpt>
      <trkpt lat="44.04698" lon="1.8732">
        <ele>288</ele>
        <time>2020-10-04T12:34:43.729Z</time>
      </trkpt>
      <trkpt lat="44.04698" lon="1.8732">
        <ele>288</ele>
        <time>2020-10-04T12:34:44.729Z</time>
      </trkpt>
      <trkpt lat="44.04698" lon="1.8732">
        <ele>288</ele>
        <time>2020-10-04T12:34:45.729Z</time>
      </trkpt>
      <trkpt lat="44.04698" lon="1.87321">
        <ele>288</ele>
        <time>2020-10-04T12:34:46.729Z</time>
      </trkpt>
      <trkpt lat="44.04697" lon="1.87323">
        <ele>288</ele>
        <time>2020-10-04T12:34:47.729Z</time>
      </trkpt>
      <trkpt lat="44.04697" lon="1.87324">
        <ele>288</ele>
        <time>2020-10-04T12:34:48.729Z</time>
      </trkpt>
      <trkpt lat="44.04696" lon="1.87326">
        <ele>288</ele>
        <time>2020-10-04T12:34:49.729Z</time>
      </trkpt>
      <trkpt lat="44.04696" lon="1.87327">
        <ele>288</ele>
        <time>2020-10-04T12:34:50.729Z</time>
      </trkpt>
      <trkpt lat="44.04696" lon="1.87329">
        <ele>288</ele>
        <time>2020-10-04T12:34:51.729Z</time>
      </trkpt>
      <trkpt lat="44.04695" lon="1.8733">
        <ele>288</ele>
        <time>2020-10-04T12:34:52.729Z</time>
      </trkpt>
      <trkpt lat="44.04695" lon="1.87332">
        <ele>288</ele>
        <time>2020-10-04T12:34:53.729Z</time>
      </trkpt>
      <trkpt lat="44.04695" lon="1.87333">
        <ele>288</ele>
        <time>2020-10-04T12:34:54.729Z</time>
      </trkpt>
      <trkpt lat="44.04694" lon="1.87334">
        <ele>288</ele>
        <time>2020-10-04T12:34:55.729Z</time>
      </trkpt>
      <trkpt lat="44.04694" lon="1.87336">
        <ele>288</ele>
        <time>2020-10-04T12:34:56.729Z</time>
      </trkpt>
      <trkpt lat="44.04694" lon="1.87337">
        <ele>288</ele>
        <time>2020-10-04T12:34:57.729Z</time>
      </trkpt>
      <trkpt lat="44.04694" lon="1.87339">
        <ele>288</ele>
        <time>2020-10-04T12:34:58.729Z</time>
      </trkpt>
      <trkpt lat="44.04693" lon="1.87341">
        <ele>288</ele>
        <time>2020-10-04T12:34:59.729Z</time>
      </trkpt>
      <trkpt lat="44.04693" lon="1.87342">
        <ele>288</ele>
        <time>2020-10-04T12:35:00.729Z</time>
      </trkpt>
      <trkpt lat="44.04692" lon="1.87344">
        <ele>288</ele>
        <time>2020-10-04T12:35:01.729Z</time>
      </trkpt>
      <trkpt lat="44.04692" lon="1.87345">
        <ele>288</ele>
        <time>2020-10-04T12:35:02.729Z</time>
      </trkpt>
      <trkpt lat="44.04691" lon="1.87346">
        <ele>288</ele>
        <time>2020-10-04T12:35:03.729Z</time>
      </trkpt>
      <trkpt lat="44.04691" lon="1.87348">
        <ele>288</ele>
        <time>2020-10-04T12:35:04.729Z</time>
      </trkpt>
      <trkpt lat="44.0469" lon="1.87349">
        <ele>288</ele>
        <time>2020-10-04T12:35:05.729Z</time>
      </trkpt>
      <trkpt lat="44.04689" lon="1.87351">
        <ele>288</ele>
        <time>2020-10-04T12:35:06.729Z</time>
      </trkpt>
      <trkpt lat="44.04689" lon="1.87352">
        <ele>288</ele>
        <time>2020-10-04T12:35:07.729Z</time>
      </trkpt>
      <trkpt lat="44.04688" lon="1.87354">
        <ele>288</ele>
        <time>2020-10-04T12:35:08.729Z</time>
      </trkpt>
      <trkpt lat="44.04688" lon="1.87355">
        <ele>288</ele>
        <time>2020-10-04T12:35:09.729Z</time>
      </trkpt>
      <trkpt lat="44.04687" lon="1.87357">
        <ele>288</ele>
        <time>2020-10-04T12:35:10.729Z</time>
      </trkpt>
      <trkpt lat="44.04687" lon="1.87358">
        <ele>288</ele>
        <time>2020-10-04T12:35:11.729Z</time>
      </trkpt>
      <trkpt lat="44.04687" lon="1.87359">
        <ele>288</ele>
        <time>2020-10-04T12:35:12.729Z</time>
      </trkpt>
      <trkpt lat="44.04686" lon="1.87361">
        <ele>289</ele>
        <time>2020-10-04T12:35:13.729Z</time>
      </trkpt>
      <trkpt lat="44.04686" lon="1.87362">
        <ele>289</ele>
        <time>2020-10-04T12:35:14.729Z</time>
      </trkpt>
      <trkpt lat="44.04686" lon="1.87364">
        <ele>289</ele>
        <time>2020-10-04T12:35:15.729Z</time>
      </trkpt>
      <trkpt lat="44.04685" lon="1.87365">
        <ele>289</ele>
        <time>2020-10-04T12:35:16.729Z</time>
      </trkpt>
      <trkpt lat="44.04684" lon="1.87367">
        <ele>289</ele>
        <time>2020-10-04T12:35:17.729Z</time>
      </trkpt>
      <trkpt lat="44.04684" lon="1.87369">
        <ele>289</ele>
        <time>2020-10-04T12:35:18.729Z</time>
      </trkpt>
      <trkpt lat="44.04683" lon="1.8737">
        <ele>289</ele>
        <time>2020-10-04T12:35:19.729Z</time>
      </trkpt>
      <trkpt lat="44.04683" lon="1.87372">
        <ele>289</ele>
        <time>2020-10-04T12:35:20.729Z</time>
      </trkpt>
      <trkpt lat="44.04682" lon="1.87373">
        <ele>289</ele>
        <time>2020-10-04T12:35:21.729Z</time>
      </trkpt>
      <trkpt lat="44.04682" lon="1.87374">
        <ele>289</ele>
        <time>2020-10-04T12:35:22.729Z</time>
      </trkpt>
      <trkpt lat="44.04681" lon="1.87376">
        <ele>289</ele>
        <time>2020-10-04T12:35:23.729Z</time>
      </trkpt>
      <trkpt lat="44.0468" lon="1.87377">
        <ele>289</ele>
        <time>2020-10-04T12:35:24.729Z</time>
      </trkpt>
      <trkpt lat="44.0468" lon="1.87379">
        <ele>289</ele>
        <time>2020-10-04T12:35:25.729Z</time>
      </trkpt>
      <trkpt lat="44.0468" lon="1.87381">
        <ele>289</ele>
        <time>2020-10-04T12:35:26.729Z</time>
      </trkpt>
      <trkpt lat="44.04679" lon="1.87382">
        <ele>289</ele>
        <time>2020-10-04T12:35:27.729Z</time>
      </trkpt>
      <trkpt lat="44.04679" lon="1.87384">
        <ele>289</ele>
        <time>2020-10-04T12:35:28.729Z</time>
      </trkpt>
      <trkpt lat="44.04678" lon="1.87385">
        <ele>289</ele>
        <time>2020-10-04T12:35:29.729Z</time>
      </trkpt>
      <trkpt lat="44.04678" lon="1.87387">
        <ele>289</ele>
        <time>2020-10-04T12:35:30.729Z</time>
      </trkpt>
      <trkpt lat="44.04677" lon="1.87388">
        <ele>289</ele>
        <time>2020-10-04T12:35:31.729Z</time>
      </trkpt>
      <trkpt lat="44.04677" lon="1.8739">
        <ele>289</ele>
        <time>2020-10-04T12:35:32.729Z</time>
      </trkpt>
      <trkpt lat="44.04676" lon="1.87392">
        <ele>289</ele>
        <time>2020-10-04T12:35:33.729Z</time>
      </trkpt>
      <trkpt lat="44.04675" lon="1.87393">
        <ele>289</ele>
        <time>2020-10-04T12:35:34.729Z</time>
      </trkpt>
      <trkpt lat="44.04675" lon="1.87395">
        <ele>289</ele>
        <time>2020-10-04T12:35:35.729Z</time>
      </trkpt>
      <trkpt lat="44.04675" lon="1.87396">
        <ele>289</ele>
        <time>2020-10-04T12:35:36.729Z</time>
      </trkpt>
      <trkpt lat="44.04674" lon="1.87398">
        <ele>289</ele>
        <time>2020-10-04T12:35:37.729Z</time>
      </trkpt>
      <trkpt lat="44.04674" lon="1.87399">
        <ele>289</ele>
        <time>2020-10-04T12:35:38.729Z</time>
      </trkpt>
      <trkpt lat="44.04673" lon="1.87401">
        <ele>289</ele>
        <time>2020-10-04T12:35:39.729Z</time>
      </trkpt>
      <trkpt lat="44.04673" lon="1.87402">
        <ele>289</ele>
        <time>2020-10-04T12:35:40.729Z</time>
      </trkpt>
      <trkpt lat="44.04672" lon="1.87404">
        <ele>289</ele>
        <time>2020-10-04T12:35:41.729Z</time>
      </trkpt>
      <trkpt lat="44.04672" lon="1.87405">
        <ele>289</ele>
        <time>2020-10-04T12:35:42.729Z</time>
      </trkpt>
      <trkpt lat="44.04671" lon="1.87407">
        <ele>289</ele>
        <time>2020-10-04T12:35:43.729Z</time>
      </trkpt>
      <trkpt lat="44.04671" lon="1.87409">
        <ele>289</ele>
        <time>2020-10-04T12:35:44.729Z</time>
      </trkpt>
      <trkpt lat="44.0467" lon="1.8741">
        <ele>289</ele>
        <time>2020-10-04T12:35:45.729Z</time>
      </trkpt>
      <trkpt lat="44.0467" lon="1.87412">
        <ele>289</ele>
        <time>2020-10-04T12:35:46.729Z</time>
      </trkpt>
      <trkpt lat="44.04669" lon="1.87413">
        <ele>289</ele>
        <time>2020-10-04T12:35:47.729Z</time>
      </trkpt>
      <trkpt lat="44.04669" lon="1.87414">
        <ele>289</ele>
        <time>2020-10-04T12:35:48.729Z</time>
      </trkpt>
      <trkpt lat="44.04669" lon="1.87416">
        <ele>289</ele>
        <time>2020-10-04T12:35:49.729Z</time>
      </trkpt>
      <trkpt lat="44.04668" lon="1.87417">
        <ele>289</ele>
        <time>2020-10-04T12:35:50.729Z</time>
      </trkpt>
      <trkpt lat="44.04668" lon="1.87418">
        <ele>289</ele>
        <time>2020-10-04T12:35:51.729Z</time>
      </trkpt>
      <trkpt lat="44.04667" lon="1.8742">
        <ele>289</ele>
        <time>2020-10-04T12:35:52.729Z</time>
      </trkpt>
      <trkpt lat="44.04667" lon="1.87421">
        <ele>289</ele>
        <time>2020-10-04T12:35:53.729Z</time>
      </trkpt>
      <trkpt lat="44.04666" lon="1.87423">
        <ele>289</ele>
        <time>2020-10-04T12:35:54.729Z</time>
      </trkpt>
      <trkpt lat="44.04666" lon="1.87424">
        <ele>289</ele>
        <time>2020-10-04T12:35:55.729Z</time>
      </trkpt>
      <trkpt lat="44.04665" lon="1.87426">
        <ele>289</ele>
        <time>2020-10-04T12:35:56.729Z</time>
      </trkpt>
      <trkpt lat="44.04665" lon="1.87427">
        <ele>289</ele>
        <time>2020-10-04T12:35:57.729Z</time>
      </trkpt>
      <trkpt lat="44.04664" lon="1.87428">
        <ele>289</ele>
        <time>2020-10-04T12:35:58.729Z</time>
      </trkpt>
      <trkpt lat="44.04664" lon="1.87429">
        <ele>289</ele>
        <time>2020-10-04T12:35:59.729Z</time>
      </trkpt>
      <trkpt lat="44.04663" lon="1.87431">
        <ele>289</ele>
        <time>2020-10-04T12:36:00.729Z</time>
      </trkpt>
      <trkpt lat="44.04663" lon="1.87433">
        <ele>289</ele>
        <time>2020-10-04T12:36:01.729Z</time>
      </trkpt>
      <trkpt lat="44.04662" lon="1.87434">
        <ele>289</ele>
        <time>2020-10-04T12:36:02.729Z</time>
      </trkpt>
      <trkpt lat="44.04661" lon="1.87436">
        <ele>289</ele>
        <time>2020-10-04T12:36:03.729Z</time>
      </trkpt>
      <trkpt lat="44.04661" lon="1.87437">
        <ele>289</ele>
        <time>2020-10-04T12:36:04.729Z</time>
      </trkpt>
      <trkpt lat="44.0466" lon="1.87438">
        <ele>289</ele>
        <time>2020-10-04T12:36:05.729Z</time>
      </trkpt>
      <trkpt lat="44.0466" lon="1.8744">
        <ele>289</ele>
        <time>2020-10-04T12:36:06.729Z</time>
      </trkpt>
      <trkpt lat="44.04659" lon="1.87441">
        <ele>289</ele>
        <time>2020-10-04T12:36:07.729Z</time>
      </trkpt>
      <trkpt lat="44.04659" lon="1.87443">
        <ele>289</ele>
        <time>2020-10-04T12:36:08.729Z</time>
      </trkpt>
      <trkpt lat="44.04658" lon="1.87444">
        <ele>289</ele>
        <time>2020-10-04T12:36:09.729Z</time>
      </trkpt>
      <trkpt lat="44.04658" lon="1.87446">
        <ele>289</ele>
        <time>2020-10-04T12:36:10.729Z</time>
      </trkpt>
      <trkpt lat="44.04657" lon="1.87447">
        <ele>289</ele>
        <time>2020-10-04T12:36:11.729Z</time>
      </trkpt>
      <trkpt lat="44.04657" lon="1.87448">
        <ele>289</ele>
        <time>2020-10-04T12:36:12.729Z</time>
      </trkpt>
      <trkpt lat="44.04656" lon="1.87449">
        <ele>289</ele>
        <time>2020-10-04T12:36:13.729Z</time>
      </trkpt>
      <trkpt lat="44.04655" lon="1.8745">
        <ele>289</ele>
        <time>2020-10-04T12:36:14.729Z</time>
      </trkpt>
      <trkpt lat="44.04655" lon="1.87451">
        <ele>289</ele>
        <time>2020-10-04T12:36:15.729Z</time>
      </trkpt>
      <trkpt lat="44.04654" lon="1.87452">
        <ele>289</ele>
        <time>2020-10-04T12:36:16.729Z</time>
      </trkpt>
      <trkpt lat="44.04654" lon="1.87454">
        <ele>289</ele>
        <time>2020-10-04T12:36:17.729Z</time>
      </trkpt>
      <trkpt lat="44.04654" lon="1.87455">
        <ele>289</ele>
        <time>2020-10-04T12:36:18.729Z</time>
      </trkpt>
      <trkpt lat="44.04654" lon="1.87456">
        <ele>289</ele>
        <time>2020-10-04T12:36:19.729Z</time>
      </trkpt>
      <trkpt lat="44.04653" lon="1.87457">
        <ele>289</ele>
        <time>2020-10-04T12:36:20.729Z</time>
      </trkpt>
      <trkpt lat="44.04653" lon="1.87458">
        <ele>289</ele>
        <time>2020-10-04T12:36:21.729Z</time>
      </trkpt>
      <trkpt lat="44.04653" lon="1.8746">
        <ele>289</ele>
        <time>2020-10-04T12:36:22.729Z</time>
      </trkpt>
      <trkpt lat="44.04652" lon="1.87461">
        <ele>289</ele>
        <time>2020-10-04T12:36:23.729Z</time>
      </trkpt>
      <trkpt lat="44.04652" lon="1.87462">
        <ele>289</ele>
        <time>2020-10-04T12:36:24.729Z</time>
      </trkpt>
      <trkpt lat="44.04651" lon="1.87463">
        <ele>289</ele>
        <time>2020-10-04T12:36:25.729Z</time>
      </trkpt>
      <trkpt lat="44.04651" lon="1.87465">
        <ele>289</ele>
        <time>2020-10-04T12:36:26.729Z</time>
      </trkpt>
      <trkpt lat="44.04651" lon="1.87466">
        <ele>288</ele>
        <time>2020-10-04T12:36:27.729Z</time>
      </trkpt>
      <trkpt lat="44.0465" lon="1.87467">
        <ele>288</ele>
        <time>2020-10-04T12:36:28.729Z</time>
      </trkpt>
      <trkpt lat="44.0465" lon="1.87468">
        <ele>288</ele>
        <time>2020-10-04T12:36:29.729Z</time>
      </trkpt>
      <trkpt lat="44.04649" lon="1.87469">
        <ele>288</ele>
        <time>2020-10-04T12:36:30.729Z</time>
      </trkpt>
      <trkpt lat="44.04649" lon="1.8747">
        <ele>288</ele>
        <time>2020-10-04T12:36:31.729Z</time>
      </trkpt>
      <trkpt lat="44.04648" lon="1.87472">
        <ele>288</ele>
        <time>2020-10-04T12:36:32.729Z</time>
      </trkpt>
      <trkpt lat="44.04648" lon="1.87473">
        <ele>288</ele>
        <time>2020-10-04T12:36:33.729Z</time>
      </trkpt>
      <trkpt lat="44.04647" lon="1.87475">
        <ele>288</ele>
        <time>2020-10-04T12:36:34.729Z</time>
      </trkpt>
      <trkpt lat="44.04646" lon="1.87476">
        <ele>288</ele>
        <time>2020-10-04T12:36:35.729Z</time>
      </trkpt>
      <trkpt lat="44.04646" lon="1.87478">
        <ele>288</ele>
        <time>2020-10-04T12:36:36.729Z</time>
      </trkpt>
      <trkpt lat="44.04645" lon="1.87479">
        <ele>288</ele>
        <time>2020-10-04T12:36:37.729Z</time>
      </trkpt>
      <trkpt lat="44.04645" lon="1.87481">
        <ele>288</ele>
        <time>2020-10-04T12:36:38.729Z</time>
      </trkpt>
      <trkpt lat="44.04644" lon="1.87482">
        <ele>288</ele>
        <time>2020-10-04T12:36:39.729Z</time>
      </trkpt>
      <trkpt lat="44.04644" lon="1.87483">
        <ele>288</ele>
        <time>2020-10-04T12:36:40.729Z</time>
      </trkpt>
      <trkpt lat="44.04643" lon="1.87484">
        <ele>289</ele>
        <time>2020-10-04T12:36:41.729Z</time>
      </trkpt>
      <trkpt lat="44.04643" lon="1.87485">
        <ele>289</ele>
        <time>2020-10-04T12:36:42.729Z</time>
      </trkpt>
      <trkpt lat="44.04642" lon="1.87487">
        <ele>289</ele>
        <time>2020-10-04T12:36:43.729Z</time>
      </trkpt>
      <trkpt lat="44.04642" lon="1.87488">
        <ele>289</ele>
        <time>2020-10-04T12:36:44.729Z</time>
      </trkpt>
      <trkpt lat="44.04642" lon="1.87489">
        <ele>289</ele>
        <time>2020-10-04T12:36:45.729Z</time>
      </trkpt>
      <trkpt lat="44.04641" lon="1.8749">
        <ele>289</ele>
        <time>2020-10-04T12:36:46.729Z</time>
      </trkpt>
      <trkpt lat="44.04641" lon="1.87492">
        <ele>289</ele>
        <time>2020-10-04T12:36:47.729Z</time>
      </trkpt>
      <trkpt lat="44.0464" lon="1.87493">
        <ele>289</ele>
        <time>2020-10-04T12:36:48.729Z</time>
      </trkpt>
      <trkpt lat="44.0464" lon="1.87494">
        <ele>289</ele>
        <time>2020-10-04T12:36:49.729Z</time>
      </trkpt>
      <trkpt lat="44.04639" lon="1.87496">
        <ele>289</ele>
        <time>2020-10-04T12:36:50.729Z</time>
      </trkpt>
      <trkpt lat="44.04638" lon="1.87497">
        <ele>289</ele>
        <time>2020-10-04T12:36:51.729Z</time>
      </trkpt>
      <trkpt lat="44.04638" lon="1.87499">
        <ele>289</ele>
        <time>2020-10-04T12:36:52.729Z</time>
      </trkpt>
      <trkpt lat="44.04637" lon="1.875">
        <ele>289</ele>
        <time>2020-10-04T12:36:53.729Z</time>
      </trkpt>
      <trkpt lat="44.04637" lon="1.87502">
        <ele>289</ele>
        <time>2020-10-04T12:36:54.729Z</time>
      </trkpt>
      <trkpt lat="44.04636" lon="1.87503">
        <ele>289</ele>
        <time>2020-10-04T12:36:55.729Z</time>
      </trkpt>
      <trkpt lat="44.04635" lon="1.87505">
        <ele>289</ele>
        <time>2020-10-04T12:36:56.729Z</time>
      </trkpt>
      <trkpt lat="44.04635" lon="1.87507">
        <ele>289</ele>
        <time>2020-10-04T12:36:57.729Z</time>
      </trkpt>
      <trkpt lat="44.04634" lon="1.87508">
        <ele>289</ele>
        <time>2020-10-04T12:36:58.729Z</time>
      </trkpt>
      <trkpt lat="44.04634" lon="1.8751">
        <ele>289</ele>
        <time>2020-10-04T12:36:59.729Z</time>
      </trkpt>
      <trkpt lat="44.04634" lon="1.87511">
        <ele>289</ele>
        <time>2020-10-04T12:37:00.729Z</time>
      </trkpt>
      <trkpt lat="44.04633" lon="1.87513">
        <ele>289</ele>
        <time>2020-10-04T12:37:01.729Z</time>
      </trkpt>
      <trkpt lat="44.04633" lon="1.87514">
        <ele>289</ele>
        <time>2020-10-04T12:37:02.729Z</time>
      </trkpt>
      <trkpt lat="44.04632" lon="1.87515">
        <ele>289</ele>
        <time>2020-10-04T12:37:03.729Z</time>
      </trkpt>
      <trkpt lat="44.04632" lon="1.87517">
        <ele>289</ele>
        <time>2020-10-04T12:37:04.729Z</time>
      </trkpt>
      <trkpt lat="44.04631" lon="1.87519">
        <ele>289</ele>
        <time>2020-10-04T12:37:05.729Z</time>
      </trkpt>
      <trkpt lat="44.04631" lon="1.8752">
        <ele>289</ele>
        <time>2020-10-04T12:37:06.729Z</time>
      </trkpt>
      <trkpt lat="44.0463" lon="1.87521">
        <ele>289</ele>
        <time>2020-10-04T12:37:07.729Z</time>
      </trkpt>
      <trkpt lat="44.0463" lon="1.87523">
        <ele>289</ele>
        <time>2020-10-04T12:37:08.729Z</time>
      </trkpt>
      <trkpt lat="44.04629" lon="1.87524">
        <ele>289</ele>
        <time>2020-10-04T12:37:09.729Z</time>
      </trkpt>
      <trkpt lat="44.04628" lon="1.87526">
        <ele>289</ele>
        <time>2020-10-04T12:37:10.729Z</time>
      </trkpt>
      <trkpt lat="44.04628" lon="1.87528">
        <ele>289</ele>
        <time>2020-10-04T12:37:11.729Z</time>
      </trkpt>
      <trkpt lat="44.04627" lon="1.87529">
        <ele>289</ele>
        <time>2020-10-04T12:37:12.729Z</time>
      </trkpt>
      <trkpt lat="44.04626" lon="1.8753">
        <ele>289</ele>
        <time>2020-10-04T12:37:13.729Z</time>
      </trkpt>
      <trkpt lat="44.04626" lon="1.87531">
        <ele>289</ele>
        <time>2020-10-04T12:37:14.729Z</time>
      </trkpt>
      <trkpt lat="44.04625" lon="1.87532">
        <ele>289</ele>
        <time>2020-10-04T12:37:15.729Z</time>
      </trkpt>
      <trkpt lat="44.04625" lon="1.87533">
        <ele>289</ele>
        <time>2020-10-04T12:37:16.729Z</time>
      </trkpt>
      <trkpt lat="44.04624" lon="1.87534">
        <ele>290</ele>
        <time>2020-10-04T12:37:17.729Z</time>
      </trkpt>
      <trkpt lat="44.04624" lon="1.87534">
        <ele>290</ele>
        <time>2020-10-04T12:37:18.729Z</time>
      </trkpt>
      <trkpt lat="44.04624" lon="1.87534">
        <ele>290</ele>
        <time>2020-10-04T12:37:19.729Z</time>
      </trkpt>
      <trkpt lat="44.04624" lon="1.87535">
        <ele>290</ele>
        <time>2020-10-04T12:37:20.729Z</time>
      </trkpt>
      <trkpt lat="44.04624" lon="1.87536">
        <ele>290</ele>
        <time>2020-10-04T12:37:21.729Z</time>
      </trkpt>
      <trkpt lat="44.04624" lon="1.87536">
        <ele>290</ele>
        <time>2020-10-04T12:37:22.729Z</time>
      </trkpt>
      <trkpt lat="44.04623" lon="1.87537">
        <ele>290</ele>
        <time>2020-10-04T12:37:23.729Z</time>
      </trkpt>
      <trkpt lat="44.04623" lon="1.87538">
        <ele>290</ele>
        <time>2020-10-04T12:37:24.729Z</time>
      </trkpt>
      <trkpt lat="44.04622" lon="1.8754">
        <ele>290</ele>
        <time>2020-10-04T12:37:25.729Z</time>
      </trkpt>
      <trkpt lat="44.04621" lon="1.87541">
        <ele>290</ele>
        <time>2020-10-04T12:37:26.729Z</time>
      </trkpt>
      <trkpt lat="44.0462" lon="1.87542">
        <ele>290</ele>
        <time>2020-10-04T12:37:27.729Z</time>
      </trkpt>
      <trkpt lat="44.0462" lon="1.87544">
        <ele>290</ele>
        <time>2020-10-04T12:37:28.729Z</time>
      </trkpt>
      <trkpt lat="44.04619" lon="1.87545">
        <ele>290</ele>
        <time>2020-10-04T12:37:29.729Z</time>
      </trkpt>
      <trkpt lat="44.04618" lon="1.87546">
        <ele>290</ele>
        <time>2020-10-04T12:37:30.729Z</time>
      </trkpt>
      <trkpt lat="44.04618" lon="1.87548">
        <ele>290</ele>
        <time>2020-10-04T12:37:31.729Z</time>
      </trkpt>
      <trkpt lat="44.04617" lon="1.8755">
        <ele>290</ele>
        <time>2020-10-04T12:37:32.729Z</time>
      </trkpt>
      <trkpt lat="44.04617" lon="1.87551">
        <ele>290</ele>
        <time>2020-10-04T12:37:33.729Z</time>
      </trkpt>
      <trkpt lat="44.04616" lon="1.87552">
        <ele>290</ele>
        <time>2020-10-04T12:37:34.729Z</time>
      </trkpt>
      <trkpt lat="44.04615" lon="1.87554">
        <ele>290</ele>
        <time>2020-10-04T12:37:35.729Z</time>
      </trkpt>
      <trkpt lat="44.04615" lon="1.87555">
        <ele>290</ele>
        <time>2020-10-04T12:37:36.729Z</time>
      </trkpt>
      <trkpt lat="44.04614" lon="1.87557">
        <ele>290</ele>
        <time>2020-10-04T12:37:37.729Z</time>
      </trkpt>
      <trkpt lat="44.04613" lon="1.87558">
        <ele>290</ele>
        <time>2020-10-04T12:37:38.729Z</time>
      </trkpt>
      <trkpt lat="44.04612" lon="1.87559">
        <ele>290</ele>
        <time>2020-10-04T12:37:39.729Z</time>
      </trkpt>
      <trkpt lat="44.04612" lon="1.87561">
        <ele>290</ele>
        <time>2020-10-04T12:37:40.729Z</time>
      </trkpt>
      <trkpt lat="44.04611" lon="1.87562">
        <ele>290</ele>
        <time>2020-10-04T12:37:41.729Z</time>
      </trkpt>
      <trkpt lat="44.0461" lon="1.87563">
        <ele>290</ele>
        <time>2020-10-04T12:37:42.729Z</time>
      </trkpt>
      <trkpt lat="44.0461" lon="1.87565">
        <ele>290</ele>
        <time>2020-10-04T12:37:43.729Z</time>
      </trkpt>
      <trkpt lat="44.04609" lon="1.87566">
        <ele>290</ele>
        <time>2020-10-04T12:37:44.729Z</time>
      </trkpt>
      <trkpt lat="44.04609" lon="1.87567">
        <ele>290</ele>
        <time>2020-10-04T12:37:45.729Z</time>
      </trkpt>
      <trkpt lat="44.04608" lon="1.87568">
        <ele>290</ele>
        <time>2020-10-04T12:37:46.729Z</time>
      </trkpt>
      <trkpt lat="44.04608" lon="1.8757">
        <ele>290</ele>
        <time>2020-10-04T12:37:47.729Z</time>
      </trkpt>
      <trkpt lat="44.04607" lon="1.87571">
        <ele>290</ele>
        <time>2020-10-04T12:37:48.729Z</time>
      </trkpt>
      <trkpt lat="44.04606" lon="1.87573">
        <ele>290</ele>
        <time>2020-10-04T12:37:49.729Z</time>
      </trkpt>
      <trkpt lat="44.04606" lon="1.87574">
        <ele>290</ele>
        <time>2020-10-04T12:37:50.729Z</time>
      </trkpt>
      <trkpt lat="44.04605" lon="1.87575">
        <ele>291</ele>
        <time>2020-10-04T12:37:51.729Z</time>
      </trkpt>
      <trkpt lat="44.04604" lon="1.87577">
        <ele>291</ele>
        <time>2020-10-04T12:37:52.729Z</time>
      </trkpt>
      <trkpt lat="44.04604" lon="1.87578">
        <ele>291</ele>
        <time>2020-10-04T12:37:53.729Z</time>
      </trkpt>
      <trkpt lat="44.04603" lon="1.8758">
        <ele>291</ele>
        <time>2020-10-04T12:37:54.729Z</time>
      </trkpt>
      <trkpt lat="44.04602" lon="1.87581">
        <ele>291</ele>
        <time>2020-10-04T12:37:55.729Z</time>
      </trkpt>
      <trkpt lat="44.04602" lon="1.87582">
        <ele>291</ele>
        <time>2020-10-04T12:37:56.729Z</time>
      </trkpt>
      <trkpt lat="44.04601" lon="1.87584">
        <ele>291</ele>
        <time>2020-10-04T12:37:57.729Z</time>
      </trkpt>
      <trkpt lat="44.04601" lon="1.87585">
        <ele>291</ele>
        <time>2020-10-04T12:37:58.729Z</time>
      </trkpt>
      <trkpt lat="44.046" lon="1.87586">
        <ele>291</ele>
        <time>2020-10-04T12:37:59.729Z</time>
      </trkpt>
      <trkpt lat="44.04599" lon="1.87588">
        <ele>290</ele>
        <time>2020-10-04T12:38:00.729Z</time>
      </trkpt>
      <trkpt lat="44.04599" lon="1.87589">
        <ele>290</ele>
        <time>2020-10-04T12:38:01.729Z</time>
      </trkpt>
      <trkpt lat="44.04598" lon="1.8759">
        <ele>290</ele>
        <time>2020-10-04T12:38:02.729Z</time>
      </trkpt>
      <trkpt lat="44.04597" lon="1.87591">
        <ele>290</ele>
        <time>2020-10-04T12:38:03.729Z</time>
      </trkpt>
      <trkpt lat="44.04597" lon="1.87593">
        <ele>290</ele>
        <time>2020-10-04T12:38:04.729Z</time>
      </trkpt>
      <trkpt lat="44.04596" lon="1.87594">
        <ele>290</ele>
        <time>2020-10-04T12:38:05.729Z</time>
      </trkpt>
      <trkpt lat="44.04596" lon="1.87595">
        <ele>290</ele>
        <time>2020-10-04T12:38:06.729Z</time>
      </trkpt>
      <trkpt lat="44.04595" lon="1.87597">
        <ele>290</ele>
        <time>2020-10-04T12:38:07.729Z</time>
      </trkpt>
      <trkpt lat="44.04595" lon="1.87598">
        <ele>290</ele>
        <time>2020-10-04T12:38:08.729Z</time>
      </trkpt>
      <trkpt lat="44.04594" lon="1.87599">
        <ele>290</ele>
        <time>2020-10-04T12:38:09.729Z</time>
      </trkpt>
      <trkpt lat="44.04593" lon="1.87601">
        <ele>290</ele>
        <time>2020-10-04T12:38:10.729Z</time>
      </trkpt>
      <trkpt lat="44.04592" lon="1.87602">
        <ele>290</ele>
        <time>2020-10-04T12:38:11.729Z</time>
      </trkpt>
      <trkpt lat="44.04592" lon="1.87604">
        <ele>290</ele>
        <time>2020-10-04T12:38:12.729Z</time>
      </trkpt>
      <trkpt lat="44.04591" lon="1.87605">
        <ele>290</ele>
        <time>2020-10-04T12:38:13.729Z</time>
      </trkpt>
      <trkpt lat="44.04591" lon="1.87606">
        <ele>290</ele>
        <time>2020-10-04T12:38:14.729Z</time>
      </trkpt>
      <trkpt lat="44.0459" lon="1.87608">
        <ele>290</ele>
        <time>2020-10-04T12:38:15.729Z</time>
      </trkpt>
      <trkpt lat="44.04589" lon="1.87609">
        <ele>290</ele>
        <time>2020-10-04T12:38:16.729Z</time>
      </trkpt>
      <trkpt lat="44.04589" lon="1.87611">
        <ele>291</ele>
        <time>2020-10-04T12:38:17.729Z</time>
      </trkpt>
      <trkpt lat="44.04588" lon="1.87612">
        <ele>291</ele>
        <time>2020-10-04T12:38:18.729Z</time>
      </trkpt>
      <trkpt lat="44.04588" lon="1.87613">
        <ele>291</ele>
        <time>2020-10-04T12:38:19.729Z</time>
      </trkpt>
      <trkpt lat="44.04587" lon="1.87615">
        <ele>291</ele>
        <time>2020-10-04T12:38:20.729Z</time>
      </trkpt>
      <trkpt lat="44.04586" lon="1.87616">
        <ele>291</ele>
        <time>2020-10-04T12:38:21.729Z</time>
      </trkpt>
      <trkpt lat="44.04586" lon="1.87618">
        <ele>291</ele>
        <time>2020-10-04T12:38:22.729Z</time>
      </trkpt>
      <trkpt lat="44.04585" lon="1.87619">
        <ele>291</ele>
        <time>2020-10-04T12:38:23.729Z</time>
      </trkpt>
      <trkpt lat="44.04584" lon="1.8762">
        <ele>291</ele>
        <time>2020-10-04T12:38:24.729Z</time>
      </trkpt>
      <trkpt lat="44.04584" lon="1.87621">
        <ele>291</ele>
        <time>2020-10-04T12:38:25.729Z</time>
      </trkpt>
      <trkpt lat="44.04583" lon="1.87623">
        <ele>291</ele>
        <time>2020-10-04T12:38:26.729Z</time>
      </trkpt>
      <trkpt lat="44.04583" lon="1.87624">
        <ele>291</ele>
        <time>2020-10-04T12:38:27.729Z</time>
      </trkpt>
      <trkpt lat="44.04582" lon="1.87625">
        <ele>291</ele>
        <time>2020-10-04T12:38:28.729Z</time>
      </trkpt>
      <trkpt lat="44.04581" lon="1.87627">
        <ele>291</ele>
        <time>2020-10-04T12:38:29.729Z</time>
      </trkpt>
      <trkpt lat="44.04581" lon="1.87628">
        <ele>291</ele>
        <time>2020-10-04T12:38:30.729Z</time>
      </trkpt>
      <trkpt lat="44.0458" lon="1.87629">
        <ele>291</ele>
        <time>2020-10-04T12:38:31.729Z</time>
      </trkpt>
      <trkpt lat="44.04579" lon="1.8763">
        <ele>291</ele>
        <time>2020-10-04T12:38:32.729Z</time>
      </trkpt>
      <trkpt lat="44.04579" lon="1.87631">
        <ele>291</ele>
        <time>2020-10-04T12:38:33.729Z</time>
      </trkpt>
      <trkpt lat="44.04578" lon="1.87632">
        <ele>292</ele>
        <time>2020-10-04T12:38:34.729Z</time>
      </trkpt>
      <trkpt lat="44.04578" lon="1.87634">
        <ele>292</ele>
        <time>2020-10-04T12:38:35.729Z</time>
      </trkpt>
      <trkpt lat="44.04578" lon="1.87635">
        <ele>292</ele>
        <time>2020-10-04T12:38:36.729Z</time>
      </trkpt>
      <trkpt lat="44.04577" lon="1.87636">
        <ele>292</ele>
        <time>2020-10-04T12:38:37.729Z</time>
      </trkpt>
      <trkpt lat="44.04576" lon="1.87637">
        <ele>292</ele>
        <time>2020-10-04T12:38:38.729Z</time>
      </trkpt>
      <trkpt lat="44.04576" lon="1.87638">
        <ele>292</ele>
        <time>2020-10-04T12:38:39.729Z</time>
      </trkpt>
      <trkpt lat="44.04575" lon="1.87639">
        <ele>292</ele>
        <time>2020-10-04T12:38:40.729Z</time>
      </trkpt>
      <trkpt lat="44.04575" lon="1.87641">
        <ele>292</ele>
        <time>2020-10-04T12:38:41.729Z</time>
      </trkpt>
      <trkpt lat="44.04574" lon="1.87642">
        <ele>292</ele>
        <time>2020-10-04T12:38:42.729Z</time>
      </trkpt>
      <trkpt lat="44.04574" lon="1.87643">
        <ele>292</ele>
        <time>2020-10-04T12:38:43.729Z</time>
      </trkpt>
      <trkpt lat="44.04573" lon="1.87645">
        <ele>292</ele>
        <time>2020-10-04T12:38:44.729Z</time>
      </trkpt>
      <trkpt lat="44.04572" lon="1.87646">
        <ele>292</ele>
        <time>2020-10-04T12:38:45.729Z</time>
      </trkpt>
      <trkpt lat="44.04572" lon="1.87647">
        <ele>292</ele>
        <time>2020-10-04T12:38:46.729Z</time>
      </trkpt>
      <trkpt lat="44.04571" lon="1.87649">
        <ele>292</ele>
        <time>2020-10-04T12:38:47.729Z</time>
      </trkpt>
      <trkpt lat="44.04571" lon="1.8765">
        <ele>292</ele>
        <time>2020-10-04T12:38:48.729Z</time>
      </trkpt>
      <trkpt lat="44.0457" lon="1.87651">
        <ele>292</ele>
        <time>2020-10-04T12:38:49.729Z</time>
      </trkpt>
      <trkpt lat="44.0457" lon="1.87653">
        <ele>292</ele>
        <time>2020-10-04T12:38:50.729Z</time>
      </trkpt>
      <trkpt lat="44.04569" lon="1.87654">
        <ele>292</ele>
        <time>2020-10-04T12:38:51.729Z</time>
      </trkpt>
      <trkpt lat="44.04569" lon="1.87656">
        <ele>292</ele>
        <time>2020-10-04T12:38:52.729Z</time>
      </trkpt>
      <trkpt lat="44.04568" lon="1.87657">
        <ele>292</ele>
        <time>2020-10-04T12:38:53.729Z</time>
      </trkpt>
      <trkpt lat="44.04568" lon="1.87658">
        <ele>292</ele>
        <time>2020-10-04T12:38:54.729Z</time>
      </trkpt>
      <trkpt lat="44.04567" lon="1.8766">
        <ele>292</ele>
        <time>2020-10-04T12:38:55.729Z</time>
      </trkpt>
      <trkpt lat="44.04566" lon="1.87661">
        <ele>292</ele>
        <time>2020-10-04T12:38:56.729Z</time>
      </trkpt>
      <trkpt lat="44.04566" lon="1.87662">
        <ele>292</ele>
        <time>2020-10-04T12:38:57.729Z</time>
      </trkpt>
      <trkpt lat="44.04565" lon="1.87664">
        <ele>292</ele>
        <time>2020-10-04T12:38:58.729Z</time>
      </trkpt>
      <trkpt lat="44.04564" lon="1.87665">
        <ele>292</ele>
        <time>2020-10-04T12:38:59.729Z</time>
      </trkpt>
      <trkpt lat="44.04564" lon="1.87666">
        <ele>292</ele>
        <time>2020-10-04T12:39:00.729Z</time>
      </trkpt>
      <trkpt lat="44.04563" lon="1.87668">
        <ele>292</ele>
        <time>2020-10-04T12:39:01.729Z</time>
      </trkpt>
      <trkpt lat="44.04563" lon="1.87669">
        <ele>292</ele>
        <time>2020-10-04T12:39:02.729Z</time>
      </trkpt>
      <trkpt lat="44.04562" lon="1.8767">
        <ele>293</ele>
        <time>2020-10-04T12:39:03.729Z</time>
      </trkpt>
      <trkpt lat="44.04561" lon="1.87672">
        <ele>293</ele>
        <time>2020-10-04T12:39:04.729Z</time>
      </trkpt>
      <trkpt lat="44.0456" lon="1.87673">
        <ele>293</ele>
        <time>2020-10-04T12:39:05.729Z</time>
      </trkpt>
      <trkpt lat="44.0456" lon="1.87674">
        <ele>293</ele>
        <time>2020-10-04T12:39:06.729Z</time>
      </trkpt>
      <trkpt lat="44.04559" lon="1.87676">
        <ele>293</ele>
        <time>2020-10-04T12:39:07.729Z</time>
      </trkpt>
      <trkpt lat="44.04559" lon="1.87677">
        <ele>293</ele>
        <time>2020-10-04T12:39:08.729Z</time>
      </trkpt>
      <trkpt lat="44.04558" lon="1.87678">
        <ele>293</ele>
        <time>2020-10-04T12:39:09.729Z</time>
      </trkpt>
      <trkpt lat="44.04557" lon="1.8768">
        <ele>293</ele>
        <time>2020-10-04T12:39:10.729Z</time>
      </trkpt>
      <trkpt lat="44.04557" lon="1.87681">
        <ele>293</ele>
        <time>2020-10-04T12:39:11.729Z</time>
      </trkpt>
      <trkpt lat="44.04556" lon="1.87683">
        <ele>293</ele>
        <time>2020-10-04T12:39:12.729Z</time>
      </trkpt>
      <trkpt lat="44.04555" lon="1.87684">
        <ele>293</ele>
        <time>2020-10-04T12:39:13.729Z</time>
      </trkpt>
      <trkpt lat="44.04555" lon="1.87685">
        <ele>293</ele>
        <time>2020-10-04T12:39:14.729Z</time>
      </trkpt>
      <trkpt lat="44.04554" lon="1.87687">
        <ele>293</ele>
        <time>2020-10-04T12:39:15.729Z</time>
      </trkpt>
      <trkpt lat="44.04554" lon="1.87688">
        <ele>293</ele>
        <time>2020-10-04T12:39:16.729Z</time>
      </trkpt>
      <trkpt lat="44.04553" lon="1.8769">
        <ele>293</ele>
        <time>2020-10-04T12:39:17.729Z</time>
      </trkpt>
      <trkpt lat="44.04552" lon="1.87691">
        <ele>293</ele>
        <time>2020-10-04T12:39:18.729Z</time>
      </trkpt>
      <trkpt lat="44.04552" lon="1.87692">
        <ele>293</ele>
        <time>2020-10-04T12:39:19.729Z</time>
      </trkpt>
      <trkpt lat="44.04551" lon="1.87694">
        <ele>293</ele>
        <time>2020-10-04T12:39:20.729Z</time>
      </trkpt>
      <trkpt lat="44.0455" lon="1.87695">
        <ele>293</ele>
        <time>2020-10-04T12:39:21.729Z</time>
      </trkpt>
      <trkpt lat="44.0455" lon="1.87696">
        <ele>293</ele>
        <time>2020-10-04T12:39:22.729Z</time>
      </trkpt>
      <trkpt lat="44.04549" lon="1.87698">
        <ele>293</ele>
        <time>2020-10-04T12:39:23.729Z</time>
      </trkpt>
      <trkpt lat="44.04549" lon="1.87699">
        <ele>293</ele>
        <time>2020-10-04T12:39:24.729Z</time>
      </trkpt>
      <trkpt lat="44.04548" lon="1.877">
        <ele>293</ele>
        <time>2020-10-04T12:39:25.729Z</time>
      </trkpt>
      <trkpt lat="44.04547" lon="1.87702">
        <ele>293</ele>
        <time>2020-10-04T12:39:26.729Z</time>
      </trkpt>
      <trkpt lat="44.04547" lon="1.87703">
        <ele>293</ele>
        <time>2020-10-04T12:39:27.729Z</time>
      </trkpt>
      <trkpt lat="44.04546" lon="1.87704">
        <ele>293</ele>
        <time>2020-10-04T12:39:28.729Z</time>
      </trkpt>
      <trkpt lat="44.04546" lon="1.87705">
        <ele>293</ele>
        <time>2020-10-04T12:39:29.729Z</time>
      </trkpt>
      <trkpt lat="44.04545" lon="1.87707">
        <ele>293</ele>
        <time>2020-10-04T12:39:30.729Z</time>
      </trkpt>
      <trkpt lat="44.04544" lon="1.87708">
        <ele>293</ele>
        <time>2020-10-04T12:39:31.729Z</time>
      </trkpt>
      <trkpt lat="44.04544" lon="1.87709">
        <ele>293</ele>
        <time>2020-10-04T12:39:32.729Z</time>
      </trkpt>
      <trkpt lat="44.04543" lon="1.8771">
        <ele>293</ele>
        <time>2020-10-04T12:39:33.729Z</time>
      </trkpt>
      <trkpt lat="44.04542" lon="1.87712">
        <ele>293</ele>
        <time>2020-10-04T12:39:34.729Z</time>
      </trkpt>
      <trkpt lat="44.04542" lon="1.87713">
        <ele>293</ele>
        <time>2020-10-04T12:39:35.729Z</time>
      </trkpt>
      <trkpt lat="44.04541" lon="1.87714">
        <ele>293</ele>
        <time>2020-10-04T12:39:36.729Z</time>
      </trkpt>
      <trkpt lat="44.04541" lon="1.87716">
        <ele>294</ele>
        <time>2020-10-04T12:39:37.729Z</time>
      </trkpt>
      <trkpt lat="44.0454" lon="1.87717">
        <ele>294</ele>
        <time>2020-10-04T12:39:38.729Z</time>
      </trkpt>
      <trkpt lat="44.04539" lon="1.87718">
        <ele>294</ele>
        <time>2020-10-04T12:39:39.729Z</time>
      </trkpt>
      <trkpt lat="44.04539" lon="1.8772">
        <ele>294</ele>
        <time>2020-10-04T12:39:40.729Z</time>
      </trkpt>
      <trkpt lat="44.04539" lon="1.87721">
        <ele>294</ele>
        <time>2020-10-04T12:39:41.729Z</time>
      </trkpt>
      <trkpt lat="44.04538" lon="1.87722">
        <ele>294</ele>
        <time>2020-10-04T12:39:42.729Z</time>
      </trkpt>
      <trkpt lat="44.04538" lon="1.87723">
        <ele>294</ele>
        <time>2020-10-04T12:39:43.729Z</time>
      </trkpt>
      <trkpt lat="44.04538" lon="1.87725">
        <ele>294</ele>
        <time>2020-10-04T12:39:44.729Z</time>
      </trkpt>
      <trkpt lat="44.04537" lon="1.87726">
        <ele>294</ele>
        <time>2020-10-04T12:39:45.729Z</time>
      </trkpt>
      <trkpt lat="44.04537" lon="1.87728">
        <ele>294</ele>
        <time>2020-10-04T12:39:46.729Z</time>
      </trkpt>
      <trkpt lat="44.04536" lon="1.87729">
        <ele>294</ele>
        <time>2020-10-04T12:39:47.729Z</time>
      </trkpt>
      <trkpt lat="44.04536" lon="1.8773">
        <ele>294</ele>
        <time>2020-10-04T12:39:48.729Z</time>
      </trkpt>
      <trkpt lat="44.04535" lon="1.87731">
        <ele>294</ele>
        <time>2020-10-04T12:39:49.729Z</time>
      </trkpt>
      <trkpt lat="44.04534" lon="1.87732">
        <ele>294</ele>
        <time>2020-10-04T12:39:50.729Z</time>
      </trkpt>
      <trkpt lat="44.04534" lon="1.87733">
        <ele>294</ele>
        <time>2020-10-04T12:39:51.729Z</time>
      </trkpt>
      <trkpt lat="44.04533" lon="1.87734">
        <ele>294</ele>
        <time>2020-10-04T12:39:52.729Z</time>
      </trkpt>
      <trkpt lat="44.04532" lon="1.87735">
        <ele>295</ele>
        <time>2020-10-04T12:39:53.729Z</time>
      </trkpt>
      <trkpt lat="44.04532" lon="1.87736">
        <ele>295</ele>
        <time>2020-10-04T12:39:54.729Z</time>
      </trkpt>
      <trkpt lat="44.04531" lon="1.87738">
        <ele>295</ele>
        <time>2020-10-04T12:39:55.729Z</time>
      </trkpt>
      <trkpt lat="44.04531" lon="1.87739">
        <ele>295</ele>
        <time>2020-10-04T12:39:56.729Z</time>
      </trkpt>
      <trkpt lat="44.0453" lon="1.87741">
        <ele>295</ele>
        <time>2020-10-04T12:39:57.729Z</time>
      </trkpt>
      <trkpt lat="44.0453" lon="1.87742">
        <ele>295</ele>
        <time>2020-10-04T12:39:58.729Z</time>
      </trkpt>
      <trkpt lat="44.04529" lon="1.87743">
        <ele>295</ele>
        <time>2020-10-04T12:39:59.729Z</time>
      </trkpt>
      <trkpt lat="44.04528" lon="1.87744">
        <ele>295</ele>
        <time>2020-10-04T12:40:00.729Z</time>
      </trkpt>
      <trkpt lat="44.04527" lon="1.87745">
        <ele>295</ele>
        <time>2020-10-04T12:40:01.729Z</time>
      </trkpt>
      <trkpt lat="44.04527" lon="1.87747">
        <ele>295</ele>
        <time>2020-10-04T12:40:02.729Z</time>
      </trkpt>
      <trkpt lat="44.04526" lon="1.87748">
        <ele>295</ele>
        <time>2020-10-04T12:40:03.729Z</time>
      </trkpt>
      <trkpt lat="44.04525" lon="1.87749">
        <ele>295</ele>
        <time>2020-10-04T12:40:04.729Z</time>
      </trkpt>
      <trkpt lat="44.04525" lon="1.87751">
        <ele>295</ele>
        <time>2020-10-04T12:40:05.729Z</time>
      </trkpt>
      <trkpt lat="44.04524" lon="1.87752">
        <ele>295</ele>
        <time>2020-10-04T12:40:06.729Z</time>
      </trkpt>
      <trkpt lat="44.04523" lon="1.87753">
        <ele>295</ele>
        <time>2020-10-04T12:40:07.729Z</time>
      </trkpt>
      <trkpt lat="44.04523" lon="1.87754">
        <ele>295</ele>
        <time>2020-10-04T12:40:08.729Z</time>
      </trkpt>
      <trkpt lat="44.04522" lon="1.87756">
        <ele>295</ele>
        <time>2020-10-04T12:40:09.729Z</time>
      </trkpt>
      <trkpt lat="44.04522" lon="1.87757">
        <ele>295</ele>
        <time>2020-10-04T12:40:10.729Z</time>
      </trkpt>
      <trkpt lat="44.04521" lon="1.87758">
        <ele>295</ele>
        <time>2020-10-04T12:40:11.729Z</time>
      </trkpt>
      <trkpt lat="44.0452" lon="1.8776">
        <ele>295</ele>
        <time>2020-10-04T12:40:12.729Z</time>
      </trkpt>
      <trkpt lat="44.0452" lon="1.87761">
        <ele>295</ele>
        <time>2020-10-04T12:40:13.729Z</time>
      </trkpt>
      <trkpt lat="44.04519" lon="1.87762">
        <ele>295</ele>
        <time>2020-10-04T12:40:14.729Z</time>
      </trkpt>
      <trkpt lat="44.04518" lon="1.87763">
        <ele>295</ele>
        <time>2020-10-04T12:40:15.729Z</time>
      </trkpt>
      <trkpt lat="44.04518" lon="1.87765">
        <ele>295</ele>
        <time>2020-10-04T12:40:16.729Z</time>
      </trkpt>
      <trkpt lat="44.04517" lon="1.87766">
        <ele>295</ele>
        <time>2020-10-04T12:40:17.729Z</time>
      </trkpt>
      <trkpt lat="44.04517" lon="1.87767">
        <ele>295</ele>
        <time>2020-10-04T12:40:18.729Z</time>
      </trkpt>
      <trkpt lat="44.04516" lon="1.87769">
        <ele>295</ele>
        <time>2020-10-04T12:40:19.729Z</time>
      </trkpt>
      <trkpt lat="44.04516" lon="1.8777">
        <ele>295</ele>
        <time>2020-10-04T12:40:20.729Z</time>
      </trkpt>
      <trkpt lat="44.04515" lon="1.87771">
        <ele>295</ele>
        <time>2020-10-04T12:40:21.729Z</time>
      </trkpt>
      <trkpt lat="44.04514" lon="1.87772">
        <ele>295</ele>
        <time>2020-10-04T12:40:22.729Z</time>
      </trkpt>
      <trkpt lat="44.04514" lon="1.87773">
        <ele>295</ele>
        <time>2020-10-04T12:40:23.729Z</time>
      </trkpt>
      <trkpt lat="44.04513" lon="1.87775">
        <ele>295</ele>
        <time>2020-10-04T12:40:24.729Z</time>
      </trkpt>
      <trkpt lat="44.04513" lon="1.87776">
        <ele>295</ele>
        <time>2020-10-04T12:40:25.729Z</time>
      </trkpt>
      <trkpt lat="44.04512" lon="1.87777">
        <ele>295</ele>
        <time>2020-10-04T12:40:26.729Z</time>
      </trkpt>
      <trkpt lat="44.04512" lon="1.87778">
        <ele>295</ele>
        <time>2020-10-04T12:40:27.729Z</time>
      </trkpt>
      <trkpt lat="44.04511" lon="1.8778">
        <ele>295</ele>
        <time>2020-10-04T12:40:28.729Z</time>
      </trkpt>
      <trkpt lat="44.04511" lon="1.87781">
        <ele>295</ele>
        <time>2020-10-04T12:40:29.729Z</time>
      </trkpt>
      <trkpt lat="44.0451" lon="1.87783">
        <ele>295</ele>
        <time>2020-10-04T12:40:30.729Z</time>
      </trkpt>
      <trkpt lat="44.04509" lon="1.87784">
        <ele>296</ele>
        <time>2020-10-04T12:40:31.729Z</time>
      </trkpt>
      <trkpt lat="44.04509" lon="1.87785">
        <ele>296</ele>
        <time>2020-10-04T12:40:32.729Z</time>
      </trkpt>
      <trkpt lat="44.04508" lon="1.87786">
        <ele>296</ele>
        <time>2020-10-04T12:40:33.729Z</time>
      </trkpt>
      <trkpt lat="44.04508" lon="1.87788">
        <ele>296</ele>
        <time>2020-10-04T12:40:34.729Z</time>
      </trkpt>
      <trkpt lat="44.04507" lon="1.87789">
        <ele>296</ele>
        <time>2020-10-04T12:40:35.729Z</time>
      </trkpt>
      <trkpt lat="44.04506" lon="1.8779">
        <ele>296</ele>
        <time>2020-10-04T12:40:36.729Z</time>
      </trkpt>
      <trkpt lat="44.04506" lon="1.87791">
        <ele>296</ele>
        <time>2020-10-04T12:40:37.729Z</time>
      </trkpt>
      <trkpt lat="44.04505" lon="1.87792">
        <ele>296</ele>
        <time>2020-10-04T12:40:38.729Z</time>
      </trkpt>
      <trkpt lat="44.04504" lon="1.87794">
        <ele>296</ele>
        <time>2020-10-04T12:40:39.729Z</time>
      </trkpt>
      <trkpt lat="44.04504" lon="1.87795">
        <ele>296</ele>
        <time>2020-10-04T12:40:40.729Z</time>
      </trkpt>
      <trkpt lat="44.04503" lon="1.87796">
        <ele>296</ele>
        <time>2020-10-04T12:40:41.729Z</time>
      </trkpt>
      <trkpt lat="44.04503" lon="1.87798">
        <ele>296</ele>
        <time>2020-10-04T12:40:42.729Z</time>
      </trkpt>
      <trkpt lat="44.04502" lon="1.87799">
        <ele>296</ele>
        <time>2020-10-04T12:40:43.729Z</time>
      </trkpt>
      <trkpt lat="44.04501" lon="1.878">
        <ele>296</ele>
        <time>2020-10-04T12:40:44.729Z</time>
      </trkpt>
      <trkpt lat="44.04501" lon="1.87802">
        <ele>296</ele>
        <time>2020-10-04T12:40:45.729Z</time>
      </trkpt>
      <trkpt lat="44.045" lon="1.87803">
        <ele>296</ele>
        <time>2020-10-04T12:40:46.729Z</time>
      </trkpt>
      <trkpt lat="44.045" lon="1.87804">
        <ele>296</ele>
        <time>2020-10-04T12:40:47.729Z</time>
      </trkpt>
      <trkpt lat="44.04499" lon="1.87806">
        <ele>296</ele>
        <time>2020-10-04T12:40:48.729Z</time>
      </trkpt>
      <trkpt lat="44.04498" lon="1.87807">
        <ele>296</ele>
        <time>2020-10-04T12:40:49.729Z</time>
      </trkpt>
      <trkpt lat="44.04498" lon="1.87808">
        <ele>296</ele>
        <time>2020-10-04T12:40:50.729Z</time>
      </trkpt>
      <trkpt lat="44.04497" lon="1.87809">
        <ele>296</ele>
        <time>2020-10-04T12:40:51.729Z</time>
      </trkpt>
      <trkpt lat="44.04497" lon="1.87811">
        <ele>296</ele>
        <time>2020-10-04T12:40:52.729Z</time>
      </trkpt>
      <trkpt lat="44.04496" lon="1.87812">
        <ele>296</ele>
        <time>2020-10-04T12:40:53.729Z</time>
      </trkpt>
      <trkpt lat="44.04496" lon="1.87814">
        <ele>297</ele>
        <time>2020-10-04T12:40:54.729Z</time>
      </trkpt>
      <trkpt lat="44.04495" lon="1.87815">
        <ele>297</ele>
        <time>2020-10-04T12:40:55.729Z</time>
      </trkpt>
      <trkpt lat="44.04495" lon="1.87816">
        <ele>297</ele>
        <time>2020-10-04T12:40:56.729Z</time>
      </trkpt>
      <trkpt lat="44.04494" lon="1.87818">
        <ele>297</ele>
        <time>2020-10-04T12:40:57.729Z</time>
      </trkpt>
      <trkpt lat="44.04493" lon="1.87819">
        <ele>297</ele>
        <time>2020-10-04T12:40:58.729Z</time>
      </trkpt>
      <trkpt lat="44.04493" lon="1.8782">
        <ele>297</ele>
        <time>2020-10-04T12:40:59.729Z</time>
      </trkpt>
      <trkpt lat="44.04492" lon="1.87821">
        <ele>297</ele>
        <time>2020-10-04T12:41:00.729Z</time>
      </trkpt>
      <trkpt lat="44.04491" lon="1.87822">
        <ele>297</ele>
        <time>2020-10-04T12:41:01.729Z</time>
      </trkpt>
      <trkpt lat="44.04491" lon="1.87824">
        <ele>297</ele>
        <time>2020-10-04T12:41:02.729Z</time>
      </trkpt>
      <trkpt lat="44.0449" lon="1.87825">
        <ele>297</ele>
        <time>2020-10-04T12:41:03.729Z</time>
      </trkpt>
      <trkpt lat="44.0449" lon="1.87826">
        <ele>297</ele>
        <time>2020-10-04T12:41:04.729Z</time>
      </trkpt>
      <trkpt lat="44.04489" lon="1.87827">
        <ele>297</ele>
        <time>2020-10-04T12:41:05.729Z</time>
      </trkpt>
      <trkpt lat="44.04488" lon="1.87828">
        <ele>297</ele>
        <time>2020-10-04T12:41:06.729Z</time>
      </trkpt>
      <trkpt lat="44.04488" lon="1.87829">
        <ele>297</ele>
        <time>2020-10-04T12:41:07.729Z</time>
      </trkpt>
      <trkpt lat="44.04488" lon="1.8783">
        <ele>297</ele>
        <time>2020-10-04T12:41:08.729Z</time>
      </trkpt>
      <trkpt lat="44.04487" lon="1.87831">
        <ele>297</ele>
        <time>2020-10-04T12:41:09.729Z</time>
      </trkpt>
      <trkpt lat="44.04487" lon="1.87832">
        <ele>297</ele>
        <time>2020-10-04T12:41:10.729Z</time>
      </trkpt>
      <trkpt lat="44.04486" lon="1.87834">
        <ele>297</ele>
        <time>2020-10-04T12:41:11.729Z</time>
      </trkpt>
      <trkpt lat="44.04485" lon="1.87835">
        <ele>298</ele>
        <time>2020-10-04T12:41:12.729Z</time>
      </trkpt>
      <trkpt lat="44.04484" lon="1.87836">
        <ele>298</ele>
        <time>2020-10-04T12:41:13.729Z</time>
      </trkpt>
      <trkpt lat="44.04484" lon="1.87837">
        <ele>298</ele>
        <time>2020-10-04T12:41:14.729Z</time>
      </trkpt>
      <trkpt lat="44.04483" lon="1.87838">
        <ele>298</ele>
        <time>2020-10-04T12:41:15.729Z</time>
      </trkpt>
      <trkpt lat="44.04482" lon="1.87839">
        <ele>298</ele>
        <time>2020-10-04T12:41:16.729Z</time>
      </trkpt>
      <trkpt lat="44.04481" lon="1.87841">
        <ele>298</ele>
        <time>2020-10-04T12:41:17.729Z</time>
      </trkpt>
      <trkpt lat="44.04481" lon="1.87842">
        <ele>298</ele>
        <time>2020-10-04T12:41:18.729Z</time>
      </trkpt>
      <trkpt lat="44.0448" lon="1.87843">
        <ele>298</ele>
        <time>2020-10-04T12:41:19.729Z</time>
      </trkpt>
      <trkpt lat="44.04479" lon="1.87844">
        <ele>298</ele>
        <time>2020-10-04T12:41:20.729Z</time>
      </trkpt>
      <trkpt lat="44.04479" lon="1.87845">
        <ele>298</ele>
        <time>2020-10-04T12:41:21.729Z</time>
      </trkpt>
      <trkpt lat="44.04478" lon="1.87847">
        <ele>298</ele>
        <time>2020-10-04T12:41:22.729Z</time>
      </trkpt>
      <trkpt lat="44.04477" lon="1.87848">
        <ele>298</ele>
        <time>2020-10-04T12:41:23.729Z</time>
      </trkpt>
      <trkpt lat="44.04476" lon="1.87849">
        <ele>298</ele>
        <time>2020-10-04T12:41:24.729Z</time>
      </trkpt>
      <trkpt lat="44.04476" lon="1.87849">
        <ele>298</ele>
        <time>2020-10-04T12:41:25.729Z</time>
      </trkpt>
      <trkpt lat="44.04476" lon="1.87849">
        <ele>298</ele>
        <time>2020-10-04T12:41:26.729Z</time>
      </trkpt>
      <trkpt lat="44.04475" lon="1.8785">
        <ele>298</ele>
        <time>2020-10-04T12:41:27.729Z</time>
      </trkpt>
      <trkpt lat="44.04475" lon="1.87851">
        <ele>298</ele>
        <time>2020-10-04T12:41:28.729Z</time>
      </trkpt>
      <trkpt lat="44.04474" lon="1.87852">
        <ele>298</ele>
        <time>2020-10-04T12:41:29.729Z</time>
      </trkpt>
      <trkpt lat="44.04473" lon="1.87853">
        <ele>298</ele>
        <time>2020-10-04T12:41:30.729Z</time>
      </trkpt>
      <trkpt lat="44.04473" lon="1.87854">
        <ele>298</ele>
        <time>2020-10-04T12:41:31.729Z</time>
      </trkpt>
      <trkpt lat="44.04472" lon="1.87854">
        <ele>298</ele>
        <time>2020-10-04T12:41:32.729Z</time>
      </trkpt>
      <trkpt lat="44.04472" lon="1.87855">
        <ele>298</ele>
        <time>2020-10-04T12:41:33.729Z</time>
      </trkpt>
      <trkpt lat="44.04471" lon="1.87856">
        <ele>298</ele>
        <time>2020-10-04T12:41:34.729Z</time>
      </trkpt>
      <trkpt lat="44.04471" lon="1.87857">
        <ele>298</ele>
        <time>2020-10-04T12:41:35.729Z</time>
      </trkpt>
      <trkpt lat="44.0447" lon="1.87858">
        <ele>298</ele>
        <time>2020-10-04T12:41:36.729Z</time>
      </trkpt>
      <trkpt lat="44.0447" lon="1.8786">
        <ele>298</ele>
        <time>2020-10-04T12:41:37.729Z</time>
      </trkpt>
      <trkpt lat="44.04469" lon="1.87861">
        <ele>298</ele>
        <time>2020-10-04T12:41:38.729Z</time>
      </trkpt>
      <trkpt lat="44.04468" lon="1.87862">
        <ele>298</ele>
        <time>2020-10-04T12:41:39.729Z</time>
      </trkpt>
      <trkpt lat="44.04467" lon="1.87863">
        <ele>298</ele>
        <time>2020-10-04T12:41:40.729Z</time>
      </trkpt>
      <trkpt lat="44.04467" lon="1.87864">
        <ele>298</ele>
        <time>2020-10-04T12:41:41.729Z</time>
      </trkpt>
      <trkpt lat="44.04466" lon="1.87865">
        <ele>298</ele>
        <time>2020-10-04T12:41:42.729Z</time>
      </trkpt>
      <trkpt lat="44.04465" lon="1.87866">
        <ele>298</ele>
        <time>2020-10-04T12:41:43.729Z</time>
      </trkpt>
      <trkpt lat="44.04464" lon="1.87867">
        <ele>298</ele>
        <time>2020-10-04T12:41:44.729Z</time>
      </trkpt>
      <trkpt lat="44.04463" lon="1.87869">
        <ele>298</ele>
        <time>2020-10-04T12:41:45.729Z</time>
      </trkpt>
      <trkpt lat="44.04463" lon="1.8787">
        <ele>298</ele>
        <time>2020-10-04T12:41:46.729Z</time>
      </trkpt>
      <trkpt lat="44.04462" lon="1.87871">
        <ele>298</ele>
        <time>2020-10-04T12:41:47.729Z</time>
      </trkpt>
      <trkpt lat="44.04461" lon="1.87872">
        <ele>298</ele>
        <time>2020-10-04T12:41:48.729Z</time>
      </trkpt>
      <trkpt lat="44.0446" lon="1.87873">
        <ele>298</ele>
        <time>2020-10-04T12:41:49.729Z</time>
      </trkpt>
      <trkpt lat="44.04459" lon="1.87874">
        <ele>298</ele>
        <time>2020-10-04T12:41:50.729Z</time>
      </trkpt>
      <trkpt lat="44.04458" lon="1.87875">
        <ele>298</ele>
        <time>2020-10-04T12:41:51.729Z</time>
      </trkpt>
      <trkpt lat="44.04457" lon="1.87876">
        <ele>298</ele>
        <time>2020-10-04T12:41:52.729Z</time>
      </trkpt>
      <trkpt lat="44.04456" lon="1.87877">
        <ele>298</ele>
        <time>2020-10-04T12:41:53.729Z</time>
      </trkpt>
      <trkpt lat="44.04455" lon="1.87878">
        <ele>298</ele>
        <time>2020-10-04T12:41:54.729Z</time>
      </trkpt>
      <trkpt lat="44.04454" lon="1.87879">
        <ele>298</ele>
        <time>2020-10-04T12:41:55.729Z</time>
      </trkpt>
      <trkpt lat="44.04454" lon="1.8788">
        <ele>298</ele>
        <time>2020-10-04T12:41:56.729Z</time>
      </trkpt>
      <trkpt lat="44.04453" lon="1.87881">
        <ele>298</ele>
        <time>2020-10-04T12:41:57.729Z</time>
      </trkpt>
      <trkpt lat="44.04452" lon="1.87882">
        <ele>298</ele>
        <time>2020-10-04T12:41:58.729Z</time>
      </trkpt>
      <trkpt lat="44.04451" lon="1.87883">
        <ele>298</ele>
        <time>2020-10-04T12:41:59.729Z</time>
      </trkpt>
      <trkpt lat="44.0445" lon="1.87884">
        <ele>298</ele>
        <time>2020-10-04T12:42:00.729Z</time>
      </trkpt>
      <trkpt lat="44.04449" lon="1.87885">
        <ele>298</ele>
        <time>2020-10-04T12:42:01.729Z</time>
      </trkpt>
      <trkpt lat="44.04448" lon="1.87886">
        <ele>298</ele>
        <time>2020-10-04T12:42:02.729Z</time>
      </trkpt>
      <trkpt lat="44.04447" lon="1.87887">
        <ele>298</ele>
        <time>2020-10-04T12:42:03.729Z</time>
      </trkpt>
      <trkpt lat="44.04446" lon="1.87888">
        <ele>298</ele>
        <time>2020-10-04T12:42:04.729Z</time>
      </trkpt>
      <trkpt lat="44.04445" lon="1.87889">
        <ele>298</ele>
        <time>2020-10-04T12:42:05.729Z</time>
      </trkpt>
      <trkpt lat="44.04444" lon="1.8789">
        <ele>298</ele>
        <time>2020-10-04T12:42:06.729Z</time>
      </trkpt>
      <trkpt lat="44.04443" lon="1.87891">
        <ele>298</ele>
        <time>2020-10-04T12:42:07.729Z</time>
      </trkpt>
      <trkpt lat="44.04442" lon="1.87892">
        <ele>298</ele>
        <time>2020-10-04T12:42:08.729Z</time>
      </trkpt>
      <trkpt lat="44.04441" lon="1.87893">
        <ele>298</ele>
        <time>2020-10-04T12:42:09.729Z</time>
      </trkpt>
      <trkpt lat="44.04441" lon="1.87894">
        <ele>298</ele>
        <time>2020-10-04T12:42:10.729Z</time>
      </trkpt>
      <trkpt lat="44.0444" lon="1.87896">
        <ele>298</ele>
        <time>2020-10-04T12:42:11.729Z</time>
      </trkpt>
      <trkpt lat="44.04439" lon="1.87897">
        <ele>298</ele>
        <time>2020-10-04T12:42:12.729Z</time>
      </trkpt>
      <trkpt lat="44.04438" lon="1.87898">
        <ele>298</ele>
        <time>2020-10-04T12:42:13.729Z</time>
      </trkpt>
      <trkpt lat="44.04437" lon="1.87899">
        <ele>298</ele>
        <time>2020-10-04T12:42:14.729Z</time>
      </trkpt>
      <trkpt lat="44.04436" lon="1.879">
        <ele>298</ele>
        <time>2020-10-04T12:42:15.729Z</time>
      </trkpt>
      <trkpt lat="44.04436" lon="1.87901">
        <ele>298</ele>
        <time>2020-10-04T12:42:16.729Z</time>
      </trkpt>
      <trkpt lat="44.04434" lon="1.87902">
        <ele>298</ele>
        <time>2020-10-04T12:42:17.729Z</time>
      </trkpt>
      <trkpt lat="44.04433" lon="1.87903">
        <ele>298</ele>
        <time>2020-10-04T12:42:18.729Z</time>
      </trkpt>
      <trkpt lat="44.04433" lon="1.87904">
        <ele>298</ele>
        <time>2020-10-04T12:42:19.729Z</time>
      </trkpt>
      <trkpt lat="44.04432" lon="1.87905">
        <ele>298</ele>
        <time>2020-10-04T12:42:20.729Z</time>
      </trkpt>
      <trkpt lat="44.04431" lon="1.87906">
        <ele>298</ele>
        <time>2020-10-04T12:42:21.729Z</time>
      </trkpt>
      <trkpt lat="44.0443" lon="1.87907">
        <ele>298</ele>
        <time>2020-10-04T12:42:22.729Z</time>
      </trkpt>
      <trkpt lat="44.04429" lon="1.87908">
        <ele>298</ele>
        <time>2020-10-04T12:42:23.729Z</time>
      </trkpt>
      <trkpt lat="44.04429" lon="1.87909">
        <ele>297</ele>
        <time>2020-10-04T12:42:24.729Z</time>
      </trkpt>
      <trkpt lat="44.04428" lon="1.8791">
        <ele>297</ele>
        <time>2020-10-04T12:42:25.729Z</time>
      </trkpt>
      <trkpt lat="44.04427" lon="1.87911">
        <ele>297</ele>
        <time>2020-10-04T12:42:26.729Z</time>
      </trkpt>
      <trkpt lat="44.04427" lon="1.87912">
        <ele>297</ele>
        <time>2020-10-04T12:42:27.729Z</time>
      </trkpt>
      <trkpt lat="44.04426" lon="1.87914">
        <ele>297</ele>
        <time>2020-10-04T12:42:28.729Z</time>
      </trkpt>
      <trkpt lat="44.04425" lon="1.87915">
        <ele>297</ele>
        <time>2020-10-04T12:42:29.729Z</time>
      </trkpt>
      <trkpt lat="44.04425" lon="1.87916">
        <ele>297</ele>
        <time>2020-10-04T12:42:30.729Z</time>
      </trkpt>
      <trkpt lat="44.04424" lon="1.87918">
        <ele>297</ele>
        <time>2020-10-04T12:42:31.729Z</time>
      </trkpt>
      <trkpt lat="44.04423" lon="1.87919">
        <ele>297</ele>
        <time>2020-10-04T12:42:32.729Z</time>
      </trkpt>
      <trkpt lat="44.04423" lon="1.8792">
        <ele>297</ele>
        <time>2020-10-04T12:42:33.729Z</time>
      </trkpt>
      <trkpt lat="44.04422" lon="1.87922">
        <ele>297</ele>
        <time>2020-10-04T12:42:34.729Z</time>
      </trkpt>
      <trkpt lat="44.04422" lon="1.87923">
        <ele>297</ele>
        <time>2020-10-04T12:42:35.729Z</time>
      </trkpt>
      <trkpt lat="44.04422" lon="1.87924">
        <ele>297</ele>
        <time>2020-10-04T12:42:36.729Z</time>
      </trkpt>
      <trkpt lat="44.04421" lon="1.87926">
        <ele>297</ele>
        <time>2020-10-04T12:42:37.729Z</time>
      </trkpt>
      <trkpt lat="44.04421" lon="1.87927">
        <ele>297</ele>
        <time>2020-10-04T12:42:38.729Z</time>
      </trkpt>
      <trkpt lat="44.0442" lon="1.87928">
        <ele>297</ele>
        <time>2020-10-04T12:42:39.729Z</time>
      </trkpt>
      <trkpt lat="44.04419" lon="1.87928">
        <ele>297</ele>
        <time>2020-10-04T12:42:40.729Z</time>
      </trkpt>
      <trkpt lat="44.04418" lon="1.87929">
        <ele>297</ele>
        <time>2020-10-04T12:42:41.729Z</time>
      </trkpt>
      <trkpt lat="44.04417" lon="1.8793">
        <ele>296</ele>
        <time>2020-10-04T12:42:42.729Z</time>
      </trkpt>
      <trkpt lat="44.04417" lon="1.8793">
        <ele>296</ele>
        <time>2020-10-04T12:42:43.729Z</time>
      </trkpt>
      <trkpt lat="44.04417" lon="1.87931">
        <ele>296</ele>
        <time>2020-10-04T12:42:44.729Z</time>
      </trkpt>
      <trkpt lat="44.04416" lon="1.87932">
        <ele>296</ele>
        <time>2020-10-04T12:42:45.729Z</time>
      </trkpt>
      <trkpt lat="44.04416" lon="1.87933">
        <ele>296</ele>
        <time>2020-10-04T12:42:46.729Z</time>
      </trkpt>
      <trkpt lat="44.04416" lon="1.87934">
        <ele>296</ele>
        <time>2020-10-04T12:42:47.729Z</time>
      </trkpt>
      <trkpt lat="44.04415" lon="1.87934">
        <ele>296</ele>
        <time>2020-10-04T12:42:48.729Z</time>
      </trkpt>
      <trkpt lat="44.04414" lon="1.87934">
        <ele>296</ele>
        <time>2020-10-04T12:42:49.729Z</time>
      </trkpt>
      <trkpt lat="44.04413" lon="1.87935">
        <ele>296</ele>
        <time>2020-10-04T12:42:50.729Z</time>
      </trkpt>
      <trkpt lat="44.04412" lon="1.87935">
        <ele>296</ele>
        <time>2020-10-04T12:42:51.729Z</time>
      </trkpt>
      <trkpt lat="44.04411" lon="1.87935">
        <ele>296</ele>
        <time>2020-10-04T12:42:52.729Z</time>
      </trkpt>
      <trkpt lat="44.0441" lon="1.87935">
        <ele>296</ele>
        <time>2020-10-04T12:42:53.729Z</time>
      </trkpt>
      <trkpt lat="44.04409" lon="1.87935">
        <ele>296</ele>
        <time>2020-10-04T12:42:54.729Z</time>
      </trkpt>
      <trkpt lat="44.04408" lon="1.87935">
        <ele>296</ele>
        <time>2020-10-04T12:42:55.729Z</time>
      </trkpt>
      <trkpt lat="44.04407" lon="1.87935">
        <ele>296</ele>
        <time>2020-10-04T12:42:56.729Z</time>
      </trkpt>
      <trkpt lat="44.04406" lon="1.87935">
        <ele>296</ele>
        <time>2020-10-04T12:42:57.729Z</time>
      </trkpt>
      <trkpt lat="44.04406" lon="1.87935">
        <ele>296</ele>
        <time>2020-10-04T12:42:58.729Z</time>
      </trkpt>
      <trkpt lat="44.04404" lon="1.87935">
        <ele>296</ele>
        <time>2020-10-04T12:42:59.729Z</time>
      </trkpt>
      <trkpt lat="44.04404" lon="1.87935">
        <ele>296</ele>
        <time>2020-10-04T12:43:00.729Z</time>
      </trkpt>
      <trkpt lat="44.04403" lon="1.87935">
        <ele>296</ele>
        <time>2020-10-04T12:43:01.729Z</time>
      </trkpt>
      <trkpt lat="44.04402" lon="1.87935">
        <ele>296</ele>
        <time>2020-10-04T12:43:02.729Z</time>
      </trkpt>
      <trkpt lat="44.04401" lon="1.87935">
        <ele>296</ele>
        <time>2020-10-04T12:43:03.729Z</time>
      </trkpt>
      <trkpt lat="44.04401" lon="1.87935">
        <ele>296</ele>
        <time>2020-10-04T12:43:04.729Z</time>
      </trkpt>
      <trkpt lat="44.04401" lon="1.87935">
        <ele>296</ele>
        <time>2020-10-04T12:43:05.729Z</time>
      </trkpt>
      <trkpt lat="44.04401" lon="1.87935">
        <ele>296</ele>
        <time>2020-10-04T12:43:06.729Z</time>
      </trkpt>
      <trkpt lat="44.044" lon="1.87935">
        <ele>297</ele>
        <time>2020-10-04T12:43:07.729Z</time>
      </trkpt>
      <trkpt lat="44.04399" lon="1.87935">
        <ele>297</ele>
        <time>2020-10-04T12:43:08.729Z</time>
      </trkpt>
      <trkpt lat="44.04399" lon="1.87934">
        <ele>297</ele>
        <time>2020-10-04T12:43:09.729Z</time>
      </trkpt>
      <trkpt lat="44.04398" lon="1.87934">
        <ele>297</ele>
        <time>2020-10-04T12:43:10.729Z</time>
      </trkpt>
      <trkpt lat="44.04398" lon="1.87934">
        <ele>297</ele>
        <time>2020-10-04T12:43:11.729Z</time>
      </trkpt>
      <trkpt lat="44.04397" lon="1.87933">
        <ele>297</ele>
        <time>2020-10-04T12:43:12.729Z</time>
      </trkpt>
      <trkpt lat="44.04397" lon="1.87933">
        <ele>297</ele>
        <time>2020-10-04T12:43:13.729Z</time>
      </trkpt>
      <trkpt lat="44.04396" lon="1.87932">
        <ele>297</ele>
        <time>2020-10-04T12:43:14.729Z</time>
      </trkpt>
      <trkpt lat="44.04396" lon="1.87932">
        <ele>297</ele>
        <time>2020-10-04T12:43:15.729Z</time>
      </trkpt>
      <trkpt lat="44.04395" lon="1.87931">
        <ele>297</ele>
        <time>2020-10-04T12:43:16.729Z</time>
      </trkpt>
      <trkpt lat="44.04394" lon="1.8793">
        <ele>297</ele>
        <time>2020-10-04T12:43:17.729Z</time>
      </trkpt>
      <trkpt lat="44.04393" lon="1.87929">
        <ele>297</ele>
        <time>2020-10-04T12:43:18.729Z</time>
      </trkpt>
      <trkpt lat="44.04392" lon="1.87929">
        <ele>297</ele>
        <time>2020-10-04T12:43:19.729Z</time>
      </trkpt>
      <trkpt lat="44.04391" lon="1.87929">
        <ele>297</ele>
        <time>2020-10-04T12:43:20.729Z</time>
      </trkpt>
      <trkpt lat="44.0439" lon="1.87928">
        <ele>297</ele>
        <time>2020-10-04T12:43:21.729Z</time>
      </trkpt>
      <trkpt lat="44.04389" lon="1.87928">
        <ele>297</ele>
        <time>2020-10-04T12:43:22.729Z</time>
      </trkpt>
      <trkpt lat="44.04388" lon="1.87928">
        <ele>297</ele>
        <time>2020-10-04T12:43:23.729Z</time>
      </trkpt>
      <trkpt lat="44.04386" lon="1.87928">
        <ele>297</ele>
        <time>2020-10-04T12:43:24.729Z</time>
      </trkpt>
      <trkpt lat="44.04385" lon="1.87927">
        <ele>297</ele>
        <time>2020-10-04T12:43:25.729Z</time>
      </trkpt>
      <trkpt lat="44.04384" lon="1.87927">
        <ele>297</ele>
        <time>2020-10-04T12:43:26.729Z</time>
      </trkpt>
      <trkpt lat="44.04383" lon="1.87927">
        <ele>297</ele>
        <time>2020-10-04T12:43:27.729Z</time>
      </trkpt>
      <trkpt lat="44.04382" lon="1.87927">
        <ele>297</ele>
        <time>2020-10-04T12:43:28.729Z</time>
      </trkpt>
      <trkpt lat="44.04381" lon="1.87927">
        <ele>297</ele>
        <time>2020-10-04T12:43:29.729Z</time>
      </trkpt>
      <trkpt lat="44.0438" lon="1.87926">
        <ele>297</ele>
        <time>2020-10-04T12:43:30.729Z</time>
      </trkpt>
      <trkpt lat="44.04379" lon="1.87926">
        <ele>297</ele>
        <time>2020-10-04T12:43:31.729Z</time>
      </trkpt>
      <trkpt lat="44.04378" lon="1.87926">
        <ele>297</ele>
        <time>2020-10-04T12:43:32.729Z</time>
      </trkpt>
      <trkpt lat="44.04376" lon="1.87925">
        <ele>297</ele>
        <time>2020-10-04T12:43:33.729Z</time>
      </trkpt>
      <trkpt lat="44.04375" lon="1.87924">
        <ele>297</ele>
        <time>2020-10-04T12:43:34.729Z</time>
      </trkpt>
      <trkpt lat="44.04374" lon="1.87924">
        <ele>298</ele>
        <time>2020-10-04T12:43:35.729Z</time>
      </trkpt>
      <trkpt lat="44.04373" lon="1.87924">
        <ele>298</ele>
        <time>2020-10-04T12:43:36.729Z</time>
      </trkpt>
      <trkpt lat="44.04372" lon="1.87924">
        <ele>298</ele>
        <time>2020-10-04T12:43:37.729Z</time>
      </trkpt>
      <trkpt lat="44.04371" lon="1.87924">
        <ele>298</ele>
        <time>2020-10-04T12:43:38.729Z</time>
      </trkpt>
      <trkpt lat="44.0437" lon="1.87924">
        <ele>298</ele>
        <time>2020-10-04T12:43:39.729Z</time>
      </trkpt>
      <trkpt lat="44.04369" lon="1.87924">
        <ele>298</ele>
        <time>2020-10-04T12:43:40.729Z</time>
      </trkpt>
      <trkpt lat="44.04368" lon="1.87923">
        <ele>298</ele>
        <time>2020-10-04T12:43:41.729Z</time>
      </trkpt>
      <trkpt lat="44.04367" lon="1.87923">
        <ele>298</ele>
        <time>2020-10-04T12:43:42.729Z</time>
      </trkpt>
      <trkpt lat="44.04366" lon="1.87923">
        <ele>298</ele>
        <time>2020-10-04T12:43:43.729Z</time>
      </trkpt>
      <trkpt lat="44.04366" lon="1.87922">
        <ele>298</ele>
        <time>2020-10-04T12:43:44.729Z</time>
      </trkpt>
      <trkpt lat="44.04365" lon="1.87922">
        <ele>298</ele>
        <time>2020-10-04T12:43:45.729Z</time>
      </trkpt>
      <trkpt lat="44.04364" lon="1.87922">
        <ele>298</ele>
        <time>2020-10-04T12:43:46.729Z</time>
      </trkpt>
      <trkpt lat="44.04364" lon="1.87921">
        <ele>298</ele>
        <time>2020-10-04T12:43:47.729Z</time>
      </trkpt>
      <trkpt lat="44.04363" lon="1.87921">
        <ele>298</ele>
        <time>2020-10-04T12:43:48.729Z</time>
      </trkpt>
      <trkpt lat="44.04362" lon="1.87921">
        <ele>298</ele>
        <time>2020-10-04T12:43:49.729Z</time>
      </trkpt>
      <trkpt lat="44.04361" lon="1.87921">
        <ele>298</ele>
        <time>2020-10-04T12:43:50.729Z</time>
      </trkpt>
      <trkpt lat="44.0436" lon="1.8792">
        <ele>298</ele>
        <time>2020-10-04T12:43:51.729Z</time>
      </trkpt>
      <trkpt lat="44.04359" lon="1.8792">
        <ele>298</ele>
        <time>2020-10-04T12:43:52.729Z</time>
      </trkpt>
      <trkpt lat="44.04358" lon="1.8792">
        <ele>298</ele>
        <time>2020-10-04T12:43:53.729Z</time>
      </trkpt>
      <trkpt lat="44.04357" lon="1.8792">
        <ele>298</ele>
        <time>2020-10-04T12:43:54.729Z</time>
      </trkpt>
      <trkpt lat="44.04356" lon="1.8792">
        <ele>298</ele>
        <time>2020-10-04T12:43:55.729Z</time>
      </trkpt>
      <trkpt lat="44.04356" lon="1.8792">
        <ele>298</ele>
        <time>2020-10-04T12:43:56.729Z</time>
      </trkpt>
      <trkpt lat="44.04355" lon="1.8792">
        <ele>298</ele>
        <time>2020-10-04T12:43:57.729Z</time>
      </trkpt>
      <trkpt lat="44.04355" lon="1.8792">
        <ele>298</ele>
        <time>2020-10-04T12:43:58.729Z</time>
      </trkpt>
      <trkpt lat="44.04355" lon="1.8792">
        <ele>298</ele>
        <time>2020-10-04T12:43:59.729Z</time>
      </trkpt>
      <trkpt lat="44.04355" lon="1.8792">
        <ele>298</ele>
        <time>2020-10-04T12:44:00.729Z</time>
      </trkpt>
      <trkpt lat="44.04355" lon="1.87921">
        <ele>298</ele>
        <time>2020-10-04T12:44:01.729Z</time>
      </trkpt>
      <trkpt lat="44.04354" lon="1.87921">
        <ele>298</ele>
        <time>2020-10-04T12:44:02.729Z</time>
      </trkpt>
      <trkpt lat="44.04354" lon="1.87921">
        <ele>298</ele>
        <time>2020-10-04T12:44:03.729Z</time>
      </trkpt>
      <trkpt lat="44.04354" lon="1.87922">
        <ele>298</ele>
        <time>2020-10-04T12:44:04.729Z</time>
      </trkpt>
      <trkpt lat="44.04354" lon="1.87923">
        <ele>298</ele>
        <time>2020-10-04T12:44:05.729Z</time>
      </trkpt>
      <trkpt lat="44.04354" lon="1.87924">
        <ele>298</ele>
        <time>2020-10-04T12:44:06.729Z</time>
      </trkpt>
      <trkpt lat="44.04353" lon="1.87926">
        <ele>297</ele>
        <time>2020-10-04T12:44:07.729Z</time>
      </trkpt>
      <trkpt lat="44.04353" lon="1.87928">
        <ele>297</ele>
        <time>2020-10-04T12:44:08.729Z</time>
      </trkpt>
      <trkpt lat="44.04354" lon="1.87929">
        <ele>297</ele>
        <time>2020-10-04T12:44:09.729Z</time>
      </trkpt>
      <trkpt lat="44.04354" lon="1.87931">
        <ele>297</ele>
        <time>2020-10-04T12:44:10.729Z</time>
      </trkpt>
      <trkpt lat="44.04354" lon="1.87933">
        <ele>297</ele>
        <time>2020-10-04T12:44:11.729Z</time>
      </trkpt>
      <trkpt lat="44.04354" lon="1.87934">
        <ele>297</ele>
        <time>2020-10-04T12:44:12.729Z</time>
      </trkpt>
      <trkpt lat="44.04355" lon="1.87936">
        <ele>297</ele>
        <time>2020-10-04T12:44:13.729Z</time>
      </trkpt>
      <trkpt lat="44.04355" lon="1.87938">
        <ele>297</ele>
        <time>2020-10-04T12:44:14.729Z</time>
      </trkpt>
      <trkpt lat="44.04355" lon="1.87939">
        <ele>297</ele>
        <time>2020-10-04T12:44:15.729Z</time>
      </trkpt>
      <trkpt lat="44.04355" lon="1.8794">
        <ele>297</ele>
        <time>2020-10-04T12:44:16.729Z</time>
      </trkpt>
      <trkpt lat="44.04355" lon="1.87942">
        <ele>296</ele>
        <time>2020-10-04T12:44:17.729Z</time>
      </trkpt>
      <trkpt lat="44.04356" lon="1.87944">
        <ele>296</ele>
        <time>2020-10-04T12:44:18.729Z</time>
      </trkpt>
      <trkpt lat="44.04356" lon="1.87945">
        <ele>296</ele>
        <time>2020-10-04T12:44:19.729Z</time>
      </trkpt>
      <trkpt lat="44.04356" lon="1.87947">
        <ele>296</ele>
        <time>2020-10-04T12:44:20.729Z</time>
      </trkpt>
      <trkpt lat="44.04356" lon="1.87949">
        <ele>296</ele>
        <time>2020-10-04T12:44:21.729Z</time>
      </trkpt>
      <trkpt lat="44.04357" lon="1.8795">
        <ele>296</ele>
        <time>2020-10-04T12:44:22.729Z</time>
      </trkpt>
      <trkpt lat="44.04357" lon="1.87952">
        <ele>296</ele>
        <time>2020-10-04T12:44:23.729Z</time>
      </trkpt>
      <trkpt lat="44.04357" lon="1.87954">
        <ele>296</ele>
        <time>2020-10-04T12:44:24.729Z</time>
      </trkpt>
      <trkpt lat="44.04357" lon="1.87956">
        <ele>296</ele>
        <time>2020-10-04T12:44:25.729Z</time>
      </trkpt>
      <trkpt lat="44.04358" lon="1.87957">
        <ele>296</ele>
        <time>2020-10-04T12:44:26.729Z</time>
      </trkpt>
      <trkpt lat="44.04358" lon="1.87959">
        <ele>296</ele>
        <time>2020-10-04T12:44:27.729Z</time>
      </trkpt>
      <trkpt lat="44.04358" lon="1.8796">
        <ele>296</ele>
        <time>2020-10-04T12:44:28.729Z</time>
      </trkpt>
      <trkpt lat="44.04358" lon="1.87962">
        <ele>296</ele>
        <time>2020-10-04T12:44:29.729Z</time>
      </trkpt>
      <trkpt lat="44.04358" lon="1.87963">
        <ele>296</ele>
        <time>2020-10-04T12:44:30.729Z</time>
      </trkpt>
      <trkpt lat="44.04358" lon="1.87965">
        <ele>296</ele>
        <time>2020-10-04T12:44:31.729Z</time>
      </trkpt>
      <trkpt lat="44.04359" lon="1.87967">
        <ele>296</ele>
        <time>2020-10-04T12:44:32.729Z</time>
      </trkpt>
      <trkpt lat="44.04359" lon="1.87968">
        <ele>296</ele>
        <time>2020-10-04T12:44:33.729Z</time>
      </trkpt>
      <trkpt lat="44.04359" lon="1.8797">
        <ele>296</ele>
        <time>2020-10-04T12:44:34.729Z</time>
      </trkpt>
      <trkpt lat="44.04359" lon="1.87971">
        <ele>296</ele>
        <time>2020-10-04T12:44:35.729Z</time>
      </trkpt>
      <trkpt lat="44.04359" lon="1.87973">
        <ele>295</ele>
        <time>2020-10-04T12:44:36.729Z</time>
      </trkpt>
      <trkpt lat="44.04359" lon="1.87975">
        <ele>295</ele>
        <time>2020-10-04T12:44:37.729Z</time>
      </trkpt>
      <trkpt lat="44.04359" lon="1.87976">
        <ele>295</ele>
        <time>2020-10-04T12:44:38.729Z</time>
      </trkpt>
      <trkpt lat="44.04359" lon="1.87978">
        <ele>295</ele>
        <time>2020-10-04T12:44:39.729Z</time>
      </trkpt>
      <trkpt lat="44.04359" lon="1.8798">
        <ele>295</ele>
        <time>2020-10-04T12:44:40.729Z</time>
      </trkpt>
      <trkpt lat="44.0436" lon="1.87982">
        <ele>295</ele>
        <time>2020-10-04T12:44:41.729Z</time>
      </trkpt>
      <trkpt lat="44.0436" lon="1.87984">
        <ele>295</ele>
        <time>2020-10-04T12:44:42.729Z</time>
      </trkpt>
      <trkpt lat="44.0436" lon="1.87986">
        <ele>295</ele>
        <time>2020-10-04T12:44:43.729Z</time>
      </trkpt>
      <trkpt lat="44.0436" lon="1.87987">
        <ele>295</ele>
        <time>2020-10-04T12:44:44.729Z</time>
      </trkpt>
      <trkpt lat="44.0436" lon="1.87989">
        <ele>295</ele>
        <time>2020-10-04T12:44:45.729Z</time>
      </trkpt>
      <trkpt lat="44.0436" lon="1.87991">
        <ele>295</ele>
        <time>2020-10-04T12:44:46.729Z</time>
      </trkpt>
      <trkpt lat="44.0436" lon="1.87993">
        <ele>295</ele>
        <time>2020-10-04T12:44:47.729Z</time>
      </trkpt>
      <trkpt lat="44.0436" lon="1.87994">
        <ele>295</ele>
        <time>2020-10-04T12:44:48.729Z</time>
      </trkpt>
      <trkpt lat="44.0436" lon="1.87996">
        <ele>295</ele>
        <time>2020-10-04T12:44:49.729Z</time>
      </trkpt>
      <trkpt lat="44.0436" lon="1.87998">
        <ele>295</ele>
        <time>2020-10-04T12:44:50.729Z</time>
      </trkpt>
      <trkpt lat="44.0436" lon="1.87999">
        <ele>295</ele>
        <time>2020-10-04T12:44:51.729Z</time>
      </trkpt>
      <trkpt lat="44.0436" lon="1.88001">
        <ele>295</ele>
        <time>2020-10-04T12:44:52.729Z</time>
      </trkpt>
      <trkpt lat="44.0436" lon="1.88003">
        <ele>295</ele>
        <time>2020-10-04T12:44:53.729Z</time>
      </trkpt>
      <trkpt lat="44.04361" lon="1.88004">
        <ele>295</ele>
        <time>2020-10-04T12:44:54.729Z</time>
      </trkpt>
      <trkpt lat="44.0436" lon="1.88006">
        <ele>295</ele>
        <time>2020-10-04T12:44:55.729Z</time>
      </trkpt>
      <trkpt lat="44.0436" lon="1.88007">
        <ele>295</ele>
        <time>2020-10-04T12:44:56.729Z</time>
      </trkpt>
      <trkpt lat="44.0436" lon="1.88009">
        <ele>295</ele>
        <time>2020-10-04T12:44:57.729Z</time>
      </trkpt>
      <trkpt lat="44.0436" lon="1.88011">
        <ele>295</ele>
        <time>2020-10-04T12:44:58.729Z</time>
      </trkpt>
      <trkpt lat="44.0436" lon="1.88013">
        <ele>295</ele>
        <time>2020-10-04T12:44:59.729Z</time>
      </trkpt>
      <trkpt lat="44.0436" lon="1.88014">
        <ele>295</ele>
        <time>2020-10-04T12:45:00.729Z</time>
      </trkpt>
      <trkpt lat="44.04361" lon="1.88016">
        <ele>295</ele>
        <time>2020-10-04T12:45:01.729Z</time>
      </trkpt>
      <trkpt lat="44.04361" lon="1.88017">
        <ele>295</ele>
        <time>2020-10-04T12:45:02.729Z</time>
      </trkpt>
      <trkpt lat="44.04361" lon="1.88019">
        <ele>295</ele>
        <time>2020-10-04T12:45:03.729Z</time>
      </trkpt>
      <trkpt lat="44.04361" lon="1.88021">
        <ele>295</ele>
        <time>2020-10-04T12:45:04.729Z</time>
      </trkpt>
      <trkpt lat="44.04361" lon="1.88022">
        <ele>295</ele>
        <time>2020-10-04T12:45:05.729Z</time>
      </trkpt>
      <trkpt lat="44.04361" lon="1.88024">
        <ele>295</ele>
        <time>2020-10-04T12:45:06.729Z</time>
      </trkpt>
      <trkpt lat="44.04361" lon="1.88026">
        <ele>295</ele>
        <time>2020-10-04T12:45:07.729Z</time>
      </trkpt>
      <trkpt lat="44.04361" lon="1.88027">
        <ele>295</ele>
        <time>2020-10-04T12:45:08.729Z</time>
      </trkpt>
      <trkpt lat="44.04361" lon="1.88029">
        <ele>295</ele>
        <time>2020-10-04T12:45:09.729Z</time>
      </trkpt>
      <trkpt lat="44.04361" lon="1.8803">
        <ele>295</ele>
        <time>2020-10-04T12:45:10.729Z</time>
      </trkpt>
      <trkpt lat="44.04361" lon="1.88032">
        <ele>295</ele>
        <time>2020-10-04T12:45:11.729Z</time>
      </trkpt>
      <trkpt lat="44.04361" lon="1.88034">
        <ele>295</ele>
        <time>2020-10-04T12:45:12.729Z</time>
      </trkpt>
      <trkpt lat="44.04361" lon="1.88036">
        <ele>295</ele>
        <time>2020-10-04T12:45:13.729Z</time>
      </trkpt>
      <trkpt lat="44.04361" lon="1.88037">
        <ele>295</ele>
        <time>2020-10-04T12:45:14.729Z</time>
      </trkpt>
      <trkpt lat="44.04361" lon="1.88039">
        <ele>295</ele>
        <time>2020-10-04T12:45:15.729Z</time>
      </trkpt>
      <trkpt lat="44.04362" lon="1.88041">
        <ele>295</ele>
        <time>2020-10-04T12:45:16.729Z</time>
      </trkpt>
      <trkpt lat="44.04362" lon="1.88042">
        <ele>295</ele>
        <time>2020-10-04T12:45:17.729Z</time>
      </trkpt>
      <trkpt lat="44.04362" lon="1.88044">
        <ele>295</ele>
        <time>2020-10-04T12:45:18.729Z</time>
      </trkpt>
      <trkpt lat="44.04362" lon="1.88046">
        <ele>295</ele>
        <time>2020-10-04T12:45:19.729Z</time>
      </trkpt>
      <trkpt lat="44.04362" lon="1.88047">
        <ele>295</ele>
        <time>2020-10-04T12:45:20.729Z</time>
      </trkpt>
      <trkpt lat="44.04362" lon="1.88048">
        <ele>295</ele>
        <time>2020-10-04T12:45:21.729Z</time>
      </trkpt>
      <trkpt lat="44.04362" lon="1.88048">
        <ele>295</ele>
        <time>2020-10-04T12:45:22.729Z</time>
      </trkpt>
      <trkpt lat="44.04362" lon="1.88049">
        <ele>295</ele>
        <time>2020-10-04T12:45:23.729Z</time>
      </trkpt>
      <trkpt lat="44.04362" lon="1.8805">
        <ele>295</ele>
        <time>2020-10-04T12:45:24.729Z</time>
      </trkpt>
      <trkpt lat="44.04363" lon="1.88051">
        <ele>295</ele>
        <time>2020-10-04T12:45:25.729Z</time>
      </trkpt>
      <trkpt lat="44.04363" lon="1.88052">
        <ele>295</ele>
        <time>2020-10-04T12:45:26.729Z</time>
      </trkpt>
      <trkpt lat="44.04363" lon="1.88053">
        <ele>295</ele>
        <time>2020-10-04T12:45:27.729Z</time>
      </trkpt>
      <trkpt lat="44.04363" lon="1.88054">
        <ele>295</ele>
        <time>2020-10-04T12:45:28.729Z</time>
      </trkpt>
      <trkpt lat="44.04364" lon="1.88056">
        <ele>295</ele>
        <time>2020-10-04T12:45:29.729Z</time>
      </trkpt>
      <trkpt lat="44.04364" lon="1.88057">
        <ele>295</ele>
        <time>2020-10-04T12:45:30.729Z</time>
      </trkpt>
      <trkpt lat="44.04364" lon="1.88058">
        <ele>295</ele>
        <time>2020-10-04T12:45:31.729Z</time>
      </trkpt>
      <trkpt lat="44.04364" lon="1.8806">
        <ele>295</ele>
        <time>2020-10-04T12:45:32.729Z</time>
      </trkpt>
      <trkpt lat="44.04364" lon="1.88061">
        <ele>295</ele>
        <time>2020-10-04T12:45:33.729Z</time>
      </trkpt>
      <trkpt lat="44.04364" lon="1.88063">
        <ele>295</ele>
        <time>2020-10-04T12:45:34.729Z</time>
      </trkpt>
      <trkpt lat="44.04364" lon="1.88064">
        <ele>295</ele>
        <time>2020-10-04T12:45:35.729Z</time>
      </trkpt>
      <trkpt lat="44.04365" lon="1.88066">
        <ele>295</ele>
        <time>2020-10-04T12:45:36.729Z</time>
      </trkpt>
      <trkpt lat="44.04365" lon="1.88067">
        <ele>295</ele>
        <time>2020-10-04T12:45:37.729Z</time>
      </trkpt>
      <trkpt lat="44.04365" lon="1.88068">
        <ele>295</ele>
        <time>2020-10-04T12:45:38.729Z</time>
      </trkpt>
      <trkpt lat="44.04365" lon="1.88069">
        <ele>295</ele>
        <time>2020-10-04T12:45:39.729Z</time>
      </trkpt>
      <trkpt lat="44.04365" lon="1.8807">
        <ele>295</ele>
        <time>2020-10-04T12:45:40.729Z</time>
      </trkpt>
      <trkpt lat="44.04366" lon="1.88071">
        <ele>294</ele>
        <time>2020-10-04T12:45:41.729Z</time>
      </trkpt>
      <trkpt lat="44.04365" lon="1.88071">
        <ele>294</ele>
        <time>2020-10-04T12:45:42.729Z</time>
      </trkpt>
      <trkpt lat="44.04365" lon="1.88071">
        <ele>294</ele>
        <time>2020-10-04T12:45:43.729Z</time>
      </trkpt>
      <trkpt lat="44.04365" lon="1.88071">
        <ele>294</ele>
        <time>2020-10-04T12:45:44.729Z</time>
      </trkpt>
      <trkpt lat="44.04366" lon="1.88073">
        <ele>294</ele>
        <time>2020-10-04T12:45:45.729Z</time>
      </trkpt>
      <trkpt lat="44.04366" lon="1.88074">
        <ele>294</ele>
        <time>2020-10-04T12:45:46.729Z</time>
      </trkpt>
      <trkpt lat="44.04366" lon="1.88074">
        <ele>294</ele>
        <time>2020-10-04T12:45:47.729Z</time>
      </trkpt>
      <trkpt lat="44.04366" lon="1.88074">
        <ele>294</ele>
        <time>2020-10-04T12:45:48.729Z</time>
      </trkpt>
      <trkpt lat="44.04366" lon="1.88074">
        <ele>294</ele>
        <time>2020-10-04T12:45:49.729Z</time>
      </trkpt>
      <trkpt lat="44.04366" lon="1.88076">
        <ele>294</ele>
        <time>2020-10-04T12:45:50.729Z</time>
      </trkpt>
      <trkpt lat="44.04365" lon="1.88076">
        <ele>294</ele>
        <time>2020-10-04T12:45:51.729Z</time>
      </trkpt>
      <trkpt lat="44.04365" lon="1.88077">
        <ele>294</ele>
        <time>2020-10-04T12:45:52.729Z</time>
      </trkpt>
      <trkpt lat="44.04365" lon="1.88077">
        <ele>294</ele>
        <time>2020-10-04T12:45:53.729Z</time>
      </trkpt>
      <trkpt lat="44.04365" lon="1.88077">
        <ele>294</ele>
        <time>2020-10-04T12:45:54.729Z</time>
      </trkpt>
      <trkpt lat="44.04366" lon="1.88078">
        <ele>294</ele>
        <time>2020-10-04T12:45:55.729Z</time>
      </trkpt>
      <trkpt lat="44.04366" lon="1.88079">
        <ele>293</ele>
        <time>2020-10-04T12:45:56.729Z</time>
      </trkpt>
      <trkpt lat="44.04366" lon="1.88081">
        <ele>293</ele>
        <time>2020-10-04T12:45:57.729Z</time>
      </trkpt>
      <trkpt lat="44.04366" lon="1.88082">
        <ele>293</ele>
        <time>2020-10-04T12:45:58.729Z</time>
      </trkpt>
      <trkpt lat="44.04366" lon="1.88083">
        <ele>293</ele>
        <time>2020-10-04T12:45:59.729Z</time>
      </trkpt>
      <trkpt lat="44.04366" lon="1.88084">
        <ele>293</ele>
        <time>2020-10-04T12:46:00.729Z</time>
      </trkpt>
      <trkpt lat="44.04367" lon="1.88085">
        <ele>293</ele>
        <time>2020-10-04T12:46:01.729Z</time>
      </trkpt>
      <trkpt lat="44.04367" lon="1.88087">
        <ele>293</ele>
        <time>2020-10-04T12:46:02.729Z</time>
      </trkpt>
      <trkpt lat="44.04367" lon="1.88088">
        <ele>293</ele>
        <time>2020-10-04T12:46:03.729Z</time>
      </trkpt>
      <trkpt lat="44.04367" lon="1.8809">
        <ele>293</ele>
        <time>2020-10-04T12:46:04.729Z</time>
      </trkpt>
      <trkpt lat="44.04368" lon="1.88091">
        <ele>293</ele>
        <time>2020-10-04T12:46:05.729Z</time>
      </trkpt>
      <trkpt lat="44.04369" lon="1.88092">
        <ele>293</ele>
        <time>2020-10-04T12:46:06.729Z</time>
      </trkpt>
      <trkpt lat="44.0437" lon="1.88093">
        <ele>293</ele>
        <time>2020-10-04T12:46:07.729Z</time>
      </trkpt>
      <trkpt lat="44.04371" lon="1.88093">
        <ele>293</ele>
        <time>2020-10-04T12:46:08.729Z</time>
      </trkpt>
      <trkpt lat="44.04371" lon="1.88094">
        <ele>293</ele>
        <time>2020-10-04T12:46:09.729Z</time>
      </trkpt>
      <trkpt lat="44.04372" lon="1.88096">
        <ele>293</ele>
        <time>2020-10-04T12:46:10.729Z</time>
      </trkpt>
      <trkpt lat="44.04372" lon="1.88097">
        <ele>293</ele>
        <time>2020-10-04T12:46:11.729Z</time>
      </trkpt>
      <trkpt lat="44.04373" lon="1.88098">
        <ele>293</ele>
        <time>2020-10-04T12:46:12.729Z</time>
      </trkpt>
      <trkpt lat="44.04374" lon="1.88099">
        <ele>293</ele>
        <time>2020-10-04T12:46:13.729Z</time>
      </trkpt>
      <trkpt lat="44.04374" lon="1.88101">
        <ele>293</ele>
        <time>2020-10-04T12:46:14.729Z</time>
      </trkpt>
      <trkpt lat="44.04374" lon="1.88102">
        <ele>293</ele>
        <time>2020-10-04T12:46:15.729Z</time>
      </trkpt>
      <trkpt lat="44.04375" lon="1.88104">
        <ele>293</ele>
        <time>2020-10-04T12:46:16.729Z</time>
      </trkpt>
      <trkpt lat="44.04375" lon="1.88105">
        <ele>293</ele>
        <time>2020-10-04T12:46:17.729Z</time>
      </trkpt>
      <trkpt lat="44.04375" lon="1.88106">
        <ele>293</ele>
        <time>2020-10-04T12:46:18.729Z</time>
      </trkpt>
      <trkpt lat="44.04375" lon="1.88108">
        <ele>293</ele>
        <time>2020-10-04T12:46:19.729Z</time>
      </trkpt>
      <trkpt lat="44.04376" lon="1.8811">
        <ele>293</ele>
        <time>2020-10-04T12:46:20.729Z</time>
      </trkpt>
      <trkpt lat="44.04376" lon="1.88111">
        <ele>293</ele>
        <time>2020-10-04T12:46:21.729Z</time>
      </trkpt>
      <trkpt lat="44.04376" lon="1.88113">
        <ele>293</ele>
        <time>2020-10-04T12:46:22.729Z</time>
      </trkpt>
      <trkpt lat="44.04377" lon="1.88114">
        <ele>293</ele>
        <time>2020-10-04T12:46:23.729Z</time>
      </trkpt>
      <trkpt lat="44.04377" lon="1.88116">
        <ele>293</ele>
        <time>2020-10-04T12:46:24.729Z</time>
      </trkpt>
      <trkpt lat="44.04377" lon="1.88117">
        <ele>293</ele>
        <time>2020-10-04T12:46:25.729Z</time>
      </trkpt>
      <trkpt lat="44.04377" lon="1.88119">
        <ele>293</ele>
        <time>2020-10-04T12:46:26.729Z</time>
      </trkpt>
      <trkpt lat="44.04378" lon="1.8812">
        <ele>293</ele>
        <time>2020-10-04T12:46:27.729Z</time>
      </trkpt>
      <trkpt lat="44.04378" lon="1.88122">
        <ele>293</ele>
        <time>2020-10-04T12:46:28.729Z</time>
      </trkpt>
      <trkpt lat="44.04378" lon="1.88123">
        <ele>293</ele>
        <time>2020-10-04T12:46:29.729Z</time>
      </trkpt>
      <trkpt lat="44.04378" lon="1.88124">
        <ele>293</ele>
        <time>2020-10-04T12:46:30.729Z</time>
      </trkpt>
      <trkpt lat="44.04378" lon="1.88125">
        <ele>293</ele>
        <time>2020-10-04T12:46:31.729Z</time>
      </trkpt>
      <trkpt lat="44.04378" lon="1.88127">
        <ele>293</ele>
        <time>2020-10-04T12:46:32.729Z</time>
      </trkpt>
      <trkpt lat="44.04378" lon="1.88128">
        <ele>293</ele>
        <time>2020-10-04T12:46:33.729Z</time>
      </trkpt>
      <trkpt lat="44.04378" lon="1.8813">
        <ele>293</ele>
        <time>2020-10-04T12:46:34.729Z</time>
      </trkpt>
      <trkpt lat="44.04378" lon="1.88131">
        <ele>293</ele>
        <time>2020-10-04T12:46:35.729Z</time>
      </trkpt>
      <trkpt lat="44.04378" lon="1.88133">
        <ele>293</ele>
        <time>2020-10-04T12:46:36.729Z</time>
      </trkpt>
      <trkpt lat="44.04378" lon="1.88134">
        <ele>292</ele>
        <time>2020-10-04T12:46:37.729Z</time>
      </trkpt>
      <trkpt lat="44.04379" lon="1.88136">
        <ele>292</ele>
        <time>2020-10-04T12:46:38.729Z</time>
      </trkpt>
      <trkpt lat="44.04379" lon="1.88138">
        <ele>292</ele>
        <time>2020-10-04T12:46:39.729Z</time>
      </trkpt>
      <trkpt lat="44.0438" lon="1.88139">
        <ele>292</ele>
        <time>2020-10-04T12:46:40.729Z</time>
      </trkpt>
      <trkpt lat="44.0438" lon="1.88141">
        <ele>292</ele>
        <time>2020-10-04T12:46:41.729Z</time>
      </trkpt>
      <trkpt lat="44.0438" lon="1.88142">
        <ele>292</ele>
        <time>2020-10-04T12:46:42.729Z</time>
      </trkpt>
      <trkpt lat="44.04381" lon="1.88144">
        <ele>292</ele>
        <time>2020-10-04T12:46:43.729Z</time>
      </trkpt>
      <trkpt lat="44.04381" lon="1.88145">
        <ele>292</ele>
        <time>2020-10-04T12:46:44.729Z</time>
      </trkpt>
      <trkpt lat="44.04382" lon="1.88146">
        <ele>292</ele>
        <time>2020-10-04T12:46:45.729Z</time>
      </trkpt>
      <trkpt lat="44.04382" lon="1.88148">
        <ele>292</ele>
        <time>2020-10-04T12:46:46.729Z</time>
      </trkpt>
      <trkpt lat="44.04382" lon="1.8815">
        <ele>292</ele>
        <time>2020-10-04T12:46:47.729Z</time>
      </trkpt>
      <trkpt lat="44.04382" lon="1.88152">
        <ele>292</ele>
        <time>2020-10-04T12:46:48.729Z</time>
      </trkpt>
      <trkpt lat="44.04383" lon="1.88153">
        <ele>292</ele>
        <time>2020-10-04T12:46:49.729Z</time>
      </trkpt>
      <trkpt lat="44.04383" lon="1.88155">
        <ele>292</ele>
        <time>2020-10-04T12:46:50.729Z</time>
      </trkpt>
      <trkpt lat="44.04384" lon="1.88157">
        <ele>292</ele>
        <time>2020-10-04T12:46:51.729Z</time>
      </trkpt>
      <trkpt lat="44.04384" lon="1.88158">
        <ele>292</ele>
        <time>2020-10-04T12:46:52.729Z</time>
      </trkpt>
      <trkpt lat="44.04384" lon="1.8816">
        <ele>292</ele>
        <time>2020-10-04T12:46:53.729Z</time>
      </trkpt>
      <trkpt lat="44.04385" lon="1.88161">
        <ele>292</ele>
        <time>2020-10-04T12:46:54.729Z</time>
      </trkpt>
      <trkpt lat="44.04385" lon="1.88163">
        <ele>292</ele>
        <time>2020-10-04T12:46:55.729Z</time>
      </trkpt>
      <trkpt lat="44.04386" lon="1.88165">
        <ele>292</ele>
        <time>2020-10-04T12:46:56.729Z</time>
      </trkpt>
      <trkpt lat="44.04386" lon="1.88166">
        <ele>292</ele>
        <time>2020-10-04T12:46:57.729Z</time>
      </trkpt>
      <trkpt lat="44.04387" lon="1.88168">
        <ele>292</ele>
        <time>2020-10-04T12:46:58.729Z</time>
      </trkpt>
      <trkpt lat="44.04388" lon="1.8817">
        <ele>292</ele>
        <time>2020-10-04T12:46:59.729Z</time>
      </trkpt>
      <trkpt lat="44.04388" lon="1.88171">
        <ele>292</ele>
        <time>2020-10-04T12:47:00.729Z</time>
      </trkpt>
      <trkpt lat="44.04389" lon="1.88173">
        <ele>292</ele>
        <time>2020-10-04T12:47:01.729Z</time>
      </trkpt>
      <trkpt lat="44.04389" lon="1.88175">
        <ele>292</ele>
        <time>2020-10-04T12:47:02.729Z</time>
      </trkpt>
      <trkpt lat="44.04389" lon="1.88176">
        <ele>292</ele>
        <time>2020-10-04T12:47:03.729Z</time>
      </trkpt>
      <trkpt lat="44.0439" lon="1.88178">
        <ele>292</ele>
        <time>2020-10-04T12:47:04.729Z</time>
      </trkpt>
      <trkpt lat="44.0439" lon="1.8818">
        <ele>292</ele>
        <time>2020-10-04T12:47:05.729Z</time>
      </trkpt>
      <trkpt lat="44.0439" lon="1.88182">
        <ele>292</ele>
        <time>2020-10-04T12:47:06.729Z</time>
      </trkpt>
      <trkpt lat="44.0439" lon="1.88184">
        <ele>292</ele>
        <time>2020-10-04T12:47:07.729Z</time>
      </trkpt>
      <trkpt lat="44.04391" lon="1.88185">
        <ele>292</ele>
        <time>2020-10-04T12:47:08.729Z</time>
      </trkpt>
      <trkpt lat="44.0439" lon="1.88186">
        <ele>292</ele>
        <time>2020-10-04T12:47:09.729Z</time>
      </trkpt>
      <trkpt lat="44.0439" lon="1.88186">
        <ele>292</ele>
        <time>2020-10-04T12:47:10.729Z</time>
      </trkpt>
      <trkpt lat="44.04391" lon="1.88187">
        <ele>292</ele>
        <time>2020-10-04T12:47:11.729Z</time>
      </trkpt>
      <trkpt lat="44.04391" lon="1.88189">
        <ele>292</ele>
        <time>2020-10-04T12:47:12.729Z</time>
      </trkpt>
      <trkpt lat="44.04391" lon="1.8819">
        <ele>293</ele>
        <time>2020-10-04T12:47:13.729Z</time>
      </trkpt>
      <trkpt lat="44.04391" lon="1.88191">
        <ele>293</ele>
        <time>2020-10-04T12:47:14.729Z</time>
      </trkpt>
      <trkpt lat="44.04392" lon="1.88193">
        <ele>293</ele>
        <time>2020-10-04T12:47:15.729Z</time>
      </trkpt>
      <trkpt lat="44.04392" lon="1.88194">
        <ele>293</ele>
        <time>2020-10-04T12:47:16.729Z</time>
      </trkpt>
      <trkpt lat="44.04393" lon="1.88196">
        <ele>293</ele>
        <time>2020-10-04T12:47:17.729Z</time>
      </trkpt>
      <trkpt lat="44.04393" lon="1.88198">
        <ele>293</ele>
        <time>2020-10-04T12:47:18.729Z</time>
      </trkpt>
      <trkpt lat="44.04394" lon="1.88199">
        <ele>293</ele>
        <time>2020-10-04T12:47:19.729Z</time>
      </trkpt>
      <trkpt lat="44.04394" lon="1.882">
        <ele>293</ele>
        <time>2020-10-04T12:47:20.729Z</time>
      </trkpt>
      <trkpt lat="44.04394" lon="1.882">
        <ele>293</ele>
        <time>2020-10-04T12:47:21.729Z</time>
      </trkpt>
      <trkpt lat="44.04394" lon="1.882">
        <ele>293</ele>
        <time>2020-10-04T12:47:22.729Z</time>
      </trkpt>
      <trkpt lat="44.04396" lon="1.88202">
        <ele>293</ele>
        <time>2020-10-04T12:47:23.729Z</time>
      </trkpt>
      <trkpt lat="44.04396" lon="1.88203">
        <ele>293</ele>
        <time>2020-10-04T12:47:24.729Z</time>
      </trkpt>
      <trkpt lat="44.04397" lon="1.88205">
        <ele>293</ele>
        <time>2020-10-04T12:47:25.729Z</time>
      </trkpt>
      <trkpt lat="44.04397" lon="1.88207">
        <ele>293</ele>
        <time>2020-10-04T12:47:26.729Z</time>
      </trkpt>
      <trkpt lat="44.04397" lon="1.88208">
        <ele>293</ele>
        <time>2020-10-04T12:47:27.729Z</time>
      </trkpt>
      <trkpt lat="44.04398" lon="1.8821">
        <ele>293</ele>
        <time>2020-10-04T12:47:28.729Z</time>
      </trkpt>
      <trkpt lat="44.04398" lon="1.88212">
        <ele>293</ele>
        <time>2020-10-04T12:47:29.729Z</time>
      </trkpt>
      <trkpt lat="44.04398" lon="1.88214">
        <ele>293</ele>
        <time>2020-10-04T12:47:30.729Z</time>
      </trkpt>
      <trkpt lat="44.04399" lon="1.88215">
        <ele>293</ele>
        <time>2020-10-04T12:47:31.729Z</time>
      </trkpt>
      <trkpt lat="44.04399" lon="1.88217">
        <ele>293</ele>
        <time>2020-10-04T12:47:32.729Z</time>
      </trkpt>
      <trkpt lat="44.04399" lon="1.88219">
        <ele>293</ele>
        <time>2020-10-04T12:47:33.729Z</time>
      </trkpt>
      <trkpt lat="44.044" lon="1.8822">
        <ele>293</ele>
        <time>2020-10-04T12:47:34.729Z</time>
      </trkpt>
      <trkpt lat="44.044" lon="1.88222">
        <ele>293</ele>
        <time>2020-10-04T12:47:35.729Z</time>
      </trkpt>
      <trkpt lat="44.044" lon="1.88224">
        <ele>293</ele>
        <time>2020-10-04T12:47:36.729Z</time>
      </trkpt>
      <trkpt lat="44.044" lon="1.88226">
        <ele>293</ele>
        <time>2020-10-04T12:47:37.729Z</time>
      </trkpt>
      <trkpt lat="44.04401" lon="1.88228">
        <ele>294</ele>
        <time>2020-10-04T12:47:38.729Z</time>
      </trkpt>
      <trkpt lat="44.04401" lon="1.8823">
        <ele>294</ele>
        <time>2020-10-04T12:47:39.729Z</time>
      </trkpt>
      <trkpt lat="44.04402" lon="1.88231">
        <ele>294</ele>
        <time>2020-10-04T12:47:40.729Z</time>
      </trkpt>
      <trkpt lat="44.04402" lon="1.88233">
        <ele>294</ele>
        <time>2020-10-04T12:47:41.729Z</time>
      </trkpt>
      <trkpt lat="44.04403" lon="1.88235">
        <ele>294</ele>
        <time>2020-10-04T12:47:42.729Z</time>
      </trkpt>
      <trkpt lat="44.04403" lon="1.88237">
        <ele>294</ele>
        <time>2020-10-04T12:47:43.729Z</time>
      </trkpt>
      <trkpt lat="44.04403" lon="1.88238">
        <ele>294</ele>
        <time>2020-10-04T12:47:44.729Z</time>
      </trkpt>
      <trkpt lat="44.04404" lon="1.8824">
        <ele>294</ele>
        <time>2020-10-04T12:47:45.729Z</time>
      </trkpt>
      <trkpt lat="44.04404" lon="1.88242">
        <ele>294</ele>
        <time>2020-10-04T12:47:46.729Z</time>
      </trkpt>
      <trkpt lat="44.04404" lon="1.88244">
        <ele>294</ele>
        <time>2020-10-04T12:47:47.729Z</time>
      </trkpt>
      <trkpt lat="44.04405" lon="1.88246">
        <ele>294</ele>
        <time>2020-10-04T12:47:48.729Z</time>
      </trkpt>
      <trkpt lat="44.04405" lon="1.88247">
        <ele>294</ele>
        <time>2020-10-04T12:47:49.729Z</time>
      </trkpt>
      <trkpt lat="44.04406" lon="1.88249">
        <ele>295</ele>
        <time>2020-10-04T12:47:50.729Z</time>
      </trkpt>
      <trkpt lat="44.04406" lon="1.88251">
        <ele>294</ele>
        <time>2020-10-04T12:47:51.729Z</time>
      </trkpt>
      <trkpt lat="44.04406" lon="1.88253">
        <ele>294</ele>
        <time>2020-10-04T12:47:52.729Z</time>
      </trkpt>
      <trkpt lat="44.04407" lon="1.88255">
        <ele>294</ele>
        <time>2020-10-04T12:47:53.729Z</time>
      </trkpt>
      <trkpt lat="44.04407" lon="1.88256">
        <ele>294</ele>
        <time>2020-10-04T12:47:54.729Z</time>
      </trkpt>
      <trkpt lat="44.04407" lon="1.88258">
        <ele>294</ele>
        <time>2020-10-04T12:47:55.729Z</time>
      </trkpt>
      <trkpt lat="44.04408" lon="1.8826">
        <ele>294</ele>
        <time>2020-10-04T12:47:56.729Z</time>
      </trkpt>
      <trkpt lat="44.04408" lon="1.88262">
        <ele>294</ele>
        <time>2020-10-04T12:47:57.729Z</time>
      </trkpt>
      <trkpt lat="44.04408" lon="1.88264">
        <ele>294</ele>
        <time>2020-10-04T12:47:58.729Z</time>
      </trkpt>
      <trkpt lat="44.04409" lon="1.88266">
        <ele>294</ele>
        <time>2020-10-04T12:47:59.729Z</time>
      </trkpt>
      <trkpt lat="44.04409" lon="1.88268">
        <ele>294</ele>
        <time>2020-10-04T12:48:00.729Z</time>
      </trkpt>
      <trkpt lat="44.04409" lon="1.8827">
        <ele>294</ele>
        <time>2020-10-04T12:48:01.729Z</time>
      </trkpt>
      <trkpt lat="44.0441" lon="1.88272">
        <ele>294</ele>
        <time>2020-10-04T12:48:02.729Z</time>
      </trkpt>
      <trkpt lat="44.0441" lon="1.88273">
        <ele>294</ele>
        <time>2020-10-04T12:48:03.729Z</time>
      </trkpt>
      <trkpt lat="44.04411" lon="1.88275">
        <ele>294</ele>
        <time>2020-10-04T12:48:04.729Z</time>
      </trkpt>
      <trkpt lat="44.04411" lon="1.88277">
        <ele>294</ele>
        <time>2020-10-04T12:48:05.729Z</time>
      </trkpt>
      <trkpt lat="44.04411" lon="1.88278">
        <ele>294</ele>
        <time>2020-10-04T12:48:06.729Z</time>
      </trkpt>
      <trkpt lat="44.04411" lon="1.88279">
        <ele>294</ele>
        <time>2020-10-04T12:48:07.729Z</time>
      </trkpt>
      <trkpt lat="44.04412" lon="1.88279">
        <ele>294</ele>
        <time>2020-10-04T12:48:08.729Z</time>
      </trkpt>
      <trkpt lat="44.04412" lon="1.88281">
        <ele>294</ele>
        <time>2020-10-04T12:48:09.729Z</time>
      </trkpt>
      <trkpt lat="44.04413" lon="1.88282">
        <ele>294</ele>
        <time>2020-10-04T12:48:10.729Z</time>
      </trkpt>
      <trkpt lat="44.04413" lon="1.88284">
        <ele>294</ele>
        <time>2020-10-04T12:48:11.729Z</time>
      </trkpt>
      <trkpt lat="44.04414" lon="1.88286">
        <ele>294</ele>
        <time>2020-10-04T12:48:12.729Z</time>
      </trkpt>
      <trkpt lat="44.04414" lon="1.88288">
        <ele>294</ele>
        <time>2020-10-04T12:48:13.729Z</time>
      </trkpt>
      <trkpt lat="44.04415" lon="1.88289">
        <ele>294</ele>
        <time>2020-10-04T12:48:14.729Z</time>
      </trkpt>
      <trkpt lat="44.04415" lon="1.88291">
        <ele>294</ele>
        <time>2020-10-04T12:48:15.729Z</time>
      </trkpt>
      <trkpt lat="44.04416" lon="1.88292">
        <ele>294</ele>
        <time>2020-10-04T12:48:16.729Z</time>
      </trkpt>
      <trkpt lat="44.04416" lon="1.88294">
        <ele>294</ele>
        <time>2020-10-04T12:48:17.729Z</time>
      </trkpt>
      <trkpt lat="44.04416" lon="1.88297">
        <ele>294</ele>
        <time>2020-10-04T12:48:18.729Z</time>
      </trkpt>
      <trkpt lat="44.04417" lon="1.88299">
        <ele>294</ele>
        <time>2020-10-04T12:48:19.729Z</time>
      </trkpt>
      <trkpt lat="44.04417" lon="1.88301">
        <ele>294</ele>
        <time>2020-10-04T12:48:20.729Z</time>
      </trkpt>
      <trkpt lat="44.04417" lon="1.88303">
        <ele>295</ele>
        <time>2020-10-04T12:48:21.729Z</time>
      </trkpt>
      <trkpt lat="44.04418" lon="1.88304">
        <ele>295</ele>
        <time>2020-10-04T12:48:22.729Z</time>
      </trkpt>
      <trkpt lat="44.04418" lon="1.88306">
        <ele>295</ele>
        <time>2020-10-04T12:48:23.729Z</time>
      </trkpt>
      <trkpt lat="44.04419" lon="1.88308">
        <ele>295</ele>
        <time>2020-10-04T12:48:24.729Z</time>
      </trkpt>
      <trkpt lat="44.04419" lon="1.8831">
        <ele>295</ele>
        <time>2020-10-04T12:48:25.729Z</time>
      </trkpt>
      <trkpt lat="44.04419" lon="1.88311">
        <ele>295</ele>
        <time>2020-10-04T12:48:26.729Z</time>
      </trkpt>
      <trkpt lat="44.0442" lon="1.88313">
        <ele>295</ele>
        <time>2020-10-04T12:48:27.729Z</time>
      </trkpt>
      <trkpt lat="44.0442" lon="1.88315">
        <ele>295</ele>
        <time>2020-10-04T12:48:28.729Z</time>
      </trkpt>
      <trkpt lat="44.0442" lon="1.88317">
        <ele>295</ele>
        <time>2020-10-04T12:48:29.729Z</time>
      </trkpt>
      <trkpt lat="44.04421" lon="1.88319">
        <ele>295</ele>
        <time>2020-10-04T12:48:30.729Z</time>
      </trkpt>
      <trkpt lat="44.04421" lon="1.8832">
        <ele>295</ele>
        <time>2020-10-04T12:48:31.729Z</time>
      </trkpt>
      <trkpt lat="44.04421" lon="1.88322">
        <ele>295</ele>
        <time>2020-10-04T12:48:32.729Z</time>
      </trkpt>
      <trkpt lat="44.04422" lon="1.88324">
        <ele>295</ele>
        <time>2020-10-04T12:48:33.729Z</time>
      </trkpt>
      <trkpt lat="44.04422" lon="1.88326">
        <ele>295</ele>
        <time>2020-10-04T12:48:34.729Z</time>
      </trkpt>
      <trkpt lat="44.04422" lon="1.88327">
        <ele>295</ele>
        <time>2020-10-04T12:48:35.729Z</time>
      </trkpt>
      <trkpt lat="44.04423" lon="1.88329">
        <ele>295</ele>
        <time>2020-10-04T12:48:36.729Z</time>
      </trkpt>
      <trkpt lat="44.04423" lon="1.88331">
        <ele>295</ele>
        <time>2020-10-04T12:48:37.729Z</time>
      </trkpt>
      <trkpt lat="44.04423" lon="1.88333">
        <ele>295</ele>
        <time>2020-10-04T12:48:38.729Z</time>
      </trkpt>
      <trkpt lat="44.04424" lon="1.88334">
        <ele>294</ele>
        <time>2020-10-04T12:48:39.729Z</time>
      </trkpt>
      <trkpt lat="44.04424" lon="1.88336">
        <ele>294</ele>
        <time>2020-10-04T12:48:40.729Z</time>
      </trkpt>
      <trkpt lat="44.04425" lon="1.88337">
        <ele>294</ele>
        <time>2020-10-04T12:48:41.729Z</time>
      </trkpt>
      <trkpt lat="44.04425" lon="1.88339">
        <ele>294</ele>
        <time>2020-10-04T12:48:42.729Z</time>
      </trkpt>
      <trkpt lat="44.04425" lon="1.88341">
        <ele>294</ele>
        <time>2020-10-04T12:48:43.729Z</time>
      </trkpt>
      <trkpt lat="44.04426" lon="1.88343">
        <ele>294</ele>
        <time>2020-10-04T12:48:44.729Z</time>
      </trkpt>
      <trkpt lat="44.04426" lon="1.88345">
        <ele>294</ele>
        <time>2020-10-04T12:48:45.729Z</time>
      </trkpt>
      <trkpt lat="44.04426" lon="1.88346">
        <ele>294</ele>
        <time>2020-10-04T12:48:46.729Z</time>
      </trkpt>
      <trkpt lat="44.04427" lon="1.88348">
        <ele>294</ele>
        <time>2020-10-04T12:48:47.729Z</time>
      </trkpt>
      <trkpt lat="44.04427" lon="1.8835">
        <ele>294</ele>
        <time>2020-10-04T12:48:48.729Z</time>
      </trkpt>
      <trkpt lat="44.04427" lon="1.88351">
        <ele>294</ele>
        <time>2020-10-04T12:48:49.729Z</time>
      </trkpt>
      <trkpt lat="44.04428" lon="1.88353">
        <ele>294</ele>
        <time>2020-10-04T12:48:50.729Z</time>
      </trkpt>
      <trkpt lat="44.04428" lon="1.88355">
        <ele>294</ele>
        <time>2020-10-04T12:48:51.729Z</time>
      </trkpt>
      <trkpt lat="44.04428" lon="1.88357">
        <ele>294</ele>
        <time>2020-10-04T12:48:52.729Z</time>
      </trkpt>
      <trkpt lat="44.04429" lon="1.88359">
        <ele>294</ele>
        <time>2020-10-04T12:48:53.729Z</time>
      </trkpt>
      <trkpt lat="44.04429" lon="1.8836">
        <ele>294</ele>
        <time>2020-10-04T12:48:54.729Z</time>
      </trkpt>
      <trkpt lat="44.04429" lon="1.88362">
        <ele>294</ele>
        <time>2020-10-04T12:48:55.729Z</time>
      </trkpt>
      <trkpt lat="44.0443" lon="1.88364">
        <ele>294</ele>
        <time>2020-10-04T12:48:56.729Z</time>
      </trkpt>
      <trkpt lat="44.0443" lon="1.88365">
        <ele>294</ele>
        <time>2020-10-04T12:48:57.729Z</time>
      </trkpt>
      <trkpt lat="44.0443" lon="1.88367">
        <ele>294</ele>
        <time>2020-10-04T12:48:58.729Z</time>
      </trkpt>
      <trkpt lat="44.04431" lon="1.88369">
        <ele>294</ele>
        <time>2020-10-04T12:48:59.729Z</time>
      </trkpt>
      <trkpt lat="44.04431" lon="1.8837">
        <ele>294</ele>
        <time>2020-10-04T12:49:00.729Z</time>
      </trkpt>
      <trkpt lat="44.04431" lon="1.88372">
        <ele>294</ele>
        <time>2020-10-04T12:49:01.729Z</time>
      </trkpt>
      <trkpt lat="44.04432" lon="1.88374">
        <ele>295</ele>
        <time>2020-10-04T12:49:02.729Z</time>
      </trkpt>
      <trkpt lat="44.04432" lon="1.88375">
        <ele>295</ele>
        <time>2020-10-04T12:49:03.729Z</time>
      </trkpt>
      <trkpt lat="44.04432" lon="1.88377">
        <ele>295</ele>
        <time>2020-10-04T12:49:04.729Z</time>
      </trkpt>
      <trkpt lat="44.04433" lon="1.88379">
        <ele>295</ele>
        <time>2020-10-04T12:49:05.729Z</time>
      </trkpt>
      <trkpt lat="44.04433" lon="1.8838">
        <ele>295</ele>
        <time>2020-10-04T12:49:06.729Z</time>
      </trkpt>
      <trkpt lat="44.04433" lon="1.88382">
        <ele>295</ele>
        <time>2020-10-04T12:49:07.729Z</time>
      </trkpt>
      <trkpt lat="44.04434" lon="1.88384">
        <ele>295</ele>
        <time>2020-10-04T12:49:08.729Z</time>
      </trkpt>
      <trkpt lat="44.04434" lon="1.88385">
        <ele>295</ele>
        <time>2020-10-04T12:49:09.729Z</time>
      </trkpt>
      <trkpt lat="44.04434" lon="1.88387">
        <ele>295</ele>
        <time>2020-10-04T12:49:10.729Z</time>
      </trkpt>
      <trkpt lat="44.04435" lon="1.88389">
        <ele>295</ele>
        <time>2020-10-04T12:49:11.729Z</time>
      </trkpt>
      <trkpt lat="44.04435" lon="1.88391">
        <ele>295</ele>
        <time>2020-10-04T12:49:12.729Z</time>
      </trkpt>
      <trkpt lat="44.04436" lon="1.88393">
        <ele>295</ele>
        <time>2020-10-04T12:49:13.729Z</time>
      </trkpt>
      <trkpt lat="44.04436" lon="1.88394">
        <ele>295</ele>
        <time>2020-10-04T12:49:14.729Z</time>
      </trkpt>
      <trkpt lat="44.04436" lon="1.88396">
        <ele>295</ele>
        <time>2020-10-04T12:49:15.729Z</time>
      </trkpt>
      <trkpt lat="44.04437" lon="1.88398">
        <ele>295</ele>
        <time>2020-10-04T12:49:16.729Z</time>
      </trkpt>
      <trkpt lat="44.04437" lon="1.88399">
        <ele>295</ele>
        <time>2020-10-04T12:49:17.729Z</time>
      </trkpt>
      <trkpt lat="44.04437" lon="1.88401">
        <ele>295</ele>
        <time>2020-10-04T12:49:18.729Z</time>
      </trkpt>
      <trkpt lat="44.04438" lon="1.88403">
        <ele>295</ele>
        <time>2020-10-04T12:49:19.729Z</time>
      </trkpt>
      <trkpt lat="44.04438" lon="1.88405">
        <ele>295</ele>
        <time>2020-10-04T12:49:20.729Z</time>
      </trkpt>
      <trkpt lat="44.04438" lon="1.88406">
        <ele>295</ele>
        <time>2020-10-04T12:49:21.729Z</time>
      </trkpt>
      <trkpt lat="44.04438" lon="1.88408">
        <ele>294</ele>
        <time>2020-10-04T12:49:22.729Z</time>
      </trkpt>
      <trkpt lat="44.04439" lon="1.88409">
        <ele>294</ele>
        <time>2020-10-04T12:49:23.729Z</time>
      </trkpt>
      <trkpt lat="44.04439" lon="1.88411">
        <ele>294</ele>
        <time>2020-10-04T12:49:24.729Z</time>
      </trkpt>
      <trkpt lat="44.04439" lon="1.88412">
        <ele>294</ele>
        <time>2020-10-04T12:49:25.729Z</time>
      </trkpt>
      <trkpt lat="44.04439" lon="1.88413">
        <ele>294</ele>
        <time>2020-10-04T12:49:26.729Z</time>
      </trkpt>
      <trkpt lat="44.04439" lon="1.88414">
        <ele>294</ele>
        <time>2020-10-04T12:49:27.729Z</time>
      </trkpt>
      <trkpt lat="44.04439" lon="1.88414">
        <ele>294</ele>
        <time>2020-10-04T12:49:28.729Z</time>
      </trkpt>
      <trkpt lat="44.04439" lon="1.88414">
        <ele>294</ele>
        <time>2020-10-04T12:49:29.729Z</time>
      </trkpt>
      <trkpt lat="44.0444" lon="1.88415">
        <ele>294</ele>
        <time>2020-10-04T12:49:30.729Z</time>
      </trkpt>
      <trkpt lat="44.0444" lon="1.88417">
        <ele>294</ele>
        <time>2020-10-04T12:49:31.729Z</time>
      </trkpt>
      <trkpt lat="44.0444" lon="1.88418">
        <ele>294</ele>
        <time>2020-10-04T12:49:32.729Z</time>
      </trkpt>
      <trkpt lat="44.0444" lon="1.8842">
        <ele>294</ele>
        <time>2020-10-04T12:49:33.729Z</time>
      </trkpt>
      <trkpt lat="44.0444" lon="1.88421">
        <ele>294</ele>
        <time>2020-10-04T12:49:34.729Z</time>
      </trkpt>
      <trkpt lat="44.0444" lon="1.88423">
        <ele>294</ele>
        <time>2020-10-04T12:49:35.729Z</time>
      </trkpt>
      <trkpt lat="44.04439" lon="1.88424">
        <ele>294</ele>
        <time>2020-10-04T12:49:36.729Z</time>
      </trkpt>
      <trkpt lat="44.04439" lon="1.88425">
        <ele>293</ele>
        <time>2020-10-04T12:49:37.729Z</time>
      </trkpt>
      <trkpt lat="44.04439" lon="1.88427">
        <ele>293</ele>
        <time>2020-10-04T12:49:38.729Z</time>
      </trkpt>
      <trkpt lat="44.04438" lon="1.88428">
        <ele>293</ele>
        <time>2020-10-04T12:49:39.729Z</time>
      </trkpt>
      <trkpt lat="44.04438" lon="1.8843">
        <ele>293</ele>
        <time>2020-10-04T12:49:40.729Z</time>
      </trkpt>
      <trkpt lat="44.04438" lon="1.88431">
        <ele>293</ele>
        <time>2020-10-04T12:49:41.729Z</time>
      </trkpt>
      <trkpt lat="44.04438" lon="1.88433">
        <ele>293</ele>
        <time>2020-10-04T12:49:42.729Z</time>
      </trkpt>
      <trkpt lat="44.04437" lon="1.88434">
        <ele>293</ele>
        <time>2020-10-04T12:49:43.729Z</time>
      </trkpt>
      <trkpt lat="44.04437" lon="1.88435">
        <ele>293</ele>
        <time>2020-10-04T12:49:44.729Z</time>
      </trkpt>
      <trkpt lat="44.04436" lon="1.88437">
        <ele>293</ele>
        <time>2020-10-04T12:49:45.729Z</time>
      </trkpt>
      <trkpt lat="44.04436" lon="1.88439">
        <ele>293</ele>
        <time>2020-10-04T12:49:46.729Z</time>
      </trkpt>
      <trkpt lat="44.04435" lon="1.8844">
        <ele>293</ele>
        <time>2020-10-04T12:49:47.729Z</time>
      </trkpt>
      <trkpt lat="44.04435" lon="1.88441">
        <ele>293</ele>
        <time>2020-10-04T12:49:48.729Z</time>
      </trkpt>
      <trkpt lat="44.04435" lon="1.88442">
        <ele>293</ele>
        <time>2020-10-04T12:49:49.729Z</time>
      </trkpt>
      <trkpt lat="44.04435" lon="1.88443">
        <ele>293</ele>
        <time>2020-10-04T12:49:50.729Z</time>
      </trkpt>
      <trkpt lat="44.04436" lon="1.88445">
        <ele>293</ele>
        <time>2020-10-04T12:49:51.729Z</time>
      </trkpt>
      <trkpt lat="44.04436" lon="1.88446">
        <ele>293</ele>
        <time>2020-10-04T12:49:52.729Z</time>
      </trkpt>
      <trkpt lat="44.04436" lon="1.88447">
        <ele>293</ele>
        <time>2020-10-04T12:49:53.729Z</time>
      </trkpt>
      <trkpt lat="44.04436" lon="1.88448">
        <ele>293</ele>
        <time>2020-10-04T12:49:54.729Z</time>
      </trkpt>
      <trkpt lat="44.04435" lon="1.8845">
        <ele>293</ele>
        <time>2020-10-04T12:49:55.729Z</time>
      </trkpt>
      <trkpt lat="44.04435" lon="1.88451">
        <ele>293</ele>
        <time>2020-10-04T12:49:56.729Z</time>
      </trkpt>
      <trkpt lat="44.04434" lon="1.88452">
        <ele>293</ele>
        <time>2020-10-04T12:49:57.729Z</time>
      </trkpt>
      <trkpt lat="44.04434" lon="1.88453">
        <ele>293</ele>
        <time>2020-10-04T12:49:58.729Z</time>
      </trkpt>
      <trkpt lat="44.04434" lon="1.88453">
        <ele>293</ele>
        <time>2020-10-04T12:49:59.729Z</time>
      </trkpt>
      <trkpt lat="44.04434" lon="1.88453">
        <ele>292</ele>
        <time>2020-10-04T12:50:00.729Z</time>
      </trkpt>
      <trkpt lat="44.04434" lon="1.88454">
        <ele>292</ele>
        <time>2020-10-04T12:50:01.729Z</time>
      </trkpt>
      <trkpt lat="44.04433" lon="1.88455">
        <ele>292</ele>
        <time>2020-10-04T12:50:02.729Z</time>
      </trkpt>
      <trkpt lat="44.04433" lon="1.88456">
        <ele>292</ele>
        <time>2020-10-04T12:50:03.729Z</time>
      </trkpt>
      <trkpt lat="44.04432" lon="1.88458">
        <ele>293</ele>
        <time>2020-10-04T12:50:04.729Z</time>
      </trkpt>
      <trkpt lat="44.04431" lon="1.88459">
        <ele>293</ele>
        <time>2020-10-04T12:50:05.729Z</time>
      </trkpt>
      <trkpt lat="44.04431" lon="1.8846">
        <ele>293</ele>
        <time>2020-10-04T12:50:06.729Z</time>
      </trkpt>
      <trkpt lat="44.0443" lon="1.88461">
        <ele>293</ele>
        <time>2020-10-04T12:50:07.729Z</time>
      </trkpt>
      <trkpt lat="44.04429" lon="1.88462">
        <ele>293</ele>
        <time>2020-10-04T12:50:08.729Z</time>
      </trkpt>
      <trkpt lat="44.04428" lon="1.88463">
        <ele>293</ele>
        <time>2020-10-04T12:50:09.729Z</time>
      </trkpt>
      <trkpt lat="44.04428" lon="1.88465">
        <ele>293</ele>
        <time>2020-10-04T12:50:10.729Z</time>
      </trkpt>
      <trkpt lat="44.04427" lon="1.88466">
        <ele>293</ele>
        <time>2020-10-04T12:50:11.729Z</time>
      </trkpt>
      <trkpt lat="44.04426" lon="1.88467">
        <ele>293</ele>
        <time>2020-10-04T12:50:12.729Z</time>
      </trkpt>
      <trkpt lat="44.04425" lon="1.88468">
        <ele>293</ele>
        <time>2020-10-04T12:50:13.729Z</time>
      </trkpt>
      <trkpt lat="44.04424" lon="1.88469">
        <ele>293</ele>
        <time>2020-10-04T12:50:14.729Z</time>
      </trkpt>
      <trkpt lat="44.04424" lon="1.88471">
        <ele>293</ele>
        <time>2020-10-04T12:50:15.729Z</time>
      </trkpt>
      <trkpt lat="44.04423" lon="1.88472">
        <ele>293</ele>
        <time>2020-10-04T12:50:16.729Z</time>
      </trkpt>
      <trkpt lat="44.04422" lon="1.88473">
        <ele>293</ele>
        <time>2020-10-04T12:50:17.729Z</time>
      </trkpt>
      <trkpt lat="44.04422" lon="1.88475">
        <ele>293</ele>
        <time>2020-10-04T12:50:18.729Z</time>
      </trkpt>
      <trkpt lat="44.04421" lon="1.88476">
        <ele>293</ele>
        <time>2020-10-04T12:50:19.729Z</time>
      </trkpt>
      <trkpt lat="44.0442" lon="1.88477">
        <ele>293</ele>
        <time>2020-10-04T12:50:20.729Z</time>
      </trkpt>
      <trkpt lat="44.04419" lon="1.88478">
        <ele>293</ele>
        <time>2020-10-04T12:50:21.729Z</time>
      </trkpt>
      <trkpt lat="44.04418" lon="1.8848">
        <ele>293</ele>
        <time>2020-10-04T12:50:22.729Z</time>
      </trkpt>
      <trkpt lat="44.04418" lon="1.88481">
        <ele>293</ele>
        <time>2020-10-04T12:50:23.729Z</time>
      </trkpt>
      <trkpt lat="44.04417" lon="1.88483">
        <ele>293</ele>
        <time>2020-10-04T12:50:24.729Z</time>
      </trkpt>
      <trkpt lat="44.04416" lon="1.88484">
        <ele>293</ele>
        <time>2020-10-04T12:50:25.729Z</time>
      </trkpt>
      <trkpt lat="44.04415" lon="1.88486">
        <ele>293</ele>
        <time>2020-10-04T12:50:26.729Z</time>
      </trkpt>
      <trkpt lat="44.04415" lon="1.88487">
        <ele>293</ele>
        <time>2020-10-04T12:50:27.729Z</time>
      </trkpt>
      <trkpt lat="44.04414" lon="1.88488">
        <ele>293</ele>
        <time>2020-10-04T12:50:28.729Z</time>
      </trkpt>
      <trkpt lat="44.04413" lon="1.88489">
        <ele>293</ele>
        <time>2020-10-04T12:50:29.729Z</time>
      </trkpt>
      <trkpt lat="44.04412" lon="1.88491">
        <ele>293</ele>
        <time>2020-10-04T12:50:30.729Z</time>
      </trkpt>
      <trkpt lat="44.04412" lon="1.88492">
        <ele>293</ele>
        <time>2020-10-04T12:50:31.729Z</time>
      </trkpt>
      <trkpt lat="44.04411" lon="1.88494">
        <ele>293</ele>
        <time>2020-10-04T12:50:32.729Z</time>
      </trkpt>
      <trkpt lat="44.0441" lon="1.88495">
        <ele>293</ele>
        <time>2020-10-04T12:50:33.729Z</time>
      </trkpt>
      <trkpt lat="44.04409" lon="1.88497">
        <ele>293</ele>
        <time>2020-10-04T12:50:34.729Z</time>
      </trkpt>
      <trkpt lat="44.04409" lon="1.88498">
        <ele>293</ele>
        <time>2020-10-04T12:50:35.729Z</time>
      </trkpt>
      <trkpt lat="44.04409" lon="1.88499">
        <ele>293</ele>
        <time>2020-10-04T12:50:36.729Z</time>
      </trkpt>
      <trkpt lat="44.04408" lon="1.88501">
        <ele>293</ele>
        <time>2020-10-04T12:50:37.729Z</time>
      </trkpt>
      <trkpt lat="44.04407" lon="1.88503">
        <ele>293</ele>
        <time>2020-10-04T12:50:38.729Z</time>
      </trkpt>
      <trkpt lat="44.04406" lon="1.88504">
        <ele>293</ele>
        <time>2020-10-04T12:50:39.729Z</time>
      </trkpt>
      <trkpt lat="44.04406" lon="1.88505">
        <ele>293</ele>
        <time>2020-10-04T12:50:40.729Z</time>
      </trkpt>
      <trkpt lat="44.04405" lon="1.88507">
        <ele>293</ele>
        <time>2020-10-04T12:50:41.729Z</time>
      </trkpt>
      <trkpt lat="44.04404" lon="1.88508">
        <ele>293</ele>
        <time>2020-10-04T12:50:42.729Z</time>
      </trkpt>
      <trkpt lat="44.04403" lon="1.88509">
        <ele>293</ele>
        <time>2020-10-04T12:50:43.729Z</time>
      </trkpt>
      <trkpt lat="44.04403" lon="1.88511">
        <ele>293</ele>
        <time>2020-10-04T12:50:44.729Z</time>
      </trkpt>
      <trkpt lat="44.04402" lon="1.88513">
        <ele>293</ele>
        <time>2020-10-04T12:50:45.729Z</time>
      </trkpt>
      <trkpt lat="44.04401" lon="1.88514">
        <ele>293</ele>
        <time>2020-10-04T12:50:46.729Z</time>
      </trkpt>
      <trkpt lat="44.044" lon="1.88515">
        <ele>293</ele>
        <time>2020-10-04T12:50:47.729Z</time>
      </trkpt>
      <trkpt lat="44.044" lon="1.88517">
        <ele>293</ele>
        <time>2020-10-04T12:50:48.729Z</time>
      </trkpt>
      <trkpt lat="44.04399" lon="1.88518">
        <ele>293</ele>
        <time>2020-10-04T12:50:49.729Z</time>
      </trkpt>
      <trkpt lat="44.04398" lon="1.88519">
        <ele>293</ele>
        <time>2020-10-04T12:50:50.729Z</time>
      </trkpt>
      <trkpt lat="44.04398" lon="1.8852">
        <ele>293</ele>
        <time>2020-10-04T12:50:51.729Z</time>
      </trkpt>
      <trkpt lat="44.04397" lon="1.88521">
        <ele>293</ele>
        <time>2020-10-04T12:50:52.729Z</time>
      </trkpt>
      <trkpt lat="44.04397" lon="1.88521">
        <ele>293</ele>
        <time>2020-10-04T12:50:53.729Z</time>
      </trkpt>
      <trkpt lat="44.04396" lon="1.88521">
        <ele>293</ele>
        <time>2020-10-04T12:50:54.729Z</time>
      </trkpt>
      <trkpt lat="44.04396" lon="1.88522">
        <ele>293</ele>
        <time>2020-10-04T12:50:55.729Z</time>
      </trkpt>
      <trkpt lat="44.04396" lon="1.88522">
        <ele>293</ele>
        <time>2020-10-04T12:50:56.729Z</time>
      </trkpt>
      <trkpt lat="44.04396" lon="1.88522">
        <ele>293</ele>
        <time>2020-10-04T12:50:57.729Z</time>
      </trkpt>
      <trkpt lat="44.04396" lon="1.88522">
        <ele>293</ele>
        <time>2020-10-04T12:50:58.729Z</time>
      </trkpt>
      <trkpt lat="44.04395" lon="1.88523">
        <ele>294</ele>
        <time>2020-10-04T12:50:59.729Z</time>
      </trkpt>
      <trkpt lat="44.04395" lon="1.88524">
        <ele>294</ele>
        <time>2020-10-04T12:51:00.729Z</time>
      </trkpt>
      <trkpt lat="44.04395" lon="1.88526">
        <ele>294</ele>
        <time>2020-10-04T12:51:01.729Z</time>
      </trkpt>
      <trkpt lat="44.04395" lon="1.88527">
        <ele>294</ele>
        <time>2020-10-04T12:51:02.729Z</time>
      </trkpt>
      <trkpt lat="44.04394" lon="1.88529">
        <ele>294</ele>
        <time>2020-10-04T12:51:03.729Z</time>
      </trkpt>
      <trkpt lat="44.04394" lon="1.8853">
        <ele>294</ele>
        <time>2020-10-04T12:51:04.729Z</time>
      </trkpt>
      <trkpt lat="44.04393" lon="1.88531">
        <ele>294</ele>
        <time>2020-10-04T12:51:05.729Z</time>
      </trkpt>
      <trkpt lat="44.04392" lon="1.88532">
        <ele>294</ele>
        <time>2020-10-04T12:51:06.729Z</time>
      </trkpt>
      <trkpt lat="44.04392" lon="1.88533">
        <ele>294</ele>
        <time>2020-10-04T12:51:07.729Z</time>
      </trkpt>
      <trkpt lat="44.04391" lon="1.88533">
        <ele>294</ele>
        <time>2020-10-04T12:51:08.729Z</time>
      </trkpt>
      <trkpt lat="44.04391" lon="1.88534">
        <ele>293</ele>
        <time>2020-10-04T12:51:09.729Z</time>
      </trkpt>
      <trkpt lat="44.04391" lon="1.88535">
        <ele>293</ele>
        <time>2020-10-04T12:51:10.729Z</time>
      </trkpt>
      <trkpt lat="44.04391" lon="1.88535">
        <ele>293</ele>
        <time>2020-10-04T12:51:11.729Z</time>
      </trkpt>
      <trkpt lat="44.0439" lon="1.88535">
        <ele>293</ele>
        <time>2020-10-04T12:51:12.729Z</time>
      </trkpt>
      <trkpt lat="44.0439" lon="1.88535">
        <ele>293</ele>
        <time>2020-10-04T12:51:13.729Z</time>
      </trkpt>
      <trkpt lat="44.0439" lon="1.88535">
        <ele>293</ele>
        <time>2020-10-04T12:51:14.729Z</time>
      </trkpt>
      <trkpt lat="44.04389" lon="1.88536">
        <ele>293</ele>
        <time>2020-10-04T12:51:15.729Z</time>
      </trkpt>
      <trkpt lat="44.04388" lon="1.88536">
        <ele>293</ele>
        <time>2020-10-04T12:51:16.729Z</time>
      </trkpt>
      <trkpt lat="44.04388" lon="1.88537">
        <ele>294</ele>
        <time>2020-10-04T12:51:17.729Z</time>
      </trkpt>
      <trkpt lat="44.04387" lon="1.88538">
        <ele>293</ele>
        <time>2020-10-04T12:51:18.729Z</time>
      </trkpt>
      <trkpt lat="44.04386" lon="1.88539">
        <ele>293</ele>
        <time>2020-10-04T12:51:19.729Z</time>
      </trkpt>
      <trkpt lat="44.04386" lon="1.8854">
        <ele>293</ele>
        <time>2020-10-04T12:51:20.729Z</time>
      </trkpt>
      <trkpt lat="44.04385" lon="1.88541">
        <ele>293</ele>
        <time>2020-10-04T12:51:21.729Z</time>
      </trkpt>
      <trkpt lat="44.04385" lon="1.88541">
        <ele>293</ele>
        <time>2020-10-04T12:51:22.729Z</time>
      </trkpt>
      <trkpt lat="44.04385" lon="1.88541">
        <ele>293</ele>
        <time>2020-10-04T12:51:23.729Z</time>
      </trkpt>
      <trkpt lat="44.04385" lon="1.88541">
        <ele>293</ele>
        <time>2020-10-04T12:51:24.729Z</time>
      </trkpt>
      <trkpt lat="44.04384" lon="1.88542">
        <ele>293</ele>
        <time>2020-10-04T12:51:25.729Z</time>
      </trkpt>
      <trkpt lat="44.04384" lon="1.88543">
        <ele>293</ele>
        <time>2020-10-04T12:51:26.729Z</time>
      </trkpt>
      <trkpt lat="44.04384" lon="1.88544">
        <ele>293</ele>
        <time>2020-10-04T12:51:27.729Z</time>
      </trkpt>
      <trkpt lat="44.04383" lon="1.88545">
        <ele>293</ele>
        <time>2020-10-04T12:51:28.729Z</time>
      </trkpt>
      <trkpt lat="44.04382" lon="1.88545">
        <ele>294</ele>
        <time>2020-10-04T12:51:29.729Z</time>
      </trkpt>
      <trkpt lat="44.04382" lon="1.88545">
        <ele>294</ele>
        <time>2020-10-04T12:51:30.729Z</time>
      </trkpt>
      <trkpt lat="44.04382" lon="1.88545">
        <ele>294</ele>
        <time>2020-10-04T12:51:31.729Z</time>
      </trkpt>
      <trkpt lat="44.04381" lon="1.88546">
        <ele>293</ele>
        <time>2020-10-04T12:51:32.729Z</time>
      </trkpt>
      <trkpt lat="44.04381" lon="1.88546">
        <ele>293</ele>
        <time>2020-10-04T12:51:33.729Z</time>
      </trkpt>
      <trkpt lat="44.04381" lon="1.88547">
        <ele>293</ele>
        <time>2020-10-04T12:51:34.729Z</time>
      </trkpt>
      <trkpt lat="44.0438" lon="1.88548">
        <ele>293</ele>
        <time>2020-10-04T12:51:35.729Z</time>
      </trkpt>
      <trkpt lat="44.0438" lon="1.88549">
        <ele>293</ele>
        <time>2020-10-04T12:51:36.729Z</time>
      </trkpt>
      <trkpt lat="44.0438" lon="1.8855">
        <ele>293</ele>
        <time>2020-10-04T12:51:37.729Z</time>
      </trkpt>
      <trkpt lat="44.04379" lon="1.88551">
        <ele>293</ele>
        <time>2020-10-04T12:51:38.729Z</time>
      </trkpt>
      <trkpt lat="44.04379" lon="1.88552">
        <ele>293</ele>
        <time>2020-10-04T12:51:39.729Z</time>
      </trkpt>
      <trkpt lat="44.04378" lon="1.88553">
        <ele>293</ele>
        <time>2020-10-04T12:51:40.729Z</time>
      </trkpt>
      <trkpt lat="44.04378" lon="1.88553">
        <ele>293</ele>
        <time>2020-10-04T12:51:41.729Z</time>
      </trkpt>
      <trkpt lat="44.04377" lon="1.88554">
        <ele>293</ele>
        <time>2020-10-04T12:51:42.729Z</time>
      </trkpt>
      <trkpt lat="44.04377" lon="1.88555">
        <ele>292</ele>
        <time>2020-10-04T12:51:43.729Z</time>
      </trkpt>
      <trkpt lat="44.04376" lon="1.88555">
        <ele>292</ele>
        <time>2020-10-04T12:51:44.729Z</time>
      </trkpt>
      <trkpt lat="44.04376" lon="1.88556">
        <ele>292</ele>
        <time>2020-10-04T12:51:45.729Z</time>
      </trkpt>
      <trkpt lat="44.04375" lon="1.88557">
        <ele>292</ele>
        <time>2020-10-04T12:51:46.729Z</time>
      </trkpt>
      <trkpt lat="44.04374" lon="1.88557">
        <ele>292</ele>
        <time>2020-10-04T12:51:47.729Z</time>
      </trkpt>
      <trkpt lat="44.04374" lon="1.88558">
        <ele>292</ele>
        <time>2020-10-04T12:51:48.729Z</time>
      </trkpt>
      <trkpt lat="44.04373" lon="1.88559">
        <ele>292</ele>
        <time>2020-10-04T12:51:49.729Z</time>
      </trkpt>
      <trkpt lat="44.04372" lon="1.8856">
        <ele>292</ele>
        <time>2020-10-04T12:51:50.729Z</time>
      </trkpt>
      <trkpt lat="44.04372" lon="1.88561">
        <ele>292</ele>
        <time>2020-10-04T12:51:51.729Z</time>
      </trkpt>
      <trkpt lat="44.04371" lon="1.88562">
        <ele>292</ele>
        <time>2020-10-04T12:51:52.729Z</time>
      </trkpt>
      <trkpt lat="44.0437" lon="1.88563">
        <ele>292</ele>
        <time>2020-10-04T12:51:53.729Z</time>
      </trkpt>
      <trkpt lat="44.04369" lon="1.88564">
        <ele>292</ele>
        <time>2020-10-04T12:51:54.729Z</time>
      </trkpt>
      <trkpt lat="44.04369" lon="1.88565">
        <ele>292</ele>
        <time>2020-10-04T12:51:55.729Z</time>
      </trkpt>
      <trkpt lat="44.04368" lon="1.88566">
        <ele>292</ele>
        <time>2020-10-04T12:51:56.729Z</time>
      </trkpt>
      <trkpt lat="44.04367" lon="1.88567">
        <ele>292</ele>
        <time>2020-10-04T12:51:57.729Z</time>
      </trkpt>
      <trkpt lat="44.04367" lon="1.88568">
        <ele>292</ele>
        <time>2020-10-04T12:51:58.729Z</time>
      </trkpt>
      <trkpt lat="44.04366" lon="1.8857">
        <ele>292</ele>
        <time>2020-10-04T12:51:59.729Z</time>
      </trkpt>
      <trkpt lat="44.04365" lon="1.88571">
        <ele>292</ele>
        <time>2020-10-04T12:52:00.729Z</time>
      </trkpt>
      <trkpt lat="44.04365" lon="1.88572">
        <ele>292</ele>
        <time>2020-10-04T12:52:01.729Z</time>
      </trkpt>
      <trkpt lat="44.04364" lon="1.88573">
        <ele>292</ele>
        <time>2020-10-04T12:52:02.729Z</time>
      </trkpt>
      <trkpt lat="44.04363" lon="1.88574">
        <ele>292</ele>
        <time>2020-10-04T12:52:03.729Z</time>
      </trkpt>
      <trkpt lat="44.04362" lon="1.88576">
        <ele>292</ele>
        <time>2020-10-04T12:52:04.729Z</time>
      </trkpt>
      <trkpt lat="44.04361" lon="1.88577">
        <ele>292</ele>
        <time>2020-10-04T12:52:05.729Z</time>
      </trkpt>
      <trkpt lat="44.0436" lon="1.88578">
        <ele>292</ele>
        <time>2020-10-04T12:52:06.729Z</time>
      </trkpt>
      <trkpt lat="44.0436" lon="1.88579">
        <ele>292</ele>
        <time>2020-10-04T12:52:07.729Z</time>
      </trkpt>
      <trkpt lat="44.04359" lon="1.8858">
        <ele>292</ele>
        <time>2020-10-04T12:52:08.729Z</time>
      </trkpt>
      <trkpt lat="44.04358" lon="1.88581">
        <ele>292</ele>
        <time>2020-10-04T12:52:09.729Z</time>
      </trkpt>
      <trkpt lat="44.04358" lon="1.88582">
        <ele>292</ele>
        <time>2020-10-04T12:52:10.729Z</time>
      </trkpt>
      <trkpt lat="44.04357" lon="1.88583">
        <ele>292</ele>
        <time>2020-10-04T12:52:11.729Z</time>
      </trkpt>
      <trkpt lat="44.04356" lon="1.88584">
        <ele>292</ele>
        <time>2020-10-04T12:52:12.729Z</time>
      </trkpt>
      <trkpt lat="44.04356" lon="1.88584">
        <ele>292</ele>
        <time>2020-10-04T12:52:13.729Z</time>
      </trkpt>
      <trkpt lat="44.04355" lon="1.88585">
        <ele>292</ele>
        <time>2020-10-04T12:52:14.729Z</time>
      </trkpt>
      <trkpt lat="44.04355" lon="1.88585">
        <ele>292</ele>
        <time>2020-10-04T12:52:15.729Z</time>
      </trkpt>
      <trkpt lat="44.04355" lon="1.88585">
        <ele>292</ele>
        <time>2020-10-04T12:52:16.729Z</time>
      </trkpt>
      <trkpt lat="44.04355" lon="1.88585">
        <ele>292</ele>
        <time>2020-10-04T12:52:17.729Z</time>
      </trkpt>
      <trkpt lat="44.04355" lon="1.88585">
        <ele>292</ele>
        <time>2020-10-04T12:52:18.729Z</time>
      </trkpt>
      <trkpt lat="44.04353" lon="1.88585">
        <ele>292</ele>
        <time>2020-10-04T12:52:19.729Z</time>
      </trkpt>
      <trkpt lat="44.04353" lon="1.88584">
        <ele>292</ele>
        <time>2020-10-04T12:52:20.729Z</time>
      </trkpt>
      <trkpt lat="44.04352" lon="1.88584">
        <ele>292</ele>
        <time>2020-10-04T12:52:21.729Z</time>
      </trkpt>
      <trkpt lat="44.04351" lon="1.88584">
        <ele>292</ele>
        <time>2020-10-04T12:52:22.729Z</time>
      </trkpt>
      <trkpt lat="44.04351" lon="1.88584">
        <ele>292</ele>
        <time>2020-10-04T12:52:23.729Z</time>
      </trkpt>
      <trkpt lat="44.0435" lon="1.88583">
        <ele>292</ele>
        <time>2020-10-04T12:52:24.729Z</time>
      </trkpt>
      <trkpt lat="44.04349" lon="1.88583">
        <ele>292</ele>
        <time>2020-10-04T12:52:25.729Z</time>
      </trkpt>
      <trkpt lat="44.04349" lon="1.88582">
        <ele>292</ele>
        <time>2020-10-04T12:52:26.729Z</time>
      </trkpt>
      <trkpt lat="44.04349" lon="1.88581">
        <ele>292</ele>
        <time>2020-10-04T12:52:27.729Z</time>
      </trkpt>
      <trkpt lat="44.04349" lon="1.8858">
        <ele>292</ele>
        <time>2020-10-04T12:52:28.729Z</time>
      </trkpt>
      <trkpt lat="44.04348" lon="1.88579">
        <ele>292</ele>
        <time>2020-10-04T12:52:29.729Z</time>
      </trkpt>
      <trkpt lat="44.04348" lon="1.88578">
        <ele>292</ele>
        <time>2020-10-04T12:52:30.729Z</time>
      </trkpt>
      <trkpt lat="44.04347" lon="1.88577">
        <ele>292</ele>
        <time>2020-10-04T12:52:31.729Z</time>
      </trkpt>
      <trkpt lat="44.04346" lon="1.88577">
        <ele>292</ele>
        <time>2020-10-04T12:52:32.729Z</time>
      </trkpt>
      <trkpt lat="44.04346" lon="1.88576">
        <ele>292</ele>
        <time>2020-10-04T12:52:33.729Z</time>
      </trkpt>
      <trkpt lat="44.04345" lon="1.88575">
        <ele>292</ele>
        <time>2020-10-04T12:52:34.729Z</time>
      </trkpt>
      <trkpt lat="44.04344" lon="1.88574">
        <ele>292</ele>
        <time>2020-10-04T12:52:35.729Z</time>
      </trkpt>
      <trkpt lat="44.04343" lon="1.88574">
        <ele>292</ele>
        <time>2020-10-04T12:52:36.729Z</time>
      </trkpt>
      <trkpt lat="44.04343" lon="1.88573">
        <ele>292</ele>
        <time>2020-10-04T12:52:37.729Z</time>
      </trkpt>
      <trkpt lat="44.04342" lon="1.88572">
        <ele>292</ele>
        <time>2020-10-04T12:52:38.729Z</time>
      </trkpt>
      <trkpt lat="44.04342" lon="1.88571">
        <ele>292</ele>
        <time>2020-10-04T12:52:39.729Z</time>
      </trkpt>
      <trkpt lat="44.04341" lon="1.8857">
        <ele>292</ele>
        <time>2020-10-04T12:52:40.729Z</time>
      </trkpt>
      <trkpt lat="44.0434" lon="1.88569">
        <ele>292</ele>
        <time>2020-10-04T12:52:41.729Z</time>
      </trkpt>
      <trkpt lat="44.04339" lon="1.88569">
        <ele>292</ele>
        <time>2020-10-04T12:52:42.729Z</time>
      </trkpt>
      <trkpt lat="44.04339" lon="1.88568">
        <ele>292</ele>
        <time>2020-10-04T12:52:43.729Z</time>
      </trkpt>
      <trkpt lat="44.04338" lon="1.88567">
        <ele>292</ele>
        <time>2020-10-04T12:52:44.729Z</time>
      </trkpt>
      <trkpt lat="44.04337" lon="1.88566">
        <ele>292</ele>
        <time>2020-10-04T12:52:45.729Z</time>
      </trkpt>
      <trkpt lat="44.04337" lon="1.88565">
        <ele>292</ele>
        <time>2020-10-04T12:52:46.729Z</time>
      </trkpt>
      <trkpt lat="44.04336" lon="1.88564">
        <ele>292</ele>
        <time>2020-10-04T12:52:47.729Z</time>
      </trkpt>
      <trkpt lat="44.04335" lon="1.88564">
        <ele>292</ele>
        <time>2020-10-04T12:52:48.729Z</time>
      </trkpt>
      <trkpt lat="44.04335" lon="1.88563">
        <ele>292</ele>
        <time>2020-10-04T12:52:49.729Z</time>
      </trkpt>
      <trkpt lat="44.04334" lon="1.88563">
        <ele>292</ele>
        <time>2020-10-04T12:52:50.729Z</time>
      </trkpt>
      <trkpt lat="44.04333" lon="1.88562">
        <ele>292</ele>
        <time>2020-10-04T12:52:51.729Z</time>
      </trkpt>
      <trkpt lat="44.04332" lon="1.88561">
        <ele>292</ele>
        <time>2020-10-04T12:52:52.729Z</time>
      </trkpt>
      <trkpt lat="44.04331" lon="1.8856">
        <ele>292</ele>
        <time>2020-10-04T12:52:53.729Z</time>
      </trkpt>
      <trkpt lat="44.04331" lon="1.88559">
        <ele>292</ele>
        <time>2020-10-04T12:52:54.729Z</time>
      </trkpt>
      <trkpt lat="44.0433" lon="1.88558">
        <ele>292</ele>
        <time>2020-10-04T12:52:55.729Z</time>
      </trkpt>
      <trkpt lat="44.04329" lon="1.88558">
        <ele>292</ele>
        <time>2020-10-04T12:52:56.729Z</time>
      </trkpt>
      <trkpt lat="44.04328" lon="1.88557">
        <ele>292</ele>
        <time>2020-10-04T12:52:57.729Z</time>
      </trkpt>
      <trkpt lat="44.04327" lon="1.88557">
        <ele>292</ele>
        <time>2020-10-04T12:52:58.729Z</time>
      </trkpt>
      <trkpt lat="44.04326" lon="1.88556">
        <ele>292</ele>
        <time>2020-10-04T12:52:59.729Z</time>
      </trkpt>
      <trkpt lat="44.04325" lon="1.88555">
        <ele>292</ele>
        <time>2020-10-04T12:53:00.729Z</time>
      </trkpt>
      <trkpt lat="44.04324" lon="1.88554">
        <ele>292</ele>
        <time>2020-10-04T12:53:01.729Z</time>
      </trkpt>
      <trkpt lat="44.04323" lon="1.88554">
        <ele>292</ele>
        <time>2020-10-04T12:53:02.729Z</time>
      </trkpt>
      <trkpt lat="44.04322" lon="1.88553">
        <ele>292</ele>
        <time>2020-10-04T12:53:03.729Z</time>
      </trkpt>
      <trkpt lat="44.04321" lon="1.88552">
        <ele>292</ele>
        <time>2020-10-04T12:53:04.729Z</time>
      </trkpt>
      <trkpt lat="44.0432" lon="1.88552">
        <ele>292</ele>
        <time>2020-10-04T12:53:05.729Z</time>
      </trkpt>
      <trkpt lat="44.04318" lon="1.88551">
        <ele>292</ele>
        <time>2020-10-04T12:53:06.729Z</time>
      </trkpt>
      <trkpt lat="44.04317" lon="1.8855">
        <ele>292</ele>
        <time>2020-10-04T12:53:07.729Z</time>
      </trkpt>
      <trkpt lat="44.04316" lon="1.88549">
        <ele>292</ele>
        <time>2020-10-04T12:53:08.729Z</time>
      </trkpt>
      <trkpt lat="44.04315" lon="1.88548">
        <ele>292</ele>
        <time>2020-10-04T12:53:09.729Z</time>
      </trkpt>
      <trkpt lat="44.04315" lon="1.88547">
        <ele>292</ele>
        <time>2020-10-04T12:53:10.729Z</time>
      </trkpt>
      <trkpt lat="44.04314" lon="1.88546">
        <ele>292</ele>
        <time>2020-10-04T12:53:11.729Z</time>
      </trkpt>
      <trkpt lat="44.04313" lon="1.88546">
        <ele>292</ele>
        <time>2020-10-04T12:53:12.729Z</time>
      </trkpt>
      <trkpt lat="44.04312" lon="1.88544">
        <ele>292</ele>
        <time>2020-10-04T12:53:13.729Z</time>
      </trkpt>
      <trkpt lat="44.04311" lon="1.88543">
        <ele>292</ele>
        <time>2020-10-04T12:53:14.729Z</time>
      </trkpt>
      <trkpt lat="44.0431" lon="1.88542">
        <ele>291</ele>
        <time>2020-10-04T12:53:15.729Z</time>
      </trkpt>
      <trkpt lat="44.04309" lon="1.88541">
        <ele>291</ele>
        <time>2020-10-04T12:53:16.729Z</time>
      </trkpt>
      <trkpt lat="44.04309" lon="1.88541">
        <ele>291</ele>
        <time>2020-10-04T12:53:17.729Z</time>
      </trkpt>
      <trkpt lat="44.04307" lon="1.8854">
        <ele>291</ele>
        <time>2020-10-04T12:53:18.729Z</time>
      </trkpt>
      <trkpt lat="44.04306" lon="1.88539">
        <ele>291</ele>
        <time>2020-10-04T12:53:19.729Z</time>
      </trkpt>
      <trkpt lat="44.04305" lon="1.88538">
        <ele>291</ele>
        <time>2020-10-04T12:53:20.729Z</time>
      </trkpt>
      <trkpt lat="44.04304" lon="1.88537">
        <ele>291</ele>
        <time>2020-10-04T12:53:21.729Z</time>
      </trkpt>
      <trkpt lat="44.04303" lon="1.88536">
        <ele>291</ele>
        <time>2020-10-04T12:53:22.729Z</time>
      </trkpt>
      <trkpt lat="44.04302" lon="1.88535">
        <ele>291</ele>
        <time>2020-10-04T12:53:23.729Z</time>
      </trkpt>
      <trkpt lat="44.04302" lon="1.88534">
        <ele>290</ele>
        <time>2020-10-04T12:53:24.729Z</time>
      </trkpt>
      <trkpt lat="44.04301" lon="1.88533">
        <ele>290</ele>
        <time>2020-10-04T12:53:25.729Z</time>
      </trkpt>
      <trkpt lat="44.043" lon="1.88533">
        <ele>290</ele>
        <time>2020-10-04T12:53:26.729Z</time>
      </trkpt>
      <trkpt lat="44.04298" lon="1.88532">
        <ele>290</ele>
        <time>2020-10-04T12:53:27.729Z</time>
      </trkpt>
      <trkpt lat="44.04297" lon="1.88531">
        <ele>290</ele>
        <time>2020-10-04T12:53:28.729Z</time>
      </trkpt>
      <trkpt lat="44.04297" lon="1.8853">
        <ele>290</ele>
        <time>2020-10-04T12:53:29.729Z</time>
      </trkpt>
      <trkpt lat="44.04296" lon="1.8853">
        <ele>290</ele>
        <time>2020-10-04T12:53:30.729Z</time>
      </trkpt>
      <trkpt lat="44.04295" lon="1.88529">
        <ele>290</ele>
        <time>2020-10-04T12:53:31.729Z</time>
      </trkpt>
      <trkpt lat="44.04294" lon="1.88528">
        <ele>290</ele>
        <time>2020-10-04T12:53:32.729Z</time>
      </trkpt>
      <trkpt lat="44.04293" lon="1.88528">
        <ele>290</ele>
        <time>2020-10-04T12:53:33.729Z</time>
      </trkpt>
      <trkpt lat="44.04292" lon="1.88527">
        <ele>290</ele>
        <time>2020-10-04T12:53:34.729Z</time>
      </trkpt>
      <trkpt lat="44.04292" lon="1.88526">
        <ele>290</ele>
        <time>2020-10-04T12:53:35.729Z</time>
      </trkpt>
      <trkpt lat="44.04291" lon="1.88525">
        <ele>290</ele>
        <time>2020-10-04T12:53:36.729Z</time>
      </trkpt>
      <trkpt lat="44.04291" lon="1.88524">
        <ele>290</ele>
        <time>2020-10-04T12:53:37.729Z</time>
      </trkpt>
      <trkpt lat="44.04292" lon="1.88523">
        <ele>289</ele>
        <time>2020-10-04T12:53:38.729Z</time>
      </trkpt>
      <trkpt lat="44.04292" lon="1.88522">
        <ele>289</ele>
        <time>2020-10-04T12:53:39.729Z</time>
      </trkpt>
      <trkpt lat="44.04293" lon="1.88522">
        <ele>289</ele>
        <time>2020-10-04T12:53:40.729Z</time>
      </trkpt>
      <trkpt lat="44.04293" lon="1.88521">
        <ele>289</ele>
        <time>2020-10-04T12:53:41.729Z</time>
      </trkpt>
      <trkpt lat="44.04294" lon="1.8852">
        <ele>289</ele>
        <time>2020-10-04T12:53:42.729Z</time>
      </trkpt>
      <trkpt lat="44.04294" lon="1.8852">
        <ele>289</ele>
        <time>2020-10-04T12:53:43.729Z</time>
      </trkpt>
      <trkpt lat="44.04294" lon="1.8852">
        <ele>289</ele>
        <time>2020-10-04T12:53:44.729Z</time>
      </trkpt>
      <trkpt lat="44.04294" lon="1.8852">
        <ele>289</ele>
        <time>2020-10-04T12:53:45.729Z</time>
      </trkpt>
      <trkpt lat="44.04292" lon="1.88519">
        <ele>289</ele>
        <time>2020-10-04T12:53:46.729Z</time>
      </trkpt>
      <trkpt lat="44.04292" lon="1.8852">
        <ele>289</ele>
        <time>2020-10-04T12:53:47.729Z</time>
      </trkpt>
      <trkpt lat="44.04291" lon="1.88521">
        <ele>289</ele>
        <time>2020-10-04T12:53:48.729Z</time>
      </trkpt>
      <trkpt lat="44.04289" lon="1.88521">
        <ele>289</ele>
        <time>2020-10-04T12:53:49.729Z</time>
      </trkpt>
      <trkpt lat="44.04288" lon="1.88522">
        <ele>289</ele>
        <time>2020-10-04T12:53:50.729Z</time>
      </trkpt>
      <trkpt lat="44.04287" lon="1.88522">
        <ele>289</ele>
        <time>2020-10-04T12:53:51.729Z</time>
      </trkpt>
      <trkpt lat="44.04286" lon="1.88522">
        <ele>289</ele>
        <time>2020-10-04T12:53:52.729Z</time>
      </trkpt>
      <trkpt lat="44.04284" lon="1.88522">
        <ele>289</ele>
        <time>2020-10-04T12:53:53.729Z</time>
      </trkpt>
      <trkpt lat="44.04283" lon="1.88521">
        <ele>289</ele>
        <time>2020-10-04T12:53:54.729Z</time>
      </trkpt>
      <trkpt lat="44.04281" lon="1.8852">
        <ele>289</ele>
        <time>2020-10-04T12:53:55.729Z</time>
      </trkpt>
      <trkpt lat="44.0428" lon="1.8852">
        <ele>289</ele>
        <time>2020-10-04T12:53:56.729Z</time>
      </trkpt>
      <trkpt lat="44.04279" lon="1.88519">
        <ele>289</ele>
        <time>2020-10-04T12:53:57.729Z</time>
      </trkpt>
      <trkpt lat="44.04278" lon="1.88518">
        <ele>289</ele>
        <time>2020-10-04T12:53:58.729Z</time>
      </trkpt>
      <trkpt lat="44.04276" lon="1.88518">
        <ele>289</ele>
        <time>2020-10-04T12:53:59.729Z</time>
      </trkpt>
      <trkpt lat="44.04275" lon="1.88517">
        <ele>289</ele>
        <time>2020-10-04T12:54:00.729Z</time>
      </trkpt>
      <trkpt lat="44.04274" lon="1.88517">
        <ele>289</ele>
        <time>2020-10-04T12:54:01.729Z</time>
      </trkpt>
      <trkpt lat="44.04273" lon="1.88516">
        <ele>289</ele>
        <time>2020-10-04T12:54:02.729Z</time>
      </trkpt>
      <trkpt lat="44.04271" lon="1.88515">
        <ele>289</ele>
        <time>2020-10-04T12:54:03.729Z</time>
      </trkpt>
      <trkpt lat="44.0427" lon="1.88514">
        <ele>289</ele>
        <time>2020-10-04T12:54:04.729Z</time>
      </trkpt>
      <trkpt lat="44.04269" lon="1.88513">
        <ele>289</ele>
        <time>2020-10-04T12:54:05.729Z</time>
      </trkpt>
      <trkpt lat="44.04268" lon="1.88512">
        <ele>289</ele>
        <time>2020-10-04T12:54:06.729Z</time>
      </trkpt>
      <trkpt lat="44.04266" lon="1.88511">
        <ele>289</ele>
        <time>2020-10-04T12:54:07.729Z</time>
      </trkpt>
      <trkpt lat="44.04265" lon="1.88511">
        <ele>289</ele>
        <time>2020-10-04T12:54:08.729Z</time>
      </trkpt>
      <trkpt lat="44.04264" lon="1.8851">
        <ele>289</ele>
        <time>2020-10-04T12:54:09.729Z</time>
      </trkpt>
      <trkpt lat="44.04263" lon="1.8851">
        <ele>288</ele>
        <time>2020-10-04T12:54:10.729Z</time>
      </trkpt>
      <trkpt lat="44.04262" lon="1.88509">
        <ele>288</ele>
        <time>2020-10-04T12:54:11.729Z</time>
      </trkpt>
      <trkpt lat="44.0426" lon="1.88509">
        <ele>288</ele>
        <time>2020-10-04T12:54:12.729Z</time>
      </trkpt>
      <trkpt lat="44.04259" lon="1.88508">
        <ele>288</ele>
        <time>2020-10-04T12:54:13.729Z</time>
      </trkpt>
      <trkpt lat="44.04258" lon="1.88507">
        <ele>288</ele>
        <time>2020-10-04T12:54:14.729Z</time>
      </trkpt>
      <trkpt lat="44.04257" lon="1.88506">
        <ele>288</ele>
        <time>2020-10-04T12:54:15.729Z</time>
      </trkpt>
      <trkpt lat="44.04255" lon="1.88505">
        <ele>288</ele>
        <time>2020-10-04T12:54:16.729Z</time>
      </trkpt>
      <trkpt lat="44.04254" lon="1.88504">
        <ele>288</ele>
        <time>2020-10-04T12:54:17.729Z</time>
      </trkpt>
      <trkpt lat="44.04253" lon="1.88504">
        <ele>288</ele>
        <time>2020-10-04T12:54:18.729Z</time>
      </trkpt>
      <trkpt lat="44.04252" lon="1.88503">
        <ele>288</ele>
        <time>2020-10-04T12:54:19.729Z</time>
      </trkpt>
      <trkpt lat="44.0425" lon="1.88502">
        <ele>288</ele>
        <time>2020-10-04T12:54:20.729Z</time>
      </trkpt>
      <trkpt lat="44.04249" lon="1.88501">
        <ele>288</ele>
        <time>2020-10-04T12:54:21.729Z</time>
      </trkpt>
      <trkpt lat="44.04248" lon="1.88501">
        <ele>288</ele>
        <time>2020-10-04T12:54:22.729Z</time>
      </trkpt>
      <trkpt lat="44.04247" lon="1.885">
        <ele>288</ele>
        <time>2020-10-04T12:54:23.729Z</time>
      </trkpt>
      <trkpt lat="44.04246" lon="1.88499">
        <ele>288</ele>
        <time>2020-10-04T12:54:24.729Z</time>
      </trkpt>
      <trkpt lat="44.04245" lon="1.88499">
        <ele>288</ele>
        <time>2020-10-04T12:54:25.729Z</time>
      </trkpt>
      <trkpt lat="44.04243" lon="1.88498">
        <ele>288</ele>
        <time>2020-10-04T12:54:26.729Z</time>
      </trkpt>
      <trkpt lat="44.04242" lon="1.88497">
        <ele>288</ele>
        <time>2020-10-04T12:54:27.729Z</time>
      </trkpt>
      <trkpt lat="44.04241" lon="1.88496">
        <ele>288</ele>
        <time>2020-10-04T12:54:28.729Z</time>
      </trkpt>
      <trkpt lat="44.04239" lon="1.88495">
        <ele>288</ele>
        <time>2020-10-04T12:54:29.729Z</time>
      </trkpt>
      <trkpt lat="44.04238" lon="1.88495">
        <ele>288</ele>
        <time>2020-10-04T12:54:30.729Z</time>
      </trkpt>
      <trkpt lat="44.04236" lon="1.88494">
        <ele>288</ele>
        <time>2020-10-04T12:54:31.729Z</time>
      </trkpt>
      <trkpt lat="44.04235" lon="1.88493">
        <ele>288</ele>
        <time>2020-10-04T12:54:32.729Z</time>
      </trkpt>
      <trkpt lat="44.04234" lon="1.88492">
        <ele>288</ele>
        <time>2020-10-04T12:54:33.729Z</time>
      </trkpt>
      <trkpt lat="44.04233" lon="1.88491">
        <ele>288</ele>
        <time>2020-10-04T12:54:34.729Z</time>
      </trkpt>
      <trkpt lat="44.04232" lon="1.88491">
        <ele>288</ele>
        <time>2020-10-04T12:54:35.729Z</time>
      </trkpt>
      <trkpt lat="44.0423" lon="1.8849">
        <ele>288</ele>
        <time>2020-10-04T12:54:36.729Z</time>
      </trkpt>
      <trkpt lat="44.04229" lon="1.88489">
        <ele>288</ele>
        <time>2020-10-04T12:54:37.729Z</time>
      </trkpt>
      <trkpt lat="44.04228" lon="1.88488">
        <ele>288</ele>
        <time>2020-10-04T12:54:38.729Z</time>
      </trkpt>
      <trkpt lat="44.04227" lon="1.88487">
        <ele>288</ele>
        <time>2020-10-04T12:54:39.729Z</time>
      </trkpt>
      <trkpt lat="44.04226" lon="1.88486">
        <ele>288</ele>
        <time>2020-10-04T12:54:40.729Z</time>
      </trkpt>
      <trkpt lat="44.04224" lon="1.88485">
        <ele>288</ele>
        <time>2020-10-04T12:54:41.729Z</time>
      </trkpt>
      <trkpt lat="44.04223" lon="1.88484">
        <ele>287</ele>
        <time>2020-10-04T12:54:42.729Z</time>
      </trkpt>
      <trkpt lat="44.04222" lon="1.88483">
        <ele>287</ele>
        <time>2020-10-04T12:54:43.729Z</time>
      </trkpt>
      <trkpt lat="44.04221" lon="1.88482">
        <ele>287</ele>
        <time>2020-10-04T12:54:44.729Z</time>
      </trkpt>
      <trkpt lat="44.0422" lon="1.88481">
        <ele>287</ele>
        <time>2020-10-04T12:54:45.729Z</time>
      </trkpt>
      <trkpt lat="44.04219" lon="1.8848">
        <ele>287</ele>
        <time>2020-10-04T12:54:46.729Z</time>
      </trkpt>
      <trkpt lat="44.04218" lon="1.8848">
        <ele>287</ele>
        <time>2020-10-04T12:54:47.729Z</time>
      </trkpt>
      <trkpt lat="44.04217" lon="1.88479">
        <ele>287</ele>
        <time>2020-10-04T12:54:48.729Z</time>
      </trkpt>
      <trkpt lat="44.04216" lon="1.88478">
        <ele>287</ele>
        <time>2020-10-04T12:54:49.729Z</time>
      </trkpt>
      <trkpt lat="44.04215" lon="1.88477">
        <ele>286</ele>
        <time>2020-10-04T12:54:50.729Z</time>
      </trkpt>
      <trkpt lat="44.04214" lon="1.88476">
        <ele>286</ele>
        <time>2020-10-04T12:54:51.729Z</time>
      </trkpt>
      <trkpt lat="44.04213" lon="1.88476">
        <ele>286</ele>
        <time>2020-10-04T12:54:52.729Z</time>
      </trkpt>
      <trkpt lat="44.04212" lon="1.88475">
        <ele>286</ele>
        <time>2020-10-04T12:54:53.729Z</time>
      </trkpt>
      <trkpt lat="44.04211" lon="1.88475">
        <ele>286</ele>
        <time>2020-10-04T12:54:54.729Z</time>
      </trkpt>
      <trkpt lat="44.0421" lon="1.88474">
        <ele>286</ele>
        <time>2020-10-04T12:54:55.729Z</time>
      </trkpt>
      <trkpt lat="44.04208" lon="1.88473">
        <ele>286</ele>
        <time>2020-10-04T12:54:56.729Z</time>
      </trkpt>
      <trkpt lat="44.04207" lon="1.88472">
        <ele>285</ele>
        <time>2020-10-04T12:54:57.729Z</time>
      </trkpt>
      <trkpt lat="44.04206" lon="1.88472">
        <ele>285</ele>
        <time>2020-10-04T12:54:58.729Z</time>
      </trkpt>
      <trkpt lat="44.04205" lon="1.88471">
        <ele>285</ele>
        <time>2020-10-04T12:54:59.729Z</time>
      </trkpt>
      <trkpt lat="44.04204" lon="1.8847">
        <ele>285</ele>
        <time>2020-10-04T12:55:00.729Z</time>
      </trkpt>
      <trkpt lat="44.04203" lon="1.88469">
        <ele>285</ele>
        <time>2020-10-04T12:55:01.729Z</time>
      </trkpt>
      <trkpt lat="44.04201" lon="1.88468">
        <ele>285</ele>
        <time>2020-10-04T12:55:02.729Z</time>
      </trkpt>
      <trkpt lat="44.042" lon="1.88468">
        <ele>285</ele>
        <time>2020-10-04T12:55:03.729Z</time>
      </trkpt>
      <trkpt lat="44.04199" lon="1.88467">
        <ele>285</ele>
        <time>2020-10-04T12:55:04.729Z</time>
      </trkpt>
      <trkpt lat="44.04198" lon="1.88466">
        <ele>285</ele>
        <time>2020-10-04T12:55:05.729Z</time>
      </trkpt>
      <trkpt lat="44.04197" lon="1.88465">
        <ele>285</ele>
        <time>2020-10-04T12:55:06.729Z</time>
      </trkpt>
      <trkpt lat="44.04195" lon="1.88464">
        <ele>285</ele>
        <time>2020-10-04T12:55:07.729Z</time>
      </trkpt>
      <trkpt lat="44.04194" lon="1.88463">
        <ele>285</ele>
        <time>2020-10-04T12:55:08.729Z</time>
      </trkpt>
      <trkpt lat="44.04193" lon="1.88462">
        <ele>285</ele>
        <time>2020-10-04T12:55:09.729Z</time>
      </trkpt>
      <trkpt lat="44.04191" lon="1.88462">
        <ele>285</ele>
        <time>2020-10-04T12:55:10.729Z</time>
      </trkpt>
      <trkpt lat="44.0419" lon="1.88461">
        <ele>285</ele>
        <time>2020-10-04T12:55:11.729Z</time>
      </trkpt>
      <trkpt lat="44.04189" lon="1.88461">
        <ele>285</ele>
        <time>2020-10-04T12:55:12.729Z</time>
      </trkpt>
      <trkpt lat="44.04187" lon="1.8846">
        <ele>285</ele>
        <time>2020-10-04T12:55:13.729Z</time>
      </trkpt>
      <trkpt lat="44.04186" lon="1.88459">
        <ele>284</ele>
        <time>2020-10-04T12:55:14.729Z</time>
      </trkpt>
      <trkpt lat="44.04185" lon="1.88458">
        <ele>284</ele>
        <time>2020-10-04T12:55:15.729Z</time>
      </trkpt>
      <trkpt lat="44.04183" lon="1.88457">
        <ele>284</ele>
        <time>2020-10-04T12:55:16.729Z</time>
      </trkpt>
      <trkpt lat="44.04182" lon="1.88457">
        <ele>284</ele>
        <time>2020-10-04T12:55:17.729Z</time>
      </trkpt>
      <trkpt lat="44.04181" lon="1.88456">
        <ele>284</ele>
        <time>2020-10-04T12:55:18.729Z</time>
      </trkpt>
      <trkpt lat="44.0418" lon="1.88455">
        <ele>284</ele>
        <time>2020-10-04T12:55:19.729Z</time>
      </trkpt>
      <trkpt lat="44.04179" lon="1.88455">
        <ele>283</ele>
        <time>2020-10-04T12:55:20.729Z</time>
      </trkpt>
      <trkpt lat="44.04177" lon="1.88454">
        <ele>283</ele>
        <time>2020-10-04T12:55:21.729Z</time>
      </trkpt>
      <trkpt lat="44.04176" lon="1.88454">
        <ele>283</ele>
        <time>2020-10-04T12:55:22.729Z</time>
      </trkpt>
      <trkpt lat="44.04175" lon="1.88453">
        <ele>283</ele>
        <time>2020-10-04T12:55:23.729Z</time>
      </trkpt>
      <trkpt lat="44.04174" lon="1.88452">
        <ele>283</ele>
        <time>2020-10-04T12:55:24.729Z</time>
      </trkpt>
      <trkpt lat="44.04173" lon="1.88451">
        <ele>283</ele>
        <time>2020-10-04T12:55:25.729Z</time>
      </trkpt>
      <trkpt lat="44.04172" lon="1.88451">
        <ele>282</ele>
        <time>2020-10-04T12:55:26.729Z</time>
      </trkpt>
      <trkpt lat="44.04171" lon="1.88451">
        <ele>282</ele>
        <time>2020-10-04T12:55:27.729Z</time>
      </trkpt>
      <trkpt lat="44.0417" lon="1.8845">
        <ele>282</ele>
        <time>2020-10-04T12:55:28.729Z</time>
      </trkpt>
      <trkpt lat="44.04169" lon="1.8845">
        <ele>282</ele>
        <time>2020-10-04T12:55:29.729Z</time>
      </trkpt>
      <trkpt lat="44.04167" lon="1.8845">
        <ele>282</ele>
        <time>2020-10-04T12:55:30.729Z</time>
      </trkpt>
      <trkpt lat="44.04166" lon="1.88449">
        <ele>282</ele>
        <time>2020-10-04T12:55:31.729Z</time>
      </trkpt>
      <trkpt lat="44.04165" lon="1.88449">
        <ele>282</ele>
        <time>2020-10-04T12:55:32.729Z</time>
      </trkpt>
      <trkpt lat="44.04164" lon="1.88448">
        <ele>282</ele>
        <time>2020-10-04T12:55:33.729Z</time>
      </trkpt>
      <trkpt lat="44.04163" lon="1.88448">
        <ele>282</ele>
        <time>2020-10-04T12:55:34.729Z</time>
      </trkpt>
      <trkpt lat="44.04162" lon="1.88447">
        <ele>281</ele>
        <time>2020-10-04T12:55:35.729Z</time>
      </trkpt>
      <trkpt lat="44.0416" lon="1.88446">
        <ele>281</ele>
        <time>2020-10-04T12:55:36.729Z</time>
      </trkpt>
      <trkpt lat="44.04159" lon="1.88445">
        <ele>281</ele>
        <time>2020-10-04T12:55:37.729Z</time>
      </trkpt>
      <trkpt lat="44.04158" lon="1.88445">
        <ele>281</ele>
        <time>2020-10-04T12:55:38.729Z</time>
      </trkpt>
      <trkpt lat="44.04157" lon="1.88444">
        <ele>281</ele>
        <time>2020-10-04T12:55:39.729Z</time>
      </trkpt>
      <trkpt lat="44.04156" lon="1.88444">
        <ele>281</ele>
        <time>2020-10-04T12:55:40.729Z</time>
      </trkpt>
      <trkpt lat="44.04155" lon="1.88444">
        <ele>281</ele>
        <time>2020-10-04T12:55:41.729Z</time>
      </trkpt>
      <trkpt lat="44.04154" lon="1.88444">
        <ele>281</ele>
        <time>2020-10-04T12:55:42.729Z</time>
      </trkpt>
      <trkpt lat="44.04153" lon="1.88443">
        <ele>281</ele>
        <time>2020-10-04T12:55:43.729Z</time>
      </trkpt>
      <trkpt lat="44.04152" lon="1.88443">
        <ele>281</ele>
        <time>2020-10-04T12:55:44.729Z</time>
      </trkpt>
      <trkpt lat="44.0415" lon="1.88443">
        <ele>281</ele>
        <time>2020-10-04T12:55:45.729Z</time>
      </trkpt>
      <trkpt lat="44.04149" lon="1.88443">
        <ele>281</ele>
        <time>2020-10-04T12:55:46.729Z</time>
      </trkpt>
      <trkpt lat="44.04148" lon="1.88442">
        <ele>281</ele>
        <time>2020-10-04T12:55:47.729Z</time>
      </trkpt>
      <trkpt lat="44.04148" lon="1.88442">
        <ele>281</ele>
        <time>2020-10-04T12:55:48.729Z</time>
      </trkpt>
      <trkpt lat="44.04147" lon="1.88442">
        <ele>281</ele>
        <time>2020-10-04T12:55:49.729Z</time>
      </trkpt>
      <trkpt lat="44.04147" lon="1.88442">
        <ele>281</ele>
        <time>2020-10-04T12:55:50.729Z</time>
      </trkpt>
      <trkpt lat="44.04147" lon="1.88442">
        <ele>281</ele>
        <time>2020-10-04T12:55:51.729Z</time>
      </trkpt>
      <trkpt lat="44.04147" lon="1.88442">
        <ele>281</ele>
        <time>2020-10-04T12:55:52.729Z</time>
      </trkpt>
      <trkpt lat="44.04146" lon="1.88442">
        <ele>281</ele>
        <time>2020-10-04T12:55:53.729Z</time>
      </trkpt>
      <trkpt lat="44.04145" lon="1.88442">
        <ele>281</ele>
        <time>2020-10-04T12:55:54.729Z</time>
      </trkpt>
      <trkpt lat="44.04143" lon="1.88441">
        <ele>281</ele>
        <time>2020-10-04T12:55:55.729Z</time>
      </trkpt>
      <trkpt lat="44.04142" lon="1.8844">
        <ele>281</ele>
        <time>2020-10-04T12:55:56.729Z</time>
      </trkpt>
      <trkpt lat="44.04141" lon="1.8844">
        <ele>281</ele>
        <time>2020-10-04T12:55:57.729Z</time>
      </trkpt>
      <trkpt lat="44.0414" lon="1.88439">
        <ele>280</ele>
        <time>2020-10-04T12:55:58.729Z</time>
      </trkpt>
      <trkpt lat="44.04139" lon="1.88439">
        <ele>280</ele>
        <time>2020-10-04T12:55:59.729Z</time>
      </trkpt>
      <trkpt lat="44.04138" lon="1.88439">
        <ele>281</ele>
        <time>2020-10-04T12:56:00.729Z</time>
      </trkpt>
      <trkpt lat="44.04137" lon="1.88439">
        <ele>281</ele>
        <time>2020-10-04T12:56:01.729Z</time>
      </trkpt>
      <trkpt lat="44.04136" lon="1.88438">
        <ele>281</ele>
        <time>2020-10-04T12:56:02.729Z</time>
      </trkpt>
      <trkpt lat="44.04134" lon="1.88438">
        <ele>281</ele>
        <time>2020-10-04T12:56:03.729Z</time>
      </trkpt>
      <trkpt lat="44.04133" lon="1.88437">
        <ele>281</ele>
        <time>2020-10-04T12:56:04.729Z</time>
      </trkpt>
      <trkpt lat="44.04132" lon="1.88437">
        <ele>280</ele>
        <time>2020-10-04T12:56:05.729Z</time>
      </trkpt>
      <trkpt lat="44.04131" lon="1.88436">
        <ele>280</ele>
        <time>2020-10-04T12:56:06.729Z</time>
      </trkpt>
      <trkpt lat="44.0413" lon="1.88435">
        <ele>280</ele>
        <time>2020-10-04T12:56:07.729Z</time>
      </trkpt>
      <trkpt lat="44.04129" lon="1.88435">
        <ele>280</ele>
        <time>2020-10-04T12:56:08.729Z</time>
      </trkpt>
      <trkpt lat="44.04128" lon="1.88434">
        <ele>280</ele>
        <time>2020-10-04T12:56:09.729Z</time>
      </trkpt>
      <trkpt lat="44.04127" lon="1.88433">
        <ele>280</ele>
        <time>2020-10-04T12:56:10.729Z</time>
      </trkpt>
      <trkpt lat="44.04126" lon="1.88432">
        <ele>280</ele>
        <time>2020-10-04T12:56:11.729Z</time>
      </trkpt>
      <trkpt lat="44.04124" lon="1.88431">
        <ele>280</ele>
        <time>2020-10-04T12:56:12.729Z</time>
      </trkpt>
      <trkpt lat="44.04123" lon="1.8843">
        <ele>280</ele>
        <time>2020-10-04T12:56:13.729Z</time>
      </trkpt>
      <trkpt lat="44.04123" lon="1.88429">
        <ele>280</ele>
        <time>2020-10-04T12:56:14.729Z</time>
      </trkpt>
      <trkpt lat="44.04122" lon="1.88427">
        <ele>280</ele>
        <time>2020-10-04T12:56:15.729Z</time>
      </trkpt>
      <trkpt lat="44.04121" lon="1.88426">
        <ele>280</ele>
        <time>2020-10-04T12:56:16.729Z</time>
      </trkpt>
      <trkpt lat="44.0412" lon="1.88425">
        <ele>280</ele>
        <time>2020-10-04T12:56:17.729Z</time>
      </trkpt>
      <trkpt lat="44.04119" lon="1.88423">
        <ele>280</ele>
        <time>2020-10-04T12:56:18.729Z</time>
      </trkpt>
      <trkpt lat="44.04118" lon="1.88422">
        <ele>280</ele>
        <time>2020-10-04T12:56:19.729Z</time>
      </trkpt>
      <trkpt lat="44.04117" lon="1.88421">
        <ele>280</ele>
        <time>2020-10-04T12:56:20.729Z</time>
      </trkpt>
      <trkpt lat="44.04116" lon="1.88419">
        <ele>280</ele>
        <time>2020-10-04T12:56:21.729Z</time>
      </trkpt>
      <trkpt lat="44.04116" lon="1.88417">
        <ele>280</ele>
        <time>2020-10-04T12:56:22.729Z</time>
      </trkpt>
      <trkpt lat="44.04115" lon="1.88416">
        <ele>280</ele>
        <time>2020-10-04T12:56:23.729Z</time>
      </trkpt>
      <trkpt lat="44.04114" lon="1.88414">
        <ele>280</ele>
        <time>2020-10-04T12:56:24.729Z</time>
      </trkpt>
      <trkpt lat="44.04114" lon="1.88413">
        <ele>280</ele>
        <time>2020-10-04T12:56:25.729Z</time>
      </trkpt>
      <trkpt lat="44.04113" lon="1.88411">
        <ele>280</ele>
        <time>2020-10-04T12:56:26.729Z</time>
      </trkpt>
      <trkpt lat="44.04112" lon="1.8841">
        <ele>280</ele>
        <time>2020-10-04T12:56:27.729Z</time>
      </trkpt>
      <trkpt lat="44.04112" lon="1.88408">
        <ele>280</ele>
        <time>2020-10-04T12:56:28.729Z</time>
      </trkpt>
      <trkpt lat="44.04111" lon="1.88406">
        <ele>280</ele>
        <time>2020-10-04T12:56:29.729Z</time>
      </trkpt>
      <trkpt lat="44.04111" lon="1.88405">
        <ele>280</ele>
        <time>2020-10-04T12:56:30.729Z</time>
      </trkpt>
      <trkpt lat="44.0411" lon="1.88404">
        <ele>280</ele>
        <time>2020-10-04T12:56:31.729Z</time>
      </trkpt>
      <trkpt lat="44.0411" lon="1.88402">
        <ele>280</ele>
        <time>2020-10-04T12:56:32.729Z</time>
      </trkpt>
      <trkpt lat="44.0411" lon="1.884">
        <ele>280</ele>
        <time>2020-10-04T12:56:33.729Z</time>
      </trkpt>
      <trkpt lat="44.04109" lon="1.88399">
        <ele>280</ele>
        <time>2020-10-04T12:56:34.729Z</time>
      </trkpt>
      <trkpt lat="44.04109" lon="1.88397">
        <ele>280</ele>
        <time>2020-10-04T12:56:35.729Z</time>
      </trkpt>
      <trkpt lat="44.04109" lon="1.88396">
        <ele>280</ele>
        <time>2020-10-04T12:56:36.729Z</time>
      </trkpt>
      <trkpt lat="44.04108" lon="1.88394">
        <ele>279</ele>
        <time>2020-10-04T12:56:37.729Z</time>
      </trkpt>
      <trkpt lat="44.04108" lon="1.88393">
        <ele>279</ele>
        <time>2020-10-04T12:56:38.729Z</time>
      </trkpt>
      <trkpt lat="44.04108" lon="1.88392">
        <ele>279</ele>
        <time>2020-10-04T12:56:39.729Z</time>
      </trkpt>
      <trkpt lat="44.04108" lon="1.88391">
        <ele>279</ele>
        <time>2020-10-04T12:56:40.729Z</time>
      </trkpt>
      <trkpt lat="44.04107" lon="1.88389">
        <ele>279</ele>
        <time>2020-10-04T12:56:41.729Z</time>
      </trkpt>
      <trkpt lat="44.04107" lon="1.88388">
        <ele>279</ele>
        <time>2020-10-04T12:56:42.729Z</time>
      </trkpt>
      <trkpt lat="44.04107" lon="1.88387">
        <ele>279</ele>
        <time>2020-10-04T12:56:43.729Z</time>
      </trkpt>
      <trkpt lat="44.04107" lon="1.88386">
        <ele>279</ele>
        <time>2020-10-04T12:56:44.729Z</time>
      </trkpt>
      <trkpt lat="44.04106" lon="1.88385">
        <ele>279</ele>
        <time>2020-10-04T12:56:45.729Z</time>
      </trkpt>
      <trkpt lat="44.04106" lon="1.88384">
        <ele>279</ele>
        <time>2020-10-04T12:56:46.729Z</time>
      </trkpt>
      <trkpt lat="44.04106" lon="1.88383">
        <ele>279</ele>
        <time>2020-10-04T12:56:47.729Z</time>
      </trkpt>
      <trkpt lat="44.04105" lon="1.88382">
        <ele>279</ele>
        <time>2020-10-04T12:56:48.729Z</time>
      </trkpt>
      <trkpt lat="44.04104" lon="1.88381">
        <ele>279</ele>
        <time>2020-10-04T12:56:49.729Z</time>
      </trkpt>
      <trkpt lat="44.04104" lon="1.88379">
        <ele>279</ele>
        <time>2020-10-04T12:56:50.729Z</time>
      </trkpt>
      <trkpt lat="44.04104" lon="1.88379">
        <ele>279</ele>
        <time>2020-10-04T12:56:51.729Z</time>
      </trkpt>
      <trkpt lat="44.04103" lon="1.88377">
        <ele>279</ele>
        <time>2020-10-04T12:56:52.729Z</time>
      </trkpt>
      <trkpt lat="44.04104" lon="1.88376">
        <ele>279</ele>
        <time>2020-10-04T12:56:53.729Z</time>
      </trkpt>
      <trkpt lat="44.04104" lon="1.88376">
        <ele>279</ele>
        <time>2020-10-04T12:56:54.729Z</time>
      </trkpt>
      <trkpt lat="44.04103" lon="1.88376">
        <ele>279</ele>
        <time>2020-10-04T12:56:55.729Z</time>
      </trkpt>
      <trkpt lat="44.04103" lon="1.88376">
        <ele>279</ele>
        <time>2020-10-04T12:56:56.729Z</time>
      </trkpt>
      <trkpt lat="44.04103" lon="1.88376">
        <ele>279</ele>
        <time>2020-10-04T12:56:57.729Z</time>
      </trkpt>
      <trkpt lat="44.04103" lon="1.88375">
        <ele>278</ele>
        <time>2020-10-04T12:56:58.729Z</time>
      </trkpt>
      <trkpt lat="44.04103" lon="1.88373">
        <ele>278</ele>
        <time>2020-10-04T12:56:59.729Z</time>
      </trkpt>
      <trkpt lat="44.04104" lon="1.88372">
        <ele>278</ele>
        <time>2020-10-04T12:57:00.729Z</time>
      </trkpt>
      <trkpt lat="44.04104" lon="1.8837">
        <ele>278</ele>
        <time>2020-10-04T12:57:01.729Z</time>
      </trkpt>
      <trkpt lat="44.04104" lon="1.88368">
        <ele>278</ele>
        <time>2020-10-04T12:57:02.729Z</time>
      </trkpt>
      <trkpt lat="44.04103" lon="1.88367">
        <ele>278</ele>
        <time>2020-10-04T12:57:03.729Z</time>
      </trkpt>
      <trkpt lat="44.04103" lon="1.88366">
        <ele>278</ele>
        <time>2020-10-04T12:57:04.729Z</time>
      </trkpt>
      <trkpt lat="44.04103" lon="1.88365">
        <ele>278</ele>
        <time>2020-10-04T12:57:05.729Z</time>
      </trkpt>
      <trkpt lat="44.04103" lon="1.88364">
        <ele>278</ele>
        <time>2020-10-04T12:57:06.729Z</time>
      </trkpt>
      <trkpt lat="44.04102" lon="1.88362">
        <ele>278</ele>
        <time>2020-10-04T12:57:07.729Z</time>
      </trkpt>
      <trkpt lat="44.04102" lon="1.8836">
        <ele>278</ele>
        <time>2020-10-04T12:57:08.729Z</time>
      </trkpt>
      <trkpt lat="44.04102" lon="1.88359">
        <ele>278</ele>
        <time>2020-10-04T12:57:09.729Z</time>
      </trkpt>
      <trkpt lat="44.04102" lon="1.88357">
        <ele>278</ele>
        <time>2020-10-04T12:57:10.729Z</time>
      </trkpt>
      <trkpt lat="44.04101" lon="1.88356">
        <ele>278</ele>
        <time>2020-10-04T12:57:11.729Z</time>
      </trkpt>
      <trkpt lat="44.04101" lon="1.88354">
        <ele>278</ele>
        <time>2020-10-04T12:57:12.729Z</time>
      </trkpt>
      <trkpt lat="44.04101" lon="1.88353">
        <ele>278</ele>
        <time>2020-10-04T12:57:13.729Z</time>
      </trkpt>
      <trkpt lat="44.041" lon="1.88351">
        <ele>278</ele>
        <time>2020-10-04T12:57:14.729Z</time>
      </trkpt>
      <trkpt lat="44.041" lon="1.8835">
        <ele>278</ele>
        <time>2020-10-04T12:57:15.729Z</time>
      </trkpt>
      <trkpt lat="44.04099" lon="1.88348">
        <ele>278</ele>
        <time>2020-10-04T12:57:16.729Z</time>
      </trkpt>
      <trkpt lat="44.04099" lon="1.88347">
        <ele>278</ele>
        <time>2020-10-04T12:57:17.729Z</time>
      </trkpt>
      <trkpt lat="44.04099" lon="1.88346">
        <ele>278</ele>
        <time>2020-10-04T12:57:18.729Z</time>
      </trkpt>
      <trkpt lat="44.04098" lon="1.88344">
        <ele>278</ele>
        <time>2020-10-04T12:57:19.729Z</time>
      </trkpt>
      <trkpt lat="44.04098" lon="1.88343">
        <ele>278</ele>
        <time>2020-10-04T12:57:20.729Z</time>
      </trkpt>
      <trkpt lat="44.04097" lon="1.88342">
        <ele>278</ele>
        <time>2020-10-04T12:57:21.729Z</time>
      </trkpt>
      <trkpt lat="44.04097" lon="1.88341">
        <ele>278</ele>
        <time>2020-10-04T12:57:22.729Z</time>
      </trkpt>
      <trkpt lat="44.04096" lon="1.8834">
        <ele>279</ele>
        <time>2020-10-04T12:57:23.729Z</time>
      </trkpt>
      <trkpt lat="44.04096" lon="1.88339">
        <ele>279</ele>
        <time>2020-10-04T12:57:24.729Z</time>
      </trkpt>
      <trkpt lat="44.04096" lon="1.88339">
        <ele>279</ele>
        <time>2020-10-04T12:57:25.729Z</time>
      </trkpt>
      <trkpt lat="44.04096" lon="1.88339">
        <ele>279</ele>
        <time>2020-10-04T12:57:26.729Z</time>
      </trkpt>
      <trkpt lat="44.04096" lon="1.88339">
        <ele>279</ele>
        <time>2020-10-04T12:57:27.729Z</time>
      </trkpt>
      <trkpt lat="44.04096" lon="1.88339">
        <ele>279</ele>
        <time>2020-10-04T12:57:28.729Z</time>
      </trkpt>
      <trkpt lat="44.04095" lon="1.88338">
        <ele>278</ele>
        <time>2020-10-04T12:57:29.729Z</time>
      </trkpt>
      <trkpt lat="44.04094" lon="1.88338">
        <ele>278</ele>
        <time>2020-10-04T12:57:30.729Z</time>
      </trkpt>
      <trkpt lat="44.04093" lon="1.88339">
        <ele>278</ele>
        <time>2020-10-04T12:57:31.729Z</time>
      </trkpt>
      <trkpt lat="44.04092" lon="1.88339">
        <ele>278</ele>
        <time>2020-10-04T12:57:32.729Z</time>
      </trkpt>
      <trkpt lat="44.04092" lon="1.88339">
        <ele>278</ele>
        <time>2020-10-04T12:57:33.729Z</time>
      </trkpt>
      <trkpt lat="44.04091" lon="1.8834">
        <ele>278</ele>
        <time>2020-10-04T12:57:34.729Z</time>
      </trkpt>
      <trkpt lat="44.0409" lon="1.8834">
        <ele>278</ele>
        <time>2020-10-04T12:57:35.729Z</time>
      </trkpt>
      <trkpt lat="44.04088" lon="1.88341">
        <ele>278</ele>
        <time>2020-10-04T12:57:36.729Z</time>
      </trkpt>
      <trkpt lat="44.04087" lon="1.88341">
        <ele>278</ele>
        <time>2020-10-04T12:57:37.729Z</time>
      </trkpt>
      <trkpt lat="44.04086" lon="1.88341">
        <ele>278</ele>
        <time>2020-10-04T12:57:38.729Z</time>
      </trkpt>
      <trkpt lat="44.04085" lon="1.88341">
        <ele>278</ele>
        <time>2020-10-04T12:57:39.729Z</time>
      </trkpt>
      <trkpt lat="44.04084" lon="1.88341">
        <ele>278</ele>
        <time>2020-10-04T12:57:40.729Z</time>
      </trkpt>
      <trkpt lat="44.04083" lon="1.88341">
        <ele>278</ele>
        <time>2020-10-04T12:57:41.729Z</time>
      </trkpt>
      <trkpt lat="44.04082" lon="1.88341">
        <ele>278</ele>
        <time>2020-10-04T12:57:42.729Z</time>
      </trkpt>
      <trkpt lat="44.04081" lon="1.88341">
        <ele>278</ele>
        <time>2020-10-04T12:57:43.729Z</time>
      </trkpt>
      <trkpt lat="44.0408" lon="1.88341">
        <ele>278</ele>
        <time>2020-10-04T12:57:44.729Z</time>
      </trkpt>
      <trkpt lat="44.04079" lon="1.8834">
        <ele>278</ele>
        <time>2020-10-04T12:57:45.729Z</time>
      </trkpt>
      <trkpt lat="44.04078" lon="1.8834">
        <ele>278</ele>
        <time>2020-10-04T12:57:46.729Z</time>
      </trkpt>
      <trkpt lat="44.04078" lon="1.8834">
        <ele>278</ele>
        <time>2020-10-04T12:57:47.729Z</time>
      </trkpt>
      <trkpt lat="44.04078" lon="1.8834">
        <ele>278</ele>
        <time>2020-10-04T12:57:48.729Z</time>
      </trkpt>
      <trkpt lat="44.04078" lon="1.8834">
        <ele>278</ele>
        <time>2020-10-04T12:57:49.729Z</time>
      </trkpt>
      <trkpt lat="44.04078" lon="1.8834">
        <ele>278</ele>
        <time>2020-10-04T12:57:50.729Z</time>
      </trkpt>
      <trkpt lat="44.04076" lon="1.88339">
        <ele>276</ele>
        <time>2020-10-04T12:57:51.729Z</time>
      </trkpt>
      <trkpt lat="44.04076" lon="1.88339">
        <ele>276</ele>
        <time>2020-10-04T12:57:52.729Z</time>
      </trkpt>
      <trkpt lat="44.04075" lon="1.88339">
        <ele>276</ele>
        <time>2020-10-04T12:57:53.729Z</time>
      </trkpt>
      <trkpt lat="44.04073" lon="1.88339">
        <ele>276</ele>
        <time>2020-10-04T12:57:54.729Z</time>
      </trkpt>
      <trkpt lat="44.04072" lon="1.88339">
        <ele>276</ele>
        <time>2020-10-04T12:57:55.729Z</time>
      </trkpt>
      <trkpt lat="44.04071" lon="1.88339">
        <ele>276</ele>
        <time>2020-10-04T12:57:56.729Z</time>
      </trkpt>
      <trkpt lat="44.0407" lon="1.88339">
        <ele>276</ele>
        <time>2020-10-04T12:57:57.729Z</time>
      </trkpt>
      <trkpt lat="44.04069" lon="1.88338">
        <ele>276</ele>
        <time>2020-10-04T12:57:58.729Z</time>
      </trkpt>
      <trkpt lat="44.04069" lon="1.88338">
        <ele>276</ele>
        <time>2020-10-04T12:57:59.729Z</time>
      </trkpt>
      <trkpt lat="44.04068" lon="1.88338">
        <ele>276</ele>
        <time>2020-10-04T12:58:00.729Z</time>
      </trkpt>
      <trkpt lat="44.04067" lon="1.88338">
        <ele>276</ele>
        <time>2020-10-04T12:58:01.729Z</time>
      </trkpt>
      <trkpt lat="44.04066" lon="1.88337">
        <ele>276</ele>
        <time>2020-10-04T12:58:02.729Z</time>
      </trkpt>
      <trkpt lat="44.04065" lon="1.88337">
        <ele>276</ele>
        <time>2020-10-04T12:58:03.729Z</time>
      </trkpt>
      <trkpt lat="44.04064" lon="1.88337">
        <ele>276</ele>
        <time>2020-10-04T12:58:04.729Z</time>
      </trkpt>
      <trkpt lat="44.04063" lon="1.88337">
        <ele>276</ele>
        <time>2020-10-04T12:58:05.729Z</time>
      </trkpt>
      <trkpt lat="44.04062" lon="1.88337">
        <ele>276</ele>
        <time>2020-10-04T12:58:06.729Z</time>
      </trkpt>
      <trkpt lat="44.04061" lon="1.88336">
        <ele>276</ele>
        <time>2020-10-04T12:58:07.729Z</time>
      </trkpt>
      <trkpt lat="44.0406" lon="1.88336">
        <ele>276</ele>
        <time>2020-10-04T12:58:08.729Z</time>
      </trkpt>
      <trkpt lat="44.04059" lon="1.88336">
        <ele>276</ele>
        <time>2020-10-04T12:58:09.729Z</time>
      </trkpt>
      <trkpt lat="44.04058" lon="1.88335">
        <ele>276</ele>
        <time>2020-10-04T12:58:10.729Z</time>
      </trkpt>
      <trkpt lat="44.04058" lon="1.88335">
        <ele>276</ele>
        <time>2020-10-04T12:58:11.729Z</time>
      </trkpt>
      <trkpt lat="44.04057" lon="1.88335">
        <ele>276</ele>
        <time>2020-10-04T12:58:12.729Z</time>
      </trkpt>
      <trkpt lat="44.04055" lon="1.88334">
        <ele>276</ele>
        <time>2020-10-04T12:58:13.729Z</time>
      </trkpt>
      <trkpt lat="44.04054" lon="1.88333">
        <ele>276</ele>
        <time>2020-10-04T12:58:14.729Z</time>
      </trkpt>
      <trkpt lat="44.04053" lon="1.88333">
        <ele>276</ele>
        <time>2020-10-04T12:58:15.729Z</time>
      </trkpt>
      <trkpt lat="44.04053" lon="1.88332">
        <ele>276</ele>
        <time>2020-10-04T12:58:16.729Z</time>
      </trkpt>
      <trkpt lat="44.04052" lon="1.88332">
        <ele>276</ele>
        <time>2020-10-04T12:58:17.729Z</time>
      </trkpt>
      <trkpt lat="44.04051" lon="1.88331">
        <ele>276</ele>
        <time>2020-10-04T12:58:18.729Z</time>
      </trkpt>
      <trkpt lat="44.0405" lon="1.8833">
        <ele>276</ele>
        <time>2020-10-04T12:58:19.729Z</time>
      </trkpt>
      <trkpt lat="44.0405" lon="1.88329">
        <ele>276</ele>
        <time>2020-10-04T12:58:20.729Z</time>
      </trkpt>
      <trkpt lat="44.04049" lon="1.88328">
        <ele>276</ele>
        <time>2020-10-04T12:58:21.729Z</time>
      </trkpt>
      <trkpt lat="44.04048" lon="1.88327">
        <ele>276</ele>
        <time>2020-10-04T12:58:22.729Z</time>
      </trkpt>
      <trkpt lat="44.04048" lon="1.88326">
        <ele>276</ele>
        <time>2020-10-04T12:58:23.729Z</time>
      </trkpt>
      <trkpt lat="44.04047" lon="1.88325">
        <ele>276</ele>
        <time>2020-10-04T12:58:24.729Z</time>
      </trkpt>
      <trkpt lat="44.04046" lon="1.88324">
        <ele>276</ele>
        <time>2020-10-04T12:58:25.729Z</time>
      </trkpt>
      <trkpt lat="44.04046" lon="1.88323">
        <ele>276</ele>
        <time>2020-10-04T12:58:26.729Z</time>
      </trkpt>
      <trkpt lat="44.04045" lon="1.88322">
        <ele>276</ele>
        <time>2020-10-04T12:58:27.729Z</time>
      </trkpt>
      <trkpt lat="44.04045" lon="1.88321">
        <ele>276</ele>
        <time>2020-10-04T12:58:28.729Z</time>
      </trkpt>
      <trkpt lat="44.04044" lon="1.8832">
        <ele>276</ele>
        <time>2020-10-04T12:58:29.729Z</time>
      </trkpt>
      <trkpt lat="44.04043" lon="1.88319">
        <ele>276</ele>
        <time>2020-10-04T12:58:30.729Z</time>
      </trkpt>
      <trkpt lat="44.04043" lon="1.88318">
        <ele>276</ele>
        <time>2020-10-04T12:58:31.729Z</time>
      </trkpt>
      <trkpt lat="44.04042" lon="1.88316">
        <ele>276</ele>
        <time>2020-10-04T12:58:32.729Z</time>
      </trkpt>
      <trkpt lat="44.04042" lon="1.88315">
        <ele>276</ele>
        <time>2020-10-04T12:58:33.729Z</time>
      </trkpt>
      <trkpt lat="44.04041" lon="1.88314">
        <ele>276</ele>
        <time>2020-10-04T12:58:34.729Z</time>
      </trkpt>
      <trkpt lat="44.0404" lon="1.88313">
        <ele>276</ele>
        <time>2020-10-04T12:58:35.729Z</time>
      </trkpt>
      <trkpt lat="44.0404" lon="1.88312">
        <ele>276</ele>
        <time>2020-10-04T12:58:36.729Z</time>
      </trkpt>
      <trkpt lat="44.04039" lon="1.88311">
        <ele>276</ele>
        <time>2020-10-04T12:58:37.729Z</time>
      </trkpt>
      <trkpt lat="44.04039" lon="1.88309">
        <ele>276</ele>
        <time>2020-10-04T12:58:38.729Z</time>
      </trkpt>
      <trkpt lat="44.04038" lon="1.88308">
        <ele>276</ele>
        <time>2020-10-04T12:58:39.729Z</time>
      </trkpt>
      <trkpt lat="44.04038" lon="1.88307">
        <ele>276</ele>
        <time>2020-10-04T12:58:40.729Z</time>
      </trkpt>
      <trkpt lat="44.04037" lon="1.88306">
        <ele>276</ele>
        <time>2020-10-04T12:58:41.729Z</time>
      </trkpt>
      <trkpt lat="44.04037" lon="1.88305">
        <ele>276</ele>
        <time>2020-10-04T12:58:42.729Z</time>
      </trkpt>
      <trkpt lat="44.04036" lon="1.88303">
        <ele>276</ele>
        <time>2020-10-04T12:58:43.729Z</time>
      </trkpt>
      <trkpt lat="44.04035" lon="1.88302">
        <ele>276</ele>
        <time>2020-10-04T12:58:44.729Z</time>
      </trkpt>
      <trkpt lat="44.04035" lon="1.88301">
        <ele>276</ele>
        <time>2020-10-04T12:58:45.729Z</time>
      </trkpt>
      <trkpt lat="44.04034" lon="1.883">
        <ele>276</ele>
        <time>2020-10-04T12:58:46.729Z</time>
      </trkpt>
      <trkpt lat="44.04033" lon="1.88299">
        <ele>276</ele>
        <time>2020-10-04T12:58:47.729Z</time>
      </trkpt>
      <trkpt lat="44.04033" lon="1.88298">
        <ele>276</ele>
        <time>2020-10-04T12:58:48.729Z</time>
      </trkpt>
      <trkpt lat="44.04032" lon="1.88297">
        <ele>276</ele>
        <time>2020-10-04T12:58:49.729Z</time>
      </trkpt>
      <trkpt lat="44.04031" lon="1.88297">
        <ele>276</ele>
        <time>2020-10-04T12:58:50.729Z</time>
      </trkpt>
      <trkpt lat="44.04031" lon="1.88295">
        <ele>276</ele>
        <time>2020-10-04T12:58:51.729Z</time>
      </trkpt>
      <trkpt lat="44.0403" lon="1.88294">
        <ele>276</ele>
        <time>2020-10-04T12:58:52.729Z</time>
      </trkpt>
      <trkpt lat="44.0403" lon="1.88293">
        <ele>276</ele>
        <time>2020-10-04T12:58:53.729Z</time>
      </trkpt>
      <trkpt lat="44.04029" lon="1.88292">
        <ele>276</ele>
        <time>2020-10-04T12:58:54.729Z</time>
      </trkpt>
      <trkpt lat="44.04028" lon="1.88291">
        <ele>276</ele>
        <time>2020-10-04T12:58:55.729Z</time>
      </trkpt>
      <trkpt lat="44.04028" lon="1.8829">
        <ele>276</ele>
        <time>2020-10-04T12:58:56.729Z</time>
      </trkpt>
      <trkpt lat="44.04027" lon="1.88289">
        <ele>276</ele>
        <time>2020-10-04T12:58:57.729Z</time>
      </trkpt>
      <trkpt lat="44.04027" lon="1.88288">
        <ele>276</ele>
        <time>2020-10-04T12:58:58.729Z</time>
      </trkpt>
      <trkpt lat="44.04026" lon="1.88287">
        <ele>276</ele>
        <time>2020-10-04T12:58:59.729Z</time>
      </trkpt>
      <trkpt lat="44.04026" lon="1.88286">
        <ele>276</ele>
        <time>2020-10-04T12:59:00.729Z</time>
      </trkpt>
      <trkpt lat="44.04025" lon="1.88285">
        <ele>276</ele>
        <time>2020-10-04T12:59:01.729Z</time>
      </trkpt>
      <trkpt lat="44.04025" lon="1.88284">
        <ele>276</ele>
        <time>2020-10-04T12:59:02.729Z</time>
      </trkpt>
      <trkpt lat="44.04024" lon="1.88283">
        <ele>276</ele>
        <time>2020-10-04T12:59:03.729Z</time>
      </trkpt>
      <trkpt lat="44.04024" lon="1.88282">
        <ele>275</ele>
        <time>2020-10-04T12:59:04.729Z</time>
      </trkpt>
      <trkpt lat="44.04023" lon="1.8828">
        <ele>276</ele>
        <time>2020-10-04T12:59:05.729Z</time>
      </trkpt>
      <trkpt lat="44.04023" lon="1.88279">
        <ele>276</ele>
        <time>2020-10-04T12:59:06.729Z</time>
      </trkpt>
      <trkpt lat="44.04022" lon="1.88278">
        <ele>276</ele>
        <time>2020-10-04T12:59:07.729Z</time>
      </trkpt>
      <trkpt lat="44.04022" lon="1.88277">
        <ele>276</ele>
        <time>2020-10-04T12:59:08.729Z</time>
      </trkpt>
      <trkpt lat="44.04021" lon="1.88276">
        <ele>276</ele>
        <time>2020-10-04T12:59:09.729Z</time>
      </trkpt>
      <trkpt lat="44.04021" lon="1.88275">
        <ele>276</ele>
        <time>2020-10-04T12:59:10.729Z</time>
      </trkpt>
      <trkpt lat="44.0402" lon="1.88274">
        <ele>275</ele>
        <time>2020-10-04T12:59:11.729Z</time>
      </trkpt>
      <trkpt lat="44.04019" lon="1.88273">
        <ele>275</ele>
        <time>2020-10-04T12:59:12.729Z</time>
      </trkpt>
      <trkpt lat="44.04019" lon="1.88272">
        <ele>275</ele>
        <time>2020-10-04T12:59:13.729Z</time>
      </trkpt>
      <trkpt lat="44.04018" lon="1.88271">
        <ele>275</ele>
        <time>2020-10-04T12:59:14.729Z</time>
      </trkpt>
      <trkpt lat="44.04018" lon="1.8827">
        <ele>275</ele>
        <time>2020-10-04T12:59:15.729Z</time>
      </trkpt>
      <trkpt lat="44.04017" lon="1.88269">
        <ele>275</ele>
        <time>2020-10-04T12:59:16.729Z</time>
      </trkpt>
      <trkpt lat="44.04016" lon="1.88268">
        <ele>275</ele>
        <time>2020-10-04T12:59:17.729Z</time>
      </trkpt>
      <trkpt lat="44.04016" lon="1.88267">
        <ele>275</ele>
        <time>2020-10-04T12:59:18.729Z</time>
      </trkpt>
      <trkpt lat="44.04015" lon="1.88266">
        <ele>275</ele>
        <time>2020-10-04T12:59:19.729Z</time>
      </trkpt>
      <trkpt lat="44.04015" lon="1.88265">
        <ele>275</ele>
        <time>2020-10-04T12:59:20.729Z</time>
      </trkpt>
      <trkpt lat="44.04014" lon="1.88264">
        <ele>275</ele>
        <time>2020-10-04T12:59:21.729Z</time>
      </trkpt>
      <trkpt lat="44.04014" lon="1.88263">
        <ele>275</ele>
        <time>2020-10-04T12:59:22.729Z</time>
      </trkpt>
      <trkpt lat="44.04013" lon="1.88262">
        <ele>275</ele>
        <time>2020-10-04T12:59:23.729Z</time>
      </trkpt>
      <trkpt lat="44.04012" lon="1.88261">
        <ele>275</ele>
        <time>2020-10-04T12:59:24.729Z</time>
      </trkpt>
      <trkpt lat="44.04012" lon="1.8826">
        <ele>275</ele>
        <time>2020-10-04T12:59:25.729Z</time>
      </trkpt>
      <trkpt lat="44.04011" lon="1.88259">
        <ele>275</ele>
        <time>2020-10-04T12:59:26.729Z</time>
      </trkpt>
      <trkpt lat="44.04011" lon="1.88258">
        <ele>275</ele>
        <time>2020-10-04T12:59:27.729Z</time>
      </trkpt>
      <trkpt lat="44.0401" lon="1.88257">
        <ele>275</ele>
        <time>2020-10-04T12:59:28.729Z</time>
      </trkpt>
      <trkpt lat="44.04009" lon="1.88256">
        <ele>275</ele>
        <time>2020-10-04T12:59:29.729Z</time>
      </trkpt>
      <trkpt lat="44.04009" lon="1.88255">
        <ele>275</ele>
        <time>2020-10-04T12:59:30.729Z</time>
      </trkpt>
      <trkpt lat="44.04008" lon="1.88254">
        <ele>275</ele>
        <time>2020-10-04T12:59:31.729Z</time>
      </trkpt>
      <trkpt lat="44.04007" lon="1.88253">
        <ele>275</ele>
        <time>2020-10-04T12:59:32.729Z</time>
      </trkpt>
      <trkpt lat="44.04007" lon="1.88252">
        <ele>275</ele>
        <time>2020-10-04T12:59:33.729Z</time>
      </trkpt>
      <trkpt lat="44.04006" lon="1.88251">
        <ele>275</ele>
        <time>2020-10-04T12:59:34.729Z</time>
      </trkpt>
      <trkpt lat="44.04006" lon="1.8825">
        <ele>275</ele>
        <time>2020-10-04T12:59:35.729Z</time>
      </trkpt>
      <trkpt lat="44.04005" lon="1.88249">
        <ele>275</ele>
        <time>2020-10-04T12:59:36.729Z</time>
      </trkpt>
      <trkpt lat="44.04004" lon="1.88248">
        <ele>275</ele>
        <time>2020-10-04T12:59:37.729Z</time>
      </trkpt>
      <trkpt lat="44.04004" lon="1.88247">
        <ele>275</ele>
        <time>2020-10-04T12:59:38.729Z</time>
      </trkpt>
      <trkpt lat="44.04003" lon="1.88247">
        <ele>275</ele>
        <time>2020-10-04T12:59:39.729Z</time>
      </trkpt>
      <trkpt lat="44.04002" lon="1.88246">
        <ele>275</ele>
        <time>2020-10-04T12:59:40.729Z</time>
      </trkpt>
      <trkpt lat="44.04002" lon="1.88245">
        <ele>275</ele>
        <time>2020-10-04T12:59:41.729Z</time>
      </trkpt>
      <trkpt lat="44.04001" lon="1.88244">
        <ele>275</ele>
        <time>2020-10-04T12:59:42.729Z</time>
      </trkpt>
      <trkpt lat="44.04" lon="1.88242">
        <ele>275</ele>
        <time>2020-10-04T12:59:43.729Z</time>
      </trkpt>
      <trkpt lat="44.04" lon="1.88242">
        <ele>275</ele>
        <time>2020-10-04T12:59:44.729Z</time>
      </trkpt>
      <trkpt lat="44.03999" lon="1.88241">
        <ele>275</ele>
        <time>2020-10-04T12:59:45.729Z</time>
      </trkpt>
      <trkpt lat="44.03999" lon="1.88239">
        <ele>275</ele>
        <time>2020-10-04T12:59:46.729Z</time>
      </trkpt>
      <trkpt lat="44.03998" lon="1.88238">
        <ele>275</ele>
        <time>2020-10-04T12:59:47.729Z</time>
      </trkpt>
      <trkpt lat="44.03997" lon="1.88237">
        <ele>275</ele>
        <time>2020-10-04T12:59:48.729Z</time>
      </trkpt>
      <trkpt lat="44.03997" lon="1.88236">
        <ele>275</ele>
        <time>2020-10-04T12:59:49.729Z</time>
      </trkpt>
      <trkpt lat="44.03996" lon="1.88235">
        <ele>275</ele>
        <time>2020-10-04T12:59:50.729Z</time>
      </trkpt>
      <trkpt lat="44.03996" lon="1.88234">
        <ele>275</ele>
        <time>2020-10-04T12:59:51.729Z</time>
      </trkpt>
      <trkpt lat="44.03995" lon="1.88233">
        <ele>275</ele>
        <time>2020-10-04T12:59:52.729Z</time>
      </trkpt>
      <trkpt lat="44.03995" lon="1.88232">
        <ele>275</ele>
        <time>2020-10-04T12:59:53.729Z</time>
      </trkpt>
      <trkpt lat="44.03994" lon="1.8823">
        <ele>275</ele>
        <time>2020-10-04T12:59:54.729Z</time>
      </trkpt>
      <trkpt lat="44.03994" lon="1.88229">
        <ele>275</ele>
        <time>2020-10-04T12:59:55.729Z</time>
      </trkpt>
      <trkpt lat="44.03993" lon="1.88228">
        <ele>275</ele>
        <time>2020-10-04T12:59:56.729Z</time>
      </trkpt>
      <trkpt lat="44.03993" lon="1.88228">
        <ele>275</ele>
        <time>2020-10-04T12:59:57.729Z</time>
      </trkpt>
      <trkpt lat="44.03992" lon="1.88227">
        <ele>275</ele>
        <time>2020-10-04T12:59:58.729Z</time>
      </trkpt>
      <trkpt lat="44.03992" lon="1.88226">
        <ele>275</ele>
        <time>2020-10-04T12:59:59.729Z</time>
      </trkpt>
      <trkpt lat="44.03991" lon="1.88225">
        <ele>275</ele>
        <time>2020-10-04T13:00:00.729Z</time>
      </trkpt>
      <trkpt lat="44.03991" lon="1.88224">
        <ele>275</ele>
        <time>2020-10-04T13:00:01.729Z</time>
      </trkpt>
      <trkpt lat="44.0399" lon="1.88223">
        <ele>276</ele>
        <time>2020-10-04T13:00:02.729Z</time>
      </trkpt>
      <trkpt lat="44.03989" lon="1.88222">
        <ele>276</ele>
        <time>2020-10-04T13:00:03.729Z</time>
      </trkpt>
      <trkpt lat="44.03989" lon="1.88221">
        <ele>276</ele>
        <time>2020-10-04T13:00:04.729Z</time>
      </trkpt>
      <trkpt lat="44.03988" lon="1.8822">
        <ele>276</ele>
        <time>2020-10-04T13:00:05.729Z</time>
      </trkpt>
      <trkpt lat="44.03988" lon="1.88219">
        <ele>276</ele>
        <time>2020-10-04T13:00:06.729Z</time>
      </trkpt>
      <trkpt lat="44.03987" lon="1.88218">
        <ele>276</ele>
        <time>2020-10-04T13:00:07.729Z</time>
      </trkpt>
      <trkpt lat="44.03987" lon="1.88217">
        <ele>276</ele>
        <time>2020-10-04T13:00:08.729Z</time>
      </trkpt>
      <trkpt lat="44.03986" lon="1.88216">
        <ele>276</ele>
        <time>2020-10-04T13:00:09.729Z</time>
      </trkpt>
      <trkpt lat="44.03985" lon="1.88216">
        <ele>276</ele>
        <time>2020-10-04T13:00:10.729Z</time>
      </trkpt>
      <trkpt lat="44.03985" lon="1.88215">
        <ele>276</ele>
        <time>2020-10-04T13:00:11.729Z</time>
      </trkpt>
      <trkpt lat="44.03984" lon="1.88214">
        <ele>276</ele>
        <time>2020-10-04T13:00:12.729Z</time>
      </trkpt>
      <trkpt lat="44.03983" lon="1.88213">
        <ele>276</ele>
        <time>2020-10-04T13:00:13.729Z</time>
      </trkpt>
      <trkpt lat="44.03982" lon="1.88213">
        <ele>276</ele>
        <time>2020-10-04T13:00:14.729Z</time>
      </trkpt>
      <trkpt lat="44.03982" lon="1.88212">
        <ele>276</ele>
        <time>2020-10-04T13:00:15.729Z</time>
      </trkpt>
      <trkpt lat="44.03981" lon="1.88211">
        <ele>276</ele>
        <time>2020-10-04T13:00:16.729Z</time>
      </trkpt>
      <trkpt lat="44.0398" lon="1.8821">
        <ele>276</ele>
        <time>2020-10-04T13:00:17.729Z</time>
      </trkpt>
      <trkpt lat="44.0398" lon="1.88209">
        <ele>276</ele>
        <time>2020-10-04T13:00:18.729Z</time>
      </trkpt>
      <trkpt lat="44.03979" lon="1.88208">
        <ele>276</ele>
        <time>2020-10-04T13:00:19.729Z</time>
      </trkpt>
      <trkpt lat="44.03978" lon="1.88208">
        <ele>276</ele>
        <time>2020-10-04T13:00:20.729Z</time>
      </trkpt>
      <trkpt lat="44.03977" lon="1.88207">
        <ele>276</ele>
        <time>2020-10-04T13:00:21.729Z</time>
      </trkpt>
      <trkpt lat="44.03976" lon="1.88206">
        <ele>276</ele>
        <time>2020-10-04T13:00:22.729Z</time>
      </trkpt>
      <trkpt lat="44.03976" lon="1.88205">
        <ele>276</ele>
        <time>2020-10-04T13:00:23.729Z</time>
      </trkpt>
      <trkpt lat="44.03975" lon="1.88204">
        <ele>276</ele>
        <time>2020-10-04T13:00:24.729Z</time>
      </trkpt>
      <trkpt lat="44.03974" lon="1.88203">
        <ele>276</ele>
        <time>2020-10-04T13:00:25.729Z</time>
      </trkpt>
      <trkpt lat="44.03973" lon="1.88202">
        <ele>276</ele>
        <time>2020-10-04T13:00:26.729Z</time>
      </trkpt>
      <trkpt lat="44.03972" lon="1.88201">
        <ele>276</ele>
        <time>2020-10-04T13:00:27.729Z</time>
      </trkpt>
      <trkpt lat="44.03971" lon="1.88201">
        <ele>276</ele>
        <time>2020-10-04T13:00:28.729Z</time>
      </trkpt>
      <trkpt lat="44.0397" lon="1.882">
        <ele>276</ele>
        <time>2020-10-04T13:00:29.729Z</time>
      </trkpt>
      <trkpt lat="44.03969" lon="1.88199">
        <ele>276</ele>
        <time>2020-10-04T13:00:30.729Z</time>
      </trkpt>
      <trkpt lat="44.03968" lon="1.88198">
        <ele>276</ele>
        <time>2020-10-04T13:00:31.729Z</time>
      </trkpt>
      <trkpt lat="44.03967" lon="1.88198">
        <ele>276</ele>
        <time>2020-10-04T13:00:32.729Z</time>
      </trkpt>
      <trkpt lat="44.03966" lon="1.88197">
        <ele>276</ele>
        <time>2020-10-04T13:00:33.729Z</time>
      </trkpt>
      <trkpt lat="44.03965" lon="1.88196">
        <ele>276</ele>
        <time>2020-10-04T13:00:34.729Z</time>
      </trkpt>
      <trkpt lat="44.03964" lon="1.88196">
        <ele>276</ele>
        <time>2020-10-04T13:00:35.729Z</time>
      </trkpt>
      <trkpt lat="44.03963" lon="1.88195">
        <ele>276</ele>
        <time>2020-10-04T13:00:36.729Z</time>
      </trkpt>
      <trkpt lat="44.03963" lon="1.88194">
        <ele>276</ele>
        <time>2020-10-04T13:00:37.729Z</time>
      </trkpt>
      <trkpt lat="44.03962" lon="1.88194">
        <ele>276</ele>
        <time>2020-10-04T13:00:38.729Z</time>
      </trkpt>
      <trkpt lat="44.0396" lon="1.88193">
        <ele>276</ele>
        <time>2020-10-04T13:00:39.729Z</time>
      </trkpt>
      <trkpt lat="44.03959" lon="1.88192">
        <ele>276</ele>
        <time>2020-10-04T13:00:40.729Z</time>
      </trkpt>
      <trkpt lat="44.03958" lon="1.88192">
        <ele>276</ele>
        <time>2020-10-04T13:00:41.729Z</time>
      </trkpt>
      <trkpt lat="44.03958" lon="1.88192">
        <ele>276</ele>
        <time>2020-10-04T13:00:42.729Z</time>
      </trkpt>
      <trkpt lat="44.03957" lon="1.88191">
        <ele>276</ele>
        <time>2020-10-04T13:00:43.729Z</time>
      </trkpt>
      <trkpt lat="44.03956" lon="1.88191">
        <ele>276</ele>
        <time>2020-10-04T13:00:44.729Z</time>
      </trkpt>
      <trkpt lat="44.03955" lon="1.88191">
        <ele>276</ele>
        <time>2020-10-04T13:00:45.729Z</time>
      </trkpt>
      <trkpt lat="44.03953" lon="1.8819">
        <ele>276</ele>
        <time>2020-10-04T13:00:46.729Z</time>
      </trkpt>
      <trkpt lat="44.03953" lon="1.88191">
        <ele>276</ele>
        <time>2020-10-04T13:00:47.729Z</time>
      </trkpt>
      <trkpt lat="44.03952" lon="1.8819">
        <ele>276</ele>
        <time>2020-10-04T13:00:48.729Z</time>
      </trkpt>
      <trkpt lat="44.03952" lon="1.8819">
        <ele>276</ele>
        <time>2020-10-04T13:00:49.729Z</time>
      </trkpt>
      <trkpt lat="44.03952" lon="1.8819">
        <ele>276</ele>
        <time>2020-10-04T13:00:50.729Z</time>
      </trkpt>
      <trkpt lat="44.03952" lon="1.8819">
        <ele>276</ele>
        <time>2020-10-04T13:00:51.729Z</time>
      </trkpt>
      <trkpt lat="44.0395" lon="1.88188">
        <ele>275</ele>
        <time>2020-10-04T13:00:52.729Z</time>
      </trkpt>
      <trkpt lat="44.03949" lon="1.88187">
        <ele>275</ele>
        <time>2020-10-04T13:00:53.729Z</time>
      </trkpt>
      <trkpt lat="44.03948" lon="1.88187">
        <ele>275</ele>
        <time>2020-10-04T13:00:54.729Z</time>
      </trkpt>
      <trkpt lat="44.03947" lon="1.88187">
        <ele>275</ele>
        <time>2020-10-04T13:00:55.729Z</time>
      </trkpt>
      <trkpt lat="44.03946" lon="1.88186">
        <ele>275</ele>
        <time>2020-10-04T13:00:56.729Z</time>
      </trkpt>
      <trkpt lat="44.03946" lon="1.88186">
        <ele>276</ele>
        <time>2020-10-04T13:00:57.729Z</time>
      </trkpt>
      <trkpt lat="44.03945" lon="1.88185">
        <ele>276</ele>
        <time>2020-10-04T13:00:58.729Z</time>
      </trkpt>
      <trkpt lat="44.03944" lon="1.88185">
        <ele>276</ele>
        <time>2020-10-04T13:00:59.729Z</time>
      </trkpt>
      <trkpt lat="44.03943" lon="1.88185">
        <ele>276</ele>
        <time>2020-10-04T13:01:00.729Z</time>
      </trkpt>
      <trkpt lat="44.03943" lon="1.88184">
        <ele>276</ele>
        <time>2020-10-04T13:01:01.729Z</time>
      </trkpt>
      <trkpt lat="44.03942" lon="1.88184">
        <ele>276</ele>
        <time>2020-10-04T13:01:02.729Z</time>
      </trkpt>
      <trkpt lat="44.03941" lon="1.88183">
        <ele>276</ele>
        <time>2020-10-04T13:01:03.729Z</time>
      </trkpt>
      <trkpt lat="44.0394" lon="1.88183">
        <ele>276</ele>
        <time>2020-10-04T13:01:04.729Z</time>
      </trkpt>
      <trkpt lat="44.03939" lon="1.88183">
        <ele>276</ele>
        <time>2020-10-04T13:01:05.729Z</time>
      </trkpt>
      <trkpt lat="44.03938" lon="1.88183">
        <ele>276</ele>
        <time>2020-10-04T13:01:06.729Z</time>
      </trkpt>
      <trkpt lat="44.03937" lon="1.88182">
        <ele>275</ele>
        <time>2020-10-04T13:01:07.729Z</time>
      </trkpt>
      <trkpt lat="44.03936" lon="1.88182">
        <ele>275</ele>
        <time>2020-10-04T13:01:08.729Z</time>
      </trkpt>
      <trkpt lat="44.03935" lon="1.88181">
        <ele>275</ele>
        <time>2020-10-04T13:01:09.729Z</time>
      </trkpt>
      <trkpt lat="44.03934" lon="1.88181">
        <ele>275</ele>
        <time>2020-10-04T13:01:10.729Z</time>
      </trkpt>
      <trkpt lat="44.03933" lon="1.88181">
        <ele>275</ele>
        <time>2020-10-04T13:01:11.729Z</time>
      </trkpt>
      <trkpt lat="44.03932" lon="1.8818">
        <ele>275</ele>
        <time>2020-10-04T13:01:12.729Z</time>
      </trkpt>
      <trkpt lat="44.03931" lon="1.8818">
        <ele>275</ele>
        <time>2020-10-04T13:01:13.729Z</time>
      </trkpt>
      <trkpt lat="44.0393" lon="1.8818">
        <ele>275</ele>
        <time>2020-10-04T13:01:14.729Z</time>
      </trkpt>
      <trkpt lat="44.03929" lon="1.8818">
        <ele>275</ele>
        <time>2020-10-04T13:01:15.729Z</time>
      </trkpt>
      <trkpt lat="44.03928" lon="1.8818">
        <ele>275</ele>
        <time>2020-10-04T13:01:16.729Z</time>
      </trkpt>
      <trkpt lat="44.03927" lon="1.88179">
        <ele>275</ele>
        <time>2020-10-04T13:01:17.729Z</time>
      </trkpt>
      <trkpt lat="44.03926" lon="1.88179">
        <ele>275</ele>
        <time>2020-10-04T13:01:18.729Z</time>
      </trkpt>
      <trkpt lat="44.03925" lon="1.88178">
        <ele>275</ele>
        <time>2020-10-04T13:01:19.729Z</time>
      </trkpt>
      <trkpt lat="44.03924" lon="1.88178">
        <ele>275</ele>
        <time>2020-10-04T13:01:20.729Z</time>
      </trkpt>
      <trkpt lat="44.03922" lon="1.88177">
        <ele>274</ele>
        <time>2020-10-04T13:01:21.729Z</time>
      </trkpt>
      <trkpt lat="44.03921" lon="1.88177">
        <ele>274</ele>
        <time>2020-10-04T13:01:22.729Z</time>
      </trkpt>
      <trkpt lat="44.0392" lon="1.88177">
        <ele>274</ele>
        <time>2020-10-04T13:01:23.729Z</time>
      </trkpt>
      <trkpt lat="44.03919" lon="1.88176">
        <ele>274</ele>
        <time>2020-10-04T13:01:24.729Z</time>
      </trkpt>
      <trkpt lat="44.03918" lon="1.88176">
        <ele>274</ele>
        <time>2020-10-04T13:01:25.729Z</time>
      </trkpt>
      <trkpt lat="44.03917" lon="1.88176">
        <ele>274</ele>
        <time>2020-10-04T13:01:26.729Z</time>
      </trkpt>
      <trkpt lat="44.03916" lon="1.88176">
        <ele>274</ele>
        <time>2020-10-04T13:01:27.729Z</time>
      </trkpt>
      <trkpt lat="44.03914" lon="1.88175">
        <ele>274</ele>
        <time>2020-10-04T13:01:28.729Z</time>
      </trkpt>
      <trkpt lat="44.03913" lon="1.88175">
        <ele>274</ele>
        <time>2020-10-04T13:01:29.729Z</time>
      </trkpt>
      <trkpt lat="44.03912" lon="1.88175">
        <ele>274</ele>
        <time>2020-10-04T13:01:30.729Z</time>
      </trkpt>
      <trkpt lat="44.03911" lon="1.88175">
        <ele>274</ele>
        <time>2020-10-04T13:01:31.729Z</time>
      </trkpt>
      <trkpt lat="44.0391" lon="1.88175">
        <ele>273</ele>
        <time>2020-10-04T13:01:32.729Z</time>
      </trkpt>
      <trkpt lat="44.03908" lon="1.88175">
        <ele>273</ele>
        <time>2020-10-04T13:01:33.729Z</time>
      </trkpt>
      <trkpt lat="44.03907" lon="1.88174">
        <ele>273</ele>
        <time>2020-10-04T13:01:34.729Z</time>
      </trkpt>
      <trkpt lat="44.03906" lon="1.88174">
        <ele>273</ele>
        <time>2020-10-04T13:01:35.729Z</time>
      </trkpt>
      <trkpt lat="44.03905" lon="1.88174">
        <ele>273</ele>
        <time>2020-10-04T13:01:36.729Z</time>
      </trkpt>
      <trkpt lat="44.03904" lon="1.88174">
        <ele>273</ele>
        <time>2020-10-04T13:01:37.729Z</time>
      </trkpt>
      <trkpt lat="44.03903" lon="1.88174">
        <ele>273</ele>
        <time>2020-10-04T13:01:38.729Z</time>
      </trkpt>
      <trkpt lat="44.03902" lon="1.88173">
        <ele>273</ele>
        <time>2020-10-04T13:01:39.729Z</time>
      </trkpt>
      <trkpt lat="44.03901" lon="1.88173">
        <ele>273</ele>
        <time>2020-10-04T13:01:40.729Z</time>
      </trkpt>
      <trkpt lat="44.03899" lon="1.88173">
        <ele>273</ele>
        <time>2020-10-04T13:01:41.729Z</time>
      </trkpt>
      <trkpt lat="44.03898" lon="1.88173">
        <ele>273</ele>
        <time>2020-10-04T13:01:42.729Z</time>
      </trkpt>
      <trkpt lat="44.03897" lon="1.88173">
        <ele>273</ele>
        <time>2020-10-04T13:01:43.729Z</time>
      </trkpt>
      <trkpt lat="44.03896" lon="1.88173">
        <ele>273</ele>
        <time>2020-10-04T13:01:44.729Z</time>
      </trkpt>
      <trkpt lat="44.03895" lon="1.88173">
        <ele>273</ele>
        <time>2020-10-04T13:01:45.729Z</time>
      </trkpt>
      <trkpt lat="44.03894" lon="1.88173">
        <ele>273</ele>
        <time>2020-10-04T13:01:46.729Z</time>
      </trkpt>
      <trkpt lat="44.03892" lon="1.88173">
        <ele>273</ele>
        <time>2020-10-04T13:01:47.729Z</time>
      </trkpt>
      <trkpt lat="44.03891" lon="1.88173">
        <ele>273</ele>
        <time>2020-10-04T13:01:48.729Z</time>
      </trkpt>
      <trkpt lat="44.0389" lon="1.88173">
        <ele>273</ele>
        <time>2020-10-04T13:01:49.729Z</time>
      </trkpt>
      <trkpt lat="44.03889" lon="1.88173">
        <ele>273</ele>
        <time>2020-10-04T13:01:50.729Z</time>
      </trkpt>
      <trkpt lat="44.03889" lon="1.88173">
        <ele>273</ele>
        <time>2020-10-04T13:01:51.729Z</time>
      </trkpt>
      <trkpt lat="44.03888" lon="1.88173">
        <ele>273</ele>
        <time>2020-10-04T13:01:52.729Z</time>
      </trkpt>
      <trkpt lat="44.03887" lon="1.88173">
        <ele>273</ele>
        <time>2020-10-04T13:01:53.729Z</time>
      </trkpt>
      <trkpt lat="44.03886" lon="1.88172">
        <ele>273</ele>
        <time>2020-10-04T13:01:54.729Z</time>
      </trkpt>
      <trkpt lat="44.03885" lon="1.88172">
        <ele>273</ele>
        <time>2020-10-04T13:01:55.729Z</time>
      </trkpt>
      <trkpt lat="44.03884" lon="1.88172">
        <ele>273</ele>
        <time>2020-10-04T13:01:56.729Z</time>
      </trkpt>
      <trkpt lat="44.03883" lon="1.88171">
        <ele>273</ele>
        <time>2020-10-04T13:01:57.729Z</time>
      </trkpt>
      <trkpt lat="44.03881" lon="1.88171">
        <ele>273</ele>
        <time>2020-10-04T13:01:58.729Z</time>
      </trkpt>
      <trkpt lat="44.0388" lon="1.8817">
        <ele>273</ele>
        <time>2020-10-04T13:01:59.729Z</time>
      </trkpt>
      <trkpt lat="44.03879" lon="1.88169">
        <ele>273</ele>
        <time>2020-10-04T13:02:00.729Z</time>
      </trkpt>
      <trkpt lat="44.03878" lon="1.88169">
        <ele>272</ele>
        <time>2020-10-04T13:02:01.729Z</time>
      </trkpt>
      <trkpt lat="44.03877" lon="1.88168">
        <ele>272</ele>
        <time>2020-10-04T13:02:02.729Z</time>
      </trkpt>
      <trkpt lat="44.03876" lon="1.88167">
        <ele>272</ele>
        <time>2020-10-04T13:02:03.729Z</time>
      </trkpt>
      <trkpt lat="44.03874" lon="1.88166">
        <ele>272</ele>
        <time>2020-10-04T13:02:04.729Z</time>
      </trkpt>
      <trkpt lat="44.03873" lon="1.88166">
        <ele>272</ele>
        <time>2020-10-04T13:02:05.729Z</time>
      </trkpt>
      <trkpt lat="44.03872" lon="1.88165">
        <ele>272</ele>
        <time>2020-10-04T13:02:06.729Z</time>
      </trkpt>
      <trkpt lat="44.03871" lon="1.88164">
        <ele>272</ele>
        <time>2020-10-04T13:02:07.729Z</time>
      </trkpt>
      <trkpt lat="44.0387" lon="1.88163">
        <ele>272</ele>
        <time>2020-10-04T13:02:08.729Z</time>
      </trkpt>
      <trkpt lat="44.03869" lon="1.88163">
        <ele>272</ele>
        <time>2020-10-04T13:02:09.729Z</time>
      </trkpt>
      <trkpt lat="44.03868" lon="1.88162">
        <ele>272</ele>
        <time>2020-10-04T13:02:10.729Z</time>
      </trkpt>
      <trkpt lat="44.03867" lon="1.88161">
        <ele>271</ele>
        <time>2020-10-04T13:02:11.729Z</time>
      </trkpt>
      <trkpt lat="44.03865" lon="1.8816">
        <ele>271</ele>
        <time>2020-10-04T13:02:12.729Z</time>
      </trkpt>
      <trkpt lat="44.03864" lon="1.88159">
        <ele>271</ele>
        <time>2020-10-04T13:02:13.729Z</time>
      </trkpt>
      <trkpt lat="44.03863" lon="1.88158">
        <ele>271</ele>
        <time>2020-10-04T13:02:14.729Z</time>
      </trkpt>
      <trkpt lat="44.03862" lon="1.88158">
        <ele>271</ele>
        <time>2020-10-04T13:02:15.729Z</time>
      </trkpt>
      <trkpt lat="44.03861" lon="1.88157">
        <ele>271</ele>
        <time>2020-10-04T13:02:16.729Z</time>
      </trkpt>
      <trkpt lat="44.03859" lon="1.88156">
        <ele>271</ele>
        <time>2020-10-04T13:02:17.729Z</time>
      </trkpt>
      <trkpt lat="44.03858" lon="1.88155">
        <ele>271</ele>
        <time>2020-10-04T13:02:18.729Z</time>
      </trkpt>
      <trkpt lat="44.03857" lon="1.88153">
        <ele>271</ele>
        <time>2020-10-04T13:02:19.729Z</time>
      </trkpt>
      <trkpt lat="44.03856" lon="1.88152">
        <ele>271</ele>
        <time>2020-10-04T13:02:20.729Z</time>
      </trkpt>
      <trkpt lat="44.03855" lon="1.88151">
        <ele>271</ele>
        <time>2020-10-04T13:02:21.729Z</time>
      </trkpt>
      <trkpt lat="44.03854" lon="1.8815">
        <ele>270</ele>
        <time>2020-10-04T13:02:22.729Z</time>
      </trkpt>
      <trkpt lat="44.03853" lon="1.8815">
        <ele>270</ele>
        <time>2020-10-04T13:02:23.729Z</time>
      </trkpt>
      <trkpt lat="44.03852" lon="1.88149">
        <ele>270</ele>
        <time>2020-10-04T13:02:24.729Z</time>
      </trkpt>
      <trkpt lat="44.0385" lon="1.88148">
        <ele>270</ele>
        <time>2020-10-04T13:02:25.729Z</time>
      </trkpt>
      <trkpt lat="44.03849" lon="1.88147">
        <ele>270</ele>
        <time>2020-10-04T13:02:26.729Z</time>
      </trkpt>
      <trkpt lat="44.03848" lon="1.88146">
        <ele>270</ele>
        <time>2020-10-04T13:02:27.729Z</time>
      </trkpt>
      <trkpt lat="44.03847" lon="1.88145">
        <ele>270</ele>
        <time>2020-10-04T13:02:28.729Z</time>
      </trkpt>
      <trkpt lat="44.03846" lon="1.88144">
        <ele>270</ele>
        <time>2020-10-04T13:02:29.729Z</time>
      </trkpt>
      <trkpt lat="44.03845" lon="1.88143">
        <ele>270</ele>
        <time>2020-10-04T13:02:30.729Z</time>
      </trkpt>
      <trkpt lat="44.03844" lon="1.88142">
        <ele>270</ele>
        <time>2020-10-04T13:02:31.729Z</time>
      </trkpt>
      <trkpt lat="44.03843" lon="1.88141">
        <ele>270</ele>
        <time>2020-10-04T13:02:32.729Z</time>
      </trkpt>
      <trkpt lat="44.03842" lon="1.8814">
        <ele>270</ele>
        <time>2020-10-04T13:02:33.729Z</time>
      </trkpt>
      <trkpt lat="44.03841" lon="1.88139">
        <ele>270</ele>
        <time>2020-10-04T13:02:34.729Z</time>
      </trkpt>
      <trkpt lat="44.03841" lon="1.88139">
        <ele>270</ele>
        <time>2020-10-04T13:02:35.729Z</time>
      </trkpt>
      <trkpt lat="44.0384" lon="1.88138">
        <ele>270</ele>
        <time>2020-10-04T13:02:36.729Z</time>
      </trkpt>
      <trkpt lat="44.03839" lon="1.88136">
        <ele>270</ele>
        <time>2020-10-04T13:02:37.729Z</time>
      </trkpt>
      <trkpt lat="44.03838" lon="1.88135">
        <ele>270</ele>
        <time>2020-10-04T13:02:38.729Z</time>
      </trkpt>
      <trkpt lat="44.03837" lon="1.88134">
        <ele>270</ele>
        <time>2020-10-04T13:02:39.729Z</time>
      </trkpt>
      <trkpt lat="44.03836" lon="1.88134">
        <ele>269</ele>
        <time>2020-10-04T13:02:40.729Z</time>
      </trkpt>
      <trkpt lat="44.03836" lon="1.88133">
        <ele>269</ele>
        <time>2020-10-04T13:02:41.729Z</time>
      </trkpt>
      <trkpt lat="44.03835" lon="1.88132">
        <ele>269</ele>
        <time>2020-10-04T13:02:42.729Z</time>
      </trkpt>
      <trkpt lat="44.03834" lon="1.88131">
        <ele>269</ele>
        <time>2020-10-04T13:02:43.729Z</time>
      </trkpt>
      <trkpt lat="44.03833" lon="1.88129">
        <ele>269</ele>
        <time>2020-10-04T13:02:44.729Z</time>
      </trkpt>
      <trkpt lat="44.03832" lon="1.88128">
        <ele>269</ele>
        <time>2020-10-04T13:02:45.729Z</time>
      </trkpt>
      <trkpt lat="44.03831" lon="1.88127">
        <ele>269</ele>
        <time>2020-10-04T13:02:46.729Z</time>
      </trkpt>
      <trkpt lat="44.0383" lon="1.88127">
        <ele>269</ele>
        <time>2020-10-04T13:02:47.729Z</time>
      </trkpt>
      <trkpt lat="44.03829" lon="1.88125">
        <ele>269</ele>
        <time>2020-10-04T13:02:48.729Z</time>
      </trkpt>
      <trkpt lat="44.03828" lon="1.88124">
        <ele>269</ele>
        <time>2020-10-04T13:02:49.729Z</time>
      </trkpt>
      <trkpt lat="44.03827" lon="1.88123">
        <ele>269</ele>
        <time>2020-10-04T13:02:50.729Z</time>
      </trkpt>
      <trkpt lat="44.03827" lon="1.88122">
        <ele>269</ele>
        <time>2020-10-04T13:02:51.729Z</time>
      </trkpt>
      <trkpt lat="44.03826" lon="1.88121">
        <ele>269</ele>
        <time>2020-10-04T13:02:52.729Z</time>
      </trkpt>
      <trkpt lat="44.03825" lon="1.8812">
        <ele>269</ele>
        <time>2020-10-04T13:02:53.729Z</time>
      </trkpt>
      <trkpt lat="44.03824" lon="1.88118">
        <ele>269</ele>
        <time>2020-10-04T13:02:54.729Z</time>
      </trkpt>
      <trkpt lat="44.03824" lon="1.88117">
        <ele>269</ele>
        <time>2020-10-04T13:02:55.729Z</time>
      </trkpt>
      <trkpt lat="44.03823" lon="1.88115">
        <ele>269</ele>
        <time>2020-10-04T13:02:56.729Z</time>
      </trkpt>
      <trkpt lat="44.03822" lon="1.88114">
        <ele>269</ele>
        <time>2020-10-04T13:02:57.729Z</time>
      </trkpt>
      <trkpt lat="44.03821" lon="1.88113">
        <ele>268</ele>
        <time>2020-10-04T13:02:58.729Z</time>
      </trkpt>
      <trkpt lat="44.0382" lon="1.88111">
        <ele>268</ele>
        <time>2020-10-04T13:02:59.729Z</time>
      </trkpt>
      <trkpt lat="44.0382" lon="1.8811">
        <ele>268</ele>
        <time>2020-10-04T13:03:00.729Z</time>
      </trkpt>
      <trkpt lat="44.03819" lon="1.88109">
        <ele>268</ele>
        <time>2020-10-04T13:03:01.729Z</time>
      </trkpt>
      <trkpt lat="44.03818" lon="1.88107">
        <ele>268</ele>
        <time>2020-10-04T13:03:02.729Z</time>
      </trkpt>
      <trkpt lat="44.03818" lon="1.88106">
        <ele>268</ele>
        <time>2020-10-04T13:03:03.729Z</time>
      </trkpt>
      <trkpt lat="44.03817" lon="1.88105">
        <ele>268</ele>
        <time>2020-10-04T13:03:04.729Z</time>
      </trkpt>
      <trkpt lat="44.03816" lon="1.88104">
        <ele>268</ele>
        <time>2020-10-04T13:03:05.729Z</time>
      </trkpt>
      <trkpt lat="44.03816" lon="1.88103">
        <ele>268</ele>
        <time>2020-10-04T13:03:06.729Z</time>
      </trkpt>
      <trkpt lat="44.03815" lon="1.88101">
        <ele>268</ele>
        <time>2020-10-04T13:03:07.729Z</time>
      </trkpt>
      <trkpt lat="44.03815" lon="1.881">
        <ele>268</ele>
        <time>2020-10-04T13:03:08.729Z</time>
      </trkpt>
      <trkpt lat="44.03815" lon="1.88099">
        <ele>268</ele>
        <time>2020-10-04T13:03:09.729Z</time>
      </trkpt>
      <trkpt lat="44.03814" lon="1.88097">
        <ele>268</ele>
        <time>2020-10-04T13:03:10.729Z</time>
      </trkpt>
      <trkpt lat="44.03814" lon="1.88096">
        <ele>268</ele>
        <time>2020-10-04T13:03:11.729Z</time>
      </trkpt>
      <trkpt lat="44.03813" lon="1.88095">
        <ele>268</ele>
        <time>2020-10-04T13:03:12.729Z</time>
      </trkpt>
      <trkpt lat="44.03812" lon="1.88094">
        <ele>268</ele>
        <time>2020-10-04T13:03:13.729Z</time>
      </trkpt>
      <trkpt lat="44.03811" lon="1.88093">
        <ele>268</ele>
        <time>2020-10-04T13:03:14.729Z</time>
      </trkpt>
      <trkpt lat="44.03811" lon="1.88091">
        <ele>268</ele>
        <time>2020-10-04T13:03:15.729Z</time>
      </trkpt>
      <trkpt lat="44.0381" lon="1.8809">
        <ele>268</ele>
        <time>2020-10-04T13:03:16.729Z</time>
      </trkpt>
      <trkpt lat="44.03809" lon="1.88089">
        <ele>268</ele>
        <time>2020-10-04T13:03:17.729Z</time>
      </trkpt>
      <trkpt lat="44.03809" lon="1.88088">
        <ele>268</ele>
        <time>2020-10-04T13:03:18.729Z</time>
      </trkpt>
      <trkpt lat="44.03808" lon="1.88086">
        <ele>268</ele>
        <time>2020-10-04T13:03:19.729Z</time>
      </trkpt>
      <trkpt lat="44.03808" lon="1.88085">
        <ele>268</ele>
        <time>2020-10-04T13:03:20.729Z</time>
      </trkpt>
      <trkpt lat="44.03807" lon="1.88084">
        <ele>268</ele>
        <time>2020-10-04T13:03:21.729Z</time>
      </trkpt>
      <trkpt lat="44.03807" lon="1.88082">
        <ele>268</ele>
        <time>2020-10-04T13:03:22.729Z</time>
      </trkpt>
      <trkpt lat="44.03806" lon="1.88081">
        <ele>268</ele>
        <time>2020-10-04T13:03:23.729Z</time>
      </trkpt>
      <trkpt lat="44.03805" lon="1.88079">
        <ele>268</ele>
        <time>2020-10-04T13:03:24.729Z</time>
      </trkpt>
      <trkpt lat="44.03805" lon="1.88078">
        <ele>268</ele>
        <time>2020-10-04T13:03:25.729Z</time>
      </trkpt>
      <trkpt lat="44.03804" lon="1.88077">
        <ele>268</ele>
        <time>2020-10-04T13:03:26.729Z</time>
      </trkpt>
      <trkpt lat="44.03804" lon="1.88075">
        <ele>268</ele>
        <time>2020-10-04T13:03:27.729Z</time>
      </trkpt>
      <trkpt lat="44.03803" lon="1.88074">
        <ele>267</ele>
        <time>2020-10-04T13:03:28.729Z</time>
      </trkpt>
      <trkpt lat="44.03802" lon="1.88072">
        <ele>267</ele>
        <time>2020-10-04T13:03:29.729Z</time>
      </trkpt>
      <trkpt lat="44.03802" lon="1.88071">
        <ele>267</ele>
        <time>2020-10-04T13:03:30.729Z</time>
      </trkpt>
      <trkpt lat="44.03801" lon="1.8807">
        <ele>267</ele>
        <time>2020-10-04T13:03:31.729Z</time>
      </trkpt>
      <trkpt lat="44.038" lon="1.88068">
        <ele>267</ele>
        <time>2020-10-04T13:03:32.729Z</time>
      </trkpt>
      <trkpt lat="44.038" lon="1.88067">
        <ele>267</ele>
        <time>2020-10-04T13:03:33.729Z</time>
      </trkpt>
      <trkpt lat="44.03799" lon="1.88066">
        <ele>267</ele>
        <time>2020-10-04T13:03:34.729Z</time>
      </trkpt>
      <trkpt lat="44.03799" lon="1.88064">
        <ele>267</ele>
        <time>2020-10-04T13:03:35.729Z</time>
      </trkpt>
      <trkpt lat="44.03798" lon="1.88063">
        <ele>267</ele>
        <time>2020-10-04T13:03:36.729Z</time>
      </trkpt>
      <trkpt lat="44.03798" lon="1.88061">
        <ele>267</ele>
        <time>2020-10-04T13:03:37.729Z</time>
      </trkpt>
      <trkpt lat="44.03797" lon="1.8806">
        <ele>267</ele>
        <time>2020-10-04T13:03:38.729Z</time>
      </trkpt>
      <trkpt lat="44.03796" lon="1.88058">
        <ele>267</ele>
        <time>2020-10-04T13:03:39.729Z</time>
      </trkpt>
      <trkpt lat="44.03795" lon="1.88057">
        <ele>267</ele>
        <time>2020-10-04T13:03:40.729Z</time>
      </trkpt>
      <trkpt lat="44.03795" lon="1.88056">
        <ele>267</ele>
        <time>2020-10-04T13:03:41.729Z</time>
      </trkpt>
      <trkpt lat="44.03794" lon="1.88055">
        <ele>267</ele>
        <time>2020-10-04T13:03:42.729Z</time>
      </trkpt>
      <trkpt lat="44.03794" lon="1.88053">
        <ele>267</ele>
        <time>2020-10-04T13:03:43.729Z</time>
      </trkpt>
      <trkpt lat="44.03793" lon="1.88052">
        <ele>267</ele>
        <time>2020-10-04T13:03:44.729Z</time>
      </trkpt>
      <trkpt lat="44.03792" lon="1.88051">
        <ele>266</ele>
        <time>2020-10-04T13:03:45.729Z</time>
      </trkpt>
      <trkpt lat="44.03791" lon="1.8805">
        <ele>266</ele>
        <time>2020-10-04T13:03:46.729Z</time>
      </trkpt>
      <trkpt lat="44.0379" lon="1.88049">
        <ele>266</ele>
        <time>2020-10-04T13:03:47.729Z</time>
      </trkpt>
      <trkpt lat="44.03789" lon="1.88048">
        <ele>266</ele>
        <time>2020-10-04T13:03:48.729Z</time>
      </trkpt>
      <trkpt lat="44.03788" lon="1.88047">
        <ele>266</ele>
        <time>2020-10-04T13:03:49.729Z</time>
      </trkpt>
      <trkpt lat="44.03787" lon="1.88046">
        <ele>266</ele>
        <time>2020-10-04T13:03:50.729Z</time>
      </trkpt>
      <trkpt lat="44.03786" lon="1.88045">
        <ele>266</ele>
        <time>2020-10-04T13:03:51.729Z</time>
      </trkpt>
      <trkpt lat="44.03785" lon="1.88044">
        <ele>266</ele>
        <time>2020-10-04T13:03:52.729Z</time>
      </trkpt>
      <trkpt lat="44.03784" lon="1.88043">
        <ele>266</ele>
        <time>2020-10-04T13:03:53.729Z</time>
      </trkpt>
      <trkpt lat="44.03783" lon="1.88043">
        <ele>266</ele>
        <time>2020-10-04T13:03:54.729Z</time>
      </trkpt>
      <trkpt lat="44.03782" lon="1.88042">
        <ele>266</ele>
        <time>2020-10-04T13:03:55.729Z</time>
      </trkpt>
      <trkpt lat="44.03781" lon="1.88042">
        <ele>266</ele>
        <time>2020-10-04T13:03:56.729Z</time>
      </trkpt>
      <trkpt lat="44.0378" lon="1.88041">
        <ele>266</ele>
        <time>2020-10-04T13:03:57.729Z</time>
      </trkpt>
      <trkpt lat="44.03779" lon="1.88041">
        <ele>266</ele>
        <time>2020-10-04T13:03:58.729Z</time>
      </trkpt>
      <trkpt lat="44.03778" lon="1.8804">
        <ele>266</ele>
        <time>2020-10-04T13:03:59.729Z</time>
      </trkpt>
      <trkpt lat="44.03777" lon="1.88039">
        <ele>266</ele>
        <time>2020-10-04T13:04:00.729Z</time>
      </trkpt>
      <trkpt lat="44.03775" lon="1.88038">
        <ele>266</ele>
        <time>2020-10-04T13:04:01.729Z</time>
      </trkpt>
      <trkpt lat="44.03775" lon="1.88038">
        <ele>266</ele>
        <time>2020-10-04T13:04:02.729Z</time>
      </trkpt>
      <trkpt lat="44.03774" lon="1.88037">
        <ele>266</ele>
        <time>2020-10-04T13:04:03.729Z</time>
      </trkpt>
      <trkpt lat="44.03773" lon="1.88036">
        <ele>266</ele>
        <time>2020-10-04T13:04:04.729Z</time>
      </trkpt>
      <trkpt lat="44.03772" lon="1.88035">
        <ele>266</ele>
        <time>2020-10-04T13:04:05.729Z</time>
      </trkpt>
      <trkpt lat="44.0377" lon="1.88035">
        <ele>265</ele>
        <time>2020-10-04T13:04:06.729Z</time>
      </trkpt>
      <trkpt lat="44.03769" lon="1.88034">
        <ele>265</ele>
        <time>2020-10-04T13:04:07.729Z</time>
      </trkpt>
      <trkpt lat="44.03768" lon="1.88033">
        <ele>265</ele>
        <time>2020-10-04T13:04:08.729Z</time>
      </trkpt>
      <trkpt lat="44.03767" lon="1.88032">
        <ele>265</ele>
        <time>2020-10-04T13:04:09.729Z</time>
      </trkpt>
      <trkpt lat="44.03766" lon="1.88032">
        <ele>265</ele>
        <time>2020-10-04T13:04:10.729Z</time>
      </trkpt>
      <trkpt lat="44.03765" lon="1.88031">
        <ele>265</ele>
        <time>2020-10-04T13:04:11.729Z</time>
      </trkpt>
      <trkpt lat="44.03764" lon="1.8803">
        <ele>265</ele>
        <time>2020-10-04T13:04:12.729Z</time>
      </trkpt>
      <trkpt lat="44.03763" lon="1.8803">
        <ele>265</ele>
        <time>2020-10-04T13:04:13.729Z</time>
      </trkpt>
      <trkpt lat="44.03762" lon="1.88029">
        <ele>265</ele>
        <time>2020-10-04T13:04:14.729Z</time>
      </trkpt>
      <trkpt lat="44.03761" lon="1.88028">
        <ele>265</ele>
        <time>2020-10-04T13:04:15.729Z</time>
      </trkpt>
      <trkpt lat="44.0376" lon="1.88027">
        <ele>265</ele>
        <time>2020-10-04T13:04:16.729Z</time>
      </trkpt>
      <trkpt lat="44.03759" lon="1.88027">
        <ele>265</ele>
        <time>2020-10-04T13:04:17.729Z</time>
      </trkpt>
      <trkpt lat="44.03757" lon="1.88026">
        <ele>265</ele>
        <time>2020-10-04T13:04:18.729Z</time>
      </trkpt>
      <trkpt lat="44.03756" lon="1.88025">
        <ele>265</ele>
        <time>2020-10-04T13:04:19.729Z</time>
      </trkpt>
      <trkpt lat="44.03756" lon="1.88025">
        <ele>265</ele>
        <time>2020-10-04T13:04:20.729Z</time>
      </trkpt>
      <trkpt lat="44.03755" lon="1.88024">
        <ele>265</ele>
        <time>2020-10-04T13:04:21.729Z</time>
      </trkpt>
      <trkpt lat="44.03753" lon="1.88023">
        <ele>265</ele>
        <time>2020-10-04T13:04:22.729Z</time>
      </trkpt>
      <trkpt lat="44.03752" lon="1.88023">
        <ele>265</ele>
        <time>2020-10-04T13:04:23.729Z</time>
      </trkpt>
      <trkpt lat="44.03751" lon="1.88022">
        <ele>265</ele>
        <time>2020-10-04T13:04:24.729Z</time>
      </trkpt>
      <trkpt lat="44.0375" lon="1.88022">
        <ele>265</ele>
        <time>2020-10-04T13:04:25.729Z</time>
      </trkpt>
      <trkpt lat="44.0375" lon="1.88021">
        <ele>265</ele>
        <time>2020-10-04T13:04:26.729Z</time>
      </trkpt>
      <trkpt lat="44.03748" lon="1.8802">
        <ele>265</ele>
        <time>2020-10-04T13:04:27.729Z</time>
      </trkpt>
      <trkpt lat="44.03747" lon="1.8802">
        <ele>265</ele>
        <time>2020-10-04T13:04:28.729Z</time>
      </trkpt>
      <trkpt lat="44.03746" lon="1.88019">
        <ele>265</ele>
        <time>2020-10-04T13:04:29.729Z</time>
      </trkpt>
      <trkpt lat="44.03745" lon="1.88019">
        <ele>265</ele>
        <time>2020-10-04T13:04:30.729Z</time>
      </trkpt>
      <trkpt lat="44.03744" lon="1.88018">
        <ele>265</ele>
        <time>2020-10-04T13:04:31.729Z</time>
      </trkpt>
      <trkpt lat="44.03743" lon="1.88018">
        <ele>265</ele>
        <time>2020-10-04T13:04:32.729Z</time>
      </trkpt>
      <trkpt lat="44.03741" lon="1.88018">
        <ele>265</ele>
        <time>2020-10-04T13:04:33.729Z</time>
      </trkpt>
      <trkpt lat="44.03741" lon="1.88017">
        <ele>264</ele>
        <time>2020-10-04T13:04:34.729Z</time>
      </trkpt>
      <trkpt lat="44.0374" lon="1.88016">
        <ele>264</ele>
        <time>2020-10-04T13:04:35.729Z</time>
      </trkpt>
      <trkpt lat="44.03739" lon="1.88016">
        <ele>264</ele>
        <time>2020-10-04T13:04:36.729Z</time>
      </trkpt>
      <trkpt lat="44.03738" lon="1.88016">
        <ele>264</ele>
        <time>2020-10-04T13:04:37.729Z</time>
      </trkpt>
      <trkpt lat="44.03737" lon="1.88015">
        <ele>264</ele>
        <time>2020-10-04T13:04:38.729Z</time>
      </trkpt>
      <trkpt lat="44.03736" lon="1.88015">
        <ele>264</ele>
        <time>2020-10-04T13:04:39.729Z</time>
      </trkpt>
      <trkpt lat="44.03735" lon="1.88014">
        <ele>264</ele>
        <time>2020-10-04T13:04:40.729Z</time>
      </trkpt>
      <trkpt lat="44.03735" lon="1.88014">
        <ele>264</ele>
        <time>2020-10-04T13:04:41.729Z</time>
      </trkpt>
      <trkpt lat="44.03734" lon="1.88013">
        <ele>264</ele>
        <time>2020-10-04T13:04:42.729Z</time>
      </trkpt>
      <trkpt lat="44.03732" lon="1.88013">
        <ele>264</ele>
        <time>2020-10-04T13:04:43.729Z</time>
      </trkpt>
      <trkpt lat="44.03731" lon="1.88012">
        <ele>264</ele>
        <time>2020-10-04T13:04:44.729Z</time>
      </trkpt>
      <trkpt lat="44.0373" lon="1.88011">
        <ele>264</ele>
        <time>2020-10-04T13:04:45.729Z</time>
      </trkpt>
      <trkpt lat="44.03729" lon="1.88011">
        <ele>264</ele>
        <time>2020-10-04T13:04:46.729Z</time>
      </trkpt>
      <trkpt lat="44.03727" lon="1.8801">
        <ele>264</ele>
        <time>2020-10-04T13:04:47.729Z</time>
      </trkpt>
      <trkpt lat="44.03726" lon="1.88009">
        <ele>264</ele>
        <time>2020-10-04T13:04:48.729Z</time>
      </trkpt>
      <trkpt lat="44.03725" lon="1.88009">
        <ele>264</ele>
        <time>2020-10-04T13:04:49.729Z</time>
      </trkpt>
      <trkpt lat="44.03724" lon="1.88008">
        <ele>264</ele>
        <time>2020-10-04T13:04:50.729Z</time>
      </trkpt>
      <trkpt lat="44.03723" lon="1.88007">
        <ele>264</ele>
        <time>2020-10-04T13:04:51.729Z</time>
      </trkpt>
      <trkpt lat="44.03722" lon="1.88006">
        <ele>264</ele>
        <time>2020-10-04T13:04:52.729Z</time>
      </trkpt>
      <trkpt lat="44.03721" lon="1.88005">
        <ele>264</ele>
        <time>2020-10-04T13:04:53.729Z</time>
      </trkpt>
      <trkpt lat="44.0372" lon="1.88005">
        <ele>264</ele>
        <time>2020-10-04T13:04:54.729Z</time>
      </trkpt>
      <trkpt lat="44.03719" lon="1.88004">
        <ele>264</ele>
        <time>2020-10-04T13:04:55.729Z</time>
      </trkpt>
      <trkpt lat="44.03718" lon="1.88003">
        <ele>264</ele>
        <time>2020-10-04T13:04:56.729Z</time>
      </trkpt>
      <trkpt lat="44.03716" lon="1.88002">
        <ele>264</ele>
        <time>2020-10-04T13:04:57.729Z</time>
      </trkpt>
      <trkpt lat="44.03715" lon="1.88001">
        <ele>264</ele>
        <time>2020-10-04T13:04:58.729Z</time>
      </trkpt>
      <trkpt lat="44.03714" lon="1.88">
        <ele>264</ele>
        <time>2020-10-04T13:04:59.729Z</time>
      </trkpt>
      <trkpt lat="44.03713" lon="1.87999">
        <ele>264</ele>
        <time>2020-10-04T13:05:00.729Z</time>
      </trkpt>
      <trkpt lat="44.03712" lon="1.87998">
        <ele>264</ele>
        <time>2020-10-04T13:05:01.729Z</time>
      </trkpt>
      <trkpt lat="44.03711" lon="1.87998">
        <ele>264</ele>
        <time>2020-10-04T13:05:02.729Z</time>
      </trkpt>
      <trkpt lat="44.0371" lon="1.87997">
        <ele>264</ele>
        <time>2020-10-04T13:05:03.729Z</time>
      </trkpt>
      <trkpt lat="44.03708" lon="1.87996">
        <ele>264</ele>
        <time>2020-10-04T13:05:04.729Z</time>
      </trkpt>
      <trkpt lat="44.03707" lon="1.87995">
        <ele>264</ele>
        <time>2020-10-04T13:05:05.729Z</time>
      </trkpt>
      <trkpt lat="44.03706" lon="1.87994">
        <ele>264</ele>
        <time>2020-10-04T13:05:06.729Z</time>
      </trkpt>
      <trkpt lat="44.03705" lon="1.87993">
        <ele>264</ele>
        <time>2020-10-04T13:05:07.729Z</time>
      </trkpt>
      <trkpt lat="44.03704" lon="1.87993">
        <ele>264</ele>
        <time>2020-10-04T13:05:08.729Z</time>
      </trkpt>
      <trkpt lat="44.03703" lon="1.87992">
        <ele>264</ele>
        <time>2020-10-04T13:05:09.729Z</time>
      </trkpt>
      <trkpt lat="44.03702" lon="1.87992">
        <ele>264</ele>
        <time>2020-10-04T13:05:10.729Z</time>
      </trkpt>
      <trkpt lat="44.037" lon="1.87991">
        <ele>264</ele>
        <time>2020-10-04T13:05:11.729Z</time>
      </trkpt>
      <trkpt lat="44.03699" lon="1.87991">
        <ele>264</ele>
        <time>2020-10-04T13:05:12.729Z</time>
      </trkpt>
      <trkpt lat="44.03698" lon="1.8799">
        <ele>264</ele>
        <time>2020-10-04T13:05:13.729Z</time>
      </trkpt>
      <trkpt lat="44.03697" lon="1.87989">
        <ele>264</ele>
        <time>2020-10-04T13:05:14.729Z</time>
      </trkpt>
      <trkpt lat="44.03695" lon="1.87989">
        <ele>264</ele>
        <time>2020-10-04T13:05:15.729Z</time>
      </trkpt>
      <trkpt lat="44.03694" lon="1.87988">
        <ele>264</ele>
        <time>2020-10-04T13:05:16.729Z</time>
      </trkpt>
      <trkpt lat="44.03693" lon="1.87988">
        <ele>264</ele>
        <time>2020-10-04T13:05:17.729Z</time>
      </trkpt>
      <trkpt lat="44.03692" lon="1.87987">
        <ele>264</ele>
        <time>2020-10-04T13:05:18.729Z</time>
      </trkpt>
      <trkpt lat="44.03691" lon="1.87986">
        <ele>264</ele>
        <time>2020-10-04T13:05:19.729Z</time>
      </trkpt>
      <trkpt lat="44.0369" lon="1.87985">
        <ele>264</ele>
        <time>2020-10-04T13:05:20.729Z</time>
      </trkpt>
      <trkpt lat="44.03689" lon="1.87985">
        <ele>264</ele>
        <time>2020-10-04T13:05:21.729Z</time>
      </trkpt>
      <trkpt lat="44.03688" lon="1.87985">
        <ele>264</ele>
        <time>2020-10-04T13:05:22.729Z</time>
      </trkpt>
      <trkpt lat="44.03687" lon="1.87984">
        <ele>264</ele>
        <time>2020-10-04T13:05:23.729Z</time>
      </trkpt>
      <trkpt lat="44.03686" lon="1.87984">
        <ele>264</ele>
        <time>2020-10-04T13:05:24.729Z</time>
      </trkpt>
      <trkpt lat="44.03684" lon="1.87983">
        <ele>264</ele>
        <time>2020-10-04T13:05:25.729Z</time>
      </trkpt>
      <trkpt lat="44.03683" lon="1.87983">
        <ele>264</ele>
        <time>2020-10-04T13:05:26.729Z</time>
      </trkpt>
      <trkpt lat="44.03682" lon="1.87982">
        <ele>264</ele>
        <time>2020-10-04T13:05:27.729Z</time>
      </trkpt>
      <trkpt lat="44.03681" lon="1.87982">
        <ele>264</ele>
        <time>2020-10-04T13:05:28.729Z</time>
      </trkpt>
      <trkpt lat="44.03679" lon="1.87982">
        <ele>264</ele>
        <time>2020-10-04T13:05:29.729Z</time>
      </trkpt>
      <trkpt lat="44.03678" lon="1.87982">
        <ele>264</ele>
        <time>2020-10-04T13:05:30.729Z</time>
      </trkpt>
      <trkpt lat="44.03677" lon="1.87982">
        <ele>264</ele>
        <time>2020-10-04T13:05:31.729Z</time>
      </trkpt>
      <trkpt lat="44.03676" lon="1.87981">
        <ele>264</ele>
        <time>2020-10-04T13:05:32.729Z</time>
      </trkpt>
      <trkpt lat="44.03675" lon="1.87981">
        <ele>264</ele>
        <time>2020-10-04T13:05:33.729Z</time>
      </trkpt>
      <trkpt lat="44.03673" lon="1.87981">
        <ele>264</ele>
        <time>2020-10-04T13:05:34.729Z</time>
      </trkpt>
      <trkpt lat="44.03672" lon="1.8798">
        <ele>264</ele>
        <time>2020-10-04T13:05:35.729Z</time>
      </trkpt>
      <trkpt lat="44.03671" lon="1.8798">
        <ele>264</ele>
        <time>2020-10-04T13:05:36.729Z</time>
      </trkpt>
      <trkpt lat="44.0367" lon="1.8798">
        <ele>264</ele>
        <time>2020-10-04T13:05:37.729Z</time>
      </trkpt>
      <trkpt lat="44.03669" lon="1.87979">
        <ele>265</ele>
        <time>2020-10-04T13:05:38.729Z</time>
      </trkpt>
      <trkpt lat="44.03667" lon="1.87979">
        <ele>265</ele>
        <time>2020-10-04T13:05:39.729Z</time>
      </trkpt>
      <trkpt lat="44.03666" lon="1.87979">
        <ele>265</ele>
        <time>2020-10-04T13:05:40.729Z</time>
      </trkpt>
      <trkpt lat="44.03665" lon="1.87979">
        <ele>265</ele>
        <time>2020-10-04T13:05:41.729Z</time>
      </trkpt>
      <trkpt lat="44.03664" lon="1.87978">
        <ele>265</ele>
        <time>2020-10-04T13:05:42.729Z</time>
      </trkpt>
      <trkpt lat="44.03663" lon="1.87978">
        <ele>265</ele>
        <time>2020-10-04T13:05:43.729Z</time>
      </trkpt>
      <trkpt lat="44.03662" lon="1.87978">
        <ele>265</ele>
        <time>2020-10-04T13:05:44.729Z</time>
      </trkpt>
      <trkpt lat="44.0366" lon="1.87977">
        <ele>264</ele>
        <time>2020-10-04T13:05:45.729Z</time>
      </trkpt>
      <trkpt lat="44.03659" lon="1.87977">
        <ele>264</ele>
        <time>2020-10-04T13:05:46.729Z</time>
      </trkpt>
      <trkpt lat="44.03658" lon="1.87977">
        <ele>264</ele>
        <time>2020-10-04T13:05:47.729Z</time>
      </trkpt>
      <trkpt lat="44.03656" lon="1.87976">
        <ele>264</ele>
        <time>2020-10-04T13:05:48.729Z</time>
      </trkpt>
      <trkpt lat="44.03655" lon="1.87976">
        <ele>264</ele>
        <time>2020-10-04T13:05:49.729Z</time>
      </trkpt>
      <trkpt lat="44.03654" lon="1.87976">
        <ele>264</ele>
        <time>2020-10-04T13:05:50.729Z</time>
      </trkpt>
      <trkpt lat="44.03653" lon="1.87976">
        <ele>264</ele>
        <time>2020-10-04T13:05:51.729Z</time>
      </trkpt>
      <trkpt lat="44.03652" lon="1.87975">
        <ele>264</ele>
        <time>2020-10-04T13:05:52.729Z</time>
      </trkpt>
      <trkpt lat="44.03651" lon="1.87975">
        <ele>264</ele>
        <time>2020-10-04T13:05:53.729Z</time>
      </trkpt>
      <trkpt lat="44.0365" lon="1.87974">
        <ele>264</ele>
        <time>2020-10-04T13:05:54.729Z</time>
      </trkpt>
      <trkpt lat="44.03649" lon="1.87974">
        <ele>264</ele>
        <time>2020-10-04T13:05:55.729Z</time>
      </trkpt>
      <trkpt lat="44.03648" lon="1.87974">
        <ele>264</ele>
        <time>2020-10-04T13:05:56.729Z</time>
      </trkpt>
      <trkpt lat="44.03647" lon="1.87974">
        <ele>264</ele>
        <time>2020-10-04T13:05:57.729Z</time>
      </trkpt>
      <trkpt lat="44.03646" lon="1.87973">
        <ele>264</ele>
        <time>2020-10-04T13:05:58.729Z</time>
      </trkpt>
      <trkpt lat="44.03645" lon="1.87973">
        <ele>264</ele>
        <time>2020-10-04T13:05:59.729Z</time>
      </trkpt>
      <trkpt lat="44.03644" lon="1.87972">
        <ele>264</ele>
        <time>2020-10-04T13:06:00.729Z</time>
      </trkpt>
      <trkpt lat="44.03643" lon="1.87972">
        <ele>264</ele>
        <time>2020-10-04T13:06:01.729Z</time>
      </trkpt>
      <trkpt lat="44.03642" lon="1.87972">
        <ele>264</ele>
        <time>2020-10-04T13:06:02.729Z</time>
      </trkpt>
      <trkpt lat="44.03641" lon="1.87972">
        <ele>264</ele>
        <time>2020-10-04T13:06:03.729Z</time>
      </trkpt>
      <trkpt lat="44.0364" lon="1.87971">
        <ele>264</ele>
        <time>2020-10-04T13:06:04.729Z</time>
      </trkpt>
      <trkpt lat="44.03639" lon="1.87971">
        <ele>264</ele>
        <time>2020-10-04T13:06:05.729Z</time>
      </trkpt>
      <trkpt lat="44.03638" lon="1.87971">
        <ele>264</ele>
        <time>2020-10-04T13:06:06.729Z</time>
      </trkpt>
      <trkpt lat="44.03637" lon="1.8797">
        <ele>264</ele>
        <time>2020-10-04T13:06:07.729Z</time>
      </trkpt>
      <trkpt lat="44.03635" lon="1.8797">
        <ele>264</ele>
        <time>2020-10-04T13:06:08.729Z</time>
      </trkpt>
      <trkpt lat="44.03634" lon="1.8797">
        <ele>264</ele>
        <time>2020-10-04T13:06:09.729Z</time>
      </trkpt>
      <trkpt lat="44.03633" lon="1.8797">
        <ele>263</ele>
        <time>2020-10-04T13:06:10.729Z</time>
      </trkpt>
      <trkpt lat="44.03632" lon="1.87969">
        <ele>263</ele>
        <time>2020-10-04T13:06:11.729Z</time>
      </trkpt>
      <trkpt lat="44.03631" lon="1.87969">
        <ele>263</ele>
        <time>2020-10-04T13:06:12.729Z</time>
      </trkpt>
      <trkpt lat="44.0363" lon="1.87969">
        <ele>263</ele>
        <time>2020-10-04T13:06:13.729Z</time>
      </trkpt>
      <trkpt lat="44.03629" lon="1.87969">
        <ele>263</ele>
        <time>2020-10-04T13:06:14.729Z</time>
      </trkpt>
      <trkpt lat="44.03628" lon="1.87969">
        <ele>263</ele>
        <time>2020-10-04T13:06:15.729Z</time>
      </trkpt>
      <trkpt lat="44.03627" lon="1.87969">
        <ele>263</ele>
        <time>2020-10-04T13:06:16.729Z</time>
      </trkpt>
      <trkpt lat="44.03626" lon="1.87969">
        <ele>263</ele>
        <time>2020-10-04T13:06:17.729Z</time>
      </trkpt>
      <trkpt lat="44.03625" lon="1.87969">
        <ele>263</ele>
        <time>2020-10-04T13:06:18.729Z</time>
      </trkpt>
      <trkpt lat="44.03624" lon="1.87969">
        <ele>263</ele>
        <time>2020-10-04T13:06:19.729Z</time>
      </trkpt>
      <trkpt lat="44.03623" lon="1.87969">
        <ele>263</ele>
        <time>2020-10-04T13:06:20.729Z</time>
      </trkpt>
      <trkpt lat="44.03622" lon="1.87969">
        <ele>263</ele>
        <time>2020-10-04T13:06:21.729Z</time>
      </trkpt>
      <trkpt lat="44.0362" lon="1.87969">
        <ele>263</ele>
        <time>2020-10-04T13:06:22.729Z</time>
      </trkpt>
      <trkpt lat="44.03619" lon="1.8797">
        <ele>263</ele>
        <time>2020-10-04T13:06:23.729Z</time>
      </trkpt>
      <trkpt lat="44.03618" lon="1.8797">
        <ele>263</ele>
        <time>2020-10-04T13:06:24.729Z</time>
      </trkpt>
      <trkpt lat="44.03617" lon="1.8797">
        <ele>263</ele>
        <time>2020-10-04T13:06:25.729Z</time>
      </trkpt>
      <trkpt lat="44.03616" lon="1.87971">
        <ele>263</ele>
        <time>2020-10-04T13:06:26.729Z</time>
      </trkpt>
      <trkpt lat="44.03614" lon="1.87971">
        <ele>263</ele>
        <time>2020-10-04T13:06:27.729Z</time>
      </trkpt>
      <trkpt lat="44.03613" lon="1.87972">
        <ele>263</ele>
        <time>2020-10-04T13:06:28.729Z</time>
      </trkpt>
      <trkpt lat="44.03612" lon="1.87973">
        <ele>263</ele>
        <time>2020-10-04T13:06:29.729Z</time>
      </trkpt>
      <trkpt lat="44.03611" lon="1.87973">
        <ele>262</ele>
        <time>2020-10-04T13:06:30.729Z</time>
      </trkpt>
      <trkpt lat="44.0361" lon="1.87974">
        <ele>262</ele>
        <time>2020-10-04T13:06:31.729Z</time>
      </trkpt>
      <trkpt lat="44.03609" lon="1.87974">
        <ele>262</ele>
        <time>2020-10-04T13:06:32.729Z</time>
      </trkpt>
      <trkpt lat="44.03608" lon="1.87975">
        <ele>262</ele>
        <time>2020-10-04T13:06:33.729Z</time>
      </trkpt>
      <trkpt lat="44.03607" lon="1.87975">
        <ele>262</ele>
        <time>2020-10-04T13:06:34.729Z</time>
      </trkpt>
      <trkpt lat="44.03606" lon="1.87975">
        <ele>262</ele>
        <time>2020-10-04T13:06:35.729Z</time>
      </trkpt>
      <trkpt lat="44.03605" lon="1.87975">
        <ele>262</ele>
        <time>2020-10-04T13:06:36.729Z</time>
      </trkpt>
      <trkpt lat="44.03604" lon="1.87975">
        <ele>262</ele>
        <time>2020-10-04T13:06:37.729Z</time>
      </trkpt>
      <trkpt lat="44.03603" lon="1.87975">
        <ele>261</ele>
        <time>2020-10-04T13:06:38.729Z</time>
      </trkpt>
      <trkpt lat="44.03602" lon="1.87975">
        <ele>261</ele>
        <time>2020-10-04T13:06:39.729Z</time>
      </trkpt>
      <trkpt lat="44.036" lon="1.87976">
        <ele>261</ele>
        <time>2020-10-04T13:06:40.729Z</time>
      </trkpt>
      <trkpt lat="44.03599" lon="1.87976">
        <ele>261</ele>
        <time>2020-10-04T13:06:41.729Z</time>
      </trkpt>
      <trkpt lat="44.03598" lon="1.87976">
        <ele>261</ele>
        <time>2020-10-04T13:06:42.729Z</time>
      </trkpt>
      <trkpt lat="44.03597" lon="1.87977">
        <ele>261</ele>
        <time>2020-10-04T13:06:43.729Z</time>
      </trkpt>
      <trkpt lat="44.03596" lon="1.87977">
        <ele>261</ele>
        <time>2020-10-04T13:06:44.729Z</time>
      </trkpt>
      <trkpt lat="44.03594" lon="1.87977">
        <ele>261</ele>
        <time>2020-10-04T13:06:45.729Z</time>
      </trkpt>
      <trkpt lat="44.03593" lon="1.87977">
        <ele>260</ele>
        <time>2020-10-04T13:06:46.729Z</time>
      </trkpt>
      <trkpt lat="44.03592" lon="1.87977">
        <ele>260</ele>
        <time>2020-10-04T13:06:47.729Z</time>
      </trkpt>
      <trkpt lat="44.03591" lon="1.87977">
        <ele>260</ele>
        <time>2020-10-04T13:06:48.729Z</time>
      </trkpt>
      <trkpt lat="44.0359" lon="1.87976">
        <ele>260</ele>
        <time>2020-10-04T13:06:49.729Z</time>
      </trkpt>
      <trkpt lat="44.03589" lon="1.87976">
        <ele>260</ele>
        <time>2020-10-04T13:06:50.729Z</time>
      </trkpt>
      <trkpt lat="44.03588" lon="1.87976">
        <ele>260</ele>
        <time>2020-10-04T13:06:51.729Z</time>
      </trkpt>
      <trkpt lat="44.03587" lon="1.87976">
        <ele>260</ele>
        <time>2020-10-04T13:06:52.729Z</time>
      </trkpt>
      <trkpt lat="44.03586" lon="1.87975">
        <ele>260</ele>
        <time>2020-10-04T13:06:53.729Z</time>
      </trkpt>
      <trkpt lat="44.03585" lon="1.87976">
        <ele>260</ele>
        <time>2020-10-04T13:06:54.729Z</time>
      </trkpt>
      <trkpt lat="44.03584" lon="1.87976">
        <ele>260</ele>
        <time>2020-10-04T13:06:55.729Z</time>
      </trkpt>
      <trkpt lat="44.03583" lon="1.87975">
        <ele>260</ele>
        <time>2020-10-04T13:06:56.729Z</time>
      </trkpt>
      <trkpt lat="44.03582" lon="1.87975">
        <ele>261</ele>
        <time>2020-10-04T13:06:57.729Z</time>
      </trkpt>
      <trkpt lat="44.03581" lon="1.87975">
        <ele>261</ele>
        <time>2020-10-04T13:06:58.729Z</time>
      </trkpt>
      <trkpt lat="44.0358" lon="1.87975">
        <ele>261</ele>
        <time>2020-10-04T13:06:59.729Z</time>
      </trkpt>
      <trkpt lat="44.03579" lon="1.87974">
        <ele>261</ele>
        <time>2020-10-04T13:07:00.729Z</time>
      </trkpt>
      <trkpt lat="44.03578" lon="1.87974">
        <ele>261</ele>
        <time>2020-10-04T13:07:01.729Z</time>
      </trkpt>
      <trkpt lat="44.03577" lon="1.87974">
        <ele>260</ele>
        <time>2020-10-04T13:07:02.729Z</time>
      </trkpt>
      <trkpt lat="44.03576" lon="1.87974">
        <ele>260</ele>
        <time>2020-10-04T13:07:03.729Z</time>
      </trkpt>
      <trkpt lat="44.03575" lon="1.87974">
        <ele>260</ele>
        <time>2020-10-04T13:07:04.729Z</time>
      </trkpt>
      <trkpt lat="44.03574" lon="1.87973">
        <ele>260</ele>
        <time>2020-10-04T13:07:05.729Z</time>
      </trkpt>
      <trkpt lat="44.03573" lon="1.87973">
        <ele>260</ele>
        <time>2020-10-04T13:07:06.729Z</time>
      </trkpt>
      <trkpt lat="44.03571" lon="1.87973">
        <ele>260</ele>
        <time>2020-10-04T13:07:07.729Z</time>
      </trkpt>
      <trkpt lat="44.0357" lon="1.87973">
        <ele>260</ele>
        <time>2020-10-04T13:07:08.729Z</time>
      </trkpt>
      <trkpt lat="44.03569" lon="1.87973">
        <ele>260</ele>
        <time>2020-10-04T13:07:09.729Z</time>
      </trkpt>
      <trkpt lat="44.03568" lon="1.87972">
        <ele>260</ele>
        <time>2020-10-04T13:07:10.729Z</time>
      </trkpt>
      <trkpt lat="44.03566" lon="1.87972">
        <ele>260</ele>
        <time>2020-10-04T13:07:11.729Z</time>
      </trkpt>
      <trkpt lat="44.03565" lon="1.87972">
        <ele>260</ele>
        <time>2020-10-04T13:07:12.729Z</time>
      </trkpt>
      <trkpt lat="44.03564" lon="1.87971">
        <ele>260</ele>
        <time>2020-10-04T13:07:13.729Z</time>
      </trkpt>
      <trkpt lat="44.03563" lon="1.87971">
        <ele>260</ele>
        <time>2020-10-04T13:07:14.729Z</time>
      </trkpt>
      <trkpt lat="44.03562" lon="1.8797">
        <ele>260</ele>
        <time>2020-10-04T13:07:15.729Z</time>
      </trkpt>
      <trkpt lat="44.0356" lon="1.8797">
        <ele>260</ele>
        <time>2020-10-04T13:07:16.729Z</time>
      </trkpt>
      <trkpt lat="44.03559" lon="1.8797">
        <ele>260</ele>
        <time>2020-10-04T13:07:17.729Z</time>
      </trkpt>
      <trkpt lat="44.03559" lon="1.8797">
        <ele>260</ele>
        <time>2020-10-04T13:07:18.729Z</time>
      </trkpt>
      <trkpt lat="44.03558" lon="1.87969">
        <ele>260</ele>
        <time>2020-10-04T13:07:19.729Z</time>
      </trkpt>
      <trkpt lat="44.03557" lon="1.87969">
        <ele>260</ele>
        <time>2020-10-04T13:07:20.729Z</time>
      </trkpt>
      <trkpt lat="44.03556" lon="1.87969">
        <ele>259</ele>
        <time>2020-10-04T13:07:21.729Z</time>
      </trkpt>
      <trkpt lat="44.03555" lon="1.87969">
        <ele>259</ele>
        <time>2020-10-04T13:07:22.729Z</time>
      </trkpt>
      <trkpt lat="44.03555" lon="1.87969">
        <ele>259</ele>
        <time>2020-10-04T13:07:23.729Z</time>
      </trkpt>
      <trkpt lat="44.03553" lon="1.87968">
        <ele>259</ele>
        <time>2020-10-04T13:07:24.729Z</time>
      </trkpt>
      <trkpt lat="44.03552" lon="1.87967">
        <ele>259</ele>
        <time>2020-10-04T13:07:25.729Z</time>
      </trkpt>
      <trkpt lat="44.03551" lon="1.87967">
        <ele>259</ele>
        <time>2020-10-04T13:07:26.729Z</time>
      </trkpt>
      <trkpt lat="44.0355" lon="1.87966">
        <ele>259</ele>
        <time>2020-10-04T13:07:27.729Z</time>
      </trkpt>
      <trkpt lat="44.03549" lon="1.87966">
        <ele>259</ele>
        <time>2020-10-04T13:07:28.729Z</time>
      </trkpt>
      <trkpt lat="44.03548" lon="1.87966">
        <ele>259</ele>
        <time>2020-10-04T13:07:29.729Z</time>
      </trkpt>
      <trkpt lat="44.03547" lon="1.87966">
        <ele>259</ele>
        <time>2020-10-04T13:07:30.729Z</time>
      </trkpt>
      <trkpt lat="44.03546" lon="1.87965">
        <ele>259</ele>
        <time>2020-10-04T13:07:31.729Z</time>
      </trkpt>
      <trkpt lat="44.03545" lon="1.87965">
        <ele>259</ele>
        <time>2020-10-04T13:07:32.729Z</time>
      </trkpt>
      <trkpt lat="44.03544" lon="1.87965">
        <ele>259</ele>
        <time>2020-10-04T13:07:33.729Z</time>
      </trkpt>
      <trkpt lat="44.03543" lon="1.87965">
        <ele>259</ele>
        <time>2020-10-04T13:07:34.729Z</time>
      </trkpt>
      <trkpt lat="44.03542" lon="1.87964">
        <ele>259</ele>
        <time>2020-10-04T13:07:35.729Z</time>
      </trkpt>
      <trkpt lat="44.03541" lon="1.87964">
        <ele>259</ele>
        <time>2020-10-04T13:07:36.729Z</time>
      </trkpt>
      <trkpt lat="44.0354" lon="1.87964">
        <ele>259</ele>
        <time>2020-10-04T13:07:37.729Z</time>
      </trkpt>
      <trkpt lat="44.03538" lon="1.87964">
        <ele>259</ele>
        <time>2020-10-04T13:07:38.729Z</time>
      </trkpt>
      <trkpt lat="44.03537" lon="1.87963">
        <ele>259</ele>
        <time>2020-10-04T13:07:39.729Z</time>
      </trkpt>
      <trkpt lat="44.03536" lon="1.87963">
        <ele>259</ele>
        <time>2020-10-04T13:07:40.729Z</time>
      </trkpt>
      <trkpt lat="44.03535" lon="1.87963">
        <ele>259</ele>
        <time>2020-10-04T13:07:41.729Z</time>
      </trkpt>
      <trkpt lat="44.03534" lon="1.87963">
        <ele>259</ele>
        <time>2020-10-04T13:07:42.729Z</time>
      </trkpt>
      <trkpt lat="44.03533" lon="1.87963">
        <ele>259</ele>
        <time>2020-10-04T13:07:43.729Z</time>
      </trkpt>
      <trkpt lat="44.03532" lon="1.87963">
        <ele>259</ele>
        <time>2020-10-04T13:07:44.729Z</time>
      </trkpt>
      <trkpt lat="44.03531" lon="1.87962">
        <ele>259</ele>
        <time>2020-10-04T13:07:45.729Z</time>
      </trkpt>
      <trkpt lat="44.03529" lon="1.87962">
        <ele>259</ele>
        <time>2020-10-04T13:07:46.729Z</time>
      </trkpt>
      <trkpt lat="44.03528" lon="1.87962">
        <ele>259</ele>
        <time>2020-10-04T13:07:47.729Z</time>
      </trkpt>
      <trkpt lat="44.03527" lon="1.87962">
        <ele>259</ele>
        <time>2020-10-04T13:07:48.729Z</time>
      </trkpt>
      <trkpt lat="44.03526" lon="1.87962">
        <ele>259</ele>
        <time>2020-10-04T13:07:49.729Z</time>
      </trkpt>
      <trkpt lat="44.03525" lon="1.87961">
        <ele>259</ele>
        <time>2020-10-04T13:07:50.729Z</time>
      </trkpt>
      <trkpt lat="44.03524" lon="1.87961">
        <ele>259</ele>
        <time>2020-10-04T13:07:51.729Z</time>
      </trkpt>
      <trkpt lat="44.03523" lon="1.87961">
        <ele>259</ele>
        <time>2020-10-04T13:07:52.729Z</time>
      </trkpt>
      <trkpt lat="44.03522" lon="1.87961">
        <ele>259</ele>
        <time>2020-10-04T13:07:53.729Z</time>
      </trkpt>
      <trkpt lat="44.03521" lon="1.8796">
        <ele>259</ele>
        <time>2020-10-04T13:07:54.729Z</time>
      </trkpt>
      <trkpt lat="44.0352" lon="1.8796">
        <ele>259</ele>
        <time>2020-10-04T13:07:55.729Z</time>
      </trkpt>
      <trkpt lat="44.03519" lon="1.8796">
        <ele>260</ele>
        <time>2020-10-04T13:07:56.729Z</time>
      </trkpt>
      <trkpt lat="44.03518" lon="1.8796">
        <ele>260</ele>
        <time>2020-10-04T13:07:57.729Z</time>
      </trkpt>
      <trkpt lat="44.03517" lon="1.87959">
        <ele>260</ele>
        <time>2020-10-04T13:07:58.729Z</time>
      </trkpt>
      <trkpt lat="44.03516" lon="1.87959">
        <ele>260</ele>
        <time>2020-10-04T13:07:59.729Z</time>
      </trkpt>
      <trkpt lat="44.03515" lon="1.87959">
        <ele>260</ele>
        <time>2020-10-04T13:08:00.729Z</time>
      </trkpt>
      <trkpt lat="44.03514" lon="1.87958">
        <ele>260</ele>
        <time>2020-10-04T13:08:01.729Z</time>
      </trkpt>
      <trkpt lat="44.03513" lon="1.87957">
        <ele>260</ele>
        <time>2020-10-04T13:08:02.729Z</time>
      </trkpt>
      <trkpt lat="44.03512" lon="1.87957">
        <ele>260</ele>
        <time>2020-10-04T13:08:03.729Z</time>
      </trkpt>
      <trkpt lat="44.03511" lon="1.87956">
        <ele>260</ele>
        <time>2020-10-04T13:08:04.729Z</time>
      </trkpt>
      <trkpt lat="44.0351" lon="1.87956">
        <ele>260</ele>
        <time>2020-10-04T13:08:05.729Z</time>
      </trkpt>
      <trkpt lat="44.03509" lon="1.87955">
        <ele>260</ele>
        <time>2020-10-04T13:08:06.729Z</time>
      </trkpt>
      <trkpt lat="44.03508" lon="1.87954">
        <ele>260</ele>
        <time>2020-10-04T13:08:07.729Z</time>
      </trkpt>
      <trkpt lat="44.03507" lon="1.87954">
        <ele>260</ele>
        <time>2020-10-04T13:08:08.729Z</time>
      </trkpt>
      <trkpt lat="44.03506" lon="1.87952">
        <ele>260</ele>
        <time>2020-10-04T13:08:09.729Z</time>
      </trkpt>
      <trkpt lat="44.03505" lon="1.87951">
        <ele>260</ele>
        <time>2020-10-04T13:08:10.729Z</time>
      </trkpt>
      <trkpt lat="44.03504" lon="1.8795">
        <ele>260</ele>
        <time>2020-10-04T13:08:11.729Z</time>
      </trkpt>
      <trkpt lat="44.03504" lon="1.87949">
        <ele>260</ele>
        <time>2020-10-04T13:08:12.729Z</time>
      </trkpt>
      <trkpt lat="44.03503" lon="1.87948">
        <ele>260</ele>
        <time>2020-10-04T13:08:13.729Z</time>
      </trkpt>
      <trkpt lat="44.03503" lon="1.87947">
        <ele>260</ele>
        <time>2020-10-04T13:08:14.729Z</time>
      </trkpt>
      <trkpt lat="44.03503" lon="1.87946">
        <ele>260</ele>
        <time>2020-10-04T13:08:15.729Z</time>
      </trkpt>
      <trkpt lat="44.03502" lon="1.87945">
        <ele>260</ele>
        <time>2020-10-04T13:08:16.729Z</time>
      </trkpt>
      <trkpt lat="44.03502" lon="1.87944">
        <ele>260</ele>
        <time>2020-10-04T13:08:17.729Z</time>
      </trkpt>
      <trkpt lat="44.03502" lon="1.87942">
        <ele>260</ele>
        <time>2020-10-04T13:08:18.729Z</time>
      </trkpt>
      <trkpt lat="44.03501" lon="1.87941">
        <ele>260</ele>
        <time>2020-10-04T13:08:19.729Z</time>
      </trkpt>
      <trkpt lat="44.03501" lon="1.8794">
        <ele>260</ele>
        <time>2020-10-04T13:08:20.729Z</time>
      </trkpt>
      <trkpt lat="44.03501" lon="1.87939">
        <ele>260</ele>
        <time>2020-10-04T13:08:21.729Z</time>
      </trkpt>
      <trkpt lat="44.035" lon="1.87937">
        <ele>260</ele>
        <time>2020-10-04T13:08:22.729Z</time>
      </trkpt>
      <trkpt lat="44.035" lon="1.87936">
        <ele>260</ele>
        <time>2020-10-04T13:08:23.729Z</time>
      </trkpt>
      <trkpt lat="44.035" lon="1.87935">
        <ele>260</ele>
        <time>2020-10-04T13:08:24.729Z</time>
      </trkpt>
      <trkpt lat="44.03499" lon="1.87934">
        <ele>260</ele>
        <time>2020-10-04T13:08:25.729Z</time>
      </trkpt>
      <trkpt lat="44.03499" lon="1.87933">
        <ele>260</ele>
        <time>2020-10-04T13:08:26.729Z</time>
      </trkpt>
      <trkpt lat="44.03499" lon="1.87931">
        <ele>260</ele>
        <time>2020-10-04T13:08:27.729Z</time>
      </trkpt>
      <trkpt lat="44.03499" lon="1.8793">
        <ele>260</ele>
        <time>2020-10-04T13:08:28.729Z</time>
      </trkpt>
      <trkpt lat="44.03499" lon="1.87929">
        <ele>260</ele>
        <time>2020-10-04T13:08:29.729Z</time>
      </trkpt>
      <trkpt lat="44.03499" lon="1.87929">
        <ele>260</ele>
        <time>2020-10-04T13:08:30.729Z</time>
      </trkpt>
      <trkpt lat="44.03499" lon="1.87928">
        <ele>260</ele>
        <time>2020-10-04T13:08:31.729Z</time>
      </trkpt>
      <trkpt lat="44.035" lon="1.87927">
        <ele>260</ele>
        <time>2020-10-04T13:08:32.729Z</time>
      </trkpt>
      <trkpt lat="44.035" lon="1.87926">
        <ele>260</ele>
        <time>2020-10-04T13:08:33.729Z</time>
      </trkpt>
      <trkpt lat="44.035" lon="1.87925">
        <ele>260</ele>
        <time>2020-10-04T13:08:34.729Z</time>
      </trkpt>
      <trkpt lat="44.035" lon="1.87924">
        <ele>260</ele>
        <time>2020-10-04T13:08:35.729Z</time>
      </trkpt>
      <trkpt lat="44.035" lon="1.87923">
        <ele>260</ele>
        <time>2020-10-04T13:08:36.729Z</time>
      </trkpt>
      <trkpt lat="44.035" lon="1.87922">
        <ele>260</ele>
        <time>2020-10-04T13:08:37.729Z</time>
      </trkpt>
      <trkpt lat="44.035" lon="1.87921">
        <ele>260</ele>
        <time>2020-10-04T13:08:38.729Z</time>
      </trkpt>
      <trkpt lat="44.035" lon="1.8792">
        <ele>260</ele>
        <time>2020-10-04T13:08:39.729Z</time>
      </trkpt>
      <trkpt lat="44.035" lon="1.87918">
        <ele>260</ele>
        <time>2020-10-04T13:08:40.729Z</time>
      </trkpt>
      <trkpt lat="44.035" lon="1.87918">
        <ele>260</ele>
        <time>2020-10-04T13:08:41.729Z</time>
      </trkpt>
      <trkpt lat="44.035" lon="1.87917">
        <ele>260</ele>
        <time>2020-10-04T13:08:42.729Z</time>
      </trkpt>
      <trkpt lat="44.035" lon="1.87915">
        <ele>260</ele>
        <time>2020-10-04T13:08:43.729Z</time>
      </trkpt>
      <trkpt lat="44.035" lon="1.87914">
        <ele>260</ele>
        <time>2020-10-04T13:08:44.729Z</time>
      </trkpt>
      <trkpt lat="44.035" lon="1.87913">
        <ele>260</ele>
        <time>2020-10-04T13:08:45.729Z</time>
      </trkpt>
      <trkpt lat="44.03501" lon="1.87912">
        <ele>260</ele>
        <time>2020-10-04T13:08:46.729Z</time>
      </trkpt>
      <trkpt lat="44.03501" lon="1.87911">
        <ele>260</ele>
        <time>2020-10-04T13:08:47.729Z</time>
      </trkpt>
      <trkpt lat="44.03501" lon="1.8791">
        <ele>261</ele>
        <time>2020-10-04T13:08:48.729Z</time>
      </trkpt>
      <trkpt lat="44.03501" lon="1.87908">
        <ele>261</ele>
        <time>2020-10-04T13:08:49.729Z</time>
      </trkpt>
      <trkpt lat="44.03501" lon="1.87907">
        <ele>261</ele>
        <time>2020-10-04T13:08:50.729Z</time>
      </trkpt>
      <trkpt lat="44.03501" lon="1.87905">
        <ele>261</ele>
        <time>2020-10-04T13:08:51.729Z</time>
      </trkpt>
      <trkpt lat="44.03501" lon="1.87904">
        <ele>261</ele>
        <time>2020-10-04T13:08:52.729Z</time>
      </trkpt>
      <trkpt lat="44.03501" lon="1.87903">
        <ele>261</ele>
        <time>2020-10-04T13:08:53.729Z</time>
      </trkpt>
      <trkpt lat="44.03502" lon="1.87901">
        <ele>261</ele>
        <time>2020-10-04T13:08:54.729Z</time>
      </trkpt>
      <trkpt lat="44.03502" lon="1.879">
        <ele>261</ele>
        <time>2020-10-04T13:08:55.729Z</time>
      </trkpt>
      <trkpt lat="44.03502" lon="1.87899">
        <ele>261</ele>
        <time>2020-10-04T13:08:56.729Z</time>
      </trkpt>
      <trkpt lat="44.03502" lon="1.87897">
        <ele>261</ele>
        <time>2020-10-04T13:08:57.729Z</time>
      </trkpt>
      <trkpt lat="44.03502" lon="1.87896">
        <ele>261</ele>
        <time>2020-10-04T13:08:58.729Z</time>
      </trkpt>
      <trkpt lat="44.03502" lon="1.87895">
        <ele>261</ele>
        <time>2020-10-04T13:08:59.729Z</time>
      </trkpt>
      <trkpt lat="44.03503" lon="1.87894">
        <ele>261</ele>
        <time>2020-10-04T13:09:00.729Z</time>
      </trkpt>
      <trkpt lat="44.03503" lon="1.87893">
        <ele>261</ele>
        <time>2020-10-04T13:09:01.729Z</time>
      </trkpt>
      <trkpt lat="44.03503" lon="1.87892">
        <ele>262</ele>
        <time>2020-10-04T13:09:02.729Z</time>
      </trkpt>
      <trkpt lat="44.03503" lon="1.87891">
        <ele>262</ele>
        <time>2020-10-04T13:09:03.729Z</time>
      </trkpt>
      <trkpt lat="44.03503" lon="1.8789">
        <ele>262</ele>
        <time>2020-10-04T13:09:04.729Z</time>
      </trkpt>
      <trkpt lat="44.03503" lon="1.87888">
        <ele>262</ele>
        <time>2020-10-04T13:09:05.729Z</time>
      </trkpt>
      <trkpt lat="44.03504" lon="1.87887">
        <ele>262</ele>
        <time>2020-10-04T13:09:06.729Z</time>
      </trkpt>
      <trkpt lat="44.03504" lon="1.87886">
        <ele>262</ele>
        <time>2020-10-04T13:09:07.729Z</time>
      </trkpt>
      <trkpt lat="44.03504" lon="1.87885">
        <ele>263</ele>
        <time>2020-10-04T13:09:08.729Z</time>
      </trkpt>
      <trkpt lat="44.03504" lon="1.87884">
        <ele>263</ele>
        <time>2020-10-04T13:09:09.729Z</time>
      </trkpt>
      <trkpt lat="44.03504" lon="1.87883">
        <ele>263</ele>
        <time>2020-10-04T13:09:10.729Z</time>
      </trkpt>
      <trkpt lat="44.03505" lon="1.87881">
        <ele>263</ele>
        <time>2020-10-04T13:09:11.729Z</time>
      </trkpt>
      <trkpt lat="44.03505" lon="1.8788">
        <ele>263</ele>
        <time>2020-10-04T13:09:12.729Z</time>
      </trkpt>
      <trkpt lat="44.03505" lon="1.87879">
        <ele>263</ele>
        <time>2020-10-04T13:09:13.729Z</time>
      </trkpt>
      <trkpt lat="44.03506" lon="1.87877">
        <ele>263</ele>
        <time>2020-10-04T13:09:14.729Z</time>
      </trkpt>
      <trkpt lat="44.03506" lon="1.87876">
        <ele>264</ele>
        <time>2020-10-04T13:09:15.729Z</time>
      </trkpt>
      <trkpt lat="44.03506" lon="1.87874">
        <ele>264</ele>
        <time>2020-10-04T13:09:16.729Z</time>
      </trkpt>
      <trkpt lat="44.03506" lon="1.87873">
        <ele>264</ele>
        <time>2020-10-04T13:09:17.729Z</time>
      </trkpt>
      <trkpt lat="44.03506" lon="1.87873">
        <ele>264</ele>
        <time>2020-10-04T13:09:18.729Z</time>
      </trkpt>
      <trkpt lat="44.03506" lon="1.87873">
        <ele>264</ele>
        <time>2020-10-04T13:09:19.729Z</time>
      </trkpt>
      <trkpt lat="44.03506" lon="1.87873">
        <ele>264</ele>
        <time>2020-10-04T13:09:20.729Z</time>
      </trkpt>
      <trkpt lat="44.03507" lon="1.8787">
        <ele>265</ele>
        <time>2020-10-04T13:09:21.729Z</time>
      </trkpt>
      <trkpt lat="44.03508" lon="1.87868">
        <ele>265</ele>
        <time>2020-10-04T13:09:22.729Z</time>
      </trkpt>
      <trkpt lat="44.03508" lon="1.87867">
        <ele>266</ele>
        <time>2020-10-04T13:09:23.729Z</time>
      </trkpt>
      <trkpt lat="44.03508" lon="1.87866">
        <ele>266</ele>
        <time>2020-10-04T13:09:24.729Z</time>
      </trkpt>
      <trkpt lat="44.03508" lon="1.87865">
        <ele>266</ele>
        <time>2020-10-04T13:09:25.729Z</time>
      </trkpt>
      <trkpt lat="44.03509" lon="1.87864">
        <ele>266</ele>
        <time>2020-10-04T13:09:26.729Z</time>
      </trkpt>
      <trkpt lat="44.03509" lon="1.87862">
        <ele>267</ele>
        <time>2020-10-04T13:09:27.729Z</time>
      </trkpt>
      <trkpt lat="44.03509" lon="1.8786">
        <ele>267</ele>
        <time>2020-10-04T13:09:28.729Z</time>
      </trkpt>
      <trkpt lat="44.0351" lon="1.87859">
        <ele>267</ele>
        <time>2020-10-04T13:09:29.729Z</time>
      </trkpt>
      <trkpt lat="44.0351" lon="1.87858">
        <ele>267</ele>
        <time>2020-10-04T13:09:30.729Z</time>
      </trkpt>
      <trkpt lat="44.0351" lon="1.87857">
        <ele>267</ele>
        <time>2020-10-04T13:09:31.729Z</time>
      </trkpt>
      <trkpt lat="44.0351" lon="1.87855">
        <ele>268</ele>
        <time>2020-10-04T13:09:32.729Z</time>
      </trkpt>
      <trkpt lat="44.0351" lon="1.87855">
        <ele>268</ele>
        <time>2020-10-04T13:09:33.729Z</time>
      </trkpt>
      <trkpt lat="44.0351" lon="1.87854">
        <ele>268</ele>
        <time>2020-10-04T13:09:34.729Z</time>
      </trkpt>
      <trkpt lat="44.0351" lon="1.87853">
        <ele>268</ele>
        <time>2020-10-04T13:09:35.729Z</time>
      </trkpt>
      <trkpt lat="44.03511" lon="1.87852">
        <ele>268</ele>
        <time>2020-10-04T13:09:36.729Z</time>
      </trkpt>
      <trkpt lat="44.03511" lon="1.87851">
        <ele>268</ele>
        <time>2020-10-04T13:09:37.729Z</time>
      </trkpt>
      <trkpt lat="44.03511" lon="1.8785">
        <ele>268</ele>
        <time>2020-10-04T13:09:38.729Z</time>
      </trkpt>
      <trkpt lat="44.03512" lon="1.87849">
        <ele>268</ele>
        <time>2020-10-04T13:09:39.729Z</time>
      </trkpt>
      <trkpt lat="44.03512" lon="1.87848">
        <ele>269</ele>
        <time>2020-10-04T13:09:40.729Z</time>
      </trkpt>
      <trkpt lat="44.03512" lon="1.87847">
        <ele>269</ele>
        <time>2020-10-04T13:09:41.729Z</time>
      </trkpt>
      <trkpt lat="44.03512" lon="1.87847">
        <ele>269</ele>
        <time>2020-10-04T13:09:42.729Z</time>
      </trkpt>
      <trkpt lat="44.03512" lon="1.87846">
        <ele>269</ele>
        <time>2020-10-04T13:09:43.729Z</time>
      </trkpt>
      <trkpt lat="44.03512" lon="1.87843">
        <ele>269</ele>
        <time>2020-10-04T13:09:44.729Z</time>
      </trkpt>
      <trkpt lat="44.03513" lon="1.87841">
        <ele>269</ele>
        <time>2020-10-04T13:09:45.729Z</time>
      </trkpt>
      <trkpt lat="44.03513" lon="1.8784">
        <ele>269</ele>
        <time>2020-10-04T13:09:46.729Z</time>
      </trkpt>
      <trkpt lat="44.03513" lon="1.87839">
        <ele>270</ele>
        <time>2020-10-04T13:09:47.729Z</time>
      </trkpt>
      <trkpt lat="44.03514" lon="1.87838">
        <ele>270</ele>
        <time>2020-10-04T13:09:48.729Z</time>
      </trkpt>
      <trkpt lat="44.03514" lon="1.87837">
        <ele>270</ele>
        <time>2020-10-04T13:09:49.729Z</time>
      </trkpt>
      <trkpt lat="44.03514" lon="1.87835">
        <ele>270</ele>
        <time>2020-10-04T13:09:50.729Z</time>
      </trkpt>
      <trkpt lat="44.03515" lon="1.87834">
        <ele>270</ele>
        <time>2020-10-04T13:09:51.729Z</time>
      </trkpt>
      <trkpt lat="44.03515" lon="1.87833">
        <ele>270</ele>
        <time>2020-10-04T13:09:52.729Z</time>
      </trkpt>
      <trkpt lat="44.03515" lon="1.87831">
        <ele>270</ele>
        <time>2020-10-04T13:09:53.729Z</time>
      </trkpt>
      <trkpt lat="44.03516" lon="1.8783">
        <ele>270</ele>
        <time>2020-10-04T13:09:54.729Z</time>
      </trkpt>
      <trkpt lat="44.03516" lon="1.87828">
        <ele>270</ele>
        <time>2020-10-04T13:09:55.729Z</time>
      </trkpt>
      <trkpt lat="44.03516" lon="1.87826">
        <ele>270</ele>
        <time>2020-10-04T13:09:56.729Z</time>
      </trkpt>
      <trkpt lat="44.03517" lon="1.87825">
        <ele>270</ele>
        <time>2020-10-04T13:09:57.729Z</time>
      </trkpt>
      <trkpt lat="44.03517" lon="1.87824">
        <ele>270</ele>
        <time>2020-10-04T13:09:58.729Z</time>
      </trkpt>
      <trkpt lat="44.03518" lon="1.87822">
        <ele>270</ele>
        <time>2020-10-04T13:09:59.729Z</time>
      </trkpt>
      <trkpt lat="44.03518" lon="1.87822">
        <ele>270</ele>
        <time>2020-10-04T13:10:00.729Z</time>
      </trkpt>
      <trkpt lat="44.03519" lon="1.8782">
        <ele>270</ele>
        <time>2020-10-04T13:10:01.729Z</time>
      </trkpt>
      <trkpt lat="44.03519" lon="1.87819">
        <ele>270</ele>
        <time>2020-10-04T13:10:02.729Z</time>
      </trkpt>
      <trkpt lat="44.0352" lon="1.87818">
        <ele>270</ele>
        <time>2020-10-04T13:10:03.729Z</time>
      </trkpt>
      <trkpt lat="44.0352" lon="1.87817">
        <ele>270</ele>
        <time>2020-10-04T13:10:04.729Z</time>
      </trkpt>
      <trkpt lat="44.03521" lon="1.87815">
        <ele>270</ele>
        <time>2020-10-04T13:10:05.729Z</time>
      </trkpt>
      <trkpt lat="44.03521" lon="1.87814">
        <ele>270</ele>
        <time>2020-10-04T13:10:06.729Z</time>
      </trkpt>
      <trkpt lat="44.03522" lon="1.87812">
        <ele>270</ele>
        <time>2020-10-04T13:10:07.729Z</time>
      </trkpt>
      <trkpt lat="44.03523" lon="1.87811">
        <ele>270</ele>
        <time>2020-10-04T13:10:08.729Z</time>
      </trkpt>
      <trkpt lat="44.03523" lon="1.8781">
        <ele>270</ele>
        <time>2020-10-04T13:10:09.729Z</time>
      </trkpt>
      <trkpt lat="44.03524" lon="1.87808">
        <ele>270</ele>
        <time>2020-10-04T13:10:10.729Z</time>
      </trkpt>
      <trkpt lat="44.03524" lon="1.87807">
        <ele>270</ele>
        <time>2020-10-04T13:10:11.729Z</time>
      </trkpt>
      <trkpt lat="44.03525" lon="1.87806">
        <ele>270</ele>
        <time>2020-10-04T13:10:12.729Z</time>
      </trkpt>
      <trkpt lat="44.03525" lon="1.87804">
        <ele>270</ele>
        <time>2020-10-04T13:10:13.729Z</time>
      </trkpt>
      <trkpt lat="44.03526" lon="1.87803">
        <ele>270</ele>
        <time>2020-10-04T13:10:14.729Z</time>
      </trkpt>
      <trkpt lat="44.03526" lon="1.87801">
        <ele>270</ele>
        <time>2020-10-04T13:10:15.729Z</time>
      </trkpt>
      <trkpt lat="44.03526" lon="1.878">
        <ele>270</ele>
        <time>2020-10-04T13:10:16.729Z</time>
      </trkpt>
      <trkpt lat="44.03527" lon="1.87798">
        <ele>270</ele>
        <time>2020-10-04T13:10:17.729Z</time>
      </trkpt>
      <trkpt lat="44.03527" lon="1.87797">
        <ele>270</ele>
        <time>2020-10-04T13:10:18.729Z</time>
      </trkpt>
      <trkpt lat="44.03528" lon="1.87796">
        <ele>270</ele>
        <time>2020-10-04T13:10:19.729Z</time>
      </trkpt>
      <trkpt lat="44.03528" lon="1.87795">
        <ele>270</ele>
        <time>2020-10-04T13:10:20.729Z</time>
      </trkpt>
      <trkpt lat="44.03529" lon="1.87793">
        <ele>270</ele>
        <time>2020-10-04T13:10:21.729Z</time>
      </trkpt>
      <trkpt lat="44.03529" lon="1.87792">
        <ele>270</ele>
        <time>2020-10-04T13:10:22.729Z</time>
      </trkpt>
      <trkpt lat="44.0353" lon="1.87791">
        <ele>270</ele>
        <time>2020-10-04T13:10:23.729Z</time>
      </trkpt>
      <trkpt lat="44.0353" lon="1.8779">
        <ele>270</ele>
        <time>2020-10-04T13:10:24.729Z</time>
      </trkpt>
      <trkpt lat="44.0353" lon="1.87788">
        <ele>271</ele>
        <time>2020-10-04T13:10:25.729Z</time>
      </trkpt>
      <trkpt lat="44.03531" lon="1.87787">
        <ele>271</ele>
        <time>2020-10-04T13:10:26.729Z</time>
      </trkpt>
      <trkpt lat="44.03531" lon="1.87786">
        <ele>271</ele>
        <time>2020-10-04T13:10:27.729Z</time>
      </trkpt>
      <trkpt lat="44.03531" lon="1.87784">
        <ele>271</ele>
        <time>2020-10-04T13:10:28.729Z</time>
      </trkpt>
      <trkpt lat="44.03532" lon="1.87783">
        <ele>271</ele>
        <time>2020-10-04T13:10:29.729Z</time>
      </trkpt>
      <trkpt lat="44.03532" lon="1.87782">
        <ele>271</ele>
        <time>2020-10-04T13:10:30.729Z</time>
      </trkpt>
      <trkpt lat="44.03533" lon="1.8778">
        <ele>271</ele>
        <time>2020-10-04T13:10:31.729Z</time>
      </trkpt>
      <trkpt lat="44.03533" lon="1.87779">
        <ele>271</ele>
        <time>2020-10-04T13:10:32.729Z</time>
      </trkpt>
      <trkpt lat="44.03534" lon="1.87778">
        <ele>271</ele>
        <time>2020-10-04T13:10:33.729Z</time>
      </trkpt>
      <trkpt lat="44.03534" lon="1.87777">
        <ele>271</ele>
        <time>2020-10-04T13:10:34.729Z</time>
      </trkpt>
      <trkpt lat="44.03535" lon="1.87776">
        <ele>271</ele>
        <time>2020-10-04T13:10:35.729Z</time>
      </trkpt>
      <trkpt lat="44.03535" lon="1.87774">
        <ele>271</ele>
        <time>2020-10-04T13:10:36.729Z</time>
      </trkpt>
      <trkpt lat="44.03536" lon="1.87773">
        <ele>271</ele>
        <time>2020-10-04T13:10:37.729Z</time>
      </trkpt>
      <trkpt lat="44.03536" lon="1.87772">
        <ele>271</ele>
        <time>2020-10-04T13:10:38.729Z</time>
      </trkpt>
      <trkpt lat="44.03536" lon="1.8777">
        <ele>272</ele>
        <time>2020-10-04T13:10:39.729Z</time>
      </trkpt>
      <trkpt lat="44.03537" lon="1.87769">
        <ele>272</ele>
        <time>2020-10-04T13:10:40.729Z</time>
      </trkpt>
      <trkpt lat="44.03537" lon="1.87768">
        <ele>272</ele>
        <time>2020-10-04T13:10:41.729Z</time>
      </trkpt>
      <trkpt lat="44.03538" lon="1.87766">
        <ele>272</ele>
        <time>2020-10-04T13:10:42.729Z</time>
      </trkpt>
      <trkpt lat="44.03538" lon="1.87765">
        <ele>272</ele>
        <time>2020-10-04T13:10:43.729Z</time>
      </trkpt>
      <trkpt lat="44.03539" lon="1.87764">
        <ele>272</ele>
        <time>2020-10-04T13:10:44.729Z</time>
      </trkpt>
      <trkpt lat="44.03539" lon="1.87762">
        <ele>272</ele>
        <time>2020-10-04T13:10:45.729Z</time>
      </trkpt>
      <trkpt lat="44.03539" lon="1.87761">
        <ele>272</ele>
        <time>2020-10-04T13:10:46.729Z</time>
      </trkpt>
      <trkpt lat="44.0354" lon="1.8776">
        <ele>273</ele>
        <time>2020-10-04T13:10:47.729Z</time>
      </trkpt>
      <trkpt lat="44.0354" lon="1.87758">
        <ele>273</ele>
        <time>2020-10-04T13:10:48.729Z</time>
      </trkpt>
      <trkpt lat="44.0354" lon="1.87757">
        <ele>273</ele>
        <time>2020-10-04T13:10:49.729Z</time>
      </trkpt>
      <trkpt lat="44.03541" lon="1.87756">
        <ele>273</ele>
        <time>2020-10-04T13:10:50.729Z</time>
      </trkpt>
      <trkpt lat="44.03541" lon="1.87754">
        <ele>273</ele>
        <time>2020-10-04T13:10:51.729Z</time>
      </trkpt>
      <trkpt lat="44.03542" lon="1.87753">
        <ele>273</ele>
        <time>2020-10-04T13:10:52.729Z</time>
      </trkpt>
      <trkpt lat="44.03542" lon="1.87752">
        <ele>273</ele>
        <time>2020-10-04T13:10:53.729Z</time>
      </trkpt>
      <trkpt lat="44.03542" lon="1.8775">
        <ele>273</ele>
        <time>2020-10-04T13:10:54.729Z</time>
      </trkpt>
      <trkpt lat="44.03543" lon="1.87749">
        <ele>273</ele>
        <time>2020-10-04T13:10:55.729Z</time>
      </trkpt>
      <trkpt lat="44.03543" lon="1.87748">
        <ele>273</ele>
        <time>2020-10-04T13:10:56.729Z</time>
      </trkpt>
      <trkpt lat="44.03544" lon="1.87747">
        <ele>273</ele>
        <time>2020-10-04T13:10:57.729Z</time>
      </trkpt>
      <trkpt lat="44.03544" lon="1.87745">
        <ele>273</ele>
        <time>2020-10-04T13:10:58.729Z</time>
      </trkpt>
      <trkpt lat="44.03545" lon="1.87744">
        <ele>273</ele>
        <time>2020-10-04T13:10:59.729Z</time>
      </trkpt>
      <trkpt lat="44.03545" lon="1.87743">
        <ele>273</ele>
        <time>2020-10-04T13:11:00.729Z</time>
      </trkpt>
      <trkpt lat="44.03545" lon="1.87742">
        <ele>273</ele>
        <time>2020-10-04T13:11:01.729Z</time>
      </trkpt>
      <trkpt lat="44.03546" lon="1.8774">
        <ele>274</ele>
        <time>2020-10-04T13:11:02.729Z</time>
      </trkpt>
      <trkpt lat="44.03546" lon="1.87739">
        <ele>274</ele>
        <time>2020-10-04T13:11:03.729Z</time>
      </trkpt>
      <trkpt lat="44.03547" lon="1.87738">
        <ele>274</ele>
        <time>2020-10-04T13:11:04.729Z</time>
      </trkpt>
      <trkpt lat="44.03547" lon="1.87737">
        <ele>274</ele>
        <time>2020-10-04T13:11:05.729Z</time>
      </trkpt>
      <trkpt lat="44.03548" lon="1.87735">
        <ele>274</ele>
        <time>2020-10-04T13:11:06.729Z</time>
      </trkpt>
      <trkpt lat="44.03548" lon="1.87734">
        <ele>274</ele>
        <time>2020-10-04T13:11:07.729Z</time>
      </trkpt>
      <trkpt lat="44.03549" lon="1.87733">
        <ele>274</ele>
        <time>2020-10-04T13:11:08.729Z</time>
      </trkpt>
      <trkpt lat="44.03549" lon="1.87731">
        <ele>274</ele>
        <time>2020-10-04T13:11:09.729Z</time>
      </trkpt>
      <trkpt lat="44.0355" lon="1.8773">
        <ele>274</ele>
        <time>2020-10-04T13:11:10.729Z</time>
      </trkpt>
      <trkpt lat="44.0355" lon="1.87729">
        <ele>274</ele>
        <time>2020-10-04T13:11:11.729Z</time>
      </trkpt>
      <trkpt lat="44.0355" lon="1.87727">
        <ele>275</ele>
        <time>2020-10-04T13:11:12.729Z</time>
      </trkpt>
      <trkpt lat="44.0355" lon="1.87726">
        <ele>275</ele>
        <time>2020-10-04T13:11:13.729Z</time>
      </trkpt>
      <trkpt lat="44.03551" lon="1.87725">
        <ele>275</ele>
        <time>2020-10-04T13:11:14.729Z</time>
      </trkpt>
      <trkpt lat="44.03551" lon="1.87724">
        <ele>275</ele>
        <time>2020-10-04T13:11:15.729Z</time>
      </trkpt>
      <trkpt lat="44.03551" lon="1.87723">
        <ele>275</ele>
        <time>2020-10-04T13:11:16.729Z</time>
      </trkpt>
      <trkpt lat="44.03552" lon="1.87722">
        <ele>275</ele>
        <time>2020-10-04T13:11:17.729Z</time>
      </trkpt>
      <trkpt lat="44.03552" lon="1.87721">
        <ele>276</ele>
        <time>2020-10-04T13:11:18.729Z</time>
      </trkpt>
      <trkpt lat="44.03552" lon="1.87719">
        <ele>276</ele>
        <time>2020-10-04T13:11:19.729Z</time>
      </trkpt>
      <trkpt lat="44.03553" lon="1.87718">
        <ele>276</ele>
        <time>2020-10-04T13:11:20.729Z</time>
      </trkpt>
      <trkpt lat="44.03553" lon="1.87717">
        <ele>276</ele>
        <time>2020-10-04T13:11:21.729Z</time>
      </trkpt>
      <trkpt lat="44.03553" lon="1.87716">
        <ele>276</ele>
        <time>2020-10-04T13:11:22.729Z</time>
      </trkpt>
      <trkpt lat="44.03554" lon="1.87715">
        <ele>276</ele>
        <time>2020-10-04T13:11:23.729Z</time>
      </trkpt>
      <trkpt lat="44.03554" lon="1.87713">
        <ele>277</ele>
        <time>2020-10-04T13:11:24.729Z</time>
      </trkpt>
      <trkpt lat="44.03554" lon="1.87712">
        <ele>277</ele>
        <time>2020-10-04T13:11:25.729Z</time>
      </trkpt>
      <trkpt lat="44.03554" lon="1.87711">
        <ele>277</ele>
        <time>2020-10-04T13:11:26.729Z</time>
      </trkpt>
      <trkpt lat="44.03554" lon="1.8771">
        <ele>277</ele>
        <time>2020-10-04T13:11:27.729Z</time>
      </trkpt>
      <trkpt lat="44.03555" lon="1.87708">
        <ele>277</ele>
        <time>2020-10-04T13:11:28.729Z</time>
      </trkpt>
      <trkpt lat="44.03555" lon="1.87707">
        <ele>277</ele>
        <time>2020-10-04T13:11:29.729Z</time>
      </trkpt>
      <trkpt lat="44.03555" lon="1.87706">
        <ele>277</ele>
        <time>2020-10-04T13:11:30.729Z</time>
      </trkpt>
      <trkpt lat="44.03555" lon="1.87704">
        <ele>277</ele>
        <time>2020-10-04T13:11:31.729Z</time>
      </trkpt>
      <trkpt lat="44.03555" lon="1.87703">
        <ele>277</ele>
        <time>2020-10-04T13:11:32.729Z</time>
      </trkpt>
      <trkpt lat="44.03555" lon="1.87702">
        <ele>277</ele>
        <time>2020-10-04T13:11:33.729Z</time>
      </trkpt>
      <trkpt lat="44.03555" lon="1.87701">
        <ele>277</ele>
        <time>2020-10-04T13:11:34.729Z</time>
      </trkpt>
      <trkpt lat="44.03555" lon="1.877">
        <ele>277</ele>
        <time>2020-10-04T13:11:35.729Z</time>
      </trkpt>
      <trkpt lat="44.03555" lon="1.87698">
        <ele>277</ele>
        <time>2020-10-04T13:11:36.729Z</time>
      </trkpt>
      <trkpt lat="44.03555" lon="1.87697">
        <ele>277</ele>
        <time>2020-10-04T13:11:37.729Z</time>
      </trkpt>
      <trkpt lat="44.03555" lon="1.87695">
        <ele>277</ele>
        <time>2020-10-04T13:11:38.729Z</time>
      </trkpt>
      <trkpt lat="44.03555" lon="1.87694">
        <ele>277</ele>
        <time>2020-10-04T13:11:39.729Z</time>
      </trkpt>
      <trkpt lat="44.03555" lon="1.87693">
        <ele>278</ele>
        <time>2020-10-04T13:11:40.729Z</time>
      </trkpt>
      <trkpt lat="44.03555" lon="1.87691">
        <ele>278</ele>
        <time>2020-10-04T13:11:41.729Z</time>
      </trkpt>
      <trkpt lat="44.03555" lon="1.8769">
        <ele>278</ele>
        <time>2020-10-04T13:11:42.729Z</time>
      </trkpt>
      <trkpt lat="44.03556" lon="1.87689">
        <ele>278</ele>
        <time>2020-10-04T13:11:43.729Z</time>
      </trkpt>
      <trkpt lat="44.03556" lon="1.87687">
        <ele>278</ele>
        <time>2020-10-04T13:11:44.729Z</time>
      </trkpt>
      <trkpt lat="44.03556" lon="1.87686">
        <ele>278</ele>
        <time>2020-10-04T13:11:45.729Z</time>
      </trkpt>
      <trkpt lat="44.03556" lon="1.87685">
        <ele>278</ele>
        <time>2020-10-04T13:11:46.729Z</time>
      </trkpt>
      <trkpt lat="44.03556" lon="1.87684">
        <ele>278</ele>
        <time>2020-10-04T13:11:47.729Z</time>
      </trkpt>
      <trkpt lat="44.03557" lon="1.87682">
        <ele>278</ele>
        <time>2020-10-04T13:11:48.729Z</time>
      </trkpt>
      <trkpt lat="44.03557" lon="1.87681">
        <ele>278</ele>
        <time>2020-10-04T13:11:49.729Z</time>
      </trkpt>
      <trkpt lat="44.03557" lon="1.8768">
        <ele>278</ele>
        <time>2020-10-04T13:11:50.729Z</time>
      </trkpt>
      <trkpt lat="44.03557" lon="1.87679">
        <ele>279</ele>
        <time>2020-10-04T13:11:51.729Z</time>
      </trkpt>
      <trkpt lat="44.03558" lon="1.87677">
        <ele>279</ele>
        <time>2020-10-04T13:11:52.729Z</time>
      </trkpt>
      <trkpt lat="44.03558" lon="1.87676">
        <ele>279</ele>
        <time>2020-10-04T13:11:53.729Z</time>
      </trkpt>
      <trkpt lat="44.03559" lon="1.87675">
        <ele>279</ele>
        <time>2020-10-04T13:11:54.729Z</time>
      </trkpt>
      <trkpt lat="44.03559" lon="1.87674">
        <ele>279</ele>
        <time>2020-10-04T13:11:55.729Z</time>
      </trkpt>
      <trkpt lat="44.03559" lon="1.87673">
        <ele>279</ele>
        <time>2020-10-04T13:11:56.729Z</time>
      </trkpt>
      <trkpt lat="44.0356" lon="1.87672">
        <ele>279</ele>
        <time>2020-10-04T13:11:57.729Z</time>
      </trkpt>
      <trkpt lat="44.0356" lon="1.8767">
        <ele>279</ele>
        <time>2020-10-04T13:11:58.729Z</time>
      </trkpt>
      <trkpt lat="44.0356" lon="1.8767">
        <ele>279</ele>
        <time>2020-10-04T13:11:59.729Z</time>
      </trkpt>
      <trkpt lat="44.03561" lon="1.87669">
        <ele>280</ele>
        <time>2020-10-04T13:12:00.729Z</time>
      </trkpt>
      <trkpt lat="44.03561" lon="1.87668">
        <ele>280</ele>
        <time>2020-10-04T13:12:01.729Z</time>
      </trkpt>
      <trkpt lat="44.03561" lon="1.87668">
        <ele>280</ele>
        <time>2020-10-04T13:12:02.729Z</time>
      </trkpt>
      <trkpt lat="44.03561" lon="1.87667">
        <ele>280</ele>
        <time>2020-10-04T13:12:03.729Z</time>
      </trkpt>
      <trkpt lat="44.03561" lon="1.87667">
        <ele>280</ele>
        <time>2020-10-04T13:12:04.729Z</time>
      </trkpt>
      <trkpt lat="44.03561" lon="1.87664">
        <ele>281</ele>
        <time>2020-10-04T13:12:05.729Z</time>
      </trkpt>
      <trkpt lat="44.03561" lon="1.87664">
        <ele>281</ele>
        <time>2020-10-04T13:12:06.729Z</time>
      </trkpt>
      <trkpt lat="44.03562" lon="1.87663">
        <ele>281</ele>
        <time>2020-10-04T13:12:07.729Z</time>
      </trkpt>
      <trkpt lat="44.03562" lon="1.87662">
        <ele>281</ele>
        <time>2020-10-04T13:12:08.729Z</time>
      </trkpt>
      <trkpt lat="44.03562" lon="1.87661">
        <ele>281</ele>
        <time>2020-10-04T13:12:09.729Z</time>
      </trkpt>
      <trkpt lat="44.03562" lon="1.87661">
        <ele>281</ele>
        <time>2020-10-04T13:12:10.729Z</time>
      </trkpt>
      <trkpt lat="44.03562" lon="1.8766">
        <ele>281</ele>
        <time>2020-10-04T13:12:11.729Z</time>
      </trkpt>
      <trkpt lat="44.03562" lon="1.87659">
        <ele>281</ele>
        <time>2020-10-04T13:12:12.729Z</time>
      </trkpt>
      <trkpt lat="44.03562" lon="1.87658">
        <ele>281</ele>
        <time>2020-10-04T13:12:13.729Z</time>
      </trkpt>
      <trkpt lat="44.03561" lon="1.87657">
        <ele>281</ele>
        <time>2020-10-04T13:12:14.729Z</time>
      </trkpt>
      <trkpt lat="44.03561" lon="1.87657">
        <ele>281</ele>
        <time>2020-10-04T13:12:15.729Z</time>
      </trkpt>
      <trkpt lat="44.03561" lon="1.87656">
        <ele>281</ele>
        <time>2020-10-04T13:12:16.729Z</time>
      </trkpt>
      <trkpt lat="44.03561" lon="1.87656">
        <ele>281</ele>
        <time>2020-10-04T13:12:17.729Z</time>
      </trkpt>
      <trkpt lat="44.03561" lon="1.87656">
        <ele>281</ele>
        <time>2020-10-04T13:12:18.729Z</time>
      </trkpt>
      <trkpt lat="44.03563" lon="1.87657">
        <ele>282</ele>
        <time>2020-10-04T13:12:19.729Z</time>
      </trkpt>
      <trkpt lat="44.03564" lon="1.87657">
        <ele>282</ele>
        <time>2020-10-04T13:12:20.729Z</time>
      </trkpt>
      <trkpt lat="44.03564" lon="1.87658">
        <ele>282</ele>
        <time>2020-10-04T13:12:21.729Z</time>
      </trkpt>
      <trkpt lat="44.03565" lon="1.87659">
        <ele>282</ele>
        <time>2020-10-04T13:12:22.729Z</time>
      </trkpt>
      <trkpt lat="44.03566" lon="1.87659">
        <ele>282</ele>
        <time>2020-10-04T13:12:23.729Z</time>
      </trkpt>
      <trkpt lat="44.03567" lon="1.8766">
        <ele>282</ele>
        <time>2020-10-04T13:12:24.729Z</time>
      </trkpt>
      <trkpt lat="44.03568" lon="1.8766">
        <ele>282</ele>
        <time>2020-10-04T13:12:25.729Z</time>
      </trkpt>
      <trkpt lat="44.03569" lon="1.8766">
        <ele>282</ele>
        <time>2020-10-04T13:12:26.729Z</time>
      </trkpt>
      <trkpt lat="44.0357" lon="1.8766">
        <ele>282</ele>
        <time>2020-10-04T13:12:27.729Z</time>
      </trkpt>
      <trkpt lat="44.0357" lon="1.87661">
        <ele>282</ele>
        <time>2020-10-04T13:12:28.729Z</time>
      </trkpt>
      <trkpt lat="44.03571" lon="1.87661">
        <ele>282</ele>
        <time>2020-10-04T13:12:29.729Z</time>
      </trkpt>
      <trkpt lat="44.03572" lon="1.87661">
        <ele>282</ele>
        <time>2020-10-04T13:12:30.729Z</time>
      </trkpt>
      <trkpt lat="44.03573" lon="1.87661">
        <ele>282</ele>
        <time>2020-10-04T13:12:31.729Z</time>
      </trkpt>
      <trkpt lat="44.03574" lon="1.87662">
        <ele>283</ele>
        <time>2020-10-04T13:12:32.729Z</time>
      </trkpt>
      <trkpt lat="44.03574" lon="1.87662">
        <ele>283</ele>
        <time>2020-10-04T13:12:33.729Z</time>
      </trkpt>
      <trkpt lat="44.03575" lon="1.87662">
        <ele>283</ele>
        <time>2020-10-04T13:12:34.729Z</time>
      </trkpt>
      <trkpt lat="44.03575" lon="1.87663">
        <ele>283</ele>
        <time>2020-10-04T13:12:35.729Z</time>
      </trkpt>
      <trkpt lat="44.03576" lon="1.87663">
        <ele>283</ele>
        <time>2020-10-04T13:12:36.729Z</time>
      </trkpt>
      <trkpt lat="44.03576" lon="1.87663">
        <ele>283</ele>
        <time>2020-10-04T13:12:37.729Z</time>
      </trkpt>
      <trkpt lat="44.03577" lon="1.87663">
        <ele>283</ele>
        <time>2020-10-04T13:12:38.729Z</time>
      </trkpt>
      <trkpt lat="44.03578" lon="1.87663">
        <ele>283</ele>
        <time>2020-10-04T13:12:39.729Z</time>
      </trkpt>
      <trkpt lat="44.03579" lon="1.87664">
        <ele>283</ele>
        <time>2020-10-04T13:12:40.729Z</time>
      </trkpt>
      <trkpt lat="44.0358" lon="1.87664">
        <ele>283</ele>
        <time>2020-10-04T13:12:41.729Z</time>
      </trkpt>
      <trkpt lat="44.0358" lon="1.87665">
        <ele>283</ele>
        <time>2020-10-04T13:12:42.729Z</time>
      </trkpt>
      <trkpt lat="44.03581" lon="1.87665">
        <ele>283</ele>
        <time>2020-10-04T13:12:43.729Z</time>
      </trkpt>
      <trkpt lat="44.03582" lon="1.87666">
        <ele>282</ele>
        <time>2020-10-04T13:12:44.729Z</time>
      </trkpt>
      <trkpt lat="44.03583" lon="1.87666">
        <ele>282</ele>
        <time>2020-10-04T13:12:45.729Z</time>
      </trkpt>
      <trkpt lat="44.03584" lon="1.87667">
        <ele>282</ele>
        <time>2020-10-04T13:12:46.729Z</time>
      </trkpt>
      <trkpt lat="44.03585" lon="1.87667">
        <ele>282</ele>
        <time>2020-10-04T13:12:47.729Z</time>
      </trkpt>
      <trkpt lat="44.03586" lon="1.87667">
        <ele>282</ele>
        <time>2020-10-04T13:12:48.729Z</time>
      </trkpt>
      <trkpt lat="44.03587" lon="1.87668">
        <ele>282</ele>
        <time>2020-10-04T13:12:49.729Z</time>
      </trkpt>
      <trkpt lat="44.03588" lon="1.87669">
        <ele>282</ele>
        <time>2020-10-04T13:12:50.729Z</time>
      </trkpt>
      <trkpt lat="44.03589" lon="1.87669">
        <ele>282</ele>
        <time>2020-10-04T13:12:51.729Z</time>
      </trkpt>
      <trkpt lat="44.0359" lon="1.8767">
        <ele>282</ele>
        <time>2020-10-04T13:12:52.729Z</time>
      </trkpt>
      <trkpt lat="44.03591" lon="1.8767">
        <ele>282</ele>
        <time>2020-10-04T13:12:53.729Z</time>
      </trkpt>
      <trkpt lat="44.03592" lon="1.8767">
        <ele>282</ele>
        <time>2020-10-04T13:12:54.729Z</time>
      </trkpt>
      <trkpt lat="44.03593" lon="1.87671">
        <ele>282</ele>
        <time>2020-10-04T13:12:55.729Z</time>
      </trkpt>
      <trkpt lat="44.03595" lon="1.87671">
        <ele>282</ele>
        <time>2020-10-04T13:12:56.729Z</time>
      </trkpt>
      <trkpt lat="44.03596" lon="1.87672">
        <ele>282</ele>
        <time>2020-10-04T13:12:57.729Z</time>
      </trkpt>
      <trkpt lat="44.03597" lon="1.87672">
        <ele>282</ele>
        <time>2020-10-04T13:12:58.729Z</time>
      </trkpt>
      <trkpt lat="44.03598" lon="1.87673">
        <ele>282</ele>
        <time>2020-10-04T13:12:59.729Z</time>
      </trkpt>
      <trkpt lat="44.03599" lon="1.87673">
        <ele>282</ele>
        <time>2020-10-04T13:13:00.729Z</time>
      </trkpt>
      <trkpt lat="44.036" lon="1.87674">
        <ele>282</ele>
        <time>2020-10-04T13:13:01.729Z</time>
      </trkpt>
      <trkpt lat="44.03601" lon="1.87674">
        <ele>282</ele>
        <time>2020-10-04T13:13:02.729Z</time>
      </trkpt>
      <trkpt lat="44.03602" lon="1.87675">
        <ele>282</ele>
        <time>2020-10-04T13:13:03.729Z</time>
      </trkpt>
      <trkpt lat="44.03603" lon="1.87675">
        <ele>282</ele>
        <time>2020-10-04T13:13:04.729Z</time>
      </trkpt>
      <trkpt lat="44.03604" lon="1.87676">
        <ele>282</ele>
        <time>2020-10-04T13:13:05.729Z</time>
      </trkpt>
      <trkpt lat="44.03605" lon="1.87676">
        <ele>282</ele>
        <time>2020-10-04T13:13:06.729Z</time>
      </trkpt>
      <trkpt lat="44.03606" lon="1.87677">
        <ele>282</ele>
        <time>2020-10-04T13:13:07.729Z</time>
      </trkpt>
      <trkpt lat="44.03607" lon="1.87678">
        <ele>282</ele>
        <time>2020-10-04T13:13:08.729Z</time>
      </trkpt>
      <trkpt lat="44.03608" lon="1.87678">
        <ele>282</ele>
        <time>2020-10-04T13:13:09.729Z</time>
      </trkpt>
      <trkpt lat="44.03609" lon="1.87679">
        <ele>282</ele>
        <time>2020-10-04T13:13:10.729Z</time>
      </trkpt>
      <trkpt lat="44.0361" lon="1.8768">
        <ele>282</ele>
        <time>2020-10-04T13:13:11.729Z</time>
      </trkpt>
      <trkpt lat="44.03611" lon="1.87681">
        <ele>282</ele>
        <time>2020-10-04T13:13:12.729Z</time>
      </trkpt>
      <trkpt lat="44.03612" lon="1.87682">
        <ele>282</ele>
        <time>2020-10-04T13:13:13.729Z</time>
      </trkpt>
      <trkpt lat="44.03613" lon="1.87683">
        <ele>282</ele>
        <time>2020-10-04T13:13:14.729Z</time>
      </trkpt>
      <trkpt lat="44.03614" lon="1.87684">
        <ele>282</ele>
        <time>2020-10-04T13:13:15.729Z</time>
      </trkpt>
      <trkpt lat="44.03615" lon="1.87685">
        <ele>282</ele>
        <time>2020-10-04T13:13:16.729Z</time>
      </trkpt>
      <trkpt lat="44.03616" lon="1.87685">
        <ele>282</ele>
        <time>2020-10-04T13:13:17.729Z</time>
      </trkpt>
      <trkpt lat="44.03617" lon="1.87686">
        <ele>282</ele>
        <time>2020-10-04T13:13:18.729Z</time>
      </trkpt>
      <trkpt lat="44.03618" lon="1.87687">
        <ele>282</ele>
        <time>2020-10-04T13:13:19.729Z</time>
      </trkpt>
      <trkpt lat="44.03619" lon="1.87687">
        <ele>282</ele>
        <time>2020-10-04T13:13:20.729Z</time>
      </trkpt>
      <trkpt lat="44.03621" lon="1.87688">
        <ele>282</ele>
        <time>2020-10-04T13:13:21.729Z</time>
      </trkpt>
      <trkpt lat="44.03622" lon="1.87689">
        <ele>282</ele>
        <time>2020-10-04T13:13:22.729Z</time>
      </trkpt>
      <trkpt lat="44.03623" lon="1.8769">
        <ele>282</ele>
        <time>2020-10-04T13:13:23.729Z</time>
      </trkpt>
      <trkpt lat="44.03624" lon="1.8769">
        <ele>282</ele>
        <time>2020-10-04T13:13:24.729Z</time>
      </trkpt>
      <trkpt lat="44.03625" lon="1.87691">
        <ele>282</ele>
        <time>2020-10-04T13:13:25.729Z</time>
      </trkpt>
      <trkpt lat="44.03626" lon="1.87692">
        <ele>282</ele>
        <time>2020-10-04T13:13:26.729Z</time>
      </trkpt>
      <trkpt lat="44.03627" lon="1.87693">
        <ele>282</ele>
        <time>2020-10-04T13:13:27.729Z</time>
      </trkpt>
      <trkpt lat="44.03628" lon="1.87694">
        <ele>282</ele>
        <time>2020-10-04T13:13:28.729Z</time>
      </trkpt>
      <trkpt lat="44.03629" lon="1.87695">
        <ele>282</ele>
        <time>2020-10-04T13:13:29.729Z</time>
      </trkpt>
      <trkpt lat="44.0363" lon="1.87695">
        <ele>282</ele>
        <time>2020-10-04T13:13:30.729Z</time>
      </trkpt>
      <trkpt lat="44.03631" lon="1.87696">
        <ele>282</ele>
        <time>2020-10-04T13:13:31.729Z</time>
      </trkpt>
      <trkpt lat="44.03632" lon="1.87697">
        <ele>282</ele>
        <time>2020-10-04T13:13:32.729Z</time>
      </trkpt>
      <trkpt lat="44.03633" lon="1.87698">
        <ele>282</ele>
        <time>2020-10-04T13:13:33.729Z</time>
      </trkpt>
      <trkpt lat="44.03634" lon="1.87698">
        <ele>282</ele>
        <time>2020-10-04T13:13:34.729Z</time>
      </trkpt>
      <trkpt lat="44.03635" lon="1.87699">
        <ele>282</ele>
        <time>2020-10-04T13:13:35.729Z</time>
      </trkpt>
      <trkpt lat="44.03636" lon="1.87699">
        <ele>282</ele>
        <time>2020-10-04T13:13:36.729Z</time>
      </trkpt>
      <trkpt lat="44.03637" lon="1.877">
        <ele>282</ele>
        <time>2020-10-04T13:13:37.729Z</time>
      </trkpt>
      <trkpt lat="44.03638" lon="1.87701">
        <ele>282</ele>
        <time>2020-10-04T13:13:38.729Z</time>
      </trkpt>
      <trkpt lat="44.03639" lon="1.87701">
        <ele>282</ele>
        <time>2020-10-04T13:13:39.729Z</time>
      </trkpt>
      <trkpt lat="44.0364" lon="1.87701">
        <ele>282</ele>
        <time>2020-10-04T13:13:40.729Z</time>
      </trkpt>
      <trkpt lat="44.03641" lon="1.87702">
        <ele>282</ele>
        <time>2020-10-04T13:13:41.729Z</time>
      </trkpt>
      <trkpt lat="44.03642" lon="1.87703">
        <ele>282</ele>
        <time>2020-10-04T13:13:42.729Z</time>
      </trkpt>
      <trkpt lat="44.03643" lon="1.87703">
        <ele>282</ele>
        <time>2020-10-04T13:13:43.729Z</time>
      </trkpt>
      <trkpt lat="44.03644" lon="1.87703">
        <ele>282</ele>
        <time>2020-10-04T13:13:44.729Z</time>
      </trkpt>
      <trkpt lat="44.03645" lon="1.87703">
        <ele>282</ele>
        <time>2020-10-04T13:13:45.729Z</time>
      </trkpt>
      <trkpt lat="44.03645" lon="1.87703">
        <ele>282</ele>
        <time>2020-10-04T13:13:46.729Z</time>
      </trkpt>
      <trkpt lat="44.03646" lon="1.87702">
        <ele>282</ele>
        <time>2020-10-04T13:13:47.729Z</time>
      </trkpt>
      <trkpt lat="44.03647" lon="1.87702">
        <ele>282</ele>
        <time>2020-10-04T13:13:48.729Z</time>
      </trkpt>
      <trkpt lat="44.03647" lon="1.87701">
        <ele>282</ele>
        <time>2020-10-04T13:13:49.729Z</time>
      </trkpt>
      <trkpt lat="44.03648" lon="1.877">
        <ele>282</ele>
        <time>2020-10-04T13:13:50.729Z</time>
      </trkpt>
      <trkpt lat="44.03649" lon="1.877">
        <ele>282</ele>
        <time>2020-10-04T13:13:51.729Z</time>
      </trkpt>
      <trkpt lat="44.03649" lon="1.877">
        <ele>282</ele>
        <time>2020-10-04T13:13:52.729Z</time>
      </trkpt>
      <trkpt lat="44.0365" lon="1.87699">
        <ele>282</ele>
        <time>2020-10-04T13:13:53.729Z</time>
      </trkpt>
      <trkpt lat="44.03651" lon="1.87699">
        <ele>282</ele>
        <time>2020-10-04T13:13:54.729Z</time>
      </trkpt>
      <trkpt lat="44.03652" lon="1.87699">
        <ele>282</ele>
        <time>2020-10-04T13:13:55.729Z</time>
      </trkpt>
      <trkpt lat="44.03653" lon="1.877">
        <ele>282</ele>
        <time>2020-10-04T13:13:56.729Z</time>
      </trkpt>
      <trkpt lat="44.03654" lon="1.877">
        <ele>282</ele>
        <time>2020-10-04T13:13:57.729Z</time>
      </trkpt>
      <trkpt lat="44.03655" lon="1.87701">
        <ele>282</ele>
        <time>2020-10-04T13:13:58.729Z</time>
      </trkpt>
      <trkpt lat="44.03656" lon="1.87701">
        <ele>282</ele>
        <time>2020-10-04T13:13:59.729Z</time>
      </trkpt>
      <trkpt lat="44.03657" lon="1.87702">
        <ele>282</ele>
        <time>2020-10-04T13:14:00.729Z</time>
      </trkpt>
      <trkpt lat="44.03657" lon="1.87702">
        <ele>282</ele>
        <time>2020-10-04T13:14:01.729Z</time>
      </trkpt>
      <trkpt lat="44.03658" lon="1.87703">
        <ele>282</ele>
        <time>2020-10-04T13:14:02.729Z</time>
      </trkpt>
      <trkpt lat="44.03658" lon="1.87703">
        <ele>282</ele>
        <time>2020-10-04T13:14:03.729Z</time>
      </trkpt>
      <trkpt lat="44.03659" lon="1.87703">
        <ele>282</ele>
        <time>2020-10-04T13:14:04.729Z</time>
      </trkpt>
      <trkpt lat="44.0366" lon="1.87704">
        <ele>282</ele>
        <time>2020-10-04T13:14:05.729Z</time>
      </trkpt>
      <trkpt lat="44.0366" lon="1.87704">
        <ele>282</ele>
        <time>2020-10-04T13:14:06.729Z</time>
      </trkpt>
      <trkpt lat="44.03661" lon="1.87705">
        <ele>282</ele>
        <time>2020-10-04T13:14:07.729Z</time>
      </trkpt>
      <trkpt lat="44.03662" lon="1.87706">
        <ele>282</ele>
        <time>2020-10-04T13:14:08.729Z</time>
      </trkpt>
      <trkpt lat="44.03663" lon="1.87707">
        <ele>282</ele>
        <time>2020-10-04T13:14:09.729Z</time>
      </trkpt>
      <trkpt lat="44.03663" lon="1.87708">
        <ele>282</ele>
        <time>2020-10-04T13:14:10.729Z</time>
      </trkpt>
      <trkpt lat="44.03663" lon="1.87709">
        <ele>282</ele>
        <time>2020-10-04T13:14:11.729Z</time>
      </trkpt>
      <trkpt lat="44.03664" lon="1.87709">
        <ele>282</ele>
        <time>2020-10-04T13:14:12.729Z</time>
      </trkpt>
      <trkpt lat="44.03664" lon="1.8771">
        <ele>282</ele>
        <time>2020-10-04T13:14:13.729Z</time>
      </trkpt>
      <trkpt lat="44.03665" lon="1.8771">
        <ele>282</ele>
        <time>2020-10-04T13:14:14.729Z</time>
      </trkpt>
      <trkpt lat="44.03665" lon="1.8771">
        <ele>282</ele>
        <time>2020-10-04T13:14:15.729Z</time>
      </trkpt>
      <trkpt lat="44.03666" lon="1.87711">
        <ele>282</ele>
        <time>2020-10-04T13:14:16.729Z</time>
      </trkpt>
      <trkpt lat="44.03667" lon="1.87712">
        <ele>283</ele>
        <time>2020-10-04T13:14:17.729Z</time>
      </trkpt>
      <trkpt lat="44.03668" lon="1.87713">
        <ele>283</ele>
        <time>2020-10-04T13:14:18.729Z</time>
      </trkpt>
      <trkpt lat="44.03668" lon="1.87714">
        <ele>283</ele>
        <time>2020-10-04T13:14:19.729Z</time>
      </trkpt>
      <trkpt lat="44.03669" lon="1.87714">
        <ele>283</ele>
        <time>2020-10-04T13:14:20.729Z</time>
      </trkpt>
      <trkpt lat="44.03669" lon="1.87714">
        <ele>283</ele>
        <time>2020-10-04T13:14:21.729Z</time>
      </trkpt>
      <trkpt lat="44.0367" lon="1.87715">
        <ele>283</ele>
        <time>2020-10-04T13:14:22.729Z</time>
      </trkpt>
      <trkpt lat="44.03671" lon="1.87715">
        <ele>283</ele>
        <time>2020-10-04T13:14:23.729Z</time>
      </trkpt>
      <trkpt lat="44.03671" lon="1.87716">
        <ele>283</ele>
        <time>2020-10-04T13:14:24.729Z</time>
      </trkpt>
      <trkpt lat="44.03672" lon="1.87716">
        <ele>283</ele>
        <time>2020-10-04T13:14:25.729Z</time>
      </trkpt>
      <trkpt lat="44.03672" lon="1.87716">
        <ele>283</ele>
        <time>2020-10-04T13:14:26.729Z</time>
      </trkpt>
      <trkpt lat="44.03673" lon="1.87717">
        <ele>283</ele>
        <time>2020-10-04T13:14:27.729Z</time>
      </trkpt>
      <trkpt lat="44.03674" lon="1.87718">
        <ele>283</ele>
        <time>2020-10-04T13:14:28.729Z</time>
      </trkpt>
      <trkpt lat="44.03675" lon="1.87719">
        <ele>283</ele>
        <time>2020-10-04T13:14:29.729Z</time>
      </trkpt>
      <trkpt lat="44.03675" lon="1.8772">
        <ele>283</ele>
        <time>2020-10-04T13:14:30.729Z</time>
      </trkpt>
      <trkpt lat="44.03676" lon="1.87721">
        <ele>283</ele>
        <time>2020-10-04T13:14:31.729Z</time>
      </trkpt>
      <trkpt lat="44.03676" lon="1.87723">
        <ele>283</ele>
        <time>2020-10-04T13:14:32.729Z</time>
      </trkpt>
      <trkpt lat="44.03677" lon="1.87724">
        <ele>283</ele>
        <time>2020-10-04T13:14:33.729Z</time>
      </trkpt>
      <trkpt lat="44.03677" lon="1.87726">
        <ele>283</ele>
        <time>2020-10-04T13:14:34.729Z</time>
      </trkpt>
      <trkpt lat="44.03677" lon="1.87727">
        <ele>283</ele>
        <time>2020-10-04T13:14:35.729Z</time>
      </trkpt>
      <trkpt lat="44.03677" lon="1.87728">
        <ele>283</ele>
        <time>2020-10-04T13:14:36.729Z</time>
      </trkpt>
      <trkpt lat="44.03677" lon="1.87729">
        <ele>283</ele>
        <time>2020-10-04T13:14:37.729Z</time>
      </trkpt>
      <trkpt lat="44.03677" lon="1.87729">
        <ele>283</ele>
        <time>2020-10-04T13:14:38.729Z</time>
      </trkpt>
      <trkpt lat="44.03677" lon="1.8773">
        <ele>283</ele>
        <time>2020-10-04T13:14:39.729Z</time>
      </trkpt>
      <trkpt lat="44.03678" lon="1.87732">
        <ele>283</ele>
        <time>2020-10-04T13:14:40.729Z</time>
      </trkpt>
      <trkpt lat="44.03678" lon="1.87733">
        <ele>283</ele>
        <time>2020-10-04T13:14:41.729Z</time>
      </trkpt>
      <trkpt lat="44.03678" lon="1.87734">
        <ele>284</ele>
        <time>2020-10-04T13:14:42.729Z</time>
      </trkpt>
      <trkpt lat="44.03678" lon="1.87735">
        <ele>284</ele>
        <time>2020-10-04T13:14:43.729Z</time>
      </trkpt>
      <trkpt lat="44.03679" lon="1.87736">
        <ele>284</ele>
        <time>2020-10-04T13:14:44.729Z</time>
      </trkpt>
      <trkpt lat="44.03679" lon="1.87737">
        <ele>284</ele>
        <time>2020-10-04T13:14:45.729Z</time>
      </trkpt>
      <trkpt lat="44.0368" lon="1.87738">
        <ele>284</ele>
        <time>2020-10-04T13:14:46.729Z</time>
      </trkpt>
      <trkpt lat="44.03681" lon="1.87738">
        <ele>284</ele>
        <time>2020-10-04T13:14:47.729Z</time>
      </trkpt>
      <trkpt lat="44.03682" lon="1.87739">
        <ele>284</ele>
        <time>2020-10-04T13:14:48.729Z</time>
      </trkpt>
      <trkpt lat="44.03683" lon="1.8774">
        <ele>284</ele>
        <time>2020-10-04T13:14:49.729Z</time>
      </trkpt>
      <trkpt lat="44.03683" lon="1.87741">
        <ele>284</ele>
        <time>2020-10-04T13:14:50.729Z</time>
      </trkpt>
      <trkpt lat="44.03684" lon="1.87742">
        <ele>284</ele>
        <time>2020-10-04T13:14:51.729Z</time>
      </trkpt>
      <trkpt lat="44.03684" lon="1.87743">
        <ele>284</ele>
        <time>2020-10-04T13:14:52.729Z</time>
      </trkpt>
      <trkpt lat="44.03685" lon="1.87744">
        <ele>284</ele>
        <time>2020-10-04T13:14:53.729Z</time>
      </trkpt>
      <trkpt lat="44.03686" lon="1.87746">
        <ele>284</ele>
        <time>2020-10-04T13:14:54.729Z</time>
      </trkpt>
      <trkpt lat="44.03687" lon="1.87746">
        <ele>284</ele>
        <time>2020-10-04T13:14:55.729Z</time>
      </trkpt>
      <trkpt lat="44.03687" lon="1.87747">
        <ele>284</ele>
        <time>2020-10-04T13:14:56.729Z</time>
      </trkpt>
      <trkpt lat="44.03688" lon="1.87748">
        <ele>284</ele>
        <time>2020-10-04T13:14:57.729Z</time>
      </trkpt>
      <trkpt lat="44.03689" lon="1.87749">
        <ele>284</ele>
        <time>2020-10-04T13:14:58.729Z</time>
      </trkpt>
      <trkpt lat="44.0369" lon="1.87749">
        <ele>284</ele>
        <time>2020-10-04T13:14:59.729Z</time>
      </trkpt>
      <trkpt lat="44.03691" lon="1.87748">
        <ele>284</ele>
        <time>2020-10-04T13:15:00.729Z</time>
      </trkpt>
      <trkpt lat="44.03692" lon="1.87748">
        <ele>284</ele>
        <time>2020-10-04T13:15:01.729Z</time>
      </trkpt>
      <trkpt lat="44.03693" lon="1.87748">
        <ele>284</ele>
        <time>2020-10-04T13:15:02.729Z</time>
      </trkpt>
      <trkpt lat="44.03694" lon="1.87747">
        <ele>284</ele>
        <time>2020-10-04T13:15:03.729Z</time>
      </trkpt>
      <trkpt lat="44.03694" lon="1.87746">
        <ele>284</ele>
        <time>2020-10-04T13:15:04.729Z</time>
      </trkpt>
      <trkpt lat="44.03694" lon="1.87745">
        <ele>284</ele>
        <time>2020-10-04T13:15:05.729Z</time>
      </trkpt>
      <trkpt lat="44.03695" lon="1.87744">
        <ele>284</ele>
        <time>2020-10-04T13:15:06.729Z</time>
      </trkpt>
      <trkpt lat="44.03695" lon="1.87742">
        <ele>284</ele>
        <time>2020-10-04T13:15:07.729Z</time>
      </trkpt>
      <trkpt lat="44.03696" lon="1.87741">
        <ele>284</ele>
        <time>2020-10-04T13:15:08.729Z</time>
      </trkpt>
      <trkpt lat="44.03696" lon="1.8774">
        <ele>284</ele>
        <time>2020-10-04T13:15:09.729Z</time>
      </trkpt>
      <trkpt lat="44.03696" lon="1.8774">
        <ele>284</ele>
        <time>2020-10-04T13:15:10.729Z</time>
      </trkpt>
      <trkpt lat="44.03696" lon="1.87739">
        <ele>283</ele>
        <time>2020-10-04T13:15:11.729Z</time>
      </trkpt>
      <trkpt lat="44.03696" lon="1.87737">
        <ele>283</ele>
        <time>2020-10-04T13:15:12.729Z</time>
      </trkpt>
      <trkpt lat="44.03696" lon="1.87735">
        <ele>283</ele>
        <time>2020-10-04T13:15:13.729Z</time>
      </trkpt>
      <trkpt lat="44.03696" lon="1.87734">
        <ele>283</ele>
        <time>2020-10-04T13:15:14.729Z</time>
      </trkpt>
      <trkpt lat="44.03697" lon="1.87733">
        <ele>283</ele>
        <time>2020-10-04T13:15:15.729Z</time>
      </trkpt>
      <trkpt lat="44.03697" lon="1.87732">
        <ele>284</ele>
        <time>2020-10-04T13:15:16.729Z</time>
      </trkpt>
      <trkpt lat="44.03698" lon="1.8773">
        <ele>284</ele>
        <time>2020-10-04T13:15:17.729Z</time>
      </trkpt>
      <trkpt lat="44.03698" lon="1.87729">
        <ele>284</ele>
        <time>2020-10-04T13:15:18.729Z</time>
      </trkpt>
      <trkpt lat="44.03699" lon="1.87728">
        <ele>284</ele>
        <time>2020-10-04T13:15:19.729Z</time>
      </trkpt>
      <trkpt lat="44.03699" lon="1.87727">
        <ele>284</ele>
        <time>2020-10-04T13:15:20.729Z</time>
      </trkpt>
      <trkpt lat="44.037" lon="1.87726">
        <ele>284</ele>
        <time>2020-10-04T13:15:21.729Z</time>
      </trkpt>
      <trkpt lat="44.03701" lon="1.87725">
        <ele>284</ele>
        <time>2020-10-04T13:15:22.729Z</time>
      </trkpt>
      <trkpt lat="44.03701" lon="1.87724">
        <ele>284</ele>
        <time>2020-10-04T13:15:23.729Z</time>
      </trkpt>
      <trkpt lat="44.03702" lon="1.87723">
        <ele>284</ele>
        <time>2020-10-04T13:15:24.729Z</time>
      </trkpt>
      <trkpt lat="44.03702" lon="1.87722">
        <ele>284</ele>
        <time>2020-10-04T13:15:25.729Z</time>
      </trkpt>
      <trkpt lat="44.03703" lon="1.87721">
        <ele>284</ele>
        <time>2020-10-04T13:15:26.729Z</time>
      </trkpt>
      <trkpt lat="44.03704" lon="1.8772">
        <ele>284</ele>
        <time>2020-10-04T13:15:27.729Z</time>
      </trkpt>
      <trkpt lat="44.03704" lon="1.87719">
        <ele>284</ele>
        <time>2020-10-04T13:15:28.729Z</time>
      </trkpt>
      <trkpt lat="44.03705" lon="1.87718">
        <ele>284</ele>
        <time>2020-10-04T13:15:29.729Z</time>
      </trkpt>
      <trkpt lat="44.03706" lon="1.87717">
        <ele>283</ele>
        <time>2020-10-04T13:15:30.729Z</time>
      </trkpt>
      <trkpt lat="44.03706" lon="1.87716">
        <ele>283</ele>
        <time>2020-10-04T13:15:31.729Z</time>
      </trkpt>
      <trkpt lat="44.03708" lon="1.87715">
        <ele>283</ele>
        <time>2020-10-04T13:15:32.729Z</time>
      </trkpt>
      <trkpt lat="44.03708" lon="1.87714">
        <ele>283</ele>
        <time>2020-10-04T13:15:33.729Z</time>
      </trkpt>
      <trkpt lat="44.03709" lon="1.87714">
        <ele>283</ele>
        <time>2020-10-04T13:15:34.729Z</time>
      </trkpt>
      <trkpt lat="44.0371" lon="1.87714">
        <ele>284</ele>
        <time>2020-10-04T13:15:35.729Z</time>
      </trkpt>
      <trkpt lat="44.03711" lon="1.87713">
        <ele>284</ele>
        <time>2020-10-04T13:15:36.729Z</time>
      </trkpt>
      <trkpt lat="44.03712" lon="1.87713">
        <ele>284</ele>
        <time>2020-10-04T13:15:37.729Z</time>
      </trkpt>
      <trkpt lat="44.03713" lon="1.87713">
        <ele>284</ele>
        <time>2020-10-04T13:15:38.729Z</time>
      </trkpt>
      <trkpt lat="44.03714" lon="1.87712">
        <ele>284</ele>
        <time>2020-10-04T13:15:39.729Z</time>
      </trkpt>
      <trkpt lat="44.03715" lon="1.87712">
        <ele>284</ele>
        <time>2020-10-04T13:15:40.729Z</time>
      </trkpt>
      <trkpt lat="44.03715" lon="1.87712">
        <ele>284</ele>
        <time>2020-10-04T13:15:41.729Z</time>
      </trkpt>
      <trkpt lat="44.03717" lon="1.87712">
        <ele>284</ele>
        <time>2020-10-04T13:15:42.729Z</time>
      </trkpt>
      <trkpt lat="44.03718" lon="1.87712">
        <ele>284</ele>
        <time>2020-10-04T13:15:43.729Z</time>
      </trkpt>
      <trkpt lat="44.03718" lon="1.87711">
        <ele>284</ele>
        <time>2020-10-04T13:15:44.729Z</time>
      </trkpt>
      <trkpt lat="44.03719" lon="1.87711">
        <ele>284</ele>
        <time>2020-10-04T13:15:45.729Z</time>
      </trkpt>
      <trkpt lat="44.0372" lon="1.87711">
        <ele>284</ele>
        <time>2020-10-04T13:15:46.729Z</time>
      </trkpt>
      <trkpt lat="44.03721" lon="1.87711">
        <ele>283</ele>
        <time>2020-10-04T13:15:47.729Z</time>
      </trkpt>
      <trkpt lat="44.03722" lon="1.87711">
        <ele>283</ele>
        <time>2020-10-04T13:15:48.729Z</time>
      </trkpt>
      <trkpt lat="44.03723" lon="1.8771">
        <ele>283</ele>
        <time>2020-10-04T13:15:49.729Z</time>
      </trkpt>
      <trkpt lat="44.03724" lon="1.8771">
        <ele>283</ele>
        <time>2020-10-04T13:15:50.729Z</time>
      </trkpt>
      <trkpt lat="44.03725" lon="1.8771">
        <ele>283</ele>
        <time>2020-10-04T13:15:51.729Z</time>
      </trkpt>
      <trkpt lat="44.03726" lon="1.8771">
        <ele>283</ele>
        <time>2020-10-04T13:15:52.729Z</time>
      </trkpt>
      <trkpt lat="44.03727" lon="1.8771">
        <ele>283</ele>
        <time>2020-10-04T13:15:53.729Z</time>
      </trkpt>
      <trkpt lat="44.03728" lon="1.8771">
        <ele>283</ele>
        <time>2020-10-04T13:15:54.729Z</time>
      </trkpt>
      <trkpt lat="44.03729" lon="1.8771">
        <ele>283</ele>
        <time>2020-10-04T13:15:55.729Z</time>
      </trkpt>
      <trkpt lat="44.0373" lon="1.8771">
        <ele>283</ele>
        <time>2020-10-04T13:15:56.729Z</time>
      </trkpt>
      <trkpt lat="44.03731" lon="1.87709">
        <ele>283</ele>
        <time>2020-10-04T13:15:57.729Z</time>
      </trkpt>
      <trkpt lat="44.03732" lon="1.87709">
        <ele>283</ele>
        <time>2020-10-04T13:15:58.729Z</time>
      </trkpt>
      <trkpt lat="44.03733" lon="1.87709">
        <ele>283</ele>
        <time>2020-10-04T13:15:59.729Z</time>
      </trkpt>
      <trkpt lat="44.03734" lon="1.87709">
        <ele>283</ele>
        <time>2020-10-04T13:16:00.729Z</time>
      </trkpt>
      <trkpt lat="44.03735" lon="1.87708">
        <ele>283</ele>
        <time>2020-10-04T13:16:01.729Z</time>
      </trkpt>
      <trkpt lat="44.03735" lon="1.87708">
        <ele>283</ele>
        <time>2020-10-04T13:16:02.729Z</time>
      </trkpt>
      <trkpt lat="44.03736" lon="1.87708">
        <ele>283</ele>
        <time>2020-10-04T13:16:03.729Z</time>
      </trkpt>
      <trkpt lat="44.03737" lon="1.87707">
        <ele>283</ele>
        <time>2020-10-04T13:16:04.729Z</time>
      </trkpt>
      <trkpt lat="44.03738" lon="1.87707">
        <ele>283</ele>
        <time>2020-10-04T13:16:05.729Z</time>
      </trkpt>
      <trkpt lat="44.03739" lon="1.87707">
        <ele>284</ele>
        <time>2020-10-04T13:16:06.729Z</time>
      </trkpt>
      <trkpt lat="44.0374" lon="1.87706">
        <ele>284</ele>
        <time>2020-10-04T13:16:07.729Z</time>
      </trkpt>
      <trkpt lat="44.03741" lon="1.87706">
        <ele>284</ele>
        <time>2020-10-04T13:16:08.729Z</time>
      </trkpt>
      <trkpt lat="44.03742" lon="1.87706">
        <ele>284</ele>
        <time>2020-10-04T13:16:09.729Z</time>
      </trkpt>
      <trkpt lat="44.03743" lon="1.87705">
        <ele>284</ele>
        <time>2020-10-04T13:16:10.729Z</time>
      </trkpt>
      <trkpt lat="44.03744" lon="1.87705">
        <ele>284</ele>
        <time>2020-10-04T13:16:11.729Z</time>
      </trkpt>
      <trkpt lat="44.03745" lon="1.87705">
        <ele>284</ele>
        <time>2020-10-04T13:16:12.729Z</time>
      </trkpt>
      <trkpt lat="44.03747" lon="1.87705">
        <ele>284</ele>
        <time>2020-10-04T13:16:13.729Z</time>
      </trkpt>
      <trkpt lat="44.03748" lon="1.87704">
        <ele>284</ele>
        <time>2020-10-04T13:16:14.729Z</time>
      </trkpt>
      <trkpt lat="44.03749" lon="1.87704">
        <ele>284</ele>
        <time>2020-10-04T13:16:15.729Z</time>
      </trkpt>
      <trkpt lat="44.0375" lon="1.87703">
        <ele>285</ele>
        <time>2020-10-04T13:16:16.729Z</time>
      </trkpt>
      <trkpt lat="44.03751" lon="1.87703">
        <ele>285</ele>
        <time>2020-10-04T13:16:17.729Z</time>
      </trkpt>
      <trkpt lat="44.03752" lon="1.87702">
        <ele>285</ele>
        <time>2020-10-04T13:16:18.729Z</time>
      </trkpt>
      <trkpt lat="44.03753" lon="1.87702">
        <ele>285</ele>
        <time>2020-10-04T13:16:19.729Z</time>
      </trkpt>
      <trkpt lat="44.03754" lon="1.87701">
        <ele>285</ele>
        <time>2020-10-04T13:16:20.729Z</time>
      </trkpt>
      <trkpt lat="44.03755" lon="1.87701">
        <ele>285</ele>
        <time>2020-10-04T13:16:21.729Z</time>
      </trkpt>
      <trkpt lat="44.03757" lon="1.87701">
        <ele>285</ele>
        <time>2020-10-04T13:16:22.729Z</time>
      </trkpt>
      <trkpt lat="44.03758" lon="1.87701">
        <ele>285</ele>
        <time>2020-10-04T13:16:23.729Z</time>
      </trkpt>
      <trkpt lat="44.03759" lon="1.87701">
        <ele>285</ele>
        <time>2020-10-04T13:16:24.729Z</time>
      </trkpt>
      <trkpt lat="44.0376" lon="1.87701">
        <ele>285</ele>
        <time>2020-10-04T13:16:25.729Z</time>
      </trkpt>
      <trkpt lat="44.03762" lon="1.87701">
        <ele>285</ele>
        <time>2020-10-04T13:16:26.729Z</time>
      </trkpt>
      <trkpt lat="44.03763" lon="1.87701">
        <ele>285</ele>
        <time>2020-10-04T13:16:27.729Z</time>
      </trkpt>
      <trkpt lat="44.03763" lon="1.87701">
        <ele>285</ele>
        <time>2020-10-04T13:16:28.729Z</time>
      </trkpt>
      <trkpt lat="44.03764" lon="1.87701">
        <ele>285</ele>
        <time>2020-10-04T13:16:29.729Z</time>
      </trkpt>
      <trkpt lat="44.03765" lon="1.87701">
        <ele>286</ele>
        <time>2020-10-04T13:16:30.729Z</time>
      </trkpt>
      <trkpt lat="44.03767" lon="1.87701">
        <ele>286</ele>
        <time>2020-10-04T13:16:31.729Z</time>
      </trkpt>
      <trkpt lat="44.03768" lon="1.877">
        <ele>286</ele>
        <time>2020-10-04T13:16:32.729Z</time>
      </trkpt>
      <trkpt lat="44.03769" lon="1.877">
        <ele>286</ele>
        <time>2020-10-04T13:16:33.729Z</time>
      </trkpt>
      <trkpt lat="44.0377" lon="1.877">
        <ele>286</ele>
        <time>2020-10-04T13:16:34.729Z</time>
      </trkpt>
      <trkpt lat="44.03771" lon="1.877">
        <ele>286</ele>
        <time>2020-10-04T13:16:35.729Z</time>
      </trkpt>
      <trkpt lat="44.03772" lon="1.877">
        <ele>286</ele>
        <time>2020-10-04T13:16:36.729Z</time>
      </trkpt>
      <trkpt lat="44.03774" lon="1.877">
        <ele>286</ele>
        <time>2020-10-04T13:16:37.729Z</time>
      </trkpt>
      <trkpt lat="44.03775" lon="1.877">
        <ele>286</ele>
        <time>2020-10-04T13:16:38.729Z</time>
      </trkpt>
      <trkpt lat="44.03776" lon="1.877">
        <ele>286</ele>
        <time>2020-10-04T13:16:39.729Z</time>
      </trkpt>
      <trkpt lat="44.03777" lon="1.877">
        <ele>286</ele>
        <time>2020-10-04T13:16:40.729Z</time>
      </trkpt>
      <trkpt lat="44.03778" lon="1.877">
        <ele>286</ele>
        <time>2020-10-04T13:16:41.729Z</time>
      </trkpt>
      <trkpt lat="44.03779" lon="1.877">
        <ele>286</ele>
        <time>2020-10-04T13:16:42.729Z</time>
      </trkpt>
      <trkpt lat="44.0378" lon="1.877">
        <ele>286</ele>
        <time>2020-10-04T13:16:43.729Z</time>
      </trkpt>
      <trkpt lat="44.03782" lon="1.87699">
        <ele>286</ele>
        <time>2020-10-04T13:16:44.729Z</time>
      </trkpt>
      <trkpt lat="44.03783" lon="1.87699">
        <ele>286</ele>
        <time>2020-10-04T13:16:45.729Z</time>
      </trkpt>
      <trkpt lat="44.03784" lon="1.87699">
        <ele>286</ele>
        <time>2020-10-04T13:16:46.729Z</time>
      </trkpt>
      <trkpt lat="44.03785" lon="1.87699">
        <ele>287</ele>
        <time>2020-10-04T13:16:47.729Z</time>
      </trkpt>
      <trkpt lat="44.03786" lon="1.87699">
        <ele>287</ele>
        <time>2020-10-04T13:16:48.729Z</time>
      </trkpt>
      <trkpt lat="44.03787" lon="1.87699">
        <ele>287</ele>
        <time>2020-10-04T13:16:49.729Z</time>
      </trkpt>
      <trkpt lat="44.03788" lon="1.87699">
        <ele>287</ele>
        <time>2020-10-04T13:16:50.729Z</time>
      </trkpt>
      <trkpt lat="44.03789" lon="1.87699">
        <ele>287</ele>
        <time>2020-10-04T13:16:51.729Z</time>
      </trkpt>
      <trkpt lat="44.0379" lon="1.87699">
        <ele>287</ele>
        <time>2020-10-04T13:16:52.729Z</time>
      </trkpt>
      <trkpt lat="44.03791" lon="1.877">
        <ele>287</ele>
        <time>2020-10-04T13:16:53.729Z</time>
      </trkpt>
      <trkpt lat="44.03793" lon="1.877">
        <ele>287</ele>
        <time>2020-10-04T13:16:54.729Z</time>
      </trkpt>
      <trkpt lat="44.03794" lon="1.877">
        <ele>287</ele>
        <time>2020-10-04T13:16:55.729Z</time>
      </trkpt>
      <trkpt lat="44.03795" lon="1.87699">
        <ele>287</ele>
        <time>2020-10-04T13:16:56.729Z</time>
      </trkpt>
      <trkpt lat="44.03796" lon="1.87699">
        <ele>287</ele>
        <time>2020-10-04T13:16:57.729Z</time>
      </trkpt>
      <trkpt lat="44.03797" lon="1.877">
        <ele>287</ele>
        <time>2020-10-04T13:16:58.729Z</time>
      </trkpt>
      <trkpt lat="44.03798" lon="1.877">
        <ele>287</ele>
        <time>2020-10-04T13:16:59.729Z</time>
      </trkpt>
      <trkpt lat="44.038" lon="1.877">
        <ele>287</ele>
        <time>2020-10-04T13:17:00.729Z</time>
      </trkpt>
      <trkpt lat="44.03801" lon="1.877">
        <ele>287</ele>
        <time>2020-10-04T13:17:01.729Z</time>
      </trkpt>
      <trkpt lat="44.03802" lon="1.877">
        <ele>287</ele>
        <time>2020-10-04T13:17:02.729Z</time>
      </trkpt>
      <trkpt lat="44.03803" lon="1.877">
        <ele>287</ele>
        <time>2020-10-04T13:17:03.729Z</time>
      </trkpt>
      <trkpt lat="44.03804" lon="1.87701">
        <ele>287</ele>
        <time>2020-10-04T13:17:04.729Z</time>
      </trkpt>
      <trkpt lat="44.03806" lon="1.87701">
        <ele>287</ele>
        <time>2020-10-04T13:17:05.729Z</time>
      </trkpt>
      <trkpt lat="44.03807" lon="1.87701">
        <ele>287</ele>
        <time>2020-10-04T13:17:06.729Z</time>
      </trkpt>
      <trkpt lat="44.03808" lon="1.87701">
        <ele>287</ele>
        <time>2020-10-04T13:17:07.729Z</time>
      </trkpt>
      <trkpt lat="44.03809" lon="1.87701">
        <ele>287</ele>
        <time>2020-10-04T13:17:08.729Z</time>
      </trkpt>
      <trkpt lat="44.0381" lon="1.87701">
        <ele>287</ele>
        <time>2020-10-04T13:17:09.729Z</time>
      </trkpt>
      <trkpt lat="44.03812" lon="1.87701">
        <ele>287</ele>
        <time>2020-10-04T13:17:10.729Z</time>
      </trkpt>
      <trkpt lat="44.03813" lon="1.87701">
        <ele>287</ele>
        <time>2020-10-04T13:17:11.729Z</time>
      </trkpt>
      <trkpt lat="44.03814" lon="1.87701">
        <ele>287</ele>
        <time>2020-10-04T13:17:12.729Z</time>
      </trkpt>
      <trkpt lat="44.03815" lon="1.87701">
        <ele>287</ele>
        <time>2020-10-04T13:17:13.729Z</time>
      </trkpt>
      <trkpt lat="44.03816" lon="1.87701">
        <ele>287</ele>
        <time>2020-10-04T13:17:14.729Z</time>
      </trkpt>
      <trkpt lat="44.03817" lon="1.87701">
        <ele>287</ele>
        <time>2020-10-04T13:17:15.729Z</time>
      </trkpt>
      <trkpt lat="44.03818" lon="1.877">
        <ele>287</ele>
        <time>2020-10-04T13:17:16.729Z</time>
      </trkpt>
      <trkpt lat="44.03819" lon="1.877">
        <ele>287</ele>
        <time>2020-10-04T13:17:17.729Z</time>
      </trkpt>
      <trkpt lat="44.0382" lon="1.87699">
        <ele>287</ele>
        <time>2020-10-04T13:17:18.729Z</time>
      </trkpt>
      <trkpt lat="44.03821" lon="1.87699">
        <ele>288</ele>
        <time>2020-10-04T13:17:19.729Z</time>
      </trkpt>
      <trkpt lat="44.03822" lon="1.87698">
        <ele>288</ele>
        <time>2020-10-04T13:17:20.729Z</time>
      </trkpt>
      <trkpt lat="44.03823" lon="1.87697">
        <ele>288</ele>
        <time>2020-10-04T13:17:21.729Z</time>
      </trkpt>
      <trkpt lat="44.03824" lon="1.87697">
        <ele>288</ele>
        <time>2020-10-04T13:17:22.729Z</time>
      </trkpt>
      <trkpt lat="44.03825" lon="1.87696">
        <ele>288</ele>
        <time>2020-10-04T13:17:23.729Z</time>
      </trkpt>
      <trkpt lat="44.03826" lon="1.87696">
        <ele>288</ele>
        <time>2020-10-04T13:17:24.729Z</time>
      </trkpt>
      <trkpt lat="44.03826" lon="1.87695">
        <ele>288</ele>
        <time>2020-10-04T13:17:25.729Z</time>
      </trkpt>
      <trkpt lat="44.03827" lon="1.87694">
        <ele>288</ele>
        <time>2020-10-04T13:17:26.729Z</time>
      </trkpt>
      <trkpt lat="44.03828" lon="1.87693">
        <ele>288</ele>
        <time>2020-10-04T13:17:27.729Z</time>
      </trkpt>
      <trkpt lat="44.03829" lon="1.87693">
        <ele>288</ele>
        <time>2020-10-04T13:17:28.729Z</time>
      </trkpt>
      <trkpt lat="44.0383" lon="1.87692">
        <ele>288</ele>
        <time>2020-10-04T13:17:29.729Z</time>
      </trkpt>
      <trkpt lat="44.0383" lon="1.87691">
        <ele>288</ele>
        <time>2020-10-04T13:17:30.729Z</time>
      </trkpt>
      <trkpt lat="44.03831" lon="1.8769">
        <ele>288</ele>
        <time>2020-10-04T13:17:31.729Z</time>
      </trkpt>
      <trkpt lat="44.03832" lon="1.87689">
        <ele>288</ele>
        <time>2020-10-04T13:17:32.729Z</time>
      </trkpt>
      <trkpt lat="44.03833" lon="1.87689">
        <ele>288</ele>
        <time>2020-10-04T13:17:33.729Z</time>
      </trkpt>
      <trkpt lat="44.03834" lon="1.87688">
        <ele>288</ele>
        <time>2020-10-04T13:17:34.729Z</time>
      </trkpt>
      <trkpt lat="44.03835" lon="1.87687">
        <ele>288</ele>
        <time>2020-10-04T13:17:35.729Z</time>
      </trkpt>
      <trkpt lat="44.03836" lon="1.87686">
        <ele>288</ele>
        <time>2020-10-04T13:17:36.729Z</time>
      </trkpt>
      <trkpt lat="44.03837" lon="1.87685">
        <ele>288</ele>
        <time>2020-10-04T13:17:37.729Z</time>
      </trkpt>
      <trkpt lat="44.03838" lon="1.87684">
        <ele>288</ele>
        <time>2020-10-04T13:17:38.729Z</time>
      </trkpt>
      <trkpt lat="44.03839" lon="1.87683">
        <ele>288</ele>
        <time>2020-10-04T13:17:39.729Z</time>
      </trkpt>
      <trkpt lat="44.0384" lon="1.87682">
        <ele>288</ele>
        <time>2020-10-04T13:17:40.729Z</time>
      </trkpt>
      <trkpt lat="44.03841" lon="1.87681">
        <ele>288</ele>
        <time>2020-10-04T13:17:41.729Z</time>
      </trkpt>
      <trkpt lat="44.03842" lon="1.87681">
        <ele>288</ele>
        <time>2020-10-04T13:17:42.729Z</time>
      </trkpt>
      <trkpt lat="44.03843" lon="1.8768">
        <ele>288</ele>
        <time>2020-10-04T13:17:43.729Z</time>
      </trkpt>
      <trkpt lat="44.03845" lon="1.8768">
        <ele>288</ele>
        <time>2020-10-04T13:17:44.729Z</time>
      </trkpt>
      <trkpt lat="44.03846" lon="1.87681">
        <ele>288</ele>
        <time>2020-10-04T13:17:45.729Z</time>
      </trkpt>
      <trkpt lat="44.03847" lon="1.87681">
        <ele>288</ele>
        <time>2020-10-04T13:17:46.729Z</time>
      </trkpt>
      <trkpt lat="44.03847" lon="1.87682">
        <ele>288</ele>
        <time>2020-10-04T13:17:47.729Z</time>
      </trkpt>
      <trkpt lat="44.03848" lon="1.87684">
        <ele>288</ele>
        <time>2020-10-04T13:17:48.729Z</time>
      </trkpt>
      <trkpt lat="44.03848" lon="1.87685">
        <ele>287</ele>
        <time>2020-10-04T13:17:49.729Z</time>
      </trkpt>
      <trkpt lat="44.03849" lon="1.87686">
        <ele>287</ele>
        <time>2020-10-04T13:17:50.729Z</time>
      </trkpt>
      <trkpt lat="44.03849" lon="1.87687">
        <ele>287</ele>
        <time>2020-10-04T13:17:51.729Z</time>
      </trkpt>
      <trkpt lat="44.0385" lon="1.87689">
        <ele>287</ele>
        <time>2020-10-04T13:17:52.729Z</time>
      </trkpt>
      <trkpt lat="44.0385" lon="1.8769">
        <ele>287</ele>
        <time>2020-10-04T13:17:53.729Z</time>
      </trkpt>
      <trkpt lat="44.03851" lon="1.87691">
        <ele>287</ele>
        <time>2020-10-04T13:17:54.729Z</time>
      </trkpt>
      <trkpt lat="44.03851" lon="1.87693">
        <ele>287</ele>
        <time>2020-10-04T13:17:55.729Z</time>
      </trkpt>
      <trkpt lat="44.03852" lon="1.87695">
        <ele>287</ele>
        <time>2020-10-04T13:17:56.729Z</time>
      </trkpt>
      <trkpt lat="44.03853" lon="1.87696">
        <ele>287</ele>
        <time>2020-10-04T13:17:57.729Z</time>
      </trkpt>
      <trkpt lat="44.03853" lon="1.87698">
        <ele>287</ele>
        <time>2020-10-04T13:17:58.729Z</time>
      </trkpt>
      <trkpt lat="44.03854" lon="1.87699">
        <ele>287</ele>
        <time>2020-10-04T13:17:59.729Z</time>
      </trkpt>
      <trkpt lat="44.03854" lon="1.877">
        <ele>287</ele>
        <time>2020-10-04T13:18:00.729Z</time>
      </trkpt>
      <trkpt lat="44.03855" lon="1.87702">
        <ele>287</ele>
        <time>2020-10-04T13:18:01.729Z</time>
      </trkpt>
      <trkpt lat="44.03855" lon="1.87703">
        <ele>287</ele>
        <time>2020-10-04T13:18:02.729Z</time>
      </trkpt>
      <trkpt lat="44.03856" lon="1.87705">
        <ele>287</ele>
        <time>2020-10-04T13:18:03.729Z</time>
      </trkpt>
      <trkpt lat="44.03857" lon="1.87707">
        <ele>287</ele>
        <time>2020-10-04T13:18:04.729Z</time>
      </trkpt>
      <trkpt lat="44.03857" lon="1.87708">
        <ele>287</ele>
        <time>2020-10-04T13:18:05.729Z</time>
      </trkpt>
      <trkpt lat="44.03858" lon="1.8771">
        <ele>287</ele>
        <time>2020-10-04T13:18:06.729Z</time>
      </trkpt>
      <trkpt lat="44.03859" lon="1.87712">
        <ele>287</ele>
        <time>2020-10-04T13:18:07.729Z</time>
      </trkpt>
      <trkpt lat="44.03859" lon="1.87713">
        <ele>287</ele>
        <time>2020-10-04T13:18:08.729Z</time>
      </trkpt>
      <trkpt lat="44.03859" lon="1.87714">
        <ele>287</ele>
        <time>2020-10-04T13:18:09.729Z</time>
      </trkpt>
      <trkpt lat="44.0386" lon="1.87716">
        <ele>287</ele>
        <time>2020-10-04T13:18:10.729Z</time>
      </trkpt>
      <trkpt lat="44.0386" lon="1.87717">
        <ele>287</ele>
        <time>2020-10-04T13:18:11.729Z</time>
      </trkpt>
      <trkpt lat="44.03861" lon="1.87719">
        <ele>287</ele>
        <time>2020-10-04T13:18:12.729Z</time>
      </trkpt>
      <trkpt lat="44.03862" lon="1.87721">
        <ele>287</ele>
        <time>2020-10-04T13:18:13.729Z</time>
      </trkpt>
      <trkpt lat="44.03862" lon="1.87722">
        <ele>287</ele>
        <time>2020-10-04T13:18:14.729Z</time>
      </trkpt>
      <trkpt lat="44.03863" lon="1.87724">
        <ele>287</ele>
        <time>2020-10-04T13:18:15.729Z</time>
      </trkpt>
      <trkpt lat="44.03864" lon="1.87725">
        <ele>287</ele>
        <time>2020-10-04T13:18:16.729Z</time>
      </trkpt>
      <trkpt lat="44.03864" lon="1.87727">
        <ele>287</ele>
        <time>2020-10-04T13:18:17.729Z</time>
      </trkpt>
      <trkpt lat="44.03865" lon="1.87729">
        <ele>287</ele>
        <time>2020-10-04T13:18:18.729Z</time>
      </trkpt>
      <trkpt lat="44.03866" lon="1.8773">
        <ele>287</ele>
        <time>2020-10-04T13:18:19.729Z</time>
      </trkpt>
      <trkpt lat="44.03866" lon="1.87732">
        <ele>287</ele>
        <time>2020-10-04T13:18:20.729Z</time>
      </trkpt>
      <trkpt lat="44.03867" lon="1.87734">
        <ele>287</ele>
        <time>2020-10-04T13:18:21.729Z</time>
      </trkpt>
      <trkpt lat="44.03868" lon="1.87735">
        <ele>287</ele>
        <time>2020-10-04T13:18:22.729Z</time>
      </trkpt>
      <trkpt lat="44.03868" lon="1.87737">
        <ele>287</ele>
        <time>2020-10-04T13:18:23.729Z</time>
      </trkpt>
      <trkpt lat="44.03869" lon="1.87738">
        <ele>287</ele>
        <time>2020-10-04T13:18:24.729Z</time>
      </trkpt>
      <trkpt lat="44.03869" lon="1.8774">
        <ele>287</ele>
        <time>2020-10-04T13:18:25.729Z</time>
      </trkpt>
      <trkpt lat="44.0387" lon="1.87742">
        <ele>287</ele>
        <time>2020-10-04T13:18:26.729Z</time>
      </trkpt>
      <trkpt lat="44.0387" lon="1.87743">
        <ele>287</ele>
        <time>2020-10-04T13:18:27.729Z</time>
      </trkpt>
      <trkpt lat="44.03871" lon="1.87744">
        <ele>287</ele>
        <time>2020-10-04T13:18:28.729Z</time>
      </trkpt>
      <trkpt lat="44.03872" lon="1.87746">
        <ele>287</ele>
        <time>2020-10-04T13:18:29.729Z</time>
      </trkpt>
      <trkpt lat="44.03872" lon="1.87747">
        <ele>287</ele>
        <time>2020-10-04T13:18:30.729Z</time>
      </trkpt>
      <trkpt lat="44.03873" lon="1.87748">
        <ele>287</ele>
        <time>2020-10-04T13:18:31.729Z</time>
      </trkpt>
      <trkpt lat="44.03874" lon="1.87749">
        <ele>287</ele>
        <time>2020-10-04T13:18:32.729Z</time>
      </trkpt>
      <trkpt lat="44.03874" lon="1.8775">
        <ele>287</ele>
        <time>2020-10-04T13:18:33.729Z</time>
      </trkpt>
      <trkpt lat="44.03875" lon="1.87752">
        <ele>287</ele>
        <time>2020-10-04T13:18:34.729Z</time>
      </trkpt>
      <trkpt lat="44.03875" lon="1.87753">
        <ele>286</ele>
        <time>2020-10-04T13:18:35.729Z</time>
      </trkpt>
      <trkpt lat="44.03875" lon="1.87754">
        <ele>286</ele>
        <time>2020-10-04T13:18:36.729Z</time>
      </trkpt>
      <trkpt lat="44.03876" lon="1.87755">
        <ele>286</ele>
        <time>2020-10-04T13:18:37.729Z</time>
      </trkpt>
      <trkpt lat="44.03876" lon="1.87757">
        <ele>286</ele>
        <time>2020-10-04T13:18:38.729Z</time>
      </trkpt>
      <trkpt lat="44.03876" lon="1.87758">
        <ele>286</ele>
        <time>2020-10-04T13:18:39.729Z</time>
      </trkpt>
      <trkpt lat="44.03877" lon="1.8776">
        <ele>286</ele>
        <time>2020-10-04T13:18:40.729Z</time>
      </trkpt>
      <trkpt lat="44.03877" lon="1.87761">
        <ele>286</ele>
        <time>2020-10-04T13:18:41.729Z</time>
      </trkpt>
      <trkpt lat="44.03878" lon="1.87763">
        <ele>286</ele>
        <time>2020-10-04T13:18:42.729Z</time>
      </trkpt>
      <trkpt lat="44.03878" lon="1.87764">
        <ele>286</ele>
        <time>2020-10-04T13:18:43.729Z</time>
      </trkpt>
      <trkpt lat="44.03878" lon="1.87766">
        <ele>286</ele>
        <time>2020-10-04T13:18:44.729Z</time>
      </trkpt>
      <trkpt lat="44.03879" lon="1.87768">
        <ele>286</ele>
        <time>2020-10-04T13:18:45.729Z</time>
      </trkpt>
      <trkpt lat="44.0388" lon="1.87769">
        <ele>285</ele>
        <time>2020-10-04T13:18:46.729Z</time>
      </trkpt>
      <trkpt lat="44.0388" lon="1.87771">
        <ele>285</ele>
        <time>2020-10-04T13:18:47.729Z</time>
      </trkpt>
      <trkpt lat="44.0388" lon="1.87772">
        <ele>285</ele>
        <time>2020-10-04T13:18:48.729Z</time>
      </trkpt>
      <trkpt lat="44.03881" lon="1.87773">
        <ele>285</ele>
        <time>2020-10-04T13:18:49.729Z</time>
      </trkpt>
      <trkpt lat="44.03881" lon="1.87775">
        <ele>285</ele>
        <time>2020-10-04T13:18:50.729Z</time>
      </trkpt>
      <trkpt lat="44.03881" lon="1.87776">
        <ele>285</ele>
        <time>2020-10-04T13:18:51.729Z</time>
      </trkpt>
      <trkpt lat="44.03882" lon="1.87778">
        <ele>285</ele>
        <time>2020-10-04T13:18:52.729Z</time>
      </trkpt>
      <trkpt lat="44.03882" lon="1.8778">
        <ele>285</ele>
        <time>2020-10-04T13:18:53.729Z</time>
      </trkpt>
      <trkpt lat="44.03882" lon="1.87781">
        <ele>285</ele>
        <time>2020-10-04T13:18:54.729Z</time>
      </trkpt>
      <trkpt lat="44.03883" lon="1.87783">
        <ele>285</ele>
        <time>2020-10-04T13:18:55.729Z</time>
      </trkpt>
      <trkpt lat="44.03883" lon="1.87784">
        <ele>285</ele>
        <time>2020-10-04T13:18:56.729Z</time>
      </trkpt>
      <trkpt lat="44.03884" lon="1.87786">
        <ele>285</ele>
        <time>2020-10-04T13:18:57.729Z</time>
      </trkpt>
      <trkpt lat="44.03884" lon="1.87788">
        <ele>285</ele>
        <time>2020-10-04T13:18:58.729Z</time>
      </trkpt>
      <trkpt lat="44.03884" lon="1.8779">
        <ele>285</ele>
        <time>2020-10-04T13:18:59.729Z</time>
      </trkpt>
      <trkpt lat="44.03885" lon="1.87792">
        <ele>285</ele>
        <time>2020-10-04T13:19:00.729Z</time>
      </trkpt>
      <trkpt lat="44.03885" lon="1.87793">
        <ele>285</ele>
        <time>2020-10-04T13:19:01.729Z</time>
      </trkpt>
      <trkpt lat="44.03886" lon="1.87795">
        <ele>285</ele>
        <time>2020-10-04T13:19:02.729Z</time>
      </trkpt>
      <trkpt lat="44.03886" lon="1.87796">
        <ele>285</ele>
        <time>2020-10-04T13:19:03.729Z</time>
      </trkpt>
      <trkpt lat="44.03886" lon="1.87798">
        <ele>285</ele>
        <time>2020-10-04T13:19:04.729Z</time>
      </trkpt>
      <trkpt lat="44.03886" lon="1.878">
        <ele>285</ele>
        <time>2020-10-04T13:19:05.729Z</time>
      </trkpt>
      <trkpt lat="44.03887" lon="1.87801">
        <ele>285</ele>
        <time>2020-10-04T13:19:06.729Z</time>
      </trkpt>
      <trkpt lat="44.03887" lon="1.87803">
        <ele>285</ele>
        <time>2020-10-04T13:19:07.729Z</time>
      </trkpt>
      <trkpt lat="44.03888" lon="1.87804">
        <ele>284</ele>
        <time>2020-10-04T13:19:08.729Z</time>
      </trkpt>
      <trkpt lat="44.03889" lon="1.87806">
        <ele>284</ele>
        <time>2020-10-04T13:19:09.729Z</time>
      </trkpt>
      <trkpt lat="44.03889" lon="1.87807">
        <ele>284</ele>
        <time>2020-10-04T13:19:10.729Z</time>
      </trkpt>
      <trkpt lat="44.0389" lon="1.87809">
        <ele>284</ele>
        <time>2020-10-04T13:19:11.729Z</time>
      </trkpt>
      <trkpt lat="44.0389" lon="1.8781">
        <ele>284</ele>
        <time>2020-10-04T13:19:12.729Z</time>
      </trkpt>
      <trkpt lat="44.0389" lon="1.87812">
        <ele>284</ele>
        <time>2020-10-04T13:19:13.729Z</time>
      </trkpt>
      <trkpt lat="44.03891" lon="1.87813">
        <ele>284</ele>
        <time>2020-10-04T13:19:14.729Z</time>
      </trkpt>
      <trkpt lat="44.03892" lon="1.87815">
        <ele>284</ele>
        <time>2020-10-04T13:19:15.729Z</time>
      </trkpt>
      <trkpt lat="44.03892" lon="1.87816">
        <ele>284</ele>
        <time>2020-10-04T13:19:16.729Z</time>
      </trkpt>
      <trkpt lat="44.03893" lon="1.87818">
        <ele>284</ele>
        <time>2020-10-04T13:19:17.729Z</time>
      </trkpt>
      <trkpt lat="44.03894" lon="1.87819">
        <ele>284</ele>
        <time>2020-10-04T13:19:18.729Z</time>
      </trkpt>
      <trkpt lat="44.03894" lon="1.87821">
        <ele>284</ele>
        <time>2020-10-04T13:19:19.729Z</time>
      </trkpt>
      <trkpt lat="44.03895" lon="1.87822">
        <ele>283</ele>
        <time>2020-10-04T13:19:20.729Z</time>
      </trkpt>
      <trkpt lat="44.03895" lon="1.87824">
        <ele>283</ele>
        <time>2020-10-04T13:19:21.729Z</time>
      </trkpt>
      <trkpt lat="44.03896" lon="1.87825">
        <ele>283</ele>
        <time>2020-10-04T13:19:22.729Z</time>
      </trkpt>
      <trkpt lat="44.03896" lon="1.87827">
        <ele>283</ele>
        <time>2020-10-04T13:19:23.729Z</time>
      </trkpt>
      <trkpt lat="44.03897" lon="1.87829">
        <ele>283</ele>
        <time>2020-10-04T13:19:24.729Z</time>
      </trkpt>
      <trkpt lat="44.03897" lon="1.8783">
        <ele>283</ele>
        <time>2020-10-04T13:19:25.729Z</time>
      </trkpt>
      <trkpt lat="44.03898" lon="1.87832">
        <ele>283</ele>
        <time>2020-10-04T13:19:26.729Z</time>
      </trkpt>
      <trkpt lat="44.03898" lon="1.87834">
        <ele>283</ele>
        <time>2020-10-04T13:19:27.729Z</time>
      </trkpt>
      <trkpt lat="44.03899" lon="1.87835">
        <ele>283</ele>
        <time>2020-10-04T13:19:28.729Z</time>
      </trkpt>
      <trkpt lat="44.03899" lon="1.87837">
        <ele>283</ele>
        <time>2020-10-04T13:19:29.729Z</time>
      </trkpt>
      <trkpt lat="44.039" lon="1.87838">
        <ele>283</ele>
        <time>2020-10-04T13:19:30.729Z</time>
      </trkpt>
      <trkpt lat="44.039" lon="1.8784">
        <ele>283</ele>
        <time>2020-10-04T13:19:31.729Z</time>
      </trkpt>
      <trkpt lat="44.03901" lon="1.87842">
        <ele>283</ele>
        <time>2020-10-04T13:19:32.729Z</time>
      </trkpt>
      <trkpt lat="44.03902" lon="1.87843">
        <ele>283</ele>
        <time>2020-10-04T13:19:33.729Z</time>
      </trkpt>
      <trkpt lat="44.03902" lon="1.87845">
        <ele>283</ele>
        <time>2020-10-04T13:19:34.729Z</time>
      </trkpt>
      <trkpt lat="44.03903" lon="1.87847">
        <ele>283</ele>
        <time>2020-10-04T13:19:35.729Z</time>
      </trkpt>
      <trkpt lat="44.03904" lon="1.87848">
        <ele>283</ele>
        <time>2020-10-04T13:19:36.729Z</time>
      </trkpt>
      <trkpt lat="44.03904" lon="1.8785">
        <ele>282</ele>
        <time>2020-10-04T13:19:37.729Z</time>
      </trkpt>
      <trkpt lat="44.03905" lon="1.87851">
        <ele>282</ele>
        <time>2020-10-04T13:19:38.729Z</time>
      </trkpt>
      <trkpt lat="44.03905" lon="1.87852">
        <ele>282</ele>
        <time>2020-10-04T13:19:39.729Z</time>
      </trkpt>
      <trkpt lat="44.03906" lon="1.87854">
        <ele>282</ele>
        <time>2020-10-04T13:19:40.729Z</time>
      </trkpt>
      <trkpt lat="44.03907" lon="1.87856">
        <ele>282</ele>
        <time>2020-10-04T13:19:41.729Z</time>
      </trkpt>
      <trkpt lat="44.03907" lon="1.87857">
        <ele>282</ele>
        <time>2020-10-04T13:19:42.729Z</time>
      </trkpt>
      <trkpt lat="44.03908" lon="1.87859">
        <ele>282</ele>
        <time>2020-10-04T13:19:43.729Z</time>
      </trkpt>
      <trkpt lat="44.03908" lon="1.8786">
        <ele>282</ele>
        <time>2020-10-04T13:19:44.729Z</time>
      </trkpt>
      <trkpt lat="44.03909" lon="1.87862">
        <ele>282</ele>
        <time>2020-10-04T13:19:45.729Z</time>
      </trkpt>
      <trkpt lat="44.03909" lon="1.87864">
        <ele>282</ele>
        <time>2020-10-04T13:19:46.729Z</time>
      </trkpt>
      <trkpt lat="44.0391" lon="1.87865">
        <ele>282</ele>
        <time>2020-10-04T13:19:47.729Z</time>
      </trkpt>
      <trkpt lat="44.03911" lon="1.87866">
        <ele>282</ele>
        <time>2020-10-04T13:19:48.729Z</time>
      </trkpt>
      <trkpt lat="44.03911" lon="1.87868">
        <ele>282</ele>
        <time>2020-10-04T13:19:49.729Z</time>
      </trkpt>
      <trkpt lat="44.03912" lon="1.8787">
        <ele>282</ele>
        <time>2020-10-04T13:19:50.729Z</time>
      </trkpt>
      <trkpt lat="44.03912" lon="1.87872">
        <ele>282</ele>
        <time>2020-10-04T13:19:51.729Z</time>
      </trkpt>
      <trkpt lat="44.03913" lon="1.87873">
        <ele>282</ele>
        <time>2020-10-04T13:19:52.729Z</time>
      </trkpt>
      <trkpt lat="44.03913" lon="1.87875">
        <ele>282</ele>
        <time>2020-10-04T13:19:53.729Z</time>
      </trkpt>
      <trkpt lat="44.03914" lon="1.87876">
        <ele>282</ele>
        <time>2020-10-04T13:19:54.729Z</time>
      </trkpt>
      <trkpt lat="44.03914" lon="1.87878">
        <ele>282</ele>
        <time>2020-10-04T13:19:55.729Z</time>
      </trkpt>
      <trkpt lat="44.03915" lon="1.87879">
        <ele>282</ele>
        <time>2020-10-04T13:19:56.729Z</time>
      </trkpt>
      <trkpt lat="44.03915" lon="1.87881">
        <ele>282</ele>
        <time>2020-10-04T13:19:57.729Z</time>
      </trkpt>
      <trkpt lat="44.03916" lon="1.87883">
        <ele>282</ele>
        <time>2020-10-04T13:19:58.729Z</time>
      </trkpt>
      <trkpt lat="44.03917" lon="1.87885">
        <ele>282</ele>
        <time>2020-10-04T13:19:59.729Z</time>
      </trkpt>
      <trkpt lat="44.03917" lon="1.87886">
        <ele>282</ele>
        <time>2020-10-04T13:20:00.729Z</time>
      </trkpt>
      <trkpt lat="44.03918" lon="1.87888">
        <ele>282</ele>
        <time>2020-10-04T13:20:01.729Z</time>
      </trkpt>
      <trkpt lat="44.03919" lon="1.8789">
        <ele>282</ele>
        <time>2020-10-04T13:20:02.729Z</time>
      </trkpt>
      <trkpt lat="44.03919" lon="1.87891">
        <ele>282</ele>
        <time>2020-10-04T13:20:03.729Z</time>
      </trkpt>
      <trkpt lat="44.0392" lon="1.87893">
        <ele>281</ele>
        <time>2020-10-04T13:20:04.729Z</time>
      </trkpt>
      <trkpt lat="44.0392" lon="1.87894">
        <ele>281</ele>
        <time>2020-10-04T13:20:05.729Z</time>
      </trkpt>
      <trkpt lat="44.03921" lon="1.87896">
        <ele>281</ele>
        <time>2020-10-04T13:20:06.729Z</time>
      </trkpt>
      <trkpt lat="44.03922" lon="1.87898">
        <ele>281</ele>
        <time>2020-10-04T13:20:07.729Z</time>
      </trkpt>
      <trkpt lat="44.03922" lon="1.87899">
        <ele>281</ele>
        <time>2020-10-04T13:20:08.729Z</time>
      </trkpt>
      <trkpt lat="44.03923" lon="1.879">
        <ele>281</ele>
        <time>2020-10-04T13:20:09.729Z</time>
      </trkpt>
      <trkpt lat="44.03923" lon="1.87902">
        <ele>281</ele>
        <time>2020-10-04T13:20:10.729Z</time>
      </trkpt>
      <trkpt lat="44.03924" lon="1.87903">
        <ele>281</ele>
        <time>2020-10-04T13:20:11.729Z</time>
      </trkpt>
      <trkpt lat="44.03925" lon="1.87904">
        <ele>281</ele>
        <time>2020-10-04T13:20:12.729Z</time>
      </trkpt>
      <trkpt lat="44.03925" lon="1.87906">
        <ele>281</ele>
        <time>2020-10-04T13:20:13.729Z</time>
      </trkpt>
      <trkpt lat="44.03926" lon="1.87907">
        <ele>281</ele>
        <time>2020-10-04T13:20:14.729Z</time>
      </trkpt>
      <trkpt lat="44.03927" lon="1.87909">
        <ele>281</ele>
        <time>2020-10-04T13:20:15.729Z</time>
      </trkpt>
      <trkpt lat="44.03927" lon="1.8791">
        <ele>280</ele>
        <time>2020-10-04T13:20:16.729Z</time>
      </trkpt>
      <trkpt lat="44.03928" lon="1.87912">
        <ele>280</ele>
        <time>2020-10-04T13:20:17.729Z</time>
      </trkpt>
      <trkpt lat="44.03929" lon="1.87913">
        <ele>280</ele>
        <time>2020-10-04T13:20:18.729Z</time>
      </trkpt>
      <trkpt lat="44.03929" lon="1.87915">
        <ele>280</ele>
        <time>2020-10-04T13:20:19.729Z</time>
      </trkpt>
      <trkpt lat="44.0393" lon="1.87916">
        <ele>280</ele>
        <time>2020-10-04T13:20:20.729Z</time>
      </trkpt>
      <trkpt lat="44.0393" lon="1.87918">
        <ele>280</ele>
        <time>2020-10-04T13:20:21.729Z</time>
      </trkpt>
      <trkpt lat="44.03931" lon="1.87919">
        <ele>280</ele>
        <time>2020-10-04T13:20:22.729Z</time>
      </trkpt>
      <trkpt lat="44.03932" lon="1.87921">
        <ele>280</ele>
        <time>2020-10-04T13:20:23.729Z</time>
      </trkpt>
      <trkpt lat="44.03932" lon="1.87922">
        <ele>280</ele>
        <time>2020-10-04T13:20:24.729Z</time>
      </trkpt>
      <trkpt lat="44.03933" lon="1.87924">
        <ele>279</ele>
        <time>2020-10-04T13:20:25.729Z</time>
      </trkpt>
      <trkpt lat="44.03934" lon="1.87925">
        <ele>279</ele>
        <time>2020-10-04T13:20:26.729Z</time>
      </trkpt>
      <trkpt lat="44.03934" lon="1.87926">
        <ele>279</ele>
        <time>2020-10-04T13:20:27.729Z</time>
      </trkpt>
      <trkpt lat="44.03935" lon="1.87928">
        <ele>279</ele>
        <time>2020-10-04T13:20:28.729Z</time>
      </trkpt>
      <trkpt lat="44.03935" lon="1.8793">
        <ele>279</ele>
        <time>2020-10-04T13:20:29.729Z</time>
      </trkpt>
      <trkpt lat="44.03936" lon="1.87931">
        <ele>279</ele>
        <time>2020-10-04T13:20:30.729Z</time>
      </trkpt>
      <trkpt lat="44.03936" lon="1.87932">
        <ele>279</ele>
        <time>2020-10-04T13:20:31.729Z</time>
      </trkpt>
      <trkpt lat="44.03937" lon="1.87934">
        <ele>279</ele>
        <time>2020-10-04T13:20:32.729Z</time>
      </trkpt>
      <trkpt lat="44.03937" lon="1.87935">
        <ele>279</ele>
        <time>2020-10-04T13:20:33.729Z</time>
      </trkpt>
      <trkpt lat="44.03938" lon="1.87936">
        <ele>279</ele>
        <time>2020-10-04T13:20:34.729Z</time>
      </trkpt>
      <trkpt lat="44.03938" lon="1.87938">
        <ele>279</ele>
        <time>2020-10-04T13:20:35.729Z</time>
      </trkpt>
      <trkpt lat="44.03939" lon="1.87939">
        <ele>279</ele>
        <time>2020-10-04T13:20:36.729Z</time>
      </trkpt>
      <trkpt lat="44.03939" lon="1.87941">
        <ele>279</ele>
        <time>2020-10-04T13:20:37.729Z</time>
      </trkpt>
      <trkpt lat="44.03939" lon="1.87942">
        <ele>279</ele>
        <time>2020-10-04T13:20:38.729Z</time>
      </trkpt>
      <trkpt lat="44.03939" lon="1.87944">
        <ele>279</ele>
        <time>2020-10-04T13:20:39.729Z</time>
      </trkpt>
      <trkpt lat="44.0394" lon="1.87945">
        <ele>279</ele>
        <time>2020-10-04T13:20:40.729Z</time>
      </trkpt>
      <trkpt lat="44.0394" lon="1.87947">
        <ele>279</ele>
        <time>2020-10-04T13:20:41.729Z</time>
      </trkpt>
      <trkpt lat="44.0394" lon="1.87948">
        <ele>279</ele>
        <time>2020-10-04T13:20:42.729Z</time>
      </trkpt>
      <trkpt lat="44.03941" lon="1.87949">
        <ele>279</ele>
        <time>2020-10-04T13:20:43.729Z</time>
      </trkpt>
      <trkpt lat="44.03941" lon="1.87951">
        <ele>279</ele>
        <time>2020-10-04T13:20:44.729Z</time>
      </trkpt>
      <trkpt lat="44.03942" lon="1.87952">
        <ele>279</ele>
        <time>2020-10-04T13:20:45.729Z</time>
      </trkpt>
      <trkpt lat="44.03943" lon="1.87954">
        <ele>279</ele>
        <time>2020-10-04T13:20:46.729Z</time>
      </trkpt>
      <trkpt lat="44.03943" lon="1.87956">
        <ele>279</ele>
        <time>2020-10-04T13:20:47.729Z</time>
      </trkpt>
      <trkpt lat="44.03943" lon="1.87957">
        <ele>279</ele>
        <time>2020-10-04T13:20:48.729Z</time>
      </trkpt>
      <trkpt lat="44.03944" lon="1.87959">
        <ele>279</ele>
        <time>2020-10-04T13:20:49.729Z</time>
      </trkpt>
      <trkpt lat="44.03945" lon="1.8796">
        <ele>279</ele>
        <time>2020-10-04T13:20:50.729Z</time>
      </trkpt>
      <trkpt lat="44.03945" lon="1.87962">
        <ele>279</ele>
        <time>2020-10-04T13:20:51.729Z</time>
      </trkpt>
      <trkpt lat="44.03945" lon="1.87964">
        <ele>279</ele>
        <time>2020-10-04T13:20:52.729Z</time>
      </trkpt>
      <trkpt lat="44.03946" lon="1.87966">
        <ele>279</ele>
        <time>2020-10-04T13:20:53.729Z</time>
      </trkpt>
      <trkpt lat="44.03947" lon="1.87968">
        <ele>279</ele>
        <time>2020-10-04T13:20:54.729Z</time>
      </trkpt>
      <trkpt lat="44.03947" lon="1.87969">
        <ele>279</ele>
        <time>2020-10-04T13:20:55.729Z</time>
      </trkpt>
      <trkpt lat="44.03947" lon="1.87971">
        <ele>279</ele>
        <time>2020-10-04T13:20:56.729Z</time>
      </trkpt>
      <trkpt lat="44.03948" lon="1.87973">
        <ele>279</ele>
        <time>2020-10-04T13:20:57.729Z</time>
      </trkpt>
      <trkpt lat="44.03948" lon="1.87974">
        <ele>279</ele>
        <time>2020-10-04T13:20:58.729Z</time>
      </trkpt>
      <trkpt lat="44.03949" lon="1.87976">
        <ele>279</ele>
        <time>2020-10-04T13:20:59.729Z</time>
      </trkpt>
      <trkpt lat="44.03949" lon="1.87978">
        <ele>279</ele>
        <time>2020-10-04T13:21:00.729Z</time>
      </trkpt>
      <trkpt lat="44.03949" lon="1.8798">
        <ele>279</ele>
        <time>2020-10-04T13:21:01.729Z</time>
      </trkpt>
      <trkpt lat="44.0395" lon="1.87981">
        <ele>279</ele>
        <time>2020-10-04T13:21:02.729Z</time>
      </trkpt>
      <trkpt lat="44.0395" lon="1.87983">
        <ele>279</ele>
        <time>2020-10-04T13:21:03.729Z</time>
      </trkpt>
      <trkpt lat="44.03951" lon="1.87984">
        <ele>279</ele>
        <time>2020-10-04T13:21:04.729Z</time>
      </trkpt>
      <trkpt lat="44.03951" lon="1.87986">
        <ele>279</ele>
        <time>2020-10-04T13:21:05.729Z</time>
      </trkpt>
      <trkpt lat="44.03952" lon="1.87988">
        <ele>278</ele>
        <time>2020-10-04T13:21:06.729Z</time>
      </trkpt>
      <trkpt lat="44.03952" lon="1.87989">
        <ele>278</ele>
        <time>2020-10-04T13:21:07.729Z</time>
      </trkpt>
      <trkpt lat="44.03952" lon="1.87991">
        <ele>278</ele>
        <time>2020-10-04T13:21:08.729Z</time>
      </trkpt>
      <trkpt lat="44.03953" lon="1.87993">
        <ele>278</ele>
        <time>2020-10-04T13:21:09.729Z</time>
      </trkpt>
      <trkpt lat="44.03953" lon="1.87995">
        <ele>278</ele>
        <time>2020-10-04T13:21:10.729Z</time>
      </trkpt>
      <trkpt lat="44.03953" lon="1.87996">
        <ele>278</ele>
        <time>2020-10-04T13:21:11.729Z</time>
      </trkpt>
      <trkpt lat="44.03954" lon="1.87997">
        <ele>278</ele>
        <time>2020-10-04T13:21:12.729Z</time>
      </trkpt>
      <trkpt lat="44.03954" lon="1.87999">
        <ele>278</ele>
        <time>2020-10-04T13:21:13.729Z</time>
      </trkpt>
      <trkpt lat="44.03955" lon="1.88001">
        <ele>278</ele>
        <time>2020-10-04T13:21:14.729Z</time>
      </trkpt>
      <trkpt lat="44.03955" lon="1.88003">
        <ele>278</ele>
        <time>2020-10-04T13:21:15.729Z</time>
      </trkpt>
      <trkpt lat="44.03955" lon="1.88004">
        <ele>279</ele>
        <time>2020-10-04T13:21:16.729Z</time>
      </trkpt>
      <trkpt lat="44.03956" lon="1.88006">
        <ele>279</ele>
        <time>2020-10-04T13:21:17.729Z</time>
      </trkpt>
      <trkpt lat="44.03956" lon="1.88007">
        <ele>278</ele>
        <time>2020-10-04T13:21:18.729Z</time>
      </trkpt>
      <trkpt lat="44.03956" lon="1.88009">
        <ele>278</ele>
        <time>2020-10-04T13:21:19.729Z</time>
      </trkpt>
      <trkpt lat="44.03956" lon="1.88011">
        <ele>279</ele>
        <time>2020-10-04T13:21:20.729Z</time>
      </trkpt>
      <trkpt lat="44.03957" lon="1.88013">
        <ele>279</ele>
        <time>2020-10-04T13:21:21.729Z</time>
      </trkpt>
      <trkpt lat="44.03957" lon="1.88014">
        <ele>279</ele>
        <time>2020-10-04T13:21:22.729Z</time>
      </trkpt>
      <trkpt lat="44.03957" lon="1.88016">
        <ele>279</ele>
        <time>2020-10-04T13:21:23.729Z</time>
      </trkpt>
      <trkpt lat="44.03958" lon="1.88017">
        <ele>279</ele>
        <time>2020-10-04T13:21:24.729Z</time>
      </trkpt>
      <trkpt lat="44.03958" lon="1.88019">
        <ele>279</ele>
        <time>2020-10-04T13:21:25.729Z</time>
      </trkpt>
      <trkpt lat="44.03958" lon="1.88021">
        <ele>279</ele>
        <time>2020-10-04T13:21:26.729Z</time>
      </trkpt>
      <trkpt lat="44.03959" lon="1.88022">
        <ele>279</ele>
        <time>2020-10-04T13:21:27.729Z</time>
      </trkpt>
      <trkpt lat="44.03959" lon="1.88024">
        <ele>279</ele>
        <time>2020-10-04T13:21:28.729Z</time>
      </trkpt>
      <trkpt lat="44.03959" lon="1.88025">
        <ele>279</ele>
        <time>2020-10-04T13:21:29.729Z</time>
      </trkpt>
      <trkpt lat="44.0396" lon="1.88027">
        <ele>279</ele>
        <time>2020-10-04T13:21:30.729Z</time>
      </trkpt>
      <trkpt lat="44.0396" lon="1.88028">
        <ele>279</ele>
        <time>2020-10-04T13:21:31.729Z</time>
      </trkpt>
      <trkpt lat="44.03961" lon="1.8803">
        <ele>279</ele>
        <time>2020-10-04T13:21:32.729Z</time>
      </trkpt>
      <trkpt lat="44.03961" lon="1.88031">
        <ele>279</ele>
        <time>2020-10-04T13:21:33.729Z</time>
      </trkpt>
      <trkpt lat="44.03961" lon="1.88033">
        <ele>279</ele>
        <time>2020-10-04T13:21:34.729Z</time>
      </trkpt>
      <trkpt lat="44.03962" lon="1.88034">
        <ele>280</ele>
        <time>2020-10-04T13:21:35.729Z</time>
      </trkpt>
      <trkpt lat="44.03962" lon="1.88035">
        <ele>280</ele>
        <time>2020-10-04T13:21:36.729Z</time>
      </trkpt>
      <trkpt lat="44.03963" lon="1.88037">
        <ele>280</ele>
        <time>2020-10-04T13:21:37.729Z</time>
      </trkpt>
      <trkpt lat="44.03963" lon="1.88039">
        <ele>280</ele>
        <time>2020-10-04T13:21:38.729Z</time>
      </trkpt>
      <trkpt lat="44.03964" lon="1.8804">
        <ele>280</ele>
        <time>2020-10-04T13:21:39.729Z</time>
      </trkpt>
      <trkpt lat="44.03964" lon="1.88041">
        <ele>280</ele>
        <time>2020-10-04T13:21:40.729Z</time>
      </trkpt>
      <trkpt lat="44.03964" lon="1.88042">
        <ele>280</ele>
        <time>2020-10-04T13:21:41.729Z</time>
      </trkpt>
      <trkpt lat="44.03965" lon="1.88044">
        <ele>280</ele>
        <time>2020-10-04T13:21:42.729Z</time>
      </trkpt>
      <trkpt lat="44.03965" lon="1.88045">
        <ele>280</ele>
        <time>2020-10-04T13:21:43.729Z</time>
      </trkpt>
      <trkpt lat="44.03966" lon="1.88046">
        <ele>280</ele>
        <time>2020-10-04T13:21:44.729Z</time>
      </trkpt>
      <trkpt lat="44.03966" lon="1.88048">
        <ele>280</ele>
        <time>2020-10-04T13:21:45.729Z</time>
      </trkpt>
      <trkpt lat="44.03967" lon="1.88049">
        <ele>280</ele>
        <time>2020-10-04T13:21:46.729Z</time>
      </trkpt>
      <trkpt lat="44.03968" lon="1.88051">
        <ele>280</ele>
        <time>2020-10-04T13:21:47.729Z</time>
      </trkpt>
      <trkpt lat="44.03968" lon="1.88052">
        <ele>280</ele>
        <time>2020-10-04T13:21:48.729Z</time>
      </trkpt>
      <trkpt lat="44.03968" lon="1.88053">
        <ele>280</ele>
        <time>2020-10-04T13:21:49.729Z</time>
      </trkpt>
      <trkpt lat="44.03969" lon="1.88055">
        <ele>280</ele>
        <time>2020-10-04T13:21:50.729Z</time>
      </trkpt>
      <trkpt lat="44.03969" lon="1.88056">
        <ele>280</ele>
        <time>2020-10-04T13:21:51.729Z</time>
      </trkpt>
      <trkpt lat="44.0397" lon="1.88058">
        <ele>280</ele>
        <time>2020-10-04T13:21:52.729Z</time>
      </trkpt>
      <trkpt lat="44.0397" lon="1.88059">
        <ele>280</ele>
        <time>2020-10-04T13:21:53.729Z</time>
      </trkpt>
      <trkpt lat="44.0397" lon="1.8806">
        <ele>280</ele>
        <time>2020-10-04T13:21:54.729Z</time>
      </trkpt>
      <trkpt lat="44.03971" lon="1.88062">
        <ele>280</ele>
        <time>2020-10-04T13:21:55.729Z</time>
      </trkpt>
      <trkpt lat="44.03972" lon="1.88064">
        <ele>280</ele>
        <time>2020-10-04T13:21:56.729Z</time>
      </trkpt>
      <trkpt lat="44.03972" lon="1.88065">
        <ele>280</ele>
        <time>2020-10-04T13:21:57.729Z</time>
      </trkpt>
      <trkpt lat="44.03973" lon="1.88067">
        <ele>280</ele>
        <time>2020-10-04T13:21:58.729Z</time>
      </trkpt>
      <trkpt lat="44.03973" lon="1.88068">
        <ele>280</ele>
        <time>2020-10-04T13:21:59.729Z</time>
      </trkpt>
      <trkpt lat="44.03974" lon="1.88069">
        <ele>281</ele>
        <time>2020-10-04T13:22:00.729Z</time>
      </trkpt>
      <trkpt lat="44.03974" lon="1.88071">
        <ele>281</ele>
        <time>2020-10-04T13:22:01.729Z</time>
      </trkpt>
      <trkpt lat="44.03975" lon="1.88072">
        <ele>281</ele>
        <time>2020-10-04T13:22:02.729Z</time>
      </trkpt>
      <trkpt lat="44.03975" lon="1.88074">
        <ele>281</ele>
        <time>2020-10-04T13:22:03.729Z</time>
      </trkpt>
      <trkpt lat="44.03976" lon="1.88075">
        <ele>281</ele>
        <time>2020-10-04T13:22:04.729Z</time>
      </trkpt>
      <trkpt lat="44.03977" lon="1.88077">
        <ele>281</ele>
        <time>2020-10-04T13:22:05.729Z</time>
      </trkpt>
      <trkpt lat="44.03977" lon="1.88078">
        <ele>281</ele>
        <time>2020-10-04T13:22:06.729Z</time>
      </trkpt>
      <trkpt lat="44.03978" lon="1.88079">
        <ele>281</ele>
        <time>2020-10-04T13:22:07.729Z</time>
      </trkpt>
      <trkpt lat="44.03978" lon="1.88081">
        <ele>281</ele>
        <time>2020-10-04T13:22:08.729Z</time>
      </trkpt>
      <trkpt lat="44.03979" lon="1.88082">
        <ele>281</ele>
        <time>2020-10-04T13:22:09.729Z</time>
      </trkpt>
      <trkpt lat="44.03979" lon="1.88083">
        <ele>281</ele>
        <time>2020-10-04T13:22:10.729Z</time>
      </trkpt>
      <trkpt lat="44.0398" lon="1.88084">
        <ele>281</ele>
        <time>2020-10-04T13:22:11.729Z</time>
      </trkpt>
      <trkpt lat="44.0398" lon="1.88086">
        <ele>281</ele>
        <time>2020-10-04T13:22:12.729Z</time>
      </trkpt>
      <trkpt lat="44.03981" lon="1.88088">
        <ele>281</ele>
        <time>2020-10-04T13:22:13.729Z</time>
      </trkpt>
      <trkpt lat="44.03982" lon="1.88089">
        <ele>281</ele>
        <time>2020-10-04T13:22:14.729Z</time>
      </trkpt>
      <trkpt lat="44.03982" lon="1.8809">
        <ele>281</ele>
        <time>2020-10-04T13:22:15.729Z</time>
      </trkpt>
      <trkpt lat="44.03983" lon="1.88091">
        <ele>281</ele>
        <time>2020-10-04T13:22:16.729Z</time>
      </trkpt>
      <trkpt lat="44.03984" lon="1.88092">
        <ele>281</ele>
        <time>2020-10-04T13:22:17.729Z</time>
      </trkpt>
      <trkpt lat="44.03984" lon="1.88093">
        <ele>281</ele>
        <time>2020-10-04T13:22:18.729Z</time>
      </trkpt>
      <trkpt lat="44.03984" lon="1.88094">
        <ele>281</ele>
        <time>2020-10-04T13:22:19.729Z</time>
      </trkpt>
      <trkpt lat="44.03985" lon="1.88096">
        <ele>281</ele>
        <time>2020-10-04T13:22:20.729Z</time>
      </trkpt>
      <trkpt lat="44.03986" lon="1.88097">
        <ele>281</ele>
        <time>2020-10-04T13:22:21.729Z</time>
      </trkpt>
      <trkpt lat="44.03987" lon="1.88099">
        <ele>281</ele>
        <time>2020-10-04T13:22:22.729Z</time>
      </trkpt>
      <trkpt lat="44.03987" lon="1.881">
        <ele>281</ele>
        <time>2020-10-04T13:22:23.729Z</time>
      </trkpt>
      <trkpt lat="44.03988" lon="1.88101">
        <ele>281</ele>
        <time>2020-10-04T13:22:24.729Z</time>
      </trkpt>
      <trkpt lat="44.03988" lon="1.88102">
        <ele>281</ele>
        <time>2020-10-04T13:22:25.729Z</time>
      </trkpt>
      <trkpt lat="44.03989" lon="1.88103">
        <ele>281</ele>
        <time>2020-10-04T13:22:26.729Z</time>
      </trkpt>
      <trkpt lat="44.03989" lon="1.88103">
        <ele>281</ele>
        <time>2020-10-04T13:22:27.729Z</time>
      </trkpt>
      <trkpt lat="44.0399" lon="1.88104">
        <ele>281</ele>
        <time>2020-10-04T13:22:28.729Z</time>
      </trkpt>
      <trkpt lat="44.03991" lon="1.88106">
        <ele>281</ele>
        <time>2020-10-04T13:22:29.729Z</time>
      </trkpt>
      <trkpt lat="44.03991" lon="1.88107">
        <ele>281</ele>
        <time>2020-10-04T13:22:30.729Z</time>
      </trkpt>
      <trkpt lat="44.03992" lon="1.88108">
        <ele>281</ele>
        <time>2020-10-04T13:22:31.729Z</time>
      </trkpt>
      <trkpt lat="44.03993" lon="1.88108">
        <ele>281</ele>
        <time>2020-10-04T13:22:32.729Z</time>
      </trkpt>
      <trkpt lat="44.03993" lon="1.88109">
        <ele>281</ele>
        <time>2020-10-04T13:22:33.729Z</time>
      </trkpt>
      <trkpt lat="44.03994" lon="1.88111">
        <ele>281</ele>
        <time>2020-10-04T13:22:34.729Z</time>
      </trkpt>
      <trkpt lat="44.03994" lon="1.88112">
        <ele>281</ele>
        <time>2020-10-04T13:22:35.729Z</time>
      </trkpt>
      <trkpt lat="44.03995" lon="1.88113">
        <ele>281</ele>
        <time>2020-10-04T13:22:36.729Z</time>
      </trkpt>
      <trkpt lat="44.03996" lon="1.88114">
        <ele>281</ele>
        <time>2020-10-04T13:22:37.729Z</time>
      </trkpt>
      <trkpt lat="44.03997" lon="1.88115">
        <ele>281</ele>
        <time>2020-10-04T13:22:38.729Z</time>
      </trkpt>
      <trkpt lat="44.03997" lon="1.88116">
        <ele>281</ele>
        <time>2020-10-04T13:22:39.729Z</time>
      </trkpt>
      <trkpt lat="44.03998" lon="1.88117">
        <ele>281</ele>
        <time>2020-10-04T13:22:40.729Z</time>
      </trkpt>
      <trkpt lat="44.03999" lon="1.88118">
        <ele>281</ele>
        <time>2020-10-04T13:22:41.729Z</time>
      </trkpt>
      <trkpt lat="44.04" lon="1.88119">
        <ele>281</ele>
        <time>2020-10-04T13:22:42.729Z</time>
      </trkpt>
      <trkpt lat="44.04001" lon="1.8812">
        <ele>281</ele>
        <time>2020-10-04T13:22:43.729Z</time>
      </trkpt>
      <trkpt lat="44.04002" lon="1.88122">
        <ele>281</ele>
        <time>2020-10-04T13:22:44.729Z</time>
      </trkpt>
      <trkpt lat="44.04003" lon="1.88123">
        <ele>281</ele>
        <time>2020-10-04T13:22:45.729Z</time>
      </trkpt>
      <trkpt lat="44.04004" lon="1.88124">
        <ele>281</ele>
        <time>2020-10-04T13:22:46.729Z</time>
      </trkpt>
      <trkpt lat="44.04005" lon="1.88125">
        <ele>281</ele>
        <time>2020-10-04T13:22:47.729Z</time>
      </trkpt>
      <trkpt lat="44.04006" lon="1.88126">
        <ele>281</ele>
        <time>2020-10-04T13:22:48.729Z</time>
      </trkpt>
      <trkpt lat="44.04008" lon="1.88128">
        <ele>281</ele>
        <time>2020-10-04T13:22:49.729Z</time>
      </trkpt>
      <trkpt lat="44.04009" lon="1.88129">
        <ele>281</ele>
        <time>2020-10-04T13:22:50.729Z</time>
      </trkpt>
      <trkpt lat="44.0401" lon="1.8813">
        <ele>281</ele>
        <time>2020-10-04T13:22:51.729Z</time>
      </trkpt>
      <trkpt lat="44.0401" lon="1.88131">
        <ele>281</ele>
        <time>2020-10-04T13:22:52.729Z</time>
      </trkpt>
      <trkpt lat="44.04011" lon="1.88132">
        <ele>281</ele>
        <time>2020-10-04T13:22:53.729Z</time>
      </trkpt>
      <trkpt lat="44.04012" lon="1.88133">
        <ele>281</ele>
        <time>2020-10-04T13:22:54.729Z</time>
      </trkpt>
      <trkpt lat="44.04013" lon="1.88135">
        <ele>281</ele>
        <time>2020-10-04T13:22:55.729Z</time>
      </trkpt>
      <trkpt lat="44.04014" lon="1.88136">
        <ele>281</ele>
        <time>2020-10-04T13:22:56.729Z</time>
      </trkpt>
      <trkpt lat="44.04014" lon="1.88137">
        <ele>281</ele>
        <time>2020-10-04T13:22:57.729Z</time>
      </trkpt>
      <trkpt lat="44.04015" lon="1.88139">
        <ele>281</ele>
        <time>2020-10-04T13:22:58.729Z</time>
      </trkpt>
      <trkpt lat="44.04016" lon="1.88141">
        <ele>281</ele>
        <time>2020-10-04T13:22:59.729Z</time>
      </trkpt>
      <trkpt lat="44.04017" lon="1.88142">
        <ele>281</ele>
        <time>2020-10-04T13:23:00.729Z</time>
      </trkpt>
      <trkpt lat="44.04018" lon="1.88143">
        <ele>281</ele>
        <time>2020-10-04T13:23:01.729Z</time>
      </trkpt>
      <trkpt lat="44.04018" lon="1.88145">
        <ele>281</ele>
        <time>2020-10-04T13:23:02.729Z</time>
      </trkpt>
      <trkpt lat="44.04019" lon="1.88146">
        <ele>281</ele>
        <time>2020-10-04T13:23:03.729Z</time>
      </trkpt>
      <trkpt lat="44.0402" lon="1.88147">
        <ele>281</ele>
        <time>2020-10-04T13:23:04.729Z</time>
      </trkpt>
      <trkpt lat="44.04021" lon="1.88149">
        <ele>281</ele>
        <time>2020-10-04T13:23:05.729Z</time>
      </trkpt>
      <trkpt lat="44.04022" lon="1.8815">
        <ele>281</ele>
        <time>2020-10-04T13:23:06.729Z</time>
      </trkpt>
      <trkpt lat="44.04023" lon="1.88151">
        <ele>281</ele>
        <time>2020-10-04T13:23:07.729Z</time>
      </trkpt>
      <trkpt lat="44.04023" lon="1.88152">
        <ele>281</ele>
        <time>2020-10-04T13:23:08.729Z</time>
      </trkpt>
      <trkpt lat="44.04024" lon="1.88154">
        <ele>281</ele>
        <time>2020-10-04T13:23:09.729Z</time>
      </trkpt>
      <trkpt lat="44.04025" lon="1.88155">
        <ele>281</ele>
        <time>2020-10-04T13:23:10.729Z</time>
      </trkpt>
      <trkpt lat="44.04026" lon="1.88157">
        <ele>281</ele>
        <time>2020-10-04T13:23:11.729Z</time>
      </trkpt>
      <trkpt lat="44.04026" lon="1.88158">
        <ele>281</ele>
        <time>2020-10-04T13:23:12.729Z</time>
      </trkpt>
      <trkpt lat="44.04027" lon="1.88159">
        <ele>281</ele>
        <time>2020-10-04T13:23:13.729Z</time>
      </trkpt>
      <trkpt lat="44.04028" lon="1.8816">
        <ele>281</ele>
        <time>2020-10-04T13:23:14.729Z</time>
      </trkpt>
      <trkpt lat="44.04028" lon="1.88161">
        <ele>282</ele>
        <time>2020-10-04T13:23:15.729Z</time>
      </trkpt>
      <trkpt lat="44.04029" lon="1.88162">
        <ele>282</ele>
        <time>2020-10-04T13:23:16.729Z</time>
      </trkpt>
      <trkpt lat="44.0403" lon="1.88163">
        <ele>282</ele>
        <time>2020-10-04T13:23:17.729Z</time>
      </trkpt>
      <trkpt lat="44.04031" lon="1.88165">
        <ele>282</ele>
        <time>2020-10-04T13:23:18.729Z</time>
      </trkpt>
      <trkpt lat="44.04031" lon="1.88166">
        <ele>282</ele>
        <time>2020-10-04T13:23:19.729Z</time>
      </trkpt>
      <trkpt lat="44.04032" lon="1.88167">
        <ele>282</ele>
        <time>2020-10-04T13:23:20.729Z</time>
      </trkpt>
      <trkpt lat="44.04033" lon="1.88168">
        <ele>282</ele>
        <time>2020-10-04T13:23:21.729Z</time>
      </trkpt>
      <trkpt lat="44.04035" lon="1.8817">
        <ele>282</ele>
        <time>2020-10-04T13:23:22.729Z</time>
      </trkpt>
      <trkpt lat="44.04036" lon="1.88171">
        <ele>282</ele>
        <time>2020-10-04T13:23:23.729Z</time>
      </trkpt>
      <trkpt lat="44.04036" lon="1.88172">
        <ele>281</ele>
        <time>2020-10-04T13:23:24.729Z</time>
      </trkpt>
      <trkpt lat="44.04037" lon="1.88173">
        <ele>281</ele>
        <time>2020-10-04T13:23:25.729Z</time>
      </trkpt>
      <trkpt lat="44.04038" lon="1.88175">
        <ele>281</ele>
        <time>2020-10-04T13:23:26.729Z</time>
      </trkpt>
      <trkpt lat="44.04039" lon="1.88176">
        <ele>282</ele>
        <time>2020-10-04T13:23:27.729Z</time>
      </trkpt>
      <trkpt lat="44.0404" lon="1.88177">
        <ele>282</ele>
        <time>2020-10-04T13:23:28.729Z</time>
      </trkpt>
      <trkpt lat="44.04041" lon="1.88179">
        <ele>282</ele>
        <time>2020-10-04T13:23:29.729Z</time>
      </trkpt>
      <trkpt lat="44.04042" lon="1.8818">
        <ele>282</ele>
        <time>2020-10-04T13:23:30.729Z</time>
      </trkpt>
      <trkpt lat="44.04043" lon="1.88181">
        <ele>281</ele>
        <time>2020-10-04T13:23:31.729Z</time>
      </trkpt>
      <trkpt lat="44.04043" lon="1.88183">
        <ele>281</ele>
        <time>2020-10-04T13:23:32.729Z</time>
      </trkpt>
      <trkpt lat="44.04044" lon="1.88184">
        <ele>281</ele>
        <time>2020-10-04T13:23:33.729Z</time>
      </trkpt>
      <trkpt lat="44.04045" lon="1.88186">
        <ele>281</ele>
        <time>2020-10-04T13:23:34.729Z</time>
      </trkpt>
      <trkpt lat="44.04046" lon="1.88187">
        <ele>281</ele>
        <time>2020-10-04T13:23:35.729Z</time>
      </trkpt>
      <trkpt lat="44.04047" lon="1.88189">
        <ele>281</ele>
        <time>2020-10-04T13:23:36.729Z</time>
      </trkpt>
      <trkpt lat="44.04047" lon="1.8819">
        <ele>281</ele>
        <time>2020-10-04T13:23:37.729Z</time>
      </trkpt>
      <trkpt lat="44.04048" lon="1.88191">
        <ele>281</ele>
        <time>2020-10-04T13:23:38.729Z</time>
      </trkpt>
      <trkpt lat="44.04049" lon="1.88193">
        <ele>281</ele>
        <time>2020-10-04T13:23:39.729Z</time>
      </trkpt>
      <trkpt lat="44.0405" lon="1.88194">
        <ele>281</ele>
        <time>2020-10-04T13:23:40.729Z</time>
      </trkpt>
      <trkpt lat="44.04051" lon="1.88195">
        <ele>281</ele>
        <time>2020-10-04T13:23:41.729Z</time>
      </trkpt>
      <trkpt lat="44.04051" lon="1.88197">
        <ele>281</ele>
        <time>2020-10-04T13:23:42.729Z</time>
      </trkpt>
      <trkpt lat="44.04052" lon="1.88198">
        <ele>281</ele>
        <time>2020-10-04T13:23:43.729Z</time>
      </trkpt>
      <trkpt lat="44.04053" lon="1.882">
        <ele>281</ele>
        <time>2020-10-04T13:23:44.729Z</time>
      </trkpt>
      <trkpt lat="44.04054" lon="1.88201">
        <ele>281</ele>
        <time>2020-10-04T13:23:45.729Z</time>
      </trkpt>
      <trkpt lat="44.04054" lon="1.88203">
        <ele>281</ele>
        <time>2020-10-04T13:23:46.729Z</time>
      </trkpt>
      <trkpt lat="44.04055" lon="1.88205">
        <ele>281</ele>
        <time>2020-10-04T13:23:47.729Z</time>
      </trkpt>
      <trkpt lat="44.04056" lon="1.88207">
        <ele>281</ele>
        <time>2020-10-04T13:23:48.729Z</time>
      </trkpt>
      <trkpt lat="44.04057" lon="1.88208">
        <ele>280</ele>
        <time>2020-10-04T13:23:49.729Z</time>
      </trkpt>
      <trkpt lat="44.04057" lon="1.8821">
        <ele>280</ele>
        <time>2020-10-04T13:23:50.729Z</time>
      </trkpt>
      <trkpt lat="44.04058" lon="1.88211">
        <ele>280</ele>
        <time>2020-10-04T13:23:51.729Z</time>
      </trkpt>
      <trkpt lat="44.04059" lon="1.88213">
        <ele>280</ele>
        <time>2020-10-04T13:23:52.729Z</time>
      </trkpt>
      <trkpt lat="44.04059" lon="1.88214">
        <ele>281</ele>
        <time>2020-10-04T13:23:53.729Z</time>
      </trkpt>
      <trkpt lat="44.0406" lon="1.88215">
        <ele>281</ele>
        <time>2020-10-04T13:23:54.729Z</time>
      </trkpt>
      <trkpt lat="44.04061" lon="1.88217">
        <ele>281</ele>
        <time>2020-10-04T13:23:55.729Z</time>
      </trkpt>
      <trkpt lat="44.04061" lon="1.88218">
        <ele>281</ele>
        <time>2020-10-04T13:23:56.729Z</time>
      </trkpt>
      <trkpt lat="44.04062" lon="1.8822">
        <ele>281</ele>
        <time>2020-10-04T13:23:57.729Z</time>
      </trkpt>
      <trkpt lat="44.04062" lon="1.88221">
        <ele>281</ele>
        <time>2020-10-04T13:23:58.729Z</time>
      </trkpt>
      <trkpt lat="44.04063" lon="1.88223">
        <ele>281</ele>
        <time>2020-10-04T13:23:59.729Z</time>
      </trkpt>
      <trkpt lat="44.04063" lon="1.88224">
        <ele>281</ele>
        <time>2020-10-04T13:24:00.729Z</time>
      </trkpt>
      <trkpt lat="44.04064" lon="1.88225">
        <ele>281</ele>
        <time>2020-10-04T13:24:01.729Z</time>
      </trkpt>
      <trkpt lat="44.04065" lon="1.88226">
        <ele>280</ele>
        <time>2020-10-04T13:24:02.729Z</time>
      </trkpt>
      <trkpt lat="44.04065" lon="1.88227">
        <ele>280</ele>
        <time>2020-10-04T13:24:03.729Z</time>
      </trkpt>
      <trkpt lat="44.04066" lon="1.88229">
        <ele>280</ele>
        <time>2020-10-04T13:24:04.729Z</time>
      </trkpt>
      <trkpt lat="44.04066" lon="1.8823">
        <ele>280</ele>
        <time>2020-10-04T13:24:05.729Z</time>
      </trkpt>
      <trkpt lat="44.04067" lon="1.88231">
        <ele>280</ele>
        <time>2020-10-04T13:24:06.729Z</time>
      </trkpt>
      <trkpt lat="44.04067" lon="1.88232">
        <ele>281</ele>
        <time>2020-10-04T13:24:07.729Z</time>
      </trkpt>
      <trkpt lat="44.04068" lon="1.88234">
        <ele>281</ele>
        <time>2020-10-04T13:24:08.729Z</time>
      </trkpt>
      <trkpt lat="44.04069" lon="1.88235">
        <ele>281</ele>
        <time>2020-10-04T13:24:09.729Z</time>
      </trkpt>
      <trkpt lat="44.0407" lon="1.88237">
        <ele>280</ele>
        <time>2020-10-04T13:24:10.729Z</time>
      </trkpt>
      <trkpt lat="44.0407" lon="1.88239">
        <ele>280</ele>
        <time>2020-10-04T13:24:11.729Z</time>
      </trkpt>
      <trkpt lat="44.04071" lon="1.8824">
        <ele>280</ele>
        <time>2020-10-04T13:24:12.729Z</time>
      </trkpt>
      <trkpt lat="44.04071" lon="1.88242">
        <ele>280</ele>
        <time>2020-10-04T13:24:13.729Z</time>
      </trkpt>
      <trkpt lat="44.04072" lon="1.88243">
        <ele>280</ele>
        <time>2020-10-04T13:24:14.729Z</time>
      </trkpt>
      <trkpt lat="44.04072" lon="1.88245">
        <ele>280</ele>
        <time>2020-10-04T13:24:15.729Z</time>
      </trkpt>
      <trkpt lat="44.04073" lon="1.88247">
        <ele>280</ele>
        <time>2020-10-04T13:24:16.729Z</time>
      </trkpt>
      <trkpt lat="44.04073" lon="1.88248">
        <ele>280</ele>
        <time>2020-10-04T13:24:17.729Z</time>
      </trkpt>
      <trkpt lat="44.04074" lon="1.8825">
        <ele>280</ele>
        <time>2020-10-04T13:24:18.729Z</time>
      </trkpt>
      <trkpt lat="44.04074" lon="1.88251">
        <ele>280</ele>
        <time>2020-10-04T13:24:19.729Z</time>
      </trkpt>
      <trkpt lat="44.04075" lon="1.88253">
        <ele>280</ele>
        <time>2020-10-04T13:24:20.729Z</time>
      </trkpt>
      <trkpt lat="44.04075" lon="1.88255">
        <ele>280</ele>
        <time>2020-10-04T13:24:21.729Z</time>
      </trkpt>
      <trkpt lat="44.04076" lon="1.88256">
        <ele>280</ele>
        <time>2020-10-04T13:24:22.729Z</time>
      </trkpt>
      <trkpt lat="44.04076" lon="1.88258">
        <ele>279</ele>
        <time>2020-10-04T13:24:23.729Z</time>
      </trkpt>
      <trkpt lat="44.04076" lon="1.8826">
        <ele>279</ele>
        <time>2020-10-04T13:24:24.729Z</time>
      </trkpt>
      <trkpt lat="44.04077" lon="1.88261">
        <ele>279</ele>
        <time>2020-10-04T13:24:25.729Z</time>
      </trkpt>
      <trkpt lat="44.04077" lon="1.88263">
        <ele>279</ele>
        <time>2020-10-04T13:24:26.729Z</time>
      </trkpt>
      <trkpt lat="44.04078" lon="1.88265">
        <ele>279</ele>
        <time>2020-10-04T13:24:27.729Z</time>
      </trkpt>
      <trkpt lat="44.04078" lon="1.88267">
        <ele>279</ele>
        <time>2020-10-04T13:24:28.729Z</time>
      </trkpt>
      <trkpt lat="44.04079" lon="1.88268">
        <ele>279</ele>
        <time>2020-10-04T13:24:29.729Z</time>
      </trkpt>
      <trkpt lat="44.04079" lon="1.8827">
        <ele>279</ele>
        <time>2020-10-04T13:24:30.729Z</time>
      </trkpt>
      <trkpt lat="44.04079" lon="1.88272">
        <ele>279</ele>
        <time>2020-10-04T13:24:31.729Z</time>
      </trkpt>
      <trkpt lat="44.0408" lon="1.88273">
        <ele>279</ele>
        <time>2020-10-04T13:24:32.729Z</time>
      </trkpt>
      <trkpt lat="44.0408" lon="1.88275">
        <ele>279</ele>
        <time>2020-10-04T13:24:33.729Z</time>
      </trkpt>
      <trkpt lat="44.04081" lon="1.88277">
        <ele>279</ele>
        <time>2020-10-04T13:24:34.729Z</time>
      </trkpt>
      <trkpt lat="44.04081" lon="1.88279">
        <ele>279</ele>
        <time>2020-10-04T13:24:35.729Z</time>
      </trkpt>
      <trkpt lat="44.04081" lon="1.8828">
        <ele>279</ele>
        <time>2020-10-04T13:24:36.729Z</time>
      </trkpt>
      <trkpt lat="44.04082" lon="1.88282">
        <ele>279</ele>
        <time>2020-10-04T13:24:37.729Z</time>
      </trkpt>
      <trkpt lat="44.04082" lon="1.88284">
        <ele>279</ele>
        <time>2020-10-04T13:24:38.729Z</time>
      </trkpt>
      <trkpt lat="44.04082" lon="1.88285">
        <ele>279</ele>
        <time>2020-10-04T13:24:39.729Z</time>
      </trkpt>
      <trkpt lat="44.04083" lon="1.88287">
        <ele>279</ele>
        <time>2020-10-04T13:24:40.729Z</time>
      </trkpt>
      <trkpt lat="44.04083" lon="1.88288">
        <ele>279</ele>
        <time>2020-10-04T13:24:41.729Z</time>
      </trkpt>
      <trkpt lat="44.04084" lon="1.8829">
        <ele>280</ele>
        <time>2020-10-04T13:24:42.729Z</time>
      </trkpt>
      <trkpt lat="44.04085" lon="1.88291">
        <ele>280</ele>
        <time>2020-10-04T13:24:43.729Z</time>
      </trkpt>
      <trkpt lat="44.04085" lon="1.88292">
        <ele>280</ele>
        <time>2020-10-04T13:24:44.729Z</time>
      </trkpt>
      <trkpt lat="44.04085" lon="1.88293">
        <ele>280</ele>
        <time>2020-10-04T13:24:45.729Z</time>
      </trkpt>
      <trkpt lat="44.04086" lon="1.88295">
        <ele>280</ele>
        <time>2020-10-04T13:24:46.729Z</time>
      </trkpt>
      <trkpt lat="44.04086" lon="1.88296">
        <ele>280</ele>
        <time>2020-10-04T13:24:47.729Z</time>
      </trkpt>
      <trkpt lat="44.04087" lon="1.88298">
        <ele>280</ele>
        <time>2020-10-04T13:24:48.729Z</time>
      </trkpt>
      <trkpt lat="44.04088" lon="1.88299">
        <ele>280</ele>
        <time>2020-10-04T13:24:49.729Z</time>
      </trkpt>
      <trkpt lat="44.04088" lon="1.88301">
        <ele>280</ele>
        <time>2020-10-04T13:24:50.729Z</time>
      </trkpt>
      <trkpt lat="44.04089" lon="1.88302">
        <ele>280</ele>
        <time>2020-10-04T13:24:51.729Z</time>
      </trkpt>
      <trkpt lat="44.04089" lon="1.88304">
        <ele>280</ele>
        <time>2020-10-04T13:24:52.729Z</time>
      </trkpt>
      <trkpt lat="44.0409" lon="1.88305">
        <ele>280</ele>
        <time>2020-10-04T13:24:53.729Z</time>
      </trkpt>
      <trkpt lat="44.0409" lon="1.88307">
        <ele>280</ele>
        <time>2020-10-04T13:24:54.729Z</time>
      </trkpt>
      <trkpt lat="44.04091" lon="1.88308">
        <ele>280</ele>
        <time>2020-10-04T13:24:55.729Z</time>
      </trkpt>
      <trkpt lat="44.04091" lon="1.8831">
        <ele>280</ele>
        <time>2020-10-04T13:24:56.729Z</time>
      </trkpt>
      <trkpt lat="44.04092" lon="1.88312">
        <ele>280</ele>
        <time>2020-10-04T13:24:57.729Z</time>
      </trkpt>
      <trkpt lat="44.04092" lon="1.88313">
        <ele>280</ele>
        <time>2020-10-04T13:24:58.729Z</time>
      </trkpt>
      <trkpt lat="44.04093" lon="1.88314">
        <ele>280</ele>
        <time>2020-10-04T13:24:59.729Z</time>
      </trkpt>
      <trkpt lat="44.04093" lon="1.88316">
        <ele>280</ele>
        <time>2020-10-04T13:25:00.729Z</time>
      </trkpt>
      <trkpt lat="44.04093" lon="1.88318">
        <ele>280</ele>
        <time>2020-10-04T13:25:01.729Z</time>
      </trkpt>
      <trkpt lat="44.04094" lon="1.88318">
        <ele>280</ele>
        <time>2020-10-04T13:25:02.729Z</time>
      </trkpt>
      <trkpt lat="44.04094" lon="1.88318">
        <ele>280</ele>
        <time>2020-10-04T13:25:03.729Z</time>
      </trkpt>
      <trkpt lat="44.04094" lon="1.88318">
        <ele>280</ele>
        <time>2020-10-04T13:25:04.729Z</time>
      </trkpt>
      <trkpt lat="44.04094" lon="1.88318">
        <ele>280</ele>
        <time>2020-10-04T13:25:05.729Z</time>
      </trkpt>
      <trkpt lat="44.04094" lon="1.88321">
        <ele>280</ele>
        <time>2020-10-04T13:25:06.729Z</time>
      </trkpt>
      <trkpt lat="44.04094" lon="1.88322">
        <ele>280</ele>
        <time>2020-10-04T13:25:07.729Z</time>
      </trkpt>
      <trkpt lat="44.04095" lon="1.88323">
        <ele>280</ele>
        <time>2020-10-04T13:25:08.729Z</time>
      </trkpt>
      <trkpt lat="44.04095" lon="1.88324">
        <ele>280</ele>
        <time>2020-10-04T13:25:09.729Z</time>
      </trkpt>
      <trkpt lat="44.04095" lon="1.88325">
        <ele>280</ele>
        <time>2020-10-04T13:25:10.729Z</time>
      </trkpt>
      <trkpt lat="44.04096" lon="1.88327">
        <ele>280</ele>
        <time>2020-10-04T13:25:11.729Z</time>
      </trkpt>
      <trkpt lat="44.04096" lon="1.88328">
        <ele>280</ele>
        <time>2020-10-04T13:25:12.729Z</time>
      </trkpt>
      <trkpt lat="44.04096" lon="1.88329">
        <ele>280</ele>
        <time>2020-10-04T13:25:13.729Z</time>
      </trkpt>
      <trkpt lat="44.04096" lon="1.88331">
        <ele>280</ele>
        <time>2020-10-04T13:25:14.729Z</time>
      </trkpt>
      <trkpt lat="44.04096" lon="1.88332">
        <ele>280</ele>
        <time>2020-10-04T13:25:15.729Z</time>
      </trkpt>
      <trkpt lat="44.04096" lon="1.88334">
        <ele>280</ele>
        <time>2020-10-04T13:25:16.729Z</time>
      </trkpt>
      <trkpt lat="44.04095" lon="1.88335">
        <ele>280</ele>
        <time>2020-10-04T13:25:17.729Z</time>
      </trkpt>
      <trkpt lat="44.04094" lon="1.88335">
        <ele>280</ele>
        <time>2020-10-04T13:25:18.729Z</time>
      </trkpt>
      <trkpt lat="44.04093" lon="1.88336">
        <ele>280</ele>
        <time>2020-10-04T13:25:19.729Z</time>
      </trkpt>
      <trkpt lat="44.04092" lon="1.88337">
        <ele>280</ele>
        <time>2020-10-04T13:25:20.729Z</time>
      </trkpt>
      <trkpt lat="44.04091" lon="1.88337">
        <ele>280</ele>
        <time>2020-10-04T13:25:21.729Z</time>
      </trkpt>
      <trkpt lat="44.0409" lon="1.88337">
        <ele>280</ele>
        <time>2020-10-04T13:25:22.729Z</time>
      </trkpt>
      <trkpt lat="44.04089" lon="1.88337">
        <ele>279</ele>
        <time>2020-10-04T13:25:23.729Z</time>
      </trkpt>
      <trkpt lat="44.04087" lon="1.88337">
        <ele>279</ele>
        <time>2020-10-04T13:25:24.729Z</time>
      </trkpt>
      <trkpt lat="44.04086" lon="1.88338">
        <ele>279</ele>
        <time>2020-10-04T13:25:25.729Z</time>
      </trkpt>
      <trkpt lat="44.04085" lon="1.88338">
        <ele>279</ele>
        <time>2020-10-04T13:25:26.729Z</time>
      </trkpt>
      <trkpt lat="44.04084" lon="1.88337">
        <ele>279</ele>
        <time>2020-10-04T13:25:27.729Z</time>
      </trkpt>
      <trkpt lat="44.04083" lon="1.88337">
        <ele>279</ele>
        <time>2020-10-04T13:25:28.729Z</time>
      </trkpt>
      <trkpt lat="44.04081" lon="1.88337">
        <ele>279</ele>
        <time>2020-10-04T13:25:29.729Z</time>
      </trkpt>
      <trkpt lat="44.0408" lon="1.88337">
        <ele>278</ele>
        <time>2020-10-04T13:25:30.729Z</time>
      </trkpt>
      <trkpt lat="44.04079" lon="1.88337">
        <ele>278</ele>
        <time>2020-10-04T13:25:31.729Z</time>
      </trkpt>
      <trkpt lat="44.04077" lon="1.88337">
        <ele>278</ele>
        <time>2020-10-04T13:25:32.729Z</time>
      </trkpt>
      <trkpt lat="44.04076" lon="1.88337">
        <ele>278</ele>
        <time>2020-10-04T13:25:33.729Z</time>
      </trkpt>
      <trkpt lat="44.04075" lon="1.88337">
        <ele>278</ele>
        <time>2020-10-04T13:25:34.729Z</time>
      </trkpt>
      <trkpt lat="44.04074" lon="1.88337">
        <ele>278</ele>
        <time>2020-10-04T13:25:35.729Z</time>
      </trkpt>
      <trkpt lat="44.04072" lon="1.88336">
        <ele>278</ele>
        <time>2020-10-04T13:25:36.729Z</time>
      </trkpt>
      <trkpt lat="44.04071" lon="1.88336">
        <ele>278</ele>
        <time>2020-10-04T13:25:37.729Z</time>
      </trkpt>
      <trkpt lat="44.0407" lon="1.88336">
        <ele>278</ele>
        <time>2020-10-04T13:25:38.729Z</time>
      </trkpt>
      <trkpt lat="44.04069" lon="1.88336">
        <ele>278</ele>
        <time>2020-10-04T13:25:39.729Z</time>
      </trkpt>
      <trkpt lat="44.04067" lon="1.88336">
        <ele>278</ele>
        <time>2020-10-04T13:25:40.729Z</time>
      </trkpt>
      <trkpt lat="44.04066" lon="1.88336">
        <ele>278</ele>
        <time>2020-10-04T13:25:41.729Z</time>
      </trkpt>
      <trkpt lat="44.04065" lon="1.88336">
        <ele>278</ele>
        <time>2020-10-04T13:25:42.729Z</time>
      </trkpt>
      <trkpt lat="44.04063" lon="1.88335">
        <ele>278</ele>
        <time>2020-10-04T13:25:43.729Z</time>
      </trkpt>
      <trkpt lat="44.04062" lon="1.88335">
        <ele>278</ele>
        <time>2020-10-04T13:25:44.729Z</time>
      </trkpt>
      <trkpt lat="44.04061" lon="1.88335">
        <ele>277</ele>
        <time>2020-10-04T13:25:45.729Z</time>
      </trkpt>
      <trkpt lat="44.0406" lon="1.88335">
        <ele>277</ele>
        <time>2020-10-04T13:25:46.729Z</time>
      </trkpt>
      <trkpt lat="44.04059" lon="1.88335">
        <ele>277</ele>
        <time>2020-10-04T13:25:47.729Z</time>
      </trkpt>
      <trkpt lat="44.04058" lon="1.88336">
        <ele>277</ele>
        <time>2020-10-04T13:25:48.729Z</time>
      </trkpt>
      <trkpt lat="44.04056" lon="1.88336">
        <ele>277</ele>
        <time>2020-10-04T13:25:49.729Z</time>
      </trkpt>
      <trkpt lat="44.04055" lon="1.88336">
        <ele>277</ele>
        <time>2020-10-04T13:25:50.729Z</time>
      </trkpt>
      <trkpt lat="44.04054" lon="1.88337">
        <ele>277</ele>
        <time>2020-10-04T13:25:51.729Z</time>
      </trkpt>
      <trkpt lat="44.04053" lon="1.88337">
        <ele>277</ele>
        <time>2020-10-04T13:25:52.729Z</time>
      </trkpt>
      <trkpt lat="44.04052" lon="1.88338">
        <ele>277</ele>
        <time>2020-10-04T13:25:53.729Z</time>
      </trkpt>
      <trkpt lat="44.04052" lon="1.88339">
        <ele>277</ele>
        <time>2020-10-04T13:25:54.729Z</time>
      </trkpt>
      <trkpt lat="44.04051" lon="1.8834">
        <ele>277</ele>
        <time>2020-10-04T13:25:55.729Z</time>
      </trkpt>
      <trkpt lat="44.04051" lon="1.8834">
        <ele>277</ele>
        <time>2020-10-04T13:25:56.729Z</time>
      </trkpt>
      <trkpt lat="44.04051" lon="1.8834">
        <ele>277</ele>
        <time>2020-10-04T13:25:57.729Z</time>
      </trkpt>
      <trkpt lat="44.04051" lon="1.8834">
        <ele>277</ele>
        <time>2020-10-04T13:25:58.729Z</time>
      </trkpt>
      <trkpt lat="44.04053" lon="1.88336">
        <ele>278</ele>
        <time>2020-10-04T13:25:59.729Z</time>
      </trkpt>
      <trkpt lat="44.04053" lon="1.88335">
        <ele>278</ele>
        <time>2020-10-04T13:26:00.729Z</time>
      </trkpt>
      <trkpt lat="44.04052" lon="1.88333">
        <ele>278</ele>
        <time>2020-10-04T13:26:01.729Z</time>
      </trkpt>
      <trkpt lat="44.04052" lon="1.88332">
        <ele>278</ele>
        <time>2020-10-04T13:26:02.729Z</time>
      </trkpt>
      <trkpt lat="44.04051" lon="1.88331">
        <ele>278</ele>
        <time>2020-10-04T13:26:03.729Z</time>
      </trkpt>
      <trkpt lat="44.04051" lon="1.8833">
        <ele>278</ele>
        <time>2020-10-04T13:26:04.729Z</time>
      </trkpt>
      <trkpt lat="44.0405" lon="1.88328">
        <ele>278</ele>
        <time>2020-10-04T13:26:05.729Z</time>
      </trkpt>
      <trkpt lat="44.04049" lon="1.88327">
        <ele>278</ele>
        <time>2020-10-04T13:26:06.729Z</time>
      </trkpt>
      <trkpt lat="44.04048" lon="1.88326">
        <ele>277</ele>
        <time>2020-10-04T13:26:07.729Z</time>
      </trkpt>
      <trkpt lat="44.04048" lon="1.88324">
        <ele>277</ele>
        <time>2020-10-04T13:26:08.729Z</time>
      </trkpt>
      <trkpt lat="44.04047" lon="1.88323">
        <ele>277</ele>
        <time>2020-10-04T13:26:09.729Z</time>
      </trkpt>
      <trkpt lat="44.04047" lon="1.88321">
        <ele>277</ele>
        <time>2020-10-04T13:26:10.729Z</time>
      </trkpt>
      <trkpt lat="44.04046" lon="1.88321">
        <ele>277</ele>
        <time>2020-10-04T13:26:11.729Z</time>
      </trkpt>
      <trkpt lat="44.04045" lon="1.8832">
        <ele>277</ele>
        <time>2020-10-04T13:26:12.729Z</time>
      </trkpt>
      <trkpt lat="44.04045" lon="1.88319">
        <ele>277</ele>
        <time>2020-10-04T13:26:13.729Z</time>
      </trkpt>
      <trkpt lat="44.04045" lon="1.88319">
        <ele>276</ele>
        <time>2020-10-04T13:26:14.729Z</time>
      </trkpt>
      <trkpt lat="44.04045" lon="1.88319">
        <ele>276</ele>
        <time>2020-10-04T13:26:15.729Z</time>
      </trkpt>
      <trkpt lat="44.04045" lon="1.88319">
        <ele>276</ele>
        <time>2020-10-04T13:26:16.729Z</time>
      </trkpt>
      <trkpt lat="44.04043" lon="1.88317">
        <ele>276</ele>
        <time>2020-10-04T13:26:17.729Z</time>
      </trkpt>
      <trkpt lat="44.04043" lon="1.88316">
        <ele>275</ele>
        <time>2020-10-04T13:26:18.729Z</time>
      </trkpt>
      <trkpt lat="44.04042" lon="1.88315">
        <ele>275</ele>
        <time>2020-10-04T13:26:19.729Z</time>
      </trkpt>
      <trkpt lat="44.04041" lon="1.88314">
        <ele>275</ele>
        <time>2020-10-04T13:26:20.729Z</time>
      </trkpt>
      <trkpt lat="44.0404" lon="1.88313">
        <ele>275</ele>
        <time>2020-10-04T13:26:21.729Z</time>
      </trkpt>
      <trkpt lat="44.0404" lon="1.88312">
        <ele>275</ele>
        <time>2020-10-04T13:26:22.729Z</time>
      </trkpt>
      <trkpt lat="44.0404" lon="1.88311">
        <ele>275</ele>
        <time>2020-10-04T13:26:23.729Z</time>
      </trkpt>
      <trkpt lat="44.0404" lon="1.88311">
        <ele>275</ele>
        <time>2020-10-04T13:26:24.729Z</time>
      </trkpt>
      <trkpt lat="44.0404" lon="1.88311">
        <ele>275</ele>
        <time>2020-10-04T13:26:25.729Z</time>
      </trkpt>
      <trkpt lat="44.0404" lon="1.8831">
        <ele>275</ele>
        <time>2020-10-04T13:26:26.729Z</time>
      </trkpt>
      <trkpt lat="44.0404" lon="1.8831">
        <ele>275</ele>
        <time>2020-10-04T13:26:27.729Z</time>
      </trkpt>
      <trkpt lat="44.0404" lon="1.8831">
        <ele>275</ele>
        <time>2020-10-04T13:26:28.729Z</time>
      </trkpt>
      <trkpt lat="44.04039" lon="1.88309">
        <ele>275</ele>
        <time>2020-10-04T13:26:29.729Z</time>
      </trkpt>
      <trkpt lat="44.04038" lon="1.88306">
        <ele>275</ele>
        <time>2020-10-04T13:26:30.729Z</time>
      </trkpt>
      <trkpt lat="44.04038" lon="1.88306">
        <ele>275</ele>
        <time>2020-10-04T13:26:31.729Z</time>
      </trkpt>
      <trkpt lat="44.04037" lon="1.88305">
        <ele>275</ele>
        <time>2020-10-04T13:26:32.729Z</time>
      </trkpt>
      <trkpt lat="44.04035" lon="1.88302">
        <ele>275</ele>
        <time>2020-10-04T13:26:33.729Z</time>
      </trkpt>
      <trkpt lat="44.04034" lon="1.88301">
        <ele>275</ele>
        <time>2020-10-04T13:26:34.729Z</time>
      </trkpt>
      <trkpt lat="44.04034" lon="1.883">
        <ele>275</ele>
        <time>2020-10-04T13:26:35.729Z</time>
      </trkpt>
      <trkpt lat="44.04033" lon="1.88299">
        <ele>275</ele>
        <time>2020-10-04T13:26:36.729Z</time>
      </trkpt>
      <trkpt lat="44.04032" lon="1.88297">
        <ele>275</ele>
        <time>2020-10-04T13:26:37.729Z</time>
      </trkpt>
      <trkpt lat="44.04032" lon="1.88297">
        <ele>275</ele>
        <time>2020-10-04T13:26:38.729Z</time>
      </trkpt>
      <trkpt lat="44.04032" lon="1.88296">
        <ele>275</ele>
        <time>2020-10-04T13:26:39.729Z</time>
      </trkpt>
      <trkpt lat="44.04031" lon="1.88294">
        <ele>275</ele>
        <time>2020-10-04T13:26:40.729Z</time>
      </trkpt>
      <trkpt lat="44.0403" lon="1.88293">
        <ele>275</ele>
        <time>2020-10-04T13:26:41.729Z</time>
      </trkpt>
      <trkpt lat="44.04029" lon="1.88292">
        <ele>275</ele>
        <time>2020-10-04T13:26:42.729Z</time>
      </trkpt>
      <trkpt lat="44.04028" lon="1.88289">
        <ele>275</ele>
        <time>2020-10-04T13:26:43.729Z</time>
      </trkpt>
      <trkpt lat="44.04027" lon="1.88287">
        <ele>275</ele>
        <time>2020-10-04T13:26:44.729Z</time>
      </trkpt>
      <trkpt lat="44.04027" lon="1.88287">
        <ele>275</ele>
        <time>2020-10-04T13:26:45.729Z</time>
      </trkpt>
      <trkpt lat="44.04026" lon="1.88284">
        <ele>275</ele>
        <time>2020-10-04T13:26:46.729Z</time>
      </trkpt>
      <trkpt lat="44.04026" lon="1.88284">
        <ele>275</ele>
        <time>2020-10-04T13:26:47.729Z</time>
      </trkpt>
      <trkpt lat="44.04025" lon="1.88281">
        <ele>275</ele>
        <time>2020-10-04T13:26:48.729Z</time>
      </trkpt>
      <trkpt lat="44.04024" lon="1.8828">
        <ele>275</ele>
        <time>2020-10-04T13:26:49.729Z</time>
      </trkpt>
      <trkpt lat="44.04024" lon="1.88279">
        <ele>275</ele>
        <time>2020-10-04T13:26:50.729Z</time>
      </trkpt>
      <trkpt lat="44.04023" lon="1.88277">
        <ele>275</ele>
        <time>2020-10-04T13:26:51.729Z</time>
      </trkpt>
      <trkpt lat="44.04023" lon="1.88277">
        <ele>275</ele>
        <time>2020-10-04T13:26:52.729Z</time>
      </trkpt>
      <trkpt lat="44.04023" lon="1.88276">
        <ele>275</ele>
        <time>2020-10-04T13:26:53.729Z</time>
      </trkpt>
      <trkpt lat="44.04022" lon="1.88275">
        <ele>275</ele>
        <time>2020-10-04T13:26:54.729Z</time>
      </trkpt>
      <trkpt lat="44.04022" lon="1.88274">
        <ele>275</ele>
        <time>2020-10-04T13:26:55.729Z</time>
      </trkpt>
      <trkpt lat="44.04021" lon="1.88273">
        <ele>276</ele>
        <time>2020-10-04T13:26:56.729Z</time>
      </trkpt>
      <trkpt lat="44.04021" lon="1.88271">
        <ele>276</ele>
        <time>2020-10-04T13:26:57.729Z</time>
      </trkpt>
      <trkpt lat="44.0402" lon="1.8827">
        <ele>275</ele>
        <time>2020-10-04T13:26:58.729Z</time>
      </trkpt>
      <trkpt lat="44.04019" lon="1.88269">
        <ele>275</ele>
        <time>2020-10-04T13:26:59.729Z</time>
      </trkpt>
      <trkpt lat="44.04018" lon="1.88266">
        <ele>275</ele>
        <time>2020-10-04T13:27:00.729Z</time>
      </trkpt>
      <trkpt lat="44.04018" lon="1.88266">
        <ele>275</ele>
        <time>2020-10-04T13:27:01.729Z</time>
      </trkpt>
      <trkpt lat="44.04016" lon="1.88264">
        <ele>275</ele>
        <time>2020-10-04T13:27:02.729Z</time>
      </trkpt>
      <trkpt lat="44.04016" lon="1.88264">
        <ele>275</ele>
        <time>2020-10-04T13:27:03.729Z</time>
      </trkpt>
      <trkpt lat="44.04016" lon="1.88264">
        <ele>275</ele>
        <time>2020-10-04T13:27:04.729Z</time>
      </trkpt>
      <trkpt lat="44.04016" lon="1.88264">
        <ele>275</ele>
        <time>2020-10-04T13:27:05.729Z</time>
      </trkpt>
      <trkpt lat="44.04016" lon="1.88264">
        <ele>275</ele>
        <time>2020-10-04T13:27:06.729Z</time>
      </trkpt>
      <trkpt lat="44.04016" lon="1.88264">
        <ele>275</ele>
        <time>2020-10-04T13:27:07.729Z</time>
      </trkpt>
      <trkpt lat="44.04013" lon="1.88261">
        <ele>275</ele>
        <time>2020-10-04T13:27:08.729Z</time>
      </trkpt>
      <trkpt lat="44.04012" lon="1.8826">
        <ele>276</ele>
        <time>2020-10-04T13:27:09.729Z</time>
      </trkpt>
      <trkpt lat="44.04011" lon="1.88258">
        <ele>276</ele>
        <time>2020-10-04T13:27:10.729Z</time>
      </trkpt>
      <trkpt lat="44.04011" lon="1.88257">
        <ele>276</ele>
        <time>2020-10-04T13:27:11.729Z</time>
      </trkpt>
      <trkpt lat="44.0401" lon="1.88255">
        <ele>276</ele>
        <time>2020-10-04T13:27:12.729Z</time>
      </trkpt>
      <trkpt lat="44.04009" lon="1.88254">
        <ele>276</ele>
        <time>2020-10-04T13:27:13.729Z</time>
      </trkpt>
      <trkpt lat="44.04009" lon="1.88252">
        <ele>276</ele>
        <time>2020-10-04T13:27:14.729Z</time>
      </trkpt>
      <trkpt lat="44.04008" lon="1.88251">
        <ele>276</ele>
        <time>2020-10-04T13:27:15.729Z</time>
      </trkpt>
      <trkpt lat="44.04007" lon="1.8825">
        <ele>276</ele>
        <time>2020-10-04T13:27:16.729Z</time>
      </trkpt>
      <trkpt lat="44.04006" lon="1.88248">
        <ele>276</ele>
        <time>2020-10-04T13:27:17.729Z</time>
      </trkpt>
      <trkpt lat="44.04005" lon="1.88247">
        <ele>276</ele>
        <time>2020-10-04T13:27:18.729Z</time>
      </trkpt>
      <trkpt lat="44.04004" lon="1.88246">
        <ele>276</ele>
        <time>2020-10-04T13:27:19.729Z</time>
      </trkpt>
      <trkpt lat="44.04003" lon="1.88245">
        <ele>276</ele>
        <time>2020-10-04T13:27:20.729Z</time>
      </trkpt>
      <trkpt lat="44.04002" lon="1.88243">
        <ele>276</ele>
        <time>2020-10-04T13:27:21.729Z</time>
      </trkpt>
      <trkpt lat="44.04001" lon="1.88242">
        <ele>276</ele>
        <time>2020-10-04T13:27:22.729Z</time>
      </trkpt>
      <trkpt lat="44.04" lon="1.8824">
        <ele>276</ele>
        <time>2020-10-04T13:27:23.729Z</time>
      </trkpt>
      <trkpt lat="44.03999" lon="1.88239">
        <ele>276</ele>
        <time>2020-10-04T13:27:24.729Z</time>
      </trkpt>
      <trkpt lat="44.03998" lon="1.88238">
        <ele>276</ele>
        <time>2020-10-04T13:27:25.729Z</time>
      </trkpt>
      <trkpt lat="44.03997" lon="1.88236">
        <ele>276</ele>
        <time>2020-10-04T13:27:26.729Z</time>
      </trkpt>
      <trkpt lat="44.03996" lon="1.88235">
        <ele>276</ele>
        <time>2020-10-04T13:27:27.729Z</time>
      </trkpt>
      <trkpt lat="44.03995" lon="1.88233">
        <ele>276</ele>
        <time>2020-10-04T13:27:28.729Z</time>
      </trkpt>
      <trkpt lat="44.03994" lon="1.88232">
        <ele>276</ele>
        <time>2020-10-04T13:27:29.729Z</time>
      </trkpt>
      <trkpt lat="44.03993" lon="1.8823">
        <ele>276</ele>
        <time>2020-10-04T13:27:30.729Z</time>
      </trkpt>
      <trkpt lat="44.03993" lon="1.88229">
        <ele>276</ele>
        <time>2020-10-04T13:27:31.729Z</time>
      </trkpt>
      <trkpt lat="44.03992" lon="1.88228">
        <ele>276</ele>
        <time>2020-10-04T13:27:32.729Z</time>
      </trkpt>
      <trkpt lat="44.03991" lon="1.88227">
        <ele>276</ele>
        <time>2020-10-04T13:27:33.729Z</time>
      </trkpt>
      <trkpt lat="44.0399" lon="1.88225">
        <ele>276</ele>
        <time>2020-10-04T13:27:34.729Z</time>
      </trkpt>
      <trkpt lat="44.0399" lon="1.88224">
        <ele>276</ele>
        <time>2020-10-04T13:27:35.729Z</time>
      </trkpt>
      <trkpt lat="44.03989" lon="1.88223">
        <ele>276</ele>
        <time>2020-10-04T13:27:36.729Z</time>
      </trkpt>
      <trkpt lat="44.03988" lon="1.88222">
        <ele>276</ele>
        <time>2020-10-04T13:27:37.729Z</time>
      </trkpt>
      <trkpt lat="44.03987" lon="1.88221">
        <ele>276</ele>
        <time>2020-10-04T13:27:38.729Z</time>
      </trkpt>
      <trkpt lat="44.03986" lon="1.8822">
        <ele>276</ele>
        <time>2020-10-04T13:27:39.729Z</time>
      </trkpt>
      <trkpt lat="44.03985" lon="1.88219">
        <ele>276</ele>
        <time>2020-10-04T13:27:40.729Z</time>
      </trkpt>
      <trkpt lat="44.03984" lon="1.88218">
        <ele>276</ele>
        <time>2020-10-04T13:27:41.729Z</time>
      </trkpt>
      <trkpt lat="44.03983" lon="1.88217">
        <ele>276</ele>
        <time>2020-10-04T13:27:42.729Z</time>
      </trkpt>
      <trkpt lat="44.03982" lon="1.88216">
        <ele>276</ele>
        <time>2020-10-04T13:27:43.729Z</time>
      </trkpt>
      <trkpt lat="44.03981" lon="1.88215">
        <ele>276</ele>
        <time>2020-10-04T13:27:44.729Z</time>
      </trkpt>
      <trkpt lat="44.0398" lon="1.88214">
        <ele>276</ele>
        <time>2020-10-04T13:27:45.729Z</time>
      </trkpt>
      <trkpt lat="44.03979" lon="1.88213">
        <ele>276</ele>
        <time>2020-10-04T13:27:46.729Z</time>
      </trkpt>
      <trkpt lat="44.03978" lon="1.88212">
        <ele>276</ele>
        <time>2020-10-04T13:27:47.729Z</time>
      </trkpt>
      <trkpt lat="44.03977" lon="1.88211">
        <ele>276</ele>
        <time>2020-10-04T13:27:48.729Z</time>
      </trkpt>
      <trkpt lat="44.03976" lon="1.8821">
        <ele>276</ele>
        <time>2020-10-04T13:27:49.729Z</time>
      </trkpt>
      <trkpt lat="44.03975" lon="1.88209">
        <ele>276</ele>
        <time>2020-10-04T13:27:50.729Z</time>
      </trkpt>
      <trkpt lat="44.03973" lon="1.88207">
        <ele>276</ele>
        <time>2020-10-04T13:27:51.729Z</time>
      </trkpt>
      <trkpt lat="44.03972" lon="1.88206">
        <ele>277</ele>
        <time>2020-10-04T13:27:52.729Z</time>
      </trkpt>
      <trkpt lat="44.03971" lon="1.88205">
        <ele>277</ele>
        <time>2020-10-04T13:27:53.729Z</time>
      </trkpt>
      <trkpt lat="44.0397" lon="1.88204">
        <ele>277</ele>
        <time>2020-10-04T13:27:54.729Z</time>
      </trkpt>
      <trkpt lat="44.03969" lon="1.88203">
        <ele>277</ele>
        <time>2020-10-04T13:27:55.729Z</time>
      </trkpt>
      <trkpt lat="44.03968" lon="1.88202">
        <ele>277</ele>
        <time>2020-10-04T13:27:56.729Z</time>
      </trkpt>
      <trkpt lat="44.03967" lon="1.88201">
        <ele>277</ele>
        <time>2020-10-04T13:27:57.729Z</time>
      </trkpt>
      <trkpt lat="44.03966" lon="1.88201">
        <ele>277</ele>
        <time>2020-10-04T13:27:58.729Z</time>
      </trkpt>
      <trkpt lat="44.03965" lon="1.882">
        <ele>277</ele>
        <time>2020-10-04T13:27:59.729Z</time>
      </trkpt>
      <trkpt lat="44.03963" lon="1.88198">
        <ele>277</ele>
        <time>2020-10-04T13:28:00.729Z</time>
      </trkpt>
      <trkpt lat="44.03962" lon="1.88197">
        <ele>277</ele>
        <time>2020-10-04T13:28:01.729Z</time>
      </trkpt>
      <trkpt lat="44.03961" lon="1.88197">
        <ele>277</ele>
        <time>2020-10-04T13:28:02.729Z</time>
      </trkpt>
      <trkpt lat="44.03959" lon="1.88196">
        <ele>277</ele>
        <time>2020-10-04T13:28:03.729Z</time>
      </trkpt>
      <trkpt lat="44.03958" lon="1.88195">
        <ele>278</ele>
        <time>2020-10-04T13:28:04.729Z</time>
      </trkpt>
      <trkpt lat="44.03957" lon="1.88194">
        <ele>278</ele>
        <time>2020-10-04T13:28:05.729Z</time>
      </trkpt>
      <trkpt lat="44.03956" lon="1.88193">
        <ele>278</ele>
        <time>2020-10-04T13:28:06.729Z</time>
      </trkpt>
      <trkpt lat="44.03954" lon="1.88192">
        <ele>278</ele>
        <time>2020-10-04T13:28:07.729Z</time>
      </trkpt>
      <trkpt lat="44.03953" lon="1.88191">
        <ele>277</ele>
        <time>2020-10-04T13:28:08.729Z</time>
      </trkpt>
      <trkpt lat="44.03952" lon="1.88191">
        <ele>277</ele>
        <time>2020-10-04T13:28:09.729Z</time>
      </trkpt>
      <trkpt lat="44.03951" lon="1.8819">
        <ele>277</ele>
        <time>2020-10-04T13:28:10.729Z</time>
      </trkpt>
      <trkpt lat="44.03949" lon="1.88189">
        <ele>277</ele>
        <time>2020-10-04T13:28:11.729Z</time>
      </trkpt>
      <trkpt lat="44.03948" lon="1.88189">
        <ele>277</ele>
        <time>2020-10-04T13:28:12.729Z</time>
      </trkpt>
      <trkpt lat="44.03947" lon="1.88188">
        <ele>277</ele>
        <time>2020-10-04T13:28:13.729Z</time>
      </trkpt>
      <trkpt lat="44.03946" lon="1.88188">
        <ele>277</ele>
        <time>2020-10-04T13:28:14.729Z</time>
      </trkpt>
      <trkpt lat="44.03945" lon="1.88188">
        <ele>277</ele>
        <time>2020-10-04T13:28:15.729Z</time>
      </trkpt>
      <trkpt lat="44.03944" lon="1.88187">
        <ele>277</ele>
        <time>2020-10-04T13:28:16.729Z</time>
      </trkpt>
      <trkpt lat="44.03943" lon="1.88187">
        <ele>277</ele>
        <time>2020-10-04T13:28:17.729Z</time>
      </trkpt>
      <trkpt lat="44.03942" lon="1.88186">
        <ele>277</ele>
        <time>2020-10-04T13:28:18.729Z</time>
      </trkpt>
      <trkpt lat="44.03942" lon="1.88186">
        <ele>277</ele>
        <time>2020-10-04T13:28:19.729Z</time>
      </trkpt>
      <trkpt lat="44.03941" lon="1.88186">
        <ele>277</ele>
        <time>2020-10-04T13:28:20.729Z</time>
      </trkpt>
      <trkpt lat="44.03941" lon="1.88185">
        <ele>277</ele>
        <time>2020-10-04T13:28:21.729Z</time>
      </trkpt>
      <trkpt lat="44.03941" lon="1.88186">
        <ele>277</ele>
        <time>2020-10-04T13:28:22.729Z</time>
      </trkpt>
      <trkpt lat="44.0394" lon="1.88186">
        <ele>277</ele>
        <time>2020-10-04T13:28:23.729Z</time>
      </trkpt>
      <trkpt lat="44.0394" lon="1.88185">
        <ele>277</ele>
        <time>2020-10-04T13:28:24.729Z</time>
      </trkpt>
      <trkpt lat="44.0394" lon="1.88185">
        <ele>277</ele>
        <time>2020-10-04T13:28:25.729Z</time>
      </trkpt>
      <trkpt lat="44.0394" lon="1.88185">
        <ele>277</ele>
        <time>2020-10-04T13:28:26.729Z</time>
      </trkpt>
      <trkpt lat="44.0394" lon="1.88185">
        <ele>277</ele>
        <time>2020-10-04T13:28:27.729Z</time>
      </trkpt>
      <trkpt lat="44.03938" lon="1.88183">
        <ele>276</ele>
        <time>2020-10-04T13:28:28.729Z</time>
      </trkpt>
      <trkpt lat="44.03938" lon="1.88183">
        <ele>276</ele>
        <time>2020-10-04T13:28:29.729Z</time>
      </trkpt>
      <trkpt lat="44.03937" lon="1.88183">
        <ele>276</ele>
        <time>2020-10-04T13:28:30.729Z</time>
      </trkpt>
      <trkpt lat="44.03937" lon="1.88182">
        <ele>276</ele>
        <time>2020-10-04T13:28:31.729Z</time>
      </trkpt>
      <trkpt lat="44.03937" lon="1.88182">
        <ele>276</ele>
        <time>2020-10-04T13:28:32.729Z</time>
      </trkpt>
      <trkpt lat="44.03937" lon="1.88182">
        <ele>276</ele>
        <time>2020-10-04T13:28:33.729Z</time>
      </trkpt>
      <trkpt lat="44.03935" lon="1.88181">
        <ele>275</ele>
        <time>2020-10-04T13:28:34.729Z</time>
      </trkpt>
      <trkpt lat="44.03934" lon="1.88181">
        <ele>275</ele>
        <time>2020-10-04T13:28:35.729Z</time>
      </trkpt>
      <trkpt lat="44.03933" lon="1.8818">
        <ele>275</ele>
        <time>2020-10-04T13:28:36.729Z</time>
      </trkpt>
      <trkpt lat="44.03933" lon="1.8818">
        <ele>275</ele>
        <time>2020-10-04T13:28:37.729Z</time>
      </trkpt>
      <trkpt lat="44.03932" lon="1.8818">
        <ele>275</ele>
        <time>2020-10-04T13:28:38.729Z</time>
      </trkpt>
      <trkpt lat="44.03932" lon="1.8818">
        <ele>275</ele>
        <time>2020-10-04T13:28:39.729Z</time>
      </trkpt>
      <trkpt lat="44.03932" lon="1.8818">
        <ele>275</ele>
        <time>2020-10-04T13:28:40.729Z</time>
      </trkpt>
      <trkpt lat="44.03932" lon="1.88179">
        <ele>275</ele>
        <time>2020-10-04T13:28:41.729Z</time>
      </trkpt>
      <trkpt lat="44.03929" lon="1.88178">
        <ele>275</ele>
        <time>2020-10-04T13:28:42.729Z</time>
      </trkpt>
      <trkpt lat="44.03928" lon="1.88178">
        <ele>275</ele>
        <time>2020-10-04T13:28:43.729Z</time>
      </trkpt>
      <trkpt lat="44.03927" lon="1.88178">
        <ele>275</ele>
        <time>2020-10-04T13:28:44.729Z</time>
      </trkpt>
      <trkpt lat="44.03926" lon="1.88178">
        <ele>275</ele>
        <time>2020-10-04T13:28:45.729Z</time>
      </trkpt>
      <trkpt lat="44.03925" lon="1.88178">
        <ele>275</ele>
        <time>2020-10-04T13:28:46.729Z</time>
      </trkpt>
      <trkpt lat="44.03924" lon="1.88177">
        <ele>275</ele>
        <time>2020-10-04T13:28:47.729Z</time>
      </trkpt>
      <trkpt lat="44.03922" lon="1.88177">
        <ele>275</ele>
        <time>2020-10-04T13:28:48.729Z</time>
      </trkpt>
      <trkpt lat="44.03921" lon="1.88176">
        <ele>275</ele>
        <time>2020-10-04T13:28:49.729Z</time>
      </trkpt>
      <trkpt lat="44.0392" lon="1.88176">
        <ele>274</ele>
        <time>2020-10-04T13:28:50.729Z</time>
      </trkpt>
      <trkpt lat="44.03919" lon="1.88175">
        <ele>274</ele>
        <time>2020-10-04T13:28:51.729Z</time>
      </trkpt>
      <trkpt lat="44.03917" lon="1.88175">
        <ele>274</ele>
        <time>2020-10-04T13:28:52.729Z</time>
      </trkpt>
      <trkpt lat="44.03916" lon="1.88174">
        <ele>274</ele>
        <time>2020-10-04T13:28:53.729Z</time>
      </trkpt>
      <trkpt lat="44.03915" lon="1.88174">
        <ele>274</ele>
        <time>2020-10-04T13:28:54.729Z</time>
      </trkpt>
      <trkpt lat="44.03914" lon="1.88174">
        <ele>274</ele>
        <time>2020-10-04T13:28:55.729Z</time>
      </trkpt>
      <trkpt lat="44.03913" lon="1.88174">
        <ele>274</ele>
        <time>2020-10-04T13:28:56.729Z</time>
      </trkpt>
      <trkpt lat="44.03912" lon="1.88173">
        <ele>274</ele>
        <time>2020-10-04T13:28:57.729Z</time>
      </trkpt>
      <trkpt lat="44.03911" lon="1.88173">
        <ele>274</ele>
        <time>2020-10-04T13:28:58.729Z</time>
      </trkpt>
      <trkpt lat="44.0391" lon="1.88173">
        <ele>274</ele>
        <time>2020-10-04T13:28:59.729Z</time>
      </trkpt>
      <trkpt lat="44.03909" lon="1.88173">
        <ele>274</ele>
        <time>2020-10-04T13:29:00.729Z</time>
      </trkpt>
      <trkpt lat="44.03908" lon="1.88173">
        <ele>274</ele>
        <time>2020-10-04T13:29:01.729Z</time>
      </trkpt>
      <trkpt lat="44.03906" lon="1.88172">
        <ele>275</ele>
        <time>2020-10-04T13:29:02.729Z</time>
      </trkpt>
      <trkpt lat="44.03905" lon="1.88172">
        <ele>275</ele>
        <time>2020-10-04T13:29:03.729Z</time>
      </trkpt>
      <trkpt lat="44.03904" lon="1.88172">
        <ele>275</ele>
        <time>2020-10-04T13:29:04.729Z</time>
      </trkpt>
      <trkpt lat="44.03903" lon="1.88172">
        <ele>275</ele>
        <time>2020-10-04T13:29:05.729Z</time>
      </trkpt>
      <trkpt lat="44.03902" lon="1.88172">
        <ele>274</ele>
        <time>2020-10-04T13:29:06.729Z</time>
      </trkpt>
      <trkpt lat="44.03901" lon="1.88172">
        <ele>274</ele>
        <time>2020-10-04T13:29:07.729Z</time>
      </trkpt>
      <trkpt lat="44.039" lon="1.88172">
        <ele>274</ele>
        <time>2020-10-04T13:29:08.729Z</time>
      </trkpt>
      <trkpt lat="44.03898" lon="1.88172">
        <ele>274</ele>
        <time>2020-10-04T13:29:09.729Z</time>
      </trkpt>
      <trkpt lat="44.03897" lon="1.88172">
        <ele>274</ele>
        <time>2020-10-04T13:29:10.729Z</time>
      </trkpt>
      <trkpt lat="44.03896" lon="1.88172">
        <ele>274</ele>
        <time>2020-10-04T13:29:11.729Z</time>
      </trkpt>
      <trkpt lat="44.03895" lon="1.88172">
        <ele>274</ele>
        <time>2020-10-04T13:29:12.729Z</time>
      </trkpt>
      <trkpt lat="44.03893" lon="1.88171">
        <ele>274</ele>
        <time>2020-10-04T13:29:13.729Z</time>
      </trkpt>
      <trkpt lat="44.03892" lon="1.88171">
        <ele>274</ele>
        <time>2020-10-04T13:29:14.729Z</time>
      </trkpt>
      <trkpt lat="44.03892" lon="1.88171">
        <ele>274</ele>
        <time>2020-10-04T13:29:15.729Z</time>
      </trkpt>
      <trkpt lat="44.0389" lon="1.88171">
        <ele>274</ele>
        <time>2020-10-04T13:29:16.729Z</time>
      </trkpt>
      <trkpt lat="44.03889" lon="1.88171">
        <ele>273</ele>
        <time>2020-10-04T13:29:17.729Z</time>
      </trkpt>
      <trkpt lat="44.03888" lon="1.88171">
        <ele>273</ele>
        <time>2020-10-04T13:29:18.729Z</time>
      </trkpt>
      <trkpt lat="44.03888" lon="1.88171">
        <ele>273</ele>
        <time>2020-10-04T13:29:19.729Z</time>
      </trkpt>
      <trkpt lat="44.03887" lon="1.88171">
        <ele>273</ele>
        <time>2020-10-04T13:29:20.729Z</time>
      </trkpt>
      <trkpt lat="44.03886" lon="1.88171">
        <ele>273</ele>
        <time>2020-10-04T13:29:21.729Z</time>
      </trkpt>
      <trkpt lat="44.03885" lon="1.88171">
        <ele>273</ele>
        <time>2020-10-04T13:29:22.729Z</time>
      </trkpt>
      <trkpt lat="44.03885" lon="1.8817">
        <ele>273</ele>
        <time>2020-10-04T13:29:23.729Z</time>
      </trkpt>
      <trkpt lat="44.03884" lon="1.8817">
        <ele>273</ele>
        <time>2020-10-04T13:29:24.729Z</time>
      </trkpt>
      <trkpt lat="44.03883" lon="1.8817">
        <ele>273</ele>
        <time>2020-10-04T13:29:25.729Z</time>
      </trkpt>
      <trkpt lat="44.03882" lon="1.8817">
        <ele>273</ele>
        <time>2020-10-04T13:29:26.729Z</time>
      </trkpt>
      <trkpt lat="44.03881" lon="1.88169">
        <ele>273</ele>
        <time>2020-10-04T13:29:27.729Z</time>
      </trkpt>
      <trkpt lat="44.0388" lon="1.88169">
        <ele>272</ele>
        <time>2020-10-04T13:29:28.729Z</time>
      </trkpt>
      <trkpt lat="44.0388" lon="1.88168">
        <ele>272</ele>
        <time>2020-10-04T13:29:29.729Z</time>
      </trkpt>
      <trkpt lat="44.03878" lon="1.88168">
        <ele>272</ele>
        <time>2020-10-04T13:29:30.729Z</time>
      </trkpt>
      <trkpt lat="44.03877" lon="1.88167">
        <ele>272</ele>
        <time>2020-10-04T13:29:31.729Z</time>
      </trkpt>
      <trkpt lat="44.03876" lon="1.88166">
        <ele>272</ele>
        <time>2020-10-04T13:29:32.729Z</time>
      </trkpt>
      <trkpt lat="44.03875" lon="1.88165">
        <ele>272</ele>
        <time>2020-10-04T13:29:33.729Z</time>
      </trkpt>
      <trkpt lat="44.03874" lon="1.88165">
        <ele>272</ele>
        <time>2020-10-04T13:29:34.729Z</time>
      </trkpt>
      <trkpt lat="44.03873" lon="1.88164">
        <ele>272</ele>
        <time>2020-10-04T13:29:35.729Z</time>
      </trkpt>
      <trkpt lat="44.03872" lon="1.88164">
        <ele>272</ele>
        <time>2020-10-04T13:29:36.729Z</time>
      </trkpt>
      <trkpt lat="44.03871" lon="1.88163">
        <ele>272</ele>
        <time>2020-10-04T13:29:37.729Z</time>
      </trkpt>
      <trkpt lat="44.03869" lon="1.88163">
        <ele>271</ele>
        <time>2020-10-04T13:29:38.729Z</time>
      </trkpt>
      <trkpt lat="44.03868" lon="1.88162">
        <ele>271</ele>
        <time>2020-10-04T13:29:39.729Z</time>
      </trkpt>
      <trkpt lat="44.03867" lon="1.88161">
        <ele>271</ele>
        <time>2020-10-04T13:29:40.729Z</time>
      </trkpt>
      <trkpt lat="44.03866" lon="1.8816">
        <ele>271</ele>
        <time>2020-10-04T13:29:41.729Z</time>
      </trkpt>
      <trkpt lat="44.03865" lon="1.88159">
        <ele>271</ele>
        <time>2020-10-04T13:29:42.729Z</time>
      </trkpt>
      <trkpt lat="44.03864" lon="1.88158">
        <ele>271</ele>
        <time>2020-10-04T13:29:43.729Z</time>
      </trkpt>
      <trkpt lat="44.03863" lon="1.88158">
        <ele>271</ele>
        <time>2020-10-04T13:29:44.729Z</time>
      </trkpt>
      <trkpt lat="44.03861" lon="1.88157">
        <ele>271</ele>
        <time>2020-10-04T13:29:45.729Z</time>
      </trkpt>
      <trkpt lat="44.0386" lon="1.88156">
        <ele>271</ele>
        <time>2020-10-04T13:29:46.729Z</time>
      </trkpt>
      <trkpt lat="44.03859" lon="1.88155">
        <ele>271</ele>
        <time>2020-10-04T13:29:47.729Z</time>
      </trkpt>
      <trkpt lat="44.03858" lon="1.88154">
        <ele>271</ele>
        <time>2020-10-04T13:29:48.729Z</time>
      </trkpt>
      <trkpt lat="44.03856" lon="1.88154">
        <ele>271</ele>
        <time>2020-10-04T13:29:49.729Z</time>
      </trkpt>
      <trkpt lat="44.03855" lon="1.88153">
        <ele>271</ele>
        <time>2020-10-04T13:29:50.729Z</time>
      </trkpt>
      <trkpt lat="44.03854" lon="1.88152">
        <ele>271</ele>
        <time>2020-10-04T13:29:51.729Z</time>
      </trkpt>
      <trkpt lat="44.03853" lon="1.88151">
        <ele>271</ele>
        <time>2020-10-04T13:29:52.729Z</time>
      </trkpt>
      <trkpt lat="44.03852" lon="1.8815">
        <ele>271</ele>
        <time>2020-10-04T13:29:53.729Z</time>
      </trkpt>
      <trkpt lat="44.03851" lon="1.88149">
        <ele>271</ele>
        <time>2020-10-04T13:29:54.729Z</time>
      </trkpt>
      <trkpt lat="44.0385" lon="1.88148">
        <ele>271</ele>
        <time>2020-10-04T13:29:55.729Z</time>
      </trkpt>
      <trkpt lat="44.03849" lon="1.88147">
        <ele>271</ele>
        <time>2020-10-04T13:29:56.729Z</time>
      </trkpt>
      <trkpt lat="44.03848" lon="1.88146">
        <ele>271</ele>
        <time>2020-10-04T13:29:57.729Z</time>
      </trkpt>
      <trkpt lat="44.03847" lon="1.88145">
        <ele>271</ele>
        <time>2020-10-04T13:29:58.729Z</time>
      </trkpt>
      <trkpt lat="44.03846" lon="1.88144">
        <ele>270</ele>
        <time>2020-10-04T13:29:59.729Z</time>
      </trkpt>
      <trkpt lat="44.03845" lon="1.88144">
        <ele>270</ele>
        <time>2020-10-04T13:30:00.729Z</time>
      </trkpt>
      <trkpt lat="44.03844" lon="1.88143">
        <ele>270</ele>
        <time>2020-10-04T13:30:01.729Z</time>
      </trkpt>
      <trkpt lat="44.03843" lon="1.88142">
        <ele>270</ele>
        <time>2020-10-04T13:30:02.729Z</time>
      </trkpt>
      <trkpt lat="44.03842" lon="1.88141">
        <ele>270</ele>
        <time>2020-10-04T13:30:03.729Z</time>
      </trkpt>
      <trkpt lat="44.03841" lon="1.8814">
        <ele>270</ele>
        <time>2020-10-04T13:30:04.729Z</time>
      </trkpt>
      <trkpt lat="44.0384" lon="1.88139">
        <ele>270</ele>
        <time>2020-10-04T13:30:05.729Z</time>
      </trkpt>
      <trkpt lat="44.03839" lon="1.88137">
        <ele>270</ele>
        <time>2020-10-04T13:30:06.729Z</time>
      </trkpt>
      <trkpt lat="44.03838" lon="1.88136">
        <ele>270</ele>
        <time>2020-10-04T13:30:07.729Z</time>
      </trkpt>
      <trkpt lat="44.03837" lon="1.88135">
        <ele>270</ele>
        <time>2020-10-04T13:30:08.729Z</time>
      </trkpt>
      <trkpt lat="44.03836" lon="1.88134">
        <ele>270</ele>
        <time>2020-10-04T13:30:09.729Z</time>
      </trkpt>
      <trkpt lat="44.03835" lon="1.88133">
        <ele>270</ele>
        <time>2020-10-04T13:30:10.729Z</time>
      </trkpt>
      <trkpt lat="44.03834" lon="1.88132">
        <ele>270</ele>
        <time>2020-10-04T13:30:11.729Z</time>
      </trkpt>
      <trkpt lat="44.03834" lon="1.88131">
        <ele>270</ele>
        <time>2020-10-04T13:30:12.729Z</time>
      </trkpt>
      <trkpt lat="44.03833" lon="1.8813">
        <ele>270</ele>
        <time>2020-10-04T13:30:13.729Z</time>
      </trkpt>
      <trkpt lat="44.03831" lon="1.88129">
        <ele>270</ele>
        <time>2020-10-04T13:30:14.729Z</time>
      </trkpt>
      <trkpt lat="44.0383" lon="1.88128">
        <ele>270</ele>
        <time>2020-10-04T13:30:15.729Z</time>
      </trkpt>
      <trkpt lat="44.0383" lon="1.88127">
        <ele>270</ele>
        <time>2020-10-04T13:30:16.729Z</time>
      </trkpt>
      <trkpt lat="44.03829" lon="1.88126">
        <ele>270</ele>
        <time>2020-10-04T13:30:17.729Z</time>
      </trkpt>
      <trkpt lat="44.03828" lon="1.88125">
        <ele>270</ele>
        <time>2020-10-04T13:30:18.729Z</time>
      </trkpt>
      <trkpt lat="44.03827" lon="1.88123">
        <ele>270</ele>
        <time>2020-10-04T13:30:19.729Z</time>
      </trkpt>
      <trkpt lat="44.03826" lon="1.88122">
        <ele>270</ele>
        <time>2020-10-04T13:30:20.729Z</time>
      </trkpt>
      <trkpt lat="44.03825" lon="1.88121">
        <ele>270</ele>
        <time>2020-10-04T13:30:21.729Z</time>
      </trkpt>
      <trkpt lat="44.03825" lon="1.8812">
        <ele>270</ele>
        <time>2020-10-04T13:30:22.729Z</time>
      </trkpt>
      <trkpt lat="44.03824" lon="1.88119">
        <ele>270</ele>
        <time>2020-10-04T13:30:23.729Z</time>
      </trkpt>
      <trkpt lat="44.03823" lon="1.88117">
        <ele>270</ele>
        <time>2020-10-04T13:30:24.729Z</time>
      </trkpt>
      <trkpt lat="44.03822" lon="1.88116">
        <ele>270</ele>
        <time>2020-10-04T13:30:25.729Z</time>
      </trkpt>
      <trkpt lat="44.03822" lon="1.88115">
        <ele>270</ele>
        <time>2020-10-04T13:30:26.729Z</time>
      </trkpt>
      <trkpt lat="44.03821" lon="1.88113">
        <ele>270</ele>
        <time>2020-10-04T13:30:27.729Z</time>
      </trkpt>
      <trkpt lat="44.0382" lon="1.88112">
        <ele>270</ele>
        <time>2020-10-04T13:30:28.729Z</time>
      </trkpt>
      <trkpt lat="44.0382" lon="1.88111">
        <ele>270</ele>
        <time>2020-10-04T13:30:29.729Z</time>
      </trkpt>
      <trkpt lat="44.03819" lon="1.88109">
        <ele>270</ele>
        <time>2020-10-04T13:30:30.729Z</time>
      </trkpt>
      <trkpt lat="44.03818" lon="1.88108">
        <ele>270</ele>
        <time>2020-10-04T13:30:31.729Z</time>
      </trkpt>
      <trkpt lat="44.03818" lon="1.88106">
        <ele>270</ele>
        <time>2020-10-04T13:30:32.729Z</time>
      </trkpt>
      <trkpt lat="44.03817" lon="1.88105">
        <ele>270</ele>
        <time>2020-10-04T13:30:33.729Z</time>
      </trkpt>
      <trkpt lat="44.03816" lon="1.88103">
        <ele>270</ele>
        <time>2020-10-04T13:30:34.729Z</time>
      </trkpt>
      <trkpt lat="44.03816" lon="1.88102">
        <ele>270</ele>
        <time>2020-10-04T13:30:35.729Z</time>
      </trkpt>
      <trkpt lat="44.03815" lon="1.88101">
        <ele>270</ele>
        <time>2020-10-04T13:30:36.729Z</time>
      </trkpt>
      <trkpt lat="44.03814" lon="1.88099">
        <ele>270</ele>
        <time>2020-10-04T13:30:37.729Z</time>
      </trkpt>
      <trkpt lat="44.03814" lon="1.88098">
        <ele>270</ele>
        <time>2020-10-04T13:30:38.729Z</time>
      </trkpt>
      <trkpt lat="44.03813" lon="1.88097">
        <ele>270</ele>
        <time>2020-10-04T13:30:39.729Z</time>
      </trkpt>
      <trkpt lat="44.03812" lon="1.88096">
        <ele>270</ele>
        <time>2020-10-04T13:30:40.729Z</time>
      </trkpt>
      <trkpt lat="44.03812" lon="1.88094">
        <ele>270</ele>
        <time>2020-10-04T13:30:41.729Z</time>
      </trkpt>
      <trkpt lat="44.03811" lon="1.88093">
        <ele>270</ele>
        <time>2020-10-04T13:30:42.729Z</time>
      </trkpt>
      <trkpt lat="44.0381" lon="1.88092">
        <ele>270</ele>
        <time>2020-10-04T13:30:43.729Z</time>
      </trkpt>
      <trkpt lat="44.0381" lon="1.8809">
        <ele>270</ele>
        <time>2020-10-04T13:30:44.729Z</time>
      </trkpt>
      <trkpt lat="44.03809" lon="1.88089">
        <ele>270</ele>
        <time>2020-10-04T13:30:45.729Z</time>
      </trkpt>
      <trkpt lat="44.03809" lon="1.88088">
        <ele>269</ele>
        <time>2020-10-04T13:30:46.729Z</time>
      </trkpt>
      <trkpt lat="44.03808" lon="1.88086">
        <ele>269</ele>
        <time>2020-10-04T13:30:47.729Z</time>
      </trkpt>
      <trkpt lat="44.03807" lon="1.88085">
        <ele>269</ele>
        <time>2020-10-04T13:30:48.729Z</time>
      </trkpt>
      <trkpt lat="44.03806" lon="1.88083">
        <ele>269</ele>
        <time>2020-10-04T13:30:49.729Z</time>
      </trkpt>
      <trkpt lat="44.03806" lon="1.88082">
        <ele>269</ele>
        <time>2020-10-04T13:30:50.729Z</time>
      </trkpt>
      <trkpt lat="44.03805" lon="1.88081">
        <ele>269</ele>
        <time>2020-10-04T13:30:51.729Z</time>
      </trkpt>
      <trkpt lat="44.03805" lon="1.8808">
        <ele>269</ele>
        <time>2020-10-04T13:30:52.729Z</time>
      </trkpt>
      <trkpt lat="44.03804" lon="1.88078">
        <ele>269</ele>
        <time>2020-10-04T13:30:53.729Z</time>
      </trkpt>
      <trkpt lat="44.03804" lon="1.88077">
        <ele>269</ele>
        <time>2020-10-04T13:30:54.729Z</time>
      </trkpt>
      <trkpt lat="44.03803" lon="1.88075">
        <ele>269</ele>
        <time>2020-10-04T13:30:55.729Z</time>
      </trkpt>
      <trkpt lat="44.03802" lon="1.88073">
        <ele>269</ele>
        <time>2020-10-04T13:30:56.729Z</time>
      </trkpt>
      <trkpt lat="44.03802" lon="1.88072">
        <ele>269</ele>
        <time>2020-10-04T13:30:57.729Z</time>
      </trkpt>
      <trkpt lat="44.03801" lon="1.8807">
        <ele>269</ele>
        <time>2020-10-04T13:30:58.729Z</time>
      </trkpt>
      <trkpt lat="44.038" lon="1.88069">
        <ele>269</ele>
        <time>2020-10-04T13:30:59.729Z</time>
      </trkpt>
      <trkpt lat="44.03799" lon="1.88068">
        <ele>269</ele>
        <time>2020-10-04T13:31:00.729Z</time>
      </trkpt>
      <trkpt lat="44.03799" lon="1.88066">
        <ele>269</ele>
        <time>2020-10-04T13:31:01.729Z</time>
      </trkpt>
      <trkpt lat="44.03798" lon="1.88065">
        <ele>269</ele>
        <time>2020-10-04T13:31:02.729Z</time>
      </trkpt>
      <trkpt lat="44.03798" lon="1.88063">
        <ele>269</ele>
        <time>2020-10-04T13:31:03.729Z</time>
      </trkpt>
      <trkpt lat="44.03797" lon="1.88061">
        <ele>269</ele>
        <time>2020-10-04T13:31:04.729Z</time>
      </trkpt>
      <trkpt lat="44.03796" lon="1.8806">
        <ele>269</ele>
        <time>2020-10-04T13:31:05.729Z</time>
      </trkpt>
      <trkpt lat="44.03795" lon="1.88058">
        <ele>269</ele>
        <time>2020-10-04T13:31:06.729Z</time>
      </trkpt>
      <trkpt lat="44.03795" lon="1.88057">
        <ele>269</ele>
        <time>2020-10-04T13:31:07.729Z</time>
      </trkpt>
      <trkpt lat="44.03794" lon="1.88056">
        <ele>269</ele>
        <time>2020-10-04T13:31:08.729Z</time>
      </trkpt>
      <trkpt lat="44.03794" lon="1.88054">
        <ele>269</ele>
        <time>2020-10-04T13:31:09.729Z</time>
      </trkpt>
      <trkpt lat="44.03793" lon="1.88053">
        <ele>269</ele>
        <time>2020-10-04T13:31:10.729Z</time>
      </trkpt>
      <trkpt lat="44.03792" lon="1.88052">
        <ele>269</ele>
        <time>2020-10-04T13:31:11.729Z</time>
      </trkpt>
      <trkpt lat="44.03791" lon="1.88051">
        <ele>269</ele>
        <time>2020-10-04T13:31:12.729Z</time>
      </trkpt>
      <trkpt lat="44.0379" lon="1.8805">
        <ele>269</ele>
        <time>2020-10-04T13:31:13.729Z</time>
      </trkpt>
      <trkpt lat="44.03789" lon="1.88049">
        <ele>269</ele>
        <time>2020-10-04T13:31:14.729Z</time>
      </trkpt>
      <trkpt lat="44.03788" lon="1.88048">
        <ele>269</ele>
        <time>2020-10-04T13:31:15.729Z</time>
      </trkpt>
      <trkpt lat="44.03787" lon="1.88047">
        <ele>269</ele>
        <time>2020-10-04T13:31:16.729Z</time>
      </trkpt>
      <trkpt lat="44.03786" lon="1.88046">
        <ele>269</ele>
        <time>2020-10-04T13:31:17.729Z</time>
      </trkpt>
      <trkpt lat="44.03785" lon="1.88045">
        <ele>269</ele>
        <time>2020-10-04T13:31:18.729Z</time>
      </trkpt>
      <trkpt lat="44.03784" lon="1.88044">
        <ele>269</ele>
        <time>2020-10-04T13:31:19.729Z</time>
      </trkpt>
      <trkpt lat="44.03783" lon="1.88043">
        <ele>269</ele>
        <time>2020-10-04T13:31:20.729Z</time>
      </trkpt>
      <trkpt lat="44.03782" lon="1.88043">
        <ele>269</ele>
        <time>2020-10-04T13:31:21.729Z</time>
      </trkpt>
      <trkpt lat="44.03781" lon="1.88042">
        <ele>268</ele>
        <time>2020-10-04T13:31:22.729Z</time>
      </trkpt>
      <trkpt lat="44.0378" lon="1.88041">
        <ele>268</ele>
        <time>2020-10-04T13:31:23.729Z</time>
      </trkpt>
      <trkpt lat="44.03779" lon="1.88041">
        <ele>268</ele>
        <time>2020-10-04T13:31:24.729Z</time>
      </trkpt>
      <trkpt lat="44.03778" lon="1.8804">
        <ele>268</ele>
        <time>2020-10-04T13:31:25.729Z</time>
      </trkpt>
      <trkpt lat="44.03777" lon="1.88039">
        <ele>268</ele>
        <time>2020-10-04T13:31:26.729Z</time>
      </trkpt>
      <trkpt lat="44.03776" lon="1.88038">
        <ele>268</ele>
        <time>2020-10-04T13:31:27.729Z</time>
      </trkpt>
      <trkpt lat="44.03775" lon="1.88037">
        <ele>267</ele>
        <time>2020-10-04T13:31:28.729Z</time>
      </trkpt>
      <trkpt lat="44.03774" lon="1.88037">
        <ele>267</ele>
        <time>2020-10-04T13:31:29.729Z</time>
      </trkpt>
      <trkpt lat="44.03773" lon="1.88036">
        <ele>267</ele>
        <time>2020-10-04T13:31:30.729Z</time>
      </trkpt>
      <trkpt lat="44.03772" lon="1.88035">
        <ele>267</ele>
        <time>2020-10-04T13:31:31.729Z</time>
      </trkpt>
      <trkpt lat="44.03771" lon="1.88034">
        <ele>267</ele>
        <time>2020-10-04T13:31:32.729Z</time>
      </trkpt>
      <trkpt lat="44.0377" lon="1.88033">
        <ele>267</ele>
        <time>2020-10-04T13:31:33.729Z</time>
      </trkpt>
      <trkpt lat="44.03769" lon="1.88032">
        <ele>267</ele>
        <time>2020-10-04T13:31:34.729Z</time>
      </trkpt>
      <trkpt lat="44.03768" lon="1.88032">
        <ele>267</ele>
        <time>2020-10-04T13:31:35.729Z</time>
      </trkpt>
      <trkpt lat="44.03766" lon="1.88031">
        <ele>267</ele>
        <time>2020-10-04T13:31:36.729Z</time>
      </trkpt>
      <trkpt lat="44.03765" lon="1.8803">
        <ele>267</ele>
        <time>2020-10-04T13:31:37.729Z</time>
      </trkpt>
      <trkpt lat="44.03764" lon="1.88029">
        <ele>267</ele>
        <time>2020-10-04T13:31:38.729Z</time>
      </trkpt>
      <trkpt lat="44.03763" lon="1.88028">
        <ele>267</ele>
        <time>2020-10-04T13:31:39.729Z</time>
      </trkpt>
      <trkpt lat="44.03762" lon="1.88028">
        <ele>266</ele>
        <time>2020-10-04T13:31:40.729Z</time>
      </trkpt>
      <trkpt lat="44.03761" lon="1.88027">
        <ele>266</ele>
        <time>2020-10-04T13:31:41.729Z</time>
      </trkpt>
      <trkpt lat="44.0376" lon="1.88026">
        <ele>266</ele>
        <time>2020-10-04T13:31:42.729Z</time>
      </trkpt>
      <trkpt lat="44.03759" lon="1.88025">
        <ele>266</ele>
        <time>2020-10-04T13:31:43.729Z</time>
      </trkpt>
      <trkpt lat="44.03758" lon="1.88024">
        <ele>266</ele>
        <time>2020-10-04T13:31:44.729Z</time>
      </trkpt>
      <trkpt lat="44.03757" lon="1.88024">
        <ele>266</ele>
        <time>2020-10-04T13:31:45.729Z</time>
      </trkpt>
      <trkpt lat="44.03756" lon="1.88023">
        <ele>266</ele>
        <time>2020-10-04T13:31:46.729Z</time>
      </trkpt>
      <trkpt lat="44.03755" lon="1.88023">
        <ele>266</ele>
        <time>2020-10-04T13:31:47.729Z</time>
      </trkpt>
      <trkpt lat="44.03753" lon="1.88022">
        <ele>266</ele>
        <time>2020-10-04T13:31:48.729Z</time>
      </trkpt>
      <trkpt lat="44.03752" lon="1.88021">
        <ele>266</ele>
        <time>2020-10-04T13:31:49.729Z</time>
      </trkpt>
      <trkpt lat="44.03751" lon="1.88021">
        <ele>266</ele>
        <time>2020-10-04T13:31:50.729Z</time>
      </trkpt>
      <trkpt lat="44.0375" lon="1.8802">
        <ele>266</ele>
        <time>2020-10-04T13:31:51.729Z</time>
      </trkpt>
      <trkpt lat="44.03749" lon="1.88019">
        <ele>265</ele>
        <time>2020-10-04T13:31:52.729Z</time>
      </trkpt>
      <trkpt lat="44.03748" lon="1.88018">
        <ele>265</ele>
        <time>2020-10-04T13:31:53.729Z</time>
      </trkpt>
      <trkpt lat="44.03747" lon="1.88018">
        <ele>265</ele>
        <time>2020-10-04T13:31:54.729Z</time>
      </trkpt>
      <trkpt lat="44.03746" lon="1.88017">
        <ele>265</ele>
        <time>2020-10-04T13:31:55.729Z</time>
      </trkpt>
      <trkpt lat="44.03745" lon="1.88016">
        <ele>265</ele>
        <time>2020-10-04T13:31:56.729Z</time>
      </trkpt>
      <trkpt lat="44.03744" lon="1.88016">
        <ele>266</ele>
        <time>2020-10-04T13:31:57.729Z</time>
      </trkpt>
      <trkpt lat="44.03743" lon="1.88015">
        <ele>265</ele>
        <time>2020-10-04T13:31:58.729Z</time>
      </trkpt>
      <trkpt lat="44.03742" lon="1.88014">
        <ele>265</ele>
        <time>2020-10-04T13:31:59.729Z</time>
      </trkpt>
      <trkpt lat="44.03741" lon="1.88014">
        <ele>265</ele>
        <time>2020-10-04T13:32:00.729Z</time>
      </trkpt>
      <trkpt lat="44.0374" lon="1.88013">
        <ele>265</ele>
        <time>2020-10-04T13:32:01.729Z</time>
      </trkpt>
      <trkpt lat="44.03739" lon="1.88013">
        <ele>265</ele>
        <time>2020-10-04T13:32:02.729Z</time>
      </trkpt>
      <trkpt lat="44.03738" lon="1.88012">
        <ele>265</ele>
        <time>2020-10-04T13:32:03.729Z</time>
      </trkpt>
      <trkpt lat="44.03737" lon="1.88011">
        <ele>265</ele>
        <time>2020-10-04T13:32:04.729Z</time>
      </trkpt>
      <trkpt lat="44.03736" lon="1.88011">
        <ele>265</ele>
        <time>2020-10-04T13:32:05.729Z</time>
      </trkpt>
      <trkpt lat="44.03734" lon="1.8801">
        <ele>265</ele>
        <time>2020-10-04T13:32:06.729Z</time>
      </trkpt>
      <trkpt lat="44.03733" lon="1.88009">
        <ele>265</ele>
        <time>2020-10-04T13:32:07.729Z</time>
      </trkpt>
      <trkpt lat="44.03732" lon="1.88008">
        <ele>265</ele>
        <time>2020-10-04T13:32:08.729Z</time>
      </trkpt>
      <trkpt lat="44.03731" lon="1.88008">
        <ele>265</ele>
        <time>2020-10-04T13:32:09.729Z</time>
      </trkpt>
      <trkpt lat="44.0373" lon="1.88007">
        <ele>265</ele>
        <time>2020-10-04T13:32:10.729Z</time>
      </trkpt>
      <trkpt lat="44.03729" lon="1.88006">
        <ele>265</ele>
        <time>2020-10-04T13:32:11.729Z</time>
      </trkpt>
      <trkpt lat="44.03727" lon="1.88005">
        <ele>265</ele>
        <time>2020-10-04T13:32:12.729Z</time>
      </trkpt>
      <trkpt lat="44.03726" lon="1.88004">
        <ele>265</ele>
        <time>2020-10-04T13:32:13.729Z</time>
      </trkpt>
      <trkpt lat="44.03725" lon="1.88004">
        <ele>265</ele>
        <time>2020-10-04T13:32:14.729Z</time>
      </trkpt>
      <trkpt lat="44.03724" lon="1.88003">
        <ele>265</ele>
        <time>2020-10-04T13:32:15.729Z</time>
      </trkpt>
      <trkpt lat="44.03723" lon="1.88002">
        <ele>265</ele>
        <time>2020-10-04T13:32:16.729Z</time>
      </trkpt>
      <trkpt lat="44.03722" lon="1.88001">
        <ele>265</ele>
        <time>2020-10-04T13:32:17.729Z</time>
      </trkpt>
      <trkpt lat="44.03721" lon="1.88">
        <ele>265</ele>
        <time>2020-10-04T13:32:18.729Z</time>
      </trkpt>
      <trkpt lat="44.03719" lon="1.88">
        <ele>265</ele>
        <time>2020-10-04T13:32:19.729Z</time>
      </trkpt>
      <trkpt lat="44.03718" lon="1.87999">
        <ele>265</ele>
        <time>2020-10-04T13:32:20.729Z</time>
      </trkpt>
      <trkpt lat="44.03717" lon="1.87998">
        <ele>265</ele>
        <time>2020-10-04T13:32:21.729Z</time>
      </trkpt>
      <trkpt lat="44.03716" lon="1.87997">
        <ele>265</ele>
        <time>2020-10-04T13:32:22.729Z</time>
      </trkpt>
      <trkpt lat="44.03715" lon="1.87997">
        <ele>265</ele>
        <time>2020-10-04T13:32:23.729Z</time>
      </trkpt>
      <trkpt lat="44.03714" lon="1.87996">
        <ele>265</ele>
        <time>2020-10-04T13:32:24.729Z</time>
      </trkpt>
      <trkpt lat="44.03713" lon="1.87995">
        <ele>265</ele>
        <time>2020-10-04T13:32:25.729Z</time>
      </trkpt>
      <trkpt lat="44.03712" lon="1.87994">
        <ele>265</ele>
        <time>2020-10-04T13:32:26.729Z</time>
      </trkpt>
      <trkpt lat="44.03711" lon="1.87994">
        <ele>265</ele>
        <time>2020-10-04T13:32:27.729Z</time>
      </trkpt>
      <trkpt lat="44.0371" lon="1.87994">
        <ele>265</ele>
        <time>2020-10-04T13:32:28.729Z</time>
      </trkpt>
      <trkpt lat="44.03708" lon="1.87993">
        <ele>265</ele>
        <time>2020-10-04T13:32:29.729Z</time>
      </trkpt>
      <trkpt lat="44.03707" lon="1.87992">
        <ele>265</ele>
        <time>2020-10-04T13:32:30.729Z</time>
      </trkpt>
      <trkpt lat="44.03706" lon="1.87992">
        <ele>265</ele>
        <time>2020-10-04T13:32:31.729Z</time>
      </trkpt>
      <trkpt lat="44.03706" lon="1.87992">
        <ele>265</ele>
        <time>2020-10-04T13:32:32.729Z</time>
      </trkpt>
      <trkpt lat="44.03705" lon="1.87991">
        <ele>265</ele>
        <time>2020-10-04T13:32:33.729Z</time>
      </trkpt>
      <trkpt lat="44.03703" lon="1.87991">
        <ele>265</ele>
        <time>2020-10-04T13:32:34.729Z</time>
      </trkpt>
      <trkpt lat="44.03702" lon="1.8799">
        <ele>265</ele>
        <time>2020-10-04T13:32:35.729Z</time>
      </trkpt>
      <trkpt lat="44.03701" lon="1.8799">
        <ele>265</ele>
        <time>2020-10-04T13:32:36.729Z</time>
      </trkpt>
      <trkpt lat="44.037" lon="1.87989">
        <ele>265</ele>
        <time>2020-10-04T13:32:37.729Z</time>
      </trkpt>
      <trkpt lat="44.03699" lon="1.87989">
        <ele>265</ele>
        <time>2020-10-04T13:32:38.729Z</time>
      </trkpt>
      <trkpt lat="44.03698" lon="1.87989">
        <ele>265</ele>
        <time>2020-10-04T13:32:39.729Z</time>
      </trkpt>
      <trkpt lat="44.03697" lon="1.87988">
        <ele>265</ele>
        <time>2020-10-04T13:32:40.729Z</time>
      </trkpt>
      <trkpt lat="44.03695" lon="1.87988">
        <ele>265</ele>
        <time>2020-10-04T13:32:41.729Z</time>
      </trkpt>
      <trkpt lat="44.03694" lon="1.87987">
        <ele>265</ele>
        <time>2020-10-04T13:32:42.729Z</time>
      </trkpt>
      <trkpt lat="44.03693" lon="1.87987">
        <ele>265</ele>
        <time>2020-10-04T13:32:43.729Z</time>
      </trkpt>
      <trkpt lat="44.03692" lon="1.87986">
        <ele>265</ele>
        <time>2020-10-04T13:32:44.729Z</time>
      </trkpt>
      <trkpt lat="44.03691" lon="1.87986">
        <ele>265</ele>
        <time>2020-10-04T13:32:45.729Z</time>
      </trkpt>
      <trkpt lat="44.0369" lon="1.87986">
        <ele>265</ele>
        <time>2020-10-04T13:32:46.729Z</time>
      </trkpt>
      <trkpt lat="44.03689" lon="1.87985">
        <ele>265</ele>
        <time>2020-10-04T13:32:47.729Z</time>
      </trkpt>
      <trkpt lat="44.03687" lon="1.87984">
        <ele>265</ele>
        <time>2020-10-04T13:32:48.729Z</time>
      </trkpt>
      <trkpt lat="44.03686" lon="1.87984">
        <ele>265</ele>
        <time>2020-10-04T13:32:49.729Z</time>
      </trkpt>
      <trkpt lat="44.03685" lon="1.87983">
        <ele>265</ele>
        <time>2020-10-04T13:32:50.729Z</time>
      </trkpt>
      <trkpt lat="44.03684" lon="1.87983">
        <ele>264</ele>
        <time>2020-10-04T13:32:51.729Z</time>
      </trkpt>
      <trkpt lat="44.03683" lon="1.87982">
        <ele>264</ele>
        <time>2020-10-04T13:32:52.729Z</time>
      </trkpt>
      <trkpt lat="44.03681" lon="1.87982">
        <ele>264</ele>
        <time>2020-10-04T13:32:53.729Z</time>
      </trkpt>
      <trkpt lat="44.0368" lon="1.87981">
        <ele>264</ele>
        <time>2020-10-04T13:32:54.729Z</time>
      </trkpt>
      <trkpt lat="44.03679" lon="1.87981">
        <ele>264</ele>
        <time>2020-10-04T13:32:55.729Z</time>
      </trkpt>
      <trkpt lat="44.03678" lon="1.8798">
        <ele>263</ele>
        <time>2020-10-04T13:32:56.729Z</time>
      </trkpt>
      <trkpt lat="44.03677" lon="1.87979">
        <ele>263</ele>
        <time>2020-10-04T13:32:57.729Z</time>
      </trkpt>
      <trkpt lat="44.03676" lon="1.87979">
        <ele>263</ele>
        <time>2020-10-04T13:32:58.729Z</time>
      </trkpt>
      <trkpt lat="44.03674" lon="1.87978">
        <ele>263</ele>
        <time>2020-10-04T13:32:59.729Z</time>
      </trkpt>
      <trkpt lat="44.03673" lon="1.87978">
        <ele>263</ele>
        <time>2020-10-04T13:33:00.729Z</time>
      </trkpt>
      <trkpt lat="44.03672" lon="1.87977">
        <ele>263</ele>
        <time>2020-10-04T13:33:01.729Z</time>
      </trkpt>
      <trkpt lat="44.03671" lon="1.87977">
        <ele>263</ele>
        <time>2020-10-04T13:33:02.729Z</time>
      </trkpt>
      <trkpt lat="44.0367" lon="1.87976">
        <ele>263</ele>
        <time>2020-10-04T13:33:03.729Z</time>
      </trkpt>
      <trkpt lat="44.03669" lon="1.87976">
        <ele>263</ele>
        <time>2020-10-04T13:33:04.729Z</time>
      </trkpt>
      <trkpt lat="44.03668" lon="1.87975">
        <ele>263</ele>
        <time>2020-10-04T13:33:05.729Z</time>
      </trkpt>
      <trkpt lat="44.03666" lon="1.87975">
        <ele>263</ele>
        <time>2020-10-04T13:33:06.729Z</time>
      </trkpt>
      <trkpt lat="44.03665" lon="1.87975">
        <ele>262</ele>
        <time>2020-10-04T13:33:07.729Z</time>
      </trkpt>
      <trkpt lat="44.03664" lon="1.87975">
        <ele>262</ele>
        <time>2020-10-04T13:33:08.729Z</time>
      </trkpt>
      <trkpt lat="44.03663" lon="1.87974">
        <ele>262</ele>
        <time>2020-10-04T13:33:09.729Z</time>
      </trkpt>
      <trkpt lat="44.03662" lon="1.87974">
        <ele>262</ele>
        <time>2020-10-04T13:33:10.729Z</time>
      </trkpt>
      <trkpt lat="44.03661" lon="1.87974">
        <ele>262</ele>
        <time>2020-10-04T13:33:11.729Z</time>
      </trkpt>
      <trkpt lat="44.0366" lon="1.87973">
        <ele>262</ele>
        <time>2020-10-04T13:33:12.729Z</time>
      </trkpt>
      <trkpt lat="44.03658" lon="1.87973">
        <ele>262</ele>
        <time>2020-10-04T13:33:13.729Z</time>
      </trkpt>
      <trkpt lat="44.03657" lon="1.87972">
        <ele>262</ele>
        <time>2020-10-04T13:33:14.729Z</time>
      </trkpt>
      <trkpt lat="44.03656" lon="1.87972">
        <ele>261</ele>
        <time>2020-10-04T13:33:15.729Z</time>
      </trkpt>
      <trkpt lat="44.03655" lon="1.87972">
        <ele>261</ele>
        <time>2020-10-04T13:33:16.729Z</time>
      </trkpt>
      <trkpt lat="44.03654" lon="1.87972">
        <ele>261</ele>
        <time>2020-10-04T13:33:17.729Z</time>
      </trkpt>
      <trkpt lat="44.03653" lon="1.87972">
        <ele>261</ele>
        <time>2020-10-04T13:33:18.729Z</time>
      </trkpt>
      <trkpt lat="44.03652" lon="1.87972">
        <ele>261</ele>
        <time>2020-10-04T13:33:19.729Z</time>
      </trkpt>
      <trkpt lat="44.03651" lon="1.87971">
        <ele>261</ele>
        <time>2020-10-04T13:33:20.729Z</time>
      </trkpt>
      <trkpt lat="44.0365" lon="1.87971">
        <ele>261</ele>
        <time>2020-10-04T13:33:21.729Z</time>
      </trkpt>
      <trkpt lat="44.03649" lon="1.87971">
        <ele>261</ele>
        <time>2020-10-04T13:33:22.729Z</time>
      </trkpt>
      <trkpt lat="44.03648" lon="1.87971">
        <ele>261</ele>
        <time>2020-10-04T13:33:23.729Z</time>
      </trkpt>
      <trkpt lat="44.03647" lon="1.87971">
        <ele>261</ele>
        <time>2020-10-04T13:33:24.729Z</time>
      </trkpt>
      <trkpt lat="44.03645" lon="1.8797">
        <ele>261</ele>
        <time>2020-10-04T13:33:25.729Z</time>
      </trkpt>
      <trkpt lat="44.03644" lon="1.8797">
        <ele>261</ele>
        <time>2020-10-04T13:33:26.729Z</time>
      </trkpt>
      <trkpt lat="44.03643" lon="1.8797">
        <ele>261</ele>
        <time>2020-10-04T13:33:27.729Z</time>
      </trkpt>
      <trkpt lat="44.03642" lon="1.87969">
        <ele>261</ele>
        <time>2020-10-04T13:33:28.729Z</time>
      </trkpt>
      <trkpt lat="44.03641" lon="1.87969">
        <ele>260</ele>
        <time>2020-10-04T13:33:29.729Z</time>
      </trkpt>
      <trkpt lat="44.0364" lon="1.87969">
        <ele>260</ele>
        <time>2020-10-04T13:33:30.729Z</time>
      </trkpt>
      <trkpt lat="44.03639" lon="1.87969">
        <ele>260</ele>
        <time>2020-10-04T13:33:31.729Z</time>
      </trkpt>
      <trkpt lat="44.03637" lon="1.87968">
        <ele>260</ele>
        <time>2020-10-04T13:33:32.729Z</time>
      </trkpt>
      <trkpt lat="44.03636" lon="1.87968">
        <ele>260</ele>
        <time>2020-10-04T13:33:33.729Z</time>
      </trkpt>
      <trkpt lat="44.03635" lon="1.87968">
        <ele>260</ele>
        <time>2020-10-04T13:33:34.729Z</time>
      </trkpt>
      <trkpt lat="44.03634" lon="1.87968">
        <ele>260</ele>
        <time>2020-10-04T13:33:35.729Z</time>
      </trkpt>
      <trkpt lat="44.03633" lon="1.87968">
        <ele>260</ele>
        <time>2020-10-04T13:33:36.729Z</time>
      </trkpt>
      <trkpt lat="44.03631" lon="1.87967">
        <ele>260</ele>
        <time>2020-10-04T13:33:37.729Z</time>
      </trkpt>
      <trkpt lat="44.0363" lon="1.87967">
        <ele>260</ele>
        <time>2020-10-04T13:33:38.729Z</time>
      </trkpt>
      <trkpt lat="44.03629" lon="1.87968">
        <ele>260</ele>
        <time>2020-10-04T13:33:39.729Z</time>
      </trkpt>
      <trkpt lat="44.03628" lon="1.87967">
        <ele>260</ele>
        <time>2020-10-04T13:33:40.729Z</time>
      </trkpt>
      <trkpt lat="44.03626" lon="1.87968">
        <ele>260</ele>
        <time>2020-10-04T13:33:41.729Z</time>
      </trkpt>
      <trkpt lat="44.03625" lon="1.87968">
        <ele>260</ele>
        <time>2020-10-04T13:33:42.729Z</time>
      </trkpt>
      <trkpt lat="44.03624" lon="1.87968">
        <ele>259</ele>
        <time>2020-10-04T13:33:43.729Z</time>
      </trkpt>
      <trkpt lat="44.03623" lon="1.87967">
        <ele>259</ele>
        <time>2020-10-04T13:33:44.729Z</time>
      </trkpt>
      <trkpt lat="44.03622" lon="1.87967">
        <ele>259</ele>
        <time>2020-10-04T13:33:45.729Z</time>
      </trkpt>
      <trkpt lat="44.03621" lon="1.87967">
        <ele>259</ele>
        <time>2020-10-04T13:33:46.729Z</time>
      </trkpt>
      <trkpt lat="44.0362" lon="1.87968">
        <ele>259</ele>
        <time>2020-10-04T13:33:47.729Z</time>
      </trkpt>
      <trkpt lat="44.03619" lon="1.87968">
        <ele>259</ele>
        <time>2020-10-04T13:33:48.729Z</time>
      </trkpt>
      <trkpt lat="44.03618" lon="1.87968">
        <ele>259</ele>
        <time>2020-10-04T13:33:49.729Z</time>
      </trkpt>
      <trkpt lat="44.03617" lon="1.87969">
        <ele>259</ele>
        <time>2020-10-04T13:33:50.729Z</time>
      </trkpt>
      <trkpt lat="44.03616" lon="1.87969">
        <ele>259</ele>
        <time>2020-10-04T13:33:51.729Z</time>
      </trkpt>
      <trkpt lat="44.03615" lon="1.87969">
        <ele>259</ele>
        <time>2020-10-04T13:33:52.729Z</time>
      </trkpt>
      <trkpt lat="44.03614" lon="1.87969">
        <ele>258</ele>
        <time>2020-10-04T13:33:53.729Z</time>
      </trkpt>
      <trkpt lat="44.03613" lon="1.87969">
        <ele>258</ele>
        <time>2020-10-04T13:33:54.729Z</time>
      </trkpt>
      <trkpt lat="44.03612" lon="1.8797">
        <ele>258</ele>
        <time>2020-10-04T13:33:55.729Z</time>
      </trkpt>
      <trkpt lat="44.03611" lon="1.8797">
        <ele>258</ele>
        <time>2020-10-04T13:33:56.729Z</time>
      </trkpt>
      <trkpt lat="44.03609" lon="1.8797">
        <ele>258</ele>
        <time>2020-10-04T13:33:57.729Z</time>
      </trkpt>
      <trkpt lat="44.03608" lon="1.87971">
        <ele>258</ele>
        <time>2020-10-04T13:33:58.729Z</time>
      </trkpt>
      <trkpt lat="44.03607" lon="1.87971">
        <ele>258</ele>
        <time>2020-10-04T13:33:59.729Z</time>
      </trkpt>
      <trkpt lat="44.03606" lon="1.87971">
        <ele>258</ele>
        <time>2020-10-04T13:34:00.729Z</time>
      </trkpt>
      <trkpt lat="44.03605" lon="1.87971">
        <ele>258</ele>
        <time>2020-10-04T13:34:01.729Z</time>
      </trkpt>
      <trkpt lat="44.03604" lon="1.87971">
        <ele>257</ele>
        <time>2020-10-04T13:34:02.729Z</time>
      </trkpt>
      <trkpt lat="44.03603" lon="1.87972">
        <ele>257</ele>
        <time>2020-10-04T13:34:03.729Z</time>
      </trkpt>
      <trkpt lat="44.03602" lon="1.87972">
        <ele>257</ele>
        <time>2020-10-04T13:34:04.729Z</time>
      </trkpt>
      <trkpt lat="44.036" lon="1.87972">
        <ele>257</ele>
        <time>2020-10-04T13:34:05.729Z</time>
      </trkpt>
      <trkpt lat="44.03599" lon="1.87973">
        <ele>257</ele>
        <time>2020-10-04T13:34:06.729Z</time>
      </trkpt>
      <trkpt lat="44.03598" lon="1.87973">
        <ele>257</ele>
        <time>2020-10-04T13:34:07.729Z</time>
      </trkpt>
      <trkpt lat="44.03597" lon="1.87973">
        <ele>257</ele>
        <time>2020-10-04T13:34:08.729Z</time>
      </trkpt>
      <trkpt lat="44.03596" lon="1.87973">
        <ele>257</ele>
        <time>2020-10-04T13:34:09.729Z</time>
      </trkpt>
      <trkpt lat="44.03595" lon="1.87973">
        <ele>257</ele>
        <time>2020-10-04T13:34:10.729Z</time>
      </trkpt>
      <trkpt lat="44.03594" lon="1.87973">
        <ele>257</ele>
        <time>2020-10-04T13:34:11.729Z</time>
      </trkpt>
      <trkpt lat="44.03593" lon="1.87973">
        <ele>257</ele>
        <time>2020-10-04T13:34:12.729Z</time>
      </trkpt>
      <trkpt lat="44.03592" lon="1.87973">
        <ele>257</ele>
        <time>2020-10-04T13:34:13.729Z</time>
      </trkpt>
      <trkpt lat="44.03591" lon="1.87973">
        <ele>257</ele>
        <time>2020-10-04T13:34:14.729Z</time>
      </trkpt>
      <trkpt lat="44.0359" lon="1.87973">
        <ele>257</ele>
        <time>2020-10-04T13:34:15.729Z</time>
      </trkpt>
      <trkpt lat="44.03589" lon="1.87973">
        <ele>257</ele>
        <time>2020-10-04T13:34:16.729Z</time>
      </trkpt>
      <trkpt lat="44.03588" lon="1.87973">
        <ele>257</ele>
        <time>2020-10-04T13:34:17.729Z</time>
      </trkpt>
      <trkpt lat="44.03587" lon="1.87973">
        <ele>257</ele>
        <time>2020-10-04T13:34:18.729Z</time>
      </trkpt>
      <trkpt lat="44.03586" lon="1.87973">
        <ele>257</ele>
        <time>2020-10-04T13:34:19.729Z</time>
      </trkpt>
      <trkpt lat="44.03585" lon="1.87972">
        <ele>257</ele>
        <time>2020-10-04T13:34:20.729Z</time>
      </trkpt>
      <trkpt lat="44.03584" lon="1.87972">
        <ele>257</ele>
        <time>2020-10-04T13:34:21.729Z</time>
      </trkpt>
      <trkpt lat="44.03582" lon="1.87972">
        <ele>257</ele>
        <time>2020-10-04T13:34:22.729Z</time>
      </trkpt>
      <trkpt lat="44.03581" lon="1.87972">
        <ele>257</ele>
        <time>2020-10-04T13:34:23.729Z</time>
      </trkpt>
      <trkpt lat="44.0358" lon="1.87971">
        <ele>257</ele>
        <time>2020-10-04T13:34:24.729Z</time>
      </trkpt>
      <trkpt lat="44.03578" lon="1.87971">
        <ele>257</ele>
        <time>2020-10-04T13:34:25.729Z</time>
      </trkpt>
      <trkpt lat="44.03577" lon="1.87971">
        <ele>257</ele>
        <time>2020-10-04T13:34:26.729Z</time>
      </trkpt>
      <trkpt lat="44.03576" lon="1.87971">
        <ele>257</ele>
        <time>2020-10-04T13:34:27.729Z</time>
      </trkpt>
      <trkpt lat="44.03575" lon="1.87971">
        <ele>257</ele>
        <time>2020-10-04T13:34:28.729Z</time>
      </trkpt>
      <trkpt lat="44.03574" lon="1.87971">
        <ele>257</ele>
        <time>2020-10-04T13:34:29.729Z</time>
      </trkpt>
      <trkpt lat="44.03572" lon="1.87971">
        <ele>257</ele>
        <time>2020-10-04T13:34:30.729Z</time>
      </trkpt>
      <trkpt lat="44.03571" lon="1.87971">
        <ele>257</ele>
        <time>2020-10-04T13:34:31.729Z</time>
      </trkpt>
      <trkpt lat="44.0357" lon="1.87971">
        <ele>257</ele>
        <time>2020-10-04T13:34:32.729Z</time>
      </trkpt>
      <trkpt lat="44.03569" lon="1.8797">
        <ele>257</ele>
        <time>2020-10-04T13:34:33.729Z</time>
      </trkpt>
      <trkpt lat="44.03567" lon="1.8797">
        <ele>257</ele>
        <time>2020-10-04T13:34:34.729Z</time>
      </trkpt>
      <trkpt lat="44.03566" lon="1.8797">
        <ele>257</ele>
        <time>2020-10-04T13:34:35.729Z</time>
      </trkpt>
      <trkpt lat="44.03565" lon="1.8797">
        <ele>257</ele>
        <time>2020-10-04T13:34:36.729Z</time>
      </trkpt>
      <trkpt lat="44.03564" lon="1.87969">
        <ele>257</ele>
        <time>2020-10-04T13:34:37.729Z</time>
      </trkpt>
      <trkpt lat="44.03563" lon="1.87968">
        <ele>257</ele>
        <time>2020-10-04T13:34:38.729Z</time>
      </trkpt>
      <trkpt lat="44.03562" lon="1.87968">
        <ele>257</ele>
        <time>2020-10-04T13:34:39.729Z</time>
      </trkpt>
      <trkpt lat="44.03561" lon="1.87968">
        <ele>257</ele>
        <time>2020-10-04T13:34:40.729Z</time>
      </trkpt>
      <trkpt lat="44.0356" lon="1.87967">
        <ele>257</ele>
        <time>2020-10-04T13:34:41.729Z</time>
      </trkpt>
      <trkpt lat="44.03559" lon="1.87967">
        <ele>257</ele>
        <time>2020-10-04T13:34:42.729Z</time>
      </trkpt>
      <trkpt lat="44.03558" lon="1.87966">
        <ele>257</ele>
        <time>2020-10-04T13:34:43.729Z</time>
      </trkpt>
      <trkpt lat="44.03557" lon="1.87966">
        <ele>257</ele>
        <time>2020-10-04T13:34:44.729Z</time>
      </trkpt>
      <trkpt lat="44.03556" lon="1.87966">
        <ele>257</ele>
        <time>2020-10-04T13:34:45.729Z</time>
      </trkpt>
      <trkpt lat="44.03555" lon="1.87965">
        <ele>257</ele>
        <time>2020-10-04T13:34:46.729Z</time>
      </trkpt>
      <trkpt lat="44.03554" lon="1.87965">
        <ele>257</ele>
        <time>2020-10-04T13:34:47.729Z</time>
      </trkpt>
      <trkpt lat="44.03553" lon="1.87965">
        <ele>257</ele>
        <time>2020-10-04T13:34:48.729Z</time>
      </trkpt>
      <trkpt lat="44.03552" lon="1.87964">
        <ele>257</ele>
        <time>2020-10-04T13:34:49.729Z</time>
      </trkpt>
      <trkpt lat="44.0355" lon="1.87964">
        <ele>257</ele>
        <time>2020-10-04T13:34:50.729Z</time>
      </trkpt>
      <trkpt lat="44.03549" lon="1.87964">
        <ele>257</ele>
        <time>2020-10-04T13:34:51.729Z</time>
      </trkpt>
      <trkpt lat="44.03548" lon="1.87963">
        <ele>257</ele>
        <time>2020-10-04T13:34:52.729Z</time>
      </trkpt>
      <trkpt lat="44.03547" lon="1.87963">
        <ele>257</ele>
        <time>2020-10-04T13:34:53.729Z</time>
      </trkpt>
      <trkpt lat="44.03546" lon="1.87962">
        <ele>256</ele>
        <time>2020-10-04T13:34:54.729Z</time>
      </trkpt>
      <trkpt lat="44.03545" lon="1.87962">
        <ele>256</ele>
        <time>2020-10-04T13:34:55.729Z</time>
      </trkpt>
      <trkpt lat="44.03544" lon="1.87962">
        <ele>257</ele>
        <time>2020-10-04T13:34:56.729Z</time>
      </trkpt>
      <trkpt lat="44.03543" lon="1.87962">
        <ele>257</ele>
        <time>2020-10-04T13:34:57.729Z</time>
      </trkpt>
      <trkpt lat="44.03542" lon="1.87961">
        <ele>257</ele>
        <time>2020-10-04T13:34:58.729Z</time>
      </trkpt>
      <trkpt lat="44.03541" lon="1.87961">
        <ele>257</ele>
        <time>2020-10-04T13:34:59.729Z</time>
      </trkpt>
      <trkpt lat="44.0354" lon="1.87961">
        <ele>257</ele>
        <time>2020-10-04T13:35:00.729Z</time>
      </trkpt>
      <trkpt lat="44.03539" lon="1.87961">
        <ele>257</ele>
        <time>2020-10-04T13:35:01.729Z</time>
      </trkpt>
      <trkpt lat="44.03537" lon="1.87961">
        <ele>257</ele>
        <time>2020-10-04T13:35:02.729Z</time>
      </trkpt>
      <trkpt lat="44.03536" lon="1.8796">
        <ele>257</ele>
        <time>2020-10-04T13:35:03.729Z</time>
      </trkpt>
      <trkpt lat="44.03535" lon="1.8796">
        <ele>257</ele>
        <time>2020-10-04T13:35:04.729Z</time>
      </trkpt>
      <trkpt lat="44.03534" lon="1.8796">
        <ele>257</ele>
        <time>2020-10-04T13:35:05.729Z</time>
      </trkpt>
      <trkpt lat="44.03533" lon="1.8796">
        <ele>257</ele>
        <time>2020-10-04T13:35:06.729Z</time>
      </trkpt>
      <trkpt lat="44.03532" lon="1.8796">
        <ele>257</ele>
        <time>2020-10-04T13:35:07.729Z</time>
      </trkpt>
      <trkpt lat="44.03531" lon="1.8796">
        <ele>257</ele>
        <time>2020-10-04T13:35:08.729Z</time>
      </trkpt>
      <trkpt lat="44.0353" lon="1.8796">
        <ele>257</ele>
        <time>2020-10-04T13:35:09.729Z</time>
      </trkpt>
      <trkpt lat="44.03529" lon="1.8796">
        <ele>257</ele>
        <time>2020-10-04T13:35:10.729Z</time>
      </trkpt>
      <trkpt lat="44.03528" lon="1.87959">
        <ele>257</ele>
        <time>2020-10-04T13:35:11.729Z</time>
      </trkpt>
      <trkpt lat="44.03527" lon="1.87959">
        <ele>257</ele>
        <time>2020-10-04T13:35:12.729Z</time>
      </trkpt>
      <trkpt lat="44.03526" lon="1.87959">
        <ele>257</ele>
        <time>2020-10-04T13:35:13.729Z</time>
      </trkpt>
      <trkpt lat="44.03524" lon="1.87959">
        <ele>257</ele>
        <time>2020-10-04T13:35:14.729Z</time>
      </trkpt>
      <trkpt lat="44.03523" lon="1.87958">
        <ele>257</ele>
        <time>2020-10-04T13:35:15.729Z</time>
      </trkpt>
      <trkpt lat="44.03522" lon="1.87958">
        <ele>257</ele>
        <time>2020-10-04T13:35:16.729Z</time>
      </trkpt>
      <trkpt lat="44.03521" lon="1.87958">
        <ele>257</ele>
        <time>2020-10-04T13:35:17.729Z</time>
      </trkpt>
      <trkpt lat="44.0352" lon="1.87957">
        <ele>257</ele>
        <time>2020-10-04T13:35:18.729Z</time>
      </trkpt>
      <trkpt lat="44.03519" lon="1.87957">
        <ele>257</ele>
        <time>2020-10-04T13:35:19.729Z</time>
      </trkpt>
      <trkpt lat="44.03518" lon="1.87956">
        <ele>257</ele>
        <time>2020-10-04T13:35:20.729Z</time>
      </trkpt>
      <trkpt lat="44.03517" lon="1.87956">
        <ele>257</ele>
        <time>2020-10-04T13:35:21.729Z</time>
      </trkpt>
      <trkpt lat="44.03516" lon="1.87955">
        <ele>257</ele>
        <time>2020-10-04T13:35:22.729Z</time>
      </trkpt>
      <trkpt lat="44.03515" lon="1.87955">
        <ele>257</ele>
        <time>2020-10-04T13:35:23.729Z</time>
      </trkpt>
      <trkpt lat="44.03514" lon="1.87954">
        <ele>257</ele>
        <time>2020-10-04T13:35:24.729Z</time>
      </trkpt>
      <trkpt lat="44.03513" lon="1.87953">
        <ele>257</ele>
        <time>2020-10-04T13:35:25.729Z</time>
      </trkpt>
      <trkpt lat="44.03512" lon="1.87953">
        <ele>257</ele>
        <time>2020-10-04T13:35:26.729Z</time>
      </trkpt>
      <trkpt lat="44.03511" lon="1.87952">
        <ele>257</ele>
        <time>2020-10-04T13:35:27.729Z</time>
      </trkpt>
      <trkpt lat="44.0351" lon="1.87952">
        <ele>257</ele>
        <time>2020-10-04T13:35:28.729Z</time>
      </trkpt>
      <trkpt lat="44.03509" lon="1.87951">
        <ele>257</ele>
        <time>2020-10-04T13:35:29.729Z</time>
      </trkpt>
      <trkpt lat="44.03508" lon="1.8795">
        <ele>258</ele>
        <time>2020-10-04T13:35:30.729Z</time>
      </trkpt>
      <trkpt lat="44.03507" lon="1.87949">
        <ele>258</ele>
        <time>2020-10-04T13:35:31.729Z</time>
      </trkpt>
      <trkpt lat="44.03506" lon="1.87949">
        <ele>258</ele>
        <time>2020-10-04T13:35:32.729Z</time>
      </trkpt>
      <trkpt lat="44.03505" lon="1.87948">
        <ele>258</ele>
        <time>2020-10-04T13:35:33.729Z</time>
      </trkpt>
      <trkpt lat="44.03505" lon="1.87947">
        <ele>258</ele>
        <time>2020-10-04T13:35:34.729Z</time>
      </trkpt>
      <trkpt lat="44.03504" lon="1.87946">
        <ele>258</ele>
        <time>2020-10-04T13:35:35.729Z</time>
      </trkpt>
      <trkpt lat="44.03503" lon="1.87945">
        <ele>258</ele>
        <time>2020-10-04T13:35:36.729Z</time>
      </trkpt>
      <trkpt lat="44.03503" lon="1.87943">
        <ele>258</ele>
        <time>2020-10-04T13:35:37.729Z</time>
      </trkpt>
      <trkpt lat="44.03502" lon="1.87942">
        <ele>258</ele>
        <time>2020-10-04T13:35:38.729Z</time>
      </trkpt>
      <trkpt lat="44.03502" lon="1.87941">
        <ele>258</ele>
        <time>2020-10-04T13:35:39.729Z</time>
      </trkpt>
      <trkpt lat="44.03502" lon="1.8794">
        <ele>258</ele>
        <time>2020-10-04T13:35:40.729Z</time>
      </trkpt>
      <trkpt lat="44.03501" lon="1.87939">
        <ele>259</ele>
        <time>2020-10-04T13:35:41.729Z</time>
      </trkpt>
      <trkpt lat="44.03501" lon="1.87938">
        <ele>259</ele>
        <time>2020-10-04T13:35:42.729Z</time>
      </trkpt>
      <trkpt lat="44.03501" lon="1.87936">
        <ele>259</ele>
        <time>2020-10-04T13:35:43.729Z</time>
      </trkpt>
      <trkpt lat="44.03501" lon="1.87935">
        <ele>259</ele>
        <time>2020-10-04T13:35:44.729Z</time>
      </trkpt>
      <trkpt lat="44.03501" lon="1.87934">
        <ele>259</ele>
        <time>2020-10-04T13:35:45.729Z</time>
      </trkpt>
      <trkpt lat="44.03501" lon="1.87933">
        <ele>259</ele>
        <time>2020-10-04T13:35:46.729Z</time>
      </trkpt>
      <trkpt lat="44.03501" lon="1.87932">
        <ele>259</ele>
        <time>2020-10-04T13:35:47.729Z</time>
      </trkpt>
      <trkpt lat="44.03501" lon="1.87931">
        <ele>259</ele>
        <time>2020-10-04T13:35:48.729Z</time>
      </trkpt>
      <trkpt lat="44.03501" lon="1.87929">
        <ele>259</ele>
        <time>2020-10-04T13:35:49.729Z</time>
      </trkpt>
      <trkpt lat="44.03501" lon="1.87928">
        <ele>259</ele>
        <time>2020-10-04T13:35:50.729Z</time>
      </trkpt>
      <trkpt lat="44.03501" lon="1.87927">
        <ele>259</ele>
        <time>2020-10-04T13:35:51.729Z</time>
      </trkpt>
      <trkpt lat="44.03501" lon="1.87926">
        <ele>259</ele>
        <time>2020-10-04T13:35:52.729Z</time>
      </trkpt>
      <trkpt lat="44.03501" lon="1.87925">
        <ele>260</ele>
        <time>2020-10-04T13:35:53.729Z</time>
      </trkpt>
      <trkpt lat="44.03502" lon="1.87924">
        <ele>260</ele>
        <time>2020-10-04T13:35:54.729Z</time>
      </trkpt>
      <trkpt lat="44.03502" lon="1.87923">
        <ele>260</ele>
        <time>2020-10-04T13:35:55.729Z</time>
      </trkpt>
      <trkpt lat="44.03502" lon="1.87922">
        <ele>260</ele>
        <time>2020-10-04T13:35:56.729Z</time>
      </trkpt>
      <trkpt lat="44.03502" lon="1.87921">
        <ele>260</ele>
        <time>2020-10-04T13:35:57.729Z</time>
      </trkpt>
      <trkpt lat="44.03503" lon="1.8792">
        <ele>260</ele>
        <time>2020-10-04T13:35:58.729Z</time>
      </trkpt>
      <trkpt lat="44.03503" lon="1.87919">
        <ele>260</ele>
        <time>2020-10-04T13:35:59.729Z</time>
      </trkpt>
      <trkpt lat="44.03503" lon="1.87918">
        <ele>260</ele>
        <time>2020-10-04T13:36:00.729Z</time>
      </trkpt>
      <trkpt lat="44.03503" lon="1.87917">
        <ele>260</ele>
        <time>2020-10-04T13:36:01.729Z</time>
      </trkpt>
      <trkpt lat="44.03503" lon="1.87916">
        <ele>260</ele>
        <time>2020-10-04T13:36:02.729Z</time>
      </trkpt>
      <trkpt lat="44.03503" lon="1.87914">
        <ele>260</ele>
        <time>2020-10-04T13:36:03.729Z</time>
      </trkpt>
      <trkpt lat="44.03503" lon="1.87913">
        <ele>260</ele>
        <time>2020-10-04T13:36:04.729Z</time>
      </trkpt>
      <trkpt lat="44.03503" lon="1.87912">
        <ele>260</ele>
        <time>2020-10-04T13:36:05.729Z</time>
      </trkpt>
      <trkpt lat="44.03503" lon="1.8791">
        <ele>260</ele>
        <time>2020-10-04T13:36:06.729Z</time>
      </trkpt>
      <trkpt lat="44.03502" lon="1.87909">
        <ele>260</ele>
        <time>2020-10-04T13:36:07.729Z</time>
      </trkpt>
      <trkpt lat="44.03502" lon="1.87907">
        <ele>260</ele>
        <time>2020-10-04T13:36:08.729Z</time>
      </trkpt>
      <trkpt lat="44.03502" lon="1.87906">
        <ele>260</ele>
        <time>2020-10-04T13:36:09.729Z</time>
      </trkpt>
      <trkpt lat="44.03502" lon="1.87905">
        <ele>260</ele>
        <time>2020-10-04T13:36:10.729Z</time>
      </trkpt>
      <trkpt lat="44.03502" lon="1.87904">
        <ele>260</ele>
        <time>2020-10-04T13:36:11.729Z</time>
      </trkpt>
      <trkpt lat="44.03502" lon="1.87903">
        <ele>260</ele>
        <time>2020-10-04T13:36:12.729Z</time>
      </trkpt>
      <trkpt lat="44.03502" lon="1.87903">
        <ele>260</ele>
        <time>2020-10-04T13:36:13.729Z</time>
      </trkpt>
      <trkpt lat="44.03502" lon="1.87902">
        <ele>260</ele>
        <time>2020-10-04T13:36:14.729Z</time>
      </trkpt>
      <trkpt lat="44.03502" lon="1.87895">
        <ele>260</ele>
        <time>2020-10-04T13:36:15.729Z</time>
      </trkpt>
      <trkpt lat="44.03502" lon="1.87895">
        <ele>261</ele>
        <time>2020-10-04T13:36:16.729Z</time>
      </trkpt>
      <trkpt lat="44.03502" lon="1.87894">
        <ele>261</ele>
        <time>2020-10-04T13:36:17.729Z</time>
      </trkpt>
      <trkpt lat="44.03502" lon="1.87893">
        <ele>261</ele>
        <time>2020-10-04T13:36:18.729Z</time>
      </trkpt>
      <trkpt lat="44.03502" lon="1.87892">
        <ele>261</ele>
        <time>2020-10-04T13:36:19.729Z</time>
      </trkpt>
      <trkpt lat="44.03502" lon="1.87891">
        <ele>261</ele>
        <time>2020-10-04T13:36:20.729Z</time>
      </trkpt>
      <trkpt lat="44.03502" lon="1.87886">
        <ele>264</ele>
        <time>2020-10-04T13:36:21.729Z</time>
      </trkpt>
      <trkpt lat="44.03501" lon="1.87885">
        <ele>264</ele>
        <time>2020-10-04T13:36:22.729Z</time>
      </trkpt>
      <trkpt lat="44.03501" lon="1.87884">
        <ele>264</ele>
        <time>2020-10-04T13:36:23.729Z</time>
      </trkpt>
      <trkpt lat="44.03501" lon="1.87883">
        <ele>264</ele>
        <time>2020-10-04T13:36:24.729Z</time>
      </trkpt>
      <trkpt lat="44.03502" lon="1.87882">
        <ele>264</ele>
        <time>2020-10-04T13:36:25.729Z</time>
      </trkpt>
      <trkpt lat="44.03502" lon="1.87881">
        <ele>264</ele>
        <time>2020-10-04T13:36:26.729Z</time>
      </trkpt>
      <trkpt lat="44.03503" lon="1.8788">
        <ele>264</ele>
        <time>2020-10-04T13:36:27.729Z</time>
      </trkpt>
      <trkpt lat="44.03503" lon="1.87879">
        <ele>264</ele>
        <time>2020-10-04T13:36:28.729Z</time>
      </trkpt>
      <trkpt lat="44.03504" lon="1.87878">
        <ele>264</ele>
        <time>2020-10-04T13:36:29.729Z</time>
      </trkpt>
      <trkpt lat="44.03504" lon="1.87876">
        <ele>264</ele>
        <time>2020-10-04T13:36:30.729Z</time>
      </trkpt>
      <trkpt lat="44.03504" lon="1.87875">
        <ele>264</ele>
        <time>2020-10-04T13:36:31.729Z</time>
      </trkpt>
      <trkpt lat="44.03505" lon="1.87873">
        <ele>264</ele>
        <time>2020-10-04T13:36:32.729Z</time>
      </trkpt>
      <trkpt lat="44.03505" lon="1.87872">
        <ele>264</ele>
        <time>2020-10-04T13:36:33.729Z</time>
      </trkpt>
      <trkpt lat="44.03505" lon="1.87871">
        <ele>265</ele>
        <time>2020-10-04T13:36:34.729Z</time>
      </trkpt>
      <trkpt lat="44.03506" lon="1.87869">
        <ele>265</ele>
        <time>2020-10-04T13:36:35.729Z</time>
      </trkpt>
      <trkpt lat="44.03506" lon="1.87868">
        <ele>265</ele>
        <time>2020-10-04T13:36:36.729Z</time>
      </trkpt>
      <trkpt lat="44.03507" lon="1.87866">
        <ele>265</ele>
        <time>2020-10-04T13:36:37.729Z</time>
      </trkpt>
      <trkpt lat="44.03507" lon="1.87865">
        <ele>265</ele>
        <time>2020-10-04T13:36:38.729Z</time>
      </trkpt>
      <trkpt lat="44.03507" lon="1.87864">
        <ele>265</ele>
        <time>2020-10-04T13:36:39.729Z</time>
      </trkpt>
      <trkpt lat="44.03508" lon="1.87863">
        <ele>266</ele>
        <time>2020-10-04T13:36:40.729Z</time>
      </trkpt>
      <trkpt lat="44.03508" lon="1.87861">
        <ele>266</ele>
        <time>2020-10-04T13:36:41.729Z</time>
      </trkpt>
      <trkpt lat="44.03508" lon="1.8786">
        <ele>266</ele>
        <time>2020-10-04T13:36:42.729Z</time>
      </trkpt>
      <trkpt lat="44.03508" lon="1.87859">
        <ele>266</ele>
        <time>2020-10-04T13:36:43.729Z</time>
      </trkpt>
      <trkpt lat="44.03509" lon="1.87857">
        <ele>267</ele>
        <time>2020-10-04T13:36:44.729Z</time>
      </trkpt>
      <trkpt lat="44.03509" lon="1.87856">
        <ele>267</ele>
        <time>2020-10-04T13:36:45.729Z</time>
      </trkpt>
      <trkpt lat="44.03509" lon="1.87855">
        <ele>267</ele>
        <time>2020-10-04T13:36:46.729Z</time>
      </trkpt>
      <trkpt lat="44.03509" lon="1.87854">
        <ele>267</ele>
        <time>2020-10-04T13:36:47.729Z</time>
      </trkpt>
      <trkpt lat="44.03509" lon="1.87852">
        <ele>267</ele>
        <time>2020-10-04T13:36:48.729Z</time>
      </trkpt>
      <trkpt lat="44.03509" lon="1.87851">
        <ele>267</ele>
        <time>2020-10-04T13:36:49.729Z</time>
      </trkpt>
      <trkpt lat="44.0351" lon="1.8785">
        <ele>267</ele>
        <time>2020-10-04T13:36:50.729Z</time>
      </trkpt>
      <trkpt lat="44.0351" lon="1.87848">
        <ele>267</ele>
        <time>2020-10-04T13:36:51.729Z</time>
      </trkpt>
      <trkpt lat="44.0351" lon="1.87847">
        <ele>267</ele>
        <time>2020-10-04T13:36:52.729Z</time>
      </trkpt>
      <trkpt lat="44.03511" lon="1.87846">
        <ele>267</ele>
        <time>2020-10-04T13:36:53.729Z</time>
      </trkpt>
      <trkpt lat="44.03511" lon="1.87845">
        <ele>268</ele>
        <time>2020-10-04T13:36:54.729Z</time>
      </trkpt>
      <trkpt lat="44.03511" lon="1.87844">
        <ele>268</ele>
        <time>2020-10-04T13:36:55.729Z</time>
      </trkpt>
      <trkpt lat="44.03511" lon="1.87843">
        <ele>268</ele>
        <time>2020-10-04T13:36:56.729Z</time>
      </trkpt>
      <trkpt lat="44.03511" lon="1.87842">
        <ele>268</ele>
        <time>2020-10-04T13:36:57.729Z</time>
      </trkpt>
      <trkpt lat="44.03511" lon="1.87841">
        <ele>268</ele>
        <time>2020-10-04T13:36:58.729Z</time>
      </trkpt>
      <trkpt lat="44.03512" lon="1.8784">
        <ele>268</ele>
        <time>2020-10-04T13:36:59.729Z</time>
      </trkpt>
      <trkpt lat="44.03512" lon="1.87838">
        <ele>268</ele>
        <time>2020-10-04T13:37:00.729Z</time>
      </trkpt>
      <trkpt lat="44.03512" lon="1.87837">
        <ele>268</ele>
        <time>2020-10-04T13:37:01.729Z</time>
      </trkpt>
      <trkpt lat="44.03512" lon="1.87836">
        <ele>269</ele>
        <time>2020-10-04T13:37:02.729Z</time>
      </trkpt>
      <trkpt lat="44.03513" lon="1.87834">
        <ele>269</ele>
        <time>2020-10-04T13:37:03.729Z</time>
      </trkpt>
      <trkpt lat="44.03513" lon="1.87833">
        <ele>269</ele>
        <time>2020-10-04T13:37:04.729Z</time>
      </trkpt>
      <trkpt lat="44.03513" lon="1.87832">
        <ele>269</ele>
        <time>2020-10-04T13:37:05.729Z</time>
      </trkpt>
      <trkpt lat="44.03514" lon="1.8783">
        <ele>269</ele>
        <time>2020-10-04T13:37:06.729Z</time>
      </trkpt>
      <trkpt lat="44.03514" lon="1.87829">
        <ele>269</ele>
        <time>2020-10-04T13:37:07.729Z</time>
      </trkpt>
      <trkpt lat="44.03514" lon="1.87828">
        <ele>269</ele>
        <time>2020-10-04T13:37:08.729Z</time>
      </trkpt>
      <trkpt lat="44.03514" lon="1.87827">
        <ele>269</ele>
        <time>2020-10-04T13:37:09.729Z</time>
      </trkpt>
      <trkpt lat="44.03514" lon="1.87826">
        <ele>270</ele>
        <time>2020-10-04T13:37:10.729Z</time>
      </trkpt>
      <trkpt lat="44.03514" lon="1.87825">
        <ele>270</ele>
        <time>2020-10-04T13:37:11.729Z</time>
      </trkpt>
      <trkpt lat="44.03514" lon="1.87824">
        <ele>270</ele>
        <time>2020-10-04T13:37:12.729Z</time>
      </trkpt>
      <trkpt lat="44.03514" lon="1.87823">
        <ele>270</ele>
        <time>2020-10-04T13:37:13.729Z</time>
      </trkpt>
      <trkpt lat="44.03515" lon="1.87822">
        <ele>270</ele>
        <time>2020-10-04T13:37:14.729Z</time>
      </trkpt>
      <trkpt lat="44.03515" lon="1.87821">
        <ele>270</ele>
        <time>2020-10-04T13:37:15.729Z</time>
      </trkpt>
      <trkpt lat="44.03515" lon="1.8782">
        <ele>270</ele>
        <time>2020-10-04T13:37:16.729Z</time>
      </trkpt>
      <trkpt lat="44.03515" lon="1.87819">
        <ele>270</ele>
        <time>2020-10-04T13:37:17.729Z</time>
      </trkpt>
      <trkpt lat="44.03515" lon="1.87819">
        <ele>270</ele>
        <time>2020-10-04T13:37:18.729Z</time>
      </trkpt>
      <trkpt lat="44.03515" lon="1.87819">
        <ele>270</ele>
        <time>2020-10-04T13:37:19.729Z</time>
      </trkpt>
      <trkpt lat="44.03515" lon="1.87819">
        <ele>270</ele>
        <time>2020-10-04T13:37:20.729Z</time>
      </trkpt>
      <trkpt lat="44.03516" lon="1.87816">
        <ele>271</ele>
        <time>2020-10-04T13:37:21.729Z</time>
      </trkpt>
      <trkpt lat="44.03516" lon="1.87815">
        <ele>271</ele>
        <time>2020-10-04T13:37:22.729Z</time>
      </trkpt>
      <trkpt lat="44.03517" lon="1.87814">
        <ele>271</ele>
        <time>2020-10-04T13:37:23.729Z</time>
      </trkpt>
      <trkpt lat="44.03517" lon="1.87814">
        <ele>271</ele>
        <time>2020-10-04T13:37:24.729Z</time>
      </trkpt>
      <trkpt lat="44.03518" lon="1.87813">
        <ele>271</ele>
        <time>2020-10-04T13:37:25.729Z</time>
      </trkpt>
      <trkpt lat="44.03518" lon="1.87812">
        <ele>271</ele>
        <time>2020-10-04T13:37:26.729Z</time>
      </trkpt>
      <trkpt lat="44.03518" lon="1.87811">
        <ele>271</ele>
        <time>2020-10-04T13:37:27.729Z</time>
      </trkpt>
      <trkpt lat="44.03519" lon="1.8781">
        <ele>271</ele>
        <time>2020-10-04T13:37:28.729Z</time>
      </trkpt>
      <trkpt lat="44.0352" lon="1.87809">
        <ele>271</ele>
        <time>2020-10-04T13:37:29.729Z</time>
      </trkpt>
      <trkpt lat="44.0352" lon="1.87808">
        <ele>271</ele>
        <time>2020-10-04T13:37:30.729Z</time>
      </trkpt>
      <trkpt lat="44.03521" lon="1.87807">
        <ele>271</ele>
        <time>2020-10-04T13:37:31.729Z</time>
      </trkpt>
      <trkpt lat="44.03522" lon="1.87806">
        <ele>271</ele>
        <time>2020-10-04T13:37:32.729Z</time>
      </trkpt>
      <trkpt lat="44.03523" lon="1.87805">
        <ele>271</ele>
        <time>2020-10-04T13:37:33.729Z</time>
      </trkpt>
      <trkpt lat="44.03523" lon="1.87804">
        <ele>272</ele>
        <time>2020-10-04T13:37:34.729Z</time>
      </trkpt>
      <trkpt lat="44.03524" lon="1.87803">
        <ele>272</ele>
        <time>2020-10-04T13:37:35.729Z</time>
      </trkpt>
      <trkpt lat="44.03524" lon="1.87801">
        <ele>272</ele>
        <time>2020-10-04T13:37:36.729Z</time>
      </trkpt>
      <trkpt lat="44.03524" lon="1.878">
        <ele>272</ele>
        <time>2020-10-04T13:37:37.729Z</time>
      </trkpt>
      <trkpt lat="44.03525" lon="1.87799">
        <ele>272</ele>
        <time>2020-10-04T13:37:38.729Z</time>
      </trkpt>
      <trkpt lat="44.03525" lon="1.87797">
        <ele>272</ele>
        <time>2020-10-04T13:37:39.729Z</time>
      </trkpt>
      <trkpt lat="44.03526" lon="1.87796">
        <ele>272</ele>
        <time>2020-10-04T13:37:40.729Z</time>
      </trkpt>
      <trkpt lat="44.03527" lon="1.87794">
        <ele>272</ele>
        <time>2020-10-04T13:37:41.729Z</time>
      </trkpt>
      <trkpt lat="44.03527" lon="1.87794">
        <ele>273</ele>
        <time>2020-10-04T13:37:42.729Z</time>
      </trkpt>
      <trkpt lat="44.03527" lon="1.87792">
        <ele>273</ele>
        <time>2020-10-04T13:37:43.729Z</time>
      </trkpt>
      <trkpt lat="44.03527" lon="1.87791">
        <ele>273</ele>
        <time>2020-10-04T13:37:44.729Z</time>
      </trkpt>
      <trkpt lat="44.03528" lon="1.87789">
        <ele>273</ele>
        <time>2020-10-04T13:37:45.729Z</time>
      </trkpt>
      <trkpt lat="44.03528" lon="1.87788">
        <ele>273</ele>
        <time>2020-10-04T13:37:46.729Z</time>
      </trkpt>
      <trkpt lat="44.03528" lon="1.87786">
        <ele>273</ele>
        <time>2020-10-04T13:37:47.729Z</time>
      </trkpt>
      <trkpt lat="44.03529" lon="1.87785">
        <ele>273</ele>
        <time>2020-10-04T13:37:48.729Z</time>
      </trkpt>
      <trkpt lat="44.03529" lon="1.87783">
        <ele>273</ele>
        <time>2020-10-04T13:37:49.729Z</time>
      </trkpt>
      <trkpt lat="44.0353" lon="1.87782">
        <ele>273</ele>
        <time>2020-10-04T13:37:50.729Z</time>
      </trkpt>
      <trkpt lat="44.0353" lon="1.87781">
        <ele>274</ele>
        <time>2020-10-04T13:37:51.729Z</time>
      </trkpt>
      <trkpt lat="44.03531" lon="1.8778">
        <ele>274</ele>
        <time>2020-10-04T13:37:52.729Z</time>
      </trkpt>
      <trkpt lat="44.03531" lon="1.87779">
        <ele>274</ele>
        <time>2020-10-04T13:37:53.729Z</time>
      </trkpt>
      <trkpt lat="44.03531" lon="1.87778">
        <ele>274</ele>
        <time>2020-10-04T13:37:54.729Z</time>
      </trkpt>
      <trkpt lat="44.03532" lon="1.87777">
        <ele>274</ele>
        <time>2020-10-04T13:37:55.729Z</time>
      </trkpt>
      <trkpt lat="44.03533" lon="1.87776">
        <ele>274</ele>
        <time>2020-10-04T13:37:56.729Z</time>
      </trkpt>
      <trkpt lat="44.03533" lon="1.87775">
        <ele>274</ele>
        <time>2020-10-04T13:37:57.729Z</time>
      </trkpt>
      <trkpt lat="44.03533" lon="1.87774">
        <ele>274</ele>
        <time>2020-10-04T13:37:58.729Z</time>
      </trkpt>
      <trkpt lat="44.03534" lon="1.87772">
        <ele>274</ele>
        <time>2020-10-04T13:37:59.729Z</time>
      </trkpt>
      <trkpt lat="44.03534" lon="1.87771">
        <ele>274</ele>
        <time>2020-10-04T13:38:00.729Z</time>
      </trkpt>
      <trkpt lat="44.03534" lon="1.8777">
        <ele>274</ele>
        <time>2020-10-04T13:38:01.729Z</time>
      </trkpt>
      <trkpt lat="44.03534" lon="1.87768">
        <ele>274</ele>
        <time>2020-10-04T13:38:02.729Z</time>
      </trkpt>
      <trkpt lat="44.03534" lon="1.87767">
        <ele>274</ele>
        <time>2020-10-04T13:38:03.729Z</time>
      </trkpt>
      <trkpt lat="44.03535" lon="1.87766">
        <ele>274</ele>
        <time>2020-10-04T13:38:04.729Z</time>
      </trkpt>
      <trkpt lat="44.03535" lon="1.87765">
        <ele>274</ele>
        <time>2020-10-04T13:38:05.729Z</time>
      </trkpt>
      <trkpt lat="44.03535" lon="1.87764">
        <ele>274</ele>
        <time>2020-10-04T13:38:06.729Z</time>
      </trkpt>
      <trkpt lat="44.03536" lon="1.87763">
        <ele>273</ele>
        <time>2020-10-04T13:38:07.729Z</time>
      </trkpt>
      <trkpt lat="44.03536" lon="1.87761">
        <ele>273</ele>
        <time>2020-10-04T13:38:08.729Z</time>
      </trkpt>
      <trkpt lat="44.03537" lon="1.87761">
        <ele>273</ele>
        <time>2020-10-04T13:38:09.729Z</time>
      </trkpt>
      <trkpt lat="44.03537" lon="1.87759">
        <ele>274</ele>
        <time>2020-10-04T13:38:10.729Z</time>
      </trkpt>
      <trkpt lat="44.03538" lon="1.87758">
        <ele>274</ele>
        <time>2020-10-04T13:38:11.729Z</time>
      </trkpt>
      <trkpt lat="44.03538" lon="1.87757">
        <ele>274</ele>
        <time>2020-10-04T13:38:12.729Z</time>
      </trkpt>
      <trkpt lat="44.03539" lon="1.87755">
        <ele>274</ele>
        <time>2020-10-04T13:38:13.729Z</time>
      </trkpt>
      <trkpt lat="44.03539" lon="1.87754">
        <ele>274</ele>
        <time>2020-10-04T13:38:14.729Z</time>
      </trkpt>
      <trkpt lat="44.03539" lon="1.87752">
        <ele>274</ele>
        <time>2020-10-04T13:38:15.729Z</time>
      </trkpt>
      <trkpt lat="44.0354" lon="1.87751">
        <ele>274</ele>
        <time>2020-10-04T13:38:16.729Z</time>
      </trkpt>
      <trkpt lat="44.0354" lon="1.8775">
        <ele>274</ele>
        <time>2020-10-04T13:38:17.729Z</time>
      </trkpt>
      <trkpt lat="44.0354" lon="1.87749">
        <ele>274</ele>
        <time>2020-10-04T13:38:18.729Z</time>
      </trkpt>
      <trkpt lat="44.03541" lon="1.87747">
        <ele>274</ele>
        <time>2020-10-04T13:38:19.729Z</time>
      </trkpt>
      <trkpt lat="44.03541" lon="1.87746">
        <ele>274</ele>
        <time>2020-10-04T13:38:20.729Z</time>
      </trkpt>
      <trkpt lat="44.03541" lon="1.87744">
        <ele>274</ele>
        <time>2020-10-04T13:38:21.729Z</time>
      </trkpt>
      <trkpt lat="44.03542" lon="1.87743">
        <ele>274</ele>
        <time>2020-10-04T13:38:22.729Z</time>
      </trkpt>
      <trkpt lat="44.03543" lon="1.87742">
        <ele>274</ele>
        <time>2020-10-04T13:38:23.729Z</time>
      </trkpt>
      <trkpt lat="44.03543" lon="1.87741">
        <ele>274</ele>
        <time>2020-10-04T13:38:24.729Z</time>
      </trkpt>
      <trkpt lat="44.03544" lon="1.8774">
        <ele>274</ele>
        <time>2020-10-04T13:38:25.729Z</time>
      </trkpt>
      <trkpt lat="44.03544" lon="1.87739">
        <ele>275</ele>
        <time>2020-10-04T13:38:26.729Z</time>
      </trkpt>
      <trkpt lat="44.03544" lon="1.87739">
        <ele>275</ele>
        <time>2020-10-04T13:38:27.729Z</time>
      </trkpt>
      <trkpt lat="44.03544" lon="1.87738">
        <ele>275</ele>
        <time>2020-10-04T13:38:28.729Z</time>
      </trkpt>
      <trkpt lat="44.03545" lon="1.87737">
        <ele>275</ele>
        <time>2020-10-04T13:38:29.729Z</time>
      </trkpt>
      <trkpt lat="44.03545" lon="1.87736">
        <ele>275</ele>
        <time>2020-10-04T13:38:30.729Z</time>
      </trkpt>
      <trkpt lat="44.03545" lon="1.87735">
        <ele>275</ele>
        <time>2020-10-04T13:38:31.729Z</time>
      </trkpt>
      <trkpt lat="44.03546" lon="1.87733">
        <ele>275</ele>
        <time>2020-10-04T13:38:32.729Z</time>
      </trkpt>
      <trkpt lat="44.03546" lon="1.87732">
        <ele>276</ele>
        <time>2020-10-04T13:38:33.729Z</time>
      </trkpt>
      <trkpt lat="44.03547" lon="1.8773">
        <ele>276</ele>
        <time>2020-10-04T13:38:34.729Z</time>
      </trkpt>
      <trkpt lat="44.03547" lon="1.87729">
        <ele>276</ele>
        <time>2020-10-04T13:38:35.729Z</time>
      </trkpt>
      <trkpt lat="44.03547" lon="1.87728">
        <ele>276</ele>
        <time>2020-10-04T13:38:36.729Z</time>
      </trkpt>
      <trkpt lat="44.03548" lon="1.87727">
        <ele>276</ele>
        <time>2020-10-04T13:38:37.729Z</time>
      </trkpt>
      <trkpt lat="44.03548" lon="1.87725">
        <ele>277</ele>
        <time>2020-10-04T13:38:38.729Z</time>
      </trkpt>
      <trkpt lat="44.03548" lon="1.87724">
        <ele>277</ele>
        <time>2020-10-04T13:38:39.729Z</time>
      </trkpt>
      <trkpt lat="44.03548" lon="1.87722">
        <ele>277</ele>
        <time>2020-10-04T13:38:40.729Z</time>
      </trkpt>
      <trkpt lat="44.03548" lon="1.87722">
        <ele>278</ele>
        <time>2020-10-04T13:38:41.729Z</time>
      </trkpt>
      <trkpt lat="44.03549" lon="1.87721">
        <ele>278</ele>
        <time>2020-10-04T13:38:42.729Z</time>
      </trkpt>
      <trkpt lat="44.03549" lon="1.8772">
        <ele>278</ele>
        <time>2020-10-04T13:38:43.729Z</time>
      </trkpt>
      <trkpt lat="44.03549" lon="1.87718">
        <ele>278</ele>
        <time>2020-10-04T13:38:44.729Z</time>
      </trkpt>
      <trkpt lat="44.03549" lon="1.87717">
        <ele>279</ele>
        <time>2020-10-04T13:38:45.729Z</time>
      </trkpt>
      <trkpt lat="44.03549" lon="1.87716">
        <ele>279</ele>
        <time>2020-10-04T13:38:46.729Z</time>
      </trkpt>
      <trkpt lat="44.0355" lon="1.87715">
        <ele>279</ele>
        <time>2020-10-04T13:38:47.729Z</time>
      </trkpt>
      <trkpt lat="44.0355" lon="1.87714">
        <ele>279</ele>
        <time>2020-10-04T13:38:48.729Z</time>
      </trkpt>
      <trkpt lat="44.0355" lon="1.87713">
        <ele>280</ele>
        <time>2020-10-04T13:38:49.729Z</time>
      </trkpt>
      <trkpt lat="44.0355" lon="1.87712">
        <ele>280</ele>
        <time>2020-10-04T13:38:50.729Z</time>
      </trkpt>
      <trkpt lat="44.0355" lon="1.87711">
        <ele>280</ele>
        <time>2020-10-04T13:38:51.729Z</time>
      </trkpt>
      <trkpt lat="44.03551" lon="1.8771">
        <ele>280</ele>
        <time>2020-10-04T13:38:52.729Z</time>
      </trkpt>
      <trkpt lat="44.03551" lon="1.87709">
        <ele>280</ele>
        <time>2020-10-04T13:38:53.729Z</time>
      </trkpt>
      <trkpt lat="44.03551" lon="1.87708">
        <ele>280</ele>
        <time>2020-10-04T13:38:54.729Z</time>
      </trkpt>
      <trkpt lat="44.03551" lon="1.87707">
        <ele>280</ele>
        <time>2020-10-04T13:38:55.729Z</time>
      </trkpt>
      <trkpt lat="44.03551" lon="1.87706">
        <ele>281</ele>
        <time>2020-10-04T13:38:56.729Z</time>
      </trkpt>
      <trkpt lat="44.03551" lon="1.87706">
        <ele>281</ele>
        <time>2020-10-04T13:38:57.729Z</time>
      </trkpt>
      <trkpt lat="44.03551" lon="1.87706">
        <ele>281</ele>
        <time>2020-10-04T13:38:58.729Z</time>
      </trkpt>
      <trkpt lat="44.03551" lon="1.87706">
        <ele>281</ele>
        <time>2020-10-04T13:38:59.729Z</time>
      </trkpt>
      <trkpt lat="44.03551" lon="1.87704">
        <ele>281</ele>
        <time>2020-10-04T13:39:00.729Z</time>
      </trkpt>
      <trkpt lat="44.03551" lon="1.87702">
        <ele>281</ele>
        <time>2020-10-04T13:39:01.729Z</time>
      </trkpt>
      <trkpt lat="44.03552" lon="1.87701">
        <ele>281</ele>
        <time>2020-10-04T13:39:02.729Z</time>
      </trkpt>
      <trkpt lat="44.03552" lon="1.877">
        <ele>281</ele>
        <time>2020-10-04T13:39:03.729Z</time>
      </trkpt>
      <trkpt lat="44.03552" lon="1.87699">
        <ele>281</ele>
        <time>2020-10-04T13:39:04.729Z</time>
      </trkpt>
      <trkpt lat="44.03552" lon="1.87699">
        <ele>281</ele>
        <time>2020-10-04T13:39:05.729Z</time>
      </trkpt>
      <trkpt lat="44.03552" lon="1.87698">
        <ele>281</ele>
        <time>2020-10-04T13:39:06.729Z</time>
      </trkpt>
      <trkpt lat="44.03552" lon="1.87697">
        <ele>281</ele>
        <time>2020-10-04T13:39:07.729Z</time>
      </trkpt>
      <trkpt lat="44.03552" lon="1.87695">
        <ele>281</ele>
        <time>2020-10-04T13:39:08.729Z</time>
      </trkpt>
      <trkpt lat="44.03552" lon="1.87694">
        <ele>281</ele>
        <time>2020-10-04T13:39:09.729Z</time>
      </trkpt>
      <trkpt lat="44.03553" lon="1.87692">
        <ele>281</ele>
        <time>2020-10-04T13:39:10.729Z</time>
      </trkpt>
      <trkpt lat="44.03553" lon="1.87691">
        <ele>281</ele>
        <time>2020-10-04T13:39:11.729Z</time>
      </trkpt>
      <trkpt lat="44.03553" lon="1.8769">
        <ele>281</ele>
        <time>2020-10-04T13:39:12.729Z</time>
      </trkpt>
      <trkpt lat="44.03553" lon="1.87688">
        <ele>281</ele>
        <time>2020-10-04T13:39:13.729Z</time>
      </trkpt>
      <trkpt lat="44.03553" lon="1.87687">
        <ele>281</ele>
        <time>2020-10-04T13:39:14.729Z</time>
      </trkpt>
      <trkpt lat="44.03553" lon="1.87686">
        <ele>281</ele>
        <time>2020-10-04T13:39:15.729Z</time>
      </trkpt>
      <trkpt lat="44.03553" lon="1.87685">
        <ele>281</ele>
        <time>2020-10-04T13:39:16.729Z</time>
      </trkpt>
      <trkpt lat="44.03554" lon="1.87683">
        <ele>281</ele>
        <time>2020-10-04T13:39:17.729Z</time>
      </trkpt>
      <trkpt lat="44.03554" lon="1.87682">
        <ele>281</ele>
        <time>2020-10-04T13:39:18.729Z</time>
      </trkpt>
      <trkpt lat="44.03554" lon="1.87681">
        <ele>281</ele>
        <time>2020-10-04T13:39:19.729Z</time>
      </trkpt>
      <trkpt lat="44.03555" lon="1.87679">
        <ele>281</ele>
        <time>2020-10-04T13:39:20.729Z</time>
      </trkpt>
      <trkpt lat="44.03555" lon="1.87678">
        <ele>281</ele>
        <time>2020-10-04T13:39:21.729Z</time>
      </trkpt>
      <trkpt lat="44.03556" lon="1.87677">
        <ele>281</ele>
        <time>2020-10-04T13:39:22.729Z</time>
      </trkpt>
      <trkpt lat="44.03556" lon="1.87676">
        <ele>282</ele>
        <time>2020-10-04T13:39:23.729Z</time>
      </trkpt>
      <trkpt lat="44.03556" lon="1.87674">
        <ele>282</ele>
        <time>2020-10-04T13:39:24.729Z</time>
      </trkpt>
      <trkpt lat="44.03557" lon="1.87673">
        <ele>282</ele>
        <time>2020-10-04T13:39:25.729Z</time>
      </trkpt>
      <trkpt lat="44.03557" lon="1.87672">
        <ele>282</ele>
        <time>2020-10-04T13:39:26.729Z</time>
      </trkpt>
      <trkpt lat="44.03558" lon="1.87671">
        <ele>282</ele>
        <time>2020-10-04T13:39:27.729Z</time>
      </trkpt>
      <trkpt lat="44.03558" lon="1.87669">
        <ele>282</ele>
        <time>2020-10-04T13:39:28.729Z</time>
      </trkpt>
      <trkpt lat="44.03559" lon="1.87668">
        <ele>282</ele>
        <time>2020-10-04T13:39:29.729Z</time>
      </trkpt>
      <trkpt lat="44.03559" lon="1.87666">
        <ele>282</ele>
        <time>2020-10-04T13:39:30.729Z</time>
      </trkpt>
      <trkpt lat="44.0356" lon="1.87665">
        <ele>282</ele>
        <time>2020-10-04T13:39:31.729Z</time>
      </trkpt>
      <trkpt lat="44.0356" lon="1.87664">
        <ele>282</ele>
        <time>2020-10-04T13:39:32.729Z</time>
      </trkpt>
      <trkpt lat="44.03561" lon="1.87663">
        <ele>283</ele>
        <time>2020-10-04T13:39:33.729Z</time>
      </trkpt>
      <trkpt lat="44.03561" lon="1.87661">
        <ele>283</ele>
        <time>2020-10-04T13:39:34.729Z</time>
      </trkpt>
      <trkpt lat="44.03561" lon="1.87659">
        <ele>283</ele>
        <time>2020-10-04T13:39:35.729Z</time>
      </trkpt>
      <trkpt lat="44.03561" lon="1.87658">
        <ele>283</ele>
        <time>2020-10-04T13:39:36.729Z</time>
      </trkpt>
      <trkpt lat="44.03561" lon="1.87656">
        <ele>283</ele>
        <time>2020-10-04T13:39:37.729Z</time>
      </trkpt>
      <trkpt lat="44.0356" lon="1.87655">
        <ele>283</ele>
        <time>2020-10-04T13:39:38.729Z</time>
      </trkpt>
      <trkpt lat="44.0356" lon="1.87654">
        <ele>283</ele>
        <time>2020-10-04T13:39:39.729Z</time>
      </trkpt>
      <trkpt lat="44.03559" lon="1.87653">
        <ele>283</ele>
        <time>2020-10-04T13:39:40.729Z</time>
      </trkpt>
      <trkpt lat="44.03559" lon="1.87652">
        <ele>283</ele>
        <time>2020-10-04T13:39:41.729Z</time>
      </trkpt>
      <trkpt lat="44.03558" lon="1.87651">
        <ele>284</ele>
        <time>2020-10-04T13:39:42.729Z</time>
      </trkpt>
      <trkpt lat="44.03557" lon="1.87651">
        <ele>284</ele>
        <time>2020-10-04T13:39:43.729Z</time>
      </trkpt>
      <trkpt lat="44.03557" lon="1.87651">
        <ele>284</ele>
        <time>2020-10-04T13:39:44.729Z</time>
      </trkpt>
      <trkpt lat="44.03556" lon="1.87651">
        <ele>284</ele>
        <time>2020-10-04T13:39:45.729Z</time>
      </trkpt>
      <trkpt lat="44.03556" lon="1.87651">
        <ele>284</ele>
        <time>2020-10-04T13:39:46.729Z</time>
      </trkpt>
      <trkpt lat="44.03555" lon="1.8765">
        <ele>284</ele>
        <time>2020-10-04T13:39:47.729Z</time>
      </trkpt>
      <trkpt lat="44.03554" lon="1.8765">
        <ele>284</ele>
        <time>2020-10-04T13:39:48.729Z</time>
      </trkpt>
      <trkpt lat="44.03554" lon="1.8765">
        <ele>284</ele>
        <time>2020-10-04T13:39:49.729Z</time>
      </trkpt>
      <trkpt lat="44.03553" lon="1.8765">
        <ele>284</ele>
        <time>2020-10-04T13:39:50.729Z</time>
      </trkpt>
      <trkpt lat="44.03552" lon="1.8765">
        <ele>284</ele>
        <time>2020-10-04T13:39:51.729Z</time>
      </trkpt>
      <trkpt lat="44.03551" lon="1.8765">
        <ele>284</ele>
        <time>2020-10-04T13:39:52.729Z</time>
      </trkpt>
      <trkpt lat="44.0355" lon="1.8765">
        <ele>284</ele>
        <time>2020-10-04T13:39:53.729Z</time>
      </trkpt>
      <trkpt lat="44.03549" lon="1.8765">
        <ele>284</ele>
        <time>2020-10-04T13:39:54.729Z</time>
      </trkpt>
      <trkpt lat="44.03547" lon="1.87651">
        <ele>284</ele>
        <time>2020-10-04T13:39:55.729Z</time>
      </trkpt>
      <trkpt lat="44.03546" lon="1.87651">
        <ele>284</ele>
        <time>2020-10-04T13:39:56.729Z</time>
      </trkpt>
      <trkpt lat="44.03545" lon="1.87651">
        <ele>284</ele>
        <time>2020-10-04T13:39:57.729Z</time>
      </trkpt>
      <trkpt lat="44.03544" lon="1.87651">
        <ele>284</ele>
        <time>2020-10-04T13:39:58.729Z</time>
      </trkpt>
      <trkpt lat="44.03543" lon="1.87652">
        <ele>284</ele>
        <time>2020-10-04T13:39:59.729Z</time>
      </trkpt>
      <trkpt lat="44.03542" lon="1.87652">
        <ele>284</ele>
        <time>2020-10-04T13:40:00.729Z</time>
      </trkpt>
      <trkpt lat="44.0354" lon="1.87652">
        <ele>284</ele>
        <time>2020-10-04T13:40:01.729Z</time>
      </trkpt>
      <trkpt lat="44.03539" lon="1.87652">
        <ele>284</ele>
        <time>2020-10-04T13:40:02.729Z</time>
      </trkpt>
      <trkpt lat="44.03538" lon="1.87653">
        <ele>284</ele>
        <time>2020-10-04T13:40:03.729Z</time>
      </trkpt>
      <trkpt lat="44.03537" lon="1.87653">
        <ele>284</ele>
        <time>2020-10-04T13:40:04.729Z</time>
      </trkpt>
      <trkpt lat="44.03536" lon="1.87653">
        <ele>284</ele>
        <time>2020-10-04T13:40:05.729Z</time>
      </trkpt>
      <trkpt lat="44.03535" lon="1.87654">
        <ele>284</ele>
        <time>2020-10-04T13:40:06.729Z</time>
      </trkpt>
      <trkpt lat="44.03533" lon="1.87654">
        <ele>284</ele>
        <time>2020-10-04T13:40:07.729Z</time>
      </trkpt>
      <trkpt lat="44.03532" lon="1.87655">
        <ele>284</ele>
        <time>2020-10-04T13:40:08.729Z</time>
      </trkpt>
      <trkpt lat="44.03531" lon="1.87655">
        <ele>284</ele>
        <time>2020-10-04T13:40:09.729Z</time>
      </trkpt>
      <trkpt lat="44.0353" lon="1.87655">
        <ele>284</ele>
        <time>2020-10-04T13:40:10.729Z</time>
      </trkpt>
      <trkpt lat="44.03529" lon="1.87656">
        <ele>284</ele>
        <time>2020-10-04T13:40:11.729Z</time>
      </trkpt>
      <trkpt lat="44.03528" lon="1.87656">
        <ele>284</ele>
        <time>2020-10-04T13:40:12.729Z</time>
      </trkpt>
      <trkpt lat="44.03527" lon="1.87656">
        <ele>284</ele>
        <time>2020-10-04T13:40:13.729Z</time>
      </trkpt>
      <trkpt lat="44.03526" lon="1.87657">
        <ele>284</ele>
        <time>2020-10-04T13:40:14.729Z</time>
      </trkpt>
      <trkpt lat="44.03525" lon="1.87657">
        <ele>283</ele>
        <time>2020-10-04T13:40:15.729Z</time>
      </trkpt>
      <trkpt lat="44.03524" lon="1.87657">
        <ele>283</ele>
        <time>2020-10-04T13:40:16.729Z</time>
      </trkpt>
      <trkpt lat="44.03523" lon="1.87657">
        <ele>283</ele>
        <time>2020-10-04T13:40:17.729Z</time>
      </trkpt>
      <trkpt lat="44.03522" lon="1.87657">
        <ele>283</ele>
        <time>2020-10-04T13:40:18.729Z</time>
      </trkpt>
      <trkpt lat="44.03521" lon="1.87658">
        <ele>283</ele>
        <time>2020-10-04T13:40:19.729Z</time>
      </trkpt>
      <trkpt lat="44.0352" lon="1.87658">
        <ele>283</ele>
        <time>2020-10-04T13:40:20.729Z</time>
      </trkpt>
      <trkpt lat="44.03519" lon="1.87658">
        <ele>283</ele>
        <time>2020-10-04T13:40:21.729Z</time>
      </trkpt>
      <trkpt lat="44.03518" lon="1.87657">
        <ele>283</ele>
        <time>2020-10-04T13:40:22.729Z</time>
      </trkpt>
      <trkpt lat="44.03517" lon="1.87657">
        <ele>283</ele>
        <time>2020-10-04T13:40:23.729Z</time>
      </trkpt>
      <trkpt lat="44.03516" lon="1.87656">
        <ele>283</ele>
        <time>2020-10-04T13:40:24.729Z</time>
      </trkpt>
      <trkpt lat="44.03515" lon="1.87656">
        <ele>283</ele>
        <time>2020-10-04T13:40:25.729Z</time>
      </trkpt>
      <trkpt lat="44.03514" lon="1.87656">
        <ele>283</ele>
        <time>2020-10-04T13:40:26.729Z</time>
      </trkpt>
      <trkpt lat="44.03513" lon="1.87655">
        <ele>283</ele>
        <time>2020-10-04T13:40:27.729Z</time>
      </trkpt>
      <trkpt lat="44.03511" lon="1.87655">
        <ele>283</ele>
        <time>2020-10-04T13:40:28.729Z</time>
      </trkpt>
      <trkpt lat="44.0351" lon="1.87654">
        <ele>283</ele>
        <time>2020-10-04T13:40:29.729Z</time>
      </trkpt>
      <trkpt lat="44.03509" lon="1.87653">
        <ele>283</ele>
        <time>2020-10-04T13:40:30.729Z</time>
      </trkpt>
      <trkpt lat="44.03508" lon="1.87652">
        <ele>283</ele>
        <time>2020-10-04T13:40:31.729Z</time>
      </trkpt>
      <trkpt lat="44.03507" lon="1.87652">
        <ele>283</ele>
        <time>2020-10-04T13:40:32.729Z</time>
      </trkpt>
      <trkpt lat="44.03506" lon="1.87651">
        <ele>283</ele>
        <time>2020-10-04T13:40:33.729Z</time>
      </trkpt>
      <trkpt lat="44.03505" lon="1.87651">
        <ele>283</ele>
        <time>2020-10-04T13:40:34.729Z</time>
      </trkpt>
      <trkpt lat="44.03504" lon="1.8765">
        <ele>283</ele>
        <time>2020-10-04T13:40:35.729Z</time>
      </trkpt>
      <trkpt lat="44.03503" lon="1.87649">
        <ele>283</ele>
        <time>2020-10-04T13:40:36.729Z</time>
      </trkpt>
      <trkpt lat="44.03502" lon="1.87648">
        <ele>284</ele>
        <time>2020-10-04T13:40:37.729Z</time>
      </trkpt>
      <trkpt lat="44.03501" lon="1.87647">
        <ele>284</ele>
        <time>2020-10-04T13:40:38.729Z</time>
      </trkpt>
      <trkpt lat="44.035" lon="1.87647">
        <ele>284</ele>
        <time>2020-10-04T13:40:39.729Z</time>
      </trkpt>
      <trkpt lat="44.03499" lon="1.87646">
        <ele>284</ele>
        <time>2020-10-04T13:40:40.729Z</time>
      </trkpt>
      <trkpt lat="44.03498" lon="1.87645">
        <ele>284</ele>
        <time>2020-10-04T13:40:41.729Z</time>
      </trkpt>
      <trkpt lat="44.03497" lon="1.87644">
        <ele>284</ele>
        <time>2020-10-04T13:40:42.729Z</time>
      </trkpt>
      <trkpt lat="44.03496" lon="1.87643">
        <ele>284</ele>
        <time>2020-10-04T13:40:43.729Z</time>
      </trkpt>
      <trkpt lat="44.03495" lon="1.87642">
        <ele>284</ele>
        <time>2020-10-04T13:40:44.729Z</time>
      </trkpt>
      <trkpt lat="44.03494" lon="1.87642">
        <ele>284</ele>
        <time>2020-10-04T13:40:45.729Z</time>
      </trkpt>
      <trkpt lat="44.03493" lon="1.87641">
        <ele>285</ele>
        <time>2020-10-04T13:40:46.729Z</time>
      </trkpt>
      <trkpt lat="44.03492" lon="1.8764">
        <ele>285</ele>
        <time>2020-10-04T13:40:47.729Z</time>
      </trkpt>
      <trkpt lat="44.03491" lon="1.87639">
        <ele>285</ele>
        <time>2020-10-04T13:40:48.729Z</time>
      </trkpt>
      <trkpt lat="44.03489" lon="1.87638">
        <ele>285</ele>
        <time>2020-10-04T13:40:49.729Z</time>
      </trkpt>
      <trkpt lat="44.03488" lon="1.87636">
        <ele>285</ele>
        <time>2020-10-04T13:40:50.729Z</time>
      </trkpt>
      <trkpt lat="44.03488" lon="1.87636">
        <ele>285</ele>
        <time>2020-10-04T13:40:51.729Z</time>
      </trkpt>
      <trkpt lat="44.03487" lon="1.87635">
        <ele>285</ele>
        <time>2020-10-04T13:40:52.729Z</time>
      </trkpt>
      <trkpt lat="44.03486" lon="1.87634">
        <ele>285</ele>
        <time>2020-10-04T13:40:53.729Z</time>
      </trkpt>
      <trkpt lat="44.03485" lon="1.87633">
        <ele>285</ele>
        <time>2020-10-04T13:40:54.729Z</time>
      </trkpt>
      <trkpt lat="44.03484" lon="1.87633">
        <ele>285</ele>
        <time>2020-10-04T13:40:55.729Z</time>
      </trkpt>
      <trkpt lat="44.03483" lon="1.87632">
        <ele>285</ele>
        <time>2020-10-04T13:40:56.729Z</time>
      </trkpt>
      <trkpt lat="44.03483" lon="1.87631">
        <ele>285</ele>
        <time>2020-10-04T13:40:57.729Z</time>
      </trkpt>
      <trkpt lat="44.03483" lon="1.87631">
        <ele>285</ele>
        <time>2020-10-04T13:40:58.729Z</time>
      </trkpt>
      <trkpt lat="44.03482" lon="1.87631">
        <ele>285</ele>
        <time>2020-10-04T13:40:59.729Z</time>
      </trkpt>
      <trkpt lat="44.03481" lon="1.8763">
        <ele>285</ele>
        <time>2020-10-04T13:41:00.729Z</time>
      </trkpt>
      <trkpt lat="44.0348" lon="1.87629">
        <ele>285</ele>
        <time>2020-10-04T13:41:01.729Z</time>
      </trkpt>
      <trkpt lat="44.03479" lon="1.87629">
        <ele>285</ele>
        <time>2020-10-04T13:41:02.729Z</time>
      </trkpt>
      <trkpt lat="44.03478" lon="1.87628">
        <ele>285</ele>
        <time>2020-10-04T13:41:03.729Z</time>
      </trkpt>
      <trkpt lat="44.03477" lon="1.87627">
        <ele>285</ele>
        <time>2020-10-04T13:41:04.729Z</time>
      </trkpt>
      <trkpt lat="44.03476" lon="1.87627">
        <ele>285</ele>
        <time>2020-10-04T13:41:05.729Z</time>
      </trkpt>
      <trkpt lat="44.03475" lon="1.87626">
        <ele>285</ele>
        <time>2020-10-04T13:41:06.729Z</time>
      </trkpt>
      <trkpt lat="44.03474" lon="1.87625">
        <ele>285</ele>
        <time>2020-10-04T13:41:07.729Z</time>
      </trkpt>
      <trkpt lat="44.03473" lon="1.87625">
        <ele>285</ele>
        <time>2020-10-04T13:41:08.729Z</time>
      </trkpt>
      <trkpt lat="44.03472" lon="1.87624">
        <ele>285</ele>
        <time>2020-10-04T13:41:09.729Z</time>
      </trkpt>
      <trkpt lat="44.03471" lon="1.87623">
        <ele>286</ele>
        <time>2020-10-04T13:41:10.729Z</time>
      </trkpt>
      <trkpt lat="44.0347" lon="1.87622">
        <ele>286</ele>
        <time>2020-10-04T13:41:11.729Z</time>
      </trkpt>
      <trkpt lat="44.03469" lon="1.87621">
        <ele>286</ele>
        <time>2020-10-04T13:41:12.729Z</time>
      </trkpt>
      <trkpt lat="44.03467" lon="1.87621">
        <ele>286</ele>
        <time>2020-10-04T13:41:13.729Z</time>
      </trkpt>
      <trkpt lat="44.03466" lon="1.8762">
        <ele>286</ele>
        <time>2020-10-04T13:41:14.729Z</time>
      </trkpt>
      <trkpt lat="44.03465" lon="1.87619">
        <ele>286</ele>
        <time>2020-10-04T13:41:15.729Z</time>
      </trkpt>
      <trkpt lat="44.03464" lon="1.87618">
        <ele>286</ele>
        <time>2020-10-04T13:41:16.729Z</time>
      </trkpt>
      <trkpt lat="44.03463" lon="1.87617">
        <ele>286</ele>
        <time>2020-10-04T13:41:17.729Z</time>
      </trkpt>
      <trkpt lat="44.03461" lon="1.87616">
        <ele>286</ele>
        <time>2020-10-04T13:41:18.729Z</time>
      </trkpt>
      <trkpt lat="44.0346" lon="1.87615">
        <ele>286</ele>
        <time>2020-10-04T13:41:19.729Z</time>
      </trkpt>
      <trkpt lat="44.03459" lon="1.87615">
        <ele>286</ele>
        <time>2020-10-04T13:41:20.729Z</time>
      </trkpt>
      <trkpt lat="44.03458" lon="1.87614">
        <ele>286</ele>
        <time>2020-10-04T13:41:21.729Z</time>
      </trkpt>
      <trkpt lat="44.03457" lon="1.87613">
        <ele>287</ele>
        <time>2020-10-04T13:41:22.729Z</time>
      </trkpt>
      <trkpt lat="44.03456" lon="1.87612">
        <ele>287</ele>
        <time>2020-10-04T13:41:23.729Z</time>
      </trkpt>
      <trkpt lat="44.03455" lon="1.87611">
        <ele>287</ele>
        <time>2020-10-04T13:41:24.729Z</time>
      </trkpt>
      <trkpt lat="44.03453" lon="1.8761">
        <ele>287</ele>
        <time>2020-10-04T13:41:25.729Z</time>
      </trkpt>
      <trkpt lat="44.03452" lon="1.8761">
        <ele>287</ele>
        <time>2020-10-04T13:41:26.729Z</time>
      </trkpt>
      <trkpt lat="44.03451" lon="1.87609">
        <ele>287</ele>
        <time>2020-10-04T13:41:27.729Z</time>
      </trkpt>
      <trkpt lat="44.0345" lon="1.87608">
        <ele>287</ele>
        <time>2020-10-04T13:41:28.729Z</time>
      </trkpt>
      <trkpt lat="44.03449" lon="1.87608">
        <ele>287</ele>
        <time>2020-10-04T13:41:29.729Z</time>
      </trkpt>
      <trkpt lat="44.03448" lon="1.87607">
        <ele>287</ele>
        <time>2020-10-04T13:41:30.729Z</time>
      </trkpt>
      <trkpt lat="44.03447" lon="1.87606">
        <ele>287</ele>
        <time>2020-10-04T13:41:31.729Z</time>
      </trkpt>
      <trkpt lat="44.03446" lon="1.87605">
        <ele>287</ele>
        <time>2020-10-04T13:41:32.729Z</time>
      </trkpt>
      <trkpt lat="44.03445" lon="1.87605">
        <ele>287</ele>
        <time>2020-10-04T13:41:33.729Z</time>
      </trkpt>
      <trkpt lat="44.03444" lon="1.87604">
        <ele>287</ele>
        <time>2020-10-04T13:41:34.729Z</time>
      </trkpt>
      <trkpt lat="44.03442" lon="1.87604">
        <ele>288</ele>
        <time>2020-10-04T13:41:35.729Z</time>
      </trkpt>
      <trkpt lat="44.03441" lon="1.87603">
        <ele>288</ele>
        <time>2020-10-04T13:41:36.729Z</time>
      </trkpt>
      <trkpt lat="44.0344" lon="1.87602">
        <ele>288</ele>
        <time>2020-10-04T13:41:37.729Z</time>
      </trkpt>
      <trkpt lat="44.03439" lon="1.87602">
        <ele>288</ele>
        <time>2020-10-04T13:41:38.729Z</time>
      </trkpt>
      <trkpt lat="44.03438" lon="1.87601">
        <ele>288</ele>
        <time>2020-10-04T13:41:39.729Z</time>
      </trkpt>
      <trkpt lat="44.03437" lon="1.876">
        <ele>288</ele>
        <time>2020-10-04T13:41:40.729Z</time>
      </trkpt>
      <trkpt lat="44.03436" lon="1.876">
        <ele>288</ele>
        <time>2020-10-04T13:41:41.729Z</time>
      </trkpt>
      <trkpt lat="44.03435" lon="1.87599">
        <ele>288</ele>
        <time>2020-10-04T13:41:42.729Z</time>
      </trkpt>
      <trkpt lat="44.03434" lon="1.87598">
        <ele>288</ele>
        <time>2020-10-04T13:41:43.729Z</time>
      </trkpt>
      <trkpt lat="44.03433" lon="1.87598">
        <ele>288</ele>
        <time>2020-10-04T13:41:44.729Z</time>
      </trkpt>
      <trkpt lat="44.03432" lon="1.87597">
        <ele>288</ele>
        <time>2020-10-04T13:41:45.729Z</time>
      </trkpt>
      <trkpt lat="44.03431" lon="1.87596">
        <ele>288</ele>
        <time>2020-10-04T13:41:46.729Z</time>
      </trkpt>
      <trkpt lat="44.0343" lon="1.87595">
        <ele>288</ele>
        <time>2020-10-04T13:41:47.729Z</time>
      </trkpt>
      <trkpt lat="44.03429" lon="1.87595">
        <ele>288</ele>
        <time>2020-10-04T13:41:48.729Z</time>
      </trkpt>
      <trkpt lat="44.03428" lon="1.87594">
        <ele>288</ele>
        <time>2020-10-04T13:41:49.729Z</time>
      </trkpt>
      <trkpt lat="44.03428" lon="1.87593">
        <ele>288</ele>
        <time>2020-10-04T13:41:50.729Z</time>
      </trkpt>
      <trkpt lat="44.03427" lon="1.87593">
        <ele>288</ele>
        <time>2020-10-04T13:41:51.729Z</time>
      </trkpt>
      <trkpt lat="44.03426" lon="1.87592">
        <ele>288</ele>
        <time>2020-10-04T13:41:52.729Z</time>
      </trkpt>
      <trkpt lat="44.03425" lon="1.87591">
        <ele>289</ele>
        <time>2020-10-04T13:41:53.729Z</time>
      </trkpt>
      <trkpt lat="44.03424" lon="1.8759">
        <ele>289</ele>
        <time>2020-10-04T13:41:54.729Z</time>
      </trkpt>
      <trkpt lat="44.03423" lon="1.87589">
        <ele>289</ele>
        <time>2020-10-04T13:41:55.729Z</time>
      </trkpt>
      <trkpt lat="44.03422" lon="1.87588">
        <ele>289</ele>
        <time>2020-10-04T13:41:56.729Z</time>
      </trkpt>
      <trkpt lat="44.03422" lon="1.87586">
        <ele>289</ele>
        <time>2020-10-04T13:41:57.729Z</time>
      </trkpt>
      <trkpt lat="44.03421" lon="1.87585">
        <ele>289</ele>
        <time>2020-10-04T13:41:58.729Z</time>
      </trkpt>
      <trkpt lat="44.0342" lon="1.87584">
        <ele>289</ele>
        <time>2020-10-04T13:41:59.729Z</time>
      </trkpt>
      <trkpt lat="44.0342" lon="1.87583">
        <ele>289</ele>
        <time>2020-10-04T13:42:00.729Z</time>
      </trkpt>
      <trkpt lat="44.03419" lon="1.87581">
        <ele>289</ele>
        <time>2020-10-04T13:42:01.729Z</time>
      </trkpt>
      <trkpt lat="44.03419" lon="1.8758">
        <ele>289</ele>
        <time>2020-10-04T13:42:02.729Z</time>
      </trkpt>
      <trkpt lat="44.03418" lon="1.87579">
        <ele>289</ele>
        <time>2020-10-04T13:42:03.729Z</time>
      </trkpt>
      <trkpt lat="44.03418" lon="1.87577">
        <ele>289</ele>
        <time>2020-10-04T13:42:04.729Z</time>
      </trkpt>
      <trkpt lat="44.03418" lon="1.87577">
        <ele>289</ele>
        <time>2020-10-04T13:42:05.729Z</time>
      </trkpt>
      <trkpt lat="44.03418" lon="1.87576">
        <ele>289</ele>
        <time>2020-10-04T13:42:06.729Z</time>
      </trkpt>
      <trkpt lat="44.03418" lon="1.87575">
        <ele>289</ele>
        <time>2020-10-04T13:42:07.729Z</time>
      </trkpt>
      <trkpt lat="44.03418" lon="1.87575">
        <ele>289</ele>
        <time>2020-10-04T13:42:08.729Z</time>
      </trkpt>
      <trkpt lat="44.03418" lon="1.87574">
        <ele>289</ele>
        <time>2020-10-04T13:42:09.729Z</time>
      </trkpt>
      <trkpt lat="44.03418" lon="1.87574">
        <ele>289</ele>
        <time>2020-10-04T13:42:10.729Z</time>
      </trkpt>
      <trkpt lat="44.03417" lon="1.87573">
        <ele>289</ele>
        <time>2020-10-04T13:42:11.729Z</time>
      </trkpt>
      <trkpt lat="44.03417" lon="1.87572">
        <ele>289</ele>
        <time>2020-10-04T13:42:12.729Z</time>
      </trkpt>
      <trkpt lat="44.03417" lon="1.8757">
        <ele>289</ele>
        <time>2020-10-04T13:42:13.729Z</time>
      </trkpt>
      <trkpt lat="44.03417" lon="1.87569">
        <ele>289</ele>
        <time>2020-10-04T13:42:14.729Z</time>
      </trkpt>
      <trkpt lat="44.03416" lon="1.87568">
        <ele>289</ele>
        <time>2020-10-04T13:42:15.729Z</time>
      </trkpt>
      <trkpt lat="44.03416" lon="1.87567">
        <ele>289</ele>
        <time>2020-10-04T13:42:16.729Z</time>
      </trkpt>
      <trkpt lat="44.03416" lon="1.87565">
        <ele>289</ele>
        <time>2020-10-04T13:42:17.729Z</time>
      </trkpt>
      <trkpt lat="44.03416" lon="1.87564">
        <ele>289</ele>
        <time>2020-10-04T13:42:18.729Z</time>
      </trkpt>
      <trkpt lat="44.03415" lon="1.87563">
        <ele>289</ele>
        <time>2020-10-04T13:42:19.729Z</time>
      </trkpt>
      <trkpt lat="44.03415" lon="1.87561">
        <ele>289</ele>
        <time>2020-10-04T13:42:20.729Z</time>
      </trkpt>
      <trkpt lat="44.03415" lon="1.8756">
        <ele>289</ele>
        <time>2020-10-04T13:42:21.729Z</time>
      </trkpt>
      <trkpt lat="44.03415" lon="1.87558">
        <ele>289</ele>
        <time>2020-10-04T13:42:22.729Z</time>
      </trkpt>
      <trkpt lat="44.03414" lon="1.87557">
        <ele>289</ele>
        <time>2020-10-04T13:42:23.729Z</time>
      </trkpt>
      <trkpt lat="44.03414" lon="1.87556">
        <ele>289</ele>
        <time>2020-10-04T13:42:24.729Z</time>
      </trkpt>
      <trkpt lat="44.03414" lon="1.87554">
        <ele>289</ele>
        <time>2020-10-04T13:42:25.729Z</time>
      </trkpt>
      <trkpt lat="44.03413" lon="1.87553">
        <ele>289</ele>
        <time>2020-10-04T13:42:26.729Z</time>
      </trkpt>
      <trkpt lat="44.03413" lon="1.87552">
        <ele>289</ele>
        <time>2020-10-04T13:42:27.729Z</time>
      </trkpt>
      <trkpt lat="44.03413" lon="1.8755">
        <ele>289</ele>
        <time>2020-10-04T13:42:28.729Z</time>
      </trkpt>
      <trkpt lat="44.03412" lon="1.87549">
        <ele>290</ele>
        <time>2020-10-04T13:42:29.729Z</time>
      </trkpt>
      <trkpt lat="44.03412" lon="1.87548">
        <ele>290</ele>
        <time>2020-10-04T13:42:30.729Z</time>
      </trkpt>
      <trkpt lat="44.03412" lon="1.87546">
        <ele>290</ele>
        <time>2020-10-04T13:42:31.729Z</time>
      </trkpt>
      <trkpt lat="44.03411" lon="1.87545">
        <ele>290</ele>
        <time>2020-10-04T13:42:32.729Z</time>
      </trkpt>
      <trkpt lat="44.03411" lon="1.87544">
        <ele>290</ele>
        <time>2020-10-04T13:42:33.729Z</time>
      </trkpt>
      <trkpt lat="44.03411" lon="1.87542">
        <ele>290</ele>
        <time>2020-10-04T13:42:34.729Z</time>
      </trkpt>
      <trkpt lat="44.0341" lon="1.87541">
        <ele>290</ele>
        <time>2020-10-04T13:42:35.729Z</time>
      </trkpt>
      <trkpt lat="44.0341" lon="1.8754">
        <ele>290</ele>
        <time>2020-10-04T13:42:36.729Z</time>
      </trkpt>
      <trkpt lat="44.03409" lon="1.87538">
        <ele>290</ele>
        <time>2020-10-04T13:42:37.729Z</time>
      </trkpt>
      <trkpt lat="44.03409" lon="1.87537">
        <ele>290</ele>
        <time>2020-10-04T13:42:38.729Z</time>
      </trkpt>
      <trkpt lat="44.03409" lon="1.87536">
        <ele>290</ele>
        <time>2020-10-04T13:42:39.729Z</time>
      </trkpt>
      <trkpt lat="44.03408" lon="1.87534">
        <ele>290</ele>
        <time>2020-10-04T13:42:40.729Z</time>
      </trkpt>
      <trkpt lat="44.03408" lon="1.87532">
        <ele>291</ele>
        <time>2020-10-04T13:42:41.729Z</time>
      </trkpt>
      <trkpt lat="44.03408" lon="1.87531">
        <ele>291</ele>
        <time>2020-10-04T13:42:42.729Z</time>
      </trkpt>
      <trkpt lat="44.03407" lon="1.8753">
        <ele>291</ele>
        <time>2020-10-04T13:42:43.729Z</time>
      </trkpt>
      <trkpt lat="44.03407" lon="1.87529">
        <ele>291</ele>
        <time>2020-10-04T13:42:44.729Z</time>
      </trkpt>
      <trkpt lat="44.03406" lon="1.87527">
        <ele>291</ele>
        <time>2020-10-04T13:42:45.729Z</time>
      </trkpt>
      <trkpt lat="44.03406" lon="1.87526">
        <ele>291</ele>
        <time>2020-10-04T13:42:46.729Z</time>
      </trkpt>
      <trkpt lat="44.03405" lon="1.87524">
        <ele>291</ele>
        <time>2020-10-04T13:42:47.729Z</time>
      </trkpt>
      <trkpt lat="44.03405" lon="1.87523">
        <ele>291</ele>
        <time>2020-10-04T13:42:48.729Z</time>
      </trkpt>
      <trkpt lat="44.03405" lon="1.87522">
        <ele>291</ele>
        <time>2020-10-04T13:42:49.729Z</time>
      </trkpt>
      <trkpt lat="44.03404" lon="1.8752">
        <ele>291</ele>
        <time>2020-10-04T13:42:50.729Z</time>
      </trkpt>
      <trkpt lat="44.03404" lon="1.87519">
        <ele>291</ele>
        <time>2020-10-04T13:42:51.729Z</time>
      </trkpt>
      <trkpt lat="44.03403" lon="1.87518">
        <ele>291</ele>
        <time>2020-10-04T13:42:52.729Z</time>
      </trkpt>
      <trkpt lat="44.03403" lon="1.87516">
        <ele>291</ele>
        <time>2020-10-04T13:42:53.729Z</time>
      </trkpt>
      <trkpt lat="44.03402" lon="1.87515">
        <ele>291</ele>
        <time>2020-10-04T13:42:54.729Z</time>
      </trkpt>
      <trkpt lat="44.03402" lon="1.87513">
        <ele>291</ele>
        <time>2020-10-04T13:42:55.729Z</time>
      </trkpt>
      <trkpt lat="44.03401" lon="1.87512">
        <ele>291</ele>
        <time>2020-10-04T13:42:56.729Z</time>
      </trkpt>
      <trkpt lat="44.03401" lon="1.87511">
        <ele>291</ele>
        <time>2020-10-04T13:42:57.729Z</time>
      </trkpt>
      <trkpt lat="44.03401" lon="1.8751">
        <ele>291</ele>
        <time>2020-10-04T13:42:58.729Z</time>
      </trkpt>
      <trkpt lat="44.034" lon="1.87509">
        <ele>291</ele>
        <time>2020-10-04T13:42:59.729Z</time>
      </trkpt>
      <trkpt lat="44.03399" lon="1.87507">
        <ele>291</ele>
        <time>2020-10-04T13:43:00.729Z</time>
      </trkpt>
      <trkpt lat="44.03399" lon="1.87506">
        <ele>291</ele>
        <time>2020-10-04T13:43:01.729Z</time>
      </trkpt>
      <trkpt lat="44.03398" lon="1.87505">
        <ele>291</ele>
        <time>2020-10-04T13:43:02.729Z</time>
      </trkpt>
      <trkpt lat="44.03398" lon="1.87504">
        <ele>291</ele>
        <time>2020-10-04T13:43:03.729Z</time>
      </trkpt>
      <trkpt lat="44.03397" lon="1.87502">
        <ele>291</ele>
        <time>2020-10-04T13:43:04.729Z</time>
      </trkpt>
      <trkpt lat="44.03396" lon="1.87501">
        <ele>292</ele>
        <time>2020-10-04T13:43:05.729Z</time>
      </trkpt>
      <trkpt lat="44.03396" lon="1.875">
        <ele>292</ele>
        <time>2020-10-04T13:43:06.729Z</time>
      </trkpt>
      <trkpt lat="44.03395" lon="1.87498">
        <ele>292</ele>
        <time>2020-10-04T13:43:07.729Z</time>
      </trkpt>
      <trkpt lat="44.03394" lon="1.87497">
        <ele>292</ele>
        <time>2020-10-04T13:43:08.729Z</time>
      </trkpt>
      <trkpt lat="44.03394" lon="1.87496">
        <ele>292</ele>
        <time>2020-10-04T13:43:09.729Z</time>
      </trkpt>
      <trkpt lat="44.03393" lon="1.87495">
        <ele>292</ele>
        <time>2020-10-04T13:43:10.729Z</time>
      </trkpt>
      <trkpt lat="44.03393" lon="1.87493">
        <ele>292</ele>
        <time>2020-10-04T13:43:11.729Z</time>
      </trkpt>
      <trkpt lat="44.03392" lon="1.87492">
        <ele>293</ele>
        <time>2020-10-04T13:43:12.729Z</time>
      </trkpt>
      <trkpt lat="44.03392" lon="1.87491">
        <ele>293</ele>
        <time>2020-10-04T13:43:13.729Z</time>
      </trkpt>
      <trkpt lat="44.03391" lon="1.8749">
        <ele>293</ele>
        <time>2020-10-04T13:43:14.729Z</time>
      </trkpt>
      <trkpt lat="44.0339" lon="1.87489">
        <ele>293</ele>
        <time>2020-10-04T13:43:15.729Z</time>
      </trkpt>
      <trkpt lat="44.0339" lon="1.87487">
        <ele>293</ele>
        <time>2020-10-04T13:43:16.729Z</time>
      </trkpt>
      <trkpt lat="44.03389" lon="1.87486">
        <ele>293</ele>
        <time>2020-10-04T13:43:17.729Z</time>
      </trkpt>
      <trkpt lat="44.03389" lon="1.87485">
        <ele>293</ele>
        <time>2020-10-04T13:43:18.729Z</time>
      </trkpt>
      <trkpt lat="44.03388" lon="1.87484">
        <ele>293</ele>
        <time>2020-10-04T13:43:19.729Z</time>
      </trkpt>
      <trkpt lat="44.03388" lon="1.87482">
        <ele>293</ele>
        <time>2020-10-04T13:43:20.729Z</time>
      </trkpt>
      <trkpt lat="44.03388" lon="1.87481">
        <ele>293</ele>
        <time>2020-10-04T13:43:21.729Z</time>
      </trkpt>
      <trkpt lat="44.03388" lon="1.87479">
        <ele>293</ele>
        <time>2020-10-04T13:43:22.729Z</time>
      </trkpt>
      <trkpt lat="44.03388" lon="1.87478">
        <ele>293</ele>
        <time>2020-10-04T13:43:23.729Z</time>
      </trkpt>
      <trkpt lat="44.03388" lon="1.87477">
        <ele>293</ele>
        <time>2020-10-04T13:43:24.729Z</time>
      </trkpt>
      <trkpt lat="44.03387" lon="1.87475">
        <ele>293</ele>
        <time>2020-10-04T13:43:25.729Z</time>
      </trkpt>
      <trkpt lat="44.03387" lon="1.87474">
        <ele>293</ele>
        <time>2020-10-04T13:43:26.729Z</time>
      </trkpt>
      <trkpt lat="44.03386" lon="1.87472">
        <ele>293</ele>
        <time>2020-10-04T13:43:27.729Z</time>
      </trkpt>
      <trkpt lat="44.03386" lon="1.87471">
        <ele>293</ele>
        <time>2020-10-04T13:43:28.729Z</time>
      </trkpt>
      <trkpt lat="44.03386" lon="1.8747">
        <ele>293</ele>
        <time>2020-10-04T13:43:29.729Z</time>
      </trkpt>
      <trkpt lat="44.03385" lon="1.87468">
        <ele>293</ele>
        <time>2020-10-04T13:43:30.729Z</time>
      </trkpt>
      <trkpt lat="44.03385" lon="1.87467">
        <ele>293</ele>
        <time>2020-10-04T13:43:31.729Z</time>
      </trkpt>
      <trkpt lat="44.03385" lon="1.87466">
        <ele>293</ele>
        <time>2020-10-04T13:43:32.729Z</time>
      </trkpt>
      <trkpt lat="44.03384" lon="1.87465">
        <ele>293</ele>
        <time>2020-10-04T13:43:33.729Z</time>
      </trkpt>
      <trkpt lat="44.03384" lon="1.87464">
        <ele>293</ele>
        <time>2020-10-04T13:43:34.729Z</time>
      </trkpt>
      <trkpt lat="44.03383" lon="1.87463">
        <ele>293</ele>
        <time>2020-10-04T13:43:35.729Z</time>
      </trkpt>
      <trkpt lat="44.03383" lon="1.87462">
        <ele>293</ele>
        <time>2020-10-04T13:43:36.729Z</time>
      </trkpt>
      <trkpt lat="44.03382" lon="1.8746">
        <ele>293</ele>
        <time>2020-10-04T13:43:37.729Z</time>
      </trkpt>
      <trkpt lat="44.03382" lon="1.87459">
        <ele>293</ele>
        <time>2020-10-04T13:43:38.729Z</time>
      </trkpt>
      <trkpt lat="44.03381" lon="1.87458">
        <ele>293</ele>
        <time>2020-10-04T13:43:39.729Z</time>
      </trkpt>
      <trkpt lat="44.03381" lon="1.87457">
        <ele>293</ele>
        <time>2020-10-04T13:43:40.729Z</time>
      </trkpt>
      <trkpt lat="44.0338" lon="1.87455">
        <ele>293</ele>
        <time>2020-10-04T13:43:41.729Z</time>
      </trkpt>
      <trkpt lat="44.0338" lon="1.87454">
        <ele>293</ele>
        <time>2020-10-04T13:43:42.729Z</time>
      </trkpt>
      <trkpt lat="44.03379" lon="1.87452">
        <ele>293</ele>
        <time>2020-10-04T13:43:43.729Z</time>
      </trkpt>
      <trkpt lat="44.03379" lon="1.87451">
        <ele>293</ele>
        <time>2020-10-04T13:43:44.729Z</time>
      </trkpt>
      <trkpt lat="44.03378" lon="1.8745">
        <ele>293</ele>
        <time>2020-10-04T13:43:45.729Z</time>
      </trkpt>
      <trkpt lat="44.03378" lon="1.87448">
        <ele>293</ele>
        <time>2020-10-04T13:43:46.729Z</time>
      </trkpt>
      <trkpt lat="44.03377" lon="1.87447">
        <ele>294</ele>
        <time>2020-10-04T13:43:47.729Z</time>
      </trkpt>
      <trkpt lat="44.03376" lon="1.87445">
        <ele>294</ele>
        <time>2020-10-04T13:43:48.729Z</time>
      </trkpt>
      <trkpt lat="44.03376" lon="1.87444">
        <ele>294</ele>
        <time>2020-10-04T13:43:49.729Z</time>
      </trkpt>
      <trkpt lat="44.03376" lon="1.87443">
        <ele>294</ele>
        <time>2020-10-04T13:43:50.729Z</time>
      </trkpt>
      <trkpt lat="44.03375" lon="1.87441">
        <ele>294</ele>
        <time>2020-10-04T13:43:51.729Z</time>
      </trkpt>
      <trkpt lat="44.03374" lon="1.8744">
        <ele>294</ele>
        <time>2020-10-04T13:43:52.729Z</time>
      </trkpt>
      <trkpt lat="44.03374" lon="1.87439">
        <ele>294</ele>
        <time>2020-10-04T13:43:53.729Z</time>
      </trkpt>
      <trkpt lat="44.03373" lon="1.87437">
        <ele>294</ele>
        <time>2020-10-04T13:43:54.729Z</time>
      </trkpt>
      <trkpt lat="44.03373" lon="1.87436">
        <ele>294</ele>
        <time>2020-10-04T13:43:55.729Z</time>
      </trkpt>
      <trkpt lat="44.03372" lon="1.87435">
        <ele>295</ele>
        <time>2020-10-04T13:43:56.729Z</time>
      </trkpt>
      <trkpt lat="44.03372" lon="1.87434">
        <ele>295</ele>
        <time>2020-10-04T13:43:57.729Z</time>
      </trkpt>
      <trkpt lat="44.03371" lon="1.87433">
        <ele>295</ele>
        <time>2020-10-04T13:43:58.729Z</time>
      </trkpt>
      <trkpt lat="44.0337" lon="1.87432">
        <ele>295</ele>
        <time>2020-10-04T13:43:59.729Z</time>
      </trkpt>
      <trkpt lat="44.0337" lon="1.87431">
        <ele>295</ele>
        <time>2020-10-04T13:44:00.729Z</time>
      </trkpt>
      <trkpt lat="44.03369" lon="1.8743">
        <ele>295</ele>
        <time>2020-10-04T13:44:01.729Z</time>
      </trkpt>
      <trkpt lat="44.03369" lon="1.87428">
        <ele>295</ele>
        <time>2020-10-04T13:44:02.729Z</time>
      </trkpt>
      <trkpt lat="44.03369" lon="1.87426">
        <ele>295</ele>
        <time>2020-10-04T13:44:03.729Z</time>
      </trkpt>
      <trkpt lat="44.03368" lon="1.87425">
        <ele>295</ele>
        <time>2020-10-04T13:44:04.729Z</time>
      </trkpt>
      <trkpt lat="44.03368" lon="1.87423">
        <ele>295</ele>
        <time>2020-10-04T13:44:05.729Z</time>
      </trkpt>
      <trkpt lat="44.03367" lon="1.87422">
        <ele>295</ele>
        <time>2020-10-04T13:44:06.729Z</time>
      </trkpt>
      <trkpt lat="44.03366" lon="1.87421">
        <ele>296</ele>
        <time>2020-10-04T13:44:07.729Z</time>
      </trkpt>
      <trkpt lat="44.03366" lon="1.87419">
        <ele>296</ele>
        <time>2020-10-04T13:44:08.729Z</time>
      </trkpt>
      <trkpt lat="44.03365" lon="1.87417">
        <ele>296</ele>
        <time>2020-10-04T13:44:09.729Z</time>
      </trkpt>
      <trkpt lat="44.03364" lon="1.87416">
        <ele>296</ele>
        <time>2020-10-04T13:44:10.729Z</time>
      </trkpt>
      <trkpt lat="44.03364" lon="1.87415">
        <ele>296</ele>
        <time>2020-10-04T13:44:11.729Z</time>
      </trkpt>
      <trkpt lat="44.03364" lon="1.87414">
        <ele>296</ele>
        <time>2020-10-04T13:44:12.729Z</time>
      </trkpt>
      <trkpt lat="44.03363" lon="1.87414">
        <ele>296</ele>
        <time>2020-10-04T13:44:13.729Z</time>
      </trkpt>
      <trkpt lat="44.03362" lon="1.87413">
        <ele>296</ele>
        <time>2020-10-04T13:44:14.729Z</time>
      </trkpt>
      <trkpt lat="44.03362" lon="1.87412">
        <ele>297</ele>
        <time>2020-10-04T13:44:15.729Z</time>
      </trkpt>
      <trkpt lat="44.03361" lon="1.8741">
        <ele>297</ele>
        <time>2020-10-04T13:44:16.729Z</time>
      </trkpt>
      <trkpt lat="44.03361" lon="1.87409">
        <ele>297</ele>
        <time>2020-10-04T13:44:17.729Z</time>
      </trkpt>
      <trkpt lat="44.0336" lon="1.87408">
        <ele>297</ele>
        <time>2020-10-04T13:44:18.729Z</time>
      </trkpt>
      <trkpt lat="44.03359" lon="1.87406">
        <ele>297</ele>
        <time>2020-10-04T13:44:19.729Z</time>
      </trkpt>
      <trkpt lat="44.03359" lon="1.87405">
        <ele>297</ele>
        <time>2020-10-04T13:44:20.729Z</time>
      </trkpt>
      <trkpt lat="44.03358" lon="1.87404">
        <ele>298</ele>
        <time>2020-10-04T13:44:21.729Z</time>
      </trkpt>
      <trkpt lat="44.03358" lon="1.87402">
        <ele>298</ele>
        <time>2020-10-04T13:44:22.729Z</time>
      </trkpt>
      <trkpt lat="44.03357" lon="1.87402">
        <ele>298</ele>
        <time>2020-10-04T13:44:23.729Z</time>
      </trkpt>
      <trkpt lat="44.03356" lon="1.87401">
        <ele>298</ele>
        <time>2020-10-04T13:44:24.729Z</time>
      </trkpt>
      <trkpt lat="44.03355" lon="1.874">
        <ele>298</ele>
        <time>2020-10-04T13:44:25.729Z</time>
      </trkpt>
      <trkpt lat="44.03355" lon="1.87398">
        <ele>298</ele>
        <time>2020-10-04T13:44:26.729Z</time>
      </trkpt>
      <trkpt lat="44.03354" lon="1.87397">
        <ele>298</ele>
        <time>2020-10-04T13:44:27.729Z</time>
      </trkpt>
      <trkpt lat="44.03354" lon="1.87396">
        <ele>298</ele>
        <time>2020-10-04T13:44:28.729Z</time>
      </trkpt>
      <trkpt lat="44.03353" lon="1.87396">
        <ele>298</ele>
        <time>2020-10-04T13:44:29.729Z</time>
      </trkpt>
      <trkpt lat="44.03353" lon="1.87395">
        <ele>297</ele>
        <time>2020-10-04T13:44:30.729Z</time>
      </trkpt>
      <trkpt lat="44.03353" lon="1.87394">
        <ele>297</ele>
        <time>2020-10-04T13:44:31.729Z</time>
      </trkpt>
      <trkpt lat="44.03353" lon="1.87393">
        <ele>297</ele>
        <time>2020-10-04T13:44:32.729Z</time>
      </trkpt>
      <trkpt lat="44.03353" lon="1.87393">
        <ele>297</ele>
        <time>2020-10-04T13:44:33.729Z</time>
      </trkpt>
      <trkpt lat="44.03353" lon="1.87393">
        <ele>297</ele>
        <time>2020-10-04T13:44:34.729Z</time>
      </trkpt>
      <trkpt lat="44.03353" lon="1.87393">
        <ele>297</ele>
        <time>2020-10-04T13:44:35.729Z</time>
      </trkpt>
      <trkpt lat="44.03352" lon="1.87392">
        <ele>296</ele>
        <time>2020-10-04T13:44:36.729Z</time>
      </trkpt>
      <trkpt lat="44.03351" lon="1.87392">
        <ele>296</ele>
        <time>2020-10-04T13:44:37.729Z</time>
      </trkpt>
      <trkpt lat="44.03351" lon="1.87392">
        <ele>296</ele>
        <time>2020-10-04T13:44:38.729Z</time>
      </trkpt>
      <trkpt lat="44.0335" lon="1.87391">
        <ele>296</ele>
        <time>2020-10-04T13:44:39.729Z</time>
      </trkpt>
      <trkpt lat="44.0335" lon="1.87391">
        <ele>296</ele>
        <time>2020-10-04T13:44:40.729Z</time>
      </trkpt>
      <trkpt lat="44.0335" lon="1.87391">
        <ele>296</ele>
        <time>2020-10-04T13:44:41.729Z</time>
      </trkpt>
      <trkpt lat="44.0335" lon="1.87391">
        <ele>296</ele>
        <time>2020-10-04T13:44:42.729Z</time>
      </trkpt>
      <trkpt lat="44.0335" lon="1.87391">
        <ele>296</ele>
        <time>2020-10-04T13:44:43.729Z</time>
      </trkpt>
      <trkpt lat="44.0335" lon="1.87392">
        <ele>295</ele>
        <time>2020-10-04T13:44:44.729Z</time>
      </trkpt>
      <trkpt lat="44.0335" lon="1.87393">
        <ele>295</ele>
        <time>2020-10-04T13:44:45.729Z</time>
      </trkpt>
      <trkpt lat="44.03349" lon="1.87394">
        <ele>295</ele>
        <time>2020-10-04T13:44:46.729Z</time>
      </trkpt>
      <trkpt lat="44.03348" lon="1.87395">
        <ele>294</ele>
        <time>2020-10-04T13:44:47.729Z</time>
      </trkpt>
      <trkpt lat="44.03348" lon="1.87396">
        <ele>294</ele>
        <time>2020-10-04T13:44:48.729Z</time>
      </trkpt>
      <trkpt lat="44.03347" lon="1.87396">
        <ele>294</ele>
        <time>2020-10-04T13:44:49.729Z</time>
      </trkpt>
      <trkpt lat="44.03347" lon="1.87397">
        <ele>294</ele>
        <time>2020-10-04T13:44:50.729Z</time>
      </trkpt>
      <trkpt lat="44.03346" lon="1.87398">
        <ele>294</ele>
        <time>2020-10-04T13:44:51.729Z</time>
      </trkpt>
      <trkpt lat="44.03345" lon="1.87399">
        <ele>294</ele>
        <time>2020-10-04T13:44:52.729Z</time>
      </trkpt>
      <trkpt lat="44.03345" lon="1.874">
        <ele>294</ele>
        <time>2020-10-04T13:44:53.729Z</time>
      </trkpt>
      <trkpt lat="44.03344" lon="1.87401">
        <ele>294</ele>
        <time>2020-10-04T13:44:54.729Z</time>
      </trkpt>
      <trkpt lat="44.03343" lon="1.87402">
        <ele>294</ele>
        <time>2020-10-04T13:44:55.729Z</time>
      </trkpt>
      <trkpt lat="44.03342" lon="1.87403">
        <ele>294</ele>
        <time>2020-10-04T13:44:56.729Z</time>
      </trkpt>
      <trkpt lat="44.03342" lon="1.87404">
        <ele>294</ele>
        <time>2020-10-04T13:44:57.729Z</time>
      </trkpt>
      <trkpt lat="44.03341" lon="1.87405">
        <ele>294</ele>
        <time>2020-10-04T13:44:58.729Z</time>
      </trkpt>
      <trkpt lat="44.03341" lon="1.87406">
        <ele>294</ele>
        <time>2020-10-04T13:44:59.729Z</time>
      </trkpt>
      <trkpt lat="44.0334" lon="1.87408">
        <ele>294</ele>
        <time>2020-10-04T13:45:00.729Z</time>
      </trkpt>
      <trkpt lat="44.0334" lon="1.87409">
        <ele>294</ele>
        <time>2020-10-04T13:45:01.729Z</time>
      </trkpt>
      <trkpt lat="44.03339" lon="1.8741">
        <ele>294</ele>
        <time>2020-10-04T13:45:02.729Z</time>
      </trkpt>
      <trkpt lat="44.03338" lon="1.87411">
        <ele>294</ele>
        <time>2020-10-04T13:45:03.729Z</time>
      </trkpt>
      <trkpt lat="44.03338" lon="1.87412">
        <ele>294</ele>
        <time>2020-10-04T13:45:04.729Z</time>
      </trkpt>
      <trkpt lat="44.03337" lon="1.87413">
        <ele>294</ele>
        <time>2020-10-04T13:45:05.729Z</time>
      </trkpt>
      <trkpt lat="44.03337" lon="1.87414">
        <ele>294</ele>
        <time>2020-10-04T13:45:06.729Z</time>
      </trkpt>
      <trkpt lat="44.03336" lon="1.87415">
        <ele>294</ele>
        <time>2020-10-04T13:45:07.729Z</time>
      </trkpt>
      <trkpt lat="44.03336" lon="1.87416">
        <ele>294</ele>
        <time>2020-10-04T13:45:08.729Z</time>
      </trkpt>
      <trkpt lat="44.03335" lon="1.87417">
        <ele>294</ele>
        <time>2020-10-04T13:45:09.729Z</time>
      </trkpt>
      <trkpt lat="44.03335" lon="1.87419">
        <ele>294</ele>
        <time>2020-10-04T13:45:10.729Z</time>
      </trkpt>
      <trkpt lat="44.03334" lon="1.8742">
        <ele>294</ele>
        <time>2020-10-04T13:45:11.729Z</time>
      </trkpt>
      <trkpt lat="44.03334" lon="1.87421">
        <ele>294</ele>
        <time>2020-10-04T13:45:12.729Z</time>
      </trkpt>
      <trkpt lat="44.03333" lon="1.87422">
        <ele>294</ele>
        <time>2020-10-04T13:45:13.729Z</time>
      </trkpt>
      <trkpt lat="44.03333" lon="1.87423">
        <ele>294</ele>
        <time>2020-10-04T13:45:14.729Z</time>
      </trkpt>
      <trkpt lat="44.03332" lon="1.87424">
        <ele>294</ele>
        <time>2020-10-04T13:45:15.729Z</time>
      </trkpt>
      <trkpt lat="44.03332" lon="1.87424">
        <ele>294</ele>
        <time>2020-10-04T13:45:16.729Z</time>
      </trkpt>
      <trkpt lat="44.03332" lon="1.87425">
        <ele>294</ele>
        <time>2020-10-04T13:45:17.729Z</time>
      </trkpt>
      <trkpt lat="44.03331" lon="1.87425">
        <ele>294</ele>
        <time>2020-10-04T13:45:18.729Z</time>
      </trkpt>
      <trkpt lat="44.03331" lon="1.87426">
        <ele>294</ele>
        <time>2020-10-04T13:45:19.729Z</time>
      </trkpt>
      <trkpt lat="44.0333" lon="1.87427">
        <ele>294</ele>
        <time>2020-10-04T13:45:20.729Z</time>
      </trkpt>
      <trkpt lat="44.03329" lon="1.87428">
        <ele>294</ele>
        <time>2020-10-04T13:45:21.729Z</time>
      </trkpt>
      <trkpt lat="44.03329" lon="1.87429">
        <ele>294</ele>
        <time>2020-10-04T13:45:22.729Z</time>
      </trkpt>
      <trkpt lat="44.03328" lon="1.8743">
        <ele>294</ele>
        <time>2020-10-04T13:45:23.729Z</time>
      </trkpt>
      <trkpt lat="44.03327" lon="1.87431">
        <ele>294</ele>
        <time>2020-10-04T13:45:24.729Z</time>
      </trkpt>
      <trkpt lat="44.03326" lon="1.87432">
        <ele>294</ele>
        <time>2020-10-04T13:45:25.729Z</time>
      </trkpt>
      <trkpt lat="44.03325" lon="1.87433">
        <ele>294</ele>
        <time>2020-10-04T13:45:26.729Z</time>
      </trkpt>
      <trkpt lat="44.03324" lon="1.87434">
        <ele>294</ele>
        <time>2020-10-04T13:45:27.729Z</time>
      </trkpt>
      <trkpt lat="44.03324" lon="1.87435">
        <ele>294</ele>
        <time>2020-10-04T13:45:28.729Z</time>
      </trkpt>
      <trkpt lat="44.03323" lon="1.87436">
        <ele>294</ele>
        <time>2020-10-04T13:45:29.729Z</time>
      </trkpt>
      <trkpt lat="44.03322" lon="1.87437">
        <ele>294</ele>
        <time>2020-10-04T13:45:30.729Z</time>
      </trkpt>
      <trkpt lat="44.03321" lon="1.87438">
        <ele>294</ele>
        <time>2020-10-04T13:45:31.729Z</time>
      </trkpt>
      <trkpt lat="44.0332" lon="1.87439">
        <ele>294</ele>
        <time>2020-10-04T13:45:32.729Z</time>
      </trkpt>
      <trkpt lat="44.03319" lon="1.8744">
        <ele>295</ele>
        <time>2020-10-04T13:45:33.729Z</time>
      </trkpt>
      <trkpt lat="44.03318" lon="1.87442">
        <ele>295</ele>
        <time>2020-10-04T13:45:34.729Z</time>
      </trkpt>
      <trkpt lat="44.03317" lon="1.87443">
        <ele>295</ele>
        <time>2020-10-04T13:45:35.729Z</time>
      </trkpt>
      <trkpt lat="44.03316" lon="1.87443">
        <ele>295</ele>
        <time>2020-10-04T13:45:36.729Z</time>
      </trkpt>
      <trkpt lat="44.03315" lon="1.87444">
        <ele>295</ele>
        <time>2020-10-04T13:45:37.729Z</time>
      </trkpt>
      <trkpt lat="44.03314" lon="1.87445">
        <ele>295</ele>
        <time>2020-10-04T13:45:38.729Z</time>
      </trkpt>
      <trkpt lat="44.03313" lon="1.87446">
        <ele>295</ele>
        <time>2020-10-04T13:45:39.729Z</time>
      </trkpt>
      <trkpt lat="44.03312" lon="1.87447">
        <ele>295</ele>
        <time>2020-10-04T13:45:40.729Z</time>
      </trkpt>
      <trkpt lat="44.03311" lon="1.87447">
        <ele>295</ele>
        <time>2020-10-04T13:45:41.729Z</time>
      </trkpt>
      <trkpt lat="44.0331" lon="1.87448">
        <ele>295</ele>
        <time>2020-10-04T13:45:42.729Z</time>
      </trkpt>
      <trkpt lat="44.03309" lon="1.87449">
        <ele>295</ele>
        <time>2020-10-04T13:45:43.729Z</time>
      </trkpt>
      <trkpt lat="44.03307" lon="1.8745">
        <ele>295</ele>
        <time>2020-10-04T13:45:44.729Z</time>
      </trkpt>
      <trkpt lat="44.03306" lon="1.87451">
        <ele>295</ele>
        <time>2020-10-04T13:45:45.729Z</time>
      </trkpt>
      <trkpt lat="44.03305" lon="1.87452">
        <ele>295</ele>
        <time>2020-10-04T13:45:46.729Z</time>
      </trkpt>
      <trkpt lat="44.03304" lon="1.87453">
        <ele>295</ele>
        <time>2020-10-04T13:45:47.729Z</time>
      </trkpt>
      <trkpt lat="44.03302" lon="1.87453">
        <ele>295</ele>
        <time>2020-10-04T13:45:48.729Z</time>
      </trkpt>
      <trkpt lat="44.03301" lon="1.87454">
        <ele>295</ele>
        <time>2020-10-04T13:45:49.729Z</time>
      </trkpt>
      <trkpt lat="44.033" lon="1.87455">
        <ele>295</ele>
        <time>2020-10-04T13:45:50.729Z</time>
      </trkpt>
      <trkpt lat="44.03299" lon="1.87455">
        <ele>295</ele>
        <time>2020-10-04T13:45:51.729Z</time>
      </trkpt>
      <trkpt lat="44.03297" lon="1.87456">
        <ele>295</ele>
        <time>2020-10-04T13:45:52.729Z</time>
      </trkpt>
      <trkpt lat="44.03296" lon="1.87457">
        <ele>295</ele>
        <time>2020-10-04T13:45:53.729Z</time>
      </trkpt>
      <trkpt lat="44.03295" lon="1.87458">
        <ele>295</ele>
        <time>2020-10-04T13:45:54.729Z</time>
      </trkpt>
      <trkpt lat="44.03293" lon="1.87459">
        <ele>295</ele>
        <time>2020-10-04T13:45:55.729Z</time>
      </trkpt>
      <trkpt lat="44.03292" lon="1.8746">
        <ele>295</ele>
        <time>2020-10-04T13:45:56.729Z</time>
      </trkpt>
      <trkpt lat="44.03291" lon="1.8746">
        <ele>295</ele>
        <time>2020-10-04T13:45:57.729Z</time>
      </trkpt>
      <trkpt lat="44.0329" lon="1.87461">
        <ele>295</ele>
        <time>2020-10-04T13:45:58.729Z</time>
      </trkpt>
      <trkpt lat="44.03289" lon="1.87462">
        <ele>295</ele>
        <time>2020-10-04T13:45:59.729Z</time>
      </trkpt>
      <trkpt lat="44.03288" lon="1.87463">
        <ele>295</ele>
        <time>2020-10-04T13:46:00.729Z</time>
      </trkpt>
      <trkpt lat="44.03287" lon="1.87464">
        <ele>295</ele>
        <time>2020-10-04T13:46:01.729Z</time>
      </trkpt>
      <trkpt lat="44.03286" lon="1.87465">
        <ele>294</ele>
        <time>2020-10-04T13:46:02.729Z</time>
      </trkpt>
      <trkpt lat="44.03285" lon="1.87466">
        <ele>294</ele>
        <time>2020-10-04T13:46:03.729Z</time>
      </trkpt>
      <trkpt lat="44.03284" lon="1.87467">
        <ele>294</ele>
        <time>2020-10-04T13:46:04.729Z</time>
      </trkpt>
      <trkpt lat="44.03284" lon="1.87467">
        <ele>294</ele>
        <time>2020-10-04T13:46:05.729Z</time>
      </trkpt>
      <trkpt lat="44.03283" lon="1.87468">
        <ele>294</ele>
        <time>2020-10-04T13:46:06.729Z</time>
      </trkpt>
      <trkpt lat="44.03282" lon="1.87469">
        <ele>294</ele>
        <time>2020-10-04T13:46:07.729Z</time>
      </trkpt>
      <trkpt lat="44.03281" lon="1.87469">
        <ele>294</ele>
        <time>2020-10-04T13:46:08.729Z</time>
      </trkpt>
      <trkpt lat="44.0328" lon="1.8747">
        <ele>294</ele>
        <time>2020-10-04T13:46:09.729Z</time>
      </trkpt>
      <trkpt lat="44.03279" lon="1.87471">
        <ele>294</ele>
        <time>2020-10-04T13:46:10.729Z</time>
      </trkpt>
      <trkpt lat="44.03279" lon="1.87472">
        <ele>294</ele>
        <time>2020-10-04T13:46:11.729Z</time>
      </trkpt>
      <trkpt lat="44.03278" lon="1.87472">
        <ele>294</ele>
        <time>2020-10-04T13:46:12.729Z</time>
      </trkpt>
      <trkpt lat="44.03277" lon="1.87473">
        <ele>294</ele>
        <time>2020-10-04T13:46:13.729Z</time>
      </trkpt>
      <trkpt lat="44.03277" lon="1.87474">
        <ele>294</ele>
        <time>2020-10-04T13:46:14.729Z</time>
      </trkpt>
      <trkpt lat="44.03276" lon="1.87474">
        <ele>294</ele>
        <time>2020-10-04T13:46:15.729Z</time>
      </trkpt>
      <trkpt lat="44.03275" lon="1.87475">
        <ele>294</ele>
        <time>2020-10-04T13:46:16.729Z</time>
      </trkpt>
      <trkpt lat="44.03274" lon="1.87476">
        <ele>294</ele>
        <time>2020-10-04T13:46:17.729Z</time>
      </trkpt>
      <trkpt lat="44.03273" lon="1.87477">
        <ele>294</ele>
        <time>2020-10-04T13:46:18.729Z</time>
      </trkpt>
      <trkpt lat="44.03272" lon="1.87477">
        <ele>294</ele>
        <time>2020-10-04T13:46:19.729Z</time>
      </trkpt>
      <trkpt lat="44.03271" lon="1.87478">
        <ele>294</ele>
        <time>2020-10-04T13:46:20.729Z</time>
      </trkpt>
      <trkpt lat="44.0327" lon="1.87479">
        <ele>294</ele>
        <time>2020-10-04T13:46:21.729Z</time>
      </trkpt>
      <trkpt lat="44.03269" lon="1.87479">
        <ele>294</ele>
        <time>2020-10-04T13:46:22.729Z</time>
      </trkpt>
      <trkpt lat="44.03268" lon="1.8748">
        <ele>294</ele>
        <time>2020-10-04T13:46:23.729Z</time>
      </trkpt>
      <trkpt lat="44.03267" lon="1.87481">
        <ele>294</ele>
        <time>2020-10-04T13:46:24.729Z</time>
      </trkpt>
      <trkpt lat="44.03266" lon="1.87483">
        <ele>294</ele>
        <time>2020-10-04T13:46:25.729Z</time>
      </trkpt>
      <trkpt lat="44.03265" lon="1.87484">
        <ele>294</ele>
        <time>2020-10-04T13:46:26.729Z</time>
      </trkpt>
      <trkpt lat="44.03264" lon="1.87485">
        <ele>294</ele>
        <time>2020-10-04T13:46:27.729Z</time>
      </trkpt>
      <trkpt lat="44.03264" lon="1.87487">
        <ele>294</ele>
        <time>2020-10-04T13:46:28.729Z</time>
      </trkpt>
      <trkpt lat="44.03263" lon="1.87488">
        <ele>294</ele>
        <time>2020-10-04T13:46:29.729Z</time>
      </trkpt>
      <trkpt lat="44.03262" lon="1.87489">
        <ele>294</ele>
        <time>2020-10-04T13:46:30.729Z</time>
      </trkpt>
      <trkpt lat="44.03261" lon="1.8749">
        <ele>294</ele>
        <time>2020-10-04T13:46:31.729Z</time>
      </trkpt>
      <trkpt lat="44.0326" lon="1.87491">
        <ele>294</ele>
        <time>2020-10-04T13:46:32.729Z</time>
      </trkpt>
      <trkpt lat="44.03259" lon="1.87493">
        <ele>294</ele>
        <time>2020-10-04T13:46:33.729Z</time>
      </trkpt>
      <trkpt lat="44.03258" lon="1.87494">
        <ele>294</ele>
        <time>2020-10-04T13:46:34.729Z</time>
      </trkpt>
      <trkpt lat="44.03258" lon="1.87495">
        <ele>294</ele>
        <time>2020-10-04T13:46:35.729Z</time>
      </trkpt>
      <trkpt lat="44.03257" lon="1.87497">
        <ele>294</ele>
        <time>2020-10-04T13:46:36.729Z</time>
      </trkpt>
      <trkpt lat="44.03256" lon="1.87498">
        <ele>294</ele>
        <time>2020-10-04T13:46:37.729Z</time>
      </trkpt>
      <trkpt lat="44.03255" lon="1.87499">
        <ele>294</ele>
        <time>2020-10-04T13:46:38.729Z</time>
      </trkpt>
      <trkpt lat="44.03254" lon="1.875">
        <ele>294</ele>
        <time>2020-10-04T13:46:39.729Z</time>
      </trkpt>
      <trkpt lat="44.03252" lon="1.87501">
        <ele>294</ele>
        <time>2020-10-04T13:46:40.729Z</time>
      </trkpt>
      <trkpt lat="44.03251" lon="1.87502">
        <ele>294</ele>
        <time>2020-10-04T13:46:41.729Z</time>
      </trkpt>
      <trkpt lat="44.0325" lon="1.87503">
        <ele>294</ele>
        <time>2020-10-04T13:46:42.729Z</time>
      </trkpt>
      <trkpt lat="44.03249" lon="1.87503">
        <ele>294</ele>
        <time>2020-10-04T13:46:43.729Z</time>
      </trkpt>
      <trkpt lat="44.03248" lon="1.87504">
        <ele>294</ele>
        <time>2020-10-04T13:46:44.729Z</time>
      </trkpt>
      <trkpt lat="44.03247" lon="1.87505">
        <ele>294</ele>
        <time>2020-10-04T13:46:45.729Z</time>
      </trkpt>
      <trkpt lat="44.03246" lon="1.87506">
        <ele>294</ele>
        <time>2020-10-04T13:46:46.729Z</time>
      </trkpt>
      <trkpt lat="44.03245" lon="1.87507">
        <ele>294</ele>
        <time>2020-10-04T13:46:47.729Z</time>
      </trkpt>
      <trkpt lat="44.03243" lon="1.87507">
        <ele>294</ele>
        <time>2020-10-04T13:46:48.729Z</time>
      </trkpt>
      <trkpt lat="44.03242" lon="1.87507">
        <ele>294</ele>
        <time>2020-10-04T13:46:49.729Z</time>
      </trkpt>
      <trkpt lat="44.0324" lon="1.87508">
        <ele>294</ele>
        <time>2020-10-04T13:46:50.729Z</time>
      </trkpt>
      <trkpt lat="44.03239" lon="1.87508">
        <ele>294</ele>
        <time>2020-10-04T13:46:51.729Z</time>
      </trkpt>
      <trkpt lat="44.03238" lon="1.87508">
        <ele>294</ele>
        <time>2020-10-04T13:46:52.729Z</time>
      </trkpt>
      <trkpt lat="44.03237" lon="1.87509">
        <ele>294</ele>
        <time>2020-10-04T13:46:53.729Z</time>
      </trkpt>
      <trkpt lat="44.03236" lon="1.87508">
        <ele>294</ele>
        <time>2020-10-04T13:46:54.729Z</time>
      </trkpt>
      <trkpt lat="44.03235" lon="1.87508">
        <ele>294</ele>
        <time>2020-10-04T13:46:55.729Z</time>
      </trkpt>
      <trkpt lat="44.03234" lon="1.87507">
        <ele>294</ele>
        <time>2020-10-04T13:46:56.729Z</time>
      </trkpt>
      <trkpt lat="44.03233" lon="1.87506">
        <ele>294</ele>
        <time>2020-10-04T13:46:57.729Z</time>
      </trkpt>
      <trkpt lat="44.03232" lon="1.87505">
        <ele>294</ele>
        <time>2020-10-04T13:46:58.729Z</time>
      </trkpt>
      <trkpt lat="44.03231" lon="1.87504">
        <ele>294</ele>
        <time>2020-10-04T13:46:59.729Z</time>
      </trkpt>
      <trkpt lat="44.0323" lon="1.87504">
        <ele>294</ele>
        <time>2020-10-04T13:47:00.729Z</time>
      </trkpt>
      <trkpt lat="44.03229" lon="1.87503">
        <ele>294</ele>
        <time>2020-10-04T13:47:01.729Z</time>
      </trkpt>
      <trkpt lat="44.03228" lon="1.87502">
        <ele>294</ele>
        <time>2020-10-04T13:47:02.729Z</time>
      </trkpt>
      <trkpt lat="44.03227" lon="1.87501">
        <ele>294</ele>
        <time>2020-10-04T13:47:03.729Z</time>
      </trkpt>
      <trkpt lat="44.03226" lon="1.87501">
        <ele>294</ele>
        <time>2020-10-04T13:47:04.729Z</time>
      </trkpt>
      <trkpt lat="44.03224" lon="1.875">
        <ele>294</ele>
        <time>2020-10-04T13:47:05.729Z</time>
      </trkpt>
      <trkpt lat="44.03223" lon="1.875">
        <ele>294</ele>
        <time>2020-10-04T13:47:06.729Z</time>
      </trkpt>
      <trkpt lat="44.03222" lon="1.875">
        <ele>294</ele>
        <time>2020-10-04T13:47:07.729Z</time>
      </trkpt>
      <trkpt lat="44.03221" lon="1.875">
        <ele>294</ele>
        <time>2020-10-04T13:47:08.729Z</time>
      </trkpt>
      <trkpt lat="44.03219" lon="1.87499">
        <ele>294</ele>
        <time>2020-10-04T13:47:09.729Z</time>
      </trkpt>
      <trkpt lat="44.03218" lon="1.87499">
        <ele>294</ele>
        <time>2020-10-04T13:47:10.729Z</time>
      </trkpt>
      <trkpt lat="44.03217" lon="1.875">
        <ele>294</ele>
        <time>2020-10-04T13:47:11.729Z</time>
      </trkpt>
      <trkpt lat="44.03216" lon="1.875">
        <ele>294</ele>
        <time>2020-10-04T13:47:12.729Z</time>
      </trkpt>
      <trkpt lat="44.03215" lon="1.87501">
        <ele>294</ele>
        <time>2020-10-04T13:47:13.729Z</time>
      </trkpt>
      <trkpt lat="44.03214" lon="1.87501">
        <ele>294</ele>
        <time>2020-10-04T13:47:14.729Z</time>
      </trkpt>
      <trkpt lat="44.03213" lon="1.87502">
        <ele>294</ele>
        <time>2020-10-04T13:47:15.729Z</time>
      </trkpt>
      <trkpt lat="44.03212" lon="1.87503">
        <ele>294</ele>
        <time>2020-10-04T13:47:16.729Z</time>
      </trkpt>
      <trkpt lat="44.03211" lon="1.87504">
        <ele>294</ele>
        <time>2020-10-04T13:47:17.729Z</time>
      </trkpt>
      <trkpt lat="44.0321" lon="1.87505">
        <ele>294</ele>
        <time>2020-10-04T13:47:18.729Z</time>
      </trkpt>
      <trkpt lat="44.03209" lon="1.87506">
        <ele>293</ele>
        <time>2020-10-04T13:47:19.729Z</time>
      </trkpt>
      <trkpt lat="44.03209" lon="1.87508">
        <ele>293</ele>
        <time>2020-10-04T13:47:20.729Z</time>
      </trkpt>
      <trkpt lat="44.03208" lon="1.87509">
        <ele>293</ele>
        <time>2020-10-04T13:47:21.729Z</time>
      </trkpt>
      <trkpt lat="44.03207" lon="1.8751">
        <ele>293</ele>
        <time>2020-10-04T13:47:22.729Z</time>
      </trkpt>
      <trkpt lat="44.03206" lon="1.8751">
        <ele>293</ele>
        <time>2020-10-04T13:47:23.729Z</time>
      </trkpt>
      <trkpt lat="44.03204" lon="1.87511">
        <ele>293</ele>
        <time>2020-10-04T13:47:24.729Z</time>
      </trkpt>
      <trkpt lat="44.03203" lon="1.87511">
        <ele>293</ele>
        <time>2020-10-04T13:47:25.729Z</time>
      </trkpt>
      <trkpt lat="44.03202" lon="1.87511">
        <ele>293</ele>
        <time>2020-10-04T13:47:26.729Z</time>
      </trkpt>
      <trkpt lat="44.03201" lon="1.87512">
        <ele>293</ele>
        <time>2020-10-04T13:47:27.729Z</time>
      </trkpt>
      <trkpt lat="44.032" lon="1.87513">
        <ele>293</ele>
        <time>2020-10-04T13:47:28.729Z</time>
      </trkpt>
      <trkpt lat="44.03199" lon="1.87514">
        <ele>293</ele>
        <time>2020-10-04T13:47:29.729Z</time>
      </trkpt>
      <trkpt lat="44.03198" lon="1.87514">
        <ele>293</ele>
        <time>2020-10-04T13:47:30.729Z</time>
      </trkpt>
      <trkpt lat="44.03197" lon="1.87515">
        <ele>293</ele>
        <time>2020-10-04T13:47:31.729Z</time>
      </trkpt>
      <trkpt lat="44.03196" lon="1.87516">
        <ele>292</ele>
        <time>2020-10-04T13:47:32.729Z</time>
      </trkpt>
      <trkpt lat="44.03195" lon="1.87517">
        <ele>292</ele>
        <time>2020-10-04T13:47:33.729Z</time>
      </trkpt>
      <trkpt lat="44.03194" lon="1.87517">
        <ele>292</ele>
        <time>2020-10-04T13:47:34.729Z</time>
      </trkpt>
      <trkpt lat="44.03192" lon="1.87518">
        <ele>292</ele>
        <time>2020-10-04T13:47:35.729Z</time>
      </trkpt>
      <trkpt lat="44.03191" lon="1.87519">
        <ele>292</ele>
        <time>2020-10-04T13:47:36.729Z</time>
      </trkpt>
      <trkpt lat="44.0319" lon="1.8752">
        <ele>292</ele>
        <time>2020-10-04T13:47:37.729Z</time>
      </trkpt>
      <trkpt lat="44.03189" lon="1.87521">
        <ele>292</ele>
        <time>2020-10-04T13:47:38.729Z</time>
      </trkpt>
      <trkpt lat="44.03188" lon="1.87521">
        <ele>292</ele>
        <time>2020-10-04T13:47:39.729Z</time>
      </trkpt>
      <trkpt lat="44.03187" lon="1.87522">
        <ele>292</ele>
        <time>2020-10-04T13:47:40.729Z</time>
      </trkpt>
      <trkpt lat="44.03186" lon="1.87523">
        <ele>292</ele>
        <time>2020-10-04T13:47:41.729Z</time>
      </trkpt>
      <trkpt lat="44.03185" lon="1.87524">
        <ele>292</ele>
        <time>2020-10-04T13:47:42.729Z</time>
      </trkpt>
      <trkpt lat="44.03184" lon="1.87525">
        <ele>292</ele>
        <time>2020-10-04T13:47:43.729Z</time>
      </trkpt>
      <trkpt lat="44.03183" lon="1.87526">
        <ele>292</ele>
        <time>2020-10-04T13:47:44.729Z</time>
      </trkpt>
      <trkpt lat="44.03182" lon="1.87527">
        <ele>291</ele>
        <time>2020-10-04T13:47:45.729Z</time>
      </trkpt>
      <trkpt lat="44.0318" lon="1.87528">
        <ele>291</ele>
        <time>2020-10-04T13:47:46.729Z</time>
      </trkpt>
      <trkpt lat="44.03179" lon="1.87528">
        <ele>291</ele>
        <time>2020-10-04T13:47:47.729Z</time>
      </trkpt>
      <trkpt lat="44.03179" lon="1.87529">
        <ele>291</ele>
        <time>2020-10-04T13:47:48.729Z</time>
      </trkpt>
      <trkpt lat="44.03178" lon="1.8753">
        <ele>291</ele>
        <time>2020-10-04T13:47:49.729Z</time>
      </trkpt>
      <trkpt lat="44.03177" lon="1.87531">
        <ele>291</ele>
        <time>2020-10-04T13:47:50.729Z</time>
      </trkpt>
      <trkpt lat="44.03176" lon="1.87532">
        <ele>290</ele>
        <time>2020-10-04T13:47:51.729Z</time>
      </trkpt>
      <trkpt lat="44.03174" lon="1.87533">
        <ele>290</ele>
        <time>2020-10-04T13:47:52.729Z</time>
      </trkpt>
      <trkpt lat="44.03173" lon="1.87533">
        <ele>290</ele>
        <time>2020-10-04T13:47:53.729Z</time>
      </trkpt>
      <trkpt lat="44.03172" lon="1.87534">
        <ele>290</ele>
        <time>2020-10-04T13:47:54.729Z</time>
      </trkpt>
      <trkpt lat="44.03171" lon="1.87535">
        <ele>290</ele>
        <time>2020-10-04T13:47:55.729Z</time>
      </trkpt>
      <trkpt lat="44.0317" lon="1.87535">
        <ele>290</ele>
        <time>2020-10-04T13:47:56.729Z</time>
      </trkpt>
      <trkpt lat="44.03169" lon="1.87536">
        <ele>289</ele>
        <time>2020-10-04T13:47:57.729Z</time>
      </trkpt>
      <trkpt lat="44.03168" lon="1.87537">
        <ele>289</ele>
        <time>2020-10-04T13:47:58.729Z</time>
      </trkpt>
      <trkpt lat="44.03166" lon="1.87538">
        <ele>289</ele>
        <time>2020-10-04T13:47:59.729Z</time>
      </trkpt>
      <trkpt lat="44.03165" lon="1.87539">
        <ele>289</ele>
        <time>2020-10-04T13:48:00.729Z</time>
      </trkpt>
      <trkpt lat="44.03164" lon="1.87541">
        <ele>289</ele>
        <time>2020-10-04T13:48:01.729Z</time>
      </trkpt>
      <trkpt lat="44.03163" lon="1.87542">
        <ele>289</ele>
        <time>2020-10-04T13:48:02.729Z</time>
      </trkpt>
      <trkpt lat="44.03162" lon="1.87543">
        <ele>289</ele>
        <time>2020-10-04T13:48:03.729Z</time>
      </trkpt>
      <trkpt lat="44.03161" lon="1.87544">
        <ele>289</ele>
        <time>2020-10-04T13:48:04.729Z</time>
      </trkpt>
      <trkpt lat="44.0316" lon="1.87545">
        <ele>289</ele>
        <time>2020-10-04T13:48:05.729Z</time>
      </trkpt>
      <trkpt lat="44.03158" lon="1.87546">
        <ele>289</ele>
        <time>2020-10-04T13:48:06.729Z</time>
      </trkpt>
      <trkpt lat="44.03157" lon="1.87547">
        <ele>289</ele>
        <time>2020-10-04T13:48:07.729Z</time>
      </trkpt>
      <trkpt lat="44.03156" lon="1.87548">
        <ele>289</ele>
        <time>2020-10-04T13:48:08.729Z</time>
      </trkpt>
      <trkpt lat="44.03155" lon="1.87549">
        <ele>289</ele>
        <time>2020-10-04T13:48:09.729Z</time>
      </trkpt>
      <trkpt lat="44.03154" lon="1.8755">
        <ele>289</ele>
        <time>2020-10-04T13:48:10.729Z</time>
      </trkpt>
      <trkpt lat="44.03153" lon="1.87551">
        <ele>289</ele>
        <time>2020-10-04T13:48:11.729Z</time>
      </trkpt>
      <trkpt lat="44.03152" lon="1.87552">
        <ele>289</ele>
        <time>2020-10-04T13:48:12.729Z</time>
      </trkpt>
      <trkpt lat="44.03151" lon="1.87553">
        <ele>289</ele>
        <time>2020-10-04T13:48:13.729Z</time>
      </trkpt>
      <trkpt lat="44.0315" lon="1.87554">
        <ele>289</ele>
        <time>2020-10-04T13:48:14.729Z</time>
      </trkpt>
      <trkpt lat="44.03149" lon="1.87555">
        <ele>288</ele>
        <time>2020-10-04T13:48:15.729Z</time>
      </trkpt>
      <trkpt lat="44.03148" lon="1.87556">
        <ele>288</ele>
        <time>2020-10-04T13:48:16.729Z</time>
      </trkpt>
      <trkpt lat="44.03147" lon="1.87558">
        <ele>288</ele>
        <time>2020-10-04T13:48:17.729Z</time>
      </trkpt>
      <trkpt lat="44.03146" lon="1.87559">
        <ele>288</ele>
        <time>2020-10-04T13:48:18.729Z</time>
      </trkpt>
      <trkpt lat="44.03145" lon="1.87561">
        <ele>288</ele>
        <time>2020-10-04T13:48:19.729Z</time>
      </trkpt>
      <trkpt lat="44.03144" lon="1.87562">
        <ele>288</ele>
        <time>2020-10-04T13:48:20.729Z</time>
      </trkpt>
      <trkpt lat="44.03144" lon="1.87563">
        <ele>288</ele>
        <time>2020-10-04T13:48:21.729Z</time>
      </trkpt>
      <trkpt lat="44.03143" lon="1.87565">
        <ele>287</ele>
        <time>2020-10-04T13:48:22.729Z</time>
      </trkpt>
      <trkpt lat="44.03142" lon="1.87566">
        <ele>287</ele>
        <time>2020-10-04T13:48:23.729Z</time>
      </trkpt>
      <trkpt lat="44.03141" lon="1.87567">
        <ele>287</ele>
        <time>2020-10-04T13:48:24.729Z</time>
      </trkpt>
      <trkpt lat="44.0314" lon="1.87568">
        <ele>287</ele>
        <time>2020-10-04T13:48:25.729Z</time>
      </trkpt>
      <trkpt lat="44.0314" lon="1.8757">
        <ele>287</ele>
        <time>2020-10-04T13:48:26.729Z</time>
      </trkpt>
      <trkpt lat="44.03139" lon="1.87571">
        <ele>287</ele>
        <time>2020-10-04T13:48:27.729Z</time>
      </trkpt>
      <trkpt lat="44.03138" lon="1.87572">
        <ele>287</ele>
        <time>2020-10-04T13:48:28.729Z</time>
      </trkpt>
      <trkpt lat="44.03137" lon="1.87574">
        <ele>287</ele>
        <time>2020-10-04T13:48:29.729Z</time>
      </trkpt>
      <trkpt lat="44.03137" lon="1.87575">
        <ele>287</ele>
        <time>2020-10-04T13:48:30.729Z</time>
      </trkpt>
      <trkpt lat="44.03136" lon="1.87576">
        <ele>287</ele>
        <time>2020-10-04T13:48:31.729Z</time>
      </trkpt>
      <trkpt lat="44.03135" lon="1.87578">
        <ele>287</ele>
        <time>2020-10-04T13:48:32.729Z</time>
      </trkpt>
      <trkpt lat="44.03135" lon="1.87579">
        <ele>287</ele>
        <time>2020-10-04T13:48:33.729Z</time>
      </trkpt>
      <trkpt lat="44.03134" lon="1.87581">
        <ele>287</ele>
        <time>2020-10-04T13:48:34.729Z</time>
      </trkpt>
      <trkpt lat="44.03133" lon="1.87582">
        <ele>287</ele>
        <time>2020-10-04T13:48:35.729Z</time>
      </trkpt>
      <trkpt lat="44.03132" lon="1.87583">
        <ele>287</ele>
        <time>2020-10-04T13:48:36.729Z</time>
      </trkpt>
      <trkpt lat="44.03131" lon="1.87585">
        <ele>287</ele>
        <time>2020-10-04T13:48:37.729Z</time>
      </trkpt>
      <trkpt lat="44.03131" lon="1.87586">
        <ele>287</ele>
        <time>2020-10-04T13:48:38.729Z</time>
      </trkpt>
      <trkpt lat="44.0313" lon="1.87588">
        <ele>287</ele>
        <time>2020-10-04T13:48:39.729Z</time>
      </trkpt>
      <trkpt lat="44.03129" lon="1.87589">
        <ele>287</ele>
        <time>2020-10-04T13:48:40.729Z</time>
      </trkpt>
      <trkpt lat="44.03129" lon="1.87591">
        <ele>287</ele>
        <time>2020-10-04T13:48:41.729Z</time>
      </trkpt>
      <trkpt lat="44.03128" lon="1.87593">
        <ele>287</ele>
        <time>2020-10-04T13:48:42.729Z</time>
      </trkpt>
      <trkpt lat="44.03127" lon="1.87594">
        <ele>287</ele>
        <time>2020-10-04T13:48:43.729Z</time>
      </trkpt>
      <trkpt lat="44.03127" lon="1.87595">
        <ele>287</ele>
        <time>2020-10-04T13:48:44.729Z</time>
      </trkpt>
      <trkpt lat="44.03126" lon="1.87597">
        <ele>287</ele>
        <time>2020-10-04T13:48:45.729Z</time>
      </trkpt>
      <trkpt lat="44.03125" lon="1.87598">
        <ele>287</ele>
        <time>2020-10-04T13:48:46.729Z</time>
      </trkpt>
      <trkpt lat="44.03125" lon="1.876">
        <ele>287</ele>
        <time>2020-10-04T13:48:47.729Z</time>
      </trkpt>
      <trkpt lat="44.03124" lon="1.876">
        <ele>287</ele>
        <time>2020-10-04T13:48:48.729Z</time>
      </trkpt>
      <trkpt lat="44.03123" lon="1.87602">
        <ele>287</ele>
        <time>2020-10-04T13:48:49.729Z</time>
      </trkpt>
      <trkpt lat="44.03122" lon="1.87603">
        <ele>287</ele>
        <time>2020-10-04T13:48:50.729Z</time>
      </trkpt>
      <trkpt lat="44.03121" lon="1.87604">
        <ele>286</ele>
        <time>2020-10-04T13:48:51.729Z</time>
      </trkpt>
      <trkpt lat="44.0312" lon="1.87605">
        <ele>286</ele>
        <time>2020-10-04T13:48:52.729Z</time>
      </trkpt>
      <trkpt lat="44.03119" lon="1.87606">
        <ele>286</ele>
        <time>2020-10-04T13:48:53.729Z</time>
      </trkpt>
      <trkpt lat="44.03119" lon="1.87608">
        <ele>286</ele>
        <time>2020-10-04T13:48:54.729Z</time>
      </trkpt>
      <trkpt lat="44.03118" lon="1.87609">
        <ele>286</ele>
        <time>2020-10-04T13:48:55.729Z</time>
      </trkpt>
      <trkpt lat="44.03117" lon="1.8761">
        <ele>286</ele>
        <time>2020-10-04T13:48:56.729Z</time>
      </trkpt>
      <trkpt lat="44.03117" lon="1.87612">
        <ele>286</ele>
        <time>2020-10-04T13:48:57.729Z</time>
      </trkpt>
      <trkpt lat="44.03116" lon="1.87613">
        <ele>286</ele>
        <time>2020-10-04T13:48:58.729Z</time>
      </trkpt>
      <trkpt lat="44.03115" lon="1.87614">
        <ele>286</ele>
        <time>2020-10-04T13:48:59.729Z</time>
      </trkpt>
      <trkpt lat="44.03114" lon="1.87615">
        <ele>286</ele>
        <time>2020-10-04T13:49:00.729Z</time>
      </trkpt>
      <trkpt lat="44.03113" lon="1.87616">
        <ele>285</ele>
        <time>2020-10-04T13:49:01.729Z</time>
      </trkpt>
      <trkpt lat="44.03112" lon="1.87618">
        <ele>285</ele>
        <time>2020-10-04T13:49:02.729Z</time>
      </trkpt>
      <trkpt lat="44.03111" lon="1.87619">
        <ele>285</ele>
        <time>2020-10-04T13:49:03.729Z</time>
      </trkpt>
      <trkpt lat="44.03111" lon="1.8762">
        <ele>286</ele>
        <time>2020-10-04T13:49:04.729Z</time>
      </trkpt>
      <trkpt lat="44.0311" lon="1.87621">
        <ele>286</ele>
        <time>2020-10-04T13:49:05.729Z</time>
      </trkpt>
      <trkpt lat="44.03109" lon="1.87623">
        <ele>286</ele>
        <time>2020-10-04T13:49:06.729Z</time>
      </trkpt>
      <trkpt lat="44.03108" lon="1.87624">
        <ele>286</ele>
        <time>2020-10-04T13:49:07.729Z</time>
      </trkpt>
      <trkpt lat="44.03108" lon="1.87626">
        <ele>286</ele>
        <time>2020-10-04T13:49:08.729Z</time>
      </trkpt>
      <trkpt lat="44.03107" lon="1.87627">
        <ele>286</ele>
        <time>2020-10-04T13:49:09.729Z</time>
      </trkpt>
      <trkpt lat="44.03106" lon="1.87629">
        <ele>285</ele>
        <time>2020-10-04T13:49:10.729Z</time>
      </trkpt>
      <trkpt lat="44.03106" lon="1.8763">
        <ele>285</ele>
        <time>2020-10-04T13:49:11.729Z</time>
      </trkpt>
      <trkpt lat="44.03105" lon="1.87632">
        <ele>285</ele>
        <time>2020-10-04T13:49:12.729Z</time>
      </trkpt>
      <trkpt lat="44.03104" lon="1.87633">
        <ele>285</ele>
        <time>2020-10-04T13:49:13.729Z</time>
      </trkpt>
      <trkpt lat="44.03103" lon="1.87634">
        <ele>285</ele>
        <time>2020-10-04T13:49:14.729Z</time>
      </trkpt>
      <trkpt lat="44.03103" lon="1.87636">
        <ele>285</ele>
        <time>2020-10-04T13:49:15.729Z</time>
      </trkpt>
      <trkpt lat="44.03103" lon="1.87637">
        <ele>285</ele>
        <time>2020-10-04T13:49:16.729Z</time>
      </trkpt>
      <trkpt lat="44.03103" lon="1.8764">
        <ele>285</ele>
        <time>2020-10-04T13:49:17.729Z</time>
      </trkpt>
      <trkpt lat="44.03103" lon="1.87642">
        <ele>285</ele>
        <time>2020-10-04T13:49:18.729Z</time>
      </trkpt>
      <trkpt lat="44.03102" lon="1.87644">
        <ele>284</ele>
        <time>2020-10-04T13:49:19.729Z</time>
      </trkpt>
      <trkpt lat="44.03101" lon="1.87646">
        <ele>284</ele>
        <time>2020-10-04T13:49:20.729Z</time>
      </trkpt>
      <trkpt lat="44.03101" lon="1.87647">
        <ele>284</ele>
        <time>2020-10-04T13:49:21.729Z</time>
      </trkpt>
      <trkpt lat="44.03101" lon="1.87649">
        <ele>284</ele>
        <time>2020-10-04T13:49:22.729Z</time>
      </trkpt>
      <trkpt lat="44.031" lon="1.87651">
        <ele>284</ele>
        <time>2020-10-04T13:49:23.729Z</time>
      </trkpt>
      <trkpt lat="44.031" lon="1.87652">
        <ele>284</ele>
        <time>2020-10-04T13:49:24.729Z</time>
      </trkpt>
      <trkpt lat="44.031" lon="1.87654">
        <ele>284</ele>
        <time>2020-10-04T13:49:25.729Z</time>
      </trkpt>
      <trkpt lat="44.03099" lon="1.87656">
        <ele>284</ele>
        <time>2020-10-04T13:49:26.729Z</time>
      </trkpt>
      <trkpt lat="44.03099" lon="1.87658">
        <ele>284</ele>
        <time>2020-10-04T13:49:27.729Z</time>
      </trkpt>
      <trkpt lat="44.03098" lon="1.8766">
        <ele>284</ele>
        <time>2020-10-04T13:49:28.729Z</time>
      </trkpt>
      <trkpt lat="44.03098" lon="1.87662">
        <ele>284</ele>
        <time>2020-10-04T13:49:29.729Z</time>
      </trkpt>
      <trkpt lat="44.03097" lon="1.87663">
        <ele>283</ele>
        <time>2020-10-04T13:49:30.729Z</time>
      </trkpt>
      <trkpt lat="44.03097" lon="1.87665">
        <ele>283</ele>
        <time>2020-10-04T13:49:31.729Z</time>
      </trkpt>
      <trkpt lat="44.03097" lon="1.87666">
        <ele>283</ele>
        <time>2020-10-04T13:49:32.729Z</time>
      </trkpt>
      <trkpt lat="44.03096" lon="1.87668">
        <ele>283</ele>
        <time>2020-10-04T13:49:33.729Z</time>
      </trkpt>
      <trkpt lat="44.03096" lon="1.87669">
        <ele>283</ele>
        <time>2020-10-04T13:49:34.729Z</time>
      </trkpt>
      <trkpt lat="44.03095" lon="1.87671">
        <ele>283</ele>
        <time>2020-10-04T13:49:35.729Z</time>
      </trkpt>
      <trkpt lat="44.03095" lon="1.87673">
        <ele>283</ele>
        <time>2020-10-04T13:49:36.729Z</time>
      </trkpt>
      <trkpt lat="44.03094" lon="1.87674">
        <ele>283</ele>
        <time>2020-10-04T13:49:37.729Z</time>
      </trkpt>
      <trkpt lat="44.03094" lon="1.87676">
        <ele>283</ele>
        <time>2020-10-04T13:49:38.729Z</time>
      </trkpt>
      <trkpt lat="44.03093" lon="1.87677">
        <ele>282</ele>
        <time>2020-10-04T13:49:39.729Z</time>
      </trkpt>
      <trkpt lat="44.03093" lon="1.87679">
        <ele>282</ele>
        <time>2020-10-04T13:49:40.729Z</time>
      </trkpt>
      <trkpt lat="44.03093" lon="1.8768">
        <ele>282</ele>
        <time>2020-10-04T13:49:41.729Z</time>
      </trkpt>
      <trkpt lat="44.03092" lon="1.87682">
        <ele>282</ele>
        <time>2020-10-04T13:49:42.729Z</time>
      </trkpt>
      <trkpt lat="44.03092" lon="1.87684">
        <ele>282</ele>
        <time>2020-10-04T13:49:43.729Z</time>
      </trkpt>
      <trkpt lat="44.03091" lon="1.87685">
        <ele>282</ele>
        <time>2020-10-04T13:49:44.729Z</time>
      </trkpt>
      <trkpt lat="44.0309" lon="1.87687">
        <ele>282</ele>
        <time>2020-10-04T13:49:45.729Z</time>
      </trkpt>
      <trkpt lat="44.03089" lon="1.87688">
        <ele>282</ele>
        <time>2020-10-04T13:49:46.729Z</time>
      </trkpt>
      <trkpt lat="44.03089" lon="1.8769">
        <ele>282</ele>
        <time>2020-10-04T13:49:47.729Z</time>
      </trkpt>
      <trkpt lat="44.03088" lon="1.87691">
        <ele>282</ele>
        <time>2020-10-04T13:49:48.729Z</time>
      </trkpt>
      <trkpt lat="44.03088" lon="1.87693">
        <ele>282</ele>
        <time>2020-10-04T13:49:49.729Z</time>
      </trkpt>
      <trkpt lat="44.03087" lon="1.87695">
        <ele>282</ele>
        <time>2020-10-04T13:49:50.729Z</time>
      </trkpt>
      <trkpt lat="44.03086" lon="1.87696">
        <ele>282</ele>
        <time>2020-10-04T13:49:51.729Z</time>
      </trkpt>
      <trkpt lat="44.03086" lon="1.87698">
        <ele>281</ele>
        <time>2020-10-04T13:49:52.729Z</time>
      </trkpt>
      <trkpt lat="44.03085" lon="1.87699">
        <ele>281</ele>
        <time>2020-10-04T13:49:53.729Z</time>
      </trkpt>
      <trkpt lat="44.03084" lon="1.87701">
        <ele>281</ele>
        <time>2020-10-04T13:49:54.729Z</time>
      </trkpt>
      <trkpt lat="44.03083" lon="1.87702">
        <ele>281</ele>
        <time>2020-10-04T13:49:55.729Z</time>
      </trkpt>
      <trkpt lat="44.03083" lon="1.87704">
        <ele>281</ele>
        <time>2020-10-04T13:49:56.729Z</time>
      </trkpt>
      <trkpt lat="44.03082" lon="1.87705">
        <ele>281</ele>
        <time>2020-10-04T13:49:57.729Z</time>
      </trkpt>
      <trkpt lat="44.03081" lon="1.87707">
        <ele>281</ele>
        <time>2020-10-04T13:49:58.729Z</time>
      </trkpt>
      <trkpt lat="44.03081" lon="1.87708">
        <ele>281</ele>
        <time>2020-10-04T13:49:59.729Z</time>
      </trkpt>
      <trkpt lat="44.0308" lon="1.87709">
        <ele>281</ele>
        <time>2020-10-04T13:50:00.729Z</time>
      </trkpt>
      <trkpt lat="44.03079" lon="1.87711">
        <ele>281</ele>
        <time>2020-10-04T13:50:01.729Z</time>
      </trkpt>
      <trkpt lat="44.03078" lon="1.87712">
        <ele>281</ele>
        <time>2020-10-04T13:50:02.729Z</time>
      </trkpt>
      <trkpt lat="44.03077" lon="1.87713">
        <ele>281</ele>
        <time>2020-10-04T13:50:03.729Z</time>
      </trkpt>
      <trkpt lat="44.03076" lon="1.87715">
        <ele>281</ele>
        <time>2020-10-04T13:50:04.729Z</time>
      </trkpt>
      <trkpt lat="44.03076" lon="1.87716">
        <ele>280</ele>
        <time>2020-10-04T13:50:05.729Z</time>
      </trkpt>
      <trkpt lat="44.03075" lon="1.87717">
        <ele>280</ele>
        <time>2020-10-04T13:50:06.729Z</time>
      </trkpt>
      <trkpt lat="44.03074" lon="1.87718">
        <ele>280</ele>
        <time>2020-10-04T13:50:07.729Z</time>
      </trkpt>
      <trkpt lat="44.03073" lon="1.87719">
        <ele>280</ele>
        <time>2020-10-04T13:50:08.729Z</time>
      </trkpt>
      <trkpt lat="44.03072" lon="1.87721">
        <ele>280</ele>
        <time>2020-10-04T13:50:09.729Z</time>
      </trkpt>
      <trkpt lat="44.03071" lon="1.87722">
        <ele>280</ele>
        <time>2020-10-04T13:50:10.729Z</time>
      </trkpt>
      <trkpt lat="44.0307" lon="1.87723">
        <ele>280</ele>
        <time>2020-10-04T13:50:11.729Z</time>
      </trkpt>
      <trkpt lat="44.03069" lon="1.87725">
        <ele>280</ele>
        <time>2020-10-04T13:50:12.729Z</time>
      </trkpt>
      <trkpt lat="44.03068" lon="1.87726">
        <ele>280</ele>
        <time>2020-10-04T13:50:13.729Z</time>
      </trkpt>
      <trkpt lat="44.03067" lon="1.87727">
        <ele>280</ele>
        <time>2020-10-04T13:50:14.729Z</time>
      </trkpt>
      <trkpt lat="44.03066" lon="1.87728">
        <ele>280</ele>
        <time>2020-10-04T13:50:15.729Z</time>
      </trkpt>
      <trkpt lat="44.03065" lon="1.87729">
        <ele>280</ele>
        <time>2020-10-04T13:50:16.729Z</time>
      </trkpt>
      <trkpt lat="44.03064" lon="1.8773">
        <ele>280</ele>
        <time>2020-10-04T13:50:17.729Z</time>
      </trkpt>
      <trkpt lat="44.03063" lon="1.87731">
        <ele>280</ele>
        <time>2020-10-04T13:50:18.729Z</time>
      </trkpt>
      <trkpt lat="44.03062" lon="1.87732">
        <ele>280</ele>
        <time>2020-10-04T13:50:19.729Z</time>
      </trkpt>
      <trkpt lat="44.03061" lon="1.87733">
        <ele>280</ele>
        <time>2020-10-04T13:50:20.729Z</time>
      </trkpt>
      <trkpt lat="44.0306" lon="1.87733">
        <ele>280</ele>
        <time>2020-10-04T13:50:21.729Z</time>
      </trkpt>
      <trkpt lat="44.03059" lon="1.87734">
        <ele>280</ele>
        <time>2020-10-04T13:50:22.729Z</time>
      </trkpt>
      <trkpt lat="44.03058" lon="1.87735">
        <ele>280</ele>
        <time>2020-10-04T13:50:23.729Z</time>
      </trkpt>
      <trkpt lat="44.03057" lon="1.87735">
        <ele>280</ele>
        <time>2020-10-04T13:50:24.729Z</time>
      </trkpt>
      <trkpt lat="44.03056" lon="1.87736">
        <ele>280</ele>
        <time>2020-10-04T13:50:25.729Z</time>
      </trkpt>
      <trkpt lat="44.03055" lon="1.87736">
        <ele>280</ele>
        <time>2020-10-04T13:50:26.729Z</time>
      </trkpt>
      <trkpt lat="44.03054" lon="1.87737">
        <ele>280</ele>
        <time>2020-10-04T13:50:27.729Z</time>
      </trkpt>
      <trkpt lat="44.03053" lon="1.87737">
        <ele>280</ele>
        <time>2020-10-04T13:50:28.729Z</time>
      </trkpt>
      <trkpt lat="44.03053" lon="1.87737">
        <ele>280</ele>
        <time>2020-10-04T13:50:29.729Z</time>
      </trkpt>
      <trkpt lat="44.03053" lon="1.87737">
        <ele>280</ele>
        <time>2020-10-04T13:50:30.729Z</time>
      </trkpt>
      <trkpt lat="44.03053" lon="1.87737">
        <ele>279</ele>
        <time>2020-10-04T13:50:31.729Z</time>
      </trkpt>
      <trkpt lat="44.03053" lon="1.87737">
        <ele>279</ele>
        <time>2020-10-04T13:50:32.729Z</time>
      </trkpt>
      <trkpt lat="44.03052" lon="1.87737">
        <ele>278</ele>
        <time>2020-10-04T13:50:33.729Z</time>
      </trkpt>
      <trkpt lat="44.03052" lon="1.87738">
        <ele>278</ele>
        <time>2020-10-04T13:50:34.729Z</time>
      </trkpt>
      <trkpt lat="44.03052" lon="1.87739">
        <ele>278</ele>
        <time>2020-10-04T13:50:35.729Z</time>
      </trkpt>
      <trkpt lat="44.03052" lon="1.87739">
        <ele>278</ele>
        <time>2020-10-04T13:50:36.729Z</time>
      </trkpt>
      <trkpt lat="44.03052" lon="1.8774">
        <ele>278</ele>
        <time>2020-10-04T13:50:37.729Z</time>
      </trkpt>
      <trkpt lat="44.03051" lon="1.8774">
        <ele>278</ele>
        <time>2020-10-04T13:50:38.729Z</time>
      </trkpt>
      <trkpt lat="44.03051" lon="1.8774">
        <ele>278</ele>
        <time>2020-10-04T13:50:39.729Z</time>
      </trkpt>
      <trkpt lat="44.03051" lon="1.8774">
        <ele>278</ele>
        <time>2020-10-04T13:50:40.729Z</time>
      </trkpt>
      <trkpt lat="44.03051" lon="1.8774">
        <ele>278</ele>
        <time>2020-10-04T13:50:41.729Z</time>
      </trkpt>
      <trkpt lat="44.03051" lon="1.87741">
        <ele>277</ele>
        <time>2020-10-04T13:50:42.729Z</time>
      </trkpt>
      <trkpt lat="44.03049" lon="1.87742">
        <ele>277</ele>
        <time>2020-10-04T13:50:43.729Z</time>
      </trkpt>
      <trkpt lat="44.03047" lon="1.87742">
        <ele>277</ele>
        <time>2020-10-04T13:50:44.729Z</time>
      </trkpt>
      <trkpt lat="44.03046" lon="1.87742">
        <ele>277</ele>
        <time>2020-10-04T13:50:45.729Z</time>
      </trkpt>
      <trkpt lat="44.03045" lon="1.87742">
        <ele>277</ele>
        <time>2020-10-04T13:50:46.729Z</time>
      </trkpt>
      <trkpt lat="44.03044" lon="1.87743">
        <ele>277</ele>
        <time>2020-10-04T13:50:47.729Z</time>
      </trkpt>
      <trkpt lat="44.03043" lon="1.87744">
        <ele>277</ele>
        <time>2020-10-04T13:50:48.729Z</time>
      </trkpt>
      <trkpt lat="44.03042" lon="1.87744">
        <ele>277</ele>
        <time>2020-10-04T13:50:49.729Z</time>
      </trkpt>
      <trkpt lat="44.03041" lon="1.87745">
        <ele>276</ele>
        <time>2020-10-04T13:50:50.729Z</time>
      </trkpt>
      <trkpt lat="44.0304" lon="1.87746">
        <ele>276</ele>
        <time>2020-10-04T13:50:51.729Z</time>
      </trkpt>
      <trkpt lat="44.03038" lon="1.87747">
        <ele>276</ele>
        <time>2020-10-04T13:50:52.729Z</time>
      </trkpt>
      <trkpt lat="44.03037" lon="1.87748">
        <ele>276</ele>
        <time>2020-10-04T13:50:53.729Z</time>
      </trkpt>
      <trkpt lat="44.03036" lon="1.87749">
        <ele>276</ele>
        <time>2020-10-04T13:50:54.729Z</time>
      </trkpt>
      <trkpt lat="44.03035" lon="1.8775">
        <ele>276</ele>
        <time>2020-10-04T13:50:55.729Z</time>
      </trkpt>
      <trkpt lat="44.03034" lon="1.87751">
        <ele>276</ele>
        <time>2020-10-04T13:50:56.729Z</time>
      </trkpt>
      <trkpt lat="44.03033" lon="1.87752">
        <ele>276</ele>
        <time>2020-10-04T13:50:57.729Z</time>
      </trkpt>
      <trkpt lat="44.03032" lon="1.87753">
        <ele>276</ele>
        <time>2020-10-04T13:50:58.729Z</time>
      </trkpt>
      <trkpt lat="44.03031" lon="1.87754">
        <ele>276</ele>
        <time>2020-10-04T13:50:59.729Z</time>
      </trkpt>
      <trkpt lat="44.0303" lon="1.87755">
        <ele>276</ele>
        <time>2020-10-04T13:51:00.729Z</time>
      </trkpt>
      <trkpt lat="44.03029" lon="1.87756">
        <ele>276</ele>
        <time>2020-10-04T13:51:01.729Z</time>
      </trkpt>
      <trkpt lat="44.03027" lon="1.87757">
        <ele>276</ele>
        <time>2020-10-04T13:51:02.729Z</time>
      </trkpt>
      <trkpt lat="44.03026" lon="1.87758">
        <ele>276</ele>
        <time>2020-10-04T13:51:03.729Z</time>
      </trkpt>
      <trkpt lat="44.03025" lon="1.87758">
        <ele>276</ele>
        <time>2020-10-04T13:51:04.729Z</time>
      </trkpt>
      <trkpt lat="44.03024" lon="1.87758">
        <ele>275</ele>
        <time>2020-10-04T13:51:05.729Z</time>
      </trkpt>
      <trkpt lat="44.03023" lon="1.87757">
        <ele>275</ele>
        <time>2020-10-04T13:51:06.729Z</time>
      </trkpt>
      <trkpt lat="44.03022" lon="1.87755">
        <ele>275</ele>
        <time>2020-10-04T13:51:07.729Z</time>
      </trkpt>
      <trkpt lat="44.03022" lon="1.87754">
        <ele>275</ele>
        <time>2020-10-04T13:51:08.729Z</time>
      </trkpt>
      <trkpt lat="44.03021" lon="1.87752">
        <ele>275</ele>
        <time>2020-10-04T13:51:09.729Z</time>
      </trkpt>
      <trkpt lat="44.0302" lon="1.8775">
        <ele>275</ele>
        <time>2020-10-04T13:51:10.729Z</time>
      </trkpt>
      <trkpt lat="44.0302" lon="1.87748">
        <ele>275</ele>
        <time>2020-10-04T13:51:11.729Z</time>
      </trkpt>
      <trkpt lat="44.03019" lon="1.87747">
        <ele>275</ele>
        <time>2020-10-04T13:51:12.729Z</time>
      </trkpt>
      <trkpt lat="44.03018" lon="1.87745">
        <ele>275</ele>
        <time>2020-10-04T13:51:13.729Z</time>
      </trkpt>
      <trkpt lat="44.03018" lon="1.87743">
        <ele>275</ele>
        <time>2020-10-04T13:51:14.729Z</time>
      </trkpt>
      <trkpt lat="44.03017" lon="1.87742">
        <ele>275</ele>
        <time>2020-10-04T13:51:15.729Z</time>
      </trkpt>
      <trkpt lat="44.03017" lon="1.8774">
        <ele>275</ele>
        <time>2020-10-04T13:51:16.729Z</time>
      </trkpt>
      <trkpt lat="44.03016" lon="1.87739">
        <ele>275</ele>
        <time>2020-10-04T13:51:17.729Z</time>
      </trkpt>
      <trkpt lat="44.03015" lon="1.87737">
        <ele>275</ele>
        <time>2020-10-04T13:51:18.729Z</time>
      </trkpt>
      <trkpt lat="44.03015" lon="1.87735">
        <ele>274</ele>
        <time>2020-10-04T13:51:19.729Z</time>
      </trkpt>
      <trkpt lat="44.03014" lon="1.87734">
        <ele>274</ele>
        <time>2020-10-04T13:51:20.729Z</time>
      </trkpt>
      <trkpt lat="44.03013" lon="1.87732">
        <ele>274</ele>
        <time>2020-10-04T13:51:21.729Z</time>
      </trkpt>
      <trkpt lat="44.03013" lon="1.87731">
        <ele>274</ele>
        <time>2020-10-04T13:51:22.729Z</time>
      </trkpt>
      <trkpt lat="44.03012" lon="1.87729">
        <ele>274</ele>
        <time>2020-10-04T13:51:23.729Z</time>
      </trkpt>
      <trkpt lat="44.03012" lon="1.87728">
        <ele>274</ele>
        <time>2020-10-04T13:51:24.729Z</time>
      </trkpt>
      <trkpt lat="44.03011" lon="1.87726">
        <ele>274</ele>
        <time>2020-10-04T13:51:25.729Z</time>
      </trkpt>
      <trkpt lat="44.03011" lon="1.87725">
        <ele>274</ele>
        <time>2020-10-04T13:51:26.729Z</time>
      </trkpt>
      <trkpt lat="44.0301" lon="1.87723">
        <ele>274</ele>
        <time>2020-10-04T13:51:27.729Z</time>
      </trkpt>
      <trkpt lat="44.03009" lon="1.87722">
        <ele>274</ele>
        <time>2020-10-04T13:51:28.729Z</time>
      </trkpt>
      <trkpt lat="44.03009" lon="1.87721">
        <ele>274</ele>
        <time>2020-10-04T13:51:29.729Z</time>
      </trkpt>
      <trkpt lat="44.03008" lon="1.87719">
        <ele>273</ele>
        <time>2020-10-04T13:51:30.729Z</time>
      </trkpt>
      <trkpt lat="44.03008" lon="1.87717">
        <ele>273</ele>
        <time>2020-10-04T13:51:31.729Z</time>
      </trkpt>
      <trkpt lat="44.03008" lon="1.87716">
        <ele>273</ele>
        <time>2020-10-04T13:51:32.729Z</time>
      </trkpt>
      <trkpt lat="44.03008" lon="1.87715">
        <ele>273</ele>
        <time>2020-10-04T13:51:33.729Z</time>
      </trkpt>
      <trkpt lat="44.03008" lon="1.87713">
        <ele>273</ele>
        <time>2020-10-04T13:51:34.729Z</time>
      </trkpt>
      <trkpt lat="44.03008" lon="1.87712">
        <ele>273</ele>
        <time>2020-10-04T13:51:35.729Z</time>
      </trkpt>
      <trkpt lat="44.03007" lon="1.8771">
        <ele>273</ele>
        <time>2020-10-04T13:51:36.729Z</time>
      </trkpt>
      <trkpt lat="44.03007" lon="1.87709">
        <ele>273</ele>
        <time>2020-10-04T13:51:37.729Z</time>
      </trkpt>
      <trkpt lat="44.03007" lon="1.87707">
        <ele>273</ele>
        <time>2020-10-04T13:51:38.729Z</time>
      </trkpt>
      <trkpt lat="44.03007" lon="1.87706">
        <ele>273</ele>
        <time>2020-10-04T13:51:39.729Z</time>
      </trkpt>
      <trkpt lat="44.03007" lon="1.87705">
        <ele>273</ele>
        <time>2020-10-04T13:51:40.729Z</time>
      </trkpt>
      <trkpt lat="44.03007" lon="1.87703">
        <ele>272</ele>
        <time>2020-10-04T13:51:41.729Z</time>
      </trkpt>
      <trkpt lat="44.03007" lon="1.87702">
        <ele>272</ele>
        <time>2020-10-04T13:51:42.729Z</time>
      </trkpt>
      <trkpt lat="44.03007" lon="1.87701">
        <ele>272</ele>
        <time>2020-10-04T13:51:43.729Z</time>
      </trkpt>
      <trkpt lat="44.03006" lon="1.87699">
        <ele>272</ele>
        <time>2020-10-04T13:51:44.729Z</time>
      </trkpt>
      <trkpt lat="44.03006" lon="1.87697">
        <ele>272</ele>
        <time>2020-10-04T13:51:45.729Z</time>
      </trkpt>
      <trkpt lat="44.03005" lon="1.87696">
        <ele>272</ele>
        <time>2020-10-04T13:51:46.729Z</time>
      </trkpt>
      <trkpt lat="44.03005" lon="1.87694">
        <ele>272</ele>
        <time>2020-10-04T13:51:47.729Z</time>
      </trkpt>
      <trkpt lat="44.03005" lon="1.87692">
        <ele>272</ele>
        <time>2020-10-04T13:51:48.729Z</time>
      </trkpt>
      <trkpt lat="44.03004" lon="1.8769">
        <ele>272</ele>
        <time>2020-10-04T13:51:49.729Z</time>
      </trkpt>
      <trkpt lat="44.03004" lon="1.87689">
        <ele>272</ele>
        <time>2020-10-04T13:51:50.729Z</time>
      </trkpt>
      <trkpt lat="44.03004" lon="1.87687">
        <ele>272</ele>
        <time>2020-10-04T13:51:51.729Z</time>
      </trkpt>
      <trkpt lat="44.03003" lon="1.87685">
        <ele>272</ele>
        <time>2020-10-04T13:51:52.729Z</time>
      </trkpt>
      <trkpt lat="44.03003" lon="1.87684">
        <ele>272</ele>
        <time>2020-10-04T13:51:53.729Z</time>
      </trkpt>
      <trkpt lat="44.03003" lon="1.87682">
        <ele>272</ele>
        <time>2020-10-04T13:51:54.729Z</time>
      </trkpt>
      <trkpt lat="44.03002" lon="1.8768">
        <ele>272</ele>
        <time>2020-10-04T13:51:55.729Z</time>
      </trkpt>
      <trkpt lat="44.03002" lon="1.87678">
        <ele>272</ele>
        <time>2020-10-04T13:51:56.729Z</time>
      </trkpt>
      <trkpt lat="44.03002" lon="1.87677">
        <ele>271</ele>
        <time>2020-10-04T13:51:57.729Z</time>
      </trkpt>
      <trkpt lat="44.03001" lon="1.87675">
        <ele>271</ele>
        <time>2020-10-04T13:51:58.729Z</time>
      </trkpt>
      <trkpt lat="44.03001" lon="1.87673">
        <ele>271</ele>
        <time>2020-10-04T13:51:59.729Z</time>
      </trkpt>
      <trkpt lat="44.03" lon="1.87672">
        <ele>271</ele>
        <time>2020-10-04T13:52:00.729Z</time>
      </trkpt>
      <trkpt lat="44.02999" lon="1.87671">
        <ele>272</ele>
        <time>2020-10-04T13:52:01.729Z</time>
      </trkpt>
      <trkpt lat="44.02998" lon="1.8767">
        <ele>272</ele>
        <time>2020-10-04T13:52:02.729Z</time>
      </trkpt>
      <trkpt lat="44.02997" lon="1.87669">
        <ele>272</ele>
        <time>2020-10-04T13:52:03.729Z</time>
      </trkpt>
      <trkpt lat="44.02996" lon="1.87667">
        <ele>272</ele>
        <time>2020-10-04T13:52:04.729Z</time>
      </trkpt>
      <trkpt lat="44.02995" lon="1.87665">
        <ele>272</ele>
        <time>2020-10-04T13:52:05.729Z</time>
      </trkpt>
      <trkpt lat="44.02995" lon="1.87664">
        <ele>272</ele>
        <time>2020-10-04T13:52:06.729Z</time>
      </trkpt>
      <trkpt lat="44.02994" lon="1.87662">
        <ele>272</ele>
        <time>2020-10-04T13:52:07.729Z</time>
      </trkpt>
      <trkpt lat="44.02994" lon="1.8766">
        <ele>272</ele>
        <time>2020-10-04T13:52:08.729Z</time>
      </trkpt>
      <trkpt lat="44.02993" lon="1.87659">
        <ele>272</ele>
        <time>2020-10-04T13:52:09.729Z</time>
      </trkpt>
      <trkpt lat="44.02993" lon="1.87658">
        <ele>272</ele>
        <time>2020-10-04T13:52:10.729Z</time>
      </trkpt>
      <trkpt lat="44.02992" lon="1.87656">
        <ele>272</ele>
        <time>2020-10-04T13:52:11.729Z</time>
      </trkpt>
      <trkpt lat="44.02992" lon="1.87655">
        <ele>273</ele>
        <time>2020-10-04T13:52:12.729Z</time>
      </trkpt>
      <trkpt lat="44.02991" lon="1.87653">
        <ele>273</ele>
        <time>2020-10-04T13:52:13.729Z</time>
      </trkpt>
      <trkpt lat="44.0299" lon="1.87652">
        <ele>273</ele>
        <time>2020-10-04T13:52:14.729Z</time>
      </trkpt>
      <trkpt lat="44.0299" lon="1.8765">
        <ele>273</ele>
        <time>2020-10-04T13:52:15.729Z</time>
      </trkpt>
      <trkpt lat="44.02989" lon="1.87649">
        <ele>273</ele>
        <time>2020-10-04T13:52:16.729Z</time>
      </trkpt>
      <trkpt lat="44.02988" lon="1.87647">
        <ele>273</ele>
        <time>2020-10-04T13:52:17.729Z</time>
      </trkpt>
      <trkpt lat="44.02988" lon="1.87645">
        <ele>273</ele>
        <time>2020-10-04T13:52:18.729Z</time>
      </trkpt>
      <trkpt lat="44.02987" lon="1.87644">
        <ele>273</ele>
        <time>2020-10-04T13:52:19.729Z</time>
      </trkpt>
      <trkpt lat="44.02987" lon="1.87643">
        <ele>273</ele>
        <time>2020-10-04T13:52:20.729Z</time>
      </trkpt>
      <trkpt lat="44.02986" lon="1.87641">
        <ele>273</ele>
        <time>2020-10-04T13:52:21.729Z</time>
      </trkpt>
      <trkpt lat="44.02985" lon="1.8764">
        <ele>272</ele>
        <time>2020-10-04T13:52:22.729Z</time>
      </trkpt>
      <trkpt lat="44.02985" lon="1.87638">
        <ele>272</ele>
        <time>2020-10-04T13:52:23.729Z</time>
      </trkpt>
      <trkpt lat="44.02984" lon="1.87637">
        <ele>272</ele>
        <time>2020-10-04T13:52:24.729Z</time>
      </trkpt>
      <trkpt lat="44.02984" lon="1.87635">
        <ele>272</ele>
        <time>2020-10-04T13:52:25.729Z</time>
      </trkpt>
      <trkpt lat="44.02983" lon="1.87634">
        <ele>272</ele>
        <time>2020-10-04T13:52:26.729Z</time>
      </trkpt>
      <trkpt lat="44.02982" lon="1.87633">
        <ele>272</ele>
        <time>2020-10-04T13:52:27.729Z</time>
      </trkpt>
      <trkpt lat="44.02982" lon="1.87632">
        <ele>272</ele>
        <time>2020-10-04T13:52:28.729Z</time>
      </trkpt>
      <trkpt lat="44.02981" lon="1.87631">
        <ele>273</ele>
        <time>2020-10-04T13:52:29.729Z</time>
      </trkpt>
      <trkpt lat="44.0298" lon="1.87629">
        <ele>273</ele>
        <time>2020-10-04T13:52:30.729Z</time>
      </trkpt>
      <trkpt lat="44.02979" lon="1.87628">
        <ele>273</ele>
        <time>2020-10-04T13:52:31.729Z</time>
      </trkpt>
      <trkpt lat="44.02978" lon="1.87627">
        <ele>273</ele>
        <time>2020-10-04T13:52:32.729Z</time>
      </trkpt>
      <trkpt lat="44.02977" lon="1.87626">
        <ele>273</ele>
        <time>2020-10-04T13:52:33.729Z</time>
      </trkpt>
      <trkpt lat="44.02976" lon="1.87626">
        <ele>273</ele>
        <time>2020-10-04T13:52:34.729Z</time>
      </trkpt>
      <trkpt lat="44.02975" lon="1.87625">
        <ele>273</ele>
        <time>2020-10-04T13:52:35.729Z</time>
      </trkpt>
      <trkpt lat="44.02974" lon="1.87624">
        <ele>273</ele>
        <time>2020-10-04T13:52:36.729Z</time>
      </trkpt>
      <trkpt lat="44.02973" lon="1.87623">
        <ele>273</ele>
        <time>2020-10-04T13:52:37.729Z</time>
      </trkpt>
      <trkpt lat="44.02973" lon="1.87622">
        <ele>273</ele>
        <time>2020-10-04T13:52:38.729Z</time>
      </trkpt>
      <trkpt lat="44.02972" lon="1.87621">
        <ele>273</ele>
        <time>2020-10-04T13:52:39.729Z</time>
      </trkpt>
      <trkpt lat="44.02971" lon="1.87621">
        <ele>273</ele>
        <time>2020-10-04T13:52:40.729Z</time>
      </trkpt>
      <trkpt lat="44.02971" lon="1.8762">
        <ele>273</ele>
        <time>2020-10-04T13:52:41.729Z</time>
      </trkpt>
      <trkpt lat="44.0297" lon="1.87619">
        <ele>273</ele>
        <time>2020-10-04T13:52:42.729Z</time>
      </trkpt>
      <trkpt lat="44.02969" lon="1.87619">
        <ele>273</ele>
        <time>2020-10-04T13:52:43.729Z</time>
      </trkpt>
      <trkpt lat="44.02968" lon="1.87619">
        <ele>273</ele>
        <time>2020-10-04T13:52:44.729Z</time>
      </trkpt>
      <trkpt lat="44.02967" lon="1.87618">
        <ele>273</ele>
        <time>2020-10-04T13:52:45.729Z</time>
      </trkpt>
      <trkpt lat="44.02966" lon="1.87618">
        <ele>273</ele>
        <time>2020-10-04T13:52:46.729Z</time>
      </trkpt>
      <trkpt lat="44.02965" lon="1.87618">
        <ele>273</ele>
        <time>2020-10-04T13:52:47.729Z</time>
      </trkpt>
      <trkpt lat="44.02964" lon="1.87618">
        <ele>273</ele>
        <time>2020-10-04T13:52:48.729Z</time>
      </trkpt>
      <trkpt lat="44.02963" lon="1.87617">
        <ele>273</ele>
        <time>2020-10-04T13:52:49.729Z</time>
      </trkpt>
      <trkpt lat="44.02962" lon="1.87617">
        <ele>273</ele>
        <time>2020-10-04T13:52:50.729Z</time>
      </trkpt>
      <trkpt lat="44.02961" lon="1.87616">
        <ele>273</ele>
        <time>2020-10-04T13:52:51.729Z</time>
      </trkpt>
      <trkpt lat="44.0296" lon="1.87616">
        <ele>273</ele>
        <time>2020-10-04T13:52:52.729Z</time>
      </trkpt>
      <trkpt lat="44.02959" lon="1.87615">
        <ele>273</ele>
        <time>2020-10-04T13:52:53.729Z</time>
      </trkpt>
      <trkpt lat="44.02958" lon="1.87615">
        <ele>273</ele>
        <time>2020-10-04T13:52:54.729Z</time>
      </trkpt>
      <trkpt lat="44.02957" lon="1.87614">
        <ele>273</ele>
        <time>2020-10-04T13:52:55.729Z</time>
      </trkpt>
      <trkpt lat="44.02955" lon="1.87614">
        <ele>273</ele>
        <time>2020-10-04T13:52:56.729Z</time>
      </trkpt>
      <trkpt lat="44.02954" lon="1.87613">
        <ele>272</ele>
        <time>2020-10-04T13:52:57.729Z</time>
      </trkpt>
      <trkpt lat="44.02953" lon="1.87612">
        <ele>272</ele>
        <time>2020-10-04T13:52:58.729Z</time>
      </trkpt>
      <trkpt lat="44.02951" lon="1.87611">
        <ele>272</ele>
        <time>2020-10-04T13:52:59.729Z</time>
      </trkpt>
      <trkpt lat="44.0295" lon="1.87611">
        <ele>272</ele>
        <time>2020-10-04T13:53:00.729Z</time>
      </trkpt>
      <trkpt lat="44.02949" lon="1.8761">
        <ele>272</ele>
        <time>2020-10-04T13:53:01.729Z</time>
      </trkpt>
      <trkpt lat="44.02948" lon="1.87609">
        <ele>272</ele>
        <time>2020-10-04T13:53:02.729Z</time>
      </trkpt>
      <trkpt lat="44.02947" lon="1.87609">
        <ele>272</ele>
        <time>2020-10-04T13:53:03.729Z</time>
      </trkpt>
      <trkpt lat="44.02946" lon="1.87608">
        <ele>272</ele>
        <time>2020-10-04T13:53:04.729Z</time>
      </trkpt>
      <trkpt lat="44.02945" lon="1.87608">
        <ele>272</ele>
        <time>2020-10-04T13:53:05.729Z</time>
      </trkpt>
      <trkpt lat="44.02945" lon="1.87607">
        <ele>272</ele>
        <time>2020-10-04T13:53:06.729Z</time>
      </trkpt>
      <trkpt lat="44.02944" lon="1.87606">
        <ele>272</ele>
        <time>2020-10-04T13:53:07.729Z</time>
      </trkpt>
      <trkpt lat="44.02944" lon="1.87605">
        <ele>272</ele>
        <time>2020-10-04T13:53:08.729Z</time>
      </trkpt>
      <trkpt lat="44.02944" lon="1.87604">
        <ele>272</ele>
        <time>2020-10-04T13:53:09.729Z</time>
      </trkpt>
      <trkpt lat="44.02944" lon="1.87602">
        <ele>272</ele>
        <time>2020-10-04T13:53:10.729Z</time>
      </trkpt>
      <trkpt lat="44.02944" lon="1.87601">
        <ele>272</ele>
        <time>2020-10-04T13:53:11.729Z</time>
      </trkpt>
      <trkpt lat="44.02944" lon="1.87599">
        <ele>271</ele>
        <time>2020-10-04T13:53:12.729Z</time>
      </trkpt>
      <trkpt lat="44.02944" lon="1.87598">
        <ele>271</ele>
        <time>2020-10-04T13:53:13.729Z</time>
      </trkpt>
      <trkpt lat="44.02944" lon="1.87596">
        <ele>271</ele>
        <time>2020-10-04T13:53:14.729Z</time>
      </trkpt>
      <trkpt lat="44.02944" lon="1.87595">
        <ele>270</ele>
        <time>2020-10-04T13:53:15.729Z</time>
      </trkpt>
      <trkpt lat="44.02945" lon="1.87593">
        <ele>270</ele>
        <time>2020-10-04T13:53:16.729Z</time>
      </trkpt>
      <trkpt lat="44.02945" lon="1.87592">
        <ele>270</ele>
        <time>2020-10-04T13:53:17.729Z</time>
      </trkpt>
      <trkpt lat="44.02946" lon="1.8759">
        <ele>270</ele>
        <time>2020-10-04T13:53:18.729Z</time>
      </trkpt>
      <trkpt lat="44.02946" lon="1.87589">
        <ele>270</ele>
        <time>2020-10-04T13:53:19.729Z</time>
      </trkpt>
      <trkpt lat="44.02946" lon="1.87588">
        <ele>270</ele>
        <time>2020-10-04T13:53:20.729Z</time>
      </trkpt>
      <trkpt lat="44.02947" lon="1.87586">
        <ele>269</ele>
        <time>2020-10-04T13:53:21.729Z</time>
      </trkpt>
      <trkpt lat="44.02947" lon="1.87585">
        <ele>269</ele>
        <time>2020-10-04T13:53:22.729Z</time>
      </trkpt>
      <trkpt lat="44.02948" lon="1.87583">
        <ele>269</ele>
        <time>2020-10-04T13:53:23.729Z</time>
      </trkpt>
      <trkpt lat="44.02948" lon="1.87581">
        <ele>269</ele>
        <time>2020-10-04T13:53:24.729Z</time>
      </trkpt>
      <trkpt lat="44.02949" lon="1.8758">
        <ele>269</ele>
        <time>2020-10-04T13:53:25.729Z</time>
      </trkpt>
      <trkpt lat="44.02949" lon="1.87579">
        <ele>269</ele>
        <time>2020-10-04T13:53:26.729Z</time>
      </trkpt>
      <trkpt lat="44.0295" lon="1.87578">
        <ele>270</ele>
        <time>2020-10-04T13:53:27.729Z</time>
      </trkpt>
      <trkpt lat="44.02951" lon="1.87577">
        <ele>270</ele>
        <time>2020-10-04T13:53:28.729Z</time>
      </trkpt>
      <trkpt lat="44.02951" lon="1.87576">
        <ele>270</ele>
        <time>2020-10-04T13:53:29.729Z</time>
      </trkpt>
      <trkpt lat="44.02952" lon="1.87575">
        <ele>270</ele>
        <time>2020-10-04T13:53:30.729Z</time>
      </trkpt>
      <trkpt lat="44.02953" lon="1.87574">
        <ele>270</ele>
        <time>2020-10-04T13:53:31.729Z</time>
      </trkpt>
      <trkpt lat="44.02954" lon="1.87573">
        <ele>270</ele>
        <time>2020-10-04T13:53:32.729Z</time>
      </trkpt>
      <trkpt lat="44.02954" lon="1.87572">
        <ele>269</ele>
        <time>2020-10-04T13:53:33.729Z</time>
      </trkpt>
      <trkpt lat="44.02955" lon="1.87571">
        <ele>269</ele>
        <time>2020-10-04T13:53:34.729Z</time>
      </trkpt>
      <trkpt lat="44.02956" lon="1.87569">
        <ele>269</ele>
        <time>2020-10-04T13:53:35.729Z</time>
      </trkpt>
      <trkpt lat="44.02957" lon="1.87568">
        <ele>269</ele>
        <time>2020-10-04T13:53:36.729Z</time>
      </trkpt>
      <trkpt lat="44.02958" lon="1.87566">
        <ele>269</ele>
        <time>2020-10-04T13:53:37.729Z</time>
      </trkpt>
      <trkpt lat="44.02958" lon="1.87565">
        <ele>269</ele>
        <time>2020-10-04T13:53:38.729Z</time>
      </trkpt>
      <trkpt lat="44.02959" lon="1.87564">
        <ele>269</ele>
        <time>2020-10-04T13:53:39.729Z</time>
      </trkpt>
      <trkpt lat="44.02959" lon="1.87563">
        <ele>269</ele>
        <time>2020-10-04T13:53:40.729Z</time>
      </trkpt>
      <trkpt lat="44.0296" lon="1.87562">
        <ele>268</ele>
        <time>2020-10-04T13:53:41.729Z</time>
      </trkpt>
      <trkpt lat="44.02961" lon="1.87562">
        <ele>268</ele>
        <time>2020-10-04T13:53:42.729Z</time>
      </trkpt>
      <trkpt lat="44.02962" lon="1.87561">
        <ele>268</ele>
        <time>2020-10-04T13:53:43.729Z</time>
      </trkpt>
      <trkpt lat="44.02963" lon="1.8756">
        <ele>268</ele>
        <time>2020-10-04T13:53:44.729Z</time>
      </trkpt>
      <trkpt lat="44.02964" lon="1.87559">
        <ele>268</ele>
        <time>2020-10-04T13:53:45.729Z</time>
      </trkpt>
      <trkpt lat="44.02964" lon="1.87558">
        <ele>268</ele>
        <time>2020-10-04T13:53:46.729Z</time>
      </trkpt>
      <trkpt lat="44.02965" lon="1.87557">
        <ele>268</ele>
        <time>2020-10-04T13:53:47.729Z</time>
      </trkpt>
      <trkpt lat="44.02966" lon="1.87556">
        <ele>268</ele>
        <time>2020-10-04T13:53:48.729Z</time>
      </trkpt>
      <trkpt lat="44.02967" lon="1.87555">
        <ele>267</ele>
        <time>2020-10-04T13:53:49.729Z</time>
      </trkpt>
      <trkpt lat="44.02967" lon="1.87553">
        <ele>267</ele>
        <time>2020-10-04T13:53:50.729Z</time>
      </trkpt>
      <trkpt lat="44.02968" lon="1.87552">
        <ele>267</ele>
        <time>2020-10-04T13:53:51.729Z</time>
      </trkpt>
      <trkpt lat="44.02969" lon="1.8755">
        <ele>267</ele>
        <time>2020-10-04T13:53:52.729Z</time>
      </trkpt>
      <trkpt lat="44.02969" lon="1.87549">
        <ele>267</ele>
        <time>2020-10-04T13:53:53.729Z</time>
      </trkpt>
      <trkpt lat="44.0297" lon="1.87547">
        <ele>267</ele>
        <time>2020-10-04T13:53:54.729Z</time>
      </trkpt>
      <trkpt lat="44.0297" lon="1.87546">
        <ele>267</ele>
        <time>2020-10-04T13:53:55.729Z</time>
      </trkpt>
      <trkpt lat="44.0297" lon="1.87545">
        <ele>267</ele>
        <time>2020-10-04T13:53:56.729Z</time>
      </trkpt>
      <trkpt lat="44.0297" lon="1.87543">
        <ele>267</ele>
        <time>2020-10-04T13:53:57.729Z</time>
      </trkpt>
      <trkpt lat="44.0297" lon="1.87541">
        <ele>267</ele>
        <time>2020-10-04T13:53:58.729Z</time>
      </trkpt>
      <trkpt lat="44.0297" lon="1.8754">
        <ele>267</ele>
        <time>2020-10-04T13:53:59.729Z</time>
      </trkpt>
      <trkpt lat="44.0297" lon="1.87539">
        <ele>267</ele>
        <time>2020-10-04T13:54:00.729Z</time>
      </trkpt>
      <trkpt lat="44.0297" lon="1.87538">
        <ele>267</ele>
        <time>2020-10-04T13:54:01.729Z</time>
      </trkpt>
      <trkpt lat="44.0297" lon="1.87537">
        <ele>267</ele>
        <time>2020-10-04T13:54:02.729Z</time>
      </trkpt>
      <trkpt lat="44.02969" lon="1.87536">
        <ele>267</ele>
        <time>2020-10-04T13:54:03.729Z</time>
      </trkpt>
      <trkpt lat="44.02969" lon="1.87534">
        <ele>267</ele>
        <time>2020-10-04T13:54:04.729Z</time>
      </trkpt>
      <trkpt lat="44.02969" lon="1.87533">
        <ele>267</ele>
        <time>2020-10-04T13:54:05.729Z</time>
      </trkpt>
      <trkpt lat="44.02969" lon="1.87531">
        <ele>267</ele>
        <time>2020-10-04T13:54:06.729Z</time>
      </trkpt>
      <trkpt lat="44.02969" lon="1.8753">
        <ele>267</ele>
        <time>2020-10-04T13:54:07.729Z</time>
      </trkpt>
      <trkpt lat="44.02969" lon="1.87528">
        <ele>267</ele>
        <time>2020-10-04T13:54:08.729Z</time>
      </trkpt>
      <trkpt lat="44.02969" lon="1.87527">
        <ele>268</ele>
        <time>2020-10-04T13:54:09.729Z</time>
      </trkpt>
      <trkpt lat="44.02968" lon="1.87525">
        <ele>268</ele>
        <time>2020-10-04T13:54:10.729Z</time>
      </trkpt>
      <trkpt lat="44.02968" lon="1.87524">
        <ele>268</ele>
        <time>2020-10-04T13:54:11.729Z</time>
      </trkpt>
      <trkpt lat="44.02968" lon="1.87523">
        <ele>268</ele>
        <time>2020-10-04T13:54:12.729Z</time>
      </trkpt>
      <trkpt lat="44.02967" lon="1.87521">
        <ele>268</ele>
        <time>2020-10-04T13:54:13.729Z</time>
      </trkpt>
      <trkpt lat="44.02967" lon="1.8752">
        <ele>268</ele>
        <time>2020-10-04T13:54:14.729Z</time>
      </trkpt>
      <trkpt lat="44.02967" lon="1.87518">
        <ele>268</ele>
        <time>2020-10-04T13:54:15.729Z</time>
      </trkpt>
      <trkpt lat="44.02966" lon="1.87517">
        <ele>268</ele>
        <time>2020-10-04T13:54:16.729Z</time>
      </trkpt>
      <trkpt lat="44.02966" lon="1.87515">
        <ele>268</ele>
        <time>2020-10-04T13:54:17.729Z</time>
      </trkpt>
      <trkpt lat="44.02966" lon="1.87514">
        <ele>267</ele>
        <time>2020-10-04T13:54:18.729Z</time>
      </trkpt>
      <trkpt lat="44.02966" lon="1.87513">
        <ele>267</ele>
        <time>2020-10-04T13:54:19.729Z</time>
      </trkpt>
      <trkpt lat="44.02965" lon="1.87511">
        <ele>267</ele>
        <time>2020-10-04T13:54:20.729Z</time>
      </trkpt>
      <trkpt lat="44.02965" lon="1.8751">
        <ele>267</ele>
        <time>2020-10-04T13:54:21.729Z</time>
      </trkpt>
      <trkpt lat="44.02964" lon="1.87508">
        <ele>267</ele>
        <time>2020-10-04T13:54:22.729Z</time>
      </trkpt>
      <trkpt lat="44.02964" lon="1.87507">
        <ele>267</ele>
        <time>2020-10-04T13:54:23.729Z</time>
      </trkpt>
      <trkpt lat="44.02964" lon="1.87505">
        <ele>267</ele>
        <time>2020-10-04T13:54:24.729Z</time>
      </trkpt>
      <trkpt lat="44.02963" lon="1.87504">
        <ele>267</ele>
        <time>2020-10-04T13:54:25.729Z</time>
      </trkpt>
      <trkpt lat="44.02963" lon="1.87502">
        <ele>267</ele>
        <time>2020-10-04T13:54:26.729Z</time>
      </trkpt>
      <trkpt lat="44.02963" lon="1.875">
        <ele>267</ele>
        <time>2020-10-04T13:54:27.729Z</time>
      </trkpt>
      <trkpt lat="44.02963" lon="1.87499">
        <ele>267</ele>
        <time>2020-10-04T13:54:28.729Z</time>
      </trkpt>
      <trkpt lat="44.02962" lon="1.87497">
        <ele>267</ele>
        <time>2020-10-04T13:54:29.729Z</time>
      </trkpt>
      <trkpt lat="44.02961" lon="1.87496">
        <ele>267</ele>
        <time>2020-10-04T13:54:30.729Z</time>
      </trkpt>
      <trkpt lat="44.02961" lon="1.87495">
        <ele>267</ele>
        <time>2020-10-04T13:54:31.729Z</time>
      </trkpt>
      <trkpt lat="44.02961" lon="1.87493">
        <ele>266</ele>
        <time>2020-10-04T13:54:32.729Z</time>
      </trkpt>
      <trkpt lat="44.0296" lon="1.87492">
        <ele>266</ele>
        <time>2020-10-04T13:54:33.729Z</time>
      </trkpt>
      <trkpt lat="44.0296" lon="1.8749">
        <ele>266</ele>
        <time>2020-10-04T13:54:34.729Z</time>
      </trkpt>
      <trkpt lat="44.0296" lon="1.87488">
        <ele>266</ele>
        <time>2020-10-04T13:54:35.729Z</time>
      </trkpt>
      <trkpt lat="44.0296" lon="1.87487">
        <ele>266</ele>
        <time>2020-10-04T13:54:36.729Z</time>
      </trkpt>
      <trkpt lat="44.02959" lon="1.87485">
        <ele>266</ele>
        <time>2020-10-04T13:54:37.729Z</time>
      </trkpt>
      <trkpt lat="44.02959" lon="1.87484">
        <ele>266</ele>
        <time>2020-10-04T13:54:38.729Z</time>
      </trkpt>
      <trkpt lat="44.02959" lon="1.87483">
        <ele>266</ele>
        <time>2020-10-04T13:54:39.729Z</time>
      </trkpt>
      <trkpt lat="44.02958" lon="1.87481">
        <ele>266</ele>
        <time>2020-10-04T13:54:40.729Z</time>
      </trkpt>
      <trkpt lat="44.02958" lon="1.8748">
        <ele>266</ele>
        <time>2020-10-04T13:54:41.729Z</time>
      </trkpt>
      <trkpt lat="44.02957" lon="1.87479">
        <ele>266</ele>
        <time>2020-10-04T13:54:42.729Z</time>
      </trkpt>
      <trkpt lat="44.02956" lon="1.87477">
        <ele>265</ele>
        <time>2020-10-04T13:54:43.729Z</time>
      </trkpt>
      <trkpt lat="44.02956" lon="1.87475">
        <ele>265</ele>
        <time>2020-10-04T13:54:44.729Z</time>
      </trkpt>
      <trkpt lat="44.02956" lon="1.87474">
        <ele>265</ele>
        <time>2020-10-04T13:54:45.729Z</time>
      </trkpt>
      <trkpt lat="44.02955" lon="1.87473">
        <ele>265</ele>
        <time>2020-10-04T13:54:46.729Z</time>
      </trkpt>
      <trkpt lat="44.02955" lon="1.87472">
        <ele>265</ele>
        <time>2020-10-04T13:54:47.729Z</time>
      </trkpt>
      <trkpt lat="44.02955" lon="1.8747">
        <ele>265</ele>
        <time>2020-10-04T13:54:48.729Z</time>
      </trkpt>
      <trkpt lat="44.02954" lon="1.87468">
        <ele>265</ele>
        <time>2020-10-04T13:54:49.729Z</time>
      </trkpt>
      <trkpt lat="44.02954" lon="1.87466">
        <ele>265</ele>
        <time>2020-10-04T13:54:50.729Z</time>
      </trkpt>
      <trkpt lat="44.02953" lon="1.87465">
        <ele>264</ele>
        <time>2020-10-04T13:54:51.729Z</time>
      </trkpt>
      <trkpt lat="44.02953" lon="1.87464">
        <ele>264</ele>
        <time>2020-10-04T13:54:52.729Z</time>
      </trkpt>
      <trkpt lat="44.02952" lon="1.87462">
        <ele>264</ele>
        <time>2020-10-04T13:54:53.729Z</time>
      </trkpt>
      <trkpt lat="44.02952" lon="1.8746">
        <ele>264</ele>
        <time>2020-10-04T13:54:54.729Z</time>
      </trkpt>
      <trkpt lat="44.02952" lon="1.87459">
        <ele>264</ele>
        <time>2020-10-04T13:54:55.729Z</time>
      </trkpt>
      <trkpt lat="44.02952" lon="1.87459">
        <ele>264</ele>
        <time>2020-10-04T13:54:56.729Z</time>
      </trkpt>
      <trkpt lat="44.02952" lon="1.87459">
        <ele>263</ele>
        <time>2020-10-04T13:54:57.729Z</time>
      </trkpt>
      <trkpt lat="44.02951" lon="1.87458">
        <ele>263</ele>
        <time>2020-10-04T13:54:58.729Z</time>
      </trkpt>
      <trkpt lat="44.0295" lon="1.87456">
        <ele>263</ele>
        <time>2020-10-04T13:54:59.729Z</time>
      </trkpt>
      <trkpt lat="44.02949" lon="1.87455">
        <ele>263</ele>
        <time>2020-10-04T13:55:00.729Z</time>
      </trkpt>
      <trkpt lat="44.02949" lon="1.87453">
        <ele>263</ele>
        <time>2020-10-04T13:55:01.729Z</time>
      </trkpt>
      <trkpt lat="44.02948" lon="1.87452">
        <ele>263</ele>
        <time>2020-10-04T13:55:02.729Z</time>
      </trkpt>
      <trkpt lat="44.02947" lon="1.8745">
        <ele>263</ele>
        <time>2020-10-04T13:55:03.729Z</time>
      </trkpt>
      <trkpt lat="44.02946" lon="1.87449">
        <ele>263</ele>
        <time>2020-10-04T13:55:04.729Z</time>
      </trkpt>
      <trkpt lat="44.02945" lon="1.87448">
        <ele>263</ele>
        <time>2020-10-04T13:55:05.729Z</time>
      </trkpt>
      <trkpt lat="44.02945" lon="1.87447">
        <ele>262</ele>
        <time>2020-10-04T13:55:06.729Z</time>
      </trkpt>
      <trkpt lat="44.02944" lon="1.87445">
        <ele>262</ele>
        <time>2020-10-04T13:55:07.729Z</time>
      </trkpt>
      <trkpt lat="44.02943" lon="1.87444">
        <ele>262</ele>
        <time>2020-10-04T13:55:08.729Z</time>
      </trkpt>
      <trkpt lat="44.02943" lon="1.87442">
        <ele>262</ele>
        <time>2020-10-04T13:55:09.729Z</time>
      </trkpt>
      <trkpt lat="44.02942" lon="1.8744">
        <ele>262</ele>
        <time>2020-10-04T13:55:10.729Z</time>
      </trkpt>
      <trkpt lat="44.02942" lon="1.87439">
        <ele>261</ele>
        <time>2020-10-04T13:55:11.729Z</time>
      </trkpt>
      <trkpt lat="44.02941" lon="1.87437">
        <ele>261</ele>
        <time>2020-10-04T13:55:12.729Z</time>
      </trkpt>
      <trkpt lat="44.0294" lon="1.87436">
        <ele>261</ele>
        <time>2020-10-04T13:55:13.729Z</time>
      </trkpt>
      <trkpt lat="44.0294" lon="1.87435">
        <ele>261</ele>
        <time>2020-10-04T13:55:14.729Z</time>
      </trkpt>
      <trkpt lat="44.02939" lon="1.87434">
        <ele>260</ele>
        <time>2020-10-04T13:55:15.729Z</time>
      </trkpt>
      <trkpt lat="44.02938" lon="1.87433">
        <ele>260</ele>
        <time>2020-10-04T13:55:16.729Z</time>
      </trkpt>
      <trkpt lat="44.02937" lon="1.87432">
        <ele>260</ele>
        <time>2020-10-04T13:55:17.729Z</time>
      </trkpt>
      <trkpt lat="44.02937" lon="1.8743">
        <ele>260</ele>
        <time>2020-10-04T13:55:18.729Z</time>
      </trkpt>
      <trkpt lat="44.02936" lon="1.87429">
        <ele>260</ele>
        <time>2020-10-04T13:55:19.729Z</time>
      </trkpt>
      <trkpt lat="44.02936" lon="1.87428">
        <ele>259</ele>
        <time>2020-10-04T13:55:20.729Z</time>
      </trkpt>
      <trkpt lat="44.02935" lon="1.87427">
        <ele>259</ele>
        <time>2020-10-04T13:55:21.729Z</time>
      </trkpt>
      <trkpt lat="44.02934" lon="1.87426">
        <ele>259</ele>
        <time>2020-10-04T13:55:22.729Z</time>
      </trkpt>
      <trkpt lat="44.02934" lon="1.87424">
        <ele>259</ele>
        <time>2020-10-04T13:55:23.729Z</time>
      </trkpt>
      <trkpt lat="44.02933" lon="1.87423">
        <ele>259</ele>
        <time>2020-10-04T13:55:24.729Z</time>
      </trkpt>
      <trkpt lat="44.02932" lon="1.87421">
        <ele>259</ele>
        <time>2020-10-04T13:55:25.729Z</time>
      </trkpt>
      <trkpt lat="44.02932" lon="1.8742">
        <ele>258</ele>
        <time>2020-10-04T13:55:26.729Z</time>
      </trkpt>
      <trkpt lat="44.02932" lon="1.87419">
        <ele>258</ele>
        <time>2020-10-04T13:55:27.729Z</time>
      </trkpt>
      <trkpt lat="44.02932" lon="1.87417">
        <ele>258</ele>
        <time>2020-10-04T13:55:28.729Z</time>
      </trkpt>
      <trkpt lat="44.02932" lon="1.87417">
        <ele>257</ele>
        <time>2020-10-04T13:55:29.729Z</time>
      </trkpt>
      <trkpt lat="44.02932" lon="1.87417">
        <ele>257</ele>
        <time>2020-10-04T13:55:30.729Z</time>
      </trkpt>
      <trkpt lat="44.02932" lon="1.87417">
        <ele>257</ele>
        <time>2020-10-04T13:55:31.729Z</time>
      </trkpt>
      <trkpt lat="44.02932" lon="1.87416">
        <ele>257</ele>
        <time>2020-10-04T13:55:32.729Z</time>
      </trkpt>
      <trkpt lat="44.02931" lon="1.87415">
        <ele>256</ele>
        <time>2020-10-04T13:55:33.729Z</time>
      </trkpt>
      <trkpt lat="44.02931" lon="1.87414">
        <ele>255</ele>
        <time>2020-10-04T13:55:34.729Z</time>
      </trkpt>
      <trkpt lat="44.02931" lon="1.87415">
        <ele>255</ele>
        <time>2020-10-04T13:55:35.729Z</time>
      </trkpt>
      <trkpt lat="44.02931" lon="1.87415">
        <ele>255</ele>
        <time>2020-10-04T13:55:36.729Z</time>
      </trkpt>
      <trkpt lat="44.02931" lon="1.87415">
        <ele>255</ele>
        <time>2020-10-04T13:55:37.729Z</time>
      </trkpt>
      <trkpt lat="44.0293" lon="1.87416">
        <ele>255</ele>
        <time>2020-10-04T13:55:38.729Z</time>
      </trkpt>
      <trkpt lat="44.02929" lon="1.87417">
        <ele>255</ele>
        <time>2020-10-04T13:55:39.729Z</time>
      </trkpt>
      <trkpt lat="44.02929" lon="1.87418">
        <ele>254</ele>
        <time>2020-10-04T13:55:40.729Z</time>
      </trkpt>
      <trkpt lat="44.02928" lon="1.87419">
        <ele>254</ele>
        <time>2020-10-04T13:55:41.729Z</time>
      </trkpt>
      <trkpt lat="44.02928" lon="1.8742">
        <ele>254</ele>
        <time>2020-10-04T13:55:42.729Z</time>
      </trkpt>
      <trkpt lat="44.02928" lon="1.87422">
        <ele>254</ele>
        <time>2020-10-04T13:55:43.729Z</time>
      </trkpt>
      <trkpt lat="44.02928" lon="1.87423">
        <ele>253</ele>
        <time>2020-10-04T13:55:44.729Z</time>
      </trkpt>
      <trkpt lat="44.02927" lon="1.87424">
        <ele>253</ele>
        <time>2020-10-04T13:55:45.729Z</time>
      </trkpt>
      <trkpt lat="44.02927" lon="1.87426">
        <ele>253</ele>
        <time>2020-10-04T13:55:46.729Z</time>
      </trkpt>
      <trkpt lat="44.02926" lon="1.87427">
        <ele>252</ele>
        <time>2020-10-04T13:55:47.729Z</time>
      </trkpt>
      <trkpt lat="44.02926" lon="1.87428">
        <ele>252</ele>
        <time>2020-10-04T13:55:48.729Z</time>
      </trkpt>
      <trkpt lat="44.02926" lon="1.87429">
        <ele>252</ele>
        <time>2020-10-04T13:55:49.729Z</time>
      </trkpt>
      <trkpt lat="44.02925" lon="1.87431">
        <ele>252</ele>
        <time>2020-10-04T13:55:50.729Z</time>
      </trkpt>
      <trkpt lat="44.02925" lon="1.87432">
        <ele>252</ele>
        <time>2020-10-04T13:55:51.729Z</time>
      </trkpt>
      <trkpt lat="44.02924" lon="1.87434">
        <ele>251</ele>
        <time>2020-10-04T13:55:52.729Z</time>
      </trkpt>
      <trkpt lat="44.02924" lon="1.87436">
        <ele>251</ele>
        <time>2020-10-04T13:55:53.729Z</time>
      </trkpt>
      <trkpt lat="44.02923" lon="1.87438">
        <ele>251</ele>
        <time>2020-10-04T13:55:54.729Z</time>
      </trkpt>
      <trkpt lat="44.02923" lon="1.87439">
        <ele>251</ele>
        <time>2020-10-04T13:55:55.729Z</time>
      </trkpt>
      <trkpt lat="44.02922" lon="1.87441">
        <ele>251</ele>
        <time>2020-10-04T13:55:56.729Z</time>
      </trkpt>
      <trkpt lat="44.02922" lon="1.87442">
        <ele>251</ele>
        <time>2020-10-04T13:55:57.729Z</time>
      </trkpt>
      <trkpt lat="44.02921" lon="1.87444">
        <ele>250</ele>
        <time>2020-10-04T13:55:58.729Z</time>
      </trkpt>
      <trkpt lat="44.02921" lon="1.87445">
        <ele>250</ele>
        <time>2020-10-04T13:55:59.729Z</time>
      </trkpt>
      <trkpt lat="44.0292" lon="1.87447">
        <ele>250</ele>
        <time>2020-10-04T13:56:00.729Z</time>
      </trkpt>
      <trkpt lat="44.0292" lon="1.87449">
        <ele>250</ele>
        <time>2020-10-04T13:56:01.729Z</time>
      </trkpt>
      <trkpt lat="44.02919" lon="1.8745">
        <ele>250</ele>
        <time>2020-10-04T13:56:02.729Z</time>
      </trkpt>
      <trkpt lat="44.02919" lon="1.87452">
        <ele>250</ele>
        <time>2020-10-04T13:56:03.729Z</time>
      </trkpt>
      <trkpt lat="44.02918" lon="1.87453">
        <ele>249</ele>
        <time>2020-10-04T13:56:04.729Z</time>
      </trkpt>
      <trkpt lat="44.02917" lon="1.87455">
        <ele>249</ele>
        <time>2020-10-04T13:56:05.729Z</time>
      </trkpt>
      <trkpt lat="44.02916" lon="1.87457">
        <ele>249</ele>
        <time>2020-10-04T13:56:06.729Z</time>
      </trkpt>
      <trkpt lat="44.02916" lon="1.87458">
        <ele>249</ele>
        <time>2020-10-04T13:56:07.729Z</time>
      </trkpt>
      <trkpt lat="44.02915" lon="1.8746">
        <ele>249</ele>
        <time>2020-10-04T13:56:08.729Z</time>
      </trkpt>
      <trkpt lat="44.02915" lon="1.87462">
        <ele>249</ele>
        <time>2020-10-04T13:56:09.729Z</time>
      </trkpt>
      <trkpt lat="44.02915" lon="1.87464">
        <ele>249</ele>
        <time>2020-10-04T13:56:10.729Z</time>
      </trkpt>
      <trkpt lat="44.02914" lon="1.87466">
        <ele>249</ele>
        <time>2020-10-04T13:56:11.729Z</time>
      </trkpt>
      <trkpt lat="44.02914" lon="1.87467">
        <ele>249</ele>
        <time>2020-10-04T13:56:12.729Z</time>
      </trkpt>
      <trkpt lat="44.02913" lon="1.87469">
        <ele>249</ele>
        <time>2020-10-04T13:56:13.729Z</time>
      </trkpt>
      <trkpt lat="44.02912" lon="1.87471">
        <ele>249</ele>
        <time>2020-10-04T13:56:14.729Z</time>
      </trkpt>
      <trkpt lat="44.02912" lon="1.87472">
        <ele>249</ele>
        <time>2020-10-04T13:56:15.729Z</time>
      </trkpt>
      <trkpt lat="44.02911" lon="1.87474">
        <ele>249</ele>
        <time>2020-10-04T13:56:16.729Z</time>
      </trkpt>
      <trkpt lat="44.02911" lon="1.87475">
        <ele>249</ele>
        <time>2020-10-04T13:56:17.729Z</time>
      </trkpt>
      <trkpt lat="44.0291" lon="1.87477">
        <ele>249</ele>
        <time>2020-10-04T13:56:18.729Z</time>
      </trkpt>
      <trkpt lat="44.02909" lon="1.87478">
        <ele>248</ele>
        <time>2020-10-04T13:56:19.729Z</time>
      </trkpt>
      <trkpt lat="44.02908" lon="1.8748">
        <ele>248</ele>
        <time>2020-10-04T13:56:20.729Z</time>
      </trkpt>
      <trkpt lat="44.02908" lon="1.87481">
        <ele>248</ele>
        <time>2020-10-04T13:56:21.729Z</time>
      </trkpt>
      <trkpt lat="44.02907" lon="1.87482">
        <ele>248</ele>
        <time>2020-10-04T13:56:22.729Z</time>
      </trkpt>
      <trkpt lat="44.02907" lon="1.87484">
        <ele>248</ele>
        <time>2020-10-04T13:56:23.729Z</time>
      </trkpt>
      <trkpt lat="44.02906" lon="1.87485">
        <ele>248</ele>
        <time>2020-10-04T13:56:24.729Z</time>
      </trkpt>
      <trkpt lat="44.02905" lon="1.87487">
        <ele>248</ele>
        <time>2020-10-04T13:56:25.729Z</time>
      </trkpt>
      <trkpt lat="44.02905" lon="1.87488">
        <ele>248</ele>
        <time>2020-10-04T13:56:26.729Z</time>
      </trkpt>
      <trkpt lat="44.02904" lon="1.8749">
        <ele>248</ele>
        <time>2020-10-04T13:56:27.729Z</time>
      </trkpt>
      <trkpt lat="44.02904" lon="1.87491">
        <ele>248</ele>
        <time>2020-10-04T13:56:28.729Z</time>
      </trkpt>
      <trkpt lat="44.02903" lon="1.87493">
        <ele>248</ele>
        <time>2020-10-04T13:56:29.729Z</time>
      </trkpt>
      <trkpt lat="44.02902" lon="1.87494">
        <ele>247</ele>
        <time>2020-10-04T13:56:30.729Z</time>
      </trkpt>
      <trkpt lat="44.02902" lon="1.87496">
        <ele>247</ele>
        <time>2020-10-04T13:56:31.729Z</time>
      </trkpt>
      <trkpt lat="44.02901" lon="1.87497">
        <ele>247</ele>
        <time>2020-10-04T13:56:32.729Z</time>
      </trkpt>
      <trkpt lat="44.02901" lon="1.87498">
        <ele>247</ele>
        <time>2020-10-04T13:56:33.729Z</time>
      </trkpt>
      <trkpt lat="44.029" lon="1.87499">
        <ele>247</ele>
        <time>2020-10-04T13:56:34.729Z</time>
      </trkpt>
      <trkpt lat="44.02899" lon="1.875">
        <ele>247</ele>
        <time>2020-10-04T13:56:35.729Z</time>
      </trkpt>
      <trkpt lat="44.02898" lon="1.87501">
        <ele>247</ele>
        <time>2020-10-04T13:56:36.729Z</time>
      </trkpt>
      <trkpt lat="44.02898" lon="1.87503">
        <ele>247</ele>
        <time>2020-10-04T13:56:37.729Z</time>
      </trkpt>
      <trkpt lat="44.02897" lon="1.87504">
        <ele>247</ele>
        <time>2020-10-04T13:56:38.729Z</time>
      </trkpt>
      <trkpt lat="44.02897" lon="1.87505">
        <ele>247</ele>
        <time>2020-10-04T13:56:39.729Z</time>
      </trkpt>
      <trkpt lat="44.02896" lon="1.87507">
        <ele>247</ele>
        <time>2020-10-04T13:56:40.729Z</time>
      </trkpt>
      <trkpt lat="44.02896" lon="1.87508">
        <ele>247</ele>
        <time>2020-10-04T13:56:41.729Z</time>
      </trkpt>
      <trkpt lat="44.02895" lon="1.87509">
        <ele>246</ele>
        <time>2020-10-04T13:56:42.729Z</time>
      </trkpt>
      <trkpt lat="44.02894" lon="1.87511">
        <ele>246</ele>
        <time>2020-10-04T13:56:43.729Z</time>
      </trkpt>
      <trkpt lat="44.02893" lon="1.87512">
        <ele>246</ele>
        <time>2020-10-04T13:56:44.729Z</time>
      </trkpt>
      <trkpt lat="44.02892" lon="1.87513">
        <ele>246</ele>
        <time>2020-10-04T13:56:45.729Z</time>
      </trkpt>
      <trkpt lat="44.02891" lon="1.87514">
        <ele>246</ele>
        <time>2020-10-04T13:56:46.729Z</time>
      </trkpt>
      <trkpt lat="44.02891" lon="1.87516">
        <ele>246</ele>
        <time>2020-10-04T13:56:47.729Z</time>
      </trkpt>
      <trkpt lat="44.0289" lon="1.87517">
        <ele>246</ele>
        <time>2020-10-04T13:56:48.729Z</time>
      </trkpt>
      <trkpt lat="44.0289" lon="1.87518">
        <ele>246</ele>
        <time>2020-10-04T13:56:49.729Z</time>
      </trkpt>
      <trkpt lat="44.02889" lon="1.8752">
        <ele>246</ele>
        <time>2020-10-04T13:56:50.729Z</time>
      </trkpt>
      <trkpt lat="44.02888" lon="1.87522">
        <ele>246</ele>
        <time>2020-10-04T13:56:51.729Z</time>
      </trkpt>
      <trkpt lat="44.02888" lon="1.87523">
        <ele>246</ele>
        <time>2020-10-04T13:56:52.729Z</time>
      </trkpt>
      <trkpt lat="44.02887" lon="1.87525">
        <ele>246</ele>
        <time>2020-10-04T13:56:53.729Z</time>
      </trkpt>
      <trkpt lat="44.02886" lon="1.87526">
        <ele>246</ele>
        <time>2020-10-04T13:56:54.729Z</time>
      </trkpt>
      <trkpt lat="44.02885" lon="1.87527">
        <ele>246</ele>
        <time>2020-10-04T13:56:55.729Z</time>
      </trkpt>
      <trkpt lat="44.02885" lon="1.87528">
        <ele>246</ele>
        <time>2020-10-04T13:56:56.729Z</time>
      </trkpt>
      <trkpt lat="44.02884" lon="1.87529">
        <ele>245</ele>
        <time>2020-10-04T13:56:57.729Z</time>
      </trkpt>
      <trkpt lat="44.02883" lon="1.8753">
        <ele>245</ele>
        <time>2020-10-04T13:56:58.729Z</time>
      </trkpt>
      <trkpt lat="44.02882" lon="1.87532">
        <ele>245</ele>
        <time>2020-10-04T13:56:59.729Z</time>
      </trkpt>
      <trkpt lat="44.02882" lon="1.87533">
        <ele>245</ele>
        <time>2020-10-04T13:57:00.729Z</time>
      </trkpt>
      <trkpt lat="44.02881" lon="1.87534">
        <ele>245</ele>
        <time>2020-10-04T13:57:01.729Z</time>
      </trkpt>
      <trkpt lat="44.02881" lon="1.87535">
        <ele>245</ele>
        <time>2020-10-04T13:57:02.729Z</time>
      </trkpt>
      <trkpt lat="44.0288" lon="1.87537">
        <ele>245</ele>
        <time>2020-10-04T13:57:03.729Z</time>
      </trkpt>
      <trkpt lat="44.02879" lon="1.87538">
        <ele>245</ele>
        <time>2020-10-04T13:57:04.729Z</time>
      </trkpt>
      <trkpt lat="44.02878" lon="1.8754">
        <ele>245</ele>
        <time>2020-10-04T13:57:05.729Z</time>
      </trkpt>
      <trkpt lat="44.02878" lon="1.87541">
        <ele>245</ele>
        <time>2020-10-04T13:57:06.729Z</time>
      </trkpt>
      <trkpt lat="44.02877" lon="1.87543">
        <ele>245</ele>
        <time>2020-10-04T13:57:07.729Z</time>
      </trkpt>
      <trkpt lat="44.02876" lon="1.87544">
        <ele>245</ele>
        <time>2020-10-04T13:57:08.729Z</time>
      </trkpt>
      <trkpt lat="44.02876" lon="1.87545">
        <ele>245</ele>
        <time>2020-10-04T13:57:09.729Z</time>
      </trkpt>
      <trkpt lat="44.02875" lon="1.87546">
        <ele>245</ele>
        <time>2020-10-04T13:57:10.729Z</time>
      </trkpt>
      <trkpt lat="44.02874" lon="1.87548">
        <ele>245</ele>
        <time>2020-10-04T13:57:11.729Z</time>
      </trkpt>
      <trkpt lat="44.02873" lon="1.87549">
        <ele>245</ele>
        <time>2020-10-04T13:57:12.729Z</time>
      </trkpt>
      <trkpt lat="44.02872" lon="1.8755">
        <ele>245</ele>
        <time>2020-10-04T13:57:13.729Z</time>
      </trkpt>
      <trkpt lat="44.02872" lon="1.87551">
        <ele>244</ele>
        <time>2020-10-04T13:57:14.729Z</time>
      </trkpt>
      <trkpt lat="44.02871" lon="1.87553">
        <ele>244</ele>
        <time>2020-10-04T13:57:15.729Z</time>
      </trkpt>
      <trkpt lat="44.0287" lon="1.87554">
        <ele>244</ele>
        <time>2020-10-04T13:57:16.729Z</time>
      </trkpt>
      <trkpt lat="44.0287" lon="1.87556">
        <ele>244</ele>
        <time>2020-10-04T13:57:17.729Z</time>
      </trkpt>
      <trkpt lat="44.02869" lon="1.87557">
        <ele>244</ele>
        <time>2020-10-04T13:57:18.729Z</time>
      </trkpt>
      <trkpt lat="44.02869" lon="1.87559">
        <ele>245</ele>
        <time>2020-10-04T13:57:19.729Z</time>
      </trkpt>
      <trkpt lat="44.02868" lon="1.8756">
        <ele>245</ele>
        <time>2020-10-04T13:57:20.729Z</time>
      </trkpt>
      <trkpt lat="44.02867" lon="1.87561">
        <ele>245</ele>
        <time>2020-10-04T13:57:21.729Z</time>
      </trkpt>
      <trkpt lat="44.02866" lon="1.87563">
        <ele>245</ele>
        <time>2020-10-04T13:57:22.729Z</time>
      </trkpt>
      <trkpt lat="44.02866" lon="1.87564">
        <ele>245</ele>
        <time>2020-10-04T13:57:23.729Z</time>
      </trkpt>
      <trkpt lat="44.02865" lon="1.87566">
        <ele>245</ele>
        <time>2020-10-04T13:57:24.729Z</time>
      </trkpt>
      <trkpt lat="44.02864" lon="1.87567">
        <ele>245</ele>
        <time>2020-10-04T13:57:25.729Z</time>
      </trkpt>
      <trkpt lat="44.02864" lon="1.87568">
        <ele>245</ele>
        <time>2020-10-04T13:57:26.729Z</time>
      </trkpt>
      <trkpt lat="44.02863" lon="1.8757">
        <ele>245</ele>
        <time>2020-10-04T13:57:27.729Z</time>
      </trkpt>
      <trkpt lat="44.02862" lon="1.87571">
        <ele>245</ele>
        <time>2020-10-04T13:57:28.729Z</time>
      </trkpt>
      <trkpt lat="44.02862" lon="1.87572">
        <ele>245</ele>
        <time>2020-10-04T13:57:29.729Z</time>
      </trkpt>
      <trkpt lat="44.02861" lon="1.87574">
        <ele>245</ele>
        <time>2020-10-04T13:57:30.729Z</time>
      </trkpt>
      <trkpt lat="44.0286" lon="1.87575">
        <ele>245</ele>
        <time>2020-10-04T13:57:31.729Z</time>
      </trkpt>
      <trkpt lat="44.02859" lon="1.87577">
        <ele>245</ele>
        <time>2020-10-04T13:57:32.729Z</time>
      </trkpt>
      <trkpt lat="44.02858" lon="1.87578">
        <ele>245</ele>
        <time>2020-10-04T13:57:33.729Z</time>
      </trkpt>
      <trkpt lat="44.02858" lon="1.87579">
        <ele>245</ele>
        <time>2020-10-04T13:57:34.729Z</time>
      </trkpt>
      <trkpt lat="44.02857" lon="1.87581">
        <ele>245</ele>
        <time>2020-10-04T13:57:35.729Z</time>
      </trkpt>
      <trkpt lat="44.02857" lon="1.87582">
        <ele>245</ele>
        <time>2020-10-04T13:57:36.729Z</time>
      </trkpt>
      <trkpt lat="44.02856" lon="1.87584">
        <ele>245</ele>
        <time>2020-10-04T13:57:37.729Z</time>
      </trkpt>
      <trkpt lat="44.02855" lon="1.87585">
        <ele>245</ele>
        <time>2020-10-04T13:57:38.729Z</time>
      </trkpt>
      <trkpt lat="44.02854" lon="1.87587">
        <ele>244</ele>
        <time>2020-10-04T13:57:39.729Z</time>
      </trkpt>
      <trkpt lat="44.02854" lon="1.87588">
        <ele>244</ele>
        <time>2020-10-04T13:57:40.729Z</time>
      </trkpt>
      <trkpt lat="44.02853" lon="1.87589">
        <ele>244</ele>
        <time>2020-10-04T13:57:41.729Z</time>
      </trkpt>
      <trkpt lat="44.02853" lon="1.87591">
        <ele>244</ele>
        <time>2020-10-04T13:57:42.729Z</time>
      </trkpt>
      <trkpt lat="44.02852" lon="1.87592">
        <ele>244</ele>
        <time>2020-10-04T13:57:43.729Z</time>
      </trkpt>
      <trkpt lat="44.02851" lon="1.87593">
        <ele>244</ele>
        <time>2020-10-04T13:57:44.729Z</time>
      </trkpt>
      <trkpt lat="44.02851" lon="1.87595">
        <ele>244</ele>
        <time>2020-10-04T13:57:45.729Z</time>
      </trkpt>
      <trkpt lat="44.0285" lon="1.87596">
        <ele>244</ele>
        <time>2020-10-04T13:57:46.729Z</time>
      </trkpt>
      <trkpt lat="44.02849" lon="1.87598">
        <ele>244</ele>
        <time>2020-10-04T13:57:47.729Z</time>
      </trkpt>
      <trkpt lat="44.02848" lon="1.87599">
        <ele>244</ele>
        <time>2020-10-04T13:57:48.729Z</time>
      </trkpt>
      <trkpt lat="44.02848" lon="1.876">
        <ele>244</ele>
        <time>2020-10-04T13:57:49.729Z</time>
      </trkpt>
      <trkpt lat="44.02847" lon="1.87602">
        <ele>244</ele>
        <time>2020-10-04T13:57:50.729Z</time>
      </trkpt>
      <trkpt lat="44.02846" lon="1.87603">
        <ele>244</ele>
        <time>2020-10-04T13:57:51.729Z</time>
      </trkpt>
      <trkpt lat="44.02846" lon="1.87604">
        <ele>244</ele>
        <time>2020-10-04T13:57:52.729Z</time>
      </trkpt>
      <trkpt lat="44.02845" lon="1.87606">
        <ele>244</ele>
        <time>2020-10-04T13:57:53.729Z</time>
      </trkpt>
      <trkpt lat="44.02844" lon="1.87607">
        <ele>244</ele>
        <time>2020-10-04T13:57:54.729Z</time>
      </trkpt>
      <trkpt lat="44.02843" lon="1.87609">
        <ele>244</ele>
        <time>2020-10-04T13:57:55.729Z</time>
      </trkpt>
      <trkpt lat="44.02843" lon="1.8761">
        <ele>244</ele>
        <time>2020-10-04T13:57:56.729Z</time>
      </trkpt>
      <trkpt lat="44.02842" lon="1.87612">
        <ele>244</ele>
        <time>2020-10-04T13:57:57.729Z</time>
      </trkpt>
      <trkpt lat="44.02841" lon="1.87613">
        <ele>244</ele>
        <time>2020-10-04T13:57:58.729Z</time>
      </trkpt>
      <trkpt lat="44.0284" lon="1.87614">
        <ele>244</ele>
        <time>2020-10-04T13:57:59.729Z</time>
      </trkpt>
      <trkpt lat="44.0284" lon="1.87616">
        <ele>244</ele>
        <time>2020-10-04T13:58:00.729Z</time>
      </trkpt>
      <trkpt lat="44.02839" lon="1.87617">
        <ele>244</ele>
        <time>2020-10-04T13:58:01.729Z</time>
      </trkpt>
      <trkpt lat="44.02838" lon="1.87619">
        <ele>244</ele>
        <time>2020-10-04T13:58:02.729Z</time>
      </trkpt>
      <trkpt lat="44.02838" lon="1.8762">
        <ele>244</ele>
        <time>2020-10-04T13:58:03.729Z</time>
      </trkpt>
      <trkpt lat="44.02837" lon="1.87621">
        <ele>244</ele>
        <time>2020-10-04T13:58:04.729Z</time>
      </trkpt>
      <trkpt lat="44.02836" lon="1.87623">
        <ele>244</ele>
        <time>2020-10-04T13:58:05.729Z</time>
      </trkpt>
      <trkpt lat="44.02835" lon="1.87625">
        <ele>244</ele>
        <time>2020-10-04T13:58:06.729Z</time>
      </trkpt>
      <trkpt lat="44.02835" lon="1.87626">
        <ele>244</ele>
        <time>2020-10-04T13:58:07.729Z</time>
      </trkpt>
      <trkpt lat="44.02834" lon="1.87628">
        <ele>244</ele>
        <time>2020-10-04T13:58:08.729Z</time>
      </trkpt>
      <trkpt lat="44.02833" lon="1.8763">
        <ele>244</ele>
        <time>2020-10-04T13:58:09.729Z</time>
      </trkpt>
      <trkpt lat="44.02832" lon="1.87631">
        <ele>244</ele>
        <time>2020-10-04T13:58:10.729Z</time>
      </trkpt>
      <trkpt lat="44.02832" lon="1.87633">
        <ele>243</ele>
        <time>2020-10-04T13:58:11.729Z</time>
      </trkpt>
      <trkpt lat="44.02831" lon="1.87634">
        <ele>243</ele>
        <time>2020-10-04T13:58:12.729Z</time>
      </trkpt>
      <trkpt lat="44.0283" lon="1.87636">
        <ele>243</ele>
        <time>2020-10-04T13:58:13.729Z</time>
      </trkpt>
      <trkpt lat="44.02829" lon="1.87637">
        <ele>243</ele>
        <time>2020-10-04T13:58:14.729Z</time>
      </trkpt>
      <trkpt lat="44.02828" lon="1.87639">
        <ele>243</ele>
        <time>2020-10-04T13:58:15.729Z</time>
      </trkpt>
      <trkpt lat="44.02827" lon="1.8764">
        <ele>243</ele>
        <time>2020-10-04T13:58:16.729Z</time>
      </trkpt>
      <trkpt lat="44.02827" lon="1.87642">
        <ele>242</ele>
        <time>2020-10-04T13:58:17.729Z</time>
      </trkpt>
      <trkpt lat="44.02826" lon="1.87643">
        <ele>242</ele>
        <time>2020-10-04T13:58:18.729Z</time>
      </trkpt>
      <trkpt lat="44.02825" lon="1.87645">
        <ele>242</ele>
        <time>2020-10-04T13:58:19.729Z</time>
      </trkpt>
      <trkpt lat="44.02825" lon="1.87646">
        <ele>242</ele>
        <time>2020-10-04T13:58:20.729Z</time>
      </trkpt>
      <trkpt lat="44.02824" lon="1.87648">
        <ele>242</ele>
        <time>2020-10-04T13:58:21.729Z</time>
      </trkpt>
      <trkpt lat="44.02824" lon="1.87649">
        <ele>242</ele>
        <time>2020-10-04T13:58:22.729Z</time>
      </trkpt>
      <trkpt lat="44.02823" lon="1.87651">
        <ele>242</ele>
        <time>2020-10-04T13:58:23.729Z</time>
      </trkpt>
      <trkpt lat="44.02822" lon="1.87652">
        <ele>242</ele>
        <time>2020-10-04T13:58:24.729Z</time>
      </trkpt>
      <trkpt lat="44.02821" lon="1.87654">
        <ele>242</ele>
        <time>2020-10-04T13:58:25.729Z</time>
      </trkpt>
      <trkpt lat="44.0282" lon="1.87656">
        <ele>242</ele>
        <time>2020-10-04T13:58:26.729Z</time>
      </trkpt>
      <trkpt lat="44.0282" lon="1.87657">
        <ele>242</ele>
        <time>2020-10-04T13:58:27.729Z</time>
      </trkpt>
      <trkpt lat="44.02819" lon="1.87659">
        <ele>241</ele>
        <time>2020-10-04T13:58:28.729Z</time>
      </trkpt>
      <trkpt lat="44.02819" lon="1.8766">
        <ele>241</ele>
        <time>2020-10-04T13:58:29.729Z</time>
      </trkpt>
      <trkpt lat="44.02818" lon="1.87662">
        <ele>241</ele>
        <time>2020-10-04T13:58:30.729Z</time>
      </trkpt>
      <trkpt lat="44.02818" lon="1.87663">
        <ele>241</ele>
        <time>2020-10-04T13:58:31.729Z</time>
      </trkpt>
      <trkpt lat="44.02817" lon="1.87664">
        <ele>241</ele>
        <time>2020-10-04T13:58:32.729Z</time>
      </trkpt>
      <trkpt lat="44.02817" lon="1.87666">
        <ele>241</ele>
        <time>2020-10-04T13:58:33.729Z</time>
      </trkpt>
      <trkpt lat="44.02816" lon="1.87667">
        <ele>241</ele>
        <time>2020-10-04T13:58:34.729Z</time>
      </trkpt>
      <trkpt lat="44.02815" lon="1.87669">
        <ele>240</ele>
        <time>2020-10-04T13:58:35.729Z</time>
      </trkpt>
      <trkpt lat="44.02815" lon="1.87671">
        <ele>240</ele>
        <time>2020-10-04T13:58:36.729Z</time>
      </trkpt>
      <trkpt lat="44.02814" lon="1.87672">
        <ele>240</ele>
        <time>2020-10-04T13:58:37.729Z</time>
      </trkpt>
      <trkpt lat="44.02814" lon="1.87674">
        <ele>240</ele>
        <time>2020-10-04T13:58:38.729Z</time>
      </trkpt>
      <trkpt lat="44.02813" lon="1.87675">
        <ele>240</ele>
        <time>2020-10-04T13:58:39.729Z</time>
      </trkpt>
      <trkpt lat="44.02813" lon="1.87677">
        <ele>240</ele>
        <time>2020-10-04T13:58:40.729Z</time>
      </trkpt>
      <trkpt lat="44.02812" lon="1.87679">
        <ele>240</ele>
        <time>2020-10-04T13:58:41.729Z</time>
      </trkpt>
      <trkpt lat="44.02811" lon="1.8768">
        <ele>240</ele>
        <time>2020-10-04T13:58:42.729Z</time>
      </trkpt>
      <trkpt lat="44.02811" lon="1.87682">
        <ele>240</ele>
        <time>2020-10-04T13:58:43.729Z</time>
      </trkpt>
      <trkpt lat="44.02811" lon="1.87682">
        <ele>240</ele>
        <time>2020-10-04T13:58:44.729Z</time>
      </trkpt>
      <trkpt lat="44.02811" lon="1.87683">
        <ele>240</ele>
        <time>2020-10-04T13:58:45.729Z</time>
      </trkpt>
      <trkpt lat="44.02811" lon="1.87684">
        <ele>239</ele>
        <time>2020-10-04T13:58:46.729Z</time>
      </trkpt>
      <trkpt lat="44.0281" lon="1.87685">
        <ele>239</ele>
        <time>2020-10-04T13:58:47.729Z</time>
      </trkpt>
      <trkpt lat="44.0281" lon="1.87686">
        <ele>239</ele>
        <time>2020-10-04T13:58:48.729Z</time>
      </trkpt>
      <trkpt lat="44.02809" lon="1.87688">
        <ele>239</ele>
        <time>2020-10-04T13:58:49.729Z</time>
      </trkpt>
      <trkpt lat="44.02809" lon="1.8769">
        <ele>239</ele>
        <time>2020-10-04T13:58:50.729Z</time>
      </trkpt>
      <trkpt lat="44.02808" lon="1.87691">
        <ele>239</ele>
        <time>2020-10-04T13:58:51.729Z</time>
      </trkpt>
      <trkpt lat="44.02808" lon="1.87693">
        <ele>239</ele>
        <time>2020-10-04T13:58:52.729Z</time>
      </trkpt>
      <trkpt lat="44.02808" lon="1.87694">
        <ele>239</ele>
        <time>2020-10-04T13:58:53.729Z</time>
      </trkpt>
      <trkpt lat="44.02807" lon="1.87696">
        <ele>239</ele>
        <time>2020-10-04T13:58:54.729Z</time>
      </trkpt>
      <trkpt lat="44.02807" lon="1.87698">
        <ele>239</ele>
        <time>2020-10-04T13:58:55.729Z</time>
      </trkpt>
      <trkpt lat="44.02806" lon="1.87699">
        <ele>239</ele>
        <time>2020-10-04T13:58:56.729Z</time>
      </trkpt>
      <trkpt lat="44.02806" lon="1.87701">
        <ele>239</ele>
        <time>2020-10-04T13:58:57.729Z</time>
      </trkpt>
      <trkpt lat="44.02806" lon="1.87703">
        <ele>238</ele>
        <time>2020-10-04T13:58:58.729Z</time>
      </trkpt>
      <trkpt lat="44.02806" lon="1.87704">
        <ele>238</ele>
        <time>2020-10-04T13:58:59.729Z</time>
      </trkpt>
      <trkpt lat="44.02806" lon="1.87705">
        <ele>238</ele>
        <time>2020-10-04T13:59:00.729Z</time>
      </trkpt>
      <trkpt lat="44.02805" lon="1.87707">
        <ele>238</ele>
        <time>2020-10-04T13:59:01.729Z</time>
      </trkpt>
      <trkpt lat="44.02805" lon="1.87708">
        <ele>238</ele>
        <time>2020-10-04T13:59:02.729Z</time>
      </trkpt>
      <trkpt lat="44.02804" lon="1.8771">
        <ele>238</ele>
        <time>2020-10-04T13:59:03.729Z</time>
      </trkpt>
      <trkpt lat="44.02804" lon="1.87712">
        <ele>238</ele>
        <time>2020-10-04T13:59:04.729Z</time>
      </trkpt>
      <trkpt lat="44.02804" lon="1.87713">
        <ele>238</ele>
        <time>2020-10-04T13:59:05.729Z</time>
      </trkpt>
      <trkpt lat="44.02804" lon="1.87715">
        <ele>238</ele>
        <time>2020-10-04T13:59:06.729Z</time>
      </trkpt>
      <trkpt lat="44.02804" lon="1.87717">
        <ele>238</ele>
        <time>2020-10-04T13:59:07.729Z</time>
      </trkpt>
      <trkpt lat="44.02804" lon="1.87719">
        <ele>238</ele>
        <time>2020-10-04T13:59:08.729Z</time>
      </trkpt>
      <trkpt lat="44.02804" lon="1.8772">
        <ele>238</ele>
        <time>2020-10-04T13:59:09.729Z</time>
      </trkpt>
      <trkpt lat="44.02804" lon="1.87722">
        <ele>238</ele>
        <time>2020-10-04T13:59:10.729Z</time>
      </trkpt>
      <trkpt lat="44.02804" lon="1.87723">
        <ele>238</ele>
        <time>2020-10-04T13:59:11.729Z</time>
      </trkpt>
      <trkpt lat="44.02804" lon="1.87725">
        <ele>238</ele>
        <time>2020-10-04T13:59:12.729Z</time>
      </trkpt>
      <trkpt lat="44.02805" lon="1.87727">
        <ele>238</ele>
        <time>2020-10-04T13:59:13.729Z</time>
      </trkpt>
      <trkpt lat="44.02805" lon="1.87728">
        <ele>238</ele>
        <time>2020-10-04T13:59:14.729Z</time>
      </trkpt>
      <trkpt lat="44.02805" lon="1.8773">
        <ele>238</ele>
        <time>2020-10-04T13:59:15.729Z</time>
      </trkpt>
      <trkpt lat="44.02806" lon="1.87732">
        <ele>238</ele>
        <time>2020-10-04T13:59:16.729Z</time>
      </trkpt>
      <trkpt lat="44.02806" lon="1.87733">
        <ele>238</ele>
        <time>2020-10-04T13:59:17.729Z</time>
      </trkpt>
      <trkpt lat="44.02807" lon="1.87735">
        <ele>238</ele>
        <time>2020-10-04T13:59:18.729Z</time>
      </trkpt>
      <trkpt lat="44.02807" lon="1.87737">
        <ele>238</ele>
        <time>2020-10-04T13:59:19.729Z</time>
      </trkpt>
      <trkpt lat="44.02808" lon="1.87739">
        <ele>238</ele>
        <time>2020-10-04T13:59:20.729Z</time>
      </trkpt>
      <trkpt lat="44.02808" lon="1.87741">
        <ele>238</ele>
        <time>2020-10-04T13:59:21.729Z</time>
      </trkpt>
      <trkpt lat="44.02809" lon="1.87742">
        <ele>238</ele>
        <time>2020-10-04T13:59:22.729Z</time>
      </trkpt>
      <trkpt lat="44.0281" lon="1.87744">
        <ele>238</ele>
        <time>2020-10-04T13:59:23.729Z</time>
      </trkpt>
      <trkpt lat="44.02811" lon="1.87746">
        <ele>238</ele>
        <time>2020-10-04T13:59:24.729Z</time>
      </trkpt>
      <trkpt lat="44.02812" lon="1.87748">
        <ele>238</ele>
        <time>2020-10-04T13:59:25.729Z</time>
      </trkpt>
      <trkpt lat="44.02812" lon="1.8775">
        <ele>238</ele>
        <time>2020-10-04T13:59:26.729Z</time>
      </trkpt>
      <trkpt lat="44.02813" lon="1.87751">
        <ele>238</ele>
        <time>2020-10-04T13:59:27.729Z</time>
      </trkpt>
      <trkpt lat="44.02813" lon="1.87753">
        <ele>238</ele>
        <time>2020-10-04T13:59:28.729Z</time>
      </trkpt>
      <trkpt lat="44.02814" lon="1.87754">
        <ele>238</ele>
        <time>2020-10-04T13:59:29.729Z</time>
      </trkpt>
      <trkpt lat="44.02815" lon="1.87756">
        <ele>238</ele>
        <time>2020-10-04T13:59:30.729Z</time>
      </trkpt>
      <trkpt lat="44.02816" lon="1.87758">
        <ele>238</ele>
        <time>2020-10-04T13:59:31.729Z</time>
      </trkpt>
      <trkpt lat="44.02816" lon="1.87759">
        <ele>238</ele>
        <time>2020-10-04T13:59:32.729Z</time>
      </trkpt>
      <trkpt lat="44.02817" lon="1.87761">
        <ele>238</ele>
        <time>2020-10-04T13:59:33.729Z</time>
      </trkpt>
      <trkpt lat="44.02817" lon="1.87763">
        <ele>238</ele>
        <time>2020-10-04T13:59:34.729Z</time>
      </trkpt>
      <trkpt lat="44.02818" lon="1.87764">
        <ele>238</ele>
        <time>2020-10-04T13:59:35.729Z</time>
      </trkpt>
      <trkpt lat="44.02818" lon="1.87765">
        <ele>238</ele>
        <time>2020-10-04T13:59:36.729Z</time>
      </trkpt>
      <trkpt lat="44.02818" lon="1.87765">
        <ele>238</ele>
        <time>2020-10-04T13:59:37.729Z</time>
      </trkpt>
      <trkpt lat="44.02818" lon="1.87766">
        <ele>238</ele>
        <time>2020-10-04T13:59:38.729Z</time>
      </trkpt>
      <trkpt lat="44.02819" lon="1.87767">
        <ele>238</ele>
        <time>2020-10-04T13:59:39.729Z</time>
      </trkpt>
      <trkpt lat="44.02819" lon="1.87768">
        <ele>238</ele>
        <time>2020-10-04T13:59:40.729Z</time>
      </trkpt>
      <trkpt lat="44.02819" lon="1.8777">
        <ele>238</ele>
        <time>2020-10-04T13:59:41.729Z</time>
      </trkpt>
      <trkpt lat="44.0282" lon="1.87772">
        <ele>238</ele>
        <time>2020-10-04T13:59:42.729Z</time>
      </trkpt>
      <trkpt lat="44.0282" lon="1.87774">
        <ele>238</ele>
        <time>2020-10-04T13:59:43.729Z</time>
      </trkpt>
      <trkpt lat="44.0282" lon="1.87775">
        <ele>238</ele>
        <time>2020-10-04T13:59:44.729Z</time>
      </trkpt>
      <trkpt lat="44.02821" lon="1.87777">
        <ele>238</ele>
        <time>2020-10-04T13:59:45.729Z</time>
      </trkpt>
      <trkpt lat="44.02821" lon="1.87778">
        <ele>238</ele>
        <time>2020-10-04T13:59:46.729Z</time>
      </trkpt>
      <trkpt lat="44.02822" lon="1.8778">
        <ele>238</ele>
        <time>2020-10-04T13:59:47.729Z</time>
      </trkpt>
      <trkpt lat="44.02822" lon="1.87781">
        <ele>238</ele>
        <time>2020-10-04T13:59:48.729Z</time>
      </trkpt>
      <trkpt lat="44.02823" lon="1.87783">
        <ele>238</ele>
        <time>2020-10-04T13:59:49.729Z</time>
      </trkpt>
      <trkpt lat="44.02823" lon="1.87784">
        <ele>238</ele>
        <time>2020-10-04T13:59:50.729Z</time>
      </trkpt>
      <trkpt lat="44.02824" lon="1.87786">
        <ele>237</ele>
        <time>2020-10-04T13:59:51.729Z</time>
      </trkpt>
      <trkpt lat="44.02824" lon="1.87788">
        <ele>237</ele>
        <time>2020-10-04T13:59:52.729Z</time>
      </trkpt>
      <trkpt lat="44.02825" lon="1.8779">
        <ele>237</ele>
        <time>2020-10-04T13:59:53.729Z</time>
      </trkpt>
      <trkpt lat="44.02825" lon="1.87791">
        <ele>237</ele>
        <time>2020-10-04T13:59:54.729Z</time>
      </trkpt>
      <trkpt lat="44.02825" lon="1.87793">
        <ele>237</ele>
        <time>2020-10-04T13:59:55.729Z</time>
      </trkpt>
      <trkpt lat="44.02826" lon="1.87794">
        <ele>237</ele>
        <time>2020-10-04T13:59:56.729Z</time>
      </trkpt>
      <trkpt lat="44.02826" lon="1.87796">
        <ele>237</ele>
        <time>2020-10-04T13:59:57.729Z</time>
      </trkpt>
      <trkpt lat="44.02827" lon="1.87798">
        <ele>237</ele>
        <time>2020-10-04T13:59:58.729Z</time>
      </trkpt>
      <trkpt lat="44.02828" lon="1.87799">
        <ele>237</ele>
        <time>2020-10-04T13:59:59.729Z</time>
      </trkpt>
      <trkpt lat="44.02828" lon="1.87801">
        <ele>236</ele>
        <time>2020-10-04T14:00:00.729Z</time>
      </trkpt>
      <trkpt lat="44.02829" lon="1.87802">
        <ele>236</ele>
        <time>2020-10-04T14:00:01.729Z</time>
      </trkpt>
      <trkpt lat="44.02829" lon="1.87804">
        <ele>236</ele>
        <time>2020-10-04T14:00:02.729Z</time>
      </trkpt>
      <trkpt lat="44.0283" lon="1.87806">
        <ele>236</ele>
        <time>2020-10-04T14:00:03.729Z</time>
      </trkpt>
      <trkpt lat="44.02831" lon="1.87808">
        <ele>236</ele>
        <time>2020-10-04T14:00:04.729Z</time>
      </trkpt>
      <trkpt lat="44.02832" lon="1.87809">
        <ele>236</ele>
        <time>2020-10-04T14:00:05.729Z</time>
      </trkpt>
      <trkpt lat="44.02832" lon="1.87811">
        <ele>236</ele>
        <time>2020-10-04T14:00:06.729Z</time>
      </trkpt>
      <trkpt lat="44.02833" lon="1.87813">
        <ele>236</ele>
        <time>2020-10-04T14:00:07.729Z</time>
      </trkpt>
      <trkpt lat="44.02834" lon="1.87815">
        <ele>236</ele>
        <time>2020-10-04T14:00:08.729Z</time>
      </trkpt>
      <trkpt lat="44.02834" lon="1.87816">
        <ele>236</ele>
        <time>2020-10-04T14:00:09.729Z</time>
      </trkpt>
      <trkpt lat="44.02835" lon="1.87818">
        <ele>236</ele>
        <time>2020-10-04T14:00:10.729Z</time>
      </trkpt>
      <trkpt lat="44.02835" lon="1.8782">
        <ele>236</ele>
        <time>2020-10-04T14:00:11.729Z</time>
      </trkpt>
      <trkpt lat="44.02835" lon="1.87822">
        <ele>236</ele>
        <time>2020-10-04T14:00:12.729Z</time>
      </trkpt>
      <trkpt lat="44.02835" lon="1.87823">
        <ele>236</ele>
        <time>2020-10-04T14:00:13.729Z</time>
      </trkpt>
      <trkpt lat="44.02835" lon="1.87825">
        <ele>237</ele>
        <time>2020-10-04T14:00:14.729Z</time>
      </trkpt>
      <trkpt lat="44.02835" lon="1.87827">
        <ele>237</ele>
        <time>2020-10-04T14:00:15.729Z</time>
      </trkpt>
      <trkpt lat="44.02835" lon="1.87829">
        <ele>237</ele>
        <time>2020-10-04T14:00:16.729Z</time>
      </trkpt>
      <trkpt lat="44.02834" lon="1.87831">
        <ele>237</ele>
        <time>2020-10-04T14:00:17.729Z</time>
      </trkpt>
      <trkpt lat="44.02834" lon="1.87832">
        <ele>237</ele>
        <time>2020-10-04T14:00:18.729Z</time>
      </trkpt>
      <trkpt lat="44.02833" lon="1.87834">
        <ele>237</ele>
        <time>2020-10-04T14:00:19.729Z</time>
      </trkpt>
      <trkpt lat="44.02833" lon="1.87835">
        <ele>237</ele>
        <time>2020-10-04T14:00:20.729Z</time>
      </trkpt>
      <trkpt lat="44.02832" lon="1.87837">
        <ele>236</ele>
        <time>2020-10-04T14:00:21.729Z</time>
      </trkpt>
      <trkpt lat="44.02831" lon="1.87839">
        <ele>236</ele>
        <time>2020-10-04T14:00:22.729Z</time>
      </trkpt>
      <trkpt lat="44.02831" lon="1.8784">
        <ele>236</ele>
        <time>2020-10-04T14:00:23.729Z</time>
      </trkpt>
      <trkpt lat="44.0283" lon="1.87842">
        <ele>236</ele>
        <time>2020-10-04T14:00:24.729Z</time>
      </trkpt>
      <trkpt lat="44.02829" lon="1.87843">
        <ele>236</ele>
        <time>2020-10-04T14:00:25.729Z</time>
      </trkpt>
      <trkpt lat="44.02828" lon="1.87844">
        <ele>236</ele>
        <time>2020-10-04T14:00:26.729Z</time>
      </trkpt>
      <trkpt lat="44.02827" lon="1.87846">
        <ele>236</ele>
        <time>2020-10-04T14:00:27.729Z</time>
      </trkpt>
      <trkpt lat="44.02826" lon="1.87847">
        <ele>235</ele>
        <time>2020-10-04T14:00:28.729Z</time>
      </trkpt>
      <trkpt lat="44.02825" lon="1.87848">
        <ele>235</ele>
        <time>2020-10-04T14:00:29.729Z</time>
      </trkpt>
      <trkpt lat="44.02824" lon="1.87849">
        <ele>235</ele>
        <time>2020-10-04T14:00:30.729Z</time>
      </trkpt>
      <trkpt lat="44.02823" lon="1.8785">
        <ele>235</ele>
        <time>2020-10-04T14:00:31.729Z</time>
      </trkpt>
      <trkpt lat="44.02822" lon="1.87851">
        <ele>235</ele>
        <time>2020-10-04T14:00:32.729Z</time>
      </trkpt>
      <trkpt lat="44.02821" lon="1.87852">
        <ele>235</ele>
        <time>2020-10-04T14:00:33.729Z</time>
      </trkpt>
      <trkpt lat="44.0282" lon="1.87853">
        <ele>235</ele>
        <time>2020-10-04T14:00:34.729Z</time>
      </trkpt>
      <trkpt lat="44.02819" lon="1.87855">
        <ele>235</ele>
        <time>2020-10-04T14:00:35.729Z</time>
      </trkpt>
      <trkpt lat="44.02818" lon="1.87856">
        <ele>236</ele>
        <time>2020-10-04T14:00:36.729Z</time>
      </trkpt>
      <trkpt lat="44.02817" lon="1.87857">
        <ele>236</ele>
        <time>2020-10-04T14:00:37.729Z</time>
      </trkpt>
      <trkpt lat="44.02815" lon="1.87857">
        <ele>236</ele>
        <time>2020-10-04T14:00:38.729Z</time>
      </trkpt>
      <trkpt lat="44.02815" lon="1.87859">
        <ele>236</ele>
        <time>2020-10-04T14:00:39.729Z</time>
      </trkpt>
      <trkpt lat="44.02814" lon="1.8786">
        <ele>236</ele>
        <time>2020-10-04T14:00:40.729Z</time>
      </trkpt>
      <trkpt lat="44.02813" lon="1.87861">
        <ele>236</ele>
        <time>2020-10-04T14:00:41.729Z</time>
      </trkpt>
      <trkpt lat="44.02812" lon="1.87862">
        <ele>236</ele>
        <time>2020-10-04T14:00:42.729Z</time>
      </trkpt>
      <trkpt lat="44.02811" lon="1.87863">
        <ele>236</ele>
        <time>2020-10-04T14:00:43.729Z</time>
      </trkpt>
      <trkpt lat="44.0281" lon="1.87864">
        <ele>236</ele>
        <time>2020-10-04T14:00:44.729Z</time>
      </trkpt>
      <trkpt lat="44.02809" lon="1.87866">
        <ele>236</ele>
        <time>2020-10-04T14:00:45.729Z</time>
      </trkpt>
      <trkpt lat="44.02808" lon="1.87867">
        <ele>236</ele>
        <time>2020-10-04T14:00:46.729Z</time>
      </trkpt>
      <trkpt lat="44.02807" lon="1.87868">
        <ele>236</ele>
        <time>2020-10-04T14:00:47.729Z</time>
      </trkpt>
      <trkpt lat="44.02806" lon="1.87869">
        <ele>236</ele>
        <time>2020-10-04T14:00:48.729Z</time>
      </trkpt>
      <trkpt lat="44.02805" lon="1.8787">
        <ele>236</ele>
        <time>2020-10-04T14:00:49.729Z</time>
      </trkpt>
      <trkpt lat="44.02804" lon="1.87871">
        <ele>236</ele>
        <time>2020-10-04T14:00:50.729Z</time>
      </trkpt>
      <trkpt lat="44.02802" lon="1.87872">
        <ele>236</ele>
        <time>2020-10-04T14:00:51.729Z</time>
      </trkpt>
      <trkpt lat="44.02801" lon="1.87873">
        <ele>236</ele>
        <time>2020-10-04T14:00:52.729Z</time>
      </trkpt>
      <trkpt lat="44.028" lon="1.87874">
        <ele>236</ele>
        <time>2020-10-04T14:00:53.729Z</time>
      </trkpt>
      <trkpt lat="44.02799" lon="1.87875">
        <ele>236</ele>
        <time>2020-10-04T14:00:54.729Z</time>
      </trkpt>
      <trkpt lat="44.02798" lon="1.87876">
        <ele>236</ele>
        <time>2020-10-04T14:00:55.729Z</time>
      </trkpt>
      <trkpt lat="44.02797" lon="1.87877">
        <ele>236</ele>
        <time>2020-10-04T14:00:56.729Z</time>
      </trkpt>
      <trkpt lat="44.02796" lon="1.87879">
        <ele>235</ele>
        <time>2020-10-04T14:00:57.729Z</time>
      </trkpt>
      <trkpt lat="44.02795" lon="1.8788">
        <ele>235</ele>
        <time>2020-10-04T14:00:58.729Z</time>
      </trkpt>
      <trkpt lat="44.02794" lon="1.87881">
        <ele>235</ele>
        <time>2020-10-04T14:00:59.729Z</time>
      </trkpt>
      <trkpt lat="44.02793" lon="1.87882">
        <ele>235</ele>
        <time>2020-10-04T14:01:00.729Z</time>
      </trkpt>
      <trkpt lat="44.02792" lon="1.87883">
        <ele>235</ele>
        <time>2020-10-04T14:01:01.729Z</time>
      </trkpt>
      <trkpt lat="44.02791" lon="1.87885">
        <ele>235</ele>
        <time>2020-10-04T14:01:02.729Z</time>
      </trkpt>
      <trkpt lat="44.02789" lon="1.87886">
        <ele>235</ele>
        <time>2020-10-04T14:01:03.729Z</time>
      </trkpt>
      <trkpt lat="44.02788" lon="1.87886">
        <ele>235</ele>
        <time>2020-10-04T14:01:04.729Z</time>
      </trkpt>
      <trkpt lat="44.02787" lon="1.87887">
        <ele>235</ele>
        <time>2020-10-04T14:01:05.729Z</time>
      </trkpt>
      <trkpt lat="44.02786" lon="1.87888">
        <ele>235</ele>
        <time>2020-10-04T14:01:06.729Z</time>
      </trkpt>
      <trkpt lat="44.02785" lon="1.87889">
        <ele>235</ele>
        <time>2020-10-04T14:01:07.729Z</time>
      </trkpt>
      <trkpt lat="44.02784" lon="1.8789">
        <ele>235</ele>
        <time>2020-10-04T14:01:08.729Z</time>
      </trkpt>
      <trkpt lat="44.02783" lon="1.87891">
        <ele>235</ele>
        <time>2020-10-04T14:01:09.729Z</time>
      </trkpt>
      <trkpt lat="44.02782" lon="1.87892">
        <ele>235</ele>
        <time>2020-10-04T14:01:10.729Z</time>
      </trkpt>
      <trkpt lat="44.02781" lon="1.87894">
        <ele>235</ele>
        <time>2020-10-04T14:01:11.729Z</time>
      </trkpt>
      <trkpt lat="44.0278" lon="1.87895">
        <ele>235</ele>
        <time>2020-10-04T14:01:12.729Z</time>
      </trkpt>
      <trkpt lat="44.02779" lon="1.87895">
        <ele>236</ele>
        <time>2020-10-04T14:01:13.729Z</time>
      </trkpt>
      <trkpt lat="44.02778" lon="1.87896">
        <ele>236</ele>
        <time>2020-10-04T14:01:14.729Z</time>
      </trkpt>
      <trkpt lat="44.02777" lon="1.87898">
        <ele>236</ele>
        <time>2020-10-04T14:01:15.729Z</time>
      </trkpt>
      <trkpt lat="44.02777" lon="1.87899">
        <ele>236</ele>
        <time>2020-10-04T14:01:16.729Z</time>
      </trkpt>
      <trkpt lat="44.02776" lon="1.879">
        <ele>236</ele>
        <time>2020-10-04T14:01:17.729Z</time>
      </trkpt>
      <trkpt lat="44.02775" lon="1.87901">
        <ele>236</ele>
        <time>2020-10-04T14:01:18.729Z</time>
      </trkpt>
      <trkpt lat="44.02775" lon="1.87903">
        <ele>237</ele>
        <time>2020-10-04T14:01:19.729Z</time>
      </trkpt>
      <trkpt lat="44.02774" lon="1.87904">
        <ele>237</ele>
        <time>2020-10-04T14:01:20.729Z</time>
      </trkpt>
      <trkpt lat="44.02773" lon="1.87905">
        <ele>237</ele>
        <time>2020-10-04T14:01:21.729Z</time>
      </trkpt>
      <trkpt lat="44.02772" lon="1.87907">
        <ele>237</ele>
        <time>2020-10-04T14:01:22.729Z</time>
      </trkpt>
      <trkpt lat="44.02772" lon="1.87907">
        <ele>237</ele>
        <time>2020-10-04T14:01:23.729Z</time>
      </trkpt>
      <trkpt lat="44.02772" lon="1.87907">
        <ele>237</ele>
        <time>2020-10-04T14:01:24.729Z</time>
      </trkpt>
      <trkpt lat="44.02772" lon="1.87907">
        <ele>237</ele>
        <time>2020-10-04T14:01:25.729Z</time>
      </trkpt>
      <trkpt lat="44.02772" lon="1.87907">
        <ele>237</ele>
        <time>2020-10-04T14:01:26.729Z</time>
      </trkpt>
      <trkpt lat="44.02771" lon="1.8791">
        <ele>237</ele>
        <time>2020-10-04T14:01:27.729Z</time>
      </trkpt>
      <trkpt lat="44.02771" lon="1.8791">
        <ele>237</ele>
        <time>2020-10-04T14:01:28.729Z</time>
      </trkpt>
      <trkpt lat="44.0277" lon="1.87912">
        <ele>237</ele>
        <time>2020-10-04T14:01:29.729Z</time>
      </trkpt>
      <trkpt lat="44.0277" lon="1.87913">
        <ele>237</ele>
        <time>2020-10-04T14:01:30.729Z</time>
      </trkpt>
      <trkpt lat="44.0277" lon="1.87913">
        <ele>237</ele>
        <time>2020-10-04T14:01:31.729Z</time>
      </trkpt>
      <trkpt lat="44.02769" lon="1.87916">
        <ele>238</ele>
        <time>2020-10-04T14:01:32.729Z</time>
      </trkpt>
      <trkpt lat="44.02769" lon="1.87918">
        <ele>238</ele>
        <time>2020-10-04T14:01:33.729Z</time>
      </trkpt>
      <trkpt lat="44.02769" lon="1.8792">
        <ele>238</ele>
        <time>2020-10-04T14:01:34.729Z</time>
      </trkpt>
      <trkpt lat="44.02769" lon="1.8792">
        <ele>238</ele>
        <time>2020-10-04T14:01:35.729Z</time>
      </trkpt>
      <trkpt lat="44.02769" lon="1.87923">
        <ele>238</ele>
        <time>2020-10-04T14:01:36.729Z</time>
      </trkpt>
      <trkpt lat="44.02769" lon="1.87924">
        <ele>238</ele>
        <time>2020-10-04T14:01:37.729Z</time>
      </trkpt>
      <trkpt lat="44.02768" lon="1.87926">
        <ele>239</ele>
        <time>2020-10-04T14:01:38.729Z</time>
      </trkpt>
      <trkpt lat="44.02768" lon="1.87926">
        <ele>239</ele>
        <time>2020-10-04T14:01:39.729Z</time>
      </trkpt>
      <trkpt lat="44.02768" lon="1.87929">
        <ele>239</ele>
        <time>2020-10-04T14:01:40.729Z</time>
      </trkpt>
      <trkpt lat="44.02768" lon="1.8793">
        <ele>239</ele>
        <time>2020-10-04T14:01:41.729Z</time>
      </trkpt>
      <trkpt lat="44.02768" lon="1.87931">
        <ele>239</ele>
        <time>2020-10-04T14:01:42.729Z</time>
      </trkpt>
      <trkpt lat="44.02767" lon="1.87933">
        <ele>239</ele>
        <time>2020-10-04T14:01:43.729Z</time>
      </trkpt>
      <trkpt lat="44.02767" lon="1.87935">
        <ele>239</ele>
        <time>2020-10-04T14:01:44.729Z</time>
      </trkpt>
      <trkpt lat="44.02767" lon="1.87936">
        <ele>239</ele>
        <time>2020-10-04T14:01:45.729Z</time>
      </trkpt>
      <trkpt lat="44.02767" lon="1.87937">
        <ele>239</ele>
        <time>2020-10-04T14:01:46.729Z</time>
      </trkpt>
      <trkpt lat="44.02766" lon="1.87938">
        <ele>239</ele>
        <time>2020-10-04T14:01:47.729Z</time>
      </trkpt>
      <trkpt lat="44.02766" lon="1.87939">
        <ele>240</ele>
        <time>2020-10-04T14:01:48.729Z</time>
      </trkpt>
      <trkpt lat="44.02766" lon="1.87939">
        <ele>240</ele>
        <time>2020-10-04T14:01:49.729Z</time>
      </trkpt>
      <trkpt lat="44.02766" lon="1.87939">
        <ele>240</ele>
        <time>2020-10-04T14:01:50.729Z</time>
      </trkpt>
      <trkpt lat="44.02766" lon="1.87939">
        <ele>240</ele>
        <time>2020-10-04T14:01:51.729Z</time>
      </trkpt>
      <trkpt lat="44.02766" lon="1.87941">
        <ele>240</ele>
        <time>2020-10-04T14:01:52.729Z</time>
      </trkpt>
      <trkpt lat="44.02765" lon="1.87942">
        <ele>240</ele>
        <time>2020-10-04T14:01:53.729Z</time>
      </trkpt>
      <trkpt lat="44.02765" lon="1.87942">
        <ele>240</ele>
        <time>2020-10-04T14:01:54.729Z</time>
      </trkpt>
      <trkpt lat="44.02764" lon="1.87941">
        <ele>240</ele>
        <time>2020-10-04T14:01:55.729Z</time>
      </trkpt>
      <trkpt lat="44.02763" lon="1.87939">
        <ele>240</ele>
        <time>2020-10-04T14:01:56.729Z</time>
      </trkpt>
      <trkpt lat="44.02763" lon="1.87938">
        <ele>240</ele>
        <time>2020-10-04T14:01:57.729Z</time>
      </trkpt>
      <trkpt lat="44.02762" lon="1.87936">
        <ele>240</ele>
        <time>2020-10-04T14:01:58.729Z</time>
      </trkpt>
      <trkpt lat="44.02762" lon="1.87935">
        <ele>240</ele>
        <time>2020-10-04T14:01:59.729Z</time>
      </trkpt>
      <trkpt lat="44.02762" lon="1.87934">
        <ele>241</ele>
        <time>2020-10-04T14:02:00.729Z</time>
      </trkpt>
      <trkpt lat="44.02761" lon="1.87932">
        <ele>241</ele>
        <time>2020-10-04T14:02:01.729Z</time>
      </trkpt>
      <trkpt lat="44.02761" lon="1.87931">
        <ele>241</ele>
        <time>2020-10-04T14:02:02.729Z</time>
      </trkpt>
      <trkpt lat="44.02761" lon="1.8793">
        <ele>241</ele>
        <time>2020-10-04T14:02:03.729Z</time>
      </trkpt>
      <trkpt lat="44.02761" lon="1.87928">
        <ele>241</ele>
        <time>2020-10-04T14:02:04.729Z</time>
      </trkpt>
      <trkpt lat="44.02761" lon="1.87928">
        <ele>241</ele>
        <time>2020-10-04T14:02:05.729Z</time>
      </trkpt>
      <trkpt lat="44.0276" lon="1.87928">
        <ele>241</ele>
        <time>2020-10-04T14:02:06.729Z</time>
      </trkpt>
      <trkpt lat="44.0276" lon="1.87928">
        <ele>241</ele>
        <time>2020-10-04T14:02:07.729Z</time>
      </trkpt>
      <trkpt lat="44.0276" lon="1.87928">
        <ele>241</ele>
        <time>2020-10-04T14:02:08.729Z</time>
      </trkpt>
      <trkpt lat="44.02759" lon="1.87924">
        <ele>241</ele>
        <time>2020-10-04T14:02:09.729Z</time>
      </trkpt>
      <trkpt lat="44.02759" lon="1.87923">
        <ele>241</ele>
        <time>2020-10-04T14:02:10.729Z</time>
      </trkpt>
      <trkpt lat="44.02758" lon="1.87921">
        <ele>241</ele>
        <time>2020-10-04T14:02:11.729Z</time>
      </trkpt>
      <trkpt lat="44.02758" lon="1.8792">
        <ele>242</ele>
        <time>2020-10-04T14:02:12.729Z</time>
      </trkpt>
      <trkpt lat="44.02758" lon="1.87918">
        <ele>242</ele>
        <time>2020-10-04T14:02:13.729Z</time>
      </trkpt>
      <trkpt lat="44.02758" lon="1.87917">
        <ele>242</ele>
        <time>2020-10-04T14:02:14.729Z</time>
      </trkpt>
      <trkpt lat="44.02758" lon="1.87916">
        <ele>242</ele>
        <time>2020-10-04T14:02:15.729Z</time>
      </trkpt>
      <trkpt lat="44.02757" lon="1.87914">
        <ele>242</ele>
        <time>2020-10-04T14:02:16.729Z</time>
      </trkpt>
      <trkpt lat="44.02757" lon="1.87913">
        <ele>242</ele>
        <time>2020-10-04T14:02:17.729Z</time>
      </trkpt>
      <trkpt lat="44.02756" lon="1.87912">
        <ele>242</ele>
        <time>2020-10-04T14:02:18.729Z</time>
      </trkpt>
      <trkpt lat="44.02756" lon="1.87911">
        <ele>242</ele>
        <time>2020-10-04T14:02:19.729Z</time>
      </trkpt>
      <trkpt lat="44.02755" lon="1.87909">
        <ele>242</ele>
        <time>2020-10-04T14:02:20.729Z</time>
      </trkpt>
      <trkpt lat="44.02754" lon="1.87908">
        <ele>242</ele>
        <time>2020-10-04T14:02:21.729Z</time>
      </trkpt>
      <trkpt lat="44.02754" lon="1.87906">
        <ele>242</ele>
        <time>2020-10-04T14:02:22.729Z</time>
      </trkpt>
      <trkpt lat="44.02753" lon="1.87905">
        <ele>242</ele>
        <time>2020-10-04T14:02:23.729Z</time>
      </trkpt>
      <trkpt lat="44.02753" lon="1.87903">
        <ele>242</ele>
        <time>2020-10-04T14:02:24.729Z</time>
      </trkpt>
      <trkpt lat="44.02752" lon="1.87902">
        <ele>242</ele>
        <time>2020-10-04T14:02:25.729Z</time>
      </trkpt>
      <trkpt lat="44.02751" lon="1.87902">
        <ele>242</ele>
        <time>2020-10-04T14:02:26.729Z</time>
      </trkpt>
      <trkpt lat="44.0275" lon="1.879">
        <ele>242</ele>
        <time>2020-10-04T14:02:27.729Z</time>
      </trkpt>
      <trkpt lat="44.02749" lon="1.87899">
        <ele>242</ele>
        <time>2020-10-04T14:02:28.729Z</time>
      </trkpt>
      <trkpt lat="44.02749" lon="1.87898">
        <ele>242</ele>
        <time>2020-10-04T14:02:29.729Z</time>
      </trkpt>
      <trkpt lat="44.02748" lon="1.87897">
        <ele>242</ele>
        <time>2020-10-04T14:02:30.729Z</time>
      </trkpt>
      <trkpt lat="44.02747" lon="1.87896">
        <ele>242</ele>
        <time>2020-10-04T14:02:31.729Z</time>
      </trkpt>
      <trkpt lat="44.02746" lon="1.87895">
        <ele>242</ele>
        <time>2020-10-04T14:02:32.729Z</time>
      </trkpt>
      <trkpt lat="44.02746" lon="1.87895">
        <ele>242</ele>
        <time>2020-10-04T14:02:33.729Z</time>
      </trkpt>
      <trkpt lat="44.02745" lon="1.87894">
        <ele>242</ele>
        <time>2020-10-04T14:02:34.729Z</time>
      </trkpt>
      <trkpt lat="44.02744" lon="1.87893">
        <ele>242</ele>
        <time>2020-10-04T14:02:35.729Z</time>
      </trkpt>
      <trkpt lat="44.02743" lon="1.87893">
        <ele>242</ele>
        <time>2020-10-04T14:02:36.729Z</time>
      </trkpt>
      <trkpt lat="44.02743" lon="1.87892">
        <ele>242</ele>
        <time>2020-10-04T14:02:37.729Z</time>
      </trkpt>
      <trkpt lat="44.02742" lon="1.87891">
        <ele>242</ele>
        <time>2020-10-04T14:02:38.729Z</time>
      </trkpt>
      <trkpt lat="44.02741" lon="1.87891">
        <ele>242</ele>
        <time>2020-10-04T14:02:39.729Z</time>
      </trkpt>
      <trkpt lat="44.0274" lon="1.87891">
        <ele>242</ele>
        <time>2020-10-04T14:02:40.729Z</time>
      </trkpt>
      <trkpt lat="44.0274" lon="1.8789">
        <ele>242</ele>
        <time>2020-10-04T14:02:41.729Z</time>
      </trkpt>
      <trkpt lat="44.02739" lon="1.87889">
        <ele>242</ele>
        <time>2020-10-04T14:02:42.729Z</time>
      </trkpt>
      <trkpt lat="44.02738" lon="1.87889">
        <ele>242</ele>
        <time>2020-10-04T14:02:43.729Z</time>
      </trkpt>
      <trkpt lat="44.02738" lon="1.87888">
        <ele>242</ele>
        <time>2020-10-04T14:02:44.729Z</time>
      </trkpt>
      <trkpt lat="44.02737" lon="1.87886">
        <ele>242</ele>
        <time>2020-10-04T14:02:45.729Z</time>
      </trkpt>
      <trkpt lat="44.02735" lon="1.87886">
        <ele>242</ele>
        <time>2020-10-04T14:02:46.729Z</time>
      </trkpt>
      <trkpt lat="44.02734" lon="1.87885">
        <ele>242</ele>
        <time>2020-10-04T14:02:47.729Z</time>
      </trkpt>
      <trkpt lat="44.02733" lon="1.87884">
        <ele>242</ele>
        <time>2020-10-04T14:02:48.729Z</time>
      </trkpt>
      <trkpt lat="44.02732" lon="1.87883">
        <ele>242</ele>
        <time>2020-10-04T14:02:49.729Z</time>
      </trkpt>
      <trkpt lat="44.02731" lon="1.87882">
        <ele>243</ele>
        <time>2020-10-04T14:02:50.729Z</time>
      </trkpt>
      <trkpt lat="44.0273" lon="1.87881">
        <ele>243</ele>
        <time>2020-10-04T14:02:51.729Z</time>
      </trkpt>
      <trkpt lat="44.02729" lon="1.8788">
        <ele>243</ele>
        <time>2020-10-04T14:02:52.729Z</time>
      </trkpt>
      <trkpt lat="44.02728" lon="1.87879">
        <ele>243</ele>
        <time>2020-10-04T14:02:53.729Z</time>
      </trkpt>
      <trkpt lat="44.02727" lon="1.87878">
        <ele>243</ele>
        <time>2020-10-04T14:02:54.729Z</time>
      </trkpt>
      <trkpt lat="44.02726" lon="1.87877">
        <ele>243</ele>
        <time>2020-10-04T14:02:55.729Z</time>
      </trkpt>
      <trkpt lat="44.02725" lon="1.87876">
        <ele>243</ele>
        <time>2020-10-04T14:02:56.729Z</time>
      </trkpt>
      <trkpt lat="44.02724" lon="1.87875">
        <ele>243</ele>
        <time>2020-10-04T14:02:57.729Z</time>
      </trkpt>
      <trkpt lat="44.02723" lon="1.87874">
        <ele>243</ele>
        <time>2020-10-04T14:02:58.729Z</time>
      </trkpt>
      <trkpt lat="44.02722" lon="1.87874">
        <ele>243</ele>
        <time>2020-10-04T14:02:59.729Z</time>
      </trkpt>
      <trkpt lat="44.02721" lon="1.87873">
        <ele>243</ele>
        <time>2020-10-04T14:03:00.729Z</time>
      </trkpt>
      <trkpt lat="44.0272" lon="1.87872">
        <ele>243</ele>
        <time>2020-10-04T14:03:01.729Z</time>
      </trkpt>
      <trkpt lat="44.02719" lon="1.87871">
        <ele>243</ele>
        <time>2020-10-04T14:03:02.729Z</time>
      </trkpt>
      <trkpt lat="44.02718" lon="1.8787">
        <ele>243</ele>
        <time>2020-10-04T14:03:03.729Z</time>
      </trkpt>
      <trkpt lat="44.02717" lon="1.8787">
        <ele>243</ele>
        <time>2020-10-04T14:03:04.729Z</time>
      </trkpt>
      <trkpt lat="44.02716" lon="1.87869">
        <ele>243</ele>
        <time>2020-10-04T14:03:05.729Z</time>
      </trkpt>
      <trkpt lat="44.02715" lon="1.87868">
        <ele>243</ele>
        <time>2020-10-04T14:03:06.729Z</time>
      </trkpt>
      <trkpt lat="44.02714" lon="1.87868">
        <ele>243</ele>
        <time>2020-10-04T14:03:07.729Z</time>
      </trkpt>
      <trkpt lat="44.02713" lon="1.87867">
        <ele>243</ele>
        <time>2020-10-04T14:03:08.729Z</time>
      </trkpt>
      <trkpt lat="44.02712" lon="1.87866">
        <ele>243</ele>
        <time>2020-10-04T14:03:09.729Z</time>
      </trkpt>
      <trkpt lat="44.02711" lon="1.87865">
        <ele>243</ele>
        <time>2020-10-04T14:03:10.729Z</time>
      </trkpt>
      <trkpt lat="44.0271" lon="1.87864">
        <ele>244</ele>
        <time>2020-10-04T14:03:11.729Z</time>
      </trkpt>
      <trkpt lat="44.0271" lon="1.87863">
        <ele>243</ele>
        <time>2020-10-04T14:03:12.729Z</time>
      </trkpt>
      <trkpt lat="44.02709" lon="1.87862">
        <ele>243</ele>
        <time>2020-10-04T14:03:13.729Z</time>
      </trkpt>
      <trkpt lat="44.02708" lon="1.87862">
        <ele>243</ele>
        <time>2020-10-04T14:03:14.729Z</time>
      </trkpt>
      <trkpt lat="44.02706" lon="1.87861">
        <ele>243</ele>
        <time>2020-10-04T14:03:15.729Z</time>
      </trkpt>
      <trkpt lat="44.02705" lon="1.87859">
        <ele>243</ele>
        <time>2020-10-04T14:03:16.729Z</time>
      </trkpt>
      <trkpt lat="44.02704" lon="1.87859">
        <ele>243</ele>
        <time>2020-10-04T14:03:17.729Z</time>
      </trkpt>
      <trkpt lat="44.02704" lon="1.87858">
        <ele>243</ele>
        <time>2020-10-04T14:03:18.729Z</time>
      </trkpt>
      <trkpt lat="44.02703" lon="1.87857">
        <ele>243</ele>
        <time>2020-10-04T14:03:19.729Z</time>
      </trkpt>
      <trkpt lat="44.02702" lon="1.87857">
        <ele>243</ele>
        <time>2020-10-04T14:03:20.729Z</time>
      </trkpt>
      <trkpt lat="44.02702" lon="1.87856">
        <ele>243</ele>
        <time>2020-10-04T14:03:21.729Z</time>
      </trkpt>
      <trkpt lat="44.02701" lon="1.87856">
        <ele>243</ele>
        <time>2020-10-04T14:03:22.729Z</time>
      </trkpt>
      <trkpt lat="44.027" lon="1.87855">
        <ele>244</ele>
        <time>2020-10-04T14:03:23.729Z</time>
      </trkpt>
      <trkpt lat="44.02699" lon="1.87854">
        <ele>244</ele>
        <time>2020-10-04T14:03:24.729Z</time>
      </trkpt>
      <trkpt lat="44.02698" lon="1.87854">
        <ele>244</ele>
        <time>2020-10-04T14:03:25.729Z</time>
      </trkpt>
      <trkpt lat="44.02697" lon="1.87853">
        <ele>244</ele>
        <time>2020-10-04T14:03:26.729Z</time>
      </trkpt>
      <trkpt lat="44.02697" lon="1.87852">
        <ele>244</ele>
        <time>2020-10-04T14:03:27.729Z</time>
      </trkpt>
      <trkpt lat="44.02696" lon="1.87851">
        <ele>244</ele>
        <time>2020-10-04T14:03:28.729Z</time>
      </trkpt>
      <trkpt lat="44.02695" lon="1.87851">
        <ele>244</ele>
        <time>2020-10-04T14:03:29.729Z</time>
      </trkpt>
      <trkpt lat="44.02694" lon="1.8785">
        <ele>244</ele>
        <time>2020-10-04T14:03:30.729Z</time>
      </trkpt>
      <trkpt lat="44.02693" lon="1.87849">
        <ele>245</ele>
        <time>2020-10-04T14:03:31.729Z</time>
      </trkpt>
      <trkpt lat="44.02692" lon="1.87848">
        <ele>245</ele>
        <time>2020-10-04T14:03:32.729Z</time>
      </trkpt>
      <trkpt lat="44.02691" lon="1.87848">
        <ele>245</ele>
        <time>2020-10-04T14:03:33.729Z</time>
      </trkpt>
      <trkpt lat="44.0269" lon="1.87847">
        <ele>245</ele>
        <time>2020-10-04T14:03:34.729Z</time>
      </trkpt>
      <trkpt lat="44.02689" lon="1.87846">
        <ele>245</ele>
        <time>2020-10-04T14:03:35.729Z</time>
      </trkpt>
      <trkpt lat="44.02688" lon="1.87845">
        <ele>245</ele>
        <time>2020-10-04T14:03:36.729Z</time>
      </trkpt>
      <trkpt lat="44.02688" lon="1.87844">
        <ele>245</ele>
        <time>2020-10-04T14:03:37.729Z</time>
      </trkpt>
      <trkpt lat="44.02687" lon="1.87843">
        <ele>245</ele>
        <time>2020-10-04T14:03:38.729Z</time>
      </trkpt>
      <trkpt lat="44.02686" lon="1.87843">
        <ele>245</ele>
        <time>2020-10-04T14:03:39.729Z</time>
      </trkpt>
      <trkpt lat="44.02685" lon="1.87842">
        <ele>245</ele>
        <time>2020-10-04T14:03:40.729Z</time>
      </trkpt>
      <trkpt lat="44.02684" lon="1.87841">
        <ele>245</ele>
        <time>2020-10-04T14:03:41.729Z</time>
      </trkpt>
      <trkpt lat="44.02683" lon="1.8784">
        <ele>245</ele>
        <time>2020-10-04T14:03:42.729Z</time>
      </trkpt>
      <trkpt lat="44.02681" lon="1.87839">
        <ele>245</ele>
        <time>2020-10-04T14:03:43.729Z</time>
      </trkpt>
      <trkpt lat="44.0268" lon="1.87838">
        <ele>245</ele>
        <time>2020-10-04T14:03:44.729Z</time>
      </trkpt>
      <trkpt lat="44.02679" lon="1.87837">
        <ele>245</ele>
        <time>2020-10-04T14:03:45.729Z</time>
      </trkpt>
      <trkpt lat="44.02678" lon="1.87836">
        <ele>245</ele>
        <time>2020-10-04T14:03:46.729Z</time>
      </trkpt>
      <trkpt lat="44.02677" lon="1.87836">
        <ele>245</ele>
        <time>2020-10-04T14:03:47.729Z</time>
      </trkpt>
      <trkpt lat="44.02675" lon="1.87835">
        <ele>245</ele>
        <time>2020-10-04T14:03:48.729Z</time>
      </trkpt>
      <trkpt lat="44.02674" lon="1.87834">
        <ele>245</ele>
        <time>2020-10-04T14:03:49.729Z</time>
      </trkpt>
      <trkpt lat="44.02673" lon="1.87833">
        <ele>245</ele>
        <time>2020-10-04T14:03:50.729Z</time>
      </trkpt>
      <trkpt lat="44.02673" lon="1.87832">
        <ele>245</ele>
        <time>2020-10-04T14:03:51.729Z</time>
      </trkpt>
      <trkpt lat="44.02672" lon="1.87831">
        <ele>245</ele>
        <time>2020-10-04T14:03:52.729Z</time>
      </trkpt>
      <trkpt lat="44.02671" lon="1.8783">
        <ele>245</ele>
        <time>2020-10-04T14:03:53.729Z</time>
      </trkpt>
      <trkpt lat="44.02669" lon="1.87828">
        <ele>245</ele>
        <time>2020-10-04T14:03:54.729Z</time>
      </trkpt>
      <trkpt lat="44.02668" lon="1.87827">
        <ele>245</ele>
        <time>2020-10-04T14:03:55.729Z</time>
      </trkpt>
      <trkpt lat="44.02667" lon="1.87826">
        <ele>246</ele>
        <time>2020-10-04T14:03:56.729Z</time>
      </trkpt>
      <trkpt lat="44.02667" lon="1.87825">
        <ele>246</ele>
        <time>2020-10-04T14:03:57.729Z</time>
      </trkpt>
      <trkpt lat="44.02666" lon="1.87824">
        <ele>246</ele>
        <time>2020-10-04T14:03:58.729Z</time>
      </trkpt>
      <trkpt lat="44.02665" lon="1.87823">
        <ele>246</ele>
        <time>2020-10-04T14:03:59.729Z</time>
      </trkpt>
      <trkpt lat="44.02664" lon="1.87821">
        <ele>246</ele>
        <time>2020-10-04T14:04:00.729Z</time>
      </trkpt>
      <trkpt lat="44.02663" lon="1.8782">
        <ele>246</ele>
        <time>2020-10-04T14:04:01.729Z</time>
      </trkpt>
      <trkpt lat="44.02662" lon="1.87819">
        <ele>246</ele>
        <time>2020-10-04T14:04:02.729Z</time>
      </trkpt>
      <trkpt lat="44.02661" lon="1.87818">
        <ele>246</ele>
        <time>2020-10-04T14:04:03.729Z</time>
      </trkpt>
      <trkpt lat="44.02659" lon="1.87817">
        <ele>246</ele>
        <time>2020-10-04T14:04:04.729Z</time>
      </trkpt>
      <trkpt lat="44.02658" lon="1.87817">
        <ele>246</ele>
        <time>2020-10-04T14:04:05.729Z</time>
      </trkpt>
      <trkpt lat="44.02657" lon="1.87816">
        <ele>246</ele>
        <time>2020-10-04T14:04:06.729Z</time>
      </trkpt>
      <trkpt lat="44.02656" lon="1.87815">
        <ele>246</ele>
        <time>2020-10-04T14:04:07.729Z</time>
      </trkpt>
      <trkpt lat="44.02654" lon="1.87814">
        <ele>246</ele>
        <time>2020-10-04T14:04:08.729Z</time>
      </trkpt>
      <trkpt lat="44.02653" lon="1.87814">
        <ele>246</ele>
        <time>2020-10-04T14:04:09.729Z</time>
      </trkpt>
      <trkpt lat="44.02652" lon="1.87813">
        <ele>246</ele>
        <time>2020-10-04T14:04:10.729Z</time>
      </trkpt>
      <trkpt lat="44.02651" lon="1.87813">
        <ele>246</ele>
        <time>2020-10-04T14:04:11.729Z</time>
      </trkpt>
      <trkpt lat="44.0265" lon="1.87812">
        <ele>246</ele>
        <time>2020-10-04T14:04:12.729Z</time>
      </trkpt>
      <trkpt lat="44.02648" lon="1.87812">
        <ele>246</ele>
        <time>2020-10-04T14:04:13.729Z</time>
      </trkpt>
      <trkpt lat="44.02647" lon="1.87811">
        <ele>246</ele>
        <time>2020-10-04T14:04:14.729Z</time>
      </trkpt>
      <trkpt lat="44.02646" lon="1.87811">
        <ele>246</ele>
        <time>2020-10-04T14:04:15.729Z</time>
      </trkpt>
      <trkpt lat="44.02645" lon="1.87811">
        <ele>246</ele>
        <time>2020-10-04T14:04:16.729Z</time>
      </trkpt>
      <trkpt lat="44.02644" lon="1.87811">
        <ele>246</ele>
        <time>2020-10-04T14:04:17.729Z</time>
      </trkpt>
      <trkpt lat="44.02643" lon="1.87811">
        <ele>246</ele>
        <time>2020-10-04T14:04:18.729Z</time>
      </trkpt>
      <trkpt lat="44.02642" lon="1.87811">
        <ele>246</ele>
        <time>2020-10-04T14:04:19.729Z</time>
      </trkpt>
      <trkpt lat="44.02641" lon="1.87812">
        <ele>246</ele>
        <time>2020-10-04T14:04:20.729Z</time>
      </trkpt>
      <trkpt lat="44.0264" lon="1.87812">
        <ele>246</ele>
        <time>2020-10-04T14:04:21.729Z</time>
      </trkpt>
      <trkpt lat="44.02639" lon="1.87812">
        <ele>246</ele>
        <time>2020-10-04T14:04:22.729Z</time>
      </trkpt>
      <trkpt lat="44.02638" lon="1.87813">
        <ele>246</ele>
        <time>2020-10-04T14:04:23.729Z</time>
      </trkpt>
      <trkpt lat="44.02637" lon="1.87814">
        <ele>246</ele>
        <time>2020-10-04T14:04:24.729Z</time>
      </trkpt>
      <trkpt lat="44.02636" lon="1.87815">
        <ele>246</ele>
        <time>2020-10-04T14:04:25.729Z</time>
      </trkpt>
      <trkpt lat="44.02635" lon="1.87815">
        <ele>246</ele>
        <time>2020-10-04T14:04:26.729Z</time>
      </trkpt>
      <trkpt lat="44.02634" lon="1.87816">
        <ele>246</ele>
        <time>2020-10-04T14:04:27.729Z</time>
      </trkpt>
      <trkpt lat="44.02633" lon="1.87817">
        <ele>246</ele>
        <time>2020-10-04T14:04:28.729Z</time>
      </trkpt>
      <trkpt lat="44.02632" lon="1.87817">
        <ele>246</ele>
        <time>2020-10-04T14:04:29.729Z</time>
      </trkpt>
      <trkpt lat="44.02631" lon="1.87818">
        <ele>246</ele>
        <time>2020-10-04T14:04:30.729Z</time>
      </trkpt>
      <trkpt lat="44.02631" lon="1.87819">
        <ele>246</ele>
        <time>2020-10-04T14:04:31.729Z</time>
      </trkpt>
      <trkpt lat="44.0263" lon="1.8782">
        <ele>246</ele>
        <time>2020-10-04T14:04:32.729Z</time>
      </trkpt>
      <trkpt lat="44.02629" lon="1.87821">
        <ele>246</ele>
        <time>2020-10-04T14:04:33.729Z</time>
      </trkpt>
      <trkpt lat="44.02628" lon="1.87822">
        <ele>246</ele>
        <time>2020-10-04T14:04:34.729Z</time>
      </trkpt>
      <trkpt lat="44.02628" lon="1.87823">
        <ele>246</ele>
        <time>2020-10-04T14:04:35.729Z</time>
      </trkpt>
      <trkpt lat="44.02627" lon="1.87825">
        <ele>246</ele>
        <time>2020-10-04T14:04:36.729Z</time>
      </trkpt>
      <trkpt lat="44.02626" lon="1.87826">
        <ele>246</ele>
        <time>2020-10-04T14:04:37.729Z</time>
      </trkpt>
      <trkpt lat="44.02625" lon="1.87827">
        <ele>246</ele>
        <time>2020-10-04T14:04:38.729Z</time>
      </trkpt>
      <trkpt lat="44.02625" lon="1.87828">
        <ele>246</ele>
        <time>2020-10-04T14:04:39.729Z</time>
      </trkpt>
      <trkpt lat="44.02624" lon="1.87829">
        <ele>246</ele>
        <time>2020-10-04T14:04:40.729Z</time>
      </trkpt>
      <trkpt lat="44.02623" lon="1.8783">
        <ele>246</ele>
        <time>2020-10-04T14:04:41.729Z</time>
      </trkpt>
      <trkpt lat="44.02622" lon="1.87831">
        <ele>246</ele>
        <time>2020-10-04T14:04:42.729Z</time>
      </trkpt>
      <trkpt lat="44.02622" lon="1.87833">
        <ele>246</ele>
        <time>2020-10-04T14:04:43.729Z</time>
      </trkpt>
      <trkpt lat="44.02621" lon="1.87834">
        <ele>246</ele>
        <time>2020-10-04T14:04:44.729Z</time>
      </trkpt>
      <trkpt lat="44.0262" lon="1.87835">
        <ele>246</ele>
        <time>2020-10-04T14:04:45.729Z</time>
      </trkpt>
      <trkpt lat="44.02619" lon="1.87836">
        <ele>246</ele>
        <time>2020-10-04T14:04:46.729Z</time>
      </trkpt>
      <trkpt lat="44.02618" lon="1.87838">
        <ele>246</ele>
        <time>2020-10-04T14:04:47.729Z</time>
      </trkpt>
      <trkpt lat="44.02617" lon="1.87839">
        <ele>246</ele>
        <time>2020-10-04T14:04:48.729Z</time>
      </trkpt>
      <trkpt lat="44.02616" lon="1.8784">
        <ele>246</ele>
        <time>2020-10-04T14:04:49.729Z</time>
      </trkpt>
      <trkpt lat="44.02616" lon="1.87841">
        <ele>246</ele>
        <time>2020-10-04T14:04:50.729Z</time>
      </trkpt>
      <trkpt lat="44.02615" lon="1.87842">
        <ele>246</ele>
        <time>2020-10-04T14:04:51.729Z</time>
      </trkpt>
      <trkpt lat="44.02614" lon="1.87843">
        <ele>246</ele>
        <time>2020-10-04T14:04:52.729Z</time>
      </trkpt>
      <trkpt lat="44.02613" lon="1.87844">
        <ele>246</ele>
        <time>2020-10-04T14:04:53.729Z</time>
      </trkpt>
      <trkpt lat="44.02612" lon="1.87845">
        <ele>246</ele>
        <time>2020-10-04T14:04:54.729Z</time>
      </trkpt>
      <trkpt lat="44.02612" lon="1.87846">
        <ele>246</ele>
        <time>2020-10-04T14:04:55.729Z</time>
      </trkpt>
      <trkpt lat="44.02611" lon="1.87847">
        <ele>246</ele>
        <time>2020-10-04T14:04:56.729Z</time>
      </trkpt>
      <trkpt lat="44.0261" lon="1.87848">
        <ele>246</ele>
        <time>2020-10-04T14:04:57.729Z</time>
      </trkpt>
      <trkpt lat="44.02609" lon="1.87849">
        <ele>246</ele>
        <time>2020-10-04T14:04:58.729Z</time>
      </trkpt>
      <trkpt lat="44.02608" lon="1.8785">
        <ele>246</ele>
        <time>2020-10-04T14:04:59.729Z</time>
      </trkpt>
      <trkpt lat="44.02607" lon="1.87851">
        <ele>246</ele>
        <time>2020-10-04T14:05:00.729Z</time>
      </trkpt>
      <trkpt lat="44.02606" lon="1.87852">
        <ele>246</ele>
        <time>2020-10-04T14:05:01.729Z</time>
      </trkpt>
      <trkpt lat="44.02604" lon="1.87853">
        <ele>246</ele>
        <time>2020-10-04T14:05:02.729Z</time>
      </trkpt>
      <trkpt lat="44.02603" lon="1.87854">
        <ele>246</ele>
        <time>2020-10-04T14:05:03.729Z</time>
      </trkpt>
      <trkpt lat="44.02602" lon="1.87855">
        <ele>246</ele>
        <time>2020-10-04T14:05:04.729Z</time>
      </trkpt>
      <trkpt lat="44.02601" lon="1.87856">
        <ele>246</ele>
        <time>2020-10-04T14:05:05.729Z</time>
      </trkpt>
      <trkpt lat="44.02601" lon="1.87857">
        <ele>246</ele>
        <time>2020-10-04T14:05:06.729Z</time>
      </trkpt>
      <trkpt lat="44.026" lon="1.87858">
        <ele>245</ele>
        <time>2020-10-04T14:05:07.729Z</time>
      </trkpt>
      <trkpt lat="44.02598" lon="1.87859">
        <ele>245</ele>
        <time>2020-10-04T14:05:08.729Z</time>
      </trkpt>
      <trkpt lat="44.02597" lon="1.8786">
        <ele>245</ele>
        <time>2020-10-04T14:05:09.729Z</time>
      </trkpt>
      <trkpt lat="44.02596" lon="1.87861">
        <ele>245</ele>
        <time>2020-10-04T14:05:10.729Z</time>
      </trkpt>
      <trkpt lat="44.02595" lon="1.87861">
        <ele>245</ele>
        <time>2020-10-04T14:05:11.729Z</time>
      </trkpt>
      <trkpt lat="44.02594" lon="1.87862">
        <ele>245</ele>
        <time>2020-10-04T14:05:12.729Z</time>
      </trkpt>
      <trkpt lat="44.02593" lon="1.87863">
        <ele>245</ele>
        <time>2020-10-04T14:05:13.729Z</time>
      </trkpt>
      <trkpt lat="44.02592" lon="1.87864">
        <ele>245</ele>
        <time>2020-10-04T14:05:14.729Z</time>
      </trkpt>
      <trkpt lat="44.0259" lon="1.87864">
        <ele>245</ele>
        <time>2020-10-04T14:05:15.729Z</time>
      </trkpt>
      <trkpt lat="44.02589" lon="1.87865">
        <ele>245</ele>
        <time>2020-10-04T14:05:16.729Z</time>
      </trkpt>
      <trkpt lat="44.02588" lon="1.87865">
        <ele>245</ele>
        <time>2020-10-04T14:05:17.729Z</time>
      </trkpt>
      <trkpt lat="44.02587" lon="1.87866">
        <ele>245</ele>
        <time>2020-10-04T14:05:18.729Z</time>
      </trkpt>
      <trkpt lat="44.02586" lon="1.87866">
        <ele>245</ele>
        <time>2020-10-04T14:05:19.729Z</time>
      </trkpt>
      <trkpt lat="44.02585" lon="1.87867">
        <ele>245</ele>
        <time>2020-10-04T14:05:20.729Z</time>
      </trkpt>
      <trkpt lat="44.02583" lon="1.87867">
        <ele>245</ele>
        <time>2020-10-04T14:05:21.729Z</time>
      </trkpt>
      <trkpt lat="44.02582" lon="1.87868">
        <ele>245</ele>
        <time>2020-10-04T14:05:22.729Z</time>
      </trkpt>
      <trkpt lat="44.02581" lon="1.87868">
        <ele>245</ele>
        <time>2020-10-04T14:05:23.729Z</time>
      </trkpt>
      <trkpt lat="44.02579" lon="1.87868">
        <ele>245</ele>
        <time>2020-10-04T14:05:24.729Z</time>
      </trkpt>
      <trkpt lat="44.02578" lon="1.87868">
        <ele>245</ele>
        <time>2020-10-04T14:05:25.729Z</time>
      </trkpt>
      <trkpt lat="44.02577" lon="1.87868">
        <ele>245</ele>
        <time>2020-10-04T14:05:26.729Z</time>
      </trkpt>
      <trkpt lat="44.02576" lon="1.87867">
        <ele>245</ele>
        <time>2020-10-04T14:05:27.729Z</time>
      </trkpt>
      <trkpt lat="44.02574" lon="1.87867">
        <ele>245</ele>
        <time>2020-10-04T14:05:28.729Z</time>
      </trkpt>
      <trkpt lat="44.02573" lon="1.87867">
        <ele>245</ele>
        <time>2020-10-04T14:05:29.729Z</time>
      </trkpt>
      <trkpt lat="44.02572" lon="1.87866">
        <ele>245</ele>
        <time>2020-10-04T14:05:30.729Z</time>
      </trkpt>
      <trkpt lat="44.02571" lon="1.87866">
        <ele>246</ele>
        <time>2020-10-04T14:05:31.729Z</time>
      </trkpt>
      <trkpt lat="44.0257" lon="1.87865">
        <ele>246</ele>
        <time>2020-10-04T14:05:32.729Z</time>
      </trkpt>
      <trkpt lat="44.02569" lon="1.87864">
        <ele>246</ele>
        <time>2020-10-04T14:05:33.729Z</time>
      </trkpt>
      <trkpt lat="44.02568" lon="1.87863">
        <ele>246</ele>
        <time>2020-10-04T14:05:34.729Z</time>
      </trkpt>
      <trkpt lat="44.02566" lon="1.87862">
        <ele>246</ele>
        <time>2020-10-04T14:05:35.729Z</time>
      </trkpt>
      <trkpt lat="44.02566" lon="1.8786">
        <ele>246</ele>
        <time>2020-10-04T14:05:36.729Z</time>
      </trkpt>
      <trkpt lat="44.02565" lon="1.87859">
        <ele>246</ele>
        <time>2020-10-04T14:05:37.729Z</time>
      </trkpt>
      <trkpt lat="44.02564" lon="1.87858">
        <ele>246</ele>
        <time>2020-10-04T14:05:38.729Z</time>
      </trkpt>
      <trkpt lat="44.02563" lon="1.87857">
        <ele>246</ele>
        <time>2020-10-04T14:05:39.729Z</time>
      </trkpt>
      <trkpt lat="44.02562" lon="1.87856">
        <ele>246</ele>
        <time>2020-10-04T14:05:40.729Z</time>
      </trkpt>
      <trkpt lat="44.02562" lon="1.87854">
        <ele>246</ele>
        <time>2020-10-04T14:05:41.729Z</time>
      </trkpt>
      <trkpt lat="44.02561" lon="1.87853">
        <ele>246</ele>
        <time>2020-10-04T14:05:42.729Z</time>
      </trkpt>
      <trkpt lat="44.02561" lon="1.87852">
        <ele>246</ele>
        <time>2020-10-04T14:05:43.729Z</time>
      </trkpt>
      <trkpt lat="44.0256" lon="1.87851">
        <ele>246</ele>
        <time>2020-10-04T14:05:44.729Z</time>
      </trkpt>
      <trkpt lat="44.0256" lon="1.87849">
        <ele>246</ele>
        <time>2020-10-04T14:05:45.729Z</time>
      </trkpt>
      <trkpt lat="44.02559" lon="1.87848">
        <ele>246</ele>
        <time>2020-10-04T14:05:46.729Z</time>
      </trkpt>
      <trkpt lat="44.02559" lon="1.87846">
        <ele>246</ele>
        <time>2020-10-04T14:05:47.729Z</time>
      </trkpt>
      <trkpt lat="44.02559" lon="1.87844">
        <ele>246</ele>
        <time>2020-10-04T14:05:48.729Z</time>
      </trkpt>
      <trkpt lat="44.02558" lon="1.87843">
        <ele>246</ele>
        <time>2020-10-04T14:05:49.729Z</time>
      </trkpt>
      <trkpt lat="44.02558" lon="1.87841">
        <ele>247</ele>
        <time>2020-10-04T14:05:50.729Z</time>
      </trkpt>
      <trkpt lat="44.02558" lon="1.87839">
        <ele>247</ele>
        <time>2020-10-04T14:05:51.729Z</time>
      </trkpt>
      <trkpt lat="44.02558" lon="1.87838">
        <ele>247</ele>
        <time>2020-10-04T14:05:52.729Z</time>
      </trkpt>
      <trkpt lat="44.02558" lon="1.87836">
        <ele>247</ele>
        <time>2020-10-04T14:05:53.729Z</time>
      </trkpt>
      <trkpt lat="44.02558" lon="1.87834">
        <ele>247</ele>
        <time>2020-10-04T14:05:54.729Z</time>
      </trkpt>
      <trkpt lat="44.02557" lon="1.87832">
        <ele>247</ele>
        <time>2020-10-04T14:05:55.729Z</time>
      </trkpt>
      <trkpt lat="44.02557" lon="1.87831">
        <ele>247</ele>
        <time>2020-10-04T14:05:56.729Z</time>
      </trkpt>
      <trkpt lat="44.02557" lon="1.87829">
        <ele>247</ele>
        <time>2020-10-04T14:05:57.729Z</time>
      </trkpt>
      <trkpt lat="44.02557" lon="1.87827">
        <ele>247</ele>
        <time>2020-10-04T14:05:58.729Z</time>
      </trkpt>
      <trkpt lat="44.02557" lon="1.87825">
        <ele>247</ele>
        <time>2020-10-04T14:05:59.729Z</time>
      </trkpt>
      <trkpt lat="44.02557" lon="1.87824">
        <ele>247</ele>
        <time>2020-10-04T14:06:00.729Z</time>
      </trkpt>
      <trkpt lat="44.02557" lon="1.87822">
        <ele>247</ele>
        <time>2020-10-04T14:06:01.729Z</time>
      </trkpt>
      <trkpt lat="44.02557" lon="1.87821">
        <ele>247</ele>
        <time>2020-10-04T14:06:02.729Z</time>
      </trkpt>
      <trkpt lat="44.02556" lon="1.8782">
        <ele>247</ele>
        <time>2020-10-04T14:06:03.729Z</time>
      </trkpt>
      <trkpt lat="44.02556" lon="1.87818">
        <ele>248</ele>
        <time>2020-10-04T14:06:04.729Z</time>
      </trkpt>
      <trkpt lat="44.02556" lon="1.87816">
        <ele>248</ele>
        <time>2020-10-04T14:06:05.729Z</time>
      </trkpt>
      <trkpt lat="44.02556" lon="1.87815">
        <ele>248</ele>
        <time>2020-10-04T14:06:06.729Z</time>
      </trkpt>
      <trkpt lat="44.02555" lon="1.87813">
        <ele>248</ele>
        <time>2020-10-04T14:06:07.729Z</time>
      </trkpt>
      <trkpt lat="44.02555" lon="1.87812">
        <ele>248</ele>
        <time>2020-10-04T14:06:08.729Z</time>
      </trkpt>
      <trkpt lat="44.02554" lon="1.87811">
        <ele>248</ele>
        <time>2020-10-04T14:06:09.729Z</time>
      </trkpt>
      <trkpt lat="44.02554" lon="1.87809">
        <ele>248</ele>
        <time>2020-10-04T14:06:10.729Z</time>
      </trkpt>
      <trkpt lat="44.02554" lon="1.87808">
        <ele>248</ele>
        <time>2020-10-04T14:06:11.729Z</time>
      </trkpt>
      <trkpt lat="44.02553" lon="1.87806">
        <ele>248</ele>
        <time>2020-10-04T14:06:12.729Z</time>
      </trkpt>
      <trkpt lat="44.02553" lon="1.87805">
        <ele>248</ele>
        <time>2020-10-04T14:06:13.729Z</time>
      </trkpt>
      <trkpt lat="44.02552" lon="1.87804">
        <ele>248</ele>
        <time>2020-10-04T14:06:14.729Z</time>
      </trkpt>
      <trkpt lat="44.02551" lon="1.87803">
        <ele>249</ele>
        <time>2020-10-04T14:06:15.729Z</time>
      </trkpt>
      <trkpt lat="44.02551" lon="1.87801">
        <ele>249</ele>
        <time>2020-10-04T14:06:16.729Z</time>
      </trkpt>
      <trkpt lat="44.0255" lon="1.878">
        <ele>249</ele>
        <time>2020-10-04T14:06:17.729Z</time>
      </trkpt>
      <trkpt lat="44.02549" lon="1.878">
        <ele>249</ele>
        <time>2020-10-04T14:06:18.729Z</time>
      </trkpt>
      <trkpt lat="44.02548" lon="1.87799">
        <ele>249</ele>
        <time>2020-10-04T14:06:19.729Z</time>
      </trkpt>
      <trkpt lat="44.02547" lon="1.87798">
        <ele>249</ele>
        <time>2020-10-04T14:06:20.729Z</time>
      </trkpt>
      <trkpt lat="44.02547" lon="1.87797">
        <ele>249</ele>
        <time>2020-10-04T14:06:21.729Z</time>
      </trkpt>
      <trkpt lat="44.02546" lon="1.87796">
        <ele>249</ele>
        <time>2020-10-04T14:06:22.729Z</time>
      </trkpt>
      <trkpt lat="44.02545" lon="1.87795">
        <ele>249</ele>
        <time>2020-10-04T14:06:23.729Z</time>
      </trkpt>
      <trkpt lat="44.02544" lon="1.87794">
        <ele>250</ele>
        <time>2020-10-04T14:06:24.729Z</time>
      </trkpt>
      <trkpt lat="44.02543" lon="1.87794">
        <ele>250</ele>
        <time>2020-10-04T14:06:25.729Z</time>
      </trkpt>
      <trkpt lat="44.02542" lon="1.87793">
        <ele>250</ele>
        <time>2020-10-04T14:06:26.729Z</time>
      </trkpt>
      <trkpt lat="44.02542" lon="1.87793">
        <ele>250</ele>
        <time>2020-10-04T14:06:27.729Z</time>
      </trkpt>
      <trkpt lat="44.0254" lon="1.87792">
        <ele>250</ele>
        <time>2020-10-04T14:06:28.729Z</time>
      </trkpt>
      <trkpt lat="44.0254" lon="1.87791">
        <ele>250</ele>
        <time>2020-10-04T14:06:29.729Z</time>
      </trkpt>
      <trkpt lat="44.02539" lon="1.87791">
        <ele>250</ele>
        <time>2020-10-04T14:06:30.729Z</time>
      </trkpt>
      <trkpt lat="44.02538" lon="1.87791">
        <ele>250</ele>
        <time>2020-10-04T14:06:31.729Z</time>
      </trkpt>
      <trkpt lat="44.02537" lon="1.8779">
        <ele>250</ele>
        <time>2020-10-04T14:06:32.729Z</time>
      </trkpt>
      <trkpt lat="44.02536" lon="1.8779">
        <ele>250</ele>
        <time>2020-10-04T14:06:33.729Z</time>
      </trkpt>
      <trkpt lat="44.02534" lon="1.8779">
        <ele>250</ele>
        <time>2020-10-04T14:06:34.729Z</time>
      </trkpt>
      <trkpt lat="44.02533" lon="1.8779">
        <ele>250</ele>
        <time>2020-10-04T14:06:35.729Z</time>
      </trkpt>
      <trkpt lat="44.02532" lon="1.87789">
        <ele>250</ele>
        <time>2020-10-04T14:06:36.729Z</time>
      </trkpt>
      <trkpt lat="44.02531" lon="1.87789">
        <ele>250</ele>
        <time>2020-10-04T14:06:37.729Z</time>
      </trkpt>
      <trkpt lat="44.0253" lon="1.87789">
        <ele>250</ele>
        <time>2020-10-04T14:06:38.729Z</time>
      </trkpt>
      <trkpt lat="44.02529" lon="1.87789">
        <ele>250</ele>
        <time>2020-10-04T14:06:39.729Z</time>
      </trkpt>
      <trkpt lat="44.02528" lon="1.87789">
        <ele>250</ele>
        <time>2020-10-04T14:06:40.729Z</time>
      </trkpt>
      <trkpt lat="44.02527" lon="1.87788">
        <ele>250</ele>
        <time>2020-10-04T14:06:41.729Z</time>
      </trkpt>
      <trkpt lat="44.02526" lon="1.87788">
        <ele>250</ele>
        <time>2020-10-04T14:06:42.729Z</time>
      </trkpt>
      <trkpt lat="44.02525" lon="1.87788">
        <ele>250</ele>
        <time>2020-10-04T14:06:43.729Z</time>
      </trkpt>
      <trkpt lat="44.02523" lon="1.87788">
        <ele>250</ele>
        <time>2020-10-04T14:06:44.729Z</time>
      </trkpt>
      <trkpt lat="44.02522" lon="1.87788">
        <ele>250</ele>
        <time>2020-10-04T14:06:45.729Z</time>
      </trkpt>
      <trkpt lat="44.02521" lon="1.87789">
        <ele>250</ele>
        <time>2020-10-04T14:06:46.729Z</time>
      </trkpt>
      <trkpt lat="44.0252" lon="1.87789">
        <ele>250</ele>
        <time>2020-10-04T14:06:47.729Z</time>
      </trkpt>
      <trkpt lat="44.02519" lon="1.87789">
        <ele>250</ele>
        <time>2020-10-04T14:06:48.729Z</time>
      </trkpt>
      <trkpt lat="44.02518" lon="1.8779">
        <ele>250</ele>
        <time>2020-10-04T14:06:49.729Z</time>
      </trkpt>
      <trkpt lat="44.02517" lon="1.8779">
        <ele>250</ele>
        <time>2020-10-04T14:06:50.729Z</time>
      </trkpt>
      <trkpt lat="44.02516" lon="1.8779">
        <ele>250</ele>
        <time>2020-10-04T14:06:51.729Z</time>
      </trkpt>
      <trkpt lat="44.02515" lon="1.8779">
        <ele>250</ele>
        <time>2020-10-04T14:06:52.729Z</time>
      </trkpt>
      <trkpt lat="44.02514" lon="1.87791">
        <ele>250</ele>
        <time>2020-10-04T14:06:53.729Z</time>
      </trkpt>
      <trkpt lat="44.02513" lon="1.87791">
        <ele>250</ele>
        <time>2020-10-04T14:06:54.729Z</time>
      </trkpt>
      <trkpt lat="44.02511" lon="1.87791">
        <ele>250</ele>
        <time>2020-10-04T14:06:55.729Z</time>
      </trkpt>
      <trkpt lat="44.0251" lon="1.87791">
        <ele>251</ele>
        <time>2020-10-04T14:06:56.729Z</time>
      </trkpt>
      <trkpt lat="44.02509" lon="1.87791">
        <ele>251</ele>
        <time>2020-10-04T14:06:57.729Z</time>
      </trkpt>
      <trkpt lat="44.02508" lon="1.87792">
        <ele>251</ele>
        <time>2020-10-04T14:06:58.729Z</time>
      </trkpt>
      <trkpt lat="44.02507" lon="1.87792">
        <ele>251</ele>
        <time>2020-10-04T14:06:59.729Z</time>
      </trkpt>
      <trkpt lat="44.02506" lon="1.87792">
        <ele>251</ele>
        <time>2020-10-04T14:07:00.729Z</time>
      </trkpt>
      <trkpt lat="44.02504" lon="1.87792">
        <ele>251</ele>
        <time>2020-10-04T14:07:01.729Z</time>
      </trkpt>
      <trkpt lat="44.02503" lon="1.87793">
        <ele>251</ele>
        <time>2020-10-04T14:07:02.729Z</time>
      </trkpt>
      <trkpt lat="44.02502" lon="1.87793">
        <ele>251</ele>
        <time>2020-10-04T14:07:03.729Z</time>
      </trkpt>
      <trkpt lat="44.02501" lon="1.87793">
        <ele>251</ele>
        <time>2020-10-04T14:07:04.729Z</time>
      </trkpt>
      <trkpt lat="44.025" lon="1.87793">
        <ele>252</ele>
        <time>2020-10-04T14:07:05.729Z</time>
      </trkpt>
      <trkpt lat="44.02499" lon="1.87793">
        <ele>252</ele>
        <time>2020-10-04T14:07:06.729Z</time>
      </trkpt>
      <trkpt lat="44.02498" lon="1.87793">
        <ele>252</ele>
        <time>2020-10-04T14:07:07.729Z</time>
      </trkpt>
      <trkpt lat="44.02496" lon="1.87793">
        <ele>252</ele>
        <time>2020-10-04T14:07:08.729Z</time>
      </trkpt>
      <trkpt lat="44.02495" lon="1.87793">
        <ele>252</ele>
        <time>2020-10-04T14:07:09.729Z</time>
      </trkpt>
      <trkpt lat="44.02494" lon="1.87793">
        <ele>252</ele>
        <time>2020-10-04T14:07:10.729Z</time>
      </trkpt>
      <trkpt lat="44.02493" lon="1.87793">
        <ele>252</ele>
        <time>2020-10-04T14:07:11.729Z</time>
      </trkpt>
      <trkpt lat="44.02492" lon="1.87793">
        <ele>252</ele>
        <time>2020-10-04T14:07:12.729Z</time>
      </trkpt>
      <trkpt lat="44.02491" lon="1.87792">
        <ele>252</ele>
        <time>2020-10-04T14:07:13.729Z</time>
      </trkpt>
      <trkpt lat="44.0249" lon="1.87792">
        <ele>252</ele>
        <time>2020-10-04T14:07:14.729Z</time>
      </trkpt>
      <trkpt lat="44.02489" lon="1.87792">
        <ele>253</ele>
        <time>2020-10-04T14:07:15.729Z</time>
      </trkpt>
      <trkpt lat="44.02488" lon="1.87791">
        <ele>253</ele>
        <time>2020-10-04T14:07:16.729Z</time>
      </trkpt>
      <trkpt lat="44.02487" lon="1.87791">
        <ele>253</ele>
        <time>2020-10-04T14:07:17.729Z</time>
      </trkpt>
      <trkpt lat="44.02486" lon="1.87791">
        <ele>253</ele>
        <time>2020-10-04T14:07:18.729Z</time>
      </trkpt>
      <trkpt lat="44.02485" lon="1.8779">
        <ele>253</ele>
        <time>2020-10-04T14:07:19.729Z</time>
      </trkpt>
      <trkpt lat="44.02484" lon="1.8779">
        <ele>253</ele>
        <time>2020-10-04T14:07:20.729Z</time>
      </trkpt>
      <trkpt lat="44.02483" lon="1.8779">
        <ele>253</ele>
        <time>2020-10-04T14:07:21.729Z</time>
      </trkpt>
      <trkpt lat="44.02482" lon="1.8779">
        <ele>253</ele>
        <time>2020-10-04T14:07:22.729Z</time>
      </trkpt>
      <trkpt lat="44.02481" lon="1.87789">
        <ele>253</ele>
        <time>2020-10-04T14:07:23.729Z</time>
      </trkpt>
      <trkpt lat="44.0248" lon="1.87789">
        <ele>253</ele>
        <time>2020-10-04T14:07:24.729Z</time>
      </trkpt>
      <trkpt lat="44.02479" lon="1.87788">
        <ele>253</ele>
        <time>2020-10-04T14:07:25.729Z</time>
      </trkpt>
      <trkpt lat="44.02478" lon="1.87788">
        <ele>253</ele>
        <time>2020-10-04T14:07:26.729Z</time>
      </trkpt>
      <trkpt lat="44.02477" lon="1.87787">
        <ele>253</ele>
        <time>2020-10-04T14:07:27.729Z</time>
      </trkpt>
      <trkpt lat="44.02476" lon="1.87786">
        <ele>253</ele>
        <time>2020-10-04T14:07:28.729Z</time>
      </trkpt>
      <trkpt lat="44.02475" lon="1.87785">
        <ele>253</ele>
        <time>2020-10-04T14:07:29.729Z</time>
      </trkpt>
      <trkpt lat="44.02474" lon="1.87784">
        <ele>253</ele>
        <time>2020-10-04T14:07:30.729Z</time>
      </trkpt>
      <trkpt lat="44.02473" lon="1.87783">
        <ele>253</ele>
        <time>2020-10-04T14:07:31.729Z</time>
      </trkpt>
      <trkpt lat="44.02472" lon="1.87783">
        <ele>253</ele>
        <time>2020-10-04T14:07:32.729Z</time>
      </trkpt>
      <trkpt lat="44.02471" lon="1.87782">
        <ele>253</ele>
        <time>2020-10-04T14:07:33.729Z</time>
      </trkpt>
      <trkpt lat="44.0247" lon="1.87781">
        <ele>253</ele>
        <time>2020-10-04T14:07:34.729Z</time>
      </trkpt>
      <trkpt lat="44.02469" lon="1.8778">
        <ele>253</ele>
        <time>2020-10-04T14:07:35.729Z</time>
      </trkpt>
      <trkpt lat="44.02468" lon="1.87779">
        <ele>253</ele>
        <time>2020-10-04T14:07:36.729Z</time>
      </trkpt>
      <trkpt lat="44.02467" lon="1.87777">
        <ele>253</ele>
        <time>2020-10-04T14:07:37.729Z</time>
      </trkpt>
      <trkpt lat="44.02466" lon="1.87776">
        <ele>254</ele>
        <time>2020-10-04T14:07:38.729Z</time>
      </trkpt>
      <trkpt lat="44.02466" lon="1.87775">
        <ele>254</ele>
        <time>2020-10-04T14:07:39.729Z</time>
      </trkpt>
      <trkpt lat="44.02465" lon="1.87774">
        <ele>254</ele>
        <time>2020-10-04T14:07:40.729Z</time>
      </trkpt>
      <trkpt lat="44.02464" lon="1.87772">
        <ele>254</ele>
        <time>2020-10-04T14:07:41.729Z</time>
      </trkpt>
      <trkpt lat="44.02463" lon="1.87771">
        <ele>254</ele>
        <time>2020-10-04T14:07:42.729Z</time>
      </trkpt>
      <trkpt lat="44.02462" lon="1.8777">
        <ele>254</ele>
        <time>2020-10-04T14:07:43.729Z</time>
      </trkpt>
      <trkpt lat="44.02462" lon="1.87769">
        <ele>254</ele>
        <time>2020-10-04T14:07:44.729Z</time>
      </trkpt>
      <trkpt lat="44.02461" lon="1.87769">
        <ele>255</ele>
        <time>2020-10-04T14:07:45.729Z</time>
      </trkpt>
      <trkpt lat="44.02461" lon="1.87768">
        <ele>255</ele>
        <time>2020-10-04T14:07:46.729Z</time>
      </trkpt>
      <trkpt lat="44.02461" lon="1.87768">
        <ele>255</ele>
        <time>2020-10-04T14:07:47.729Z</time>
      </trkpt>
      <trkpt lat="44.0246" lon="1.87768">
        <ele>255</ele>
        <time>2020-10-04T14:07:48.729Z</time>
      </trkpt>
      <trkpt lat="44.0246" lon="1.87767">
        <ele>255</ele>
        <time>2020-10-04T14:07:49.729Z</time>
      </trkpt>
      <trkpt lat="44.02459" lon="1.87766">
        <ele>255</ele>
        <time>2020-10-04T14:07:50.729Z</time>
      </trkpt>
      <trkpt lat="44.02459" lon="1.87765">
        <ele>255</ele>
        <time>2020-10-04T14:07:51.729Z</time>
      </trkpt>
      <trkpt lat="44.02458" lon="1.87763">
        <ele>255</ele>
        <time>2020-10-04T14:07:52.729Z</time>
      </trkpt>
      <trkpt lat="44.02457" lon="1.87762">
        <ele>255</ele>
        <time>2020-10-04T14:07:53.729Z</time>
      </trkpt>
      <trkpt lat="44.02456" lon="1.87761">
        <ele>255</ele>
        <time>2020-10-04T14:07:54.729Z</time>
      </trkpt>
      <trkpt lat="44.02456" lon="1.8776">
        <ele>255</ele>
        <time>2020-10-04T14:07:55.729Z</time>
      </trkpt>
      <trkpt lat="44.02455" lon="1.87759">
        <ele>255</ele>
        <time>2020-10-04T14:07:56.729Z</time>
      </trkpt>
      <trkpt lat="44.02454" lon="1.87758">
        <ele>256</ele>
        <time>2020-10-04T14:07:57.729Z</time>
      </trkpt>
      <trkpt lat="44.02453" lon="1.87757">
        <ele>256</ele>
        <time>2020-10-04T14:07:58.729Z</time>
      </trkpt>
      <trkpt lat="44.02453" lon="1.87756">
        <ele>256</ele>
        <time>2020-10-04T14:07:59.729Z</time>
      </trkpt>
      <trkpt lat="44.02452" lon="1.87755">
        <ele>256</ele>
        <time>2020-10-04T14:08:00.729Z</time>
      </trkpt>
      <trkpt lat="44.02451" lon="1.87754">
        <ele>256</ele>
        <time>2020-10-04T14:08:01.729Z</time>
      </trkpt>
      <trkpt lat="44.0245" lon="1.87753">
        <ele>256</ele>
        <time>2020-10-04T14:08:02.729Z</time>
      </trkpt>
      <trkpt lat="44.0245" lon="1.87751">
        <ele>257</ele>
        <time>2020-10-04T14:08:03.729Z</time>
      </trkpt>
      <trkpt lat="44.02449" lon="1.8775">
        <ele>257</ele>
        <time>2020-10-04T14:08:04.729Z</time>
      </trkpt>
      <trkpt lat="44.02448" lon="1.87749">
        <ele>257</ele>
        <time>2020-10-04T14:08:05.729Z</time>
      </trkpt>
      <trkpt lat="44.02448" lon="1.87748">
        <ele>257</ele>
        <time>2020-10-04T14:08:06.729Z</time>
      </trkpt>
      <trkpt lat="44.02447" lon="1.87747">
        <ele>257</ele>
        <time>2020-10-04T14:08:07.729Z</time>
      </trkpt>
      <trkpt lat="44.02446" lon="1.87746">
        <ele>257</ele>
        <time>2020-10-04T14:08:08.729Z</time>
      </trkpt>
      <trkpt lat="44.02446" lon="1.87745">
        <ele>257</ele>
        <time>2020-10-04T14:08:09.729Z</time>
      </trkpt>
      <trkpt lat="44.02445" lon="1.87744">
        <ele>257</ele>
        <time>2020-10-04T14:08:10.729Z</time>
      </trkpt>
      <trkpt lat="44.02444" lon="1.87743">
        <ele>257</ele>
        <time>2020-10-04T14:08:11.729Z</time>
      </trkpt>
      <trkpt lat="44.02444" lon="1.87742">
        <ele>257</ele>
        <time>2020-10-04T14:08:12.729Z</time>
      </trkpt>
      <trkpt lat="44.02443" lon="1.87741">
        <ele>257</ele>
        <time>2020-10-04T14:08:13.729Z</time>
      </trkpt>
      <trkpt lat="44.02442" lon="1.8774">
        <ele>257</ele>
        <time>2020-10-04T14:08:14.729Z</time>
      </trkpt>
      <trkpt lat="44.02442" lon="1.87739">
        <ele>257</ele>
        <time>2020-10-04T14:08:15.729Z</time>
      </trkpt>
      <trkpt lat="44.02441" lon="1.87738">
        <ele>257</ele>
        <time>2020-10-04T14:08:16.729Z</time>
      </trkpt>
      <trkpt lat="44.0244" lon="1.87737">
        <ele>257</ele>
        <time>2020-10-04T14:08:17.729Z</time>
      </trkpt>
      <trkpt lat="44.02439" lon="1.87736">
        <ele>257</ele>
        <time>2020-10-04T14:08:18.729Z</time>
      </trkpt>
      <trkpt lat="44.02438" lon="1.87734">
        <ele>257</ele>
        <time>2020-10-04T14:08:19.729Z</time>
      </trkpt>
      <trkpt lat="44.02438" lon="1.87733">
        <ele>257</ele>
        <time>2020-10-04T14:08:20.729Z</time>
      </trkpt>
      <trkpt lat="44.02437" lon="1.87732">
        <ele>257</ele>
        <time>2020-10-04T14:08:21.729Z</time>
      </trkpt>
      <trkpt lat="44.02436" lon="1.87731">
        <ele>257</ele>
        <time>2020-10-04T14:08:22.729Z</time>
      </trkpt>
      <trkpt lat="44.02435" lon="1.8773">
        <ele>257</ele>
        <time>2020-10-04T14:08:23.729Z</time>
      </trkpt>
      <trkpt lat="44.02434" lon="1.87729">
        <ele>258</ele>
        <time>2020-10-04T14:08:24.729Z</time>
      </trkpt>
      <trkpt lat="44.02434" lon="1.87728">
        <ele>258</ele>
        <time>2020-10-04T14:08:25.729Z</time>
      </trkpt>
      <trkpt lat="44.02433" lon="1.87728">
        <ele>258</ele>
        <time>2020-10-04T14:08:26.729Z</time>
      </trkpt>
      <trkpt lat="44.02432" lon="1.87727">
        <ele>258</ele>
        <time>2020-10-04T14:08:27.729Z</time>
      </trkpt>
      <trkpt lat="44.02431" lon="1.87726">
        <ele>258</ele>
        <time>2020-10-04T14:08:28.729Z</time>
      </trkpt>
      <trkpt lat="44.0243" lon="1.87725">
        <ele>258</ele>
        <time>2020-10-04T14:08:29.729Z</time>
      </trkpt>
      <trkpt lat="44.02429" lon="1.87725">
        <ele>258</ele>
        <time>2020-10-04T14:08:30.729Z</time>
      </trkpt>
      <trkpt lat="44.02429" lon="1.87724">
        <ele>258</ele>
        <time>2020-10-04T14:08:31.729Z</time>
      </trkpt>
      <trkpt lat="44.02428" lon="1.87723">
        <ele>258</ele>
        <time>2020-10-04T14:08:32.729Z</time>
      </trkpt>
      <trkpt lat="44.02427" lon="1.87723">
        <ele>258</ele>
        <time>2020-10-04T14:08:33.729Z</time>
      </trkpt>
      <trkpt lat="44.02425" lon="1.87722">
        <ele>258</ele>
        <time>2020-10-04T14:08:34.729Z</time>
      </trkpt>
      <trkpt lat="44.02424" lon="1.87722">
        <ele>258</ele>
        <time>2020-10-04T14:08:35.729Z</time>
      </trkpt>
      <trkpt lat="44.02423" lon="1.87721">
        <ele>259</ele>
        <time>2020-10-04T14:08:36.729Z</time>
      </trkpt>
      <trkpt lat="44.02423" lon="1.87721">
        <ele>259</ele>
        <time>2020-10-04T14:08:37.729Z</time>
      </trkpt>
      <trkpt lat="44.02421" lon="1.8772">
        <ele>259</ele>
        <time>2020-10-04T14:08:38.729Z</time>
      </trkpt>
      <trkpt lat="44.0242" lon="1.8772">
        <ele>259</ele>
        <time>2020-10-04T14:08:39.729Z</time>
      </trkpt>
      <trkpt lat="44.02419" lon="1.87719">
        <ele>259</ele>
        <time>2020-10-04T14:08:40.729Z</time>
      </trkpt>
      <trkpt lat="44.02418" lon="1.87719">
        <ele>259</ele>
        <time>2020-10-04T14:08:41.729Z</time>
      </trkpt>
      <trkpt lat="44.02417" lon="1.8772">
        <ele>259</ele>
        <time>2020-10-04T14:08:42.729Z</time>
      </trkpt>
      <trkpt lat="44.02416" lon="1.8772">
        <ele>259</ele>
        <time>2020-10-04T14:08:43.729Z</time>
      </trkpt>
      <trkpt lat="44.02414" lon="1.8772">
        <ele>260</ele>
        <time>2020-10-04T14:08:44.729Z</time>
      </trkpt>
      <trkpt lat="44.02413" lon="1.8772">
        <ele>260</ele>
        <time>2020-10-04T14:08:45.729Z</time>
      </trkpt>
      <trkpt lat="44.02412" lon="1.8772">
        <ele>260</ele>
        <time>2020-10-04T14:08:46.729Z</time>
      </trkpt>
      <trkpt lat="44.02411" lon="1.8772">
        <ele>260</ele>
        <time>2020-10-04T14:08:47.729Z</time>
      </trkpt>
      <trkpt lat="44.0241" lon="1.8772">
        <ele>260</ele>
        <time>2020-10-04T14:08:48.729Z</time>
      </trkpt>
      <trkpt lat="44.02409" lon="1.87719">
        <ele>260</ele>
        <time>2020-10-04T14:08:49.729Z</time>
      </trkpt>
      <trkpt lat="44.02407" lon="1.87719">
        <ele>260</ele>
        <time>2020-10-04T14:08:50.729Z</time>
      </trkpt>
      <trkpt lat="44.02406" lon="1.87719">
        <ele>260</ele>
        <time>2020-10-04T14:08:51.729Z</time>
      </trkpt>
      <trkpt lat="44.02405" lon="1.8772">
        <ele>260</ele>
        <time>2020-10-04T14:08:52.729Z</time>
      </trkpt>
      <trkpt lat="44.02404" lon="1.8772">
        <ele>260</ele>
        <time>2020-10-04T14:08:53.729Z</time>
      </trkpt>
      <trkpt lat="44.02404" lon="1.87721">
        <ele>260</ele>
        <time>2020-10-04T14:08:54.729Z</time>
      </trkpt>
      <trkpt lat="44.02403" lon="1.87722">
        <ele>260</ele>
        <time>2020-10-04T14:08:55.729Z</time>
      </trkpt>
      <trkpt lat="44.02403" lon="1.87723">
        <ele>260</ele>
        <time>2020-10-04T14:08:56.729Z</time>
      </trkpt>
      <trkpt lat="44.02402" lon="1.87724">
        <ele>260</ele>
        <time>2020-10-04T14:08:57.729Z</time>
      </trkpt>
      <trkpt lat="44.02401" lon="1.87726">
        <ele>260</ele>
        <time>2020-10-04T14:08:58.729Z</time>
      </trkpt>
      <trkpt lat="44.02401" lon="1.87727">
        <ele>260</ele>
        <time>2020-10-04T14:08:59.729Z</time>
      </trkpt>
      <trkpt lat="44.024" lon="1.87729">
        <ele>261</ele>
        <time>2020-10-04T14:09:00.729Z</time>
      </trkpt>
      <trkpt lat="44.024" lon="1.8773">
        <ele>261</ele>
        <time>2020-10-04T14:09:01.729Z</time>
      </trkpt>
      <trkpt lat="44.024" lon="1.87732">
        <ele>261</ele>
        <time>2020-10-04T14:09:02.729Z</time>
      </trkpt>
      <trkpt lat="44.024" lon="1.87734">
        <ele>261</ele>
        <time>2020-10-04T14:09:03.729Z</time>
      </trkpt>
      <trkpt lat="44.02399" lon="1.87735">
        <ele>261</ele>
        <time>2020-10-04T14:09:04.729Z</time>
      </trkpt>
      <trkpt lat="44.02399" lon="1.87737">
        <ele>261</ele>
        <time>2020-10-04T14:09:05.729Z</time>
      </trkpt>
      <trkpt lat="44.02399" lon="1.87738">
        <ele>261</ele>
        <time>2020-10-04T14:09:06.729Z</time>
      </trkpt>
      <trkpt lat="44.02399" lon="1.87738">
        <ele>261</ele>
        <time>2020-10-04T14:09:07.729Z</time>
      </trkpt>
      <trkpt lat="44.02399" lon="1.87739">
        <ele>261</ele>
        <time>2020-10-04T14:09:08.729Z</time>
      </trkpt>
      <trkpt lat="44.02399" lon="1.8774">
        <ele>261</ele>
        <time>2020-10-04T14:09:09.729Z</time>
      </trkpt>
      <trkpt lat="44.02398" lon="1.87742">
        <ele>261</ele>
        <time>2020-10-04T14:09:10.729Z</time>
      </trkpt>
      <trkpt lat="44.02398" lon="1.87744">
        <ele>261</ele>
        <time>2020-10-04T14:09:11.729Z</time>
      </trkpt>
      <trkpt lat="44.02398" lon="1.87745">
        <ele>261</ele>
        <time>2020-10-04T14:09:12.729Z</time>
      </trkpt>
      <trkpt lat="44.02397" lon="1.87747">
        <ele>261</ele>
        <time>2020-10-04T14:09:13.729Z</time>
      </trkpt>
      <trkpt lat="44.02397" lon="1.87749">
        <ele>261</ele>
        <time>2020-10-04T14:09:14.729Z</time>
      </trkpt>
      <trkpt lat="44.02396" lon="1.8775">
        <ele>261</ele>
        <time>2020-10-04T14:09:15.729Z</time>
      </trkpt>
      <trkpt lat="44.02396" lon="1.87752">
        <ele>262</ele>
        <time>2020-10-04T14:09:16.729Z</time>
      </trkpt>
      <trkpt lat="44.02396" lon="1.87754">
        <ele>262</ele>
        <time>2020-10-04T14:09:17.729Z</time>
      </trkpt>
      <trkpt lat="44.02395" lon="1.87755">
        <ele>262</ele>
        <time>2020-10-04T14:09:18.729Z</time>
      </trkpt>
      <trkpt lat="44.02395" lon="1.87757">
        <ele>262</ele>
        <time>2020-10-04T14:09:19.729Z</time>
      </trkpt>
      <trkpt lat="44.02394" lon="1.87758">
        <ele>262</ele>
        <time>2020-10-04T14:09:20.729Z</time>
      </trkpt>
      <trkpt lat="44.02394" lon="1.8776">
        <ele>262</ele>
        <time>2020-10-04T14:09:21.729Z</time>
      </trkpt>
      <trkpt lat="44.02394" lon="1.87762">
        <ele>262</ele>
        <time>2020-10-04T14:09:22.729Z</time>
      </trkpt>
      <trkpt lat="44.02394" lon="1.87763">
        <ele>262</ele>
        <time>2020-10-04T14:09:23.729Z</time>
      </trkpt>
      <trkpt lat="44.02394" lon="1.87765">
        <ele>262</ele>
        <time>2020-10-04T14:09:24.729Z</time>
      </trkpt>
      <trkpt lat="44.02394" lon="1.87767">
        <ele>262</ele>
        <time>2020-10-04T14:09:25.729Z</time>
      </trkpt>
      <trkpt lat="44.02394" lon="1.87768">
        <ele>262</ele>
        <time>2020-10-04T14:09:26.729Z</time>
      </trkpt>
      <trkpt lat="44.02395" lon="1.87769">
        <ele>262</ele>
        <time>2020-10-04T14:09:27.729Z</time>
      </trkpt>
      <trkpt lat="44.02396" lon="1.87771">
        <ele>262</ele>
        <time>2020-10-04T14:09:28.729Z</time>
      </trkpt>
      <trkpt lat="44.02397" lon="1.87772">
        <ele>262</ele>
        <time>2020-10-04T14:09:29.729Z</time>
      </trkpt>
      <trkpt lat="44.02397" lon="1.87773">
        <ele>262</ele>
        <time>2020-10-04T14:09:30.729Z</time>
      </trkpt>
      <trkpt lat="44.02398" lon="1.87775">
        <ele>262</ele>
        <time>2020-10-04T14:09:31.729Z</time>
      </trkpt>
      <trkpt lat="44.02399" lon="1.87776">
        <ele>262</ele>
        <time>2020-10-04T14:09:32.729Z</time>
      </trkpt>
      <trkpt lat="44.024" lon="1.87777">
        <ele>262</ele>
        <time>2020-10-04T14:09:33.729Z</time>
      </trkpt>
      <trkpt lat="44.02401" lon="1.87778">
        <ele>262</ele>
        <time>2020-10-04T14:09:34.729Z</time>
      </trkpt>
      <trkpt lat="44.02401" lon="1.8778">
        <ele>262</ele>
        <time>2020-10-04T14:09:35.729Z</time>
      </trkpt>
      <trkpt lat="44.02402" lon="1.87781">
        <ele>262</ele>
        <time>2020-10-04T14:09:36.729Z</time>
      </trkpt>
      <trkpt lat="44.02402" lon="1.87783">
        <ele>262</ele>
        <time>2020-10-04T14:09:37.729Z</time>
      </trkpt>
      <trkpt lat="44.02403" lon="1.87784">
        <ele>262</ele>
        <time>2020-10-04T14:09:38.729Z</time>
      </trkpt>
      <trkpt lat="44.02403" lon="1.87786">
        <ele>262</ele>
        <time>2020-10-04T14:09:39.729Z</time>
      </trkpt>
      <trkpt lat="44.02403" lon="1.87788">
        <ele>262</ele>
        <time>2020-10-04T14:09:40.729Z</time>
      </trkpt>
      <trkpt lat="44.02404" lon="1.87789">
        <ele>262</ele>
        <time>2020-10-04T14:09:41.729Z</time>
      </trkpt>
      <trkpt lat="44.02404" lon="1.87791">
        <ele>262</ele>
        <time>2020-10-04T14:09:42.729Z</time>
      </trkpt>
      <trkpt lat="44.02403" lon="1.87793">
        <ele>263</ele>
        <time>2020-10-04T14:09:43.729Z</time>
      </trkpt>
      <trkpt lat="44.02404" lon="1.87794">
        <ele>263</ele>
        <time>2020-10-04T14:09:44.729Z</time>
      </trkpt>
      <trkpt lat="44.02403" lon="1.87796">
        <ele>263</ele>
        <time>2020-10-04T14:09:45.729Z</time>
      </trkpt>
      <trkpt lat="44.02403" lon="1.87798">
        <ele>263</ele>
        <time>2020-10-04T14:09:46.729Z</time>
      </trkpt>
      <trkpt lat="44.02403" lon="1.878">
        <ele>263</ele>
        <time>2020-10-04T14:09:47.729Z</time>
      </trkpt>
      <trkpt lat="44.02403" lon="1.87801">
        <ele>263</ele>
        <time>2020-10-04T14:09:48.729Z</time>
      </trkpt>
      <trkpt lat="44.02402" lon="1.87803">
        <ele>263</ele>
        <time>2020-10-04T14:09:49.729Z</time>
      </trkpt>
      <trkpt lat="44.02402" lon="1.87804">
        <ele>263</ele>
        <time>2020-10-04T14:09:50.729Z</time>
      </trkpt>
      <trkpt lat="44.02402" lon="1.87806">
        <ele>263</ele>
        <time>2020-10-04T14:09:51.729Z</time>
      </trkpt>
      <trkpt lat="44.02402" lon="1.87807">
        <ele>263</ele>
        <time>2020-10-04T14:09:52.729Z</time>
      </trkpt>
      <trkpt lat="44.02403" lon="1.87809">
        <ele>263</ele>
        <time>2020-10-04T14:09:53.729Z</time>
      </trkpt>
      <trkpt lat="44.02403" lon="1.8781">
        <ele>263</ele>
        <time>2020-10-04T14:09:54.729Z</time>
      </trkpt>
      <trkpt lat="44.02403" lon="1.87811">
        <ele>263</ele>
        <time>2020-10-04T14:09:55.729Z</time>
      </trkpt>
      <trkpt lat="44.02403" lon="1.87812">
        <ele>263</ele>
        <time>2020-10-04T14:09:56.729Z</time>
      </trkpt>
    </trkseg>
  </trk>
</gpx>